<?xml version="1.0" encoding="UTF-8"?>
<gpx version="1.1" creator="https://www.youtrack.es" xsi:schemaLocation="http://www.topografix.com/GPX/1/1 http://www.topografix.com/GPX/1/1/gpx.xsd http://www.garmin.com/xmlschemas/GpxExtensions/v3 http://www.garmin.com/xmlschemas/GpxExtensionsv3.xsd http://www.garmin.com/xmlschemas/TrackPointExtension/v1 http://www.garmin.com/xmlschemas/TrackPointExtensionv1.xsd" xmlns:gpxtpx="http://www.garmin.com/xmlschemas/TrackPointExtension/v1" xmlns:gpxx="http://www.garmin.com/xmlschemas/GpxExtensions/v3" xmlns:xsi="http://www.w3.org/2001/XMLSchema-instance">
  <metadata>
    <author>
      <name>Aitor Torres Cabello</name>
      <email id="aitortorrescabello" domain="gmail.com"/>
    </author>
    <link href="https://www.youtrack.es">
      <text>YouTrack.es</text>
    </link>
    <time>2026-05-07T20:59:42Z</time>
  </metadata>
  <trk>
    <src>https://www.youtrack.es</src>
    <link href="https://www.youtrack.es/ruta/3057-lleida-bt-lleida-1">
      <text>YouTrack.es</text>
    </link>
    <trkseg>
      <trkpt lat="41.664040" lon="0.604699">
        <ele>203.018</ele>
        <time>2018-11-24T09:09:41Z</time>
      </trkpt>
      <trkpt lat="41.664106" lon="0.604693">
        <ele>203.098</ele>
        <time>2018-11-24T09:09:55Z</time>
      </trkpt>
      <trkpt lat="41.664163" lon="0.604713">
        <ele>203.017</ele>
        <time>2018-11-24T09:09:57Z</time>
      </trkpt>
      <trkpt lat="41.664211" lon="0.604741">
        <ele>203.008</ele>
        <time>2018-11-24T09:09:59Z</time>
      </trkpt>
      <trkpt lat="41.664255" lon="0.604761">
        <ele>203.044</ele>
        <time>2018-11-24T09:10:01Z</time>
      </trkpt>
      <trkpt lat="41.664307" lon="0.604786">
        <ele>203.041</ele>
        <time>2018-11-24T09:10:06Z</time>
      </trkpt>
      <trkpt lat="41.664329" lon="0.604841">
        <ele>203.058</ele>
        <time>2018-11-24T09:10:23Z</time>
      </trkpt>
      <trkpt lat="41.664324" lon="0.604902">
        <ele>203.098</ele>
        <time>2018-11-24T09:10:25Z</time>
      </trkpt>
      <trkpt lat="41.664292" lon="0.605058">
        <ele>203.059</ele>
        <time>2018-11-24T09:10:27Z</time>
      </trkpt>
      <trkpt lat="41.664282" lon="0.605121">
        <ele>203.068</ele>
        <time>2018-11-24T09:10:28Z</time>
      </trkpt>
      <trkpt lat="41.664281" lon="0.605184">
        <ele>203.028</ele>
        <time>2018-11-24T09:10:29Z</time>
      </trkpt>
      <trkpt lat="41.664301" lon="0.605297">
        <ele>203.083</ele>
        <time>2018-11-24T09:10:31Z</time>
      </trkpt>
      <trkpt lat="41.664312" lon="0.605358">
        <ele>203.012</ele>
        <time>2018-11-24T09:10:32Z</time>
      </trkpt>
      <trkpt lat="41.664321" lon="0.605423">
        <ele>203.032</ele>
        <time>2018-11-24T09:10:33Z</time>
      </trkpt>
      <trkpt lat="41.664329" lon="0.605486">
        <ele>203.005</ele>
        <time>2018-11-24T09:10:34Z</time>
      </trkpt>
      <trkpt lat="41.664340" lon="0.605550">
        <ele>202.908</ele>
        <time>2018-11-24T09:10:35Z</time>
      </trkpt>
      <trkpt lat="41.664416" lon="0.605591">
        <ele>202.884</ele>
        <time>2018-11-24T09:10:37Z</time>
      </trkpt>
      <trkpt lat="41.664461" lon="0.605564">
        <ele>202.891</ele>
        <time>2018-11-24T09:10:38Z</time>
      </trkpt>
      <trkpt lat="41.664513" lon="0.605524">
        <ele>203.128</ele>
        <time>2018-11-24T09:10:39Z</time>
      </trkpt>
      <trkpt lat="41.664568" lon="0.605485">
        <ele>203.338</ele>
        <time>2018-11-24T09:10:40Z</time>
      </trkpt>
      <trkpt lat="41.664632" lon="0.605445">
        <ele>203.539</ele>
        <time>2018-11-24T09:10:41Z</time>
      </trkpt>
      <trkpt lat="41.664708" lon="0.605408">
        <ele>203.878</ele>
        <time>2018-11-24T09:10:42Z</time>
      </trkpt>
      <trkpt lat="41.664782" lon="0.605374">
        <ele>203.848</ele>
        <time>2018-11-24T09:10:43Z</time>
      </trkpt>
      <trkpt lat="41.664856" lon="0.605339">
        <ele>203.923</ele>
        <time>2018-11-24T09:10:44Z</time>
      </trkpt>
      <trkpt lat="41.664931" lon="0.605300">
        <ele>204.193</ele>
        <time>2018-11-24T09:10:45Z</time>
      </trkpt>
      <trkpt lat="41.665007" lon="0.605258">
        <ele>204.365</ele>
        <time>2018-11-24T09:10:46Z</time>
      </trkpt>
      <trkpt lat="41.665080" lon="0.605220">
        <ele>204.321</ele>
        <time>2018-11-24T09:10:47Z</time>
      </trkpt>
      <trkpt lat="41.665146" lon="0.605192">
        <ele>204.308</ele>
        <time>2018-11-24T09:10:48Z</time>
      </trkpt>
      <trkpt lat="41.665204" lon="0.605166">
        <ele>204.332</ele>
        <time>2018-11-24T09:10:49Z</time>
      </trkpt>
      <trkpt lat="41.665254" lon="0.605148">
        <ele>204.359</ele>
        <time>2018-11-24T09:10:50Z</time>
      </trkpt>
      <trkpt lat="41.665310" lon="0.605128">
        <ele>204.546</ele>
        <time>2018-11-24T09:10:51Z</time>
      </trkpt>
      <trkpt lat="41.665376" lon="0.605097">
        <ele>204.896</ele>
        <time>2018-11-24T09:10:52Z</time>
      </trkpt>
      <trkpt lat="41.665450" lon="0.605044">
        <ele>205.177</ele>
        <time>2018-11-24T09:10:53Z</time>
      </trkpt>
      <trkpt lat="41.665530" lon="0.604998">
        <ele>205.276</ele>
        <time>2018-11-24T09:10:54Z</time>
      </trkpt>
      <trkpt lat="41.665613" lon="0.604949">
        <ele>205.486</ele>
        <time>2018-11-24T09:10:55Z</time>
      </trkpt>
      <trkpt lat="41.665707" lon="0.604893">
        <ele>205.641</ele>
        <time>2018-11-24T09:10:56Z</time>
      </trkpt>
      <trkpt lat="41.665813" lon="0.604840">
        <ele>206.137</ele>
        <time>2018-11-24T09:10:57Z</time>
      </trkpt>
      <trkpt lat="41.665926" lon="0.604780">
        <ele>206.449</ele>
        <time>2018-11-24T09:10:58Z</time>
      </trkpt>
      <trkpt lat="41.666036" lon="0.604725">
        <ele>206.513</ele>
        <time>2018-11-24T09:10:59Z</time>
      </trkpt>
      <trkpt lat="41.666141" lon="0.604673">
        <ele>206.608</ele>
        <time>2018-11-24T09:11:00Z</time>
      </trkpt>
      <trkpt lat="41.666239" lon="0.604621">
        <ele>206.746</ele>
        <time>2018-11-24T09:11:01Z</time>
      </trkpt>
      <trkpt lat="41.666332" lon="0.604573">
        <ele>206.743</ele>
        <time>2018-11-24T09:11:02Z</time>
      </trkpt>
      <trkpt lat="41.666424" lon="0.604534">
        <ele>206.960</ele>
        <time>2018-11-24T09:11:03Z</time>
      </trkpt>
      <trkpt lat="41.666519" lon="0.604492">
        <ele>207.190</ele>
        <time>2018-11-24T09:11:04Z</time>
      </trkpt>
      <trkpt lat="41.666620" lon="0.604431">
        <ele>207.591</ele>
        <time>2018-11-24T09:11:05Z</time>
      </trkpt>
      <trkpt lat="41.666736" lon="0.604352">
        <ele>208.290</ele>
        <time>2018-11-24T09:11:06Z</time>
      </trkpt>
      <trkpt lat="41.666864" lon="0.604275">
        <ele>208.760</ele>
        <time>2018-11-24T09:11:07Z</time>
      </trkpt>
      <trkpt lat="41.666994" lon="0.604205">
        <ele>209.015</ele>
        <time>2018-11-24T09:11:08Z</time>
      </trkpt>
      <trkpt lat="41.667119" lon="0.604141">
        <ele>209.164</ele>
        <time>2018-11-24T09:11:09Z</time>
      </trkpt>
      <trkpt lat="41.667239" lon="0.604082">
        <ele>209.206</ele>
        <time>2018-11-24T09:11:10Z</time>
      </trkpt>
      <trkpt lat="41.667352" lon="0.604027">
        <ele>209.316</ele>
        <time>2018-11-24T09:11:11Z</time>
      </trkpt>
      <trkpt lat="41.667450" lon="0.603978">
        <ele>209.308</ele>
        <time>2018-11-24T09:11:12Z</time>
      </trkpt>
      <trkpt lat="41.667534" lon="0.603935">
        <ele>209.099</ele>
        <time>2018-11-24T09:11:13Z</time>
      </trkpt>
      <trkpt lat="41.667595" lon="0.603905">
        <ele>208.856</ele>
        <time>2018-11-24T09:11:14Z</time>
      </trkpt>
      <trkpt lat="41.667640" lon="0.603886">
        <ele>208.763</ele>
        <time>2018-11-24T09:11:15Z</time>
      </trkpt>
      <trkpt lat="41.667696" lon="0.603863">
        <ele>208.853</ele>
        <time>2018-11-24T09:11:18Z</time>
      </trkpt>
      <trkpt lat="41.667768" lon="0.603827">
        <ele>209.184</ele>
        <time>2018-11-24T09:11:20Z</time>
      </trkpt>
      <trkpt lat="41.667817" lon="0.603796">
        <ele>209.283</ele>
        <time>2018-11-24T09:11:21Z</time>
      </trkpt>
      <trkpt lat="41.667866" lon="0.603765">
        <ele>209.283</ele>
        <time>2018-11-24T09:11:22Z</time>
      </trkpt>
      <trkpt lat="41.667918" lon="0.603729">
        <ele>209.488</ele>
        <time>2018-11-24T09:11:23Z</time>
      </trkpt>
      <trkpt lat="41.667982" lon="0.603687">
        <ele>209.852</ele>
        <time>2018-11-24T09:11:24Z</time>
      </trkpt>
      <trkpt lat="41.668057" lon="0.603640">
        <ele>210.053</ele>
        <time>2018-11-24T09:11:25Z</time>
      </trkpt>
      <trkpt lat="41.668135" lon="0.603593">
        <ele>210.408</ele>
        <time>2018-11-24T09:11:26Z</time>
      </trkpt>
      <trkpt lat="41.668212" lon="0.603548">
        <ele>210.508</ele>
        <time>2018-11-24T09:11:27Z</time>
      </trkpt>
      <trkpt lat="41.668288" lon="0.603504">
        <ele>210.688</ele>
        <time>2018-11-24T09:11:28Z</time>
      </trkpt>
      <trkpt lat="41.668371" lon="0.603456">
        <ele>210.845</ele>
        <time>2018-11-24T09:11:29Z</time>
      </trkpt>
      <trkpt lat="41.668454" lon="0.603405">
        <ele>211.192</ele>
        <time>2018-11-24T09:11:30Z</time>
      </trkpt>
      <trkpt lat="41.668535" lon="0.603355">
        <ele>211.282</ele>
        <time>2018-11-24T09:11:31Z</time>
      </trkpt>
      <trkpt lat="41.668611" lon="0.603308">
        <ele>211.383</ele>
        <time>2018-11-24T09:11:32Z</time>
      </trkpt>
      <trkpt lat="41.668677" lon="0.603271">
        <ele>211.482</ele>
        <time>2018-11-24T09:11:33Z</time>
      </trkpt>
      <trkpt lat="41.668736" lon="0.603245">
        <ele>211.462</ele>
        <time>2018-11-24T09:11:34Z</time>
      </trkpt>
      <trkpt lat="41.668792" lon="0.603230">
        <ele>211.647</ele>
        <time>2018-11-24T09:11:35Z</time>
      </trkpt>
      <trkpt lat="41.668848" lon="0.603219">
        <ele>211.732</ele>
        <time>2018-11-24T09:11:36Z</time>
      </trkpt>
      <trkpt lat="41.668904" lon="0.603231">
        <ele>211.892</ele>
        <time>2018-11-24T09:11:37Z</time>
      </trkpt>
      <trkpt lat="41.668959" lon="0.603272">
        <ele>212.011</ele>
        <time>2018-11-24T09:11:38Z</time>
      </trkpt>
      <trkpt lat="41.669003" lon="0.603349">
        <ele>212.108</ele>
        <time>2018-11-24T09:11:39Z</time>
      </trkpt>
      <trkpt lat="41.669035" lon="0.603452">
        <ele>212.166</ele>
        <time>2018-11-24T09:11:40Z</time>
      </trkpt>
      <trkpt lat="41.669069" lon="0.603565">
        <ele>212.243</ele>
        <time>2018-11-24T09:11:41Z</time>
      </trkpt>
      <trkpt lat="41.669106" lon="0.603678">
        <ele>212.170</ele>
        <time>2018-11-24T09:11:42Z</time>
      </trkpt>
      <trkpt lat="41.669141" lon="0.603789">
        <ele>211.910</ele>
        <time>2018-11-24T09:11:43Z</time>
      </trkpt>
      <trkpt lat="41.669175" lon="0.603901">
        <ele>211.781</ele>
        <time>2018-11-24T09:11:44Z</time>
      </trkpt>
      <trkpt lat="41.669209" lon="0.604012">
        <ele>211.580</ele>
        <time>2018-11-24T09:11:45Z</time>
      </trkpt>
      <trkpt lat="41.669246" lon="0.604124">
        <ele>211.520</ele>
        <time>2018-11-24T09:11:46Z</time>
      </trkpt>
      <trkpt lat="41.669284" lon="0.604239">
        <ele>211.515</ele>
        <time>2018-11-24T09:11:47Z</time>
      </trkpt>
      <trkpt lat="41.669324" lon="0.604358">
        <ele>211.486</ele>
        <time>2018-11-24T09:11:48Z</time>
      </trkpt>
      <trkpt lat="41.669359" lon="0.604477">
        <ele>211.260</ele>
        <time>2018-11-24T09:11:49Z</time>
      </trkpt>
      <trkpt lat="41.669396" lon="0.604593">
        <ele>211.126</ele>
        <time>2018-11-24T09:11:50Z</time>
      </trkpt>
      <trkpt lat="41.669430" lon="0.604711">
        <ele>210.908</ele>
        <time>2018-11-24T09:11:51Z</time>
      </trkpt>
      <trkpt lat="41.669463" lon="0.604830">
        <ele>210.761</ele>
        <time>2018-11-24T09:11:52Z</time>
      </trkpt>
      <trkpt lat="41.669495" lon="0.604943">
        <ele>210.558</ele>
        <time>2018-11-24T09:11:53Z</time>
      </trkpt>
      <trkpt lat="41.669524" lon="0.605056">
        <ele>210.385</ele>
        <time>2018-11-24T09:11:54Z</time>
      </trkpt>
      <trkpt lat="41.669546" lon="0.605171">
        <ele>210.425</ele>
        <time>2018-11-24T09:11:55Z</time>
      </trkpt>
      <trkpt lat="41.669564" lon="0.605286">
        <ele>210.116</ele>
        <time>2018-11-24T09:11:56Z</time>
      </trkpt>
      <trkpt lat="41.669575" lon="0.605398">
        <ele>209.765</ele>
        <time>2018-11-24T09:11:57Z</time>
      </trkpt>
      <trkpt lat="41.669576" lon="0.605510">
        <ele>209.655</ele>
        <time>2018-11-24T09:11:58Z</time>
      </trkpt>
      <trkpt lat="41.669580" lon="0.605620">
        <ele>209.560</ele>
        <time>2018-11-24T09:11:59Z</time>
      </trkpt>
      <trkpt lat="41.669603" lon="0.605725">
        <ele>209.512</ele>
        <time>2018-11-24T09:12:00Z</time>
      </trkpt>
      <trkpt lat="41.669649" lon="0.605813">
        <ele>209.532</ele>
        <time>2018-11-24T09:12:01Z</time>
      </trkpt>
      <trkpt lat="41.669717" lon="0.605873">
        <ele>209.505</ele>
        <time>2018-11-24T09:12:02Z</time>
      </trkpt>
      <trkpt lat="41.669785" lon="0.605931">
        <ele>209.708</ele>
        <time>2018-11-24T09:12:03Z</time>
      </trkpt>
      <trkpt lat="41.669867" lon="0.605918">
        <ele>209.964</ele>
        <time>2018-11-24T09:12:04Z</time>
      </trkpt>
      <trkpt lat="41.669949" lon="0.605872">
        <ele>210.281</ele>
        <time>2018-11-24T09:12:05Z</time>
      </trkpt>
      <trkpt lat="41.670019" lon="0.605770">
        <ele>210.418</ele>
        <time>2018-11-24T09:12:06Z</time>
      </trkpt>
      <trkpt lat="41.670096" lon="0.605661">
        <ele>210.698</ele>
        <time>2018-11-24T09:12:07Z</time>
      </trkpt>
      <trkpt lat="41.670181" lon="0.605556">
        <ele>211.029</ele>
        <time>2018-11-24T09:12:08Z</time>
      </trkpt>
      <trkpt lat="41.670292" lon="0.605472">
        <ele>211.628</ele>
        <time>2018-11-24T09:12:09Z</time>
      </trkpt>
      <trkpt lat="41.670414" lon="0.605385">
        <ele>212.128</ele>
        <time>2018-11-24T09:12:10Z</time>
      </trkpt>
      <trkpt lat="41.670536" lon="0.605307">
        <ele>212.493</ele>
        <time>2018-11-24T09:12:11Z</time>
      </trkpt>
      <trkpt lat="41.670660" lon="0.605230">
        <ele>212.737</ele>
        <time>2018-11-24T09:12:12Z</time>
      </trkpt>
      <trkpt lat="41.670792" lon="0.605155">
        <ele>213.149</ele>
        <time>2018-11-24T09:12:13Z</time>
      </trkpt>
      <trkpt lat="41.670931" lon="0.605072">
        <ele>213.613</ele>
        <time>2018-11-24T09:12:14Z</time>
      </trkpt>
      <trkpt lat="41.671076" lon="0.604980">
        <ele>214.008</ele>
        <time>2018-11-24T09:12:15Z</time>
      </trkpt>
      <trkpt lat="41.671228" lon="0.604885">
        <ele>214.546</ele>
        <time>2018-11-24T09:12:16Z</time>
      </trkpt>
      <trkpt lat="41.671385" lon="0.604781">
        <ele>215.113</ele>
        <time>2018-11-24T09:12:17Z</time>
      </trkpt>
      <trkpt lat="41.671543" lon="0.604675">
        <ele>215.590</ele>
        <time>2018-11-24T09:12:18Z</time>
      </trkpt>
      <trkpt lat="41.671698" lon="0.604571">
        <ele>215.860</ele>
        <time>2018-11-24T09:12:19Z</time>
      </trkpt>
      <trkpt lat="41.671854" lon="0.604468">
        <ele>216.281</ele>
        <time>2018-11-24T09:12:20Z</time>
      </trkpt>
      <trkpt lat="41.672010" lon="0.604366">
        <ele>216.570</ele>
        <time>2018-11-24T09:12:21Z</time>
      </trkpt>
      <trkpt lat="41.672168" lon="0.604261">
        <ele>217.160</ele>
        <time>2018-11-24T09:12:22Z</time>
      </trkpt>
      <trkpt lat="41.672328" lon="0.604155">
        <ele>217.675</ele>
        <time>2018-11-24T09:12:23Z</time>
      </trkpt>
      <trkpt lat="41.672490" lon="0.604046">
        <ele>218.084</ele>
        <time>2018-11-24T09:12:24Z</time>
      </trkpt>
      <trkpt lat="41.672654" lon="0.603937">
        <ele>218.507</ele>
        <time>2018-11-24T09:12:25Z</time>
      </trkpt>
      <trkpt lat="41.672818" lon="0.603828">
        <ele>219.017</ele>
        <time>2018-11-24T09:12:26Z</time>
      </trkpt>
      <trkpt lat="41.672984" lon="0.603719">
        <ele>219.508</ele>
        <time>2018-11-24T09:12:27Z</time>
      </trkpt>
      <trkpt lat="41.673150" lon="0.603609">
        <ele>220.141</ele>
        <time>2018-11-24T09:12:28Z</time>
      </trkpt>
      <trkpt lat="41.673316" lon="0.603496">
        <ele>220.648</ele>
        <time>2018-11-24T09:12:29Z</time>
      </trkpt>
      <trkpt lat="41.673482" lon="0.603383">
        <ele>221.255</ele>
        <time>2018-11-24T09:12:30Z</time>
      </trkpt>
      <trkpt lat="41.673651" lon="0.603275">
        <ele>221.745</ele>
        <time>2018-11-24T09:12:31Z</time>
      </trkpt>
      <trkpt lat="41.673819" lon="0.603169">
        <ele>222.376</ele>
        <time>2018-11-24T09:12:32Z</time>
      </trkpt>
      <trkpt lat="41.673982" lon="0.603069">
        <ele>222.675</ele>
        <time>2018-11-24T09:12:33Z</time>
      </trkpt>
      <trkpt lat="41.674135" lon="0.602978">
        <ele>222.785</ele>
        <time>2018-11-24T09:12:34Z</time>
      </trkpt>
      <trkpt lat="41.674273" lon="0.602900">
        <ele>222.690</ele>
        <time>2018-11-24T09:12:35Z</time>
      </trkpt>
      <trkpt lat="41.674394" lon="0.602833">
        <ele>222.794</ele>
        <time>2018-11-24T09:12:36Z</time>
      </trkpt>
      <trkpt lat="41.674506" lon="0.602766">
        <ele>222.757</ele>
        <time>2018-11-24T09:12:37Z</time>
      </trkpt>
      <trkpt lat="41.674600" lon="0.602719">
        <ele>222.722</ele>
        <time>2018-11-24T09:12:38Z</time>
      </trkpt>
      <trkpt lat="41.674694" lon="0.602687">
        <ele>222.708</ele>
        <time>2018-11-24T09:12:39Z</time>
      </trkpt>
      <trkpt lat="41.674780" lon="0.602689">
        <ele>222.822</ele>
        <time>2018-11-24T09:12:40Z</time>
      </trkpt>
      <trkpt lat="41.674854" lon="0.602728">
        <ele>222.999</ele>
        <time>2018-11-24T09:12:41Z</time>
      </trkpt>
      <trkpt lat="41.674930" lon="0.602741">
        <ele>223.056</ele>
        <time>2018-11-24T09:12:42Z</time>
      </trkpt>
      <trkpt lat="41.675018" lon="0.602728">
        <ele>223.346</ele>
        <time>2018-11-24T09:12:43Z</time>
      </trkpt>
      <trkpt lat="41.675109" lon="0.602697">
        <ele>223.627</ele>
        <time>2018-11-24T09:12:44Z</time>
      </trkpt>
      <trkpt lat="41.675218" lon="0.602665">
        <ele>224.166</ele>
        <time>2018-11-24T09:12:45Z</time>
      </trkpt>
      <trkpt lat="41.675339" lon="0.602634">
        <ele>224.536</ele>
        <time>2018-11-24T09:12:46Z</time>
      </trkpt>
      <trkpt lat="41.675480" lon="0.602603">
        <ele>225.081</ele>
        <time>2018-11-24T09:12:47Z</time>
      </trkpt>
      <trkpt lat="41.675624" lon="0.602570">
        <ele>225.091</ele>
        <time>2018-11-24T09:12:48Z</time>
      </trkpt>
      <trkpt lat="41.675768" lon="0.602529">
        <ele>225.181</ele>
        <time>2018-11-24T09:12:49Z</time>
      </trkpt>
      <trkpt lat="41.675923" lon="0.602520">
        <ele>225.419</ele>
        <time>2018-11-24T09:12:50Z</time>
      </trkpt>
      <trkpt lat="41.676079" lon="0.602498">
        <ele>225.608</ele>
        <time>2018-11-24T09:12:51Z</time>
      </trkpt>
      <trkpt lat="41.676248" lon="0.602483">
        <ele>225.922</ele>
        <time>2018-11-24T09:12:52Z</time>
      </trkpt>
      <trkpt lat="41.676426" lon="0.602464">
        <ele>226.399</ele>
        <time>2018-11-24T09:12:53Z</time>
      </trkpt>
      <trkpt lat="41.676613" lon="0.602451">
        <ele>226.536</ele>
        <time>2018-11-24T09:12:54Z</time>
      </trkpt>
      <trkpt lat="41.676803" lon="0.602438">
        <ele>226.926</ele>
        <time>2018-11-24T09:12:55Z</time>
      </trkpt>
      <trkpt lat="41.676996" lon="0.602413">
        <ele>226.867</ele>
        <time>2018-11-24T09:12:56Z</time>
      </trkpt>
      <trkpt lat="41.677188" lon="0.602389">
        <ele>226.836</ele>
        <time>2018-11-24T09:12:57Z</time>
      </trkpt>
      <trkpt lat="41.677385" lon="0.602367">
        <ele>227.076</ele>
        <time>2018-11-24T09:12:58Z</time>
      </trkpt>
      <trkpt lat="41.677584" lon="0.602352">
        <ele>227.061</ele>
        <time>2018-11-24T09:12:59Z</time>
      </trkpt>
      <trkpt lat="41.677787" lon="0.602335">
        <ele>227.286</ele>
        <time>2018-11-24T09:13:00Z</time>
      </trkpt>
      <trkpt lat="41.677996" lon="0.602318">
        <ele>227.360</ele>
        <time>2018-11-24T09:13:01Z</time>
      </trkpt>
      <trkpt lat="41.678210" lon="0.602298">
        <ele>227.426</ele>
        <time>2018-11-24T09:13:02Z</time>
      </trkpt>
      <trkpt lat="41.678427" lon="0.602278">
        <ele>227.508</ele>
        <time>2018-11-24T09:13:03Z</time>
      </trkpt>
      <trkpt lat="41.678645" lon="0.602259">
        <ele>227.811</ele>
        <time>2018-11-24T09:13:04Z</time>
      </trkpt>
      <trkpt lat="41.678863" lon="0.602242">
        <ele>228.058</ele>
        <time>2018-11-24T09:13:05Z</time>
      </trkpt>
      <trkpt lat="41.679085" lon="0.602224">
        <ele>228.545</ele>
        <time>2018-11-24T09:13:06Z</time>
      </trkpt>
      <trkpt lat="41.679312" lon="0.602205">
        <ele>228.755</ele>
        <time>2018-11-24T09:13:07Z</time>
      </trkpt>
      <trkpt lat="41.679541" lon="0.602182">
        <ele>229.166</ele>
        <time>2018-11-24T09:13:08Z</time>
      </trkpt>
      <trkpt lat="41.679772" lon="0.602156">
        <ele>229.555</ele>
        <time>2018-11-24T09:13:09Z</time>
      </trkpt>
      <trkpt lat="41.679998" lon="0.602134">
        <ele>230.455</ele>
        <time>2018-11-24T09:13:10Z</time>
      </trkpt>
      <trkpt lat="41.680229" lon="0.602112">
        <ele>231.070</ele>
        <time>2018-11-24T09:13:11Z</time>
      </trkpt>
      <trkpt lat="41.680461" lon="0.602087">
        <ele>231.756</ele>
        <time>2018-11-24T09:13:12Z</time>
      </trkpt>
      <trkpt lat="41.680685" lon="0.602068">
        <ele>232.859</ele>
        <time>2018-11-24T09:13:13Z</time>
      </trkpt>
      <trkpt lat="41.680912" lon="0.602047">
        <ele>233.614</ele>
        <time>2018-11-24T09:13:14Z</time>
      </trkpt>
      <trkpt lat="41.681139" lon="0.602025">
        <ele>234.408</ele>
        <time>2018-11-24T09:13:15Z</time>
      </trkpt>
      <trkpt lat="41.681367" lon="0.602002">
        <ele>235.418</ele>
        <time>2018-11-24T09:13:16Z</time>
      </trkpt>
      <trkpt lat="41.681595" lon="0.601981">
        <ele>236.515</ele>
        <time>2018-11-24T09:13:17Z</time>
      </trkpt>
      <trkpt lat="41.681822" lon="0.601960">
        <ele>237.782</ele>
        <time>2018-11-24T09:13:18Z</time>
      </trkpt>
      <trkpt lat="41.682053" lon="0.601941">
        <ele>238.522</ele>
        <time>2018-11-24T09:13:19Z</time>
      </trkpt>
      <trkpt lat="41.682281" lon="0.601924">
        <ele>239.213</ele>
        <time>2018-11-24T09:13:20Z</time>
      </trkpt>
      <trkpt lat="41.682511" lon="0.601900">
        <ele>240.092</ele>
        <time>2018-11-24T09:13:21Z</time>
      </trkpt>
      <trkpt lat="41.682743" lon="0.601879">
        <ele>240.562</ele>
        <time>2018-11-24T09:13:22Z</time>
      </trkpt>
      <trkpt lat="41.682972" lon="0.601854">
        <ele>241.137</ele>
        <time>2018-11-24T09:13:23Z</time>
      </trkpt>
      <trkpt lat="41.683203" lon="0.601828">
        <ele>241.526</ele>
        <time>2018-11-24T09:13:24Z</time>
      </trkpt>
      <trkpt lat="41.683436" lon="0.601795">
        <ele>241.847</ele>
        <time>2018-11-24T09:13:25Z</time>
      </trkpt>
      <trkpt lat="41.683668" lon="0.601752">
        <ele>241.911</ele>
        <time>2018-11-24T09:13:26Z</time>
      </trkpt>
      <trkpt lat="41.683901" lon="0.601700">
        <ele>242.008</ele>
        <time>2018-11-24T09:13:27Z</time>
      </trkpt>
      <trkpt lat="41.684132" lon="0.601642">
        <ele>241.845</ele>
        <time>2018-11-24T09:13:28Z</time>
      </trkpt>
      <trkpt lat="41.684362" lon="0.601580">
        <ele>241.682</ele>
        <time>2018-11-24T09:13:29Z</time>
      </trkpt>
      <trkpt lat="41.684587" lon="0.601513">
        <ele>241.539</ele>
        <time>2018-11-24T09:13:30Z</time>
      </trkpt>
      <trkpt lat="41.684813" lon="0.601442">
        <ele>241.299</ele>
        <time>2018-11-24T09:13:31Z</time>
      </trkpt>
      <trkpt lat="41.685039" lon="0.601372">
        <ele>240.710</ele>
        <time>2018-11-24T09:13:32Z</time>
      </trkpt>
      <trkpt lat="41.685265" lon="0.601302">
        <ele>240.359</ele>
        <time>2018-11-24T09:13:33Z</time>
      </trkpt>
      <trkpt lat="41.685490" lon="0.601232">
        <ele>239.859</ele>
        <time>2018-11-24T09:13:34Z</time>
      </trkpt>
      <trkpt lat="41.685716" lon="0.601161">
        <ele>239.464</ele>
        <time>2018-11-24T09:13:35Z</time>
      </trkpt>
      <trkpt lat="41.685941" lon="0.601089">
        <ele>239.265</ele>
        <time>2018-11-24T09:13:36Z</time>
      </trkpt>
      <trkpt lat="41.686166" lon="0.601016">
        <ele>239.268</ele>
        <time>2018-11-24T09:13:37Z</time>
      </trkpt>
      <trkpt lat="41.686391" lon="0.600947">
        <ele>239.114</ele>
        <time>2018-11-24T09:13:38Z</time>
      </trkpt>
      <trkpt lat="41.686616" lon="0.600880">
        <ele>238.908</ele>
        <time>2018-11-24T09:13:39Z</time>
      </trkpt>
      <trkpt lat="41.686841" lon="0.600813">
        <ele>238.949</ele>
        <time>2018-11-24T09:13:40Z</time>
      </trkpt>
      <trkpt lat="41.687064" lon="0.600745">
        <ele>239.086</ele>
        <time>2018-11-24T09:13:41Z</time>
      </trkpt>
      <trkpt lat="41.687288" lon="0.600676">
        <ele>239.133</ele>
        <time>2018-11-24T09:13:42Z</time>
      </trkpt>
      <trkpt lat="41.687512" lon="0.600607">
        <ele>239.593</ele>
        <time>2018-11-24T09:13:43Z</time>
      </trkpt>
      <trkpt lat="41.687736" lon="0.600538">
        <ele>239.734</ele>
        <time>2018-11-24T09:13:44Z</time>
      </trkpt>
      <trkpt lat="41.687960" lon="0.600469">
        <ele>240.073</ele>
        <time>2018-11-24T09:13:45Z</time>
      </trkpt>
      <trkpt lat="41.688183" lon="0.600401">
        <ele>240.553</ele>
        <time>2018-11-24T09:13:46Z</time>
      </trkpt>
      <trkpt lat="41.688396" lon="0.600336">
        <ele>240.888</ele>
        <time>2018-11-24T09:13:47Z</time>
      </trkpt>
      <trkpt lat="41.688593" lon="0.600276">
        <ele>240.941</ele>
        <time>2018-11-24T09:13:48Z</time>
      </trkpt>
      <trkpt lat="41.688776" lon="0.600220">
        <ele>240.881</ele>
        <time>2018-11-24T09:13:49Z</time>
      </trkpt>
      <trkpt lat="41.688949" lon="0.600169">
        <ele>241.009</ele>
        <time>2018-11-24T09:13:50Z</time>
      </trkpt>
      <trkpt lat="41.689113" lon="0.600121">
        <ele>241.208</ele>
        <time>2018-11-24T09:13:51Z</time>
      </trkpt>
      <trkpt lat="41.689270" lon="0.600077">
        <ele>241.467</ele>
        <time>2018-11-24T09:13:52Z</time>
      </trkpt>
      <trkpt lat="41.689412" lon="0.600038">
        <ele>241.684</ele>
        <time>2018-11-24T09:13:53Z</time>
      </trkpt>
      <trkpt lat="41.689536" lon="0.600005">
        <ele>241.531</ele>
        <time>2018-11-24T09:13:54Z</time>
      </trkpt>
      <trkpt lat="41.689645" lon="0.599983">
        <ele>241.641</ele>
        <time>2018-11-24T09:13:55Z</time>
      </trkpt>
      <trkpt lat="41.689746" lon="0.599980">
        <ele>241.682</ele>
        <time>2018-11-24T09:13:56Z</time>
      </trkpt>
      <trkpt lat="41.689843" lon="0.599990">
        <ele>241.831</ele>
        <time>2018-11-24T09:13:57Z</time>
      </trkpt>
      <trkpt lat="41.689931" lon="0.600046">
        <ele>241.861</ele>
        <time>2018-11-24T09:13:58Z</time>
      </trkpt>
      <trkpt lat="41.690019" lon="0.600096">
        <ele>241.846</ele>
        <time>2018-11-24T09:13:59Z</time>
      </trkpt>
      <trkpt lat="41.690102" lon="0.600131">
        <ele>241.819</ele>
        <time>2018-11-24T09:14:00Z</time>
      </trkpt>
      <trkpt lat="41.690196" lon="0.600111">
        <ele>242.009</ele>
        <time>2018-11-24T09:14:01Z</time>
      </trkpt>
      <trkpt lat="41.690277" lon="0.600045">
        <ele>242.419</ele>
        <time>2018-11-24T09:14:02Z</time>
      </trkpt>
      <trkpt lat="41.690344" lon="0.599950">
        <ele>242.808</ele>
        <time>2018-11-24T09:14:03Z</time>
      </trkpt>
      <trkpt lat="41.690416" lon="0.599849">
        <ele>243.224</ele>
        <time>2018-11-24T09:14:04Z</time>
      </trkpt>
      <trkpt lat="41.690495" lon="0.599754">
        <ele>243.571</ele>
        <time>2018-11-24T09:14:05Z</time>
      </trkpt>
      <trkpt lat="41.690604" lon="0.599716">
        <ele>243.918</ele>
        <time>2018-11-24T09:14:06Z</time>
      </trkpt>
      <trkpt lat="41.690726" lon="0.599704">
        <ele>244.578</ele>
        <time>2018-11-24T09:14:07Z</time>
      </trkpt>
      <trkpt lat="41.690853" lon="0.599682">
        <ele>245.199</ele>
        <time>2018-11-24T09:14:08Z</time>
      </trkpt>
      <trkpt lat="41.690997" lon="0.599647">
        <ele>245.548</ele>
        <time>2018-11-24T09:14:09Z</time>
      </trkpt>
      <trkpt lat="41.691136" lon="0.599624">
        <ele>245.868</ele>
        <time>2018-11-24T09:14:10Z</time>
      </trkpt>
      <trkpt lat="41.691278" lon="0.599599">
        <ele>246.043</ele>
        <time>2018-11-24T09:14:11Z</time>
      </trkpt>
      <trkpt lat="41.691427" lon="0.599572">
        <ele>246.378</ele>
        <time>2018-11-24T09:14:12Z</time>
      </trkpt>
      <trkpt lat="41.691579" lon="0.599535">
        <ele>246.833</ele>
        <time>2018-11-24T09:14:13Z</time>
      </trkpt>
      <trkpt lat="41.691739" lon="0.599498">
        <ele>247.326</ele>
        <time>2018-11-24T09:14:14Z</time>
      </trkpt>
      <trkpt lat="41.691905" lon="0.599462">
        <ele>247.608</ele>
        <time>2018-11-24T09:14:15Z</time>
      </trkpt>
      <trkpt lat="41.692073" lon="0.599427">
        <ele>247.660</ele>
        <time>2018-11-24T09:14:16Z</time>
      </trkpt>
      <trkpt lat="41.692238" lon="0.599384">
        <ele>247.847</ele>
        <time>2018-11-24T09:14:17Z</time>
      </trkpt>
      <trkpt lat="41.692405" lon="0.599336">
        <ele>247.924</ele>
        <time>2018-11-24T09:14:18Z</time>
      </trkpt>
      <trkpt lat="41.692568" lon="0.599276">
        <ele>247.924</ele>
        <time>2018-11-24T09:14:19Z</time>
      </trkpt>
      <trkpt lat="41.692727" lon="0.599210">
        <ele>247.945</ele>
        <time>2018-11-24T09:14:20Z</time>
      </trkpt>
      <trkpt lat="41.692885" lon="0.599143">
        <ele>247.844</ele>
        <time>2018-11-24T09:14:21Z</time>
      </trkpt>
      <trkpt lat="41.693038" lon="0.599072">
        <ele>247.874</ele>
        <time>2018-11-24T09:14:22Z</time>
      </trkpt>
      <trkpt lat="41.693188" lon="0.599000">
        <ele>247.979</ele>
        <time>2018-11-24T09:14:23Z</time>
      </trkpt>
      <trkpt lat="41.693335" lon="0.598927">
        <ele>247.818</ele>
        <time>2018-11-24T09:14:24Z</time>
      </trkpt>
      <trkpt lat="41.693480" lon="0.598855">
        <ele>247.898</ele>
        <time>2018-11-24T09:14:25Z</time>
      </trkpt>
      <trkpt lat="41.693622" lon="0.598784">
        <ele>247.917</ele>
        <time>2018-11-24T09:14:26Z</time>
      </trkpt>
      <trkpt lat="41.693763" lon="0.598716">
        <ele>248.108</ele>
        <time>2018-11-24T09:14:27Z</time>
      </trkpt>
      <trkpt lat="41.693901" lon="0.598653">
        <ele>248.284</ele>
        <time>2018-11-24T09:14:28Z</time>
      </trkpt>
      <trkpt lat="41.694037" lon="0.598598">
        <ele>248.321</ele>
        <time>2018-11-24T09:14:29Z</time>
      </trkpt>
      <trkpt lat="41.694171" lon="0.598551">
        <ele>248.548</ele>
        <time>2018-11-24T09:14:30Z</time>
      </trkpt>
      <trkpt lat="41.694310" lon="0.598540">
        <ele>248.628</ele>
        <time>2018-11-24T09:14:31Z</time>
      </trkpt>
      <trkpt lat="41.694442" lon="0.598541">
        <ele>249.089</ele>
        <time>2018-11-24T09:14:32Z</time>
      </trkpt>
      <trkpt lat="41.694560" lon="0.598560">
        <ele>249.168</ele>
        <time>2018-11-24T09:14:33Z</time>
      </trkpt>
      <trkpt lat="41.694672" lon="0.598572">
        <ele>249.288</ele>
        <time>2018-11-24T09:14:34Z</time>
      </trkpt>
      <trkpt lat="41.694772" lon="0.598567">
        <ele>249.443</ele>
        <time>2018-11-24T09:14:35Z</time>
      </trkpt>
      <trkpt lat="41.694857" lon="0.598514">
        <ele>249.795</ele>
        <time>2018-11-24T09:14:36Z</time>
      </trkpt>
      <trkpt lat="41.694929" lon="0.598400">
        <ele>250.149</ele>
        <time>2018-11-24T09:14:37Z</time>
      </trkpt>
      <trkpt lat="41.694998" lon="0.598281">
        <ele>250.423</ele>
        <time>2018-11-24T09:14:38Z</time>
      </trkpt>
      <trkpt lat="41.695073" lon="0.598157">
        <ele>250.708</ele>
        <time>2018-11-24T09:14:39Z</time>
      </trkpt>
      <trkpt lat="41.695182" lon="0.598047">
        <ele>251.112</ele>
        <time>2018-11-24T09:14:40Z</time>
      </trkpt>
      <trkpt lat="41.695306" lon="0.597962">
        <ele>251.939</ele>
        <time>2018-11-24T09:14:41Z</time>
      </trkpt>
      <trkpt lat="41.695432" lon="0.597891">
        <ele>252.486</ele>
        <time>2018-11-24T09:14:42Z</time>
      </trkpt>
      <trkpt lat="41.695550" lon="0.597831">
        <ele>252.736</ele>
        <time>2018-11-24T09:14:43Z</time>
      </trkpt>
      <trkpt lat="41.695673" lon="0.597770">
        <ele>253.257</ele>
        <time>2018-11-24T09:14:44Z</time>
      </trkpt>
      <trkpt lat="41.695804" lon="0.597705">
        <ele>253.756</ele>
        <time>2018-11-24T09:14:45Z</time>
      </trkpt>
      <trkpt lat="41.695937" lon="0.597639">
        <ele>254.166</ele>
        <time>2018-11-24T09:14:46Z</time>
      </trkpt>
      <trkpt lat="41.696076" lon="0.597571">
        <ele>254.591</ele>
        <time>2018-11-24T09:14:47Z</time>
      </trkpt>
      <trkpt lat="41.696216" lon="0.597498">
        <ele>254.949</ele>
        <time>2018-11-24T09:14:48Z</time>
      </trkpt>
      <trkpt lat="41.696359" lon="0.597425">
        <ele>255.502</ele>
        <time>2018-11-24T09:14:49Z</time>
      </trkpt>
      <trkpt lat="41.696505" lon="0.597351">
        <ele>256.022</ele>
        <time>2018-11-24T09:14:50Z</time>
      </trkpt>
      <trkpt lat="41.696652" lon="0.597279">
        <ele>256.508</ele>
        <time>2018-11-24T09:14:51Z</time>
      </trkpt>
      <trkpt lat="41.696800" lon="0.597207">
        <ele>257.237</ele>
        <time>2018-11-24T09:14:52Z</time>
      </trkpt>
      <trkpt lat="41.696946" lon="0.597133">
        <ele>257.644</ele>
        <time>2018-11-24T09:14:53Z</time>
      </trkpt>
      <trkpt lat="41.697092" lon="0.597060">
        <ele>258.141</ele>
        <time>2018-11-24T09:14:54Z</time>
      </trkpt>
      <trkpt lat="41.697238" lon="0.596988">
        <ele>258.681</ele>
        <time>2018-11-24T09:14:55Z</time>
      </trkpt>
      <trkpt lat="41.697384" lon="0.596917">
        <ele>259.142</ele>
        <time>2018-11-24T09:14:56Z</time>
      </trkpt>
      <trkpt lat="41.697529" lon="0.596846">
        <ele>259.631</ele>
        <time>2018-11-24T09:14:57Z</time>
      </trkpt>
      <trkpt lat="41.697674" lon="0.596774">
        <ele>260.071</ele>
        <time>2018-11-24T09:14:58Z</time>
      </trkpt>
      <trkpt lat="41.697819" lon="0.596701">
        <ele>260.426</ele>
        <time>2018-11-24T09:14:59Z</time>
      </trkpt>
      <trkpt lat="41.697964" lon="0.596628">
        <ele>260.821</ele>
        <time>2018-11-24T09:15:00Z</time>
      </trkpt>
      <trkpt lat="41.698110" lon="0.596555">
        <ele>261.041</ele>
        <time>2018-11-24T09:15:01Z</time>
      </trkpt>
      <trkpt lat="41.698257" lon="0.596482">
        <ele>261.505</ele>
        <time>2018-11-24T09:15:02Z</time>
      </trkpt>
      <trkpt lat="41.698406" lon="0.596408">
        <ele>261.708</ele>
        <time>2018-11-24T09:15:03Z</time>
      </trkpt>
      <trkpt lat="41.698558" lon="0.596337">
        <ele>262.175</ele>
        <time>2018-11-24T09:15:04Z</time>
      </trkpt>
      <trkpt lat="41.698713" lon="0.596272">
        <ele>262.112</ele>
        <time>2018-11-24T09:15:05Z</time>
      </trkpt>
      <trkpt lat="41.698871" lon="0.596212">
        <ele>262.279</ele>
        <time>2018-11-24T09:15:06Z</time>
      </trkpt>
      <trkpt lat="41.699031" lon="0.596157">
        <ele>262.299</ele>
        <time>2018-11-24T09:15:07Z</time>
      </trkpt>
      <trkpt lat="41.699189" lon="0.596107">
        <ele>261.940</ele>
        <time>2018-11-24T09:15:08Z</time>
      </trkpt>
      <trkpt lat="41.699345" lon="0.596062">
        <ele>261.769</ele>
        <time>2018-11-24T09:15:09Z</time>
      </trkpt>
      <trkpt lat="41.699498" lon="0.596021">
        <ele>261.399</ele>
        <time>2018-11-24T09:15:10Z</time>
      </trkpt>
      <trkpt lat="41.699651" lon="0.595983">
        <ele>261.254</ele>
        <time>2018-11-24T09:15:11Z</time>
      </trkpt>
      <trkpt lat="41.699803" lon="0.595946">
        <ele>261.095</ele>
        <time>2018-11-24T09:15:12Z</time>
      </trkpt>
      <trkpt lat="41.699956" lon="0.595910">
        <ele>260.949</ele>
        <time>2018-11-24T09:15:13Z</time>
      </trkpt>
      <trkpt lat="41.700114" lon="0.595872">
        <ele>260.923</ele>
        <time>2018-11-24T09:15:14Z</time>
      </trkpt>
      <trkpt lat="41.700269" lon="0.595840">
        <ele>260.608</ele>
        <time>2018-11-24T09:15:15Z</time>
      </trkpt>
      <trkpt lat="41.700419" lon="0.595813">
        <ele>260.412</ele>
        <time>2018-11-24T09:15:16Z</time>
      </trkpt>
      <trkpt lat="41.700560" lon="0.595801">
        <ele>260.129</ele>
        <time>2018-11-24T09:15:17Z</time>
      </trkpt>
      <trkpt lat="41.700689" lon="0.595795">
        <ele>259.656</ele>
        <time>2018-11-24T09:15:18Z</time>
      </trkpt>
      <trkpt lat="41.700805" lon="0.595810">
        <ele>259.236</ele>
        <time>2018-11-24T09:15:19Z</time>
      </trkpt>
      <trkpt lat="41.700915" lon="0.595829">
        <ele>258.837</ele>
        <time>2018-11-24T09:15:20Z</time>
      </trkpt>
      <trkpt lat="41.701019" lon="0.595839">
        <ele>258.536</ele>
        <time>2018-11-24T09:15:21Z</time>
      </trkpt>
      <trkpt lat="41.701121" lon="0.595837">
        <ele>258.376</ele>
        <time>2018-11-24T09:15:22Z</time>
      </trkpt>
      <trkpt lat="41.701223" lon="0.595792">
        <ele>258.241</ele>
        <time>2018-11-24T09:15:23Z</time>
      </trkpt>
      <trkpt lat="41.701327" lon="0.595724">
        <ele>258.456</ele>
        <time>2018-11-24T09:15:24Z</time>
      </trkpt>
      <trkpt lat="41.701446" lon="0.595649">
        <ele>258.959</ele>
        <time>2018-11-24T09:15:25Z</time>
      </trkpt>
      <trkpt lat="41.701572" lon="0.595581">
        <ele>259.214</ele>
        <time>2018-11-24T09:15:26Z</time>
      </trkpt>
      <trkpt lat="41.701710" lon="0.595545">
        <ele>259.308</ele>
        <time>2018-11-24T09:15:27Z</time>
      </trkpt>
      <trkpt lat="41.701848" lon="0.595508">
        <ele>259.488</ele>
        <time>2018-11-24T09:15:28Z</time>
      </trkpt>
      <trkpt lat="41.701991" lon="0.595474">
        <ele>259.775</ele>
        <time>2018-11-24T09:15:29Z</time>
      </trkpt>
      <trkpt lat="41.702143" lon="0.595433">
        <ele>259.942</ele>
        <time>2018-11-24T09:15:30Z</time>
      </trkpt>
      <trkpt lat="41.702304" lon="0.595394">
        <ele>260.422</ele>
        <time>2018-11-24T09:15:31Z</time>
      </trkpt>
      <trkpt lat="41.702476" lon="0.595352">
        <ele>260.683</ele>
        <time>2018-11-24T09:15:32Z</time>
      </trkpt>
      <trkpt lat="41.702654" lon="0.595311">
        <ele>261.272</ele>
        <time>2018-11-24T09:15:33Z</time>
      </trkpt>
      <trkpt lat="41.702842" lon="0.595270">
        <ele>261.632</ele>
        <time>2018-11-24T09:15:34Z</time>
      </trkpt>
      <trkpt lat="41.703037" lon="0.595230">
        <ele>262.267</ele>
        <time>2018-11-24T09:15:35Z</time>
      </trkpt>
      <trkpt lat="41.703231" lon="0.595193">
        <ele>262.478</ele>
        <time>2018-11-24T09:15:36Z</time>
      </trkpt>
      <trkpt lat="41.703426" lon="0.595158">
        <ele>262.733</ele>
        <time>2018-11-24T09:15:37Z</time>
      </trkpt>
      <trkpt lat="41.703622" lon="0.595123">
        <ele>263.126</ele>
        <time>2018-11-24T09:15:38Z</time>
      </trkpt>
      <trkpt lat="41.703822" lon="0.595091">
        <ele>263.708</ele>
        <time>2018-11-24T09:15:39Z</time>
      </trkpt>
      <trkpt lat="41.704026" lon="0.595063">
        <ele>264.260</ele>
        <time>2018-11-24T09:15:40Z</time>
      </trkpt>
      <trkpt lat="41.704233" lon="0.595040">
        <ele>264.957</ele>
        <time>2018-11-24T09:15:41Z</time>
      </trkpt>
      <trkpt lat="41.704444" lon="0.595020">
        <ele>265.974</ele>
        <time>2018-11-24T09:15:42Z</time>
      </trkpt>
      <trkpt lat="41.704657" lon="0.595003">
        <ele>266.814</ele>
        <time>2018-11-24T09:15:43Z</time>
      </trkpt>
      <trkpt lat="41.704867" lon="0.594990">
        <ele>268.185</ele>
        <time>2018-11-24T09:15:44Z</time>
      </trkpt>
      <trkpt lat="41.705076" lon="0.594980">
        <ele>269.194</ele>
        <time>2018-11-24T09:15:45Z</time>
      </trkpt>
      <trkpt lat="41.705284" lon="0.594976">
        <ele>270.424</ele>
        <time>2018-11-24T09:15:46Z</time>
      </trkpt>
      <trkpt lat="41.705493" lon="0.594977">
        <ele>271.389</ele>
        <time>2018-11-24T09:15:47Z</time>
      </trkpt>
      <trkpt lat="41.705704" lon="0.594980">
        <ele>272.397</ele>
        <time>2018-11-24T09:15:48Z</time>
      </trkpt>
      <trkpt lat="41.705917" lon="0.594982">
        <ele>273.423</ele>
        <time>2018-11-24T09:15:49Z</time>
      </trkpt>
      <trkpt lat="41.706132" lon="0.594983">
        <ele>274.325</ele>
        <time>2018-11-24T09:15:50Z</time>
      </trkpt>
      <trkpt lat="41.706346" lon="0.594987">
        <ele>275.308</ele>
        <time>2018-11-24T09:15:51Z</time>
      </trkpt>
      <trkpt lat="41.706563" lon="0.594993">
        <ele>275.922</ele>
        <time>2018-11-24T09:15:52Z</time>
      </trkpt>
      <trkpt lat="41.706780" lon="0.594999">
        <ele>276.699</ele>
        <time>2018-11-24T09:15:53Z</time>
      </trkpt>
      <trkpt lat="41.706997" lon="0.595004">
        <ele>277.166</ele>
        <time>2018-11-24T09:15:54Z</time>
      </trkpt>
      <trkpt lat="41.707214" lon="0.595007">
        <ele>277.876</ele>
        <time>2018-11-24T09:15:55Z</time>
      </trkpt>
      <trkpt lat="41.707431" lon="0.595008">
        <ele>278.297</ele>
        <time>2018-11-24T09:15:56Z</time>
      </trkpt>
      <trkpt lat="41.707650" lon="0.595005">
        <ele>279.046</ele>
        <time>2018-11-24T09:15:57Z</time>
      </trkpt>
      <trkpt lat="41.707868" lon="0.595001">
        <ele>279.376</ele>
        <time>2018-11-24T09:15:58Z</time>
      </trkpt>
      <trkpt lat="41.708086" lon="0.594996">
        <ele>279.531</ele>
        <time>2018-11-24T09:15:59Z</time>
      </trkpt>
      <trkpt lat="41.708304" lon="0.594988">
        <ele>279.739</ele>
        <time>2018-11-24T09:16:00Z</time>
      </trkpt>
      <trkpt lat="41.708519" lon="0.594978">
        <ele>279.901</ele>
        <time>2018-11-24T09:16:01Z</time>
      </trkpt>
      <trkpt lat="41.708722" lon="0.594967">
        <ele>279.521</ele>
        <time>2018-11-24T09:16:02Z</time>
      </trkpt>
      <trkpt lat="41.708916" lon="0.594957">
        <ele>279.008</ele>
        <time>2018-11-24T09:16:03Z</time>
      </trkpt>
      <trkpt lat="41.709102" lon="0.594951">
        <ele>278.526</ele>
        <time>2018-11-24T09:16:04Z</time>
      </trkpt>
      <trkpt lat="41.709279" lon="0.594946">
        <ele>278.263</ele>
        <time>2018-11-24T09:16:05Z</time>
      </trkpt>
      <trkpt lat="41.709447" lon="0.594942">
        <ele>277.850</ele>
        <time>2018-11-24T09:16:06Z</time>
      </trkpt>
      <trkpt lat="41.709605" lon="0.594940">
        <ele>277.430</ele>
        <time>2018-11-24T09:16:07Z</time>
      </trkpt>
      <trkpt lat="41.709744" lon="0.594936">
        <ele>277.061</ele>
        <time>2018-11-24T09:16:08Z</time>
      </trkpt>
      <trkpt lat="41.709871" lon="0.594935">
        <ele>276.660</ele>
        <time>2018-11-24T09:16:09Z</time>
      </trkpt>
      <trkpt lat="41.709989" lon="0.594946">
        <ele>276.460</ele>
        <time>2018-11-24T09:16:10Z</time>
      </trkpt>
      <trkpt lat="41.710097" lon="0.594968">
        <ele>276.235</ele>
        <time>2018-11-24T09:16:11Z</time>
      </trkpt>
      <trkpt lat="41.710194" lon="0.595024">
        <ele>275.992</ele>
        <time>2018-11-24T09:16:12Z</time>
      </trkpt>
      <trkpt lat="41.710290" lon="0.595086">
        <ele>275.873</ele>
        <time>2018-11-24T09:16:13Z</time>
      </trkpt>
      <trkpt lat="41.710381" lon="0.595140">
        <ele>275.720</ele>
        <time>2018-11-24T09:16:14Z</time>
      </trkpt>
      <trkpt lat="41.710484" lon="0.595138">
        <ele>275.508</ele>
        <time>2018-11-24T09:16:15Z</time>
      </trkpt>
      <trkpt lat="41.710588" lon="0.595088">
        <ele>275.592</ele>
        <time>2018-11-24T09:16:16Z</time>
      </trkpt>
      <trkpt lat="41.710698" lon="0.595024">
        <ele>275.839</ele>
        <time>2018-11-24T09:16:17Z</time>
      </trkpt>
      <trkpt lat="41.710822" lon="0.594962">
        <ele>276.226</ele>
        <time>2018-11-24T09:16:18Z</time>
      </trkpt>
      <trkpt lat="41.710948" lon="0.594905">
        <ele>276.416</ele>
        <time>2018-11-24T09:16:19Z</time>
      </trkpt>
      <trkpt lat="41.711085" lon="0.594886">
        <ele>276.277</ele>
        <time>2018-11-24T09:16:20Z</time>
      </trkpt>
      <trkpt lat="41.711227" lon="0.594872">
        <ele>276.356</ele>
        <time>2018-11-24T09:16:21Z</time>
      </trkpt>
      <trkpt lat="41.711375" lon="0.594862">
        <ele>276.586</ele>
        <time>2018-11-24T09:16:22Z</time>
      </trkpt>
      <trkpt lat="41.711533" lon="0.594851">
        <ele>276.861</ele>
        <time>2018-11-24T09:16:23Z</time>
      </trkpt>
      <trkpt lat="41.711698" lon="0.594838">
        <ele>276.915</ele>
        <time>2018-11-24T09:16:24Z</time>
      </trkpt>
      <trkpt lat="41.711864" lon="0.594827">
        <ele>276.865</ele>
        <time>2018-11-24T09:16:25Z</time>
      </trkpt>
      <trkpt lat="41.712032" lon="0.594818">
        <ele>276.911</ele>
        <time>2018-11-24T09:16:26Z</time>
      </trkpt>
      <trkpt lat="41.712203" lon="0.594808">
        <ele>277.008</ele>
        <time>2018-11-24T09:16:27Z</time>
      </trkpt>
      <trkpt lat="41.712379" lon="0.594797">
        <ele>277.214</ele>
        <time>2018-11-24T09:16:28Z</time>
      </trkpt>
      <trkpt lat="41.712560" lon="0.594785">
        <ele>277.131</ele>
        <time>2018-11-24T09:16:29Z</time>
      </trkpt>
      <trkpt lat="41.712745" lon="0.594773">
        <ele>277.198</ele>
        <time>2018-11-24T09:16:30Z</time>
      </trkpt>
      <trkpt lat="41.712937" lon="0.594763">
        <ele>277.088</ele>
        <time>2018-11-24T09:16:31Z</time>
      </trkpt>
      <trkpt lat="41.713133" lon="0.594753">
        <ele>277.149</ele>
        <time>2018-11-24T09:16:32Z</time>
      </trkpt>
      <trkpt lat="41.713333" lon="0.594745">
        <ele>277.118</ele>
        <time>2018-11-24T09:16:33Z</time>
      </trkpt>
      <trkpt lat="41.713538" lon="0.594734">
        <ele>277.328</ele>
        <time>2018-11-24T09:16:34Z</time>
      </trkpt>
      <trkpt lat="41.713745" lon="0.594723">
        <ele>277.443</ele>
        <time>2018-11-24T09:16:35Z</time>
      </trkpt>
      <trkpt lat="41.713951" lon="0.594712">
        <ele>277.294</ele>
        <time>2018-11-24T09:16:36Z</time>
      </trkpt>
      <trkpt lat="41.714149" lon="0.594701">
        <ele>277.157</ele>
        <time>2018-11-24T09:16:37Z</time>
      </trkpt>
      <trkpt lat="41.714339" lon="0.594692">
        <ele>276.822</ele>
        <time>2018-11-24T09:16:38Z</time>
      </trkpt>
      <trkpt lat="41.714520" lon="0.594684">
        <ele>276.708</ele>
        <time>2018-11-24T09:16:39Z</time>
      </trkpt>
      <trkpt lat="41.714689" lon="0.594677">
        <ele>276.652</ele>
        <time>2018-11-24T09:16:40Z</time>
      </trkpt>
      <trkpt lat="41.714847" lon="0.594672">
        <ele>276.349</ele>
        <time>2018-11-24T09:16:41Z</time>
      </trkpt>
      <trkpt lat="41.714996" lon="0.594667">
        <ele>276.276</ele>
        <time>2018-11-24T09:16:42Z</time>
      </trkpt>
      <trkpt lat="41.715137" lon="0.594662">
        <ele>276.066</ele>
        <time>2018-11-24T09:16:43Z</time>
      </trkpt>
      <trkpt lat="41.715272" lon="0.594663">
        <ele>276.047</ele>
        <time>2018-11-24T09:16:44Z</time>
      </trkpt>
      <trkpt lat="41.715392" lon="0.594673">
        <ele>275.776</ele>
        <time>2018-11-24T09:16:45Z</time>
      </trkpt>
      <trkpt lat="41.715500" lon="0.594692">
        <ele>275.666</ele>
        <time>2018-11-24T09:16:46Z</time>
      </trkpt>
      <trkpt lat="41.715603" lon="0.594729">
        <ele>275.611</ele>
        <time>2018-11-24T09:16:47Z</time>
      </trkpt>
      <trkpt lat="41.715708" lon="0.594775">
        <ele>275.762</ele>
        <time>2018-11-24T09:16:48Z</time>
      </trkpt>
      <trkpt lat="41.715817" lon="0.594801">
        <ele>275.883</ele>
        <time>2018-11-24T09:16:49Z</time>
      </trkpt>
      <trkpt lat="41.715932" lon="0.594792">
        <ele>275.811</ele>
        <time>2018-11-24T09:16:50Z</time>
      </trkpt>
      <trkpt lat="41.716053" lon="0.594756">
        <ele>276.108</ele>
        <time>2018-11-24T09:16:51Z</time>
      </trkpt>
      <trkpt lat="41.716181" lon="0.594705">
        <ele>276.659</ele>
        <time>2018-11-24T09:16:52Z</time>
      </trkpt>
      <trkpt lat="41.716310" lon="0.594655">
        <ele>276.886</ele>
        <time>2018-11-24T09:16:53Z</time>
      </trkpt>
      <trkpt lat="41.716441" lon="0.594621">
        <ele>277.173</ele>
        <time>2018-11-24T09:16:54Z</time>
      </trkpt>
      <trkpt lat="41.716580" lon="0.594604">
        <ele>277.643</ele>
        <time>2018-11-24T09:16:55Z</time>
      </trkpt>
      <trkpt lat="41.716729" lon="0.594590">
        <ele>278.064</ele>
        <time>2018-11-24T09:16:56Z</time>
      </trkpt>
      <trkpt lat="41.716888" lon="0.594578">
        <ele>278.653</ele>
        <time>2018-11-24T09:16:57Z</time>
      </trkpt>
      <trkpt lat="41.717056" lon="0.594569">
        <ele>279.233</ele>
        <time>2018-11-24T09:16:58Z</time>
      </trkpt>
      <trkpt lat="41.717233" lon="0.594560">
        <ele>279.828</ele>
        <time>2018-11-24T09:16:59Z</time>
      </trkpt>
      <trkpt lat="41.717416" lon="0.594550">
        <ele>280.319</ele>
        <time>2018-11-24T09:17:00Z</time>
      </trkpt>
      <trkpt lat="41.717596" lon="0.594540">
        <ele>280.909</ele>
        <time>2018-11-24T09:17:01Z</time>
      </trkpt>
      <trkpt lat="41.717778" lon="0.594532">
        <ele>281.219</ele>
        <time>2018-11-24T09:17:02Z</time>
      </trkpt>
      <trkpt lat="41.717955" lon="0.594516">
        <ele>281.908</ele>
        <time>2018-11-24T09:17:03Z</time>
      </trkpt>
      <trkpt lat="41.718137" lon="0.594509">
        <ele>282.814</ele>
        <time>2018-11-24T09:17:04Z</time>
      </trkpt>
      <trkpt lat="41.718321" lon="0.594502">
        <ele>283.781</ele>
        <time>2018-11-24T09:17:05Z</time>
      </trkpt>
      <trkpt lat="41.718508" lon="0.594493">
        <ele>284.868</ele>
        <time>2018-11-24T09:17:06Z</time>
      </trkpt>
      <trkpt lat="41.718698" lon="0.594487">
        <ele>285.778</ele>
        <time>2018-11-24T09:17:07Z</time>
      </trkpt>
      <trkpt lat="41.718888" lon="0.594480">
        <ele>286.949</ele>
        <time>2018-11-24T09:17:08Z</time>
      </trkpt>
      <trkpt lat="41.719082" lon="0.594468">
        <ele>287.658</ele>
        <time>2018-11-24T09:17:09Z</time>
      </trkpt>
      <trkpt lat="41.719280" lon="0.594453">
        <ele>288.778</ele>
        <time>2018-11-24T09:17:10Z</time>
      </trkpt>
      <trkpt lat="41.719480" lon="0.594434">
        <ele>289.853</ele>
        <time>2018-11-24T09:17:11Z</time>
      </trkpt>
      <trkpt lat="41.719682" lon="0.594408">
        <ele>290.896</ele>
        <time>2018-11-24T09:17:12Z</time>
      </trkpt>
      <trkpt lat="41.719890" lon="0.594369">
        <ele>291.531</ele>
        <time>2018-11-24T09:17:13Z</time>
      </trkpt>
      <trkpt lat="41.720099" lon="0.594314">
        <ele>292.224</ele>
        <time>2018-11-24T09:17:14Z</time>
      </trkpt>
      <trkpt lat="41.720308" lon="0.594246">
        <ele>292.808</ele>
        <time>2018-11-24T09:17:15Z</time>
      </trkpt>
      <trkpt lat="41.720511" lon="0.594165">
        <ele>293.312</ele>
        <time>2018-11-24T09:17:16Z</time>
      </trkpt>
      <trkpt lat="41.720713" lon="0.594072">
        <ele>293.539</ele>
        <time>2018-11-24T09:17:17Z</time>
      </trkpt>
      <trkpt lat="41.720914" lon="0.593967">
        <ele>293.766</ele>
        <time>2018-11-24T09:17:18Z</time>
      </trkpt>
      <trkpt lat="41.721112" lon="0.593852">
        <ele>293.846</ele>
        <time>2018-11-24T09:17:19Z</time>
      </trkpt>
      <trkpt lat="41.721309" lon="0.593730">
        <ele>293.747</ele>
        <time>2018-11-24T09:17:20Z</time>
      </trkpt>
      <trkpt lat="41.721505" lon="0.593606">
        <ele>293.276</ele>
        <time>2018-11-24T09:17:21Z</time>
      </trkpt>
      <trkpt lat="41.721703" lon="0.593483">
        <ele>293.056</ele>
        <time>2018-11-24T09:17:22Z</time>
      </trkpt>
      <trkpt lat="41.721898" lon="0.593362">
        <ele>292.591</ele>
        <time>2018-11-24T09:17:23Z</time>
      </trkpt>
      <trkpt lat="41.722089" lon="0.593244">
        <ele>292.151</ele>
        <time>2018-11-24T09:17:24Z</time>
      </trkpt>
      <trkpt lat="41.722280" lon="0.593124">
        <ele>291.501</ele>
        <time>2018-11-24T09:17:25Z</time>
      </trkpt>
      <trkpt lat="41.722471" lon="0.593004">
        <ele>291.011</ele>
        <time>2018-11-24T09:17:26Z</time>
      </trkpt>
      <trkpt lat="41.722662" lon="0.592884">
        <ele>290.508</ele>
        <time>2018-11-24T09:17:27Z</time>
      </trkpt>
      <trkpt lat="41.722854" lon="0.592765">
        <ele>290.078</ele>
        <time>2018-11-24T09:17:28Z</time>
      </trkpt>
      <trkpt lat="41.723047" lon="0.592648">
        <ele>289.485</ele>
        <time>2018-11-24T09:17:29Z</time>
      </trkpt>
      <trkpt lat="41.723241" lon="0.592543">
        <ele>288.982</ele>
        <time>2018-11-24T09:17:30Z</time>
      </trkpt>
      <trkpt lat="41.723443" lon="0.592458">
        <ele>288.452</ele>
        <time>2018-11-24T09:17:31Z</time>
      </trkpt>
      <trkpt lat="41.723649" lon="0.592390">
        <ele>288.033</ele>
        <time>2018-11-24T09:17:32Z</time>
      </trkpt>
      <trkpt lat="41.723860" lon="0.592337">
        <ele>287.772</ele>
        <time>2018-11-24T09:17:33Z</time>
      </trkpt>
      <trkpt lat="41.724069" lon="0.592291">
        <ele>287.552</ele>
        <time>2018-11-24T09:17:34Z</time>
      </trkpt>
      <trkpt lat="41.724279" lon="0.592252">
        <ele>287.297</ele>
        <time>2018-11-24T09:17:35Z</time>
      </trkpt>
      <trkpt lat="41.724490" lon="0.592209">
        <ele>286.858</ele>
        <time>2018-11-24T09:17:36Z</time>
      </trkpt>
      <trkpt lat="41.724698" lon="0.592165">
        <ele>286.752</ele>
        <time>2018-11-24T09:17:37Z</time>
      </trkpt>
      <trkpt lat="41.724907" lon="0.592123">
        <ele>286.617</ele>
        <time>2018-11-24T09:17:38Z</time>
      </trkpt>
      <trkpt lat="41.725116" lon="0.592083">
        <ele>286.408</ele>
        <time>2018-11-24T09:17:39Z</time>
      </trkpt>
      <trkpt lat="41.725326" lon="0.592044">
        <ele>286.458</ele>
        <time>2018-11-24T09:17:40Z</time>
      </trkpt>
      <trkpt lat="41.725535" lon="0.592004">
        <ele>286.525</ele>
        <time>2018-11-24T09:17:41Z</time>
      </trkpt>
      <trkpt lat="41.725744" lon="0.591962">
        <ele>286.652</ele>
        <time>2018-11-24T09:17:42Z</time>
      </trkpt>
      <trkpt lat="41.725952" lon="0.591920">
        <ele>286.732</ele>
        <time>2018-11-24T09:17:43Z</time>
      </trkpt>
      <trkpt lat="41.726160" lon="0.591878">
        <ele>286.953</ele>
        <time>2018-11-24T09:17:44Z</time>
      </trkpt>
      <trkpt lat="41.726368" lon="0.591838">
        <ele>287.092</ele>
        <time>2018-11-24T09:17:45Z</time>
      </trkpt>
      <trkpt lat="41.726577" lon="0.591797">
        <ele>287.462</ele>
        <time>2018-11-24T09:17:46Z</time>
      </trkpt>
      <trkpt lat="41.726786" lon="0.591755">
        <ele>287.677</ele>
        <time>2018-11-24T09:17:47Z</time>
      </trkpt>
      <trkpt lat="41.726995" lon="0.591712">
        <ele>287.732</ele>
        <time>2018-11-24T09:17:48Z</time>
      </trkpt>
      <trkpt lat="41.727204" lon="0.591668">
        <ele>287.992</ele>
        <time>2018-11-24T09:17:49Z</time>
      </trkpt>
      <trkpt lat="41.727414" lon="0.591625">
        <ele>288.011</ele>
        <time>2018-11-24T09:17:50Z</time>
      </trkpt>
      <trkpt lat="41.727624" lon="0.591584">
        <ele>288.308</ele>
        <time>2018-11-24T09:17:51Z</time>
      </trkpt>
      <trkpt lat="41.727833" lon="0.591543">
        <ele>288.536</ele>
        <time>2018-11-24T09:17:52Z</time>
      </trkpt>
      <trkpt lat="41.728043" lon="0.591503">
        <ele>288.523</ele>
        <time>2018-11-24T09:17:53Z</time>
      </trkpt>
      <trkpt lat="41.728251" lon="0.591462">
        <ele>288.670</ele>
        <time>2018-11-24T09:17:54Z</time>
      </trkpt>
      <trkpt lat="41.728454" lon="0.591421">
        <ele>288.950</ele>
        <time>2018-11-24T09:17:55Z</time>
      </trkpt>
      <trkpt lat="41.728650" lon="0.591381">
        <ele>288.841</ele>
        <time>2018-11-24T09:17:56Z</time>
      </trkpt>
      <trkpt lat="41.728840" lon="0.591344">
        <ele>288.680</ele>
        <time>2018-11-24T09:17:57Z</time>
      </trkpt>
      <trkpt lat="41.729025" lon="0.591307">
        <ele>288.660</ele>
        <time>2018-11-24T09:17:58Z</time>
      </trkpt>
      <trkpt lat="41.729202" lon="0.591270">
        <ele>288.715</ele>
        <time>2018-11-24T09:17:59Z</time>
      </trkpt>
      <trkpt lat="41.729371" lon="0.591236">
        <ele>289.066</ele>
        <time>2018-11-24T09:18:00Z</time>
      </trkpt>
      <trkpt lat="41.729529" lon="0.591205">
        <ele>289.129</ele>
        <time>2018-11-24T09:18:01Z</time>
      </trkpt>
      <trkpt lat="41.729671" lon="0.591179">
        <ele>288.821</ele>
        <time>2018-11-24T09:18:02Z</time>
      </trkpt>
      <trkpt lat="41.729800" lon="0.591160">
        <ele>288.808</ele>
        <time>2018-11-24T09:18:03Z</time>
      </trkpt>
      <trkpt lat="41.729918" lon="0.591146">
        <ele>288.889</ele>
        <time>2018-11-24T09:18:04Z</time>
      </trkpt>
      <trkpt lat="41.730029" lon="0.591146">
        <ele>288.766</ele>
        <time>2018-11-24T09:18:05Z</time>
      </trkpt>
      <trkpt lat="41.730133" lon="0.591176">
        <ele>288.753</ele>
        <time>2018-11-24T09:18:06Z</time>
      </trkpt>
      <trkpt lat="41.730233" lon="0.591211">
        <ele>288.793</ele>
        <time>2018-11-24T09:18:07Z</time>
      </trkpt>
      <trkpt lat="41.730329" lon="0.591242">
        <ele>288.574</ele>
        <time>2018-11-24T09:18:08Z</time>
      </trkpt>
      <trkpt lat="41.730423" lon="0.591265">
        <ele>288.423</ele>
        <time>2018-11-24T09:18:09Z</time>
      </trkpt>
      <trkpt lat="41.730524" lon="0.591219">
        <ele>288.483</ele>
        <time>2018-11-24T09:18:10Z</time>
      </trkpt>
      <trkpt lat="41.730631" lon="0.591167">
        <ele>288.698</ele>
        <time>2018-11-24T09:18:11Z</time>
      </trkpt>
      <trkpt lat="41.730753" lon="0.591124">
        <ele>289.017</ele>
        <time>2018-11-24T09:18:12Z</time>
      </trkpt>
      <trkpt lat="41.730885" lon="0.591094">
        <ele>289.187</ele>
        <time>2018-11-24T09:18:13Z</time>
      </trkpt>
      <trkpt lat="41.731020" lon="0.591075">
        <ele>289.115</ele>
        <time>2018-11-24T09:18:14Z</time>
      </trkpt>
      <trkpt lat="41.731154" lon="0.591069">
        <ele>288.908</ele>
        <time>2018-11-24T09:18:15Z</time>
      </trkpt>
      <trkpt lat="41.731288" lon="0.591070">
        <ele>288.724</ele>
        <time>2018-11-24T09:18:16Z</time>
      </trkpt>
      <trkpt lat="41.731425" lon="0.591073">
        <ele>288.631</ele>
        <time>2018-11-24T09:18:17Z</time>
      </trkpt>
      <trkpt lat="41.731566" lon="0.591075">
        <ele>288.438</ele>
        <time>2018-11-24T09:18:18Z</time>
      </trkpt>
      <trkpt lat="41.731707" lon="0.591079">
        <ele>288.478</ele>
        <time>2018-11-24T09:18:19Z</time>
      </trkpt>
      <trkpt lat="41.731850" lon="0.591083">
        <ele>288.459</ele>
        <time>2018-11-24T09:18:20Z</time>
      </trkpt>
      <trkpt lat="41.731995" lon="0.591087">
        <ele>288.338</ele>
        <time>2018-11-24T09:18:21Z</time>
      </trkpt>
      <trkpt lat="41.732142" lon="0.591088">
        <ele>288.138</ele>
        <time>2018-11-24T09:18:22Z</time>
      </trkpt>
      <trkpt lat="41.732291" lon="0.591088">
        <ele>287.993</ele>
        <time>2018-11-24T09:18:23Z</time>
      </trkpt>
      <trkpt lat="41.732439" lon="0.591089">
        <ele>287.651</ele>
        <time>2018-11-24T09:18:24Z</time>
      </trkpt>
      <trkpt lat="41.732586" lon="0.591090">
        <ele>287.401</ele>
        <time>2018-11-24T09:18:25Z</time>
      </trkpt>
      <trkpt lat="41.732729" lon="0.591091">
        <ele>287.111</ele>
        <time>2018-11-24T09:18:26Z</time>
      </trkpt>
      <trkpt lat="41.732870" lon="0.591095">
        <ele>286.808</ele>
        <time>2018-11-24T09:18:27Z</time>
      </trkpt>
      <trkpt lat="41.733012" lon="0.591097">
        <ele>286.628</ele>
        <time>2018-11-24T09:18:28Z</time>
      </trkpt>
      <trkpt lat="41.733155" lon="0.591100">
        <ele>286.475</ele>
        <time>2018-11-24T09:18:29Z</time>
      </trkpt>
      <trkpt lat="41.733300" lon="0.591109">
        <ele>286.252</ele>
        <time>2018-11-24T09:18:30Z</time>
      </trkpt>
      <trkpt lat="41.733437" lon="0.591105">
        <ele>286.012</ele>
        <time>2018-11-24T09:18:31Z</time>
      </trkpt>
      <trkpt lat="41.733582" lon="0.591105">
        <ele>285.833</ele>
        <time>2018-11-24T09:18:32Z</time>
      </trkpt>
      <trkpt lat="41.733721" lon="0.591107">
        <ele>285.542</ele>
        <time>2018-11-24T09:18:33Z</time>
      </trkpt>
      <trkpt lat="41.733865" lon="0.591100">
        <ele>285.442</ele>
        <time>2018-11-24T09:18:34Z</time>
      </trkpt>
      <trkpt lat="41.734010" lon="0.591090">
        <ele>285.247</ele>
        <time>2018-11-24T09:18:35Z</time>
      </trkpt>
      <trkpt lat="41.734153" lon="0.591070">
        <ele>285.071</ele>
        <time>2018-11-24T09:18:36Z</time>
      </trkpt>
      <trkpt lat="41.734299" lon="0.591056">
        <ele>284.941</ele>
        <time>2018-11-24T09:18:37Z</time>
      </trkpt>
      <trkpt lat="41.734450" lon="0.591027">
        <ele>284.815</ele>
        <time>2018-11-24T09:18:38Z</time>
      </trkpt>
      <trkpt lat="41.734601" lon="0.590981">
        <ele>284.708</ele>
        <time>2018-11-24T09:18:39Z</time>
      </trkpt>
      <trkpt lat="41.734745" lon="0.590938">
        <ele>284.710</ele>
        <time>2018-11-24T09:18:40Z</time>
      </trkpt>
      <trkpt lat="41.734886" lon="0.590886">
        <ele>284.527</ele>
        <time>2018-11-24T09:18:41Z</time>
      </trkpt>
      <trkpt lat="41.735033" lon="0.590818">
        <ele>284.354</ele>
        <time>2018-11-24T09:18:42Z</time>
      </trkpt>
      <trkpt lat="41.735182" lon="0.590754">
        <ele>284.094</ele>
        <time>2018-11-24T09:18:43Z</time>
      </trkpt>
      <trkpt lat="41.735331" lon="0.590690">
        <ele>283.825</ele>
        <time>2018-11-24T09:18:44Z</time>
      </trkpt>
      <trkpt lat="41.735481" lon="0.590625">
        <ele>283.644</ele>
        <time>2018-11-24T09:18:45Z</time>
      </trkpt>
      <trkpt lat="41.735631" lon="0.590563">
        <ele>283.524</ele>
        <time>2018-11-24T09:18:46Z</time>
      </trkpt>
      <trkpt lat="41.735780" lon="0.590505">
        <ele>283.479</ele>
        <time>2018-11-24T09:18:47Z</time>
      </trkpt>
      <trkpt lat="41.735925" lon="0.590449">
        <ele>283.342</ele>
        <time>2018-11-24T09:18:48Z</time>
      </trkpt>
      <trkpt lat="41.736069" lon="0.590395">
        <ele>283.222</ele>
        <time>2018-11-24T09:18:49Z</time>
      </trkpt>
      <trkpt lat="41.736213" lon="0.590345">
        <ele>283.214</ele>
        <time>2018-11-24T09:18:50Z</time>
      </trkpt>
      <trkpt lat="41.736357" lon="0.590301">
        <ele>283.408</ele>
        <time>2018-11-24T09:18:51Z</time>
      </trkpt>
      <trkpt lat="41.736501" lon="0.590260">
        <ele>283.547</ele>
        <time>2018-11-24T09:18:52Z</time>
      </trkpt>
      <trkpt lat="41.736646" lon="0.590217">
        <ele>283.514</ele>
        <time>2018-11-24T09:18:53Z</time>
      </trkpt>
      <trkpt lat="41.736792" lon="0.590175">
        <ele>283.611</ele>
        <time>2018-11-24T09:18:54Z</time>
      </trkpt>
      <trkpt lat="41.736939" lon="0.590132">
        <ele>283.841</ele>
        <time>2018-11-24T09:18:55Z</time>
      </trkpt>
      <trkpt lat="41.737085" lon="0.590090">
        <ele>283.912</ele>
        <time>2018-11-24T09:18:56Z</time>
      </trkpt>
      <trkpt lat="41.737232" lon="0.590049">
        <ele>283.931</ele>
        <time>2018-11-24T09:18:57Z</time>
      </trkpt>
      <trkpt lat="41.737379" lon="0.590005">
        <ele>284.081</ele>
        <time>2018-11-24T09:18:58Z</time>
      </trkpt>
      <trkpt lat="41.737528" lon="0.589959">
        <ele>284.176</ele>
        <time>2018-11-24T09:18:59Z</time>
      </trkpt>
      <trkpt lat="41.737676" lon="0.589913">
        <ele>284.316</ele>
        <time>2018-11-24T09:19:00Z</time>
      </trkpt>
      <trkpt lat="41.737822" lon="0.589867">
        <ele>284.576</ele>
        <time>2018-11-24T09:19:01Z</time>
      </trkpt>
      <trkpt lat="41.737962" lon="0.589809">
        <ele>284.513</ele>
        <time>2018-11-24T09:19:02Z</time>
      </trkpt>
      <trkpt lat="41.738099" lon="0.589739">
        <ele>284.408</ele>
        <time>2018-11-24T09:19:03Z</time>
      </trkpt>
      <trkpt lat="41.738230" lon="0.589656">
        <ele>284.594</ele>
        <time>2018-11-24T09:19:04Z</time>
      </trkpt>
      <trkpt lat="41.738353" lon="0.589564">
        <ele>284.611</ele>
        <time>2018-11-24T09:19:05Z</time>
      </trkpt>
      <trkpt lat="41.738469" lon="0.589471">
        <ele>284.558</ele>
        <time>2018-11-24T09:19:06Z</time>
      </trkpt>
      <trkpt lat="41.738574" lon="0.589388">
        <ele>284.278</ele>
        <time>2018-11-24T09:19:07Z</time>
      </trkpt>
      <trkpt lat="41.738669" lon="0.589314">
        <ele>284.129</ele>
        <time>2018-11-24T09:19:08Z</time>
      </trkpt>
      <trkpt lat="41.738754" lon="0.589253">
        <ele>283.938</ele>
        <time>2018-11-24T09:19:09Z</time>
      </trkpt>
      <trkpt lat="41.738834" lon="0.589211">
        <ele>283.748</ele>
        <time>2018-11-24T09:19:10Z</time>
      </trkpt>
      <trkpt lat="41.738915" lon="0.589182">
        <ele>283.733</ele>
        <time>2018-11-24T09:19:11Z</time>
      </trkpt>
      <trkpt lat="41.738995" lon="0.589185">
        <ele>283.637</ele>
        <time>2018-11-24T09:19:12Z</time>
      </trkpt>
      <trkpt lat="41.739070" lon="0.589191">
        <ele>283.349</ele>
        <time>2018-11-24T09:19:13Z</time>
      </trkpt>
      <trkpt lat="41.739145" lon="0.589172">
        <ele>283.213</ele>
        <time>2018-11-24T09:19:14Z</time>
      </trkpt>
      <trkpt lat="41.739220" lon="0.589136">
        <ele>283.308</ele>
        <time>2018-11-24T09:19:15Z</time>
      </trkpt>
      <trkpt lat="41.739269" lon="0.589040">
        <ele>283.376</ele>
        <time>2018-11-24T09:19:16Z</time>
      </trkpt>
      <trkpt lat="41.739309" lon="0.588934">
        <ele>283.613</ele>
        <time>2018-11-24T09:19:17Z</time>
      </trkpt>
      <trkpt lat="41.739358" lon="0.588828">
        <ele>283.950</ele>
        <time>2018-11-24T09:19:18Z</time>
      </trkpt>
      <trkpt lat="41.739449" lon="0.588744">
        <ele>284.120</ele>
        <time>2018-11-24T09:19:19Z</time>
      </trkpt>
      <trkpt lat="41.739539" lon="0.588659">
        <ele>284.361</ele>
        <time>2018-11-24T09:19:20Z</time>
      </trkpt>
      <trkpt lat="41.739643" lon="0.588572">
        <ele>284.550</ele>
        <time>2018-11-24T09:19:21Z</time>
      </trkpt>
      <trkpt lat="41.739761" lon="0.588476">
        <ele>284.840</ele>
        <time>2018-11-24T09:19:22Z</time>
      </trkpt>
      <trkpt lat="41.739873" lon="0.588385">
        <ele>284.955</ele>
        <time>2018-11-24T09:19:23Z</time>
      </trkpt>
      <trkpt lat="41.739990" lon="0.588295">
        <ele>284.897</ele>
        <time>2018-11-24T09:19:24Z</time>
      </trkpt>
      <trkpt lat="41.740103" lon="0.588206">
        <ele>284.823</ele>
        <time>2018-11-24T09:19:25Z</time>
      </trkpt>
      <trkpt lat="41.740227" lon="0.588103">
        <ele>285.025</ele>
        <time>2018-11-24T09:19:26Z</time>
      </trkpt>
      <trkpt lat="41.740353" lon="0.588009">
        <ele>285.008</ele>
        <time>2018-11-24T09:19:27Z</time>
      </trkpt>
      <trkpt lat="41.740481" lon="0.587904">
        <ele>285.252</ele>
        <time>2018-11-24T09:19:28Z</time>
      </trkpt>
      <trkpt lat="41.740617" lon="0.587806">
        <ele>285.319</ele>
        <time>2018-11-24T09:19:29Z</time>
      </trkpt>
      <trkpt lat="41.740748" lon="0.587705">
        <ele>285.386</ele>
        <time>2018-11-24T09:19:30Z</time>
      </trkpt>
      <trkpt lat="41.740886" lon="0.587593">
        <ele>285.416</ele>
        <time>2018-11-24T09:19:31Z</time>
      </trkpt>
      <trkpt lat="41.741026" lon="0.587485">
        <ele>285.517</ele>
        <time>2018-11-24T09:19:32Z</time>
      </trkpt>
      <trkpt lat="41.741164" lon="0.587379">
        <ele>285.576</ele>
        <time>2018-11-24T09:19:33Z</time>
      </trkpt>
      <trkpt lat="41.741311" lon="0.587281">
        <ele>285.796</ele>
        <time>2018-11-24T09:19:34Z</time>
      </trkpt>
      <trkpt lat="41.741471" lon="0.587188">
        <ele>285.741</ele>
        <time>2018-11-24T09:19:35Z</time>
      </trkpt>
      <trkpt lat="41.741635" lon="0.587097">
        <ele>285.918</ele>
        <time>2018-11-24T09:19:36Z</time>
      </trkpt>
      <trkpt lat="41.741800" lon="0.587011">
        <ele>285.798</ele>
        <time>2018-11-24T09:19:37Z</time>
      </trkpt>
      <trkpt lat="41.741963" lon="0.586925">
        <ele>285.617</ele>
        <time>2018-11-24T09:19:38Z</time>
      </trkpt>
      <trkpt lat="41.742128" lon="0.586834">
        <ele>285.608</ele>
        <time>2018-11-24T09:19:39Z</time>
      </trkpt>
      <trkpt lat="41.742296" lon="0.586743">
        <ele>285.684</ele>
        <time>2018-11-24T09:19:40Z</time>
      </trkpt>
      <trkpt lat="41.742468" lon="0.586652">
        <ele>285.481</ele>
        <time>2018-11-24T09:19:41Z</time>
      </trkpt>
      <trkpt lat="41.742643" lon="0.586559">
        <ele>285.368</ele>
        <time>2018-11-24T09:19:42Z</time>
      </trkpt>
      <trkpt lat="41.742821" lon="0.586466">
        <ele>285.318</ele>
        <time>2018-11-24T09:19:43Z</time>
      </trkpt>
      <trkpt lat="41.743004" lon="0.586370">
        <ele>285.599</ele>
        <time>2018-11-24T09:19:44Z</time>
      </trkpt>
      <trkpt lat="41.743192" lon="0.586270">
        <ele>285.498</ele>
        <time>2018-11-24T09:19:45Z</time>
      </trkpt>
      <trkpt lat="41.743385" lon="0.586167">
        <ele>285.548</ele>
        <time>2018-11-24T09:19:46Z</time>
      </trkpt>
      <trkpt lat="41.743583" lon="0.586067">
        <ele>285.613</ele>
        <time>2018-11-24T09:19:47Z</time>
      </trkpt>
      <trkpt lat="41.743789" lon="0.585975">
        <ele>285.776</ele>
        <time>2018-11-24T09:19:48Z</time>
      </trkpt>
      <trkpt lat="41.743999" lon="0.585891">
        <ele>285.790</ele>
        <time>2018-11-24T09:19:49Z</time>
      </trkpt>
      <trkpt lat="41.744217" lon="0.585832">
        <ele>285.519</ele>
        <time>2018-11-24T09:19:50Z</time>
      </trkpt>
      <trkpt lat="41.744434" lon="0.585798">
        <ele>285.408</ele>
        <time>2018-11-24T09:19:51Z</time>
      </trkpt>
      <trkpt lat="41.744660" lon="0.585799">
        <ele>285.410</ele>
        <time>2018-11-24T09:19:52Z</time>
      </trkpt>
      <trkpt lat="41.744879" lon="0.585818">
        <ele>285.567</ele>
        <time>2018-11-24T09:19:53Z</time>
      </trkpt>
      <trkpt lat="41.745099" lon="0.585860">
        <ele>285.584</ele>
        <time>2018-11-24T09:19:54Z</time>
      </trkpt>
      <trkpt lat="41.745321" lon="0.585912">
        <ele>285.494</ele>
        <time>2018-11-24T09:19:55Z</time>
      </trkpt>
      <trkpt lat="41.745545" lon="0.585973">
        <ele>285.315</ele>
        <time>2018-11-24T09:19:56Z</time>
      </trkpt>
      <trkpt lat="41.745768" lon="0.586026">
        <ele>285.214</ele>
        <time>2018-11-24T09:19:57Z</time>
      </trkpt>
      <trkpt lat="41.745997" lon="0.586082">
        <ele>285.434</ele>
        <time>2018-11-24T09:19:58Z</time>
      </trkpt>
      <trkpt lat="41.746224" lon="0.586131">
        <ele>285.389</ele>
        <time>2018-11-24T09:19:59Z</time>
      </trkpt>
      <trkpt lat="41.746448" lon="0.586186">
        <ele>285.199</ele>
        <time>2018-11-24T09:20:00Z</time>
      </trkpt>
      <trkpt lat="41.746677" lon="0.586245">
        <ele>284.907</ele>
        <time>2018-11-24T09:20:01Z</time>
      </trkpt>
      <trkpt lat="41.746909" lon="0.586302">
        <ele>284.827</ele>
        <time>2018-11-24T09:20:02Z</time>
      </trkpt>
      <trkpt lat="41.747134" lon="0.586356">
        <ele>284.708</ele>
        <time>2018-11-24T09:20:03Z</time>
      </trkpt>
      <trkpt lat="41.747362" lon="0.586412">
        <ele>284.592</ele>
        <time>2018-11-24T09:20:04Z</time>
      </trkpt>
      <trkpt lat="41.747590" lon="0.586468">
        <ele>284.459</ele>
        <time>2018-11-24T09:20:05Z</time>
      </trkpt>
      <trkpt lat="41.747821" lon="0.586526">
        <ele>284.056</ele>
        <time>2018-11-24T09:20:06Z</time>
      </trkpt>
      <trkpt lat="41.748052" lon="0.586583">
        <ele>283.656</ele>
        <time>2018-11-24T09:20:07Z</time>
      </trkpt>
      <trkpt lat="41.748283" lon="0.586636">
        <ele>283.197</ele>
        <time>2018-11-24T09:20:08Z</time>
      </trkpt>
      <trkpt lat="41.748514" lon="0.586678">
        <ele>282.886</ele>
        <time>2018-11-24T09:20:09Z</time>
      </trkpt>
      <trkpt lat="41.748748" lon="0.586706">
        <ele>282.536</ele>
        <time>2018-11-24T09:20:10Z</time>
      </trkpt>
      <trkpt lat="41.748985" lon="0.586718">
        <ele>282.511</ele>
        <time>2018-11-24T09:20:11Z</time>
      </trkpt>
      <trkpt lat="41.749222" lon="0.586723">
        <ele>282.458</ele>
        <time>2018-11-24T09:20:12Z</time>
      </trkpt>
      <trkpt lat="41.749459" lon="0.586686">
        <ele>282.452</ele>
        <time>2018-11-24T09:20:13Z</time>
      </trkpt>
      <trkpt lat="41.749695" lon="0.586624">
        <ele>282.417</ele>
        <time>2018-11-24T09:20:14Z</time>
      </trkpt>
      <trkpt lat="41.749929" lon="0.586549">
        <ele>282.208</ele>
        <time>2018-11-24T09:20:15Z</time>
      </trkpt>
      <trkpt lat="41.750159" lon="0.586474">
        <ele>282.238</ele>
        <time>2018-11-24T09:20:16Z</time>
      </trkpt>
      <trkpt lat="41.750389" lon="0.586394">
        <ele>282.365</ele>
        <time>2018-11-24T09:20:17Z</time>
      </trkpt>
      <trkpt lat="41.750623" lon="0.586323">
        <ele>281.982</ele>
        <time>2018-11-24T09:20:18Z</time>
      </trkpt>
      <trkpt lat="41.750858" lon="0.586260">
        <ele>282.052</ele>
        <time>2018-11-24T09:20:19Z</time>
      </trkpt>
      <trkpt lat="41.751091" lon="0.586209">
        <ele>281.863</ele>
        <time>2018-11-24T09:20:20Z</time>
      </trkpt>
      <trkpt lat="41.751325" lon="0.586168">
        <ele>281.882</ele>
        <time>2018-11-24T09:20:21Z</time>
      </trkpt>
      <trkpt lat="41.751560" lon="0.586137">
        <ele>281.762</ele>
        <time>2018-11-24T09:20:22Z</time>
      </trkpt>
      <trkpt lat="41.751791" lon="0.586113">
        <ele>281.567</ele>
        <time>2018-11-24T09:20:23Z</time>
      </trkpt>
      <trkpt lat="41.752016" lon="0.586093">
        <ele>281.211</ele>
        <time>2018-11-24T09:20:24Z</time>
      </trkpt>
      <trkpt lat="41.752232" lon="0.586070">
        <ele>280.821</ele>
        <time>2018-11-24T09:20:25Z</time>
      </trkpt>
      <trkpt lat="41.752445" lon="0.586041">
        <ele>280.703</ele>
        <time>2018-11-24T09:20:26Z</time>
      </trkpt>
      <trkpt lat="41.752652" lon="0.586012">
        <ele>280.508</ele>
        <time>2018-11-24T09:20:27Z</time>
      </trkpt>
      <trkpt lat="41.752856" lon="0.585983">
        <ele>280.274</ele>
        <time>2018-11-24T09:20:28Z</time>
      </trkpt>
      <trkpt lat="41.753056" lon="0.585953">
        <ele>280.011</ele>
        <time>2018-11-24T09:20:29Z</time>
      </trkpt>
      <trkpt lat="41.753252" lon="0.585922">
        <ele>279.868</ele>
        <time>2018-11-24T09:20:30Z</time>
      </trkpt>
      <trkpt lat="41.753442" lon="0.585892">
        <ele>279.558</ele>
        <time>2018-11-24T09:20:31Z</time>
      </trkpt>
      <trkpt lat="41.753624" lon="0.585865">
        <ele>279.369</ele>
        <time>2018-11-24T09:20:32Z</time>
      </trkpt>
      <trkpt lat="41.753796" lon="0.585837">
        <ele>279.298</ele>
        <time>2018-11-24T09:20:33Z</time>
      </trkpt>
      <trkpt lat="41.753970" lon="0.585810">
        <ele>279.228</ele>
        <time>2018-11-24T09:20:34Z</time>
      </trkpt>
      <trkpt lat="41.754137" lon="0.585782">
        <ele>279.173</ele>
        <time>2018-11-24T09:20:35Z</time>
      </trkpt>
      <trkpt lat="41.754297" lon="0.585756">
        <ele>279.164</ele>
        <time>2018-11-24T09:20:36Z</time>
      </trkpt>
      <trkpt lat="41.754444" lon="0.585735">
        <ele>278.906</ele>
        <time>2018-11-24T09:20:37Z</time>
      </trkpt>
      <trkpt lat="41.754581" lon="0.585715">
        <ele>278.716</ele>
        <time>2018-11-24T09:20:38Z</time>
      </trkpt>
      <trkpt lat="41.754703" lon="0.585695">
        <ele>278.508</ele>
        <time>2018-11-24T09:20:39Z</time>
      </trkpt>
      <trkpt lat="41.754811" lon="0.585680">
        <ele>278.259</ele>
        <time>2018-11-24T09:20:40Z</time>
      </trkpt>
      <trkpt lat="41.754913" lon="0.585666">
        <ele>278.176</ele>
        <time>2018-11-24T09:20:41Z</time>
      </trkpt>
      <trkpt lat="41.755015" lon="0.585657">
        <ele>278.193</ele>
        <time>2018-11-24T09:20:42Z</time>
      </trkpt>
      <trkpt lat="41.755120" lon="0.585664">
        <ele>278.183</ele>
        <time>2018-11-24T09:20:43Z</time>
      </trkpt>
      <trkpt lat="41.755228" lon="0.585681">
        <ele>278.194</ele>
        <time>2018-11-24T09:20:44Z</time>
      </trkpt>
      <trkpt lat="41.755337" lon="0.585728">
        <ele>278.283</ele>
        <time>2018-11-24T09:20:45Z</time>
      </trkpt>
      <trkpt lat="41.755439" lon="0.585773">
        <ele>278.353</ele>
        <time>2018-11-24T09:20:46Z</time>
      </trkpt>
      <trkpt lat="41.755541" lon="0.585781">
        <ele>278.218</ele>
        <time>2018-11-24T09:20:47Z</time>
      </trkpt>
      <trkpt lat="41.755641" lon="0.585756">
        <ele>278.338</ele>
        <time>2018-11-24T09:20:48Z</time>
      </trkpt>
      <trkpt lat="41.755744" lon="0.585684">
        <ele>278.370</ele>
        <time>2018-11-24T09:20:49Z</time>
      </trkpt>
      <trkpt lat="41.755844" lon="0.585604">
        <ele>278.617</ele>
        <time>2018-11-24T09:20:50Z</time>
      </trkpt>
      <trkpt lat="41.755956" lon="0.585527">
        <ele>278.908</ele>
        <time>2018-11-24T09:20:51Z</time>
      </trkpt>
      <trkpt lat="41.756087" lon="0.585475">
        <ele>279.266</ele>
        <time>2018-11-24T09:20:52Z</time>
      </trkpt>
      <trkpt lat="41.756236" lon="0.585442">
        <ele>279.613</ele>
        <time>2018-11-24T09:20:53Z</time>
      </trkpt>
      <trkpt lat="41.756391" lon="0.585413">
        <ele>279.740</ele>
        <time>2018-11-24T09:20:54Z</time>
      </trkpt>
      <trkpt lat="41.756543" lon="0.585384">
        <ele>279.920</ele>
        <time>2018-11-24T09:20:55Z</time>
      </trkpt>
      <trkpt lat="41.756695" lon="0.585355">
        <ele>280.141</ele>
        <time>2018-11-24T09:20:56Z</time>
      </trkpt>
      <trkpt lat="41.756858" lon="0.585327">
        <ele>280.550</ele>
        <time>2018-11-24T09:20:57Z</time>
      </trkpt>
      <trkpt lat="41.757027" lon="0.585296">
        <ele>280.680</ele>
        <time>2018-11-24T09:20:58Z</time>
      </trkpt>
      <trkpt lat="41.757207" lon="0.585264">
        <ele>280.925</ele>
        <time>2018-11-24T09:20:59Z</time>
      </trkpt>
      <trkpt lat="41.757392" lon="0.585233">
        <ele>281.134</ele>
        <time>2018-11-24T09:21:00Z</time>
      </trkpt>
      <trkpt lat="41.757574" lon="0.585202">
        <ele>281.155</ele>
        <time>2018-11-24T09:21:01Z</time>
      </trkpt>
      <trkpt lat="41.757757" lon="0.585171">
        <ele>281.110</ele>
        <time>2018-11-24T09:21:02Z</time>
      </trkpt>
      <trkpt lat="41.757944" lon="0.585142">
        <ele>281.408</ele>
        <time>2018-11-24T09:21:03Z</time>
      </trkpt>
      <trkpt lat="41.758137" lon="0.585109">
        <ele>281.776</ele>
        <time>2018-11-24T09:21:04Z</time>
      </trkpt>
      <trkpt lat="41.758335" lon="0.585074">
        <ele>282.083</ele>
        <time>2018-11-24T09:21:05Z</time>
      </trkpt>
      <trkpt lat="41.758539" lon="0.585039">
        <ele>282.280</ele>
        <time>2018-11-24T09:21:06Z</time>
      </trkpt>
      <trkpt lat="41.758747" lon="0.585000">
        <ele>282.340</ele>
        <time>2018-11-24T09:21:07Z</time>
      </trkpt>
      <trkpt lat="41.758957" lon="0.584951">
        <ele>282.581</ele>
        <time>2018-11-24T09:21:08Z</time>
      </trkpt>
      <trkpt lat="41.759166" lon="0.584894">
        <ele>282.570</ele>
        <time>2018-11-24T09:21:09Z</time>
      </trkpt>
      <trkpt lat="41.759376" lon="0.584829">
        <ele>282.670</ele>
        <time>2018-11-24T09:21:10Z</time>
      </trkpt>
      <trkpt lat="41.759587" lon="0.584758">
        <ele>282.595</ele>
        <time>2018-11-24T09:21:11Z</time>
      </trkpt>
      <trkpt lat="41.759797" lon="0.584682">
        <ele>282.483</ele>
        <time>2018-11-24T09:21:12Z</time>
      </trkpt>
      <trkpt lat="41.760007" lon="0.584607">
        <ele>282.325</ele>
        <time>2018-11-24T09:21:13Z</time>
      </trkpt>
      <trkpt lat="41.760218" lon="0.584533">
        <ele>282.317</ele>
        <time>2018-11-24T09:21:14Z</time>
      </trkpt>
      <trkpt lat="41.760428" lon="0.584459">
        <ele>282.208</ele>
        <time>2018-11-24T09:21:15Z</time>
      </trkpt>
      <trkpt lat="41.760639" lon="0.584384">
        <ele>281.991</ele>
        <time>2018-11-24T09:21:16Z</time>
      </trkpt>
      <trkpt lat="41.760849" lon="0.584309">
        <ele>281.898</ele>
        <time>2018-11-24T09:21:17Z</time>
      </trkpt>
      <trkpt lat="41.761059" lon="0.584233">
        <ele>281.865</ele>
        <time>2018-11-24T09:21:18Z</time>
      </trkpt>
      <trkpt lat="41.761268" lon="0.584157">
        <ele>281.635</ele>
        <time>2018-11-24T09:21:19Z</time>
      </trkpt>
      <trkpt lat="41.761477" lon="0.584081">
        <ele>281.596</ele>
        <time>2018-11-24T09:21:20Z</time>
      </trkpt>
      <trkpt lat="41.761687" lon="0.584004">
        <ele>281.465</ele>
        <time>2018-11-24T09:21:21Z</time>
      </trkpt>
      <trkpt lat="41.761897" lon="0.583929">
        <ele>281.395</ele>
        <time>2018-11-24T09:21:22Z</time>
      </trkpt>
      <trkpt lat="41.762107" lon="0.583856">
        <ele>281.270</ele>
        <time>2018-11-24T09:21:23Z</time>
      </trkpt>
      <trkpt lat="41.762318" lon="0.583783">
        <ele>281.248</ele>
        <time>2018-11-24T09:21:24Z</time>
      </trkpt>
      <trkpt lat="41.762528" lon="0.583712">
        <ele>281.161</ele>
        <time>2018-11-24T09:21:25Z</time>
      </trkpt>
      <trkpt lat="41.762741" lon="0.583654">
        <ele>281.017</ele>
        <time>2018-11-24T09:21:26Z</time>
      </trkpt>
      <trkpt lat="41.762956" lon="0.583616">
        <ele>280.908</ele>
        <time>2018-11-24T09:21:27Z</time>
      </trkpt>
      <trkpt lat="41.763172" lon="0.583600">
        <ele>280.877</ele>
        <time>2018-11-24T09:21:28Z</time>
      </trkpt>
      <trkpt lat="41.763389" lon="0.583606">
        <ele>280.694</ele>
        <time>2018-11-24T09:21:29Z</time>
      </trkpt>
      <trkpt lat="41.763608" lon="0.583620">
        <ele>280.541</ele>
        <time>2018-11-24T09:21:30Z</time>
      </trkpt>
      <trkpt lat="41.763824" lon="0.583654">
        <ele>280.471</ele>
        <time>2018-11-24T09:21:31Z</time>
      </trkpt>
      <trkpt lat="41.764044" lon="0.583690">
        <ele>280.422</ele>
        <time>2018-11-24T09:21:32Z</time>
      </trkpt>
      <trkpt lat="41.764251" lon="0.583717">
        <ele>280.361</ele>
        <time>2018-11-24T09:21:33Z</time>
      </trkpt>
      <trkpt lat="41.764465" lon="0.583741">
        <ele>280.481</ele>
        <time>2018-11-24T09:21:34Z</time>
      </trkpt>
      <trkpt lat="41.764678" lon="0.583776">
        <ele>280.436</ele>
        <time>2018-11-24T09:21:35Z</time>
      </trkpt>
      <trkpt lat="41.764891" lon="0.583806">
        <ele>280.436</ele>
        <time>2018-11-24T09:21:36Z</time>
      </trkpt>
      <trkpt lat="41.765107" lon="0.583830">
        <ele>280.417</ele>
        <time>2018-11-24T09:21:37Z</time>
      </trkpt>
      <trkpt lat="41.765322" lon="0.583862">
        <ele>280.418</ele>
        <time>2018-11-24T09:21:38Z</time>
      </trkpt>
      <trkpt lat="41.765537" lon="0.583894">
        <ele>280.608</ele>
        <time>2018-11-24T09:21:39Z</time>
      </trkpt>
      <trkpt lat="41.765751" lon="0.583926">
        <ele>280.896</ele>
        <time>2018-11-24T09:21:40Z</time>
      </trkpt>
      <trkpt lat="41.765968" lon="0.583952">
        <ele>280.923</ele>
        <time>2018-11-24T09:21:41Z</time>
      </trkpt>
      <trkpt lat="41.766184" lon="0.583979">
        <ele>280.980</ele>
        <time>2018-11-24T09:21:42Z</time>
      </trkpt>
      <trkpt lat="41.766399" lon="0.583995">
        <ele>281.130</ele>
        <time>2018-11-24T09:21:43Z</time>
      </trkpt>
      <trkpt lat="41.766616" lon="0.584002">
        <ele>281.281</ele>
        <time>2018-11-24T09:21:44Z</time>
      </trkpt>
      <trkpt lat="41.766833" lon="0.583999">
        <ele>281.380</ele>
        <time>2018-11-24T09:21:45Z</time>
      </trkpt>
      <trkpt lat="41.767049" lon="0.583978">
        <ele>281.630</ele>
        <time>2018-11-24T09:21:46Z</time>
      </trkpt>
      <trkpt lat="41.767265" lon="0.583952">
        <ele>282.115</ele>
        <time>2018-11-24T09:21:47Z</time>
      </trkpt>
      <trkpt lat="41.767481" lon="0.583922">
        <ele>282.587</ele>
        <time>2018-11-24T09:21:48Z</time>
      </trkpt>
      <trkpt lat="41.767695" lon="0.583888">
        <ele>282.942</ele>
        <time>2018-11-24T09:21:49Z</time>
      </trkpt>
      <trkpt lat="41.767911" lon="0.583854">
        <ele>283.226</ele>
        <time>2018-11-24T09:21:50Z</time>
      </trkpt>
      <trkpt lat="41.768126" lon="0.583823">
        <ele>283.408</ele>
        <time>2018-11-24T09:21:51Z</time>
      </trkpt>
      <trkpt lat="41.768343" lon="0.583796">
        <ele>283.691</ele>
        <time>2018-11-24T09:21:52Z</time>
      </trkpt>
      <trkpt lat="41.768562" lon="0.583791">
        <ele>283.628</ele>
        <time>2018-11-24T09:21:53Z</time>
      </trkpt>
      <trkpt lat="41.768780" lon="0.583804">
        <ele>283.765</ele>
        <time>2018-11-24T09:21:54Z</time>
      </trkpt>
      <trkpt lat="41.768995" lon="0.583845">
        <ele>283.645</ele>
        <time>2018-11-24T09:21:55Z</time>
      </trkpt>
      <trkpt lat="41.769208" lon="0.583911">
        <ele>283.376</ele>
        <time>2018-11-24T09:21:56Z</time>
      </trkpt>
      <trkpt lat="41.769419" lon="0.583988">
        <ele>283.095</ele>
        <time>2018-11-24T09:21:57Z</time>
      </trkpt>
      <trkpt lat="41.769628" lon="0.584072">
        <ele>282.695</ele>
        <time>2018-11-24T09:21:58Z</time>
      </trkpt>
      <trkpt lat="41.769838" lon="0.584158">
        <ele>282.290</ele>
        <time>2018-11-24T09:21:59Z</time>
      </trkpt>
      <trkpt lat="41.770046" lon="0.584244">
        <ele>281.882</ele>
        <time>2018-11-24T09:22:00Z</time>
      </trkpt>
      <trkpt lat="41.770254" lon="0.584329">
        <ele>281.343</ele>
        <time>2018-11-24T09:22:01Z</time>
      </trkpt>
      <trkpt lat="41.770462" lon="0.584414">
        <ele>281.217</ele>
        <time>2018-11-24T09:22:02Z</time>
      </trkpt>
      <trkpt lat="41.770670" lon="0.584497">
        <ele>281.108</ele>
        <time>2018-11-24T09:22:03Z</time>
      </trkpt>
      <trkpt lat="41.770878" lon="0.584581">
        <ele>280.981</ele>
        <time>2018-11-24T09:22:04Z</time>
      </trkpt>
      <trkpt lat="41.771085" lon="0.584668">
        <ele>280.928</ele>
        <time>2018-11-24T09:22:05Z</time>
      </trkpt>
      <trkpt lat="41.771291" lon="0.584756">
        <ele>281.215</ele>
        <time>2018-11-24T09:22:06Z</time>
      </trkpt>
      <trkpt lat="41.771498" lon="0.584841">
        <ele>281.255</ele>
        <time>2018-11-24T09:22:07Z</time>
      </trkpt>
      <trkpt lat="41.771705" lon="0.584923">
        <ele>281.296</ele>
        <time>2018-11-24T09:22:08Z</time>
      </trkpt>
      <trkpt lat="41.771914" lon="0.585001">
        <ele>281.345</ele>
        <time>2018-11-24T09:22:09Z</time>
      </trkpt>
      <trkpt lat="41.772125" lon="0.585067">
        <ele>281.365</ele>
        <time>2018-11-24T09:22:10Z</time>
      </trkpt>
      <trkpt lat="41.772338" lon="0.585120">
        <ele>281.480</ele>
        <time>2018-11-24T09:22:11Z</time>
      </trkpt>
      <trkpt lat="41.772553" lon="0.585163">
        <ele>281.447</ele>
        <time>2018-11-24T09:22:12Z</time>
      </trkpt>
      <trkpt lat="41.772768" lon="0.585197">
        <ele>281.429</ele>
        <time>2018-11-24T09:22:13Z</time>
      </trkpt>
      <trkpt lat="41.772984" lon="0.585226">
        <ele>281.521</ele>
        <time>2018-11-24T09:22:14Z</time>
      </trkpt>
      <trkpt lat="41.773200" lon="0.585253">
        <ele>281.508</ele>
        <time>2018-11-24T09:22:15Z</time>
      </trkpt>
      <trkpt lat="41.773416" lon="0.585278">
        <ele>281.767</ele>
        <time>2018-11-24T09:22:16Z</time>
      </trkpt>
      <trkpt lat="41.773632" lon="0.585303">
        <ele>281.664</ele>
        <time>2018-11-24T09:22:17Z</time>
      </trkpt>
      <trkpt lat="41.773848" lon="0.585330">
        <ele>281.681</ele>
        <time>2018-11-24T09:22:18Z</time>
      </trkpt>
      <trkpt lat="41.774064" lon="0.585357">
        <ele>281.631</ele>
        <time>2018-11-24T09:22:19Z</time>
      </trkpt>
      <trkpt lat="41.774280" lon="0.585384">
        <ele>281.552</ele>
        <time>2018-11-24T09:22:20Z</time>
      </trkpt>
      <trkpt lat="41.774496" lon="0.585410">
        <ele>281.571</ele>
        <time>2018-11-24T09:22:21Z</time>
      </trkpt>
      <trkpt lat="41.774712" lon="0.585434">
        <ele>281.631</ele>
        <time>2018-11-24T09:22:22Z</time>
      </trkpt>
      <trkpt lat="41.774928" lon="0.585459">
        <ele>281.796</ele>
        <time>2018-11-24T09:22:23Z</time>
      </trkpt>
      <trkpt lat="41.775144" lon="0.585485">
        <ele>281.843</ele>
        <time>2018-11-24T09:22:24Z</time>
      </trkpt>
      <trkpt lat="41.775360" lon="0.585512">
        <ele>281.864</ele>
        <time>2018-11-24T09:22:25Z</time>
      </trkpt>
      <trkpt lat="41.775576" lon="0.585539">
        <ele>281.810</ele>
        <time>2018-11-24T09:22:26Z</time>
      </trkpt>
      <trkpt lat="41.775792" lon="0.585566">
        <ele>281.808</ele>
        <time>2018-11-24T09:22:27Z</time>
      </trkpt>
      <trkpt lat="41.776007" lon="0.585599">
        <ele>281.957</ele>
        <time>2018-11-24T09:22:28Z</time>
      </trkpt>
      <trkpt lat="41.776221" lon="0.585639">
        <ele>282.164</ele>
        <time>2018-11-24T09:22:29Z</time>
      </trkpt>
      <trkpt lat="41.776434" lon="0.585685">
        <ele>282.451</ele>
        <time>2018-11-24T09:22:30Z</time>
      </trkpt>
      <trkpt lat="41.776647" lon="0.585734">
        <ele>282.431</ele>
        <time>2018-11-24T09:22:31Z</time>
      </trkpt>
      <trkpt lat="41.776860" lon="0.585786">
        <ele>282.332</ele>
        <time>2018-11-24T09:22:32Z</time>
      </trkpt>
      <trkpt lat="41.777073" lon="0.585840">
        <ele>282.571</ele>
        <time>2018-11-24T09:22:33Z</time>
      </trkpt>
      <trkpt lat="41.777286" lon="0.585895">
        <ele>282.711</ele>
        <time>2018-11-24T09:22:34Z</time>
      </trkpt>
      <trkpt lat="41.777498" lon="0.585949">
        <ele>282.886</ele>
        <time>2018-11-24T09:22:35Z</time>
      </trkpt>
      <trkpt lat="41.777710" lon="0.586001">
        <ele>283.158</ele>
        <time>2018-11-24T09:22:36Z</time>
      </trkpt>
      <trkpt lat="41.777923" lon="0.586051">
        <ele>283.452</ele>
        <time>2018-11-24T09:22:37Z</time>
      </trkpt>
      <trkpt lat="41.778136" lon="0.586100">
        <ele>283.817</ele>
        <time>2018-11-24T09:22:38Z</time>
      </trkpt>
      <trkpt lat="41.778350" lon="0.586145">
        <ele>283.708</ele>
        <time>2018-11-24T09:22:39Z</time>
      </trkpt>
      <trkpt lat="41.778565" lon="0.586182">
        <ele>284.088</ele>
        <time>2018-11-24T09:22:40Z</time>
      </trkpt>
      <trkpt lat="41.778782" lon="0.586209">
        <ele>284.085</ele>
        <time>2018-11-24T09:22:41Z</time>
      </trkpt>
      <trkpt lat="41.779000" lon="0.586227">
        <ele>284.052</ele>
        <time>2018-11-24T09:22:42Z</time>
      </trkpt>
      <trkpt lat="41.779218" lon="0.586241">
        <ele>284.042</ele>
        <time>2018-11-24T09:22:43Z</time>
      </trkpt>
      <trkpt lat="41.779436" lon="0.586254">
        <ele>283.923</ele>
        <time>2018-11-24T09:22:44Z</time>
      </trkpt>
      <trkpt lat="41.779654" lon="0.586267">
        <ele>283.992</ele>
        <time>2018-11-24T09:22:45Z</time>
      </trkpt>
      <trkpt lat="41.779871" lon="0.586282">
        <ele>283.782</ele>
        <time>2018-11-24T09:22:46Z</time>
      </trkpt>
      <trkpt lat="41.780088" lon="0.586298">
        <ele>283.527</ele>
        <time>2018-11-24T09:22:47Z</time>
      </trkpt>
      <trkpt lat="41.780304" lon="0.586315">
        <ele>283.489</ele>
        <time>2018-11-24T09:22:48Z</time>
      </trkpt>
      <trkpt lat="41.780520" lon="0.586332">
        <ele>283.606</ele>
        <time>2018-11-24T09:22:49Z</time>
      </trkpt>
      <trkpt lat="41.780735" lon="0.586347">
        <ele>283.926</ele>
        <time>2018-11-24T09:22:50Z</time>
      </trkpt>
      <trkpt lat="41.780950" lon="0.586358">
        <ele>284.308</ele>
        <time>2018-11-24T09:22:51Z</time>
      </trkpt>
      <trkpt lat="41.781166" lon="0.586359">
        <ele>284.781</ele>
        <time>2018-11-24T09:22:52Z</time>
      </trkpt>
      <trkpt lat="41.781382" lon="0.586342">
        <ele>285.138</ele>
        <time>2018-11-24T09:22:53Z</time>
      </trkpt>
      <trkpt lat="41.781597" lon="0.586303">
        <ele>285.235</ele>
        <time>2018-11-24T09:22:54Z</time>
      </trkpt>
      <trkpt lat="41.781809" lon="0.586242">
        <ele>285.385</ele>
        <time>2018-11-24T09:22:55Z</time>
      </trkpt>
      <trkpt lat="41.782019" lon="0.586166">
        <ele>285.246</ele>
        <time>2018-11-24T09:22:56Z</time>
      </trkpt>
      <trkpt lat="41.782228" lon="0.586085">
        <ele>285.295</ele>
        <time>2018-11-24T09:22:57Z</time>
      </trkpt>
      <trkpt lat="41.782438" lon="0.586004">
        <ele>284.875</ele>
        <time>2018-11-24T09:22:58Z</time>
      </trkpt>
      <trkpt lat="41.782648" lon="0.585926">
        <ele>284.530</ele>
        <time>2018-11-24T09:22:59Z</time>
      </trkpt>
      <trkpt lat="41.782858" lon="0.585851">
        <ele>284.241</ele>
        <time>2018-11-24T09:23:00Z</time>
      </trkpt>
      <trkpt lat="41.783069" lon="0.585786">
        <ele>284.181</ele>
        <time>2018-11-24T09:23:01Z</time>
      </trkpt>
      <trkpt lat="41.783282" lon="0.585735">
        <ele>284.009</ele>
        <time>2018-11-24T09:23:02Z</time>
      </trkpt>
      <trkpt lat="41.783496" lon="0.585697">
        <ele>283.908</ele>
        <time>2018-11-24T09:23:03Z</time>
      </trkpt>
      <trkpt lat="41.783711" lon="0.585668">
        <ele>284.267</ele>
        <time>2018-11-24T09:23:04Z</time>
      </trkpt>
      <trkpt lat="41.783925" lon="0.585642">
        <ele>284.574</ele>
        <time>2018-11-24T09:23:05Z</time>
      </trkpt>
      <trkpt lat="41.784140" lon="0.585617">
        <ele>284.821</ele>
        <time>2018-11-24T09:23:06Z</time>
      </trkpt>
      <trkpt lat="41.784356" lon="0.585593">
        <ele>284.951</ele>
        <time>2018-11-24T09:23:07Z</time>
      </trkpt>
      <trkpt lat="41.784572" lon="0.585569">
        <ele>285.122</ele>
        <time>2018-11-24T09:23:08Z</time>
      </trkpt>
      <trkpt lat="41.784789" lon="0.585545">
        <ele>285.311</ele>
        <time>2018-11-24T09:23:09Z</time>
      </trkpt>
      <trkpt lat="41.785006" lon="0.585516">
        <ele>285.371</ele>
        <time>2018-11-24T09:23:10Z</time>
      </trkpt>
      <trkpt lat="41.785222" lon="0.585473">
        <ele>285.276</ele>
        <time>2018-11-24T09:23:11Z</time>
      </trkpt>
      <trkpt lat="41.785435" lon="0.585412">
        <ele>284.852</ele>
        <time>2018-11-24T09:23:12Z</time>
      </trkpt>
      <trkpt lat="41.785637" lon="0.585334">
        <ele>284.353</ele>
        <time>2018-11-24T09:23:13Z</time>
      </trkpt>
      <trkpt lat="41.785828" lon="0.585241">
        <ele>283.808</ele>
        <time>2018-11-24T09:23:14Z</time>
      </trkpt>
      <trkpt lat="41.786006" lon="0.585141">
        <ele>283.008</ele>
        <time>2018-11-24T09:23:15Z</time>
      </trkpt>
      <trkpt lat="41.786169" lon="0.585040">
        <ele>282.478</ele>
        <time>2018-11-24T09:23:16Z</time>
      </trkpt>
      <trkpt lat="41.786320" lon="0.584944">
        <ele>281.855</ele>
        <time>2018-11-24T09:23:17Z</time>
      </trkpt>
      <trkpt lat="41.786462" lon="0.584856">
        <ele>281.392</ele>
        <time>2018-11-24T09:23:18Z</time>
      </trkpt>
      <trkpt lat="41.786596" lon="0.584773">
        <ele>280.912</ele>
        <time>2018-11-24T09:23:19Z</time>
      </trkpt>
      <trkpt lat="41.786725" lon="0.584693">
        <ele>280.633</ele>
        <time>2018-11-24T09:23:20Z</time>
      </trkpt>
      <trkpt lat="41.786847" lon="0.584618">
        <ele>280.482</ele>
        <time>2018-11-24T09:23:21Z</time>
      </trkpt>
      <trkpt lat="41.786961" lon="0.584552">
        <ele>280.242</ele>
        <time>2018-11-24T09:23:22Z</time>
      </trkpt>
      <trkpt lat="41.787071" lon="0.584504">
        <ele>280.167</ele>
        <time>2018-11-24T09:23:23Z</time>
      </trkpt>
      <trkpt lat="41.787179" lon="0.584480">
        <ele>280.245</ele>
        <time>2018-11-24T09:23:24Z</time>
      </trkpt>
      <trkpt lat="41.787282" lon="0.584462">
        <ele>280.347</ele>
        <time>2018-11-24T09:23:25Z</time>
      </trkpt>
      <trkpt lat="41.787381" lon="0.584436">
        <ele>280.511</ele>
        <time>2018-11-24T09:23:26Z</time>
      </trkpt>
      <trkpt lat="41.787458" lon="0.584355">
        <ele>280.708</ele>
        <time>2018-11-24T09:23:27Z</time>
      </trkpt>
      <trkpt lat="41.787524" lon="0.584268">
        <ele>280.947</ele>
        <time>2018-11-24T09:23:28Z</time>
      </trkpt>
      <trkpt lat="41.787572" lon="0.584136">
        <ele>281.144</ele>
        <time>2018-11-24T09:23:29Z</time>
      </trkpt>
      <trkpt lat="41.787630" lon="0.584018">
        <ele>281.411</ele>
        <time>2018-11-24T09:23:30Z</time>
      </trkpt>
      <trkpt lat="41.787699" lon="0.583907">
        <ele>281.921</ele>
        <time>2018-11-24T09:23:31Z</time>
      </trkpt>
      <trkpt lat="41.787788" lon="0.583800">
        <ele>282.622</ele>
        <time>2018-11-24T09:23:32Z</time>
      </trkpt>
      <trkpt lat="41.787881" lon="0.583685">
        <ele>283.071</ele>
        <time>2018-11-24T09:23:33Z</time>
      </trkpt>
      <trkpt lat="41.787971" lon="0.583572">
        <ele>283.331</ele>
        <time>2018-11-24T09:23:34Z</time>
      </trkpt>
      <trkpt lat="41.788065" lon="0.583453">
        <ele>283.896</ele>
        <time>2018-11-24T09:23:35Z</time>
      </trkpt>
      <trkpt lat="41.788159" lon="0.583326">
        <ele>284.575</ele>
        <time>2018-11-24T09:23:36Z</time>
      </trkpt>
      <trkpt lat="41.788256" lon="0.583190">
        <ele>285.128</ele>
        <time>2018-11-24T09:23:37Z</time>
      </trkpt>
      <trkpt lat="41.788359" lon="0.583046">
        <ele>285.820</ele>
        <time>2018-11-24T09:23:38Z</time>
      </trkpt>
      <trkpt lat="41.788463" lon="0.582889">
        <ele>286.408</ele>
        <time>2018-11-24T09:23:39Z</time>
      </trkpt>
      <trkpt lat="41.788570" lon="0.582719">
        <ele>287.290</ele>
        <time>2018-11-24T09:23:40Z</time>
      </trkpt>
      <trkpt lat="41.788669" lon="0.582527">
        <ele>287.887</ele>
        <time>2018-11-24T09:23:41Z</time>
      </trkpt>
      <trkpt lat="41.788758" lon="0.582315">
        <ele>288.464</ele>
        <time>2018-11-24T09:23:42Z</time>
      </trkpt>
      <trkpt lat="41.788841" lon="0.582090">
        <ele>288.974</ele>
        <time>2018-11-24T09:23:43Z</time>
      </trkpt>
      <trkpt lat="41.788922" lon="0.581868">
        <ele>289.315</ele>
        <time>2018-11-24T09:23:44Z</time>
      </trkpt>
      <trkpt lat="41.789002" lon="0.581649">
        <ele>289.644</ele>
        <time>2018-11-24T09:23:45Z</time>
      </trkpt>
      <trkpt lat="41.789083" lon="0.581428">
        <ele>290.244</ele>
        <time>2018-11-24T09:23:46Z</time>
      </trkpt>
      <trkpt lat="41.789165" lon="0.581202">
        <ele>290.919</ele>
        <time>2018-11-24T09:23:47Z</time>
      </trkpt>
      <trkpt lat="41.789247" lon="0.580969">
        <ele>291.225</ele>
        <time>2018-11-24T09:23:48Z</time>
      </trkpt>
      <trkpt lat="41.789332" lon="0.580734">
        <ele>291.926</ele>
        <time>2018-11-24T09:23:49Z</time>
      </trkpt>
      <trkpt lat="41.789419" lon="0.580495">
        <ele>292.708</ele>
        <time>2018-11-24T09:23:50Z</time>
      </trkpt>
      <trkpt lat="41.789507" lon="0.580255">
        <ele>293.508</ele>
        <time>2018-11-24T09:23:51Z</time>
      </trkpt>
      <trkpt lat="41.789595" lon="0.580015">
        <ele>293.865</ele>
        <time>2018-11-24T09:23:52Z</time>
      </trkpt>
      <trkpt lat="41.789678" lon="0.579769">
        <ele>294.872</ele>
        <time>2018-11-24T09:23:53Z</time>
      </trkpt>
      <trkpt lat="41.789755" lon="0.579519">
        <ele>295.389</ele>
        <time>2018-11-24T09:23:54Z</time>
      </trkpt>
      <trkpt lat="41.789824" lon="0.579266">
        <ele>295.839</ele>
        <time>2018-11-24T09:23:55Z</time>
      </trkpt>
      <trkpt lat="41.789886" lon="0.579008">
        <ele>296.140</ele>
        <time>2018-11-24T09:23:56Z</time>
      </trkpt>
      <trkpt lat="41.789945" lon="0.578746">
        <ele>296.979</ele>
        <time>2018-11-24T09:23:57Z</time>
      </trkpt>
      <trkpt lat="41.790003" lon="0.578490">
        <ele>297.119</ele>
        <time>2018-11-24T09:23:58Z</time>
      </trkpt>
      <trkpt lat="41.790056" lon="0.578238">
        <ele>297.484</ele>
        <time>2018-11-24T09:23:59Z</time>
      </trkpt>
      <trkpt lat="41.790106" lon="0.577990">
        <ele>297.831</ele>
        <time>2018-11-24T09:24:00Z</time>
      </trkpt>
      <trkpt lat="41.790175" lon="0.577753">
        <ele>297.961</ele>
        <time>2018-11-24T09:24:01Z</time>
      </trkpt>
      <trkpt lat="41.790229" lon="0.577518">
        <ele>297.907</ele>
        <time>2018-11-24T09:24:02Z</time>
      </trkpt>
      <trkpt lat="41.790282" lon="0.577282">
        <ele>298.008</ele>
        <time>2018-11-24T09:24:03Z</time>
      </trkpt>
      <trkpt lat="41.790338" lon="0.577044">
        <ele>298.156</ele>
        <time>2018-11-24T09:24:04Z</time>
      </trkpt>
      <trkpt lat="41.790394" lon="0.576813">
        <ele>298.263</ele>
        <time>2018-11-24T09:24:05Z</time>
      </trkpt>
      <trkpt lat="41.790445" lon="0.576589">
        <ele>298.190</ele>
        <time>2018-11-24T09:24:06Z</time>
      </trkpt>
      <trkpt lat="41.790499" lon="0.576377">
        <ele>297.730</ele>
        <time>2018-11-24T09:24:07Z</time>
      </trkpt>
      <trkpt lat="41.790564" lon="0.576176">
        <ele>297.481</ele>
        <time>2018-11-24T09:24:08Z</time>
      </trkpt>
      <trkpt lat="41.790641" lon="0.575985">
        <ele>296.950</ele>
        <time>2018-11-24T09:24:09Z</time>
      </trkpt>
      <trkpt lat="41.790731" lon="0.575813">
        <ele>296.510</ele>
        <time>2018-11-24T09:24:10Z</time>
      </trkpt>
      <trkpt lat="41.790828" lon="0.575659">
        <ele>296.065</ele>
        <time>2018-11-24T09:24:11Z</time>
      </trkpt>
      <trkpt lat="41.790923" lon="0.575525">
        <ele>295.358</ele>
        <time>2018-11-24T09:24:12Z</time>
      </trkpt>
      <trkpt lat="41.791013" lon="0.575411">
        <ele>294.652</ele>
        <time>2018-11-24T09:24:13Z</time>
      </trkpt>
      <trkpt lat="41.791097" lon="0.575310">
        <ele>293.917</ele>
        <time>2018-11-24T09:24:14Z</time>
      </trkpt>
      <trkpt lat="41.791180" lon="0.575227">
        <ele>293.508</ele>
        <time>2018-11-24T09:24:15Z</time>
      </trkpt>
      <trkpt lat="41.791263" lon="0.575165">
        <ele>293.258</ele>
        <time>2018-11-24T09:24:16Z</time>
      </trkpt>
      <trkpt lat="41.791350" lon="0.575120">
        <ele>292.955</ele>
        <time>2018-11-24T09:24:17Z</time>
      </trkpt>
      <trkpt lat="41.791432" lon="0.575068">
        <ele>292.772</ele>
        <time>2018-11-24T09:24:18Z</time>
      </trkpt>
      <trkpt lat="41.791507" lon="0.574990">
        <ele>292.612</ele>
        <time>2018-11-24T09:24:19Z</time>
      </trkpt>
      <trkpt lat="41.791546" lon="0.574874">
        <ele>292.613</ele>
        <time>2018-11-24T09:24:20Z</time>
      </trkpt>
      <trkpt lat="41.791586" lon="0.574747">
        <ele>292.812</ele>
        <time>2018-11-24T09:24:21Z</time>
      </trkpt>
      <trkpt lat="41.791650" lon="0.574623">
        <ele>293.072</ele>
        <time>2018-11-24T09:24:22Z</time>
      </trkpt>
      <trkpt lat="41.791738" lon="0.574507">
        <ele>293.217</ele>
        <time>2018-11-24T09:24:23Z</time>
      </trkpt>
      <trkpt lat="41.791823" lon="0.574398">
        <ele>293.285</ele>
        <time>2018-11-24T09:24:24Z</time>
      </trkpt>
      <trkpt lat="41.791907" lon="0.574291">
        <ele>293.289</ele>
        <time>2018-11-24T09:24:25Z</time>
      </trkpt>
      <trkpt lat="41.791994" lon="0.574180">
        <ele>293.317</ele>
        <time>2018-11-24T09:24:26Z</time>
      </trkpt>
      <trkpt lat="41.792084" lon="0.574067">
        <ele>293.508</ele>
        <time>2018-11-24T09:24:27Z</time>
      </trkpt>
      <trkpt lat="41.792177" lon="0.573952">
        <ele>293.831</ele>
        <time>2018-11-24T09:24:28Z</time>
      </trkpt>
      <trkpt lat="41.792269" lon="0.573835">
        <ele>293.968</ele>
        <time>2018-11-24T09:24:29Z</time>
      </trkpt>
      <trkpt lat="41.792358" lon="0.573719">
        <ele>294.175</ele>
        <time>2018-11-24T09:24:30Z</time>
      </trkpt>
      <trkpt lat="41.792446" lon="0.573606">
        <ele>294.465</ele>
        <time>2018-11-24T09:24:31Z</time>
      </trkpt>
      <trkpt lat="41.792535" lon="0.573493">
        <ele>294.796</ele>
        <time>2018-11-24T09:24:32Z</time>
      </trkpt>
      <trkpt lat="41.792624" lon="0.573380">
        <ele>294.935</ele>
        <time>2018-11-24T09:24:33Z</time>
      </trkpt>
      <trkpt lat="41.792713" lon="0.573267">
        <ele>295.285</ele>
        <time>2018-11-24T09:24:34Z</time>
      </trkpt>
      <trkpt lat="41.792802" lon="0.573155">
        <ele>295.460</ele>
        <time>2018-11-24T09:24:35Z</time>
      </trkpt>
      <trkpt lat="41.792892" lon="0.573043">
        <ele>295.624</ele>
        <time>2018-11-24T09:24:36Z</time>
      </trkpt>
      <trkpt lat="41.792982" lon="0.572931">
        <ele>295.804</ele>
        <time>2018-11-24T09:24:37Z</time>
      </trkpt>
      <trkpt lat="41.793071" lon="0.572818">
        <ele>296.014</ele>
        <time>2018-11-24T09:24:38Z</time>
      </trkpt>
      <trkpt lat="41.793160" lon="0.572704">
        <ele>296.308</ele>
        <time>2018-11-24T09:24:39Z</time>
      </trkpt>
      <trkpt lat="41.793247" lon="0.572585">
        <ele>296.665</ele>
        <time>2018-11-24T09:24:40Z</time>
      </trkpt>
      <trkpt lat="41.793335" lon="0.572467">
        <ele>296.872</ele>
        <time>2018-11-24T09:24:41Z</time>
      </trkpt>
      <trkpt lat="41.793423" lon="0.572354">
        <ele>296.929</ele>
        <time>2018-11-24T09:24:42Z</time>
      </trkpt>
      <trkpt lat="41.793511" lon="0.572236">
        <ele>297.399</ele>
        <time>2018-11-24T09:24:43Z</time>
      </trkpt>
      <trkpt lat="41.793603" lon="0.572126">
        <ele>297.470</ele>
        <time>2018-11-24T09:24:44Z</time>
      </trkpt>
      <trkpt lat="41.793690" lon="0.572010">
        <ele>297.579</ele>
        <time>2018-11-24T09:24:45Z</time>
      </trkpt>
      <trkpt lat="41.793779" lon="0.571894">
        <ele>297.859</ele>
        <time>2018-11-24T09:24:46Z</time>
      </trkpt>
      <trkpt lat="41.793869" lon="0.571779">
        <ele>298.054</ele>
        <time>2018-11-24T09:24:47Z</time>
      </trkpt>
      <trkpt lat="41.793959" lon="0.571663">
        <ele>298.311</ele>
        <time>2018-11-24T09:24:48Z</time>
      </trkpt>
      <trkpt lat="41.794048" lon="0.571550">
        <ele>298.621</ele>
        <time>2018-11-24T09:24:49Z</time>
      </trkpt>
      <trkpt lat="41.794138" lon="0.571437">
        <ele>298.903</ele>
        <time>2018-11-24T09:24:50Z</time>
      </trkpt>
      <trkpt lat="41.794233" lon="0.571330">
        <ele>299.008</ele>
        <time>2018-11-24T09:24:51Z</time>
      </trkpt>
      <trkpt lat="41.794309" lon="0.571197">
        <ele>299.314</ele>
        <time>2018-11-24T09:24:52Z</time>
      </trkpt>
      <trkpt lat="41.794397" lon="0.571085">
        <ele>299.581</ele>
        <time>2018-11-24T09:24:53Z</time>
      </trkpt>
      <trkpt lat="41.794480" lon="0.570971">
        <ele>299.948</ele>
        <time>2018-11-24T09:24:54Z</time>
      </trkpt>
      <trkpt lat="41.794567" lon="0.570862">
        <ele>300.368</ele>
        <time>2018-11-24T09:24:55Z</time>
      </trkpt>
      <trkpt lat="41.794656" lon="0.570752">
        <ele>300.779</ele>
        <time>2018-11-24T09:24:56Z</time>
      </trkpt>
      <trkpt lat="41.794744" lon="0.570639">
        <ele>301.158</ele>
        <time>2018-11-24T09:24:57Z</time>
      </trkpt>
      <trkpt lat="41.794835" lon="0.570527">
        <ele>301.568</ele>
        <time>2018-11-24T09:24:58Z</time>
      </trkpt>
      <trkpt lat="41.794925" lon="0.570413">
        <ele>301.993</ele>
        <time>2018-11-24T09:24:59Z</time>
      </trkpt>
      <trkpt lat="41.795015" lon="0.570301">
        <ele>302.432</ele>
        <time>2018-11-24T09:25:00Z</time>
      </trkpt>
      <trkpt lat="41.795118" lon="0.570216">
        <ele>303.192</ele>
        <time>2018-11-24T09:25:01Z</time>
      </trkpt>
      <trkpt lat="41.795227" lon="0.570158">
        <ele>303.411</ele>
        <time>2018-11-24T09:25:02Z</time>
      </trkpt>
      <trkpt lat="41.795347" lon="0.570141">
        <ele>304.008</ele>
        <time>2018-11-24T09:25:03Z</time>
      </trkpt>
      <trkpt lat="41.795454" lon="0.570142">
        <ele>304.396</ele>
        <time>2018-11-24T09:25:04Z</time>
      </trkpt>
      <trkpt lat="41.795540" lon="0.570144">
        <ele>304.383</ele>
        <time>2018-11-24T09:25:05Z</time>
      </trkpt>
      <trkpt lat="41.795624" lon="0.570147">
        <ele>304.390</ele>
        <time>2018-11-24T09:25:06Z</time>
      </trkpt>
      <trkpt lat="41.795700" lon="0.570146">
        <ele>304.280</ele>
        <time>2018-11-24T09:25:07Z</time>
      </trkpt>
      <trkpt lat="41.795768" lon="0.570146">
        <ele>304.191</ele>
        <time>2018-11-24T09:25:08Z</time>
      </trkpt>
      <trkpt lat="41.795834" lon="0.570141">
        <ele>304.260</ele>
        <time>2018-11-24T09:25:09Z</time>
      </trkpt>
      <trkpt lat="41.795905" lon="0.570133">
        <ele>304.250</ele>
        <time>2018-11-24T09:25:10Z</time>
      </trkpt>
      <trkpt lat="41.795991" lon="0.570126">
        <ele>304.385</ele>
        <time>2018-11-24T09:25:11Z</time>
      </trkpt>
      <trkpt lat="41.796094" lon="0.570125">
        <ele>304.493</ele>
        <time>2018-11-24T09:25:12Z</time>
      </trkpt>
      <trkpt lat="41.796209" lon="0.570120">
        <ele>304.665</ele>
        <time>2018-11-24T09:25:13Z</time>
      </trkpt>
      <trkpt lat="41.796326" lon="0.570111">
        <ele>304.521</ele>
        <time>2018-11-24T09:25:14Z</time>
      </trkpt>
      <trkpt lat="41.796440" lon="0.570106">
        <ele>304.208</ele>
        <time>2018-11-24T09:25:15Z</time>
      </trkpt>
      <trkpt lat="41.796558" lon="0.570109">
        <ele>304.182</ele>
        <time>2018-11-24T09:25:16Z</time>
      </trkpt>
      <trkpt lat="41.796672" lon="0.570107">
        <ele>304.019</ele>
        <time>2018-11-24T09:25:17Z</time>
      </trkpt>
      <trkpt lat="41.796787" lon="0.570106">
        <ele>303.946</ele>
        <time>2018-11-24T09:25:18Z</time>
      </trkpt>
      <trkpt lat="41.796904" lon="0.570105">
        <ele>303.746</ele>
        <time>2018-11-24T09:25:19Z</time>
      </trkpt>
      <trkpt lat="41.797023" lon="0.570105">
        <ele>303.557</ele>
        <time>2018-11-24T09:25:20Z</time>
      </trkpt>
      <trkpt lat="41.797141" lon="0.570103">
        <ele>303.466</ele>
        <time>2018-11-24T09:25:21Z</time>
      </trkpt>
      <trkpt lat="41.797259" lon="0.570099">
        <ele>303.286</ele>
        <time>2018-11-24T09:25:22Z</time>
      </trkpt>
      <trkpt lat="41.797378" lon="0.570096">
        <ele>303.011</ele>
        <time>2018-11-24T09:25:23Z</time>
      </trkpt>
      <trkpt lat="41.797496" lon="0.570093">
        <ele>302.791</ele>
        <time>2018-11-24T09:25:24Z</time>
      </trkpt>
      <trkpt lat="41.797614" lon="0.570091">
        <ele>302.481</ele>
        <time>2018-11-24T09:25:25Z</time>
      </trkpt>
      <trkpt lat="41.797733" lon="0.570089">
        <ele>301.919</ele>
        <time>2018-11-24T09:25:26Z</time>
      </trkpt>
      <trkpt lat="41.797853" lon="0.570085">
        <ele>301.508</ele>
        <time>2018-11-24T09:25:27Z</time>
      </trkpt>
      <trkpt lat="41.797972" lon="0.570081">
        <ele>301.192</ele>
        <time>2018-11-24T09:25:28Z</time>
      </trkpt>
      <trkpt lat="41.798092" lon="0.570079">
        <ele>300.689</ele>
        <time>2018-11-24T09:25:29Z</time>
      </trkpt>
      <trkpt lat="41.798213" lon="0.570075">
        <ele>300.246</ele>
        <time>2018-11-24T09:25:30Z</time>
      </trkpt>
      <trkpt lat="41.798337" lon="0.570078">
        <ele>299.836</ele>
        <time>2018-11-24T09:25:31Z</time>
      </trkpt>
      <trkpt lat="41.798463" lon="0.570082">
        <ele>299.487</ele>
        <time>2018-11-24T09:25:32Z</time>
      </trkpt>
      <trkpt lat="41.798592" lon="0.570084">
        <ele>298.916</ele>
        <time>2018-11-24T09:25:33Z</time>
      </trkpt>
      <trkpt lat="41.798722" lon="0.570110">
        <ele>298.336</ele>
        <time>2018-11-24T09:25:34Z</time>
      </trkpt>
      <trkpt lat="41.798832" lon="0.570199">
        <ele>297.951</ele>
        <time>2018-11-24T09:25:35Z</time>
      </trkpt>
      <trkpt lat="41.798932" lon="0.570316">
        <ele>297.676</ele>
        <time>2018-11-24T09:25:36Z</time>
      </trkpt>
      <trkpt lat="41.799019" lon="0.570455">
        <ele>297.590</ele>
        <time>2018-11-24T09:25:37Z</time>
      </trkpt>
      <trkpt lat="41.799112" lon="0.570601">
        <ele>297.619</ele>
        <time>2018-11-24T09:25:38Z</time>
      </trkpt>
      <trkpt lat="41.799215" lon="0.570752">
        <ele>297.708</ele>
        <time>2018-11-24T09:25:39Z</time>
      </trkpt>
      <trkpt lat="41.799316" lon="0.570907">
        <ele>297.830</ele>
        <time>2018-11-24T09:25:40Z</time>
      </trkpt>
      <trkpt lat="41.799412" lon="0.571059">
        <ele>297.747</ele>
        <time>2018-11-24T09:25:41Z</time>
      </trkpt>
      <trkpt lat="41.799507" lon="0.571204">
        <ele>297.794</ele>
        <time>2018-11-24T09:25:42Z</time>
      </trkpt>
      <trkpt lat="41.799607" lon="0.571348">
        <ele>297.674</ele>
        <time>2018-11-24T09:25:43Z</time>
      </trkpt>
      <trkpt lat="41.799720" lon="0.571476">
        <ele>297.645</ele>
        <time>2018-11-24T09:25:44Z</time>
      </trkpt>
      <trkpt lat="41.799847" lon="0.571583">
        <ele>297.834</ele>
        <time>2018-11-24T09:25:45Z</time>
      </trkpt>
      <trkpt lat="41.799985" lon="0.571674">
        <ele>298.064</ele>
        <time>2018-11-24T09:25:46Z</time>
      </trkpt>
      <trkpt lat="41.800129" lon="0.571754">
        <ele>298.199</ele>
        <time>2018-11-24T09:25:47Z</time>
      </trkpt>
      <trkpt lat="41.800269" lon="0.571834">
        <ele>298.386</ele>
        <time>2018-11-24T09:25:48Z</time>
      </trkpt>
      <trkpt lat="41.800405" lon="0.571911">
        <ele>298.260</ele>
        <time>2018-11-24T09:25:49Z</time>
      </trkpt>
      <trkpt lat="41.800531" lon="0.571980">
        <ele>297.926</ele>
        <time>2018-11-24T09:25:50Z</time>
      </trkpt>
      <trkpt lat="41.800650" lon="0.572032">
        <ele>297.708</ele>
        <time>2018-11-24T09:25:51Z</time>
      </trkpt>
      <trkpt lat="41.800757" lon="0.572077">
        <ele>297.461</ele>
        <time>2018-11-24T09:25:52Z</time>
      </trkpt>
      <trkpt lat="41.800851" lon="0.572126">
        <ele>297.118</ele>
        <time>2018-11-24T09:25:53Z</time>
      </trkpt>
      <trkpt lat="41.800933" lon="0.572185">
        <ele>296.935</ele>
        <time>2018-11-24T09:25:54Z</time>
      </trkpt>
      <trkpt lat="41.801013" lon="0.572235">
        <ele>296.875</ele>
        <time>2018-11-24T09:25:55Z</time>
      </trkpt>
      <trkpt lat="41.801094" lon="0.572272">
        <ele>296.996</ele>
        <time>2018-11-24T09:25:56Z</time>
      </trkpt>
      <trkpt lat="41.801184" lon="0.572247">
        <ele>296.535</ele>
        <time>2018-11-24T09:25:57Z</time>
      </trkpt>
      <trkpt lat="41.801271" lon="0.572175">
        <ele>296.555</ele>
        <time>2018-11-24T09:25:58Z</time>
      </trkpt>
      <trkpt lat="41.801363" lon="0.572104">
        <ele>296.570</ele>
        <time>2018-11-24T09:25:59Z</time>
      </trkpt>
      <trkpt lat="41.801474" lon="0.572057">
        <ele>296.872</ele>
        <time>2018-11-24T09:26:00Z</time>
      </trkpt>
      <trkpt lat="41.801603" lon="0.572015">
        <ele>297.013</ele>
        <time>2018-11-24T09:26:01Z</time>
      </trkpt>
      <trkpt lat="41.801743" lon="0.571978">
        <ele>297.014</ele>
        <time>2018-11-24T09:26:02Z</time>
      </trkpt>
      <trkpt lat="41.801879" lon="0.571937">
        <ele>296.908</ele>
        <time>2018-11-24T09:26:03Z</time>
      </trkpt>
      <trkpt lat="41.802022" lon="0.571900">
        <ele>296.950</ele>
        <time>2018-11-24T09:26:04Z</time>
      </trkpt>
      <trkpt lat="41.802176" lon="0.571861">
        <ele>296.937</ele>
        <time>2018-11-24T09:26:05Z</time>
      </trkpt>
      <trkpt lat="41.802340" lon="0.571818">
        <ele>297.124</ele>
        <time>2018-11-24T09:26:06Z</time>
      </trkpt>
      <trkpt lat="41.802514" lon="0.571772">
        <ele>297.554</ele>
        <time>2018-11-24T09:26:07Z</time>
      </trkpt>
      <trkpt lat="41.802698" lon="0.571726">
        <ele>298.095</ele>
        <time>2018-11-24T09:26:08Z</time>
      </trkpt>
      <trkpt lat="41.802880" lon="0.571683">
        <ele>298.314</ele>
        <time>2018-11-24T09:26:09Z</time>
      </trkpt>
      <trkpt lat="41.803063" lon="0.571645">
        <ele>298.624</ele>
        <time>2018-11-24T09:26:10Z</time>
      </trkpt>
      <trkpt lat="41.803250" lon="0.571611">
        <ele>299.179</ele>
        <time>2018-11-24T09:26:11Z</time>
      </trkpt>
      <trkpt lat="41.803445" lon="0.571581">
        <ele>299.615</ele>
        <time>2018-11-24T09:26:12Z</time>
      </trkpt>
      <trkpt lat="41.803645" lon="0.571554">
        <ele>300.165</ele>
        <time>2018-11-24T09:26:13Z</time>
      </trkpt>
      <trkpt lat="41.803852" lon="0.571527">
        <ele>300.511</ele>
        <time>2018-11-24T09:26:14Z</time>
      </trkpt>
      <trkpt lat="41.804065" lon="0.571500">
        <ele>300.808</ele>
        <time>2018-11-24T09:26:15Z</time>
      </trkpt>
      <trkpt lat="41.804283" lon="0.571473">
        <ele>301.194</ele>
        <time>2018-11-24T09:26:16Z</time>
      </trkpt>
      <trkpt lat="41.804505" lon="0.571446">
        <ele>301.321</ele>
        <time>2018-11-24T09:26:17Z</time>
      </trkpt>
      <trkpt lat="41.804724" lon="0.571418">
        <ele>301.218</ele>
        <time>2018-11-24T09:26:18Z</time>
      </trkpt>
      <trkpt lat="41.804936" lon="0.571390">
        <ele>300.848</ele>
        <time>2018-11-24T09:26:19Z</time>
      </trkpt>
      <trkpt lat="41.805129" lon="0.571364">
        <ele>299.819</ele>
        <time>2018-11-24T09:26:20Z</time>
      </trkpt>
      <trkpt lat="41.805304" lon="0.571342">
        <ele>298.878</ele>
        <time>2018-11-24T09:26:21Z</time>
      </trkpt>
      <trkpt lat="41.805458" lon="0.571324">
        <ele>297.758</ele>
        <time>2018-11-24T09:26:22Z</time>
      </trkpt>
      <trkpt lat="41.805594" lon="0.571316">
        <ele>296.883</ele>
        <time>2018-11-24T09:26:23Z</time>
      </trkpt>
      <trkpt lat="41.805726" lon="0.571314">
        <ele>296.447</ele>
        <time>2018-11-24T09:26:24Z</time>
      </trkpt>
      <trkpt lat="41.805839" lon="0.571358">
        <ele>296.129</ele>
        <time>2018-11-24T09:26:25Z</time>
      </trkpt>
      <trkpt lat="41.805936" lon="0.571427">
        <ele>295.921</ele>
        <time>2018-11-24T09:26:26Z</time>
      </trkpt>
      <trkpt lat="41.806030" lon="0.571499">
        <ele>295.708</ele>
        <time>2018-11-24T09:26:27Z</time>
      </trkpt>
      <trkpt lat="41.806124" lon="0.571504">
        <ele>295.797</ele>
        <time>2018-11-24T09:26:28Z</time>
      </trkpt>
      <trkpt lat="41.806217" lon="0.571477">
        <ele>295.814</ele>
        <time>2018-11-24T09:26:29Z</time>
      </trkpt>
      <trkpt lat="41.806303" lon="0.571407">
        <ele>296.021</ele>
        <time>2018-11-24T09:26:30Z</time>
      </trkpt>
      <trkpt lat="41.806391" lon="0.571324">
        <ele>296.191</ele>
        <time>2018-11-24T09:26:31Z</time>
      </trkpt>
      <trkpt lat="41.806474" lon="0.571239">
        <ele>296.362</ele>
        <time>2018-11-24T09:26:32Z</time>
      </trkpt>
      <trkpt lat="41.806582" lon="0.571195">
        <ele>296.431</ele>
        <time>2018-11-24T09:26:33Z</time>
      </trkpt>
      <trkpt lat="41.806708" lon="0.571178">
        <ele>296.431</ele>
        <time>2018-11-24T09:26:34Z</time>
      </trkpt>
      <trkpt lat="41.806847" lon="0.571170">
        <ele>296.616</ele>
        <time>2018-11-24T09:26:35Z</time>
      </trkpt>
      <trkpt lat="41.806983" lon="0.571165">
        <ele>296.617</ele>
        <time>2018-11-24T09:26:36Z</time>
      </trkpt>
      <trkpt lat="41.807118" lon="0.571160">
        <ele>296.787</ele>
        <time>2018-11-24T09:26:37Z</time>
      </trkpt>
      <trkpt lat="41.807253" lon="0.571154">
        <ele>296.915</ele>
        <time>2018-11-24T09:26:38Z</time>
      </trkpt>
      <trkpt lat="41.807394" lon="0.571153">
        <ele>297.108</ele>
        <time>2018-11-24T09:26:39Z</time>
      </trkpt>
      <trkpt lat="41.807543" lon="0.571151">
        <ele>297.394</ele>
        <time>2018-11-24T09:26:40Z</time>
      </trkpt>
      <trkpt lat="41.807699" lon="0.571152">
        <ele>297.851</ele>
        <time>2018-11-24T09:26:41Z</time>
      </trkpt>
      <trkpt lat="41.807864" lon="0.571161">
        <ele>298.228</ele>
        <time>2018-11-24T09:26:42Z</time>
      </trkpt>
      <trkpt lat="41.808033" lon="0.571173">
        <ele>298.498</ele>
        <time>2018-11-24T09:26:43Z</time>
      </trkpt>
      <trkpt lat="41.808198" lon="0.571191">
        <ele>298.549</ele>
        <time>2018-11-24T09:26:44Z</time>
      </trkpt>
      <trkpt lat="41.808364" lon="0.571211">
        <ele>298.768</ele>
        <time>2018-11-24T09:26:45Z</time>
      </trkpt>
      <trkpt lat="41.808533" lon="0.571236">
        <ele>299.028</ele>
        <time>2018-11-24T09:26:46Z</time>
      </trkpt>
      <trkpt lat="41.808704" lon="0.571266">
        <ele>299.143</ele>
        <time>2018-11-24T09:26:47Z</time>
      </trkpt>
      <trkpt lat="41.808878" lon="0.571301">
        <ele>299.463</ele>
        <time>2018-11-24T09:26:48Z</time>
      </trkpt>
      <trkpt lat="41.809058" lon="0.571340">
        <ele>299.844</ele>
        <time>2018-11-24T09:26:49Z</time>
      </trkpt>
      <trkpt lat="41.809241" lon="0.571381">
        <ele>300.018</ele>
        <time>2018-11-24T09:26:50Z</time>
      </trkpt>
      <trkpt lat="41.809427" lon="0.571422">
        <ele>300.208</ele>
        <time>2018-11-24T09:26:51Z</time>
      </trkpt>
      <trkpt lat="41.809617" lon="0.571460">
        <ele>300.429</ele>
        <time>2018-11-24T09:26:52Z</time>
      </trkpt>
      <trkpt lat="41.809812" lon="0.571498">
        <ele>300.816</ele>
        <time>2018-11-24T09:26:53Z</time>
      </trkpt>
      <trkpt lat="41.810014" lon="0.571539">
        <ele>301.313</ele>
        <time>2018-11-24T09:26:54Z</time>
      </trkpt>
      <trkpt lat="41.810222" lon="0.571580">
        <ele>301.763</ele>
        <time>2018-11-24T09:26:55Z</time>
      </trkpt>
      <trkpt lat="41.810435" lon="0.571620">
        <ele>302.114</ele>
        <time>2018-11-24T09:26:56Z</time>
      </trkpt>
      <trkpt lat="41.810650" lon="0.571660">
        <ele>302.273</ele>
        <time>2018-11-24T09:26:57Z</time>
      </trkpt>
      <trkpt lat="41.810864" lon="0.571698">
        <ele>302.473</ele>
        <time>2018-11-24T09:26:58Z</time>
      </trkpt>
      <trkpt lat="41.811079" lon="0.571733">
        <ele>302.478</ele>
        <time>2018-11-24T09:26:59Z</time>
      </trkpt>
      <trkpt lat="41.811294" lon="0.571768">
        <ele>302.522</ele>
        <time>2018-11-24T09:27:00Z</time>
      </trkpt>
      <trkpt lat="41.811510" lon="0.571802">
        <ele>302.462</ele>
        <time>2018-11-24T09:27:01Z</time>
      </trkpt>
      <trkpt lat="41.811726" lon="0.571833">
        <ele>302.108</ele>
        <time>2018-11-24T09:27:02Z</time>
      </trkpt>
      <trkpt lat="41.811943" lon="0.571861">
        <ele>301.508</ele>
        <time>2018-11-24T09:27:03Z</time>
      </trkpt>
      <trkpt lat="41.812160" lon="0.571889">
        <ele>301.015</ele>
        <time>2018-11-24T09:27:04Z</time>
      </trkpt>
      <trkpt lat="41.812376" lon="0.571916">
        <ele>300.412</ele>
        <time>2018-11-24T09:27:05Z</time>
      </trkpt>
      <trkpt lat="41.812593" lon="0.571939">
        <ele>299.949</ele>
        <time>2018-11-24T09:27:06Z</time>
      </trkpt>
      <trkpt lat="41.812809" lon="0.571961">
        <ele>299.369</ele>
        <time>2018-11-24T09:27:07Z</time>
      </trkpt>
      <trkpt lat="41.813026" lon="0.571983">
        <ele>298.990</ele>
        <time>2018-11-24T09:27:08Z</time>
      </trkpt>
      <trkpt lat="41.813242" lon="0.571996">
        <ele>298.629</ele>
        <time>2018-11-24T09:27:09Z</time>
      </trkpt>
      <trkpt lat="41.813458" lon="0.571995">
        <ele>298.559</ele>
        <time>2018-11-24T09:27:10Z</time>
      </trkpt>
      <trkpt lat="41.813674" lon="0.571979">
        <ele>298.544</ele>
        <time>2018-11-24T09:27:11Z</time>
      </trkpt>
      <trkpt lat="41.813889" lon="0.571947">
        <ele>298.713</ele>
        <time>2018-11-24T09:27:12Z</time>
      </trkpt>
      <trkpt lat="41.814102" lon="0.571900">
        <ele>298.943</ele>
        <time>2018-11-24T09:27:13Z</time>
      </trkpt>
      <trkpt lat="41.814312" lon="0.571837">
        <ele>299.007</ele>
        <time>2018-11-24T09:27:14Z</time>
      </trkpt>
      <trkpt lat="41.814519" lon="0.571755">
        <ele>299.208</ele>
        <time>2018-11-24T09:27:15Z</time>
      </trkpt>
      <trkpt lat="41.814722" lon="0.571655">
        <ele>299.284</ele>
        <time>2018-11-24T09:27:16Z</time>
      </trkpt>
      <trkpt lat="41.814923" lon="0.571540">
        <ele>299.211</ele>
        <time>2018-11-24T09:27:17Z</time>
      </trkpt>
      <trkpt lat="41.815120" lon="0.571417">
        <ele>299.438</ele>
        <time>2018-11-24T09:27:18Z</time>
      </trkpt>
      <trkpt lat="41.815315" lon="0.571289">
        <ele>299.438</ele>
        <time>2018-11-24T09:27:19Z</time>
      </trkpt>
      <trkpt lat="41.815509" lon="0.571159">
        <ele>299.419</ele>
        <time>2018-11-24T09:27:20Z</time>
      </trkpt>
      <trkpt lat="41.815704" lon="0.571029">
        <ele>299.468</ele>
        <time>2018-11-24T09:27:21Z</time>
      </trkpt>
      <trkpt lat="41.815898" lon="0.570897">
        <ele>299.498</ele>
        <time>2018-11-24T09:27:22Z</time>
      </trkpt>
      <trkpt lat="41.816091" lon="0.570765">
        <ele>299.763</ele>
        <time>2018-11-24T09:27:23Z</time>
      </trkpt>
      <trkpt lat="41.816283" lon="0.570631">
        <ele>299.965</ele>
        <time>2018-11-24T09:27:24Z</time>
      </trkpt>
      <trkpt lat="41.816475" lon="0.570494">
        <ele>300.268</ele>
        <time>2018-11-24T09:27:25Z</time>
      </trkpt>
      <trkpt lat="41.816665" lon="0.570353">
        <ele>300.414</ele>
        <time>2018-11-24T09:27:26Z</time>
      </trkpt>
      <trkpt lat="41.816853" lon="0.570207">
        <ele>300.608</ele>
        <time>2018-11-24T09:27:27Z</time>
      </trkpt>
      <trkpt lat="41.817042" lon="0.570063">
        <ele>300.879</ele>
        <time>2018-11-24T09:27:28Z</time>
      </trkpt>
      <trkpt lat="41.817233" lon="0.569924">
        <ele>300.916</ele>
        <time>2018-11-24T09:27:29Z</time>
      </trkpt>
      <trkpt lat="41.817428" lon="0.569798">
        <ele>301.173</ele>
        <time>2018-11-24T09:27:30Z</time>
      </trkpt>
      <trkpt lat="41.817629" lon="0.569687">
        <ele>301.333</ele>
        <time>2018-11-24T09:27:31Z</time>
      </trkpt>
      <trkpt lat="41.817834" lon="0.569591">
        <ele>301.544</ele>
        <time>2018-11-24T09:27:32Z</time>
      </trkpt>
      <trkpt lat="41.818043" lon="0.569512">
        <ele>301.693</ele>
        <time>2018-11-24T09:27:33Z</time>
      </trkpt>
      <trkpt lat="41.818255" lon="0.569448">
        <ele>301.643</ele>
        <time>2018-11-24T09:27:34Z</time>
      </trkpt>
      <trkpt lat="41.818470" lon="0.569401">
        <ele>301.668</ele>
        <time>2018-11-24T09:27:35Z</time>
      </trkpt>
      <trkpt lat="41.818687" lon="0.569372">
        <ele>301.418</ele>
        <time>2018-11-24T09:27:36Z</time>
      </trkpt>
      <trkpt lat="41.818905" lon="0.569362">
        <ele>301.398</ele>
        <time>2018-11-24T09:27:37Z</time>
      </trkpt>
      <trkpt lat="41.819121" lon="0.569353">
        <ele>301.217</ele>
        <time>2018-11-24T09:27:38Z</time>
      </trkpt>
      <trkpt lat="41.819337" lon="0.569375">
        <ele>301.108</ele>
        <time>2018-11-24T09:27:39Z</time>
      </trkpt>
      <trkpt lat="41.819553" lon="0.569413">
        <ele>300.794</ele>
        <time>2018-11-24T09:27:40Z</time>
      </trkpt>
      <trkpt lat="41.819769" lon="0.569464">
        <ele>300.381</ele>
        <time>2018-11-24T09:27:41Z</time>
      </trkpt>
      <trkpt lat="41.819984" lon="0.569510">
        <ele>299.948</ele>
        <time>2018-11-24T09:27:42Z</time>
      </trkpt>
      <trkpt lat="41.820200" lon="0.569542">
        <ele>299.368</ele>
        <time>2018-11-24T09:27:43Z</time>
      </trkpt>
      <trkpt lat="41.820417" lon="0.569568">
        <ele>299.079</ele>
        <time>2018-11-24T09:27:44Z</time>
      </trkpt>
      <trkpt lat="41.820634" lon="0.569579">
        <ele>298.738</ele>
        <time>2018-11-24T09:27:45Z</time>
      </trkpt>
      <trkpt lat="41.820853" lon="0.569571">
        <ele>298.278</ele>
        <time>2018-11-24T09:27:46Z</time>
      </trkpt>
      <trkpt lat="41.821068" lon="0.569545">
        <ele>298.083</ele>
        <time>2018-11-24T09:27:47Z</time>
      </trkpt>
      <trkpt lat="41.821273" lon="0.569501">
        <ele>297.544</ele>
        <time>2018-11-24T09:27:48Z</time>
      </trkpt>
      <trkpt lat="41.821466" lon="0.569445">
        <ele>296.905</ele>
        <time>2018-11-24T09:27:49Z</time>
      </trkpt>
      <trkpt lat="41.821635" lon="0.569379">
        <ele>296.315</ele>
        <time>2018-11-24T09:27:50Z</time>
      </trkpt>
      <trkpt lat="41.821795" lon="0.569305">
        <ele>295.908</ele>
        <time>2018-11-24T09:27:51Z</time>
      </trkpt>
      <trkpt lat="41.821946" lon="0.569231">
        <ele>295.697</ele>
        <time>2018-11-24T09:27:52Z</time>
      </trkpt>
      <trkpt lat="41.822085" lon="0.569162">
        <ele>295.374</ele>
        <time>2018-11-24T09:27:53Z</time>
      </trkpt>
      <trkpt lat="41.822211" lon="0.569098">
        <ele>295.081</ele>
        <time>2018-11-24T09:27:54Z</time>
      </trkpt>
      <trkpt lat="41.822332" lon="0.569039">
        <ele>294.881</ele>
        <time>2018-11-24T09:27:55Z</time>
      </trkpt>
      <trkpt lat="41.822445" lon="0.568992">
        <ele>294.512</ele>
        <time>2018-11-24T09:27:56Z</time>
      </trkpt>
      <trkpt lat="41.822558" lon="0.568947">
        <ele>294.351</ele>
        <time>2018-11-24T09:27:57Z</time>
      </trkpt>
      <trkpt lat="41.822664" lon="0.568906">
        <ele>294.171</ele>
        <time>2018-11-24T09:27:58Z</time>
      </trkpt>
      <trkpt lat="41.822768" lon="0.568877">
        <ele>293.836</ele>
        <time>2018-11-24T09:27:59Z</time>
      </trkpt>
      <trkpt lat="41.822867" lon="0.568852">
        <ele>293.718</ele>
        <time>2018-11-24T09:28:00Z</time>
      </trkpt>
      <trkpt lat="41.822963" lon="0.568831">
        <ele>293.798</ele>
        <time>2018-11-24T09:28:01Z</time>
      </trkpt>
      <trkpt lat="41.823064" lon="0.568816">
        <ele>294.017</ele>
        <time>2018-11-24T09:28:02Z</time>
      </trkpt>
      <trkpt lat="41.823167" lon="0.568810">
        <ele>293.708</ele>
        <time>2018-11-24T09:28:03Z</time>
      </trkpt>
      <trkpt lat="41.823265" lon="0.568809">
        <ele>293.784</ele>
        <time>2018-11-24T09:28:04Z</time>
      </trkpt>
      <trkpt lat="41.823366" lon="0.568812">
        <ele>293.911</ele>
        <time>2018-11-24T09:28:05Z</time>
      </trkpt>
      <trkpt lat="41.823474" lon="0.568817">
        <ele>293.938</ele>
        <time>2018-11-24T09:28:06Z</time>
      </trkpt>
      <trkpt lat="41.823585" lon="0.568825">
        <ele>293.968</ele>
        <time>2018-11-24T09:28:07Z</time>
      </trkpt>
      <trkpt lat="41.823698" lon="0.568831">
        <ele>294.059</ele>
        <time>2018-11-24T09:28:08Z</time>
      </trkpt>
      <trkpt lat="41.823807" lon="0.568838">
        <ele>294.148</ele>
        <time>2018-11-24T09:28:09Z</time>
      </trkpt>
      <trkpt lat="41.823918" lon="0.568845">
        <ele>294.258</ele>
        <time>2018-11-24T09:28:10Z</time>
      </trkpt>
      <trkpt lat="41.824030" lon="0.568853">
        <ele>294.323</ele>
        <time>2018-11-24T09:28:11Z</time>
      </trkpt>
      <trkpt lat="41.824141" lon="0.568858">
        <ele>294.443</ele>
        <time>2018-11-24T09:28:12Z</time>
      </trkpt>
      <trkpt lat="41.824254" lon="0.568862">
        <ele>294.464</ele>
        <time>2018-11-24T09:28:13Z</time>
      </trkpt>
      <trkpt lat="41.824367" lon="0.568864">
        <ele>294.510</ele>
        <time>2018-11-24T09:28:14Z</time>
      </trkpt>
      <trkpt lat="41.824481" lon="0.568862">
        <ele>294.508</ele>
        <time>2018-11-24T09:28:15Z</time>
      </trkpt>
      <trkpt lat="41.824596" lon="0.568860">
        <ele>294.567</ele>
        <time>2018-11-24T09:28:16Z</time>
      </trkpt>
      <trkpt lat="41.824711" lon="0.568858">
        <ele>294.544</ele>
        <time>2018-11-24T09:28:17Z</time>
      </trkpt>
      <trkpt lat="41.824827" lon="0.568856">
        <ele>294.411</ele>
        <time>2018-11-24T09:28:18Z</time>
      </trkpt>
      <trkpt lat="41.824944" lon="0.568858">
        <ele>294.491</ele>
        <time>2018-11-24T09:28:19Z</time>
      </trkpt>
      <trkpt lat="41.825059" lon="0.568865">
        <ele>294.472</ele>
        <time>2018-11-24T09:28:20Z</time>
      </trkpt>
      <trkpt lat="41.825173" lon="0.568875">
        <ele>294.441</ele>
        <time>2018-11-24T09:28:21Z</time>
      </trkpt>
      <trkpt lat="41.825287" lon="0.568890">
        <ele>294.471</ele>
        <time>2018-11-24T09:28:22Z</time>
      </trkpt>
      <trkpt lat="41.825401" lon="0.568908">
        <ele>294.336</ele>
        <time>2018-11-24T09:28:23Z</time>
      </trkpt>
      <trkpt lat="41.825515" lon="0.568931">
        <ele>294.392</ele>
        <time>2018-11-24T09:28:24Z</time>
      </trkpt>
      <trkpt lat="41.825625" lon="0.568964">
        <ele>294.473</ele>
        <time>2018-11-24T09:28:25Z</time>
      </trkpt>
      <trkpt lat="41.825739" lon="0.568996">
        <ele>294.320</ele>
        <time>2018-11-24T09:28:26Z</time>
      </trkpt>
      <trkpt lat="41.825846" lon="0.569030">
        <ele>294.408</ele>
        <time>2018-11-24T09:28:27Z</time>
      </trkpt>
      <trkpt lat="41.825955" lon="0.569061">
        <ele>294.542</ele>
        <time>2018-11-24T09:28:28Z</time>
      </trkpt>
      <trkpt lat="41.826071" lon="0.569093">
        <ele>294.659</ele>
        <time>2018-11-24T09:28:29Z</time>
      </trkpt>
      <trkpt lat="41.826182" lon="0.569123">
        <ele>294.696</ele>
        <time>2018-11-24T09:28:30Z</time>
      </trkpt>
      <trkpt lat="41.826297" lon="0.569153">
        <ele>294.736</ele>
        <time>2018-11-24T09:28:31Z</time>
      </trkpt>
      <trkpt lat="41.826407" lon="0.569195">
        <ele>294.897</ele>
        <time>2018-11-24T09:28:32Z</time>
      </trkpt>
      <trkpt lat="41.826525" lon="0.569218">
        <ele>295.066</ele>
        <time>2018-11-24T09:28:33Z</time>
      </trkpt>
      <trkpt lat="41.826642" lon="0.569248">
        <ele>295.086</ele>
        <time>2018-11-24T09:28:34Z</time>
      </trkpt>
      <trkpt lat="41.826761" lon="0.569274">
        <ele>295.091</ele>
        <time>2018-11-24T09:28:35Z</time>
      </trkpt>
      <trkpt lat="41.826879" lon="0.569295">
        <ele>295.191</ele>
        <time>2018-11-24T09:28:36Z</time>
      </trkpt>
      <trkpt lat="41.826994" lon="0.569313">
        <ele>295.281</ele>
        <time>2018-11-24T09:28:37Z</time>
      </trkpt>
      <trkpt lat="41.827113" lon="0.569318">
        <ele>295.319</ele>
        <time>2018-11-24T09:28:38Z</time>
      </trkpt>
      <trkpt lat="41.827239" lon="0.569315">
        <ele>295.308</ele>
        <time>2018-11-24T09:28:39Z</time>
      </trkpt>
      <trkpt lat="41.827359" lon="0.569310">
        <ele>295.462</ele>
        <time>2018-11-24T09:28:40Z</time>
      </trkpt>
      <trkpt lat="41.827477" lon="0.569313">
        <ele>295.419</ele>
        <time>2018-11-24T09:28:41Z</time>
      </trkpt>
      <trkpt lat="41.827594" lon="0.569301">
        <ele>295.436</ele>
        <time>2018-11-24T09:28:42Z</time>
      </trkpt>
      <trkpt lat="41.827708" lon="0.569287">
        <ele>295.416</ele>
        <time>2018-11-24T09:28:43Z</time>
      </trkpt>
      <trkpt lat="41.827820" lon="0.569268">
        <ele>295.547</ele>
        <time>2018-11-24T09:28:44Z</time>
      </trkpt>
      <trkpt lat="41.827935" lon="0.569255">
        <ele>295.766</ele>
        <time>2018-11-24T09:28:45Z</time>
      </trkpt>
      <trkpt lat="41.828050" lon="0.569231">
        <ele>295.786</ele>
        <time>2018-11-24T09:28:46Z</time>
      </trkpt>
      <trkpt lat="41.828165" lon="0.569203">
        <ele>295.781</ele>
        <time>2018-11-24T09:28:47Z</time>
      </trkpt>
      <trkpt lat="41.828282" lon="0.569174">
        <ele>295.916</ele>
        <time>2018-11-24T09:28:48Z</time>
      </trkpt>
      <trkpt lat="41.828399" lon="0.569141">
        <ele>296.076</ele>
        <time>2018-11-24T09:28:49Z</time>
      </trkpt>
      <trkpt lat="41.828514" lon="0.569110">
        <ele>296.013</ele>
        <time>2018-11-24T09:28:50Z</time>
      </trkpt>
      <trkpt lat="41.828628" lon="0.569079">
        <ele>296.008</ele>
        <time>2018-11-24T09:28:51Z</time>
      </trkpt>
      <trkpt lat="41.828742" lon="0.569050">
        <ele>296.054</ele>
        <time>2018-11-24T09:28:52Z</time>
      </trkpt>
      <trkpt lat="41.828853" lon="0.569021">
        <ele>296.131</ele>
        <time>2018-11-24T09:28:53Z</time>
      </trkpt>
      <trkpt lat="41.828965" lon="0.568991">
        <ele>296.348</ele>
        <time>2018-11-24T09:28:54Z</time>
      </trkpt>
      <trkpt lat="41.829078" lon="0.568966">
        <ele>296.548</ele>
        <time>2018-11-24T09:28:55Z</time>
      </trkpt>
      <trkpt lat="41.829188" lon="0.568938">
        <ele>296.689</ele>
        <time>2018-11-24T09:28:56Z</time>
      </trkpt>
      <trkpt lat="41.829297" lon="0.568912">
        <ele>296.768</ele>
        <time>2018-11-24T09:28:57Z</time>
      </trkpt>
      <trkpt lat="41.829406" lon="0.568886">
        <ele>297.068</ele>
        <time>2018-11-24T09:28:58Z</time>
      </trkpt>
      <trkpt lat="41.829515" lon="0.568860">
        <ele>297.253</ele>
        <time>2018-11-24T09:28:59Z</time>
      </trkpt>
      <trkpt lat="41.829624" lon="0.568834">
        <ele>297.388</ele>
        <time>2018-11-24T09:29:00Z</time>
      </trkpt>
      <trkpt lat="41.829732" lon="0.568805">
        <ele>297.524</ele>
        <time>2018-11-24T09:29:01Z</time>
      </trkpt>
      <trkpt lat="41.829838" lon="0.568777">
        <ele>297.726</ele>
        <time>2018-11-24T09:29:02Z</time>
      </trkpt>
      <trkpt lat="41.829940" lon="0.568750">
        <ele>298.008</ele>
        <time>2018-11-24T09:29:03Z</time>
      </trkpt>
      <trkpt lat="41.830036" lon="0.568724">
        <ele>298.171</ele>
        <time>2018-11-24T09:29:04Z</time>
      </trkpt>
      <trkpt lat="41.830126" lon="0.568701">
        <ele>298.148</ele>
        <time>2018-11-24T09:29:05Z</time>
      </trkpt>
      <trkpt lat="41.830210" lon="0.568681">
        <ele>298.315</ele>
        <time>2018-11-24T09:29:06Z</time>
      </trkpt>
      <trkpt lat="41.830288" lon="0.568666">
        <ele>298.415</ele>
        <time>2018-11-24T09:29:07Z</time>
      </trkpt>
      <trkpt lat="41.830358" lon="0.568662">
        <ele>298.466</ele>
        <time>2018-11-24T09:29:08Z</time>
      </trkpt>
      <trkpt lat="41.830413" lon="0.568664">
        <ele>298.545</ele>
        <time>2018-11-24T09:29:09Z</time>
      </trkpt>
      <trkpt lat="41.830536" lon="0.568716">
        <ele>298.835</ele>
        <time>2018-11-24T09:29:16Z</time>
      </trkpt>
      <trkpt lat="41.830584" lon="0.568746">
        <ele>298.960</ele>
        <time>2018-11-24T09:29:17Z</time>
      </trkpt>
      <trkpt lat="41.830634" lon="0.568765">
        <ele>298.753</ele>
        <time>2018-11-24T09:29:18Z</time>
      </trkpt>
      <trkpt lat="41.830684" lon="0.568781">
        <ele>298.704</ele>
        <time>2018-11-24T09:29:19Z</time>
      </trkpt>
      <trkpt lat="41.830748" lon="0.568776">
        <ele>298.814</ele>
        <time>2018-11-24T09:29:20Z</time>
      </trkpt>
      <trkpt lat="41.830817" lon="0.568751">
        <ele>299.008</ele>
        <time>2018-11-24T09:29:21Z</time>
      </trkpt>
      <trkpt lat="41.830895" lon="0.568723">
        <ele>299.548</ele>
        <time>2018-11-24T09:29:22Z</time>
      </trkpt>
      <trkpt lat="41.830985" lon="0.568702">
        <ele>299.915</ele>
        <time>2018-11-24T09:29:23Z</time>
      </trkpt>
      <trkpt lat="41.831074" lon="0.568697">
        <ele>300.052</ele>
        <time>2018-11-24T09:29:24Z</time>
      </trkpt>
      <trkpt lat="41.831164" lon="0.568696">
        <ele>300.132</ele>
        <time>2018-11-24T09:29:25Z</time>
      </trkpt>
      <trkpt lat="41.831263" lon="0.568699">
        <ele>300.583</ele>
        <time>2018-11-24T09:29:26Z</time>
      </trkpt>
      <trkpt lat="41.831378" lon="0.568720">
        <ele>300.822</ele>
        <time>2018-11-24T09:29:27Z</time>
      </trkpt>
      <trkpt lat="41.831504" lon="0.568739">
        <ele>301.092</ele>
        <time>2018-11-24T09:29:28Z</time>
      </trkpt>
      <trkpt lat="41.831636" lon="0.568754">
        <ele>301.317</ele>
        <time>2018-11-24T09:29:29Z</time>
      </trkpt>
      <trkpt lat="41.831765" lon="0.568771">
        <ele>301.314</ele>
        <time>2018-11-24T09:29:30Z</time>
      </trkpt>
      <trkpt lat="41.831890" lon="0.568775">
        <ele>301.554</ele>
        <time>2018-11-24T09:29:31Z</time>
      </trkpt>
      <trkpt lat="41.832026" lon="0.568788">
        <ele>301.809</ele>
        <time>2018-11-24T09:29:32Z</time>
      </trkpt>
      <trkpt lat="41.832174" lon="0.568816">
        <ele>302.008</ele>
        <time>2018-11-24T09:29:33Z</time>
      </trkpt>
      <trkpt lat="41.832327" lon="0.568834">
        <ele>302.234</ele>
        <time>2018-11-24T09:29:34Z</time>
      </trkpt>
      <trkpt lat="41.832488" lon="0.568857">
        <ele>302.491</ele>
        <time>2018-11-24T09:29:35Z</time>
      </trkpt>
      <trkpt lat="41.832653" lon="0.568880">
        <ele>302.718</ele>
        <time>2018-11-24T09:29:36Z</time>
      </trkpt>
      <trkpt lat="41.832822" lon="0.568903">
        <ele>302.758</ele>
        <time>2018-11-24T09:29:37Z</time>
      </trkpt>
      <trkpt lat="41.832990" lon="0.568910">
        <ele>302.849</ele>
        <time>2018-11-24T09:29:38Z</time>
      </trkpt>
      <trkpt lat="41.833149" lon="0.568939">
        <ele>302.898</ele>
        <time>2018-11-24T09:29:39Z</time>
      </trkpt>
      <trkpt lat="41.833309" lon="0.568958">
        <ele>303.138</ele>
        <time>2018-11-24T09:29:40Z</time>
      </trkpt>
      <trkpt lat="41.833474" lon="0.568963">
        <ele>303.313</ele>
        <time>2018-11-24T09:29:41Z</time>
      </trkpt>
      <trkpt lat="41.833638" lon="0.568956">
        <ele>303.785</ele>
        <time>2018-11-24T09:29:42Z</time>
      </trkpt>
      <trkpt lat="41.833805" lon="0.568931">
        <ele>303.989</ele>
        <time>2018-11-24T09:29:43Z</time>
      </trkpt>
      <trkpt lat="41.833969" lon="0.568900">
        <ele>304.117</ele>
        <time>2018-11-24T09:29:44Z</time>
      </trkpt>
      <trkpt lat="41.834131" lon="0.568818">
        <ele>304.308</ele>
        <time>2018-11-24T09:29:45Z</time>
      </trkpt>
      <trkpt lat="41.834286" lon="0.568725">
        <ele>304.431</ele>
        <time>2018-11-24T09:29:46Z</time>
      </trkpt>
      <trkpt lat="41.834433" lon="0.568622">
        <ele>304.458</ele>
        <time>2018-11-24T09:29:47Z</time>
      </trkpt>
      <trkpt lat="41.834574" lon="0.568505">
        <ele>304.445</ele>
        <time>2018-11-24T09:29:48Z</time>
      </trkpt>
      <trkpt lat="41.834714" lon="0.568385">
        <ele>304.255</ele>
        <time>2018-11-24T09:29:49Z</time>
      </trkpt>
      <trkpt lat="41.834850" lon="0.568249">
        <ele>304.156</ele>
        <time>2018-11-24T09:29:50Z</time>
      </trkpt>
      <trkpt lat="41.834981" lon="0.568112">
        <ele>304.035</ele>
        <time>2018-11-24T09:29:51Z</time>
      </trkpt>
      <trkpt lat="41.835117" lon="0.567981">
        <ele>304.075</ele>
        <time>2018-11-24T09:29:52Z</time>
      </trkpt>
      <trkpt lat="41.835256" lon="0.567865">
        <ele>303.910</ele>
        <time>2018-11-24T09:29:53Z</time>
      </trkpt>
      <trkpt lat="41.835395" lon="0.567767">
        <ele>303.863</ele>
        <time>2018-11-24T09:29:54Z</time>
      </trkpt>
      <trkpt lat="41.835550" lon="0.567690">
        <ele>303.744</ele>
        <time>2018-11-24T09:29:55Z</time>
      </trkpt>
      <trkpt lat="41.835714" lon="0.567638">
        <ele>303.818</ele>
        <time>2018-11-24T09:29:56Z</time>
      </trkpt>
      <trkpt lat="41.835873" lon="0.567608">
        <ele>303.908</ele>
        <time>2018-11-24T09:29:57Z</time>
      </trkpt>
      <trkpt lat="41.836033" lon="0.567606">
        <ele>303.989</ele>
        <time>2018-11-24T09:29:58Z</time>
      </trkpt>
      <trkpt lat="41.836197" lon="0.567636">
        <ele>303.976</ele>
        <time>2018-11-24T09:29:59Z</time>
      </trkpt>
      <trkpt lat="41.836362" lon="0.567690">
        <ele>304.023</ele>
        <time>2018-11-24T09:30:00Z</time>
      </trkpt>
      <trkpt lat="41.836529" lon="0.567766">
        <ele>304.113</ele>
        <time>2018-11-24T09:30:01Z</time>
      </trkpt>
      <trkpt lat="41.836696" lon="0.567858">
        <ele>304.424</ele>
        <time>2018-11-24T09:30:02Z</time>
      </trkpt>
      <trkpt lat="41.836867" lon="0.567959">
        <ele>304.663</ele>
        <time>2018-11-24T09:30:03Z</time>
      </trkpt>
      <trkpt lat="41.837044" lon="0.568066">
        <ele>304.643</ele>
        <time>2018-11-24T09:30:04Z</time>
      </trkpt>
      <trkpt lat="41.837225" lon="0.568175">
        <ele>304.888</ele>
        <time>2018-11-24T09:30:05Z</time>
      </trkpt>
      <trkpt lat="41.837411" lon="0.568285">
        <ele>305.135</ele>
        <time>2018-11-24T09:30:06Z</time>
      </trkpt>
      <trkpt lat="41.837601" lon="0.568400">
        <ele>305.386</ele>
        <time>2018-11-24T09:30:07Z</time>
      </trkpt>
      <trkpt lat="41.837792" lon="0.568515">
        <ele>305.414</ele>
        <time>2018-11-24T09:30:08Z</time>
      </trkpt>
      <trkpt lat="41.837983" lon="0.568628">
        <ele>305.608</ele>
        <time>2018-11-24T09:30:09Z</time>
      </trkpt>
      <trkpt lat="41.838174" lon="0.568742">
        <ele>305.836</ele>
        <time>2018-11-24T09:30:10Z</time>
      </trkpt>
      <trkpt lat="41.838371" lon="0.568859">
        <ele>306.073</ele>
        <time>2018-11-24T09:30:11Z</time>
      </trkpt>
      <trkpt lat="41.838571" lon="0.568979">
        <ele>306.210</ele>
        <time>2018-11-24T09:30:12Z</time>
      </trkpt>
      <trkpt lat="41.838767" lon="0.569094">
        <ele>306.470</ele>
        <time>2018-11-24T09:30:13Z</time>
      </trkpt>
      <trkpt lat="41.838960" lon="0.569208">
        <ele>306.421</ele>
        <time>2018-11-24T09:30:14Z</time>
      </trkpt>
      <trkpt lat="41.839144" lon="0.569316">
        <ele>306.260</ele>
        <time>2018-11-24T09:30:15Z</time>
      </trkpt>
      <trkpt lat="41.839317" lon="0.569419">
        <ele>306.140</ele>
        <time>2018-11-24T09:30:16Z</time>
      </trkpt>
      <trkpt lat="41.839478" lon="0.569517">
        <ele>305.925</ele>
        <time>2018-11-24T09:30:17Z</time>
      </trkpt>
      <trkpt lat="41.839629" lon="0.569610">
        <ele>305.894</ele>
        <time>2018-11-24T09:30:18Z</time>
      </trkpt>
      <trkpt lat="41.839772" lon="0.569696">
        <ele>305.657</ele>
        <time>2018-11-24T09:30:19Z</time>
      </trkpt>
      <trkpt lat="41.839904" lon="0.569771">
        <ele>305.522</ele>
        <time>2018-11-24T09:30:20Z</time>
      </trkpt>
      <trkpt lat="41.840018" lon="0.569845">
        <ele>305.208</ele>
        <time>2018-11-24T09:30:21Z</time>
      </trkpt>
      <trkpt lat="41.840117" lon="0.569912">
        <ele>304.962</ele>
        <time>2018-11-24T09:30:22Z</time>
      </trkpt>
      <trkpt lat="41.840209" lon="0.569973">
        <ele>304.629</ele>
        <time>2018-11-24T09:30:23Z</time>
      </trkpt>
      <trkpt lat="41.840288" lon="0.570052">
        <ele>304.666</ele>
        <time>2018-11-24T09:30:24Z</time>
      </trkpt>
      <trkpt lat="41.840351" lon="0.570141">
        <ele>304.436</ele>
        <time>2018-11-24T09:30:25Z</time>
      </trkpt>
      <trkpt lat="41.840404" lon="0.570236">
        <ele>304.367</ele>
        <time>2018-11-24T09:30:26Z</time>
      </trkpt>
      <trkpt lat="41.840456" lon="0.570321">
        <ele>304.166</ele>
        <time>2018-11-24T09:30:27Z</time>
      </trkpt>
      <trkpt lat="41.840528" lon="0.570373">
        <ele>304.136</ele>
        <time>2018-11-24T09:30:28Z</time>
      </trkpt>
      <trkpt lat="41.840614" lon="0.570378">
        <ele>304.121</ele>
        <time>2018-11-24T09:30:29Z</time>
      </trkpt>
      <trkpt lat="41.840701" lon="0.570358">
        <ele>304.288</ele>
        <time>2018-11-24T09:30:30Z</time>
      </trkpt>
      <trkpt lat="41.840788" lon="0.570355">
        <ele>304.324</ele>
        <time>2018-11-24T09:30:31Z</time>
      </trkpt>
      <trkpt lat="41.840886" lon="0.570380">
        <ele>304.426</ele>
        <time>2018-11-24T09:30:32Z</time>
      </trkpt>
      <trkpt lat="41.840990" lon="0.570435">
        <ele>304.508</ele>
        <time>2018-11-24T09:30:33Z</time>
      </trkpt>
      <trkpt lat="41.841108" lon="0.570503">
        <ele>304.791</ele>
        <time>2018-11-24T09:30:34Z</time>
      </trkpt>
      <trkpt lat="41.841237" lon="0.570577">
        <ele>304.788</ele>
        <time>2018-11-24T09:30:35Z</time>
      </trkpt>
      <trkpt lat="41.841372" lon="0.570657">
        <ele>304.495</ele>
        <time>2018-11-24T09:30:36Z</time>
      </trkpt>
      <trkpt lat="41.841508" lon="0.570737">
        <ele>304.085</ele>
        <time>2018-11-24T09:30:37Z</time>
      </trkpt>
      <trkpt lat="41.841652" lon="0.570809">
        <ele>303.786</ele>
        <time>2018-11-24T09:30:38Z</time>
      </trkpt>
      <trkpt lat="41.841801" lon="0.570891">
        <ele>303.695</ele>
        <time>2018-11-24T09:30:39Z</time>
      </trkpt>
      <trkpt lat="41.841959" lon="0.570977">
        <ele>303.815</ele>
        <time>2018-11-24T09:30:40Z</time>
      </trkpt>
      <trkpt lat="41.842127" lon="0.571063">
        <ele>303.850</ele>
        <time>2018-11-24T09:30:41Z</time>
      </trkpt>
      <trkpt lat="41.842305" lon="0.571132">
        <ele>303.767</ele>
        <time>2018-11-24T09:30:42Z</time>
      </trkpt>
      <trkpt lat="41.842496" lon="0.571189">
        <ele>303.781</ele>
        <time>2018-11-24T09:30:43Z</time>
      </trkpt>
      <trkpt lat="41.842697" lon="0.571227">
        <ele>303.819</ele>
        <time>2018-11-24T09:30:44Z</time>
      </trkpt>
      <trkpt lat="41.842903" lon="0.571264">
        <ele>303.708</ele>
        <time>2018-11-24T09:30:45Z</time>
      </trkpt>
      <trkpt lat="41.843108" lon="0.571281">
        <ele>303.489</ele>
        <time>2018-11-24T09:30:46Z</time>
      </trkpt>
      <trkpt lat="41.843312" lon="0.571312">
        <ele>303.336</ele>
        <time>2018-11-24T09:30:47Z</time>
      </trkpt>
      <trkpt lat="41.843513" lon="0.571342">
        <ele>303.133</ele>
        <time>2018-11-24T09:30:48Z</time>
      </trkpt>
      <trkpt lat="41.843721" lon="0.571375">
        <ele>303.123</ele>
        <time>2018-11-24T09:30:49Z</time>
      </trkpt>
      <trkpt lat="41.843930" lon="0.571418">
        <ele>303.374</ele>
        <time>2018-11-24T09:30:50Z</time>
      </trkpt>
      <trkpt lat="41.844141" lon="0.571473">
        <ele>303.393</ele>
        <time>2018-11-24T09:30:51Z</time>
      </trkpt>
      <trkpt lat="41.844355" lon="0.571533">
        <ele>303.423</ele>
        <time>2018-11-24T09:30:52Z</time>
      </trkpt>
      <trkpt lat="41.844569" lon="0.571591">
        <ele>303.398</ele>
        <time>2018-11-24T09:30:53Z</time>
      </trkpt>
      <trkpt lat="41.844780" lon="0.571646">
        <ele>303.352</ele>
        <time>2018-11-24T09:30:54Z</time>
      </trkpt>
      <trkpt lat="41.844987" lon="0.571700">
        <ele>303.453</ele>
        <time>2018-11-24T09:30:55Z</time>
      </trkpt>
      <trkpt lat="41.845193" lon="0.571755">
        <ele>303.408</ele>
        <time>2018-11-24T09:30:56Z</time>
      </trkpt>
      <trkpt lat="41.845399" lon="0.571811">
        <ele>303.808</ele>
        <time>2018-11-24T09:30:57Z</time>
      </trkpt>
      <trkpt lat="41.845607" lon="0.571865">
        <ele>304.168</ele>
        <time>2018-11-24T09:30:58Z</time>
      </trkpt>
      <trkpt lat="41.845818" lon="0.571917">
        <ele>304.495</ele>
        <time>2018-11-24T09:30:59Z</time>
      </trkpt>
      <trkpt lat="41.846032" lon="0.571968">
        <ele>304.822</ele>
        <time>2018-11-24T09:31:00Z</time>
      </trkpt>
      <trkpt lat="41.846246" lon="0.572017">
        <ele>305.012</ele>
        <time>2018-11-24T09:31:01Z</time>
      </trkpt>
      <trkpt lat="41.846461" lon="0.572059">
        <ele>305.323</ele>
        <time>2018-11-24T09:31:02Z</time>
      </trkpt>
      <trkpt lat="41.846676" lon="0.572095">
        <ele>305.672</ele>
        <time>2018-11-24T09:31:03Z</time>
      </trkpt>
      <trkpt lat="41.846891" lon="0.572129">
        <ele>305.652</ele>
        <time>2018-11-24T09:31:04Z</time>
      </trkpt>
      <trkpt lat="41.847106" lon="0.572163">
        <ele>305.887</ele>
        <time>2018-11-24T09:31:05Z</time>
      </trkpt>
      <trkpt lat="41.847320" lon="0.572195">
        <ele>305.948</ele>
        <time>2018-11-24T09:31:06Z</time>
      </trkpt>
      <trkpt lat="41.847534" lon="0.572225">
        <ele>306.161</ele>
        <time>2018-11-24T09:31:07Z</time>
      </trkpt>
      <trkpt lat="41.847749" lon="0.572256">
        <ele>306.217</ele>
        <time>2018-11-24T09:31:08Z</time>
      </trkpt>
      <trkpt lat="41.847963" lon="0.572288">
        <ele>306.108</ele>
        <time>2018-11-24T09:31:09Z</time>
      </trkpt>
      <trkpt lat="41.848179" lon="0.572318">
        <ele>306.147</ele>
        <time>2018-11-24T09:31:10Z</time>
      </trkpt>
      <trkpt lat="41.848394" lon="0.572348">
        <ele>306.164</ele>
        <time>2018-11-24T09:31:11Z</time>
      </trkpt>
      <trkpt lat="41.848608" lon="0.572376">
        <ele>306.271</ele>
        <time>2018-11-24T09:31:12Z</time>
      </trkpt>
      <trkpt lat="41.848822" lon="0.572404">
        <ele>306.341</ele>
        <time>2018-11-24T09:31:13Z</time>
      </trkpt>
      <trkpt lat="41.849036" lon="0.572433">
        <ele>306.442</ele>
        <time>2018-11-24T09:31:14Z</time>
      </trkpt>
      <trkpt lat="41.849250" lon="0.572463">
        <ele>306.311</ele>
        <time>2018-11-24T09:31:15Z</time>
      </trkpt>
      <trkpt lat="41.849464" lon="0.572493">
        <ele>306.481</ele>
        <time>2018-11-24T09:31:16Z</time>
      </trkpt>
      <trkpt lat="41.849677" lon="0.572523">
        <ele>306.576</ele>
        <time>2018-11-24T09:31:17Z</time>
      </trkpt>
      <trkpt lat="41.849891" lon="0.572553">
        <ele>306.778</ele>
        <time>2018-11-24T09:31:18Z</time>
      </trkpt>
      <trkpt lat="41.850105" lon="0.572584">
        <ele>306.833</ele>
        <time>2018-11-24T09:31:19Z</time>
      </trkpt>
      <trkpt lat="41.850319" lon="0.572616">
        <ele>307.026</ele>
        <time>2018-11-24T09:31:20Z</time>
      </trkpt>
      <trkpt lat="41.850533" lon="0.572646">
        <ele>307.108</ele>
        <time>2018-11-24T09:31:21Z</time>
      </trkpt>
      <trkpt lat="41.850747" lon="0.572676">
        <ele>307.390</ele>
        <time>2018-11-24T09:31:22Z</time>
      </trkpt>
      <trkpt lat="41.850961" lon="0.572706">
        <ele>307.427</ele>
        <time>2018-11-24T09:31:23Z</time>
      </trkpt>
      <trkpt lat="41.851175" lon="0.572736">
        <ele>307.624</ele>
        <time>2018-11-24T09:31:24Z</time>
      </trkpt>
      <trkpt lat="41.851389" lon="0.572764">
        <ele>307.744</ele>
        <time>2018-11-24T09:31:25Z</time>
      </trkpt>
      <trkpt lat="41.851604" lon="0.572778">
        <ele>307.725</ele>
        <time>2018-11-24T09:31:26Z</time>
      </trkpt>
      <trkpt lat="41.851824" lon="0.572780">
        <ele>307.964</ele>
        <time>2018-11-24T09:31:27Z</time>
      </trkpt>
      <trkpt lat="41.852047" lon="0.572743">
        <ele>308.274</ele>
        <time>2018-11-24T09:31:28Z</time>
      </trkpt>
      <trkpt lat="41.852272" lon="0.572671">
        <ele>309.199</ele>
        <time>2018-11-24T09:31:29Z</time>
      </trkpt>
      <trkpt lat="41.852497" lon="0.572598">
        <ele>309.881</ele>
        <time>2018-11-24T09:31:30Z</time>
      </trkpt>
      <trkpt lat="41.852719" lon="0.572507">
        <ele>310.061</ele>
        <time>2018-11-24T09:31:31Z</time>
      </trkpt>
      <trkpt lat="41.852945" lon="0.572410">
        <ele>309.817</ele>
        <time>2018-11-24T09:31:32Z</time>
      </trkpt>
      <trkpt lat="41.853172" lon="0.572315">
        <ele>309.908</ele>
        <time>2018-11-24T09:31:33Z</time>
      </trkpt>
      <trkpt lat="41.853402" lon="0.572216">
        <ele>310.161</ele>
        <time>2018-11-24T09:31:34Z</time>
      </trkpt>
      <trkpt lat="41.853632" lon="0.572123">
        <ele>311.188</ele>
        <time>2018-11-24T09:31:35Z</time>
      </trkpt>
      <trkpt lat="41.853861" lon="0.572023">
        <ele>311.155</ele>
        <time>2018-11-24T09:31:36Z</time>
      </trkpt>
      <trkpt lat="41.854091" lon="0.571924">
        <ele>311.295</ele>
        <time>2018-11-24T09:31:37Z</time>
      </trkpt>
      <trkpt lat="41.854321" lon="0.571830">
        <ele>311.396</ele>
        <time>2018-11-24T09:31:38Z</time>
      </trkpt>
      <trkpt lat="41.854554" lon="0.571748">
        <ele>311.645</ele>
        <time>2018-11-24T09:31:39Z</time>
      </trkpt>
      <trkpt lat="41.854790" lon="0.571676">
        <ele>311.835</ele>
        <time>2018-11-24T09:31:40Z</time>
      </trkpt>
      <trkpt lat="41.855026" lon="0.571615">
        <ele>312.010</ele>
        <time>2018-11-24T09:31:41Z</time>
      </trkpt>
      <trkpt lat="41.855266" lon="0.571565">
        <ele>312.247</ele>
        <time>2018-11-24T09:31:42Z</time>
      </trkpt>
      <trkpt lat="41.855512" lon="0.571534">
        <ele>312.629</ele>
        <time>2018-11-24T09:31:43Z</time>
      </trkpt>
      <trkpt lat="41.855751" lon="0.571512">
        <ele>313.021</ele>
        <time>2018-11-24T09:31:44Z</time>
      </trkpt>
      <trkpt lat="41.855994" lon="0.571496">
        <ele>313.308</ele>
        <time>2018-11-24T09:31:45Z</time>
      </trkpt>
      <trkpt lat="41.856237" lon="0.571492">
        <ele>313.757</ele>
        <time>2018-11-24T09:31:46Z</time>
      </trkpt>
      <trkpt lat="41.856478" lon="0.571487">
        <ele>313.954</ele>
        <time>2018-11-24T09:31:47Z</time>
      </trkpt>
      <trkpt lat="41.856720" lon="0.571480">
        <ele>314.371</ele>
        <time>2018-11-24T09:31:48Z</time>
      </trkpt>
      <trkpt lat="41.856961" lon="0.571480">
        <ele>314.691</ele>
        <time>2018-11-24T09:31:49Z</time>
      </trkpt>
      <trkpt lat="41.857201" lon="0.571467">
        <ele>314.912</ele>
        <time>2018-11-24T09:31:50Z</time>
      </trkpt>
      <trkpt lat="41.857448" lon="0.571459">
        <ele>315.481</ele>
        <time>2018-11-24T09:31:51Z</time>
      </trkpt>
      <trkpt lat="41.857693" lon="0.571443">
        <ele>315.861</ele>
        <time>2018-11-24T09:31:52Z</time>
      </trkpt>
      <trkpt lat="41.857934" lon="0.571424">
        <ele>316.156</ele>
        <time>2018-11-24T09:31:53Z</time>
      </trkpt>
      <trkpt lat="41.858174" lon="0.571385">
        <ele>316.648</ele>
        <time>2018-11-24T09:31:54Z</time>
      </trkpt>
      <trkpt lat="41.858413" lon="0.571323">
        <ele>317.061</ele>
        <time>2018-11-24T09:31:55Z</time>
      </trkpt>
      <trkpt lat="41.858650" lon="0.571248">
        <ele>317.317</ele>
        <time>2018-11-24T09:31:56Z</time>
      </trkpt>
      <trkpt lat="41.858883" lon="0.571154">
        <ele>317.608</ele>
        <time>2018-11-24T09:31:57Z</time>
      </trkpt>
      <trkpt lat="41.859113" lon="0.571039">
        <ele>317.937</ele>
        <time>2018-11-24T09:31:58Z</time>
      </trkpt>
      <trkpt lat="41.859335" lon="0.570907">
        <ele>318.214</ele>
        <time>2018-11-24T09:31:59Z</time>
      </trkpt>
      <trkpt lat="41.859550" lon="0.570758">
        <ele>318.661</ele>
        <time>2018-11-24T09:32:00Z</time>
      </trkpt>
      <trkpt lat="41.859758" lon="0.570591">
        <ele>319.161</ele>
        <time>2018-11-24T09:32:01Z</time>
      </trkpt>
      <trkpt lat="41.859957" lon="0.570400">
        <ele>319.432</ele>
        <time>2018-11-24T09:32:02Z</time>
      </trkpt>
      <trkpt lat="41.860145" lon="0.570193">
        <ele>319.831</ele>
        <time>2018-11-24T09:32:03Z</time>
      </trkpt>
      <trkpt lat="41.860322" lon="0.569970">
        <ele>319.981</ele>
        <time>2018-11-24T09:32:04Z</time>
      </trkpt>
      <trkpt lat="41.860490" lon="0.569733">
        <ele>320.176</ele>
        <time>2018-11-24T09:32:05Z</time>
      </trkpt>
      <trkpt lat="41.860650" lon="0.569487">
        <ele>320.251</ele>
        <time>2018-11-24T09:32:06Z</time>
      </trkpt>
      <trkpt lat="41.860806" lon="0.569236">
        <ele>320.201</ele>
        <time>2018-11-24T09:32:07Z</time>
      </trkpt>
      <trkpt lat="41.860958" lon="0.568980">
        <ele>320.211</ele>
        <time>2018-11-24T09:32:08Z</time>
      </trkpt>
      <trkpt lat="41.861108" lon="0.568722">
        <ele>320.108</ele>
        <time>2018-11-24T09:32:09Z</time>
      </trkpt>
      <trkpt lat="41.861258" lon="0.568464">
        <ele>320.098</ele>
        <time>2018-11-24T09:32:10Z</time>
      </trkpt>
      <trkpt lat="41.861407" lon="0.568206">
        <ele>320.175</ele>
        <time>2018-11-24T09:32:11Z</time>
      </trkpt>
      <trkpt lat="41.861554" lon="0.567945">
        <ele>320.112</ele>
        <time>2018-11-24T09:32:12Z</time>
      </trkpt>
      <trkpt lat="41.861695" lon="0.567679">
        <ele>319.982</ele>
        <time>2018-11-24T09:32:13Z</time>
      </trkpt>
      <trkpt lat="41.861826" lon="0.567404">
        <ele>320.043</ele>
        <time>2018-11-24T09:32:14Z</time>
      </trkpt>
      <trkpt lat="41.861945" lon="0.567119">
        <ele>320.082</ele>
        <time>2018-11-24T09:32:15Z</time>
      </trkpt>
      <trkpt lat="41.862053" lon="0.566828">
        <ele>320.152</ele>
        <time>2018-11-24T09:32:16Z</time>
      </trkpt>
      <trkpt lat="41.862152" lon="0.566529">
        <ele>320.077</ele>
        <time>2018-11-24T09:32:17Z</time>
      </trkpt>
      <trkpt lat="41.862240" lon="0.566225">
        <ele>320.178</ele>
        <time>2018-11-24T09:32:18Z</time>
      </trkpt>
      <trkpt lat="41.862321" lon="0.565916">
        <ele>320.433</ele>
        <time>2018-11-24T09:32:19Z</time>
      </trkpt>
      <trkpt lat="41.862403" lon="0.565610">
        <ele>320.526</ele>
        <time>2018-11-24T09:32:20Z</time>
      </trkpt>
      <trkpt lat="41.862471" lon="0.565292">
        <ele>320.808</ele>
        <time>2018-11-24T09:32:21Z</time>
      </trkpt>
      <trkpt lat="41.862545" lon="0.564987">
        <ele>321.280</ele>
        <time>2018-11-24T09:32:22Z</time>
      </trkpt>
      <trkpt lat="41.862619" lon="0.564681">
        <ele>321.547</ele>
        <time>2018-11-24T09:32:23Z</time>
      </trkpt>
      <trkpt lat="41.862696" lon="0.564374">
        <ele>322.074</ele>
        <time>2018-11-24T09:32:24Z</time>
      </trkpt>
      <trkpt lat="41.862774" lon="0.564068">
        <ele>322.494</ele>
        <time>2018-11-24T09:32:25Z</time>
      </trkpt>
      <trkpt lat="41.862856" lon="0.563760">
        <ele>322.885</ele>
        <time>2018-11-24T09:32:26Z</time>
      </trkpt>
      <trkpt lat="41.862941" lon="0.563454">
        <ele>323.254</ele>
        <time>2018-11-24T09:32:27Z</time>
      </trkpt>
      <trkpt lat="41.863028" lon="0.563151">
        <ele>323.724</ele>
        <time>2018-11-24T09:32:28Z</time>
      </trkpt>
      <trkpt lat="41.863118" lon="0.562847">
        <ele>324.039</ele>
        <time>2018-11-24T09:32:29Z</time>
      </trkpt>
      <trkpt lat="41.863211" lon="0.562549">
        <ele>324.396</ele>
        <time>2018-11-24T09:32:30Z</time>
      </trkpt>
      <trkpt lat="41.863306" lon="0.562255">
        <ele>324.631</ele>
        <time>2018-11-24T09:32:31Z</time>
      </trkpt>
      <trkpt lat="41.863404" lon="0.561965">
        <ele>325.124</ele>
        <time>2018-11-24T09:32:32Z</time>
      </trkpt>
      <trkpt lat="41.863500" lon="0.561678">
        <ele>325.408</ele>
        <time>2018-11-24T09:32:33Z</time>
      </trkpt>
      <trkpt lat="41.863599" lon="0.561393">
        <ele>325.762</ele>
        <time>2018-11-24T09:32:34Z</time>
      </trkpt>
      <trkpt lat="41.863697" lon="0.561112">
        <ele>326.129</ele>
        <time>2018-11-24T09:32:35Z</time>
      </trkpt>
      <trkpt lat="41.863799" lon="0.560831">
        <ele>326.536</ele>
        <time>2018-11-24T09:32:36Z</time>
      </trkpt>
      <trkpt lat="41.863895" lon="0.560546">
        <ele>326.946</ele>
        <time>2018-11-24T09:32:37Z</time>
      </trkpt>
      <trkpt lat="41.863994" lon="0.560260">
        <ele>327.447</ele>
        <time>2018-11-24T09:32:38Z</time>
      </trkpt>
      <trkpt lat="41.864094" lon="0.559978">
        <ele>327.786</ele>
        <time>2018-11-24T09:32:39Z</time>
      </trkpt>
      <trkpt lat="41.864194" lon="0.559694">
        <ele>328.366</ele>
        <time>2018-11-24T09:32:40Z</time>
      </trkpt>
      <trkpt lat="41.864294" lon="0.559411">
        <ele>328.891</ele>
        <time>2018-11-24T09:32:41Z</time>
      </trkpt>
      <trkpt lat="41.864393" lon="0.559124">
        <ele>329.299</ele>
        <time>2018-11-24T09:32:42Z</time>
      </trkpt>
      <trkpt lat="41.864491" lon="0.558842">
        <ele>329.407</ele>
        <time>2018-11-24T09:32:43Z</time>
      </trkpt>
      <trkpt lat="41.864587" lon="0.558560">
        <ele>329.727</ele>
        <time>2018-11-24T09:32:44Z</time>
      </trkpt>
      <trkpt lat="41.864683" lon="0.558278">
        <ele>330.008</ele>
        <time>2018-11-24T09:32:45Z</time>
      </trkpt>
      <trkpt lat="41.864779" lon="0.557997">
        <ele>330.222</ele>
        <time>2018-11-24T09:32:46Z</time>
      </trkpt>
      <trkpt lat="41.864874" lon="0.557715">
        <ele>330.419</ele>
        <time>2018-11-24T09:32:47Z</time>
      </trkpt>
      <trkpt lat="41.864970" lon="0.557435">
        <ele>330.726</ele>
        <time>2018-11-24T09:32:48Z</time>
      </trkpt>
      <trkpt lat="41.865065" lon="0.557153">
        <ele>331.396</ele>
        <time>2018-11-24T09:32:49Z</time>
      </trkpt>
      <trkpt lat="41.865157" lon="0.556872">
        <ele>331.997</ele>
        <time>2018-11-24T09:32:50Z</time>
      </trkpt>
      <trkpt lat="41.865247" lon="0.556591">
        <ele>332.786</ele>
        <time>2018-11-24T09:32:51Z</time>
      </trkpt>
      <trkpt lat="41.865336" lon="0.556309">
        <ele>333.716</ele>
        <time>2018-11-24T09:32:52Z</time>
      </trkpt>
      <trkpt lat="41.865426" lon="0.556028">
        <ele>334.881</ele>
        <time>2018-11-24T09:32:53Z</time>
      </trkpt>
      <trkpt lat="41.865515" lon="0.555747">
        <ele>335.919</ele>
        <time>2018-11-24T09:32:54Z</time>
      </trkpt>
      <trkpt lat="41.865604" lon="0.555464">
        <ele>337.209</ele>
        <time>2018-11-24T09:32:55Z</time>
      </trkpt>
      <trkpt lat="41.865692" lon="0.555181">
        <ele>338.419</ele>
        <time>2018-11-24T09:32:56Z</time>
      </trkpt>
      <trkpt lat="41.865779" lon="0.554897">
        <ele>339.308</ele>
        <time>2018-11-24T09:32:57Z</time>
      </trkpt>
      <trkpt lat="41.865863" lon="0.554612">
        <ele>340.534</ele>
        <time>2018-11-24T09:32:58Z</time>
      </trkpt>
      <trkpt lat="41.865947" lon="0.554326">
        <ele>341.531</ele>
        <time>2018-11-24T09:32:59Z</time>
      </trkpt>
      <trkpt lat="41.866030" lon="0.554039">
        <ele>342.778</ele>
        <time>2018-11-24T09:33:00Z</time>
      </trkpt>
      <trkpt lat="41.866111" lon="0.553750">
        <ele>343.958</ele>
        <time>2018-11-24T09:33:01Z</time>
      </trkpt>
      <trkpt lat="41.866190" lon="0.553460">
        <ele>345.079</ele>
        <time>2018-11-24T09:33:02Z</time>
      </trkpt>
      <trkpt lat="41.866269" lon="0.553168">
        <ele>346.128</ele>
        <time>2018-11-24T09:33:03Z</time>
      </trkpt>
      <trkpt lat="41.866347" lon="0.552872">
        <ele>347.088</ele>
        <time>2018-11-24T09:33:04Z</time>
      </trkpt>
      <trkpt lat="41.866424" lon="0.552572">
        <ele>347.983</ele>
        <time>2018-11-24T09:33:05Z</time>
      </trkpt>
      <trkpt lat="41.866499" lon="0.552270">
        <ele>348.593</ele>
        <time>2018-11-24T09:33:06Z</time>
      </trkpt>
      <trkpt lat="41.866574" lon="0.551967">
        <ele>349.065</ele>
        <time>2018-11-24T09:33:07Z</time>
      </trkpt>
      <trkpt lat="41.866649" lon="0.551664">
        <ele>349.421</ele>
        <time>2018-11-24T09:33:08Z</time>
      </trkpt>
      <trkpt lat="41.866724" lon="0.551362">
        <ele>349.608</ele>
        <time>2018-11-24T09:33:09Z</time>
      </trkpt>
      <trkpt lat="41.866799" lon="0.551060">
        <ele>349.822</ele>
        <time>2018-11-24T09:33:10Z</time>
      </trkpt>
      <trkpt lat="41.866874" lon="0.550759">
        <ele>350.199</ele>
        <time>2018-11-24T09:33:11Z</time>
      </trkpt>
      <trkpt lat="41.866950" lon="0.550457">
        <ele>350.476</ele>
        <time>2018-11-24T09:33:12Z</time>
      </trkpt>
      <trkpt lat="41.867026" lon="0.550157">
        <ele>350.536</ele>
        <time>2018-11-24T09:33:13Z</time>
      </trkpt>
      <trkpt lat="41.867101" lon="0.549856">
        <ele>350.767</ele>
        <time>2018-11-24T09:33:14Z</time>
      </trkpt>
      <trkpt lat="41.867175" lon="0.549556">
        <ele>351.046</ele>
        <time>2018-11-24T09:33:15Z</time>
      </trkpt>
      <trkpt lat="41.867250" lon="0.549258">
        <ele>351.576</ele>
        <time>2018-11-24T09:33:16Z</time>
      </trkpt>
      <trkpt lat="41.867324" lon="0.548960">
        <ele>352.051</ele>
        <time>2018-11-24T09:33:17Z</time>
      </trkpt>
      <trkpt lat="41.867398" lon="0.548662">
        <ele>352.743</ele>
        <time>2018-11-24T09:33:18Z</time>
      </trkpt>
      <trkpt lat="41.867472" lon="0.548365">
        <ele>353.464</ele>
        <time>2018-11-24T09:33:19Z</time>
      </trkpt>
      <trkpt lat="41.867548" lon="0.548068">
        <ele>354.010</ele>
        <time>2018-11-24T09:33:20Z</time>
      </trkpt>
      <trkpt lat="41.867630" lon="0.547773">
        <ele>354.608</ele>
        <time>2018-11-24T09:33:21Z</time>
      </trkpt>
      <trkpt lat="41.867721" lon="0.547484">
        <ele>355.167</ele>
        <time>2018-11-24T09:33:22Z</time>
      </trkpt>
      <trkpt lat="41.867822" lon="0.547201">
        <ele>355.854</ele>
        <time>2018-11-24T09:33:23Z</time>
      </trkpt>
      <trkpt lat="41.867932" lon="0.546923">
        <ele>356.231</ele>
        <time>2018-11-24T09:33:24Z</time>
      </trkpt>
      <trkpt lat="41.868049" lon="0.546649">
        <ele>356.921</ele>
        <time>2018-11-24T09:33:25Z</time>
      </trkpt>
      <trkpt lat="41.868167" lon="0.546375">
        <ele>357.462</ele>
        <time>2018-11-24T09:33:26Z</time>
      </trkpt>
      <trkpt lat="41.868284" lon="0.546102">
        <ele>358.131</ele>
        <time>2018-11-24T09:33:27Z</time>
      </trkpt>
      <trkpt lat="41.868402" lon="0.545829">
        <ele>358.591</ele>
        <time>2018-11-24T09:33:28Z</time>
      </trkpt>
      <trkpt lat="41.868521" lon="0.545556">
        <ele>358.936</ele>
        <time>2018-11-24T09:33:29Z</time>
      </trkpt>
      <trkpt lat="41.868639" lon="0.545282">
        <ele>359.235</ele>
        <time>2018-11-24T09:33:30Z</time>
      </trkpt>
      <trkpt lat="41.868756" lon="0.545009">
        <ele>359.586</ele>
        <time>2018-11-24T09:33:31Z</time>
      </trkpt>
      <trkpt lat="41.868874" lon="0.544738">
        <ele>359.914</ele>
        <time>2018-11-24T09:33:32Z</time>
      </trkpt>
      <trkpt lat="41.868992" lon="0.544468">
        <ele>360.608</ele>
        <time>2018-11-24T09:33:33Z</time>
      </trkpt>
      <trkpt lat="41.869110" lon="0.544197">
        <ele>361.426</ele>
        <time>2018-11-24T09:33:34Z</time>
      </trkpt>
      <trkpt lat="41.869228" lon="0.543926">
        <ele>362.143</ele>
        <time>2018-11-24T09:33:35Z</time>
      </trkpt>
      <trkpt lat="41.869346" lon="0.543654">
        <ele>362.740</ele>
        <time>2018-11-24T09:33:36Z</time>
      </trkpt>
      <trkpt lat="41.869464" lon="0.543381">
        <ele>363.070</ele>
        <time>2018-11-24T09:33:37Z</time>
      </trkpt>
      <trkpt lat="41.869582" lon="0.543107">
        <ele>363.581</ele>
        <time>2018-11-24T09:33:38Z</time>
      </trkpt>
      <trkpt lat="41.869700" lon="0.542833">
        <ele>363.940</ele>
        <time>2018-11-24T09:33:39Z</time>
      </trkpt>
      <trkpt lat="41.869817" lon="0.542559">
        <ele>364.260</ele>
        <time>2018-11-24T09:33:40Z</time>
      </trkpt>
      <trkpt lat="41.869934" lon="0.542286">
        <ele>364.715</ele>
        <time>2018-11-24T09:33:41Z</time>
      </trkpt>
      <trkpt lat="41.870051" lon="0.542013">
        <ele>365.097</ele>
        <time>2018-11-24T09:33:42Z</time>
      </trkpt>
      <trkpt lat="41.870169" lon="0.541741">
        <ele>365.323</ele>
        <time>2018-11-24T09:33:43Z</time>
      </trkpt>
      <trkpt lat="41.870288" lon="0.541468">
        <ele>365.525</ele>
        <time>2018-11-24T09:33:44Z</time>
      </trkpt>
      <trkpt lat="41.870407" lon="0.541195">
        <ele>365.708</ele>
        <time>2018-11-24T09:33:45Z</time>
      </trkpt>
      <trkpt lat="41.870527" lon="0.540923">
        <ele>365.882</ele>
        <time>2018-11-24T09:33:46Z</time>
      </trkpt>
      <trkpt lat="41.870646" lon="0.540650">
        <ele>365.949</ele>
        <time>2018-11-24T09:33:47Z</time>
      </trkpt>
      <trkpt lat="41.870764" lon="0.540377">
        <ele>366.116</ele>
        <time>2018-11-24T09:33:48Z</time>
      </trkpt>
      <trkpt lat="41.870882" lon="0.540104">
        <ele>366.186</ele>
        <time>2018-11-24T09:33:49Z</time>
      </trkpt>
      <trkpt lat="41.871000" lon="0.539831">
        <ele>366.187</ele>
        <time>2018-11-24T09:33:50Z</time>
      </trkpt>
      <trkpt lat="41.871118" lon="0.539558">
        <ele>366.366</ele>
        <time>2018-11-24T09:33:51Z</time>
      </trkpt>
      <trkpt lat="41.871237" lon="0.539286">
        <ele>366.376</ele>
        <time>2018-11-24T09:33:52Z</time>
      </trkpt>
      <trkpt lat="41.871356" lon="0.539014">
        <ele>366.551</ele>
        <time>2018-11-24T09:33:53Z</time>
      </trkpt>
      <trkpt lat="41.871475" lon="0.538742">
        <ele>366.679</ele>
        <time>2018-11-24T09:33:54Z</time>
      </trkpt>
      <trkpt lat="41.871593" lon="0.538469">
        <ele>366.805</ele>
        <time>2018-11-24T09:33:55Z</time>
      </trkpt>
      <trkpt lat="41.871712" lon="0.538197">
        <ele>367.025</ele>
        <time>2018-11-24T09:33:56Z</time>
      </trkpt>
      <trkpt lat="41.871831" lon="0.537925">
        <ele>367.208</ele>
        <time>2018-11-24T09:33:57Z</time>
      </trkpt>
      <trkpt lat="41.871949" lon="0.537652">
        <ele>367.460</ele>
        <time>2018-11-24T09:33:58Z</time>
      </trkpt>
      <trkpt lat="41.872066" lon="0.537379">
        <ele>367.537</ele>
        <time>2018-11-24T09:33:59Z</time>
      </trkpt>
      <trkpt lat="41.872182" lon="0.537105">
        <ele>367.774</ele>
        <time>2018-11-24T09:34:00Z</time>
      </trkpt>
      <trkpt lat="41.872300" lon="0.536832">
        <ele>367.854</ele>
        <time>2018-11-24T09:34:01Z</time>
      </trkpt>
      <trkpt lat="41.872418" lon="0.536560">
        <ele>368.035</ele>
        <time>2018-11-24T09:34:02Z</time>
      </trkpt>
      <trkpt lat="41.872536" lon="0.536288">
        <ele>368.114</ele>
        <time>2018-11-24T09:34:03Z</time>
      </trkpt>
      <trkpt lat="41.872653" lon="0.536016">
        <ele>368.384</ele>
        <time>2018-11-24T09:34:04Z</time>
      </trkpt>
      <trkpt lat="41.872771" lon="0.535745">
        <ele>368.699</ele>
        <time>2018-11-24T09:34:05Z</time>
      </trkpt>
      <trkpt lat="41.872889" lon="0.535473">
        <ele>369.092</ele>
        <time>2018-11-24T09:34:06Z</time>
      </trkpt>
      <trkpt lat="41.873007" lon="0.535201">
        <ele>369.573</ele>
        <time>2018-11-24T09:34:07Z</time>
      </trkpt>
      <trkpt lat="41.873125" lon="0.534929">
        <ele>369.920</ele>
        <time>2018-11-24T09:34:08Z</time>
      </trkpt>
      <trkpt lat="41.873242" lon="0.534656">
        <ele>370.308</ele>
        <time>2018-11-24T09:34:09Z</time>
      </trkpt>
      <trkpt lat="41.873359" lon="0.534383">
        <ele>370.672</ele>
        <time>2018-11-24T09:34:10Z</time>
      </trkpt>
      <trkpt lat="41.873477" lon="0.534111">
        <ele>370.769</ele>
        <time>2018-11-24T09:34:11Z</time>
      </trkpt>
      <trkpt lat="41.873595" lon="0.533839">
        <ele>371.516</ele>
        <time>2018-11-24T09:34:12Z</time>
      </trkpt>
      <trkpt lat="41.873712" lon="0.533567">
        <ele>371.966</ele>
        <time>2018-11-24T09:34:13Z</time>
      </trkpt>
      <trkpt lat="41.873830" lon="0.533294">
        <ele>372.457</ele>
        <time>2018-11-24T09:34:14Z</time>
      </trkpt>
      <trkpt lat="41.873951" lon="0.533023">
        <ele>372.926</ele>
        <time>2018-11-24T09:34:15Z</time>
      </trkpt>
      <trkpt lat="41.874071" lon="0.532751">
        <ele>373.456</ele>
        <time>2018-11-24T09:34:16Z</time>
      </trkpt>
      <trkpt lat="41.874190" lon="0.532479">
        <ele>373.861</ele>
        <time>2018-11-24T09:34:17Z</time>
      </trkpt>
      <trkpt lat="41.874309" lon="0.532207">
        <ele>374.358</ele>
        <time>2018-11-24T09:34:18Z</time>
      </trkpt>
      <trkpt lat="41.874428" lon="0.531935">
        <ele>374.752</ele>
        <time>2018-11-24T09:34:19Z</time>
      </trkpt>
      <trkpt lat="41.874546" lon="0.531663">
        <ele>375.117</ele>
        <time>2018-11-24T09:34:20Z</time>
      </trkpt>
      <trkpt lat="41.874664" lon="0.531390">
        <ele>375.608</ele>
        <time>2018-11-24T09:34:21Z</time>
      </trkpt>
      <trkpt lat="41.874776" lon="0.531113">
        <ele>375.968</ele>
        <time>2018-11-24T09:34:22Z</time>
      </trkpt>
      <trkpt lat="41.874878" lon="0.530829">
        <ele>376.445</ele>
        <time>2018-11-24T09:34:23Z</time>
      </trkpt>
      <trkpt lat="41.874974" lon="0.530549">
        <ele>376.912</ele>
        <time>2018-11-24T09:34:24Z</time>
      </trkpt>
      <trkpt lat="41.875048" lon="0.530260">
        <ele>377.442</ele>
        <time>2018-11-24T09:34:25Z</time>
      </trkpt>
      <trkpt lat="41.875098" lon="0.529949">
        <ele>377.753</ele>
        <time>2018-11-24T09:34:26Z</time>
      </trkpt>
      <trkpt lat="41.875119" lon="0.529641">
        <ele>378.312</ele>
        <time>2018-11-24T09:34:27Z</time>
      </trkpt>
      <trkpt lat="41.875125" lon="0.529331">
        <ele>379.082</ele>
        <time>2018-11-24T09:34:28Z</time>
      </trkpt>
      <trkpt lat="41.875116" lon="0.529018">
        <ele>379.477</ele>
        <time>2018-11-24T09:34:29Z</time>
      </trkpt>
      <trkpt lat="41.875106" lon="0.528708">
        <ele>379.924</ele>
        <time>2018-11-24T09:34:30Z</time>
      </trkpt>
      <trkpt lat="41.875095" lon="0.528398">
        <ele>380.404</ele>
        <time>2018-11-24T09:34:31Z</time>
      </trkpt>
      <trkpt lat="41.875085" lon="0.528086">
        <ele>380.914</ele>
        <time>2018-11-24T09:34:32Z</time>
      </trkpt>
      <trkpt lat="41.875073" lon="0.527775">
        <ele>381.508</ele>
        <time>2018-11-24T09:34:33Z</time>
      </trkpt>
      <trkpt lat="41.875060" lon="0.527461">
        <ele>382.055</ele>
        <time>2018-11-24T09:34:34Z</time>
      </trkpt>
      <trkpt lat="41.875048" lon="0.527149">
        <ele>382.992</ele>
        <time>2018-11-24T09:34:35Z</time>
      </trkpt>
      <trkpt lat="41.875036" lon="0.526837">
        <ele>383.599</ele>
        <time>2018-11-24T09:34:36Z</time>
      </trkpt>
      <trkpt lat="41.875022" lon="0.526524">
        <ele>384.299</ele>
        <time>2018-11-24T09:34:37Z</time>
      </trkpt>
      <trkpt lat="41.875008" lon="0.526210">
        <ele>385.050</ele>
        <time>2018-11-24T09:34:38Z</time>
      </trkpt>
      <trkpt lat="41.874994" lon="0.525896">
        <ele>385.659</ele>
        <time>2018-11-24T09:34:39Z</time>
      </trkpt>
      <trkpt lat="41.874983" lon="0.525582">
        <ele>386.179</ele>
        <time>2018-11-24T09:34:40Z</time>
      </trkpt>
      <trkpt lat="41.874979" lon="0.525266">
        <ele>386.584</ele>
        <time>2018-11-24T09:34:41Z</time>
      </trkpt>
      <trkpt lat="41.874987" lon="0.524950">
        <ele>387.094</ele>
        <time>2018-11-24T09:34:42Z</time>
      </trkpt>
      <trkpt lat="41.875011" lon="0.524636">
        <ele>387.357</ele>
        <time>2018-11-24T09:34:43Z</time>
      </trkpt>
      <trkpt lat="41.875059" lon="0.524328">
        <ele>388.022</ele>
        <time>2018-11-24T09:34:44Z</time>
      </trkpt>
      <trkpt lat="41.875134" lon="0.524031">
        <ele>388.608</ele>
        <time>2018-11-24T09:34:45Z</time>
      </trkpt>
      <trkpt lat="41.875228" lon="0.523745">
        <ele>389.552</ele>
        <time>2018-11-24T09:34:46Z</time>
      </trkpt>
      <trkpt lat="41.875332" lon="0.523463">
        <ele>390.329</ele>
        <time>2018-11-24T09:34:47Z</time>
      </trkpt>
      <trkpt lat="41.875439" lon="0.523182">
        <ele>391.066</ele>
        <time>2018-11-24T09:34:48Z</time>
      </trkpt>
      <trkpt lat="41.875546" lon="0.522902">
        <ele>391.766</ele>
        <time>2018-11-24T09:34:49Z</time>
      </trkpt>
      <trkpt lat="41.875652" lon="0.522621">
        <ele>392.117</ele>
        <time>2018-11-24T09:34:50Z</time>
      </trkpt>
      <trkpt lat="41.875757" lon="0.522338">
        <ele>393.176</ele>
        <time>2018-11-24T09:34:51Z</time>
      </trkpt>
      <trkpt lat="41.875854" lon="0.522053">
        <ele>394.056</ele>
        <time>2018-11-24T09:34:52Z</time>
      </trkpt>
      <trkpt lat="41.875938" lon="0.521759">
        <ele>394.611</ele>
        <time>2018-11-24T09:34:53Z</time>
      </trkpt>
      <trkpt lat="41.876010" lon="0.521460">
        <ele>395.086</ele>
        <time>2018-11-24T09:34:54Z</time>
      </trkpt>
      <trkpt lat="41.876072" lon="0.521156">
        <ele>395.360</ele>
        <time>2018-11-24T09:34:55Z</time>
      </trkpt>
      <trkpt lat="41.876125" lon="0.520848">
        <ele>395.526</ele>
        <time>2018-11-24T09:34:56Z</time>
      </trkpt>
      <trkpt lat="41.876176" lon="0.520539">
        <ele>395.408</ele>
        <time>2018-11-24T09:34:57Z</time>
      </trkpt>
      <trkpt lat="41.876228" lon="0.520230">
        <ele>395.571</ele>
        <time>2018-11-24T09:34:58Z</time>
      </trkpt>
      <trkpt lat="41.876279" lon="0.519920">
        <ele>395.718</ele>
        <time>2018-11-24T09:34:59Z</time>
      </trkpt>
      <trkpt lat="41.876330" lon="0.519611">
        <ele>396.095</ele>
        <time>2018-11-24T09:35:00Z</time>
      </trkpt>
      <trkpt lat="41.876381" lon="0.519302">
        <ele>396.315</ele>
        <time>2018-11-24T09:35:01Z</time>
      </trkpt>
      <trkpt lat="41.876432" lon="0.518994">
        <ele>396.426</ele>
        <time>2018-11-24T09:35:02Z</time>
      </trkpt>
      <trkpt lat="41.876536" lon="0.518379">
        <ele>396.895</ele>
        <time>2018-11-24T09:35:03Z</time>
      </trkpt>
      <trkpt lat="41.876590" lon="0.518073">
        <ele>396.925</ele>
        <time>2018-11-24T09:35:04Z</time>
      </trkpt>
      <trkpt lat="41.876672" lon="0.517776">
        <ele>397.280</ele>
        <time>2018-11-24T09:35:05Z</time>
      </trkpt>
      <trkpt lat="41.876785" lon="0.517497">
        <ele>397.542</ele>
        <time>2018-11-24T09:35:06Z</time>
      </trkpt>
      <trkpt lat="41.876914" lon="0.517242">
        <ele>397.822</ele>
        <time>2018-11-24T09:35:07Z</time>
      </trkpt>
      <trkpt lat="41.877050" lon="0.516988">
        <ele>398.214</ele>
        <time>2018-11-24T09:35:08Z</time>
      </trkpt>
      <trkpt lat="41.877190" lon="0.516735">
        <ele>398.608</ele>
        <time>2018-11-24T09:35:09Z</time>
      </trkpt>
      <trkpt lat="41.877331" lon="0.516481">
        <ele>398.957</ele>
        <time>2018-11-24T09:35:10Z</time>
      </trkpt>
      <trkpt lat="41.877470" lon="0.516227">
        <ele>399.324</ele>
        <time>2018-11-24T09:35:11Z</time>
      </trkpt>
      <trkpt lat="41.877610" lon="0.515976">
        <ele>399.721</ele>
        <time>2018-11-24T09:35:12Z</time>
      </trkpt>
      <trkpt lat="41.877748" lon="0.515721">
        <ele>399.661</ele>
        <time>2018-11-24T09:35:13Z</time>
      </trkpt>
      <trkpt lat="41.877885" lon="0.515466">
        <ele>399.622</ele>
        <time>2018-11-24T09:35:14Z</time>
      </trkpt>
      <trkpt lat="41.878022" lon="0.515213">
        <ele>399.831</ele>
        <time>2018-11-24T09:35:15Z</time>
      </trkpt>
      <trkpt lat="41.878160" lon="0.514960">
        <ele>400.141</ele>
        <time>2018-11-24T09:35:16Z</time>
      </trkpt>
      <trkpt lat="41.878300" lon="0.514707">
        <ele>400.416</ele>
        <time>2018-11-24T09:35:17Z</time>
      </trkpt>
      <trkpt lat="41.878438" lon="0.514453">
        <ele>400.634</ele>
        <time>2018-11-24T09:35:18Z</time>
      </trkpt>
      <trkpt lat="41.878578" lon="0.514201">
        <ele>400.955</ele>
        <time>2018-11-24T09:35:19Z</time>
      </trkpt>
      <trkpt lat="41.878715" lon="0.513948">
        <ele>401.210</ele>
        <time>2018-11-24T09:35:20Z</time>
      </trkpt>
      <trkpt lat="41.878852" lon="0.513693">
        <ele>401.708</ele>
        <time>2018-11-24T09:35:21Z</time>
      </trkpt>
      <trkpt lat="41.878990" lon="0.513440">
        <ele>402.096</ele>
        <time>2018-11-24T09:35:22Z</time>
      </trkpt>
      <trkpt lat="41.879129" lon="0.513188">
        <ele>402.543</ele>
        <time>2018-11-24T09:35:23Z</time>
      </trkpt>
      <trkpt lat="41.879267" lon="0.512937">
        <ele>402.910</ele>
        <time>2018-11-24T09:35:24Z</time>
      </trkpt>
      <trkpt lat="41.879406" lon="0.512684">
        <ele>403.190</ele>
        <time>2018-11-24T09:35:25Z</time>
      </trkpt>
      <trkpt lat="41.879546" lon="0.512431">
        <ele>403.891</ele>
        <time>2018-11-24T09:35:26Z</time>
      </trkpt>
      <trkpt lat="41.879686" lon="0.512177">
        <ele>404.210</ele>
        <time>2018-11-24T09:35:27Z</time>
      </trkpt>
      <trkpt lat="41.879824" lon="0.511922">
        <ele>404.720</ele>
        <time>2018-11-24T09:35:28Z</time>
      </trkpt>
      <trkpt lat="41.879962" lon="0.511672">
        <ele>405.075</ele>
        <time>2018-11-24T09:35:29Z</time>
      </trkpt>
      <trkpt lat="41.880099" lon="0.511424">
        <ele>405.579</ele>
        <time>2018-11-24T09:35:30Z</time>
      </trkpt>
      <trkpt lat="41.880238" lon="0.511177">
        <ele>405.905</ele>
        <time>2018-11-24T09:35:31Z</time>
      </trkpt>
      <trkpt lat="41.880374" lon="0.510927">
        <ele>406.625</ele>
        <time>2018-11-24T09:35:32Z</time>
      </trkpt>
      <trkpt lat="41.880514" lon="0.510677">
        <ele>407.108</ele>
        <time>2018-11-24T09:35:33Z</time>
      </trkpt>
      <trkpt lat="41.880656" lon="0.510427">
        <ele>407.520</ele>
        <time>2018-11-24T09:35:34Z</time>
      </trkpt>
      <trkpt lat="41.880798" lon="0.510175">
        <ele>407.947</ele>
        <time>2018-11-24T09:35:35Z</time>
      </trkpt>
      <trkpt lat="41.880936" lon="0.509923">
        <ele>408.284</ele>
        <time>2018-11-24T09:35:36Z</time>
      </trkpt>
      <trkpt lat="41.881075" lon="0.509671">
        <ele>408.714</ele>
        <time>2018-11-24T09:35:37Z</time>
      </trkpt>
      <trkpt lat="41.881218" lon="0.509422">
        <ele>409.325</ele>
        <time>2018-11-24T09:35:38Z</time>
      </trkpt>
      <trkpt lat="41.881358" lon="0.509170">
        <ele>409.764</ele>
        <time>2018-11-24T09:35:39Z</time>
      </trkpt>
      <trkpt lat="41.881499" lon="0.508917">
        <ele>410.134</ele>
        <time>2018-11-24T09:35:40Z</time>
      </trkpt>
      <trkpt lat="41.881640" lon="0.508664">
        <ele>410.589</ele>
        <time>2018-11-24T09:35:41Z</time>
      </trkpt>
      <trkpt lat="41.881787" lon="0.508416">
        <ele>410.919</ele>
        <time>2018-11-24T09:35:42Z</time>
      </trkpt>
      <trkpt lat="41.881945" lon="0.508183">
        <ele>411.009</ele>
        <time>2018-11-24T09:35:43Z</time>
      </trkpt>
      <trkpt lat="41.882112" lon="0.507962">
        <ele>411.519</ele>
        <time>2018-11-24T09:35:44Z</time>
      </trkpt>
      <trkpt lat="41.882285" lon="0.507749">
        <ele>411.908</ele>
        <time>2018-11-24T09:35:45Z</time>
      </trkpt>
      <trkpt lat="41.882461" lon="0.507539">
        <ele>412.464</ele>
        <time>2018-11-24T09:35:46Z</time>
      </trkpt>
      <trkpt lat="41.882637" lon="0.507329">
        <ele>412.881</ele>
        <time>2018-11-24T09:35:47Z</time>
      </trkpt>
      <trkpt lat="41.882813" lon="0.507121">
        <ele>413.358</ele>
        <time>2018-11-24T09:35:48Z</time>
      </trkpt>
      <trkpt lat="41.882991" lon="0.506913">
        <ele>413.678</ele>
        <time>2018-11-24T09:35:49Z</time>
      </trkpt>
      <trkpt lat="41.883167" lon="0.506706">
        <ele>414.169</ele>
        <time>2018-11-24T09:35:50Z</time>
      </trkpt>
      <trkpt lat="41.883344" lon="0.506498">
        <ele>414.318</ele>
        <time>2018-11-24T09:35:51Z</time>
      </trkpt>
      <trkpt lat="41.883520" lon="0.506289">
        <ele>414.858</ele>
        <time>2018-11-24T09:35:52Z</time>
      </trkpt>
      <trkpt lat="41.883696" lon="0.506081">
        <ele>415.113</ele>
        <time>2018-11-24T09:35:53Z</time>
      </trkpt>
      <trkpt lat="41.883872" lon="0.505875">
        <ele>415.324</ele>
        <time>2018-11-24T09:35:54Z</time>
      </trkpt>
      <trkpt lat="41.884047" lon="0.505665">
        <ele>416.004</ele>
        <time>2018-11-24T09:35:55Z</time>
      </trkpt>
      <trkpt lat="41.884222" lon="0.505457">
        <ele>416.414</ele>
        <time>2018-11-24T09:35:56Z</time>
      </trkpt>
      <trkpt lat="41.884395" lon="0.505243">
        <ele>416.808</ele>
        <time>2018-11-24T09:35:57Z</time>
      </trkpt>
      <trkpt lat="41.884561" lon="0.505019">
        <ele>417.065</ele>
        <time>2018-11-24T09:35:58Z</time>
      </trkpt>
      <trkpt lat="41.884715" lon="0.504781">
        <ele>417.322</ele>
        <time>2018-11-24T09:35:59Z</time>
      </trkpt>
      <trkpt lat="41.884855" lon="0.504529">
        <ele>417.719</ele>
        <time>2018-11-24T09:36:00Z</time>
      </trkpt>
      <trkpt lat="41.884985" lon="0.504267">
        <ele>418.189</ele>
        <time>2018-11-24T09:36:01Z</time>
      </trkpt>
      <trkpt lat="41.885113" lon="0.504004">
        <ele>418.690</ele>
        <time>2018-11-24T09:36:02Z</time>
      </trkpt>
      <trkpt lat="41.885242" lon="0.503741">
        <ele>418.829</ele>
        <time>2018-11-24T09:36:03Z</time>
      </trkpt>
      <trkpt lat="41.885371" lon="0.503477">
        <ele>420.029</ele>
        <time>2018-11-24T09:36:04Z</time>
      </trkpt>
      <trkpt lat="41.885499" lon="0.503212">
        <ele>420.184</ele>
        <time>2018-11-24T09:36:05Z</time>
      </trkpt>
      <trkpt lat="41.885627" lon="0.502947">
        <ele>420.453</ele>
        <time>2018-11-24T09:36:06Z</time>
      </trkpt>
      <trkpt lat="41.885754" lon="0.502683">
        <ele>420.804</ele>
        <time>2018-11-24T09:36:07Z</time>
      </trkpt>
      <trkpt lat="41.885880" lon="0.502419">
        <ele>421.314</ele>
        <time>2018-11-24T09:36:08Z</time>
      </trkpt>
      <trkpt lat="41.886007" lon="0.502155">
        <ele>421.808</ele>
        <time>2018-11-24T09:36:09Z</time>
      </trkpt>
      <trkpt lat="41.886133" lon="0.501891">
        <ele>422.368</ele>
        <time>2018-11-24T09:36:10Z</time>
      </trkpt>
      <trkpt lat="41.886260" lon="0.501627">
        <ele>423.155</ele>
        <time>2018-11-24T09:36:11Z</time>
      </trkpt>
      <trkpt lat="41.886387" lon="0.501363">
        <ele>423.712</ele>
        <time>2018-11-24T09:36:12Z</time>
      </trkpt>
      <trkpt lat="41.886513" lon="0.501100">
        <ele>424.442</ele>
        <time>2018-11-24T09:36:13Z</time>
      </trkpt>
      <trkpt lat="41.886640" lon="0.500836">
        <ele>425.013</ele>
        <time>2018-11-24T09:36:14Z</time>
      </trkpt>
      <trkpt lat="41.886768" lon="0.500573">
        <ele>425.672</ele>
        <time>2018-11-24T09:36:15Z</time>
      </trkpt>
      <trkpt lat="41.886897" lon="0.500310">
        <ele>426.212</ele>
        <time>2018-11-24T09:36:16Z</time>
      </trkpt>
      <trkpt lat="41.887025" lon="0.500046">
        <ele>426.927</ele>
        <time>2018-11-24T09:36:17Z</time>
      </trkpt>
      <trkpt lat="41.887153" lon="0.499781">
        <ele>427.759</ele>
        <time>2018-11-24T09:36:18Z</time>
      </trkpt>
      <trkpt lat="41.887280" lon="0.499516">
        <ele>428.403</ele>
        <time>2018-11-24T09:36:19Z</time>
      </trkpt>
      <trkpt lat="41.887407" lon="0.499251">
        <ele>429.123</ele>
        <time>2018-11-24T09:36:20Z</time>
      </trkpt>
      <trkpt lat="41.887534" lon="0.498986">
        <ele>429.708</ele>
        <time>2018-11-24T09:36:21Z</time>
      </trkpt>
      <trkpt lat="41.887661" lon="0.498721">
        <ele>430.548</ele>
        <time>2018-11-24T09:36:22Z</time>
      </trkpt>
      <trkpt lat="41.887789" lon="0.498457">
        <ele>431.145</ele>
        <time>2018-11-24T09:36:23Z</time>
      </trkpt>
      <trkpt lat="41.887916" lon="0.498192">
        <ele>431.862</ele>
        <time>2018-11-24T09:36:24Z</time>
      </trkpt>
      <trkpt lat="41.888043" lon="0.497926">
        <ele>432.442</ele>
        <time>2018-11-24T09:36:25Z</time>
      </trkpt>
      <trkpt lat="41.888168" lon="0.497659">
        <ele>433.143</ele>
        <time>2018-11-24T09:36:26Z</time>
      </trkpt>
      <trkpt lat="41.888291" lon="0.497390">
        <ele>433.972</ele>
        <time>2018-11-24T09:36:27Z</time>
      </trkpt>
      <trkpt lat="41.888409" lon="0.497117">
        <ele>434.592</ele>
        <time>2018-11-24T09:36:28Z</time>
      </trkpt>
      <trkpt lat="41.888518" lon="0.496839">
        <ele>435.097</ele>
        <time>2018-11-24T09:36:29Z</time>
      </trkpt>
      <trkpt lat="41.888620" lon="0.496555">
        <ele>435.427</ele>
        <time>2018-11-24T09:36:30Z</time>
      </trkpt>
      <trkpt lat="41.888717" lon="0.496268">
        <ele>436.168</ele>
        <time>2018-11-24T09:36:31Z</time>
      </trkpt>
      <trkpt lat="41.888813" lon="0.495980">
        <ele>436.614</ele>
        <time>2018-11-24T09:36:32Z</time>
      </trkpt>
      <trkpt lat="41.888908" lon="0.495692">
        <ele>437.408</ele>
        <time>2018-11-24T09:36:33Z</time>
      </trkpt>
      <trkpt lat="41.889002" lon="0.495403">
        <ele>437.985</ele>
        <time>2018-11-24T09:36:34Z</time>
      </trkpt>
      <trkpt lat="41.889096" lon="0.495115">
        <ele>438.422</ele>
        <time>2018-11-24T09:36:35Z</time>
      </trkpt>
      <trkpt lat="41.889191" lon="0.494827">
        <ele>438.879</ele>
        <time>2018-11-24T09:36:36Z</time>
      </trkpt>
      <trkpt lat="41.889290" lon="0.494541">
        <ele>439.379</ele>
        <time>2018-11-24T09:36:37Z</time>
      </trkpt>
      <trkpt lat="41.889395" lon="0.494259">
        <ele>440.170</ele>
        <time>2018-11-24T09:36:38Z</time>
      </trkpt>
      <trkpt lat="41.889515" lon="0.493988">
        <ele>440.469</ele>
        <time>2018-11-24T09:36:39Z</time>
      </trkpt>
      <trkpt lat="41.889654" lon="0.493735">
        <ele>441.259</ele>
        <time>2018-11-24T09:36:40Z</time>
      </trkpt>
      <trkpt lat="41.889808" lon="0.493497">
        <ele>441.954</ele>
        <time>2018-11-24T09:36:41Z</time>
      </trkpt>
      <trkpt lat="41.889965" lon="0.493264">
        <ele>442.477</ele>
        <time>2018-11-24T09:36:42Z</time>
      </trkpt>
      <trkpt lat="41.890123" lon="0.493031">
        <ele>442.861</ele>
        <time>2018-11-24T09:36:43Z</time>
      </trkpt>
      <trkpt lat="41.890281" lon="0.492797">
        <ele>443.627</ele>
        <time>2018-11-24T09:36:44Z</time>
      </trkpt>
      <trkpt lat="41.890439" lon="0.492563">
        <ele>444.108</ele>
        <time>2018-11-24T09:36:45Z</time>
      </trkpt>
      <trkpt lat="41.890598" lon="0.492330">
        <ele>444.640</ele>
        <time>2018-11-24T09:36:46Z</time>
      </trkpt>
      <trkpt lat="41.890756" lon="0.492097">
        <ele>445.317</ele>
        <time>2018-11-24T09:36:47Z</time>
      </trkpt>
      <trkpt lat="41.890914" lon="0.491865">
        <ele>445.884</ele>
        <time>2018-11-24T09:36:48Z</time>
      </trkpt>
      <trkpt lat="41.891073" lon="0.491633">
        <ele>446.334</ele>
        <time>2018-11-24T09:36:49Z</time>
      </trkpt>
      <trkpt lat="41.891232" lon="0.491401">
        <ele>446.965</ele>
        <time>2018-11-24T09:36:50Z</time>
      </trkpt>
      <trkpt lat="41.891390" lon="0.491167">
        <ele>447.544</ele>
        <time>2018-11-24T09:36:51Z</time>
      </trkpt>
      <trkpt lat="41.891547" lon="0.490933">
        <ele>447.944</ele>
        <time>2018-11-24T09:36:52Z</time>
      </trkpt>
      <trkpt lat="41.891703" lon="0.490698">
        <ele>448.589</ele>
        <time>2018-11-24T09:36:53Z</time>
      </trkpt>
      <trkpt lat="41.891860" lon="0.490463">
        <ele>449.091</ele>
        <time>2018-11-24T09:36:54Z</time>
      </trkpt>
      <trkpt lat="41.892019" lon="0.490230">
        <ele>449.581</ele>
        <time>2018-11-24T09:36:55Z</time>
      </trkpt>
      <trkpt lat="41.892181" lon="0.490001">
        <ele>450.119</ele>
        <time>2018-11-24T09:36:56Z</time>
      </trkpt>
      <trkpt lat="41.892345" lon="0.489775">
        <ele>450.508</ele>
        <time>2018-11-24T09:36:57Z</time>
      </trkpt>
      <trkpt lat="41.892512" lon="0.489552">
        <ele>451.142</ele>
        <time>2018-11-24T09:36:58Z</time>
      </trkpt>
      <trkpt lat="41.892681" lon="0.489334">
        <ele>451.459</ele>
        <time>2018-11-24T09:36:59Z</time>
      </trkpt>
      <trkpt lat="41.892853" lon="0.489119">
        <ele>451.876</ele>
        <time>2018-11-24T09:37:00Z</time>
      </trkpt>
      <trkpt lat="41.893026" lon="0.488906">
        <ele>452.286</ele>
        <time>2018-11-24T09:37:01Z</time>
      </trkpt>
      <trkpt lat="41.893199" lon="0.488693">
        <ele>452.777</ele>
        <time>2018-11-24T09:37:02Z</time>
      </trkpt>
      <trkpt lat="41.893373" lon="0.488480">
        <ele>453.296</ele>
        <time>2018-11-24T09:37:03Z</time>
      </trkpt>
      <trkpt lat="41.893547" lon="0.488267">
        <ele>453.746</ele>
        <time>2018-11-24T09:37:04Z</time>
      </trkpt>
      <trkpt lat="41.893721" lon="0.488055">
        <ele>454.191</ele>
        <time>2018-11-24T09:37:05Z</time>
      </trkpt>
      <trkpt lat="41.893895" lon="0.487843">
        <ele>454.592</ele>
        <time>2018-11-24T09:37:06Z</time>
      </trkpt>
      <trkpt lat="41.894069" lon="0.487631">
        <ele>454.973</ele>
        <time>2018-11-24T09:37:07Z</time>
      </trkpt>
      <trkpt lat="41.894243" lon="0.487419">
        <ele>455.320</ele>
        <time>2018-11-24T09:37:08Z</time>
      </trkpt>
      <trkpt lat="41.894417" lon="0.487206">
        <ele>455.808</ele>
        <time>2018-11-24T09:37:09Z</time>
      </trkpt>
      <trkpt lat="41.894591" lon="0.486994">
        <ele>456.272</ele>
        <time>2018-11-24T09:37:10Z</time>
      </trkpt>
      <trkpt lat="41.894765" lon="0.486782">
        <ele>456.859</ele>
        <time>2018-11-24T09:37:11Z</time>
      </trkpt>
      <trkpt lat="41.894939" lon="0.486570">
        <ele>457.446</ele>
        <time>2018-11-24T09:37:12Z</time>
      </trkpt>
      <trkpt lat="41.895113" lon="0.486358">
        <ele>457.816</ele>
        <time>2018-11-24T09:37:13Z</time>
      </trkpt>
      <trkpt lat="41.895287" lon="0.486146">
        <ele>458.577</ele>
        <time>2018-11-24T09:37:14Z</time>
      </trkpt>
      <trkpt lat="41.895461" lon="0.485935">
        <ele>459.036</ele>
        <time>2018-11-24T09:37:15Z</time>
      </trkpt>
      <trkpt lat="41.895635" lon="0.485724">
        <ele>459.576</ele>
        <time>2018-11-24T09:37:16Z</time>
      </trkpt>
      <trkpt lat="41.895809" lon="0.485513">
        <ele>459.911</ele>
        <time>2018-11-24T09:37:17Z</time>
      </trkpt>
      <trkpt lat="41.895982" lon="0.485300">
        <ele>460.569</ele>
        <time>2018-11-24T09:37:18Z</time>
      </trkpt>
      <trkpt lat="41.896155" lon="0.485088">
        <ele>461.004</ele>
        <time>2018-11-24T09:37:19Z</time>
      </trkpt>
      <trkpt lat="41.896329" lon="0.484876">
        <ele>461.424</ele>
        <time>2018-11-24T09:37:20Z</time>
      </trkpt>
      <trkpt lat="41.896502" lon="0.484664">
        <ele>462.008</ele>
        <time>2018-11-24T09:37:21Z</time>
      </trkpt>
      <trkpt lat="41.896675" lon="0.484452">
        <ele>462.479</ele>
        <time>2018-11-24T09:37:22Z</time>
      </trkpt>
      <trkpt lat="41.896849" lon="0.484239">
        <ele>462.966</ele>
        <time>2018-11-24T09:37:23Z</time>
      </trkpt>
      <trkpt lat="41.897025" lon="0.484025">
        <ele>463.653</ele>
        <time>2018-11-24T09:37:24Z</time>
      </trkpt>
      <trkpt lat="41.897202" lon="0.483810">
        <ele>464.133</ele>
        <time>2018-11-24T09:37:25Z</time>
      </trkpt>
      <trkpt lat="41.897380" lon="0.483594">
        <ele>464.574</ele>
        <time>2018-11-24T09:37:26Z</time>
      </trkpt>
      <trkpt lat="41.897557" lon="0.483376">
        <ele>465.113</ele>
        <time>2018-11-24T09:37:27Z</time>
      </trkpt>
      <trkpt lat="41.897734" lon="0.483158">
        <ele>465.323</ele>
        <time>2018-11-24T09:37:28Z</time>
      </trkpt>
      <trkpt lat="41.897910" lon="0.482941">
        <ele>465.838</ele>
        <time>2018-11-24T09:37:29Z</time>
      </trkpt>
      <trkpt lat="41.898091" lon="0.482731">
        <ele>466.561</ele>
        <time>2018-11-24T09:37:30Z</time>
      </trkpt>
      <trkpt lat="41.898266" lon="0.482516">
        <ele>466.921</ele>
        <time>2018-11-24T09:37:31Z</time>
      </trkpt>
      <trkpt lat="41.898441" lon="0.482305">
        <ele>467.313</ele>
        <time>2018-11-24T09:37:32Z</time>
      </trkpt>
      <trkpt lat="41.898620" lon="0.482094">
        <ele>467.708</ele>
        <time>2018-11-24T09:37:33Z</time>
      </trkpt>
      <trkpt lat="41.898801" lon="0.481889">
        <ele>468.279</ele>
        <time>2018-11-24T09:37:34Z</time>
      </trkpt>
      <trkpt lat="41.898980" lon="0.481677">
        <ele>468.776</ele>
        <time>2018-11-24T09:37:35Z</time>
      </trkpt>
      <trkpt lat="41.899160" lon="0.481471">
        <ele>469.143</ele>
        <time>2018-11-24T09:37:36Z</time>
      </trkpt>
      <trkpt lat="41.899342" lon="0.481261">
        <ele>469.583</ele>
        <time>2018-11-24T09:37:37Z</time>
      </trkpt>
      <trkpt lat="41.899526" lon="0.481054">
        <ele>470.014</ele>
        <time>2018-11-24T09:37:38Z</time>
      </trkpt>
      <trkpt lat="41.899714" lon="0.480855">
        <ele>470.423</ele>
        <time>2018-11-24T09:37:39Z</time>
      </trkpt>
      <trkpt lat="41.899905" lon="0.480661">
        <ele>470.823</ele>
        <time>2018-11-24T09:37:40Z</time>
      </trkpt>
      <trkpt lat="41.900097" lon="0.480469">
        <ele>471.398</ele>
        <time>2018-11-24T09:37:41Z</time>
      </trkpt>
      <trkpt lat="41.900289" lon="0.480281">
        <ele>471.989</ele>
        <time>2018-11-24T09:37:42Z</time>
      </trkpt>
      <trkpt lat="41.900481" lon="0.480091">
        <ele>472.506</ele>
        <time>2018-11-24T09:37:43Z</time>
      </trkpt>
      <trkpt lat="41.900673" lon="0.479902">
        <ele>472.626</ele>
        <time>2018-11-24T09:37:44Z</time>
      </trkpt>
      <trkpt lat="41.900865" lon="0.479713">
        <ele>473.408</ele>
        <time>2018-11-24T09:37:45Z</time>
      </trkpt>
      <trkpt lat="41.901056" lon="0.479523">
        <ele>474.051</ele>
        <time>2018-11-24T09:37:46Z</time>
      </trkpt>
      <trkpt lat="41.901248" lon="0.479334">
        <ele>474.448</ele>
        <time>2018-11-24T09:37:47Z</time>
      </trkpt>
      <trkpt lat="41.901440" lon="0.479144">
        <ele>474.855</ele>
        <time>2018-11-24T09:37:48Z</time>
      </trkpt>
      <trkpt lat="41.901633" lon="0.478954">
        <ele>475.125</ele>
        <time>2018-11-24T09:37:49Z</time>
      </trkpt>
      <trkpt lat="41.901826" lon="0.478765">
        <ele>475.536</ele>
        <time>2018-11-24T09:37:50Z</time>
      </trkpt>
      <trkpt lat="41.902019" lon="0.478576">
        <ele>476.075</ele>
        <time>2018-11-24T09:37:51Z</time>
      </trkpt>
      <trkpt lat="41.902212" lon="0.478387">
        <ele>476.675</ele>
        <time>2018-11-24T09:37:52Z</time>
      </trkpt>
      <trkpt lat="41.902405" lon="0.478198">
        <ele>477.130</ele>
        <time>2018-11-24T09:37:53Z</time>
      </trkpt>
      <trkpt lat="41.902597" lon="0.478008">
        <ele>477.715</ele>
        <time>2018-11-24T09:37:54Z</time>
      </trkpt>
      <trkpt lat="41.902789" lon="0.477817">
        <ele>478.165</ele>
        <time>2018-11-24T09:37:55Z</time>
      </trkpt>
      <trkpt lat="41.902982" lon="0.477628">
        <ele>478.711</ele>
        <time>2018-11-24T09:37:56Z</time>
      </trkpt>
      <trkpt lat="41.903175" lon="0.477440">
        <ele>479.208</ele>
        <time>2018-11-24T09:37:57Z</time>
      </trkpt>
      <trkpt lat="41.903369" lon="0.477252">
        <ele>479.734</ele>
        <time>2018-11-24T09:37:58Z</time>
      </trkpt>
      <trkpt lat="41.903562" lon="0.477062">
        <ele>480.161</ele>
        <time>2018-11-24T09:37:59Z</time>
      </trkpt>
      <trkpt lat="41.903754" lon="0.476871">
        <ele>480.678</ele>
        <time>2018-11-24T09:38:00Z</time>
      </trkpt>
      <trkpt lat="41.903946" lon="0.476680">
        <ele>481.338</ele>
        <time>2018-11-24T09:38:01Z</time>
      </trkpt>
      <trkpt lat="41.904138" lon="0.476490">
        <ele>481.799</ele>
        <time>2018-11-24T09:38:02Z</time>
      </trkpt>
      <trkpt lat="41.904331" lon="0.476301">
        <ele>482.458</ele>
        <time>2018-11-24T09:38:03Z</time>
      </trkpt>
      <trkpt lat="41.904525" lon="0.476113">
        <ele>482.848</ele>
        <time>2018-11-24T09:38:04Z</time>
      </trkpt>
      <trkpt lat="41.904718" lon="0.475923">
        <ele>483.333</ele>
        <time>2018-11-24T09:38:05Z</time>
      </trkpt>
      <trkpt lat="41.904910" lon="0.475733">
        <ele>483.972</ele>
        <time>2018-11-24T09:38:06Z</time>
      </trkpt>
      <trkpt lat="41.905102" lon="0.475541">
        <ele>484.213</ele>
        <time>2018-11-24T09:38:07Z</time>
      </trkpt>
      <trkpt lat="41.905294" lon="0.475351">
        <ele>484.614</ele>
        <time>2018-11-24T09:38:08Z</time>
      </trkpt>
      <trkpt lat="41.905487" lon="0.475162">
        <ele>485.208</ele>
        <time>2018-11-24T09:38:09Z</time>
      </trkpt>
      <trkpt lat="41.905680" lon="0.474974">
        <ele>485.820</ele>
        <time>2018-11-24T09:38:10Z</time>
      </trkpt>
      <trkpt lat="41.905873" lon="0.474785">
        <ele>486.227</ele>
        <time>2018-11-24T09:38:11Z</time>
      </trkpt>
      <trkpt lat="41.906066" lon="0.474595">
        <ele>486.654</ele>
        <time>2018-11-24T09:38:12Z</time>
      </trkpt>
      <trkpt lat="41.906259" lon="0.474405">
        <ele>487.144</ele>
        <time>2018-11-24T09:38:13Z</time>
      </trkpt>
      <trkpt lat="41.906452" lon="0.474215">
        <ele>487.785</ele>
        <time>2018-11-24T09:38:14Z</time>
      </trkpt>
      <trkpt lat="41.906645" lon="0.474025">
        <ele>488.124</ele>
        <time>2018-11-24T09:38:15Z</time>
      </trkpt>
      <trkpt lat="41.906838" lon="0.473835">
        <ele>488.714</ele>
        <time>2018-11-24T09:38:16Z</time>
      </trkpt>
      <trkpt lat="41.907032" lon="0.473647">
        <ele>489.369</ele>
        <time>2018-11-24T09:38:17Z</time>
      </trkpt>
      <trkpt lat="41.907228" lon="0.473463">
        <ele>489.881</ele>
        <time>2018-11-24T09:38:18Z</time>
      </trkpt>
      <trkpt lat="41.907425" lon="0.473282">
        <ele>490.361</ele>
        <time>2018-11-24T09:38:19Z</time>
      </trkpt>
      <trkpt lat="41.907626" lon="0.473109">
        <ele>490.817</ele>
        <time>2018-11-24T09:38:20Z</time>
      </trkpt>
      <trkpt lat="41.907833" lon="0.472950">
        <ele>491.208</ele>
        <time>2018-11-24T09:38:21Z</time>
      </trkpt>
      <trkpt lat="41.908048" lon="0.472812">
        <ele>491.691</ele>
        <time>2018-11-24T09:38:22Z</time>
      </trkpt>
      <trkpt lat="41.908270" lon="0.472694">
        <ele>492.278</ele>
        <time>2018-11-24T09:38:23Z</time>
      </trkpt>
      <trkpt lat="41.908497" lon="0.472591">
        <ele>492.985</ele>
        <time>2018-11-24T09:38:24Z</time>
      </trkpt>
      <trkpt lat="41.908726" lon="0.472499">
        <ele>493.445</ele>
        <time>2018-11-24T09:38:25Z</time>
      </trkpt>
      <trkpt lat="41.908956" lon="0.472414">
        <ele>494.096</ele>
        <time>2018-11-24T09:38:26Z</time>
      </trkpt>
      <trkpt lat="41.909187" lon="0.472331">
        <ele>494.525</ele>
        <time>2018-11-24T09:38:27Z</time>
      </trkpt>
      <trkpt lat="41.909418" lon="0.472248">
        <ele>495.135</ele>
        <time>2018-11-24T09:38:28Z</time>
      </trkpt>
      <trkpt lat="41.909649" lon="0.472165">
        <ele>495.650</ele>
        <time>2018-11-24T09:38:29Z</time>
      </trkpt>
      <trkpt lat="41.909880" lon="0.472083">
        <ele>496.123</ele>
        <time>2018-11-24T09:38:30Z</time>
      </trkpt>
      <trkpt lat="41.910111" lon="0.472001">
        <ele>496.683</ele>
        <time>2018-11-24T09:38:31Z</time>
      </trkpt>
      <trkpt lat="41.910342" lon="0.471919">
        <ele>497.211</ele>
        <time>2018-11-24T09:38:32Z</time>
      </trkpt>
      <trkpt lat="41.910573" lon="0.471837">
        <ele>497.708</ele>
        <time>2018-11-24T09:38:33Z</time>
      </trkpt>
      <trkpt lat="41.910804" lon="0.471756">
        <ele>498.245</ele>
        <time>2018-11-24T09:38:34Z</time>
      </trkpt>
      <trkpt lat="41.911035" lon="0.471674">
        <ele>498.892</ele>
        <time>2018-11-24T09:38:35Z</time>
      </trkpt>
      <trkpt lat="41.911266" lon="0.471592">
        <ele>499.399</ele>
        <time>2018-11-24T09:38:36Z</time>
      </trkpt>
      <trkpt lat="41.911497" lon="0.471510">
        <ele>499.919</ele>
        <time>2018-11-24T09:38:37Z</time>
      </trkpt>
      <trkpt lat="41.911728" lon="0.471428">
        <ele>500.310</ele>
        <time>2018-11-24T09:38:38Z</time>
      </trkpt>
      <trkpt lat="41.911959" lon="0.471346">
        <ele>500.949</ele>
        <time>2018-11-24T09:38:39Z</time>
      </trkpt>
      <trkpt lat="41.912190" lon="0.471265">
        <ele>501.399</ele>
        <time>2018-11-24T09:38:40Z</time>
      </trkpt>
      <trkpt lat="41.912421" lon="0.471184">
        <ele>502.044</ele>
        <time>2018-11-24T09:38:41Z</time>
      </trkpt>
      <trkpt lat="41.912652" lon="0.471103">
        <ele>502.511</ele>
        <time>2018-11-24T09:38:42Z</time>
      </trkpt>
      <trkpt lat="41.912883" lon="0.471022">
        <ele>503.121</ele>
        <time>2018-11-24T09:38:43Z</time>
      </trkpt>
      <trkpt lat="41.913114" lon="0.470940">
        <ele>503.603</ele>
        <time>2018-11-24T09:38:44Z</time>
      </trkpt>
      <trkpt lat="41.913345" lon="0.470858">
        <ele>504.008</ele>
        <time>2018-11-24T09:38:45Z</time>
      </trkpt>
      <trkpt lat="41.913576" lon="0.470776">
        <ele>504.624</ele>
        <time>2018-11-24T09:38:46Z</time>
      </trkpt>
      <trkpt lat="41.913807" lon="0.470694">
        <ele>505.061</ele>
        <time>2018-11-24T09:38:47Z</time>
      </trkpt>
      <trkpt lat="41.914038" lon="0.470612">
        <ele>505.528</ele>
        <time>2018-11-24T09:38:48Z</time>
      </trkpt>
      <trkpt lat="41.914269" lon="0.470530">
        <ele>506.048</ele>
        <time>2018-11-24T09:38:49Z</time>
      </trkpt>
      <trkpt lat="41.914500" lon="0.470447">
        <ele>506.529</ele>
        <time>2018-11-24T09:38:50Z</time>
      </trkpt>
      <trkpt lat="41.914731" lon="0.470364">
        <ele>507.158</ele>
        <time>2018-11-24T09:38:51Z</time>
      </trkpt>
      <trkpt lat="41.914962" lon="0.470283">
        <ele>507.618</ele>
        <time>2018-11-24T09:38:52Z</time>
      </trkpt>
      <trkpt lat="41.915193" lon="0.470203">
        <ele>508.163</ele>
        <time>2018-11-24T09:38:53Z</time>
      </trkpt>
      <trkpt lat="41.915426" lon="0.470136">
        <ele>508.526</ele>
        <time>2018-11-24T09:38:54Z</time>
      </trkpt>
      <trkpt lat="41.915660" lon="0.470068">
        <ele>508.947</ele>
        <time>2018-11-24T09:38:55Z</time>
      </trkpt>
      <trkpt lat="41.915892" lon="0.469990">
        <ele>509.111</ele>
        <time>2018-11-24T09:38:56Z</time>
      </trkpt>
      <trkpt lat="41.916123" lon="0.469906">
        <ele>510.808</ele>
        <time>2018-11-24T09:38:57Z</time>
      </trkpt>
      <trkpt lat="41.916354" lon="0.469823">
        <ele>511.125</ele>
        <time>2018-11-24T09:38:58Z</time>
      </trkpt>
      <trkpt lat="41.916585" lon="0.469741">
        <ele>511.242</ele>
        <time>2018-11-24T09:38:59Z</time>
      </trkpt>
      <trkpt lat="41.916815" lon="0.469657">
        <ele>511.919</ele>
        <time>2018-11-24T09:39:00Z</time>
      </trkpt>
      <trkpt lat="41.917045" lon="0.469572">
        <ele>512.489</ele>
        <time>2018-11-24T09:39:01Z</time>
      </trkpt>
      <trkpt lat="41.917276" lon="0.469492">
        <ele>512.860</ele>
        <time>2018-11-24T09:39:02Z</time>
      </trkpt>
      <trkpt lat="41.917508" lon="0.469412">
        <ele>513.159</ele>
        <time>2018-11-24T09:39:03Z</time>
      </trkpt>
      <trkpt lat="41.917738" lon="0.469329">
        <ele>513.769</ele>
        <time>2018-11-24T09:39:04Z</time>
      </trkpt>
      <trkpt lat="41.917969" lon="0.469249">
        <ele>514.124</ele>
        <time>2018-11-24T09:39:05Z</time>
      </trkpt>
      <trkpt lat="41.918201" lon="0.469168">
        <ele>514.595</ele>
        <time>2018-11-24T09:39:06Z</time>
      </trkpt>
      <trkpt lat="41.918433" lon="0.469087">
        <ele>515.049</ele>
        <time>2018-11-24T09:39:07Z</time>
      </trkpt>
      <trkpt lat="41.918664" lon="0.469003">
        <ele>515.623</ele>
        <time>2018-11-24T09:39:08Z</time>
      </trkpt>
      <trkpt lat="41.918895" lon="0.468920">
        <ele>516.208</ele>
        <time>2018-11-24T09:39:09Z</time>
      </trkpt>
      <trkpt lat="41.919125" lon="0.468838">
        <ele>516.642</ele>
        <time>2018-11-24T09:39:10Z</time>
      </trkpt>
      <trkpt lat="41.919355" lon="0.468755">
        <ele>517.189</ele>
        <time>2018-11-24T09:39:11Z</time>
      </trkpt>
      <trkpt lat="41.919586" lon="0.468672">
        <ele>517.646</ele>
        <time>2018-11-24T09:39:12Z</time>
      </trkpt>
      <trkpt lat="41.919816" lon="0.468589">
        <ele>518.236</ele>
        <time>2018-11-24T09:39:13Z</time>
      </trkpt>
      <trkpt lat="41.920046" lon="0.468507">
        <ele>518.897</ele>
        <time>2018-11-24T09:39:14Z</time>
      </trkpt>
      <trkpt lat="41.920277" lon="0.468426">
        <ele>519.486</ele>
        <time>2018-11-24T09:39:15Z</time>
      </trkpt>
      <trkpt lat="41.920507" lon="0.468344">
        <ele>519.876</ele>
        <time>2018-11-24T09:39:16Z</time>
      </trkpt>
      <trkpt lat="41.920737" lon="0.468262">
        <ele>520.511</ele>
        <time>2018-11-24T09:39:17Z</time>
      </trkpt>
      <trkpt lat="41.920967" lon="0.468180">
        <ele>521.145</ele>
        <time>2018-11-24T09:39:18Z</time>
      </trkpt>
      <trkpt lat="41.921198" lon="0.468098">
        <ele>521.847</ele>
        <time>2018-11-24T09:39:19Z</time>
      </trkpt>
      <trkpt lat="41.921428" lon="0.468016">
        <ele>522.611</ele>
        <time>2018-11-24T09:39:20Z</time>
      </trkpt>
      <trkpt lat="41.921658" lon="0.467934">
        <ele>523.308</ele>
        <time>2018-11-24T09:39:21Z</time>
      </trkpt>
      <trkpt lat="41.921888" lon="0.467852">
        <ele>524.177</ele>
        <time>2018-11-24T09:39:22Z</time>
      </trkpt>
      <trkpt lat="41.922119" lon="0.467770">
        <ele>524.734</ele>
        <time>2018-11-24T09:39:23Z</time>
      </trkpt>
      <trkpt lat="41.922350" lon="0.467689">
        <ele>525.331</ele>
        <time>2018-11-24T09:39:24Z</time>
      </trkpt>
      <trkpt lat="41.922581" lon="0.467607">
        <ele>525.961</ele>
        <time>2018-11-24T09:39:25Z</time>
      </trkpt>
      <trkpt lat="41.922812" lon="0.467527">
        <ele>526.712</ele>
        <time>2018-11-24T09:39:26Z</time>
      </trkpt>
      <trkpt lat="41.923043" lon="0.467447">
        <ele>527.651</ele>
        <time>2018-11-24T09:39:27Z</time>
      </trkpt>
      <trkpt lat="41.923274" lon="0.467369">
        <ele>528.631</ele>
        <time>2018-11-24T09:39:28Z</time>
      </trkpt>
      <trkpt lat="41.923505" lon="0.467295">
        <ele>529.556</ele>
        <time>2018-11-24T09:39:29Z</time>
      </trkpt>
      <trkpt lat="41.923738" lon="0.467225">
        <ele>530.137</ele>
        <time>2018-11-24T09:39:30Z</time>
      </trkpt>
      <trkpt lat="41.923972" lon="0.467161">
        <ele>530.849</ele>
        <time>2018-11-24T09:39:31Z</time>
      </trkpt>
      <trkpt lat="41.924207" lon="0.467103">
        <ele>531.513</ele>
        <time>2018-11-24T09:39:32Z</time>
      </trkpt>
      <trkpt lat="41.924442" lon="0.467048">
        <ele>532.308</ele>
        <time>2018-11-24T09:39:33Z</time>
      </trkpt>
      <trkpt lat="41.924677" lon="0.466993">
        <ele>533.086</ele>
        <time>2018-11-24T09:39:34Z</time>
      </trkpt>
      <trkpt lat="41.924912" lon="0.466937">
        <ele>533.863</ele>
        <time>2018-11-24T09:39:35Z</time>
      </trkpt>
      <trkpt lat="41.925147" lon="0.466881">
        <ele>534.450</ele>
        <time>2018-11-24T09:39:36Z</time>
      </trkpt>
      <trkpt lat="41.925382" lon="0.466826">
        <ele>535.270</ele>
        <time>2018-11-24T09:39:37Z</time>
      </trkpt>
      <trkpt lat="41.925616" lon="0.466770">
        <ele>536.041</ele>
        <time>2018-11-24T09:39:38Z</time>
      </trkpt>
      <trkpt lat="41.925850" lon="0.466715">
        <ele>537.110</ele>
        <time>2018-11-24T09:39:39Z</time>
      </trkpt>
      <trkpt lat="41.926083" lon="0.466660">
        <ele>538.470</ele>
        <time>2018-11-24T09:39:40Z</time>
      </trkpt>
      <trkpt lat="41.926316" lon="0.466603">
        <ele>539.585</ele>
        <time>2018-11-24T09:39:41Z</time>
      </trkpt>
      <trkpt lat="41.926549" lon="0.466539">
        <ele>540.814</ele>
        <time>2018-11-24T09:39:42Z</time>
      </trkpt>
      <trkpt lat="41.926780" lon="0.466465">
        <ele>541.954</ele>
        <time>2018-11-24T09:39:43Z</time>
      </trkpt>
      <trkpt lat="41.927010" lon="0.466381">
        <ele>543.009</ele>
        <time>2018-11-24T09:39:44Z</time>
      </trkpt>
      <trkpt lat="41.927239" lon="0.466293">
        <ele>544.208</ele>
        <time>2018-11-24T09:39:45Z</time>
      </trkpt>
      <trkpt lat="41.927469" lon="0.466207">
        <ele>544.924</ele>
        <time>2018-11-24T09:39:46Z</time>
      </trkpt>
      <trkpt lat="41.927701" lon="0.466128">
        <ele>546.031</ele>
        <time>2018-11-24T09:39:47Z</time>
      </trkpt>
      <trkpt lat="41.927935" lon="0.466057">
        <ele>546.658</ele>
        <time>2018-11-24T09:39:48Z</time>
      </trkpt>
      <trkpt lat="41.928170" lon="0.465998">
        <ele>547.428</ele>
        <time>2018-11-24T09:39:49Z</time>
      </trkpt>
      <trkpt lat="41.928406" lon="0.465949">
        <ele>548.099</ele>
        <time>2018-11-24T09:39:50Z</time>
      </trkpt>
      <trkpt lat="41.928644" lon="0.465910">
        <ele>548.748</ele>
        <time>2018-11-24T09:39:51Z</time>
      </trkpt>
      <trkpt lat="41.928882" lon="0.465874">
        <ele>549.468</ele>
        <time>2018-11-24T09:39:52Z</time>
      </trkpt>
      <trkpt lat="41.929120" lon="0.465839">
        <ele>550.463</ele>
        <time>2018-11-24T09:39:53Z</time>
      </trkpt>
      <trkpt lat="41.929358" lon="0.465803">
        <ele>551.191</ele>
        <time>2018-11-24T09:39:54Z</time>
      </trkpt>
      <trkpt lat="41.929596" lon="0.465767">
        <ele>551.681</ele>
        <time>2018-11-24T09:39:55Z</time>
      </trkpt>
      <trkpt lat="41.929834" lon="0.465732">
        <ele>552.219</ele>
        <time>2018-11-24T09:39:56Z</time>
      </trkpt>
      <trkpt lat="41.930072" lon="0.465698">
        <ele>553.108</ele>
        <time>2018-11-24T09:39:57Z</time>
      </trkpt>
      <trkpt lat="41.930310" lon="0.465663">
        <ele>553.842</ele>
        <time>2018-11-24T09:39:58Z</time>
      </trkpt>
      <trkpt lat="41.930548" lon="0.465628">
        <ele>554.279</ele>
        <time>2018-11-24T09:39:59Z</time>
      </trkpt>
      <trkpt lat="41.930786" lon="0.465594">
        <ele>554.866</ele>
        <time>2018-11-24T09:40:00Z</time>
      </trkpt>
      <trkpt lat="41.931024" lon="0.465560">
        <ele>555.266</ele>
        <time>2018-11-24T09:40:01Z</time>
      </trkpt>
      <trkpt lat="41.931262" lon="0.465525">
        <ele>556.097</ele>
        <time>2018-11-24T09:40:02Z</time>
      </trkpt>
      <trkpt lat="41.931499" lon="0.465485">
        <ele>556.766</ele>
        <time>2018-11-24T09:40:03Z</time>
      </trkpt>
      <trkpt lat="41.931733" lon="0.465424">
        <ele>557.296</ele>
        <time>2018-11-24T09:40:04Z</time>
      </trkpt>
      <trkpt lat="41.931962" lon="0.465334">
        <ele>558.021</ele>
        <time>2018-11-24T09:40:05Z</time>
      </trkpt>
      <trkpt lat="41.932187" lon="0.465226">
        <ele>558.659</ele>
        <time>2018-11-24T09:40:06Z</time>
      </trkpt>
      <trkpt lat="41.932411" lon="0.465113">
        <ele>559.203</ele>
        <time>2018-11-24T09:40:07Z</time>
      </trkpt>
      <trkpt lat="41.932637" lon="0.465005">
        <ele>559.623</ele>
        <time>2018-11-24T09:40:08Z</time>
      </trkpt>
      <trkpt lat="41.932865" lon="0.464909">
        <ele>560.208</ele>
        <time>2018-11-24T09:40:09Z</time>
      </trkpt>
      <trkpt lat="41.933097" lon="0.464826">
        <ele>560.738</ele>
        <time>2018-11-24T09:40:10Z</time>
      </trkpt>
      <trkpt lat="41.933332" lon="0.464765">
        <ele>561.465</ele>
        <time>2018-11-24T09:40:11Z</time>
      </trkpt>
      <trkpt lat="41.933569" lon="0.464733">
        <ele>561.982</ele>
        <time>2018-11-24T09:40:12Z</time>
      </trkpt>
      <trkpt lat="41.933808" lon="0.464726">
        <ele>562.542</ele>
        <time>2018-11-24T09:40:13Z</time>
      </trkpt>
      <trkpt lat="41.934047" lon="0.464743">
        <ele>563.173</ele>
        <time>2018-11-24T09:40:14Z</time>
      </trkpt>
      <trkpt lat="41.934286" lon="0.464773">
        <ele>563.542</ele>
        <time>2018-11-24T09:40:15Z</time>
      </trkpt>
      <trkpt lat="41.934525" lon="0.464803">
        <ele>564.152</ele>
        <time>2018-11-24T09:40:16Z</time>
      </trkpt>
      <trkpt lat="41.934764" lon="0.464833">
        <ele>564.517</ele>
        <time>2018-11-24T09:40:17Z</time>
      </trkpt>
      <trkpt lat="41.935002" lon="0.464863">
        <ele>564.912</ele>
        <time>2018-11-24T09:40:18Z</time>
      </trkpt>
      <trkpt lat="41.935240" lon="0.464895">
        <ele>565.132</ele>
        <time>2018-11-24T09:40:19Z</time>
      </trkpt>
      <trkpt lat="41.935480" lon="0.464924">
        <ele>565.505</ele>
        <time>2018-11-24T09:40:20Z</time>
      </trkpt>
      <trkpt lat="41.935719" lon="0.464966">
        <ele>565.908</ele>
        <time>2018-11-24T09:40:21Z</time>
      </trkpt>
      <trkpt lat="41.935957" lon="0.465000">
        <ele>566.374</ele>
        <time>2018-11-24T09:40:22Z</time>
      </trkpt>
      <trkpt lat="41.936194" lon="0.465032">
        <ele>566.561</ele>
        <time>2018-11-24T09:40:23Z</time>
      </trkpt>
      <trkpt lat="41.936433" lon="0.465066">
        <ele>566.758</ele>
        <time>2018-11-24T09:40:24Z</time>
      </trkpt>
      <trkpt lat="41.936671" lon="0.465095">
        <ele>567.028</ele>
        <time>2018-11-24T09:40:25Z</time>
      </trkpt>
      <trkpt lat="41.936912" lon="0.465130">
        <ele>567.989</ele>
        <time>2018-11-24T09:40:26Z</time>
      </trkpt>
      <trkpt lat="41.937152" lon="0.465162">
        <ele>567.928</ele>
        <time>2018-11-24T09:40:27Z</time>
      </trkpt>
      <trkpt lat="41.937390" lon="0.465192">
        <ele>568.218</ele>
        <time>2018-11-24T09:40:28Z</time>
      </trkpt>
      <trkpt lat="41.937625" lon="0.465222">
        <ele>568.543</ele>
        <time>2018-11-24T09:40:29Z</time>
      </trkpt>
      <trkpt lat="41.937862" lon="0.465255">
        <ele>569.055</ele>
        <time>2018-11-24T09:40:30Z</time>
      </trkpt>
      <trkpt lat="41.938100" lon="0.465286">
        <ele>569.607</ele>
        <time>2018-11-24T09:40:31Z</time>
      </trkpt>
      <trkpt lat="41.938336" lon="0.465318">
        <ele>570.117</ele>
        <time>2018-11-24T09:40:32Z</time>
      </trkpt>
      <trkpt lat="41.938573" lon="0.465350">
        <ele>570.608</ele>
        <time>2018-11-24T09:40:33Z</time>
      </trkpt>
      <trkpt lat="41.938810" lon="0.465381">
        <ele>571.388</ele>
        <time>2018-11-24T09:40:34Z</time>
      </trkpt>
      <trkpt lat="41.939048" lon="0.465412">
        <ele>571.725</ele>
        <time>2018-11-24T09:40:35Z</time>
      </trkpt>
      <trkpt lat="41.939286" lon="0.465443">
        <ele>572.562</ele>
        <time>2018-11-24T09:40:36Z</time>
      </trkpt>
      <trkpt lat="41.939524" lon="0.465473">
        <ele>573.192</ele>
        <time>2018-11-24T09:40:37Z</time>
      </trkpt>
      <trkpt lat="41.939762" lon="0.465506">
        <ele>573.753</ele>
        <time>2018-11-24T09:40:38Z</time>
      </trkpt>
      <trkpt lat="41.940000" lon="0.465537">
        <ele>574.252</ele>
        <time>2018-11-24T09:40:39Z</time>
      </trkpt>
      <trkpt lat="41.940238" lon="0.465569">
        <ele>574.752</ele>
        <time>2018-11-24T09:40:40Z</time>
      </trkpt>
      <trkpt lat="41.940477" lon="0.465599">
        <ele>575.397</ele>
        <time>2018-11-24T09:40:41Z</time>
      </trkpt>
      <trkpt lat="41.940715" lon="0.465630">
        <ele>575.896</ele>
        <time>2018-11-24T09:40:42Z</time>
      </trkpt>
      <trkpt lat="41.940952" lon="0.465661">
        <ele>576.431</ele>
        <time>2018-11-24T09:40:43Z</time>
      </trkpt>
      <trkpt lat="41.941190" lon="0.465694">
        <ele>576.924</ele>
        <time>2018-11-24T09:40:44Z</time>
      </trkpt>
      <trkpt lat="41.941428" lon="0.465726">
        <ele>577.508</ele>
        <time>2018-11-24T09:40:45Z</time>
      </trkpt>
      <trkpt lat="41.941666" lon="0.465757">
        <ele>578.072</ele>
        <time>2018-11-24T09:40:46Z</time>
      </trkpt>
      <trkpt lat="41.941904" lon="0.465785">
        <ele>578.799</ele>
        <time>2018-11-24T09:40:47Z</time>
      </trkpt>
      <trkpt lat="41.942142" lon="0.465804">
        <ele>579.346</ele>
        <time>2018-11-24T09:40:48Z</time>
      </trkpt>
      <trkpt lat="41.942381" lon="0.465805">
        <ele>579.956</ele>
        <time>2018-11-24T09:40:49Z</time>
      </trkpt>
      <trkpt lat="41.942618" lon="0.465782">
        <ele>580.447</ele>
        <time>2018-11-24T09:40:50Z</time>
      </trkpt>
      <trkpt lat="41.942855" lon="0.465742">
        <ele>581.026</ele>
        <time>2018-11-24T09:40:51Z</time>
      </trkpt>
      <trkpt lat="41.943091" lon="0.465691">
        <ele>581.896</ele>
        <time>2018-11-24T09:40:52Z</time>
      </trkpt>
      <trkpt lat="41.943326" lon="0.465636">
        <ele>582.351</ele>
        <time>2018-11-24T09:40:53Z</time>
      </trkpt>
      <trkpt lat="41.943562" lon="0.465580">
        <ele>583.094</ele>
        <time>2018-11-24T09:40:54Z</time>
      </trkpt>
      <trkpt lat="41.943797" lon="0.465525">
        <ele>583.757</ele>
        <time>2018-11-24T09:40:55Z</time>
      </trkpt>
      <trkpt lat="41.944032" lon="0.465468">
        <ele>584.422</ele>
        <time>2018-11-24T09:40:56Z</time>
      </trkpt>
      <trkpt lat="41.944267" lon="0.465409">
        <ele>585.008</ele>
        <time>2018-11-24T09:40:57Z</time>
      </trkpt>
      <trkpt lat="41.944501" lon="0.465344">
        <ele>585.772</ele>
        <time>2018-11-24T09:40:58Z</time>
      </trkpt>
      <trkpt lat="41.944733" lon="0.465266">
        <ele>586.499</ele>
        <time>2018-11-24T09:40:59Z</time>
      </trkpt>
      <trkpt lat="41.944961" lon="0.465173">
        <ele>587.126</ele>
        <time>2018-11-24T09:41:00Z</time>
      </trkpt>
      <trkpt lat="41.945186" lon="0.465063">
        <ele>587.926</ele>
        <time>2018-11-24T09:41:01Z</time>
      </trkpt>
      <trkpt lat="41.945406" lon="0.464936">
        <ele>588.427</ele>
        <time>2018-11-24T09:41:02Z</time>
      </trkpt>
      <trkpt lat="41.945621" lon="0.464794">
        <ele>589.076</ele>
        <time>2018-11-24T09:41:03Z</time>
      </trkpt>
      <trkpt lat="41.945832" lon="0.464640">
        <ele>589.496</ele>
        <time>2018-11-24T09:41:04Z</time>
      </trkpt>
      <trkpt lat="41.946041" lon="0.464481">
        <ele>589.831</ele>
        <time>2018-11-24T09:41:05Z</time>
      </trkpt>
      <trkpt lat="41.946249" lon="0.464320">
        <ele>590.062</ele>
        <time>2018-11-24T09:41:06Z</time>
      </trkpt>
      <trkpt lat="41.946457" lon="0.464160">
        <ele>590.483</ele>
        <time>2018-11-24T09:41:07Z</time>
      </trkpt>
      <trkpt lat="41.946665" lon="0.463999">
        <ele>590.711</ele>
        <time>2018-11-24T09:41:08Z</time>
      </trkpt>
      <trkpt lat="41.946873" lon="0.463840">
        <ele>591.208</ele>
        <time>2018-11-24T09:41:09Z</time>
      </trkpt>
      <trkpt lat="41.947083" lon="0.463686">
        <ele>591.519</ele>
        <time>2018-11-24T09:41:10Z</time>
      </trkpt>
      <trkpt lat="41.947296" lon="0.463538">
        <ele>591.866</ele>
        <time>2018-11-24T09:41:11Z</time>
      </trkpt>
      <trkpt lat="41.947513" lon="0.463402">
        <ele>592.293</ele>
        <time>2018-11-24T09:41:12Z</time>
      </trkpt>
      <trkpt lat="41.947735" lon="0.463281">
        <ele>592.693</ele>
        <time>2018-11-24T09:41:13Z</time>
      </trkpt>
      <trkpt lat="41.947962" lon="0.463180">
        <ele>593.174</ele>
        <time>2018-11-24T09:41:14Z</time>
      </trkpt>
      <trkpt lat="41.948194" lon="0.463102">
        <ele>593.583</ele>
        <time>2018-11-24T09:41:15Z</time>
      </trkpt>
      <trkpt lat="41.948429" lon="0.463046">
        <ele>593.973</ele>
        <time>2018-11-24T09:41:16Z</time>
      </trkpt>
      <trkpt lat="41.948666" lon="0.463013">
        <ele>594.448</ele>
        <time>2018-11-24T09:41:17Z</time>
      </trkpt>
      <trkpt lat="41.948905" lon="0.462984">
        <ele>594.716</ele>
        <time>2018-11-24T09:41:18Z</time>
      </trkpt>
      <trkpt lat="41.949147" lon="0.462993">
        <ele>595.276</ele>
        <time>2018-11-24T09:41:19Z</time>
      </trkpt>
      <trkpt lat="41.949384" lon="0.463031">
        <ele>595.813</ele>
        <time>2018-11-24T09:41:20Z</time>
      </trkpt>
      <trkpt lat="41.949617" lon="0.463085">
        <ele>596.508</ele>
        <time>2018-11-24T09:41:21Z</time>
      </trkpt>
      <trkpt lat="41.949852" lon="0.463149">
        <ele>597.094</ele>
        <time>2018-11-24T09:41:22Z</time>
      </trkpt>
      <trkpt lat="41.950083" lon="0.463229">
        <ele>597.961</ele>
        <time>2018-11-24T09:41:23Z</time>
      </trkpt>
      <trkpt lat="41.950310" lon="0.463346">
        <ele>598.858</ele>
        <time>2018-11-24T09:41:24Z</time>
      </trkpt>
      <trkpt lat="41.950528" lon="0.463475">
        <ele>599.728</ele>
        <time>2018-11-24T09:41:25Z</time>
      </trkpt>
      <trkpt lat="41.950735" lon="0.463622">
        <ele>600.829</ele>
        <time>2018-11-24T09:41:26Z</time>
      </trkpt>
      <trkpt lat="41.950937" lon="0.463790">
        <ele>601.848</ele>
        <time>2018-11-24T09:41:27Z</time>
      </trkpt>
      <trkpt lat="41.951128" lon="0.463975">
        <ele>603.158</ele>
        <time>2018-11-24T09:41:28Z</time>
      </trkpt>
      <trkpt lat="41.951318" lon="0.464157">
        <ele>604.223</ele>
        <time>2018-11-24T09:41:29Z</time>
      </trkpt>
      <trkpt lat="41.951505" lon="0.464353">
        <ele>605.827</ele>
        <time>2018-11-24T09:41:30Z</time>
      </trkpt>
      <trkpt lat="41.951690" lon="0.464553">
        <ele>607.168</ele>
        <time>2018-11-24T09:41:31Z</time>
      </trkpt>
      <trkpt lat="41.951875" lon="0.464750">
        <ele>608.514</ele>
        <time>2018-11-24T09:41:32Z</time>
      </trkpt>
      <trkpt lat="41.952058" lon="0.464956">
        <ele>610.008</ele>
        <time>2018-11-24T09:41:33Z</time>
      </trkpt>
      <trkpt lat="41.952242" lon="0.465154">
        <ele>611.595</ele>
        <time>2018-11-24T09:41:34Z</time>
      </trkpt>
      <trkpt lat="41.952427" lon="0.465356">
        <ele>613.312</ele>
        <time>2018-11-24T09:41:35Z</time>
      </trkpt>
      <trkpt lat="41.952611" lon="0.465556">
        <ele>614.949</ele>
        <time>2018-11-24T09:41:36Z</time>
      </trkpt>
      <trkpt lat="41.952801" lon="0.465753">
        <ele>616.749</ele>
        <time>2018-11-24T09:41:37Z</time>
      </trkpt>
      <trkpt lat="41.952982" lon="0.465958">
        <ele>618.440</ele>
        <time>2018-11-24T09:41:38Z</time>
      </trkpt>
      <trkpt lat="41.953162" lon="0.466160">
        <ele>620.419</ele>
        <time>2018-11-24T09:41:39Z</time>
      </trkpt>
      <trkpt lat="41.953346" lon="0.466362">
        <ele>622.199</ele>
        <time>2018-11-24T09:41:40Z</time>
      </trkpt>
      <trkpt lat="41.953527" lon="0.466563">
        <ele>624.114</ele>
        <time>2018-11-24T09:41:41Z</time>
      </trkpt>
      <trkpt lat="41.953709" lon="0.466765">
        <ele>625.996</ele>
        <time>2018-11-24T09:41:42Z</time>
      </trkpt>
      <trkpt lat="41.953893" lon="0.466965">
        <ele>627.731</ele>
        <time>2018-11-24T09:41:43Z</time>
      </trkpt>
      <trkpt lat="41.954076" lon="0.467167">
        <ele>629.324</ele>
        <time>2018-11-24T09:41:44Z</time>
      </trkpt>
      <trkpt lat="41.954260" lon="0.467370">
        <ele>631.408</ele>
        <time>2018-11-24T09:41:45Z</time>
      </trkpt>
      <trkpt lat="41.954444" lon="0.467570">
        <ele>633.472</ele>
        <time>2018-11-24T09:41:46Z</time>
      </trkpt>
      <trkpt lat="41.954628" lon="0.467771">
        <ele>634.099</ele>
        <time>2018-11-24T09:41:47Z</time>
      </trkpt>
      <trkpt lat="41.954809" lon="0.467977">
        <ele>637.096</ele>
        <time>2018-11-24T09:41:48Z</time>
      </trkpt>
      <trkpt lat="41.954995" lon="0.468173">
        <ele>638.876</ele>
        <time>2018-11-24T09:41:49Z</time>
      </trkpt>
      <trkpt lat="41.955182" lon="0.468372">
        <ele>640.877</ele>
        <time>2018-11-24T09:41:50Z</time>
      </trkpt>
      <trkpt lat="41.955366" lon="0.468571">
        <ele>642.476</ele>
        <time>2018-11-24T09:41:51Z</time>
      </trkpt>
      <trkpt lat="41.955551" lon="0.468774">
        <ele>644.326</ele>
        <time>2018-11-24T09:41:52Z</time>
      </trkpt>
      <trkpt lat="41.955732" lon="0.468983">
        <ele>646.031</ele>
        <time>2018-11-24T09:41:53Z</time>
      </trkpt>
      <trkpt lat="41.955910" lon="0.469196">
        <ele>648.016</ele>
        <time>2018-11-24T09:41:54Z</time>
      </trkpt>
      <trkpt lat="41.956089" lon="0.469404">
        <ele>650.176</ele>
        <time>2018-11-24T09:41:55Z</time>
      </trkpt>
      <trkpt lat="41.956270" lon="0.469612">
        <ele>651.713</ele>
        <time>2018-11-24T09:41:56Z</time>
      </trkpt>
      <trkpt lat="41.956451" lon="0.469817">
        <ele>653.908</ele>
        <time>2018-11-24T09:41:57Z</time>
      </trkpt>
      <trkpt lat="41.956636" lon="0.470019">
        <ele>655.994</ele>
        <time>2018-11-24T09:41:58Z</time>
      </trkpt>
      <trkpt lat="41.956819" lon="0.470221">
        <ele>657.621</ele>
        <time>2018-11-24T09:41:59Z</time>
      </trkpt>
      <trkpt lat="41.957002" lon="0.470426">
        <ele>659.128</ele>
        <time>2018-11-24T09:42:00Z</time>
      </trkpt>
      <trkpt lat="41.957186" lon="0.470629">
        <ele>661.118</ele>
        <time>2018-11-24T09:42:01Z</time>
      </trkpt>
      <trkpt lat="41.957370" lon="0.470832">
        <ele>663.219</ele>
        <time>2018-11-24T09:42:02Z</time>
      </trkpt>
      <trkpt lat="41.957553" lon="0.471038">
        <ele>664.968</ele>
        <time>2018-11-24T09:42:03Z</time>
      </trkpt>
      <trkpt lat="41.957737" lon="0.471243">
        <ele>667.088</ele>
        <time>2018-11-24T09:42:04Z</time>
      </trkpt>
      <trkpt lat="41.957921" lon="0.471446">
        <ele>668.623</ele>
        <time>2018-11-24T09:42:05Z</time>
      </trkpt>
      <trkpt lat="41.958105" lon="0.471648">
        <ele>670.635</ele>
        <time>2018-11-24T09:42:06Z</time>
      </trkpt>
      <trkpt lat="41.958289" lon="0.471849">
        <ele>672.486</ele>
        <time>2018-11-24T09:42:07Z</time>
      </trkpt>
      <trkpt lat="41.958472" lon="0.472053">
        <ele>674.414</ele>
        <time>2018-11-24T09:42:08Z</time>
      </trkpt>
      <trkpt lat="41.958654" lon="0.472258">
        <ele>676.408</ele>
        <time>2018-11-24T09:42:09Z</time>
      </trkpt>
      <trkpt lat="41.958838" lon="0.472461">
        <ele>678.256</ele>
        <time>2018-11-24T09:42:10Z</time>
      </trkpt>
      <trkpt lat="41.959018" lon="0.472669">
        <ele>680.053</ele>
        <time>2018-11-24T09:42:11Z</time>
      </trkpt>
      <trkpt lat="41.959201" lon="0.472875">
        <ele>681.620</ele>
        <time>2018-11-24T09:42:12Z</time>
      </trkpt>
      <trkpt lat="41.959381" lon="0.473084">
        <ele>683.780</ele>
        <time>2018-11-24T09:42:13Z</time>
      </trkpt>
      <trkpt lat="41.959558" lon="0.473295">
        <ele>685.461</ele>
        <time>2018-11-24T09:42:14Z</time>
      </trkpt>
      <trkpt lat="41.959733" lon="0.473512">
        <ele>687.870</ele>
        <time>2018-11-24T09:42:15Z</time>
      </trkpt>
      <trkpt lat="41.959904" lon="0.473735">
        <ele>689.420</ele>
        <time>2018-11-24T09:42:16Z</time>
      </trkpt>
      <trkpt lat="41.960072" lon="0.473960">
        <ele>691.275</ele>
        <time>2018-11-24T09:42:17Z</time>
      </trkpt>
      <trkpt lat="41.960241" lon="0.474186">
        <ele>692.976</ele>
        <time>2018-11-24T09:42:18Z</time>
      </trkpt>
      <trkpt lat="41.960405" lon="0.474423">
        <ele>695.090</ele>
        <time>2018-11-24T09:42:19Z</time>
      </trkpt>
      <trkpt lat="41.960567" lon="0.474659">
        <ele>697.019</ele>
        <time>2018-11-24T09:42:20Z</time>
      </trkpt>
      <trkpt lat="41.960727" lon="0.474899">
        <ele>698.708</ele>
        <time>2018-11-24T09:42:21Z</time>
      </trkpt>
      <trkpt lat="41.960887" lon="0.475143">
        <ele>700.740</ele>
        <time>2018-11-24T09:42:22Z</time>
      </trkpt>
      <trkpt lat="41.961044" lon="0.475382">
        <ele>702.557</ele>
        <time>2018-11-24T09:42:23Z</time>
      </trkpt>
      <trkpt lat="41.961200" lon="0.475627">
        <ele>704.554</ele>
        <time>2018-11-24T09:42:24Z</time>
      </trkpt>
      <trkpt lat="41.961354" lon="0.475871">
        <ele>706.344</ele>
        <time>2018-11-24T09:42:25Z</time>
      </trkpt>
      <trkpt lat="41.961505" lon="0.476120">
        <ele>708.385</ele>
        <time>2018-11-24T09:42:26Z</time>
      </trkpt>
      <trkpt lat="41.961653" lon="0.476369">
        <ele>709.964</ele>
        <time>2018-11-24T09:42:27Z</time>
      </trkpt>
      <trkpt lat="41.961802" lon="0.476618">
        <ele>711.944</ele>
        <time>2018-11-24T09:42:28Z</time>
      </trkpt>
      <trkpt lat="41.961951" lon="0.476868">
        <ele>713.639</ele>
        <time>2018-11-24T09:42:29Z</time>
      </trkpt>
      <trkpt lat="41.962100" lon="0.477117">
        <ele>715.567</ele>
        <time>2018-11-24T09:42:30Z</time>
      </trkpt>
      <trkpt lat="41.962249" lon="0.477366">
        <ele>717.581</ele>
        <time>2018-11-24T09:42:31Z</time>
      </trkpt>
      <trkpt lat="41.962398" lon="0.477614">
        <ele>719.219</ele>
        <time>2018-11-24T09:42:32Z</time>
      </trkpt>
      <trkpt lat="41.962547" lon="0.477864">
        <ele>721.308</ele>
        <time>2018-11-24T09:42:33Z</time>
      </trkpt>
      <trkpt lat="41.962695" lon="0.478113">
        <ele>723.259</ele>
        <time>2018-11-24T09:42:34Z</time>
      </trkpt>
      <trkpt lat="41.962844" lon="0.478361">
        <ele>725.116</ele>
        <time>2018-11-24T09:42:35Z</time>
      </trkpt>
      <trkpt lat="41.962995" lon="0.478606">
        <ele>726.713</ele>
        <time>2018-11-24T09:42:36Z</time>
      </trkpt>
      <trkpt lat="41.963148" lon="0.478850">
        <ele>728.513</ele>
        <time>2018-11-24T09:42:37Z</time>
      </trkpt>
      <trkpt lat="41.963305" lon="0.479089">
        <ele>730.694</ele>
        <time>2018-11-24T09:42:38Z</time>
      </trkpt>
      <trkpt lat="41.963471" lon="0.479318">
        <ele>732.313</ele>
        <time>2018-11-24T09:42:39Z</time>
      </trkpt>
      <trkpt lat="41.963649" lon="0.479531">
        <ele>734.043</ele>
        <time>2018-11-24T09:42:40Z</time>
      </trkpt>
      <trkpt lat="41.963838" lon="0.479729">
        <ele>735.468</ele>
        <time>2018-11-24T09:42:41Z</time>
      </trkpt>
      <trkpt lat="41.964033" lon="0.479912">
        <ele>736.937</ele>
        <time>2018-11-24T09:42:42Z</time>
      </trkpt>
      <trkpt lat="41.964237" lon="0.480081">
        <ele>738.249</ele>
        <time>2018-11-24T09:42:43Z</time>
      </trkpt>
      <trkpt lat="41.964447" lon="0.480235">
        <ele>739.813</ele>
        <time>2018-11-24T09:42:44Z</time>
      </trkpt>
      <trkpt lat="41.964662" lon="0.480375">
        <ele>741.308</ele>
        <time>2018-11-24T09:42:45Z</time>
      </trkpt>
      <trkpt lat="41.964885" lon="0.480491">
        <ele>742.976</ele>
        <time>2018-11-24T09:42:46Z</time>
      </trkpt>
      <trkpt lat="41.965112" lon="0.480588">
        <ele>744.563</ele>
        <time>2018-11-24T09:42:47Z</time>
      </trkpt>
      <trkpt lat="41.965342" lon="0.480672">
        <ele>745.930</ele>
        <time>2018-11-24T09:42:48Z</time>
      </trkpt>
      <trkpt lat="41.965575" lon="0.480741">
        <ele>747.710</ele>
        <time>2018-11-24T09:42:49Z</time>
      </trkpt>
      <trkpt lat="41.965809" lon="0.480804">
        <ele>749.081</ele>
        <time>2018-11-24T09:42:50Z</time>
      </trkpt>
      <trkpt lat="41.966044" lon="0.480865">
        <ele>750.470</ele>
        <time>2018-11-24T09:42:51Z</time>
      </trkpt>
      <trkpt lat="41.966279" lon="0.480927">
        <ele>751.780</ele>
        <time>2018-11-24T09:42:52Z</time>
      </trkpt>
      <trkpt lat="41.966513" lon="0.480988">
        <ele>753.255</ele>
        <time>2018-11-24T09:42:53Z</time>
      </trkpt>
      <trkpt lat="41.966747" lon="0.481048">
        <ele>754.371</ele>
        <time>2018-11-24T09:42:54Z</time>
      </trkpt>
      <trkpt lat="41.966981" lon="0.481109">
        <ele>755.941</ele>
        <time>2018-11-24T09:42:55Z</time>
      </trkpt>
      <trkpt lat="41.967215" lon="0.481171">
        <ele>757.215</ele>
        <time>2018-11-24T09:42:56Z</time>
      </trkpt>
      <trkpt lat="41.967450" lon="0.481231">
        <ele>758.808</ele>
        <time>2018-11-24T09:42:57Z</time>
      </trkpt>
      <trkpt lat="41.967684" lon="0.481291">
        <ele>760.320</ele>
        <time>2018-11-24T09:42:58Z</time>
      </trkpt>
      <trkpt lat="41.967918" lon="0.481351">
        <ele>761.457</ele>
        <time>2018-11-24T09:42:59Z</time>
      </trkpt>
      <trkpt lat="41.968153" lon="0.481411">
        <ele>762.834</ele>
        <time>2018-11-24T09:43:00Z</time>
      </trkpt>
      <trkpt lat="41.968387" lon="0.481472">
        <ele>764.644</ele>
        <time>2018-11-24T09:43:01Z</time>
      </trkpt>
      <trkpt lat="41.968621" lon="0.481533">
        <ele>766.865</ele>
        <time>2018-11-24T09:43:02Z</time>
      </trkpt>
      <trkpt lat="41.968855" lon="0.481594">
        <ele>767.524</ele>
        <time>2018-11-24T09:43:03Z</time>
      </trkpt>
      <trkpt lat="41.969089" lon="0.481655">
        <ele>768.614</ele>
        <time>2018-11-24T09:43:04Z</time>
      </trkpt>
      <trkpt lat="41.969323" lon="0.481716">
        <ele>770.149</ele>
        <time>2018-11-24T09:43:05Z</time>
      </trkpt>
      <trkpt lat="41.969557" lon="0.481777">
        <ele>771.489</ele>
        <time>2018-11-24T09:43:06Z</time>
      </trkpt>
      <trkpt lat="41.969792" lon="0.481837">
        <ele>772.806</ele>
        <time>2018-11-24T09:43:07Z</time>
      </trkpt>
      <trkpt lat="41.970028" lon="0.481896">
        <ele>774.126</ele>
        <time>2018-11-24T09:43:08Z</time>
      </trkpt>
      <trkpt lat="41.970264" lon="0.481946">
        <ele>775.508</ele>
        <time>2018-11-24T09:43:09Z</time>
      </trkpt>
      <trkpt lat="41.970498" lon="0.482019">
        <ele>776.711</ele>
        <time>2018-11-24T09:43:10Z</time>
      </trkpt>
      <trkpt lat="41.970726" lon="0.482109">
        <ele>778.138</ele>
        <time>2018-11-24T09:43:11Z</time>
      </trkpt>
      <trkpt lat="41.970948" lon="0.482220">
        <ele>779.245</ele>
        <time>2018-11-24T09:43:12Z</time>
      </trkpt>
      <trkpt lat="41.971165" lon="0.482343">
        <ele>780.815</ele>
        <time>2018-11-24T09:43:13Z</time>
      </trkpt>
      <trkpt lat="41.971381" lon="0.482481">
        <ele>782.376</ele>
        <time>2018-11-24T09:43:14Z</time>
      </trkpt>
      <trkpt lat="41.971589" lon="0.482635">
        <ele>783.615</ele>
        <time>2018-11-24T09:43:15Z</time>
      </trkpt>
      <trkpt lat="41.971793" lon="0.482804">
        <ele>785.135</ele>
        <time>2018-11-24T09:43:16Z</time>
      </trkpt>
      <trkpt lat="41.971992" lon="0.482984">
        <ele>786.440</ele>
        <time>2018-11-24T09:43:17Z</time>
      </trkpt>
      <trkpt lat="41.972189" lon="0.483160">
        <ele>787.918</ele>
        <time>2018-11-24T09:43:18Z</time>
      </trkpt>
      <trkpt lat="41.972388" lon="0.483349">
        <ele>789.198</ele>
        <time>2018-11-24T09:43:19Z</time>
      </trkpt>
      <trkpt lat="41.972579" lon="0.483543">
        <ele>790.517</ele>
        <time>2018-11-24T09:43:20Z</time>
      </trkpt>
      <trkpt lat="41.972769" lon="0.483734">
        <ele>791.908</ele>
        <time>2018-11-24T09:43:21Z</time>
      </trkpt>
      <trkpt lat="41.972961" lon="0.483922">
        <ele>793.474</ele>
        <time>2018-11-24T09:43:22Z</time>
      </trkpt>
      <trkpt lat="41.973155" lon="0.484110">
        <ele>794.661</ele>
        <time>2018-11-24T09:43:23Z</time>
      </trkpt>
      <trkpt lat="41.973349" lon="0.484299">
        <ele>795.598</ele>
        <time>2018-11-24T09:43:24Z</time>
      </trkpt>
      <trkpt lat="41.973543" lon="0.484486">
        <ele>796.688</ele>
        <time>2018-11-24T09:43:25Z</time>
      </trkpt>
      <trkpt lat="41.973738" lon="0.484676">
        <ele>797.259</ele>
        <time>2018-11-24T09:43:26Z</time>
      </trkpt>
      <trkpt lat="41.973935" lon="0.484864">
        <ele>798.048</ele>
        <time>2018-11-24T09:43:27Z</time>
      </trkpt>
      <trkpt lat="41.974129" lon="0.485054">
        <ele>798.678</ele>
        <time>2018-11-24T09:43:28Z</time>
      </trkpt>
      <trkpt lat="41.974321" lon="0.485246">
        <ele>798.983</ele>
        <time>2018-11-24T09:43:29Z</time>
      </trkpt>
      <trkpt lat="41.974519" lon="0.485440">
        <ele>799.249</ele>
        <time>2018-11-24T09:43:30Z</time>
      </trkpt>
      <trkpt lat="41.974711" lon="0.485634">
        <ele>799.302</ele>
        <time>2018-11-24T09:43:31Z</time>
      </trkpt>
      <trkpt lat="41.974892" lon="0.485821">
        <ele>798.922</ele>
        <time>2018-11-24T09:43:32Z</time>
      </trkpt>
      <trkpt lat="41.975069" lon="0.486006">
        <ele>798.608</ele>
        <time>2018-11-24T09:43:33Z</time>
      </trkpt>
      <trkpt lat="41.975243" lon="0.486186">
        <ele>798.457</ele>
        <time>2018-11-24T09:43:34Z</time>
      </trkpt>
      <trkpt lat="41.975417" lon="0.486369">
        <ele>798.014</ele>
        <time>2018-11-24T09:43:35Z</time>
      </trkpt>
      <trkpt lat="41.975589" lon="0.486547">
        <ele>797.361</ele>
        <time>2018-11-24T09:43:36Z</time>
      </trkpt>
      <trkpt lat="41.975764" lon="0.486727">
        <ele>796.821</ele>
        <time>2018-11-24T09:43:37Z</time>
      </trkpt>
      <trkpt lat="41.975947" lon="0.486910">
        <ele>796.342</ele>
        <time>2018-11-24T09:43:38Z</time>
      </trkpt>
      <trkpt lat="41.976130" lon="0.487096">
        <ele>795.851</ele>
        <time>2018-11-24T09:43:39Z</time>
      </trkpt>
      <trkpt lat="41.976313" lon="0.487289">
        <ele>794.851</ele>
        <time>2018-11-24T09:43:40Z</time>
      </trkpt>
      <trkpt lat="41.976491" lon="0.487495">
        <ele>793.856</ele>
        <time>2018-11-24T09:43:41Z</time>
      </trkpt>
      <trkpt lat="41.976661" lon="0.487717">
        <ele>792.849</ele>
        <time>2018-11-24T09:43:42Z</time>
      </trkpt>
      <trkpt lat="41.976822" lon="0.487946">
        <ele>791.702</ele>
        <time>2018-11-24T09:43:43Z</time>
      </trkpt>
      <trkpt lat="41.976968" lon="0.488193">
        <ele>790.722</ele>
        <time>2018-11-24T09:43:44Z</time>
      </trkpt>
      <trkpt lat="41.977109" lon="0.488440">
        <ele>789.008</ele>
        <time>2018-11-24T09:43:45Z</time>
      </trkpt>
      <trkpt lat="41.977247" lon="0.488680">
        <ele>787.617</ele>
        <time>2018-11-24T09:43:46Z</time>
      </trkpt>
      <trkpt lat="41.977384" lon="0.488907">
        <ele>785.934</ele>
        <time>2018-11-24T09:43:47Z</time>
      </trkpt>
      <trkpt lat="41.977519" lon="0.489121">
        <ele>784.611</ele>
        <time>2018-11-24T09:43:48Z</time>
      </trkpt>
      <trkpt lat="41.977666" lon="0.489305">
        <ele>783.171</ele>
        <time>2018-11-24T09:43:49Z</time>
      </trkpt>
      <trkpt lat="41.977824" lon="0.489472">
        <ele>784.932</ele>
        <time>2018-11-24T09:43:50Z</time>
      </trkpt>
      <trkpt lat="41.977986" lon="0.489624">
        <ele>781.481</ele>
        <time>2018-11-24T09:43:51Z</time>
      </trkpt>
      <trkpt lat="41.978151" lon="0.489757">
        <ele>779.841</ele>
        <time>2018-11-24T09:43:52Z</time>
      </trkpt>
      <trkpt lat="41.978328" lon="0.489877">
        <ele>778.746</ele>
        <time>2018-11-24T09:43:53Z</time>
      </trkpt>
      <trkpt lat="41.978513" lon="0.489979">
        <ele>777.475</ele>
        <time>2018-11-24T09:43:54Z</time>
      </trkpt>
      <trkpt lat="41.978702" lon="0.490067">
        <ele>776.328</ele>
        <time>2018-11-24T09:43:55Z</time>
      </trkpt>
      <trkpt lat="41.978893" lon="0.490134">
        <ele>775.020</ele>
        <time>2018-11-24T09:43:56Z</time>
      </trkpt>
      <trkpt lat="41.979081" lon="0.490180">
        <ele>773.908</ele>
        <time>2018-11-24T09:43:57Z</time>
      </trkpt>
      <trkpt lat="41.979263" lon="0.490209">
        <ele>772.560</ele>
        <time>2018-11-24T09:43:58Z</time>
      </trkpt>
      <trkpt lat="41.979447" lon="0.490218">
        <ele>771.387</ele>
        <time>2018-11-24T09:43:59Z</time>
      </trkpt>
      <trkpt lat="41.979638" lon="0.490212">
        <ele>770.334</ele>
        <time>2018-11-24T09:44:00Z</time>
      </trkpt>
      <trkpt lat="41.979830" lon="0.490197">
        <ele>769.384</ele>
        <time>2018-11-24T09:44:01Z</time>
      </trkpt>
      <trkpt lat="41.980028" lon="0.490178">
        <ele>768.345</ele>
        <time>2018-11-24T09:44:02Z</time>
      </trkpt>
      <trkpt lat="41.980232" lon="0.490160">
        <ele>767.114</ele>
        <time>2018-11-24T09:44:03Z</time>
      </trkpt>
      <trkpt lat="41.980441" lon="0.490142">
        <ele>766.194</ele>
        <time>2018-11-24T09:44:04Z</time>
      </trkpt>
      <trkpt lat="41.980654" lon="0.490124">
        <ele>765.229</ele>
        <time>2018-11-24T09:44:05Z</time>
      </trkpt>
      <trkpt lat="41.980873" lon="0.490105">
        <ele>764.371</ele>
        <time>2018-11-24T09:44:06Z</time>
      </trkpt>
      <trkpt lat="41.981102" lon="0.490085">
        <ele>763.841</ele>
        <time>2018-11-24T09:44:07Z</time>
      </trkpt>
      <trkpt lat="41.981332" lon="0.490062">
        <ele>763.315</ele>
        <time>2018-11-24T09:44:08Z</time>
      </trkpt>
      <trkpt lat="41.981562" lon="0.490040">
        <ele>762.608</ele>
        <time>2018-11-24T09:44:09Z</time>
      </trkpt>
      <trkpt lat="41.981796" lon="0.490018">
        <ele>762.280</ele>
        <time>2018-11-24T09:44:10Z</time>
      </trkpt>
      <trkpt lat="41.982030" lon="0.489994">
        <ele>761.897</ele>
        <time>2018-11-24T09:44:11Z</time>
      </trkpt>
      <trkpt lat="41.982264" lon="0.489971">
        <ele>761.554</ele>
        <time>2018-11-24T09:44:12Z</time>
      </trkpt>
      <trkpt lat="41.982500" lon="0.489949">
        <ele>761.334</ele>
        <time>2018-11-24T09:44:13Z</time>
      </trkpt>
      <trkpt lat="41.982737" lon="0.489927">
        <ele>761.125</ele>
        <time>2018-11-24T09:44:14Z</time>
      </trkpt>
      <trkpt lat="41.982974" lon="0.489908">
        <ele>761.164</ele>
        <time>2018-11-24T09:44:15Z</time>
      </trkpt>
      <trkpt lat="41.983210" lon="0.489889">
        <ele>761.254</ele>
        <time>2018-11-24T09:44:16Z</time>
      </trkpt>
      <trkpt lat="41.983447" lon="0.489869">
        <ele>761.469</ele>
        <time>2018-11-24T09:44:17Z</time>
      </trkpt>
      <trkpt lat="41.983685" lon="0.489847">
        <ele>761.532</ele>
        <time>2018-11-24T09:44:18Z</time>
      </trkpt>
      <trkpt lat="41.983922" lon="0.489821">
        <ele>761.992</ele>
        <time>2018-11-24T09:44:19Z</time>
      </trkpt>
      <trkpt lat="41.984158" lon="0.489783">
        <ele>762.311</ele>
        <time>2018-11-24T09:44:20Z</time>
      </trkpt>
      <trkpt lat="41.984392" lon="0.489738">
        <ele>762.608</ele>
        <time>2018-11-24T09:44:21Z</time>
      </trkpt>
      <trkpt lat="41.984620" lon="0.489654">
        <ele>762.916</ele>
        <time>2018-11-24T09:44:22Z</time>
      </trkpt>
      <trkpt lat="41.984845" lon="0.489542">
        <ele>763.583</ele>
        <time>2018-11-24T09:44:23Z</time>
      </trkpt>
      <trkpt lat="41.985062" lon="0.489412">
        <ele>764.290</ele>
        <time>2018-11-24T09:44:24Z</time>
      </trkpt>
      <trkpt lat="41.985275" lon="0.489280">
        <ele>764.940</ele>
        <time>2018-11-24T09:44:25Z</time>
      </trkpt>
      <trkpt lat="41.985473" lon="0.489099">
        <ele>766.121</ele>
        <time>2018-11-24T09:44:26Z</time>
      </trkpt>
      <trkpt lat="41.985673" lon="0.488921">
        <ele>767.120</ele>
        <time>2018-11-24T09:44:27Z</time>
      </trkpt>
      <trkpt lat="41.985872" lon="0.488741">
        <ele>768.190</ele>
        <time>2018-11-24T09:44:28Z</time>
      </trkpt>
      <trkpt lat="41.986071" lon="0.488565">
        <ele>769.095</ele>
        <time>2018-11-24T09:44:29Z</time>
      </trkpt>
      <trkpt lat="41.986273" lon="0.488392">
        <ele>770.026</ele>
        <time>2018-11-24T09:44:30Z</time>
      </trkpt>
      <trkpt lat="41.986474" lon="0.488219">
        <ele>770.947</ele>
        <time>2018-11-24T09:44:31Z</time>
      </trkpt>
      <trkpt lat="41.986675" lon="0.488041">
        <ele>772.011</ele>
        <time>2018-11-24T09:44:32Z</time>
      </trkpt>
      <trkpt lat="41.986874" lon="0.487865">
        <ele>773.108</ele>
        <time>2018-11-24T09:44:33Z</time>
      </trkpt>
      <trkpt lat="41.987074" lon="0.487687">
        <ele>774.175</ele>
        <time>2018-11-24T09:44:34Z</time>
      </trkpt>
      <trkpt lat="41.987273" lon="0.487512">
        <ele>775.252</ele>
        <time>2018-11-24T09:44:35Z</time>
      </trkpt>
      <trkpt lat="41.987473" lon="0.487338">
        <ele>776.249</ele>
        <time>2018-11-24T09:44:36Z</time>
      </trkpt>
      <trkpt lat="41.987674" lon="0.487165">
        <ele>777.619</ele>
        <time>2018-11-24T09:44:37Z</time>
      </trkpt>
      <trkpt lat="41.987877" lon="0.486997">
        <ele>778.630</ele>
        <time>2018-11-24T09:44:38Z</time>
      </trkpt>
      <trkpt lat="41.988084" lon="0.486839">
        <ele>779.739</ele>
        <time>2018-11-24T09:44:39Z</time>
      </trkpt>
      <trkpt lat="41.988298" lon="0.486698">
        <ele>780.619</ele>
        <time>2018-11-24T09:44:40Z</time>
      </trkpt>
      <trkpt lat="41.988516" lon="0.486573">
        <ele>781.814</ele>
        <time>2018-11-24T09:44:41Z</time>
      </trkpt>
      <trkpt lat="41.988741" lon="0.486464">
        <ele>782.823</ele>
        <time>2018-11-24T09:44:42Z</time>
      </trkpt>
      <trkpt lat="41.988969" lon="0.486366">
        <ele>783.783</ele>
        <time>2018-11-24T09:44:43Z</time>
      </trkpt>
      <trkpt lat="41.989200" lon="0.486282">
        <ele>785.011</ele>
        <time>2018-11-24T09:44:44Z</time>
      </trkpt>
      <trkpt lat="41.989431" lon="0.486205">
        <ele>785.808</ele>
        <time>2018-11-24T09:44:45Z</time>
      </trkpt>
      <trkpt lat="41.989662" lon="0.486129">
        <ele>786.895</ele>
        <time>2018-11-24T09:44:46Z</time>
      </trkpt>
      <trkpt lat="41.989894" lon="0.486053">
        <ele>787.892</ele>
        <time>2018-11-24T09:44:47Z</time>
      </trkpt>
      <trkpt lat="41.990126" lon="0.485975">
        <ele>789.129</ele>
        <time>2018-11-24T09:44:48Z</time>
      </trkpt>
      <trkpt lat="41.990357" lon="0.485896">
        <ele>790.199</ele>
        <time>2018-11-24T09:44:49Z</time>
      </trkpt>
      <trkpt lat="41.990587" lon="0.485814">
        <ele>791.110</ele>
        <time>2018-11-24T09:44:50Z</time>
      </trkpt>
      <trkpt lat="41.990816" lon="0.485728">
        <ele>792.219</ele>
        <time>2018-11-24T09:44:51Z</time>
      </trkpt>
      <trkpt lat="41.991044" lon="0.485636">
        <ele>793.679</ele>
        <time>2018-11-24T09:44:52Z</time>
      </trkpt>
      <trkpt lat="41.991270" lon="0.485537">
        <ele>795.064</ele>
        <time>2018-11-24T09:44:53Z</time>
      </trkpt>
      <trkpt lat="41.991495" lon="0.485431">
        <ele>796.361</ele>
        <time>2018-11-24T09:44:54Z</time>
      </trkpt>
      <trkpt lat="41.991720" lon="0.485323">
        <ele>797.621</ele>
        <time>2018-11-24T09:44:55Z</time>
      </trkpt>
      <trkpt lat="41.991945" lon="0.485213">
        <ele>798.713</ele>
        <time>2018-11-24T09:44:56Z</time>
      </trkpt>
      <trkpt lat="41.992171" lon="0.485102">
        <ele>799.708</ele>
        <time>2018-11-24T09:44:57Z</time>
      </trkpt>
      <trkpt lat="41.992398" lon="0.484991">
        <ele>800.349</ele>
        <time>2018-11-24T09:44:58Z</time>
      </trkpt>
      <trkpt lat="41.992624" lon="0.484876">
        <ele>800.816</ele>
        <time>2018-11-24T09:44:59Z</time>
      </trkpt>
      <trkpt lat="41.992849" lon="0.484765">
        <ele>801.583</ele>
        <time>2018-11-24T09:45:00Z</time>
      </trkpt>
      <trkpt lat="41.993069" lon="0.484639">
        <ele>801.773</ele>
        <time>2018-11-24T09:45:01Z</time>
      </trkpt>
      <trkpt lat="41.993290" lon="0.484515">
        <ele>802.124</ele>
        <time>2018-11-24T09:45:02Z</time>
      </trkpt>
      <trkpt lat="41.993514" lon="0.484391">
        <ele>802.443</ele>
        <time>2018-11-24T09:45:03Z</time>
      </trkpt>
      <trkpt lat="41.993738" lon="0.484264">
        <ele>802.543</ele>
        <time>2018-11-24T09:45:04Z</time>
      </trkpt>
      <trkpt lat="41.993960" lon="0.484141">
        <ele>802.758</ele>
        <time>2018-11-24T09:45:05Z</time>
      </trkpt>
      <trkpt lat="41.994179" lon="0.484019">
        <ele>803.254</ele>
        <time>2018-11-24T09:45:06Z</time>
      </trkpt>
      <trkpt lat="41.994400" lon="0.483896">
        <ele>803.756</ele>
        <time>2018-11-24T09:45:07Z</time>
      </trkpt>
      <trkpt lat="41.994618" lon="0.483772">
        <ele>804.411</ele>
        <time>2018-11-24T09:45:08Z</time>
      </trkpt>
      <trkpt lat="41.994838" lon="0.483652">
        <ele>805.508</ele>
        <time>2018-11-24T09:45:09Z</time>
      </trkpt>
      <trkpt lat="41.995055" lon="0.483525">
        <ele>806.438</ele>
        <time>2018-11-24T09:45:10Z</time>
      </trkpt>
      <trkpt lat="41.995267" lon="0.483391">
        <ele>807.745</ele>
        <time>2018-11-24T09:45:11Z</time>
      </trkpt>
      <trkpt lat="41.995474" lon="0.483242">
        <ele>808.882</ele>
        <time>2018-11-24T09:45:12Z</time>
      </trkpt>
      <trkpt lat="41.995675" lon="0.483074">
        <ele>810.112</ele>
        <time>2018-11-24T09:45:13Z</time>
      </trkpt>
      <trkpt lat="41.995870" lon="0.482889">
        <ele>811.143</ele>
        <time>2018-11-24T09:45:14Z</time>
      </trkpt>
      <trkpt lat="41.996059" lon="0.482691">
        <ele>812.252</ele>
        <time>2018-11-24T09:45:15Z</time>
      </trkpt>
      <trkpt lat="41.996247" lon="0.482491">
        <ele>813.462</ele>
        <time>2018-11-24T09:45:16Z</time>
      </trkpt>
      <trkpt lat="41.996437" lon="0.482295">
        <ele>814.427</ele>
        <time>2018-11-24T09:45:17Z</time>
      </trkpt>
      <trkpt lat="41.996635" lon="0.482113">
        <ele>815.076</ele>
        <time>2018-11-24T09:45:18Z</time>
      </trkpt>
      <trkpt lat="41.996841" lon="0.481952">
        <ele>815.890</ele>
        <time>2018-11-24T09:45:19Z</time>
      </trkpt>
      <trkpt lat="41.997048" lon="0.481798">
        <ele>816.519</ele>
        <time>2018-11-24T09:45:20Z</time>
      </trkpt>
      <trkpt lat="41.997275" lon="0.481687">
        <ele>817.108</ele>
        <time>2018-11-24T09:45:21Z</time>
      </trkpt>
      <trkpt lat="41.997508" lon="0.481598">
        <ele>817.890</ele>
        <time>2018-11-24T09:45:22Z</time>
      </trkpt>
      <trkpt lat="41.997747" lon="0.481544">
        <ele>818.397</ele>
        <time>2018-11-24T09:45:23Z</time>
      </trkpt>
      <trkpt lat="41.997984" lon="0.481514">
        <ele>818.944</ele>
        <time>2018-11-24T09:45:24Z</time>
      </trkpt>
      <trkpt lat="41.998224" lon="0.481497">
        <ele>819.414</ele>
        <time>2018-11-24T09:45:25Z</time>
      </trkpt>
      <trkpt lat="41.998466" lon="0.481499">
        <ele>819.825</ele>
        <time>2018-11-24T09:45:26Z</time>
      </trkpt>
      <trkpt lat="41.998708" lon="0.481503">
        <ele>820.144</ele>
        <time>2018-11-24T09:45:27Z</time>
      </trkpt>
      <trkpt lat="41.998949" lon="0.481505">
        <ele>820.864</ele>
        <time>2018-11-24T09:45:28Z</time>
      </trkpt>
      <trkpt lat="41.999192" lon="0.481508">
        <ele>821.159</ele>
        <time>2018-11-24T09:45:29Z</time>
      </trkpt>
      <trkpt lat="41.999434" lon="0.481509">
        <ele>821.597</ele>
        <time>2018-11-24T09:45:30Z</time>
      </trkpt>
      <trkpt lat="41.999675" lon="0.481509">
        <ele>821.923</ele>
        <time>2018-11-24T09:45:31Z</time>
      </trkpt>
      <trkpt lat="41.999917" lon="0.481508">
        <ele>821.925</ele>
        <time>2018-11-24T09:45:32Z</time>
      </trkpt>
      <trkpt lat="42.000159" lon="0.481509">
        <ele>821.708</ele>
        <time>2018-11-24T09:45:33Z</time>
      </trkpt>
      <trkpt lat="42.000400" lon="0.481508">
        <ele>821.652</ele>
        <time>2018-11-24T09:45:34Z</time>
      </trkpt>
      <trkpt lat="42.000641" lon="0.481510">
        <ele>821.519</ele>
        <time>2018-11-24T09:45:35Z</time>
      </trkpt>
      <trkpt lat="42.000882" lon="0.481511">
        <ele>821.466</ele>
        <time>2018-11-24T09:45:36Z</time>
      </trkpt>
      <trkpt lat="42.001124" lon="0.481513">
        <ele>821.166</ele>
        <time>2018-11-24T09:45:37Z</time>
      </trkpt>
      <trkpt lat="42.001365" lon="0.481514">
        <ele>821.057</ele>
        <time>2018-11-24T09:45:38Z</time>
      </trkpt>
      <trkpt lat="42.001607" lon="0.481516">
        <ele>820.336</ele>
        <time>2018-11-24T09:45:39Z</time>
      </trkpt>
      <trkpt lat="42.001848" lon="0.481521">
        <ele>819.536</ele>
        <time>2018-11-24T09:45:40Z</time>
      </trkpt>
      <trkpt lat="42.002090" lon="0.481523">
        <ele>818.971</ele>
        <time>2018-11-24T09:45:41Z</time>
      </trkpt>
      <trkpt lat="42.002331" lon="0.481525">
        <ele>817.947</ele>
        <time>2018-11-24T09:45:42Z</time>
      </trkpt>
      <trkpt lat="42.002571" lon="0.481525">
        <ele>817.129</ele>
        <time>2018-11-24T09:45:43Z</time>
      </trkpt>
      <trkpt lat="42.002811" lon="0.481520">
        <ele>816.421</ele>
        <time>2018-11-24T09:45:44Z</time>
      </trkpt>
      <trkpt lat="42.003050" lon="0.481504">
        <ele>815.608</ele>
        <time>2018-11-24T09:45:45Z</time>
      </trkpt>
      <trkpt lat="42.003288" lon="0.481477">
        <ele>815.097</ele>
        <time>2018-11-24T09:45:46Z</time>
      </trkpt>
      <trkpt lat="42.003525" lon="0.481434">
        <ele>814.254</ele>
        <time>2018-11-24T09:45:47Z</time>
      </trkpt>
      <trkpt lat="42.003760" lon="0.481373">
        <ele>813.471</ele>
        <time>2018-11-24T09:45:48Z</time>
      </trkpt>
      <trkpt lat="42.003993" lon="0.481300">
        <ele>812.571</ele>
        <time>2018-11-24T09:45:49Z</time>
      </trkpt>
      <trkpt lat="42.004224" lon="0.481213">
        <ele>811.652</ele>
        <time>2018-11-24T09:45:50Z</time>
      </trkpt>
      <trkpt lat="42.004453" lon="0.481116">
        <ele>810.721</ele>
        <time>2018-11-24T09:45:51Z</time>
      </trkpt>
      <trkpt lat="42.004681" lon="0.481016">
        <ele>810.191</ele>
        <time>2018-11-24T09:45:52Z</time>
      </trkpt>
      <trkpt lat="42.004910" lon="0.480917">
        <ele>809.486</ele>
        <time>2018-11-24T09:45:53Z</time>
      </trkpt>
      <trkpt lat="42.005137" lon="0.480818">
        <ele>808.779</ele>
        <time>2018-11-24T09:45:54Z</time>
      </trkpt>
      <trkpt lat="42.005366" lon="0.480715">
        <ele>807.905</ele>
        <time>2018-11-24T09:45:55Z</time>
      </trkpt>
      <trkpt lat="42.005593" lon="0.480615">
        <ele>807.325</ele>
        <time>2018-11-24T09:45:56Z</time>
      </trkpt>
      <trkpt lat="42.005821" lon="0.480517">
        <ele>806.408</ele>
        <time>2018-11-24T09:45:57Z</time>
      </trkpt>
      <trkpt lat="42.006048" lon="0.480420">
        <ele>805.880</ele>
        <time>2018-11-24T09:45:58Z</time>
      </trkpt>
      <trkpt lat="42.006276" lon="0.480321">
        <ele>805.017</ele>
        <time>2018-11-24T09:45:59Z</time>
      </trkpt>
      <trkpt lat="42.006505" lon="0.480224">
        <ele>804.524</ele>
        <time>2018-11-24T09:46:00Z</time>
      </trkpt>
      <trkpt lat="42.006730" lon="0.480127">
        <ele>803.994</ele>
        <time>2018-11-24T09:46:01Z</time>
      </trkpt>
      <trkpt lat="42.006958" lon="0.480025">
        <ele>803.415</ele>
        <time>2018-11-24T09:46:02Z</time>
      </trkpt>
      <trkpt lat="42.007188" lon="0.479935">
        <ele>803.494</ele>
        <time>2018-11-24T09:46:03Z</time>
      </trkpt>
      <trkpt lat="42.007416" lon="0.479849">
        <ele>803.444</ele>
        <time>2018-11-24T09:46:04Z</time>
      </trkpt>
      <trkpt lat="42.007640" lon="0.479756">
        <ele>803.729</ele>
        <time>2018-11-24T09:46:05Z</time>
      </trkpt>
      <trkpt lat="42.007865" lon="0.479656">
        <ele>803.938</ele>
        <time>2018-11-24T09:46:06Z</time>
      </trkpt>
      <trkpt lat="42.008091" lon="0.479565">
        <ele>804.070</ele>
        <time>2018-11-24T09:46:07Z</time>
      </trkpt>
      <trkpt lat="42.008321" lon="0.479471">
        <ele>804.217</ele>
        <time>2018-11-24T09:46:08Z</time>
      </trkpt>
      <trkpt lat="42.008550" lon="0.479379">
        <ele>804.308</ele>
        <time>2018-11-24T09:46:09Z</time>
      </trkpt>
      <trkpt lat="42.008777" lon="0.479281">
        <ele>804.446</ele>
        <time>2018-11-24T09:46:10Z</time>
      </trkpt>
      <trkpt lat="42.009005" lon="0.479181">
        <ele>804.583</ele>
        <time>2018-11-24T09:46:11Z</time>
      </trkpt>
      <trkpt lat="42.009234" lon="0.479081">
        <ele>804.320</ele>
        <time>2018-11-24T09:46:12Z</time>
      </trkpt>
      <trkpt lat="42.009465" lon="0.478983">
        <ele>803.860</ele>
        <time>2018-11-24T09:46:13Z</time>
      </trkpt>
      <trkpt lat="42.009694" lon="0.478886">
        <ele>803.181</ele>
        <time>2018-11-24T09:46:14Z</time>
      </trkpt>
      <trkpt lat="42.009921" lon="0.478784">
        <ele>802.320</ele>
        <time>2018-11-24T09:46:15Z</time>
      </trkpt>
      <trkpt lat="42.010152" lon="0.478688">
        <ele>801.420</ele>
        <time>2018-11-24T09:46:16Z</time>
      </trkpt>
      <trkpt lat="42.010381" lon="0.478590">
        <ele>800.485</ele>
        <time>2018-11-24T09:46:17Z</time>
      </trkpt>
      <trkpt lat="42.010609" lon="0.478488">
        <ele>799.364</ele>
        <time>2018-11-24T09:46:18Z</time>
      </trkpt>
      <trkpt lat="42.010838" lon="0.478389">
        <ele>798.006</ele>
        <time>2018-11-24T09:46:19Z</time>
      </trkpt>
      <trkpt lat="42.011067" lon="0.478289">
        <ele>796.616</ele>
        <time>2018-11-24T09:46:20Z</time>
      </trkpt>
      <trkpt lat="42.011296" lon="0.478189">
        <ele>795.308</ele>
        <time>2018-11-24T09:46:21Z</time>
      </trkpt>
      <trkpt lat="42.011525" lon="0.478091">
        <ele>793.899</ele>
        <time>2018-11-24T09:46:22Z</time>
      </trkpt>
      <trkpt lat="42.011753" lon="0.477992">
        <ele>792.616</ele>
        <time>2018-11-24T09:46:23Z</time>
      </trkpt>
      <trkpt lat="42.011981" lon="0.477892">
        <ele>791.313</ele>
        <time>2018-11-24T09:46:24Z</time>
      </trkpt>
      <trkpt lat="42.012209" lon="0.477790">
        <ele>790.453</ele>
        <time>2018-11-24T09:46:25Z</time>
      </trkpt>
      <trkpt lat="42.012437" lon="0.477690">
        <ele>789.294</ele>
        <time>2018-11-24T09:46:26Z</time>
      </trkpt>
      <trkpt lat="42.012665" lon="0.477591">
        <ele>788.123</ele>
        <time>2018-11-24T09:46:27Z</time>
      </trkpt>
      <trkpt lat="42.012890" lon="0.477487">
        <ele>786.743</ele>
        <time>2018-11-24T09:46:28Z</time>
      </trkpt>
      <trkpt lat="42.013125" lon="0.477386">
        <ele>785.598</ele>
        <time>2018-11-24T09:46:29Z</time>
      </trkpt>
      <trkpt lat="42.013354" lon="0.477286">
        <ele>784.335</ele>
        <time>2018-11-24T09:46:30Z</time>
      </trkpt>
      <trkpt lat="42.013584" lon="0.477189">
        <ele>783.386</ele>
        <time>2018-11-24T09:46:31Z</time>
      </trkpt>
      <trkpt lat="42.013811" lon="0.477086">
        <ele>782.114</ele>
        <time>2018-11-24T09:46:32Z</time>
      </trkpt>
      <trkpt lat="42.014036" lon="0.476983">
        <ele>780.908</ele>
        <time>2018-11-24T09:46:33Z</time>
      </trkpt>
      <trkpt lat="42.014265" lon="0.476883">
        <ele>780.236</ele>
        <time>2018-11-24T09:46:34Z</time>
      </trkpt>
      <trkpt lat="42.014493" lon="0.476783">
        <ele>779.473</ele>
        <time>2018-11-24T09:46:35Z</time>
      </trkpt>
      <trkpt lat="42.014718" lon="0.476683">
        <ele>778.860</ele>
        <time>2018-11-24T09:46:36Z</time>
      </trkpt>
      <trkpt lat="42.014945" lon="0.476586">
        <ele>778.410</ele>
        <time>2018-11-24T09:46:37Z</time>
      </trkpt>
      <trkpt lat="42.015173" lon="0.476489">
        <ele>778.121</ele>
        <time>2018-11-24T09:46:38Z</time>
      </trkpt>
      <trkpt lat="42.015402" lon="0.476397">
        <ele>777.830</ele>
        <time>2018-11-24T09:46:39Z</time>
      </trkpt>
      <trkpt lat="42.015630" lon="0.476304">
        <ele>777.680</ele>
        <time>2018-11-24T09:46:40Z</time>
      </trkpt>
      <trkpt lat="42.015852" lon="0.476213">
        <ele>777.525</ele>
        <time>2018-11-24T09:46:41Z</time>
      </trkpt>
      <trkpt lat="42.016077" lon="0.476120">
        <ele>777.513</ele>
        <time>2018-11-24T09:46:42Z</time>
      </trkpt>
      <trkpt lat="42.016301" lon="0.476023">
        <ele>777.543</ele>
        <time>2018-11-24T09:46:43Z</time>
      </trkpt>
      <trkpt lat="42.016528" lon="0.475924">
        <ele>777.307</ele>
        <time>2018-11-24T09:46:44Z</time>
      </trkpt>
      <trkpt lat="42.016753" lon="0.475826">
        <ele>777.308</ele>
        <time>2018-11-24T09:46:45Z</time>
      </trkpt>
      <trkpt lat="42.016979" lon="0.475727">
        <ele>777.064</ele>
        <time>2018-11-24T09:46:46Z</time>
      </trkpt>
      <trkpt lat="42.017208" lon="0.475629">
        <ele>776.611</ele>
        <time>2018-11-24T09:46:47Z</time>
      </trkpt>
      <trkpt lat="42.017436" lon="0.475531">
        <ele>776.188</ele>
        <time>2018-11-24T09:46:48Z</time>
      </trkpt>
      <trkpt lat="42.017663" lon="0.475434">
        <ele>775.778</ele>
        <time>2018-11-24T09:46:49Z</time>
      </trkpt>
      <trkpt lat="42.017891" lon="0.475334">
        <ele>775.329</ele>
        <time>2018-11-24T09:46:50Z</time>
      </trkpt>
      <trkpt lat="42.018118" lon="0.475234">
        <ele>775.058</ele>
        <time>2018-11-24T09:46:51Z</time>
      </trkpt>
      <trkpt lat="42.018345" lon="0.475136">
        <ele>774.868</ele>
        <time>2018-11-24T09:46:52Z</time>
      </trkpt>
      <trkpt lat="42.018572" lon="0.475037">
        <ele>774.573</ele>
        <time>2018-11-24T09:46:53Z</time>
      </trkpt>
      <trkpt lat="42.018798" lon="0.474939">
        <ele>774.436</ele>
        <time>2018-11-24T09:46:54Z</time>
      </trkpt>
      <trkpt lat="42.019025" lon="0.474840">
        <ele>774.417</ele>
        <time>2018-11-24T09:46:55Z</time>
      </trkpt>
      <trkpt lat="42.019251" lon="0.474742">
        <ele>774.418</ele>
        <time>2018-11-24T09:46:56Z</time>
      </trkpt>
      <trkpt lat="42.019477" lon="0.474644">
        <ele>774.608</ele>
        <time>2018-11-24T09:46:57Z</time>
      </trkpt>
      <trkpt lat="42.019703" lon="0.474546">
        <ele>774.716</ele>
        <time>2018-11-24T09:46:58Z</time>
      </trkpt>
      <trkpt lat="42.019929" lon="0.474448">
        <ele>775.033</ele>
        <time>2018-11-24T09:46:59Z</time>
      </trkpt>
      <trkpt lat="42.020155" lon="0.474350">
        <ele>775.370</ele>
        <time>2018-11-24T09:47:00Z</time>
      </trkpt>
      <trkpt lat="42.020382" lon="0.474252">
        <ele>775.530</ele>
        <time>2018-11-24T09:47:01Z</time>
      </trkpt>
      <trkpt lat="42.020609" lon="0.474154">
        <ele>775.751</ele>
        <time>2018-11-24T09:47:02Z</time>
      </trkpt>
      <trkpt lat="42.020836" lon="0.474055">
        <ele>775.850</ele>
        <time>2018-11-24T09:47:03Z</time>
      </trkpt>
      <trkpt lat="42.021064" lon="0.473955">
        <ele>775.890</ele>
        <time>2018-11-24T09:47:04Z</time>
      </trkpt>
      <trkpt lat="42.021292" lon="0.473855">
        <ele>775.885</ele>
        <time>2018-11-24T09:47:05Z</time>
      </trkpt>
      <trkpt lat="42.021520" lon="0.473755">
        <ele>775.573</ele>
        <time>2018-11-24T09:47:06Z</time>
      </trkpt>
      <trkpt lat="42.021749" lon="0.473656">
        <ele>775.285</ele>
        <time>2018-11-24T09:47:07Z</time>
      </trkpt>
      <trkpt lat="42.021978" lon="0.473558">
        <ele>775.013</ele>
        <time>2018-11-24T09:47:08Z</time>
      </trkpt>
      <trkpt lat="42.022207" lon="0.473459">
        <ele>774.608</ele>
        <time>2018-11-24T09:47:09Z</time>
      </trkpt>
      <trkpt lat="42.022436" lon="0.473360">
        <ele>774.110</ele>
        <time>2018-11-24T09:47:10Z</time>
      </trkpt>
      <trkpt lat="42.022665" lon="0.473261">
        <ele>773.697</ele>
        <time>2018-11-24T09:47:11Z</time>
      </trkpt>
      <trkpt lat="42.022894" lon="0.473162">
        <ele>773.014</ele>
        <time>2018-11-24T09:47:12Z</time>
      </trkpt>
      <trkpt lat="42.023122" lon="0.473063">
        <ele>772.564</ele>
        <time>2018-11-24T09:47:13Z</time>
      </trkpt>
      <trkpt lat="42.023351" lon="0.472965">
        <ele>772.055</ele>
        <time>2018-11-24T09:47:14Z</time>
      </trkpt>
      <trkpt lat="42.023580" lon="0.472868">
        <ele>771.594</ele>
        <time>2018-11-24T09:47:15Z</time>
      </trkpt>
      <trkpt lat="42.023809" lon="0.472773">
        <ele>771.064</ele>
        <time>2018-11-24T09:47:16Z</time>
      </trkpt>
      <trkpt lat="42.024038" lon="0.472678">
        <ele>770.339</ele>
        <time>2018-11-24T09:47:17Z</time>
      </trkpt>
      <trkpt lat="42.024267" lon="0.472582">
        <ele>769.834</ele>
        <time>2018-11-24T09:47:18Z</time>
      </trkpt>
      <trkpt lat="42.024495" lon="0.472485">
        <ele>769.355</ele>
        <time>2018-11-24T09:47:19Z</time>
      </trkpt>
      <trkpt lat="42.024723" lon="0.472386">
        <ele>768.910</ele>
        <time>2018-11-24T09:47:20Z</time>
      </trkpt>
      <trkpt lat="42.024950" lon="0.472287">
        <ele>768.708</ele>
        <time>2018-11-24T09:47:21Z</time>
      </trkpt>
      <trkpt lat="42.025177" lon="0.472187">
        <ele>768.556</ele>
        <time>2018-11-24T09:47:22Z</time>
      </trkpt>
      <trkpt lat="42.025403" lon="0.472086">
        <ele>768.433</ele>
        <time>2018-11-24T09:47:23Z</time>
      </trkpt>
      <trkpt lat="42.025629" lon="0.471986">
        <ele>768.440</ele>
        <time>2018-11-24T09:47:24Z</time>
      </trkpt>
      <trkpt lat="42.025855" lon="0.471886">
        <ele>768.520</ele>
        <time>2018-11-24T09:47:25Z</time>
      </trkpt>
      <trkpt lat="42.026080" lon="0.471786">
        <ele>769.661</ele>
        <time>2018-11-24T09:47:26Z</time>
      </trkpt>
      <trkpt lat="42.026308" lon="0.471691">
        <ele>769.870</ele>
        <time>2018-11-24T09:47:27Z</time>
      </trkpt>
      <trkpt lat="42.026531" lon="0.471589">
        <ele>769.950</ele>
        <time>2018-11-24T09:47:28Z</time>
      </trkpt>
      <trkpt lat="42.026756" lon="0.471490">
        <ele>769.765</ele>
        <time>2018-11-24T09:47:29Z</time>
      </trkpt>
      <trkpt lat="42.026983" lon="0.471389">
        <ele>769.426</ele>
        <time>2018-11-24T09:47:30Z</time>
      </trkpt>
      <trkpt lat="42.027210" lon="0.471292">
        <ele>771.047</ele>
        <time>2018-11-24T09:47:31Z</time>
      </trkpt>
      <trkpt lat="42.027439" lon="0.471198">
        <ele>771.311</ele>
        <time>2018-11-24T09:47:32Z</time>
      </trkpt>
      <trkpt lat="42.027665" lon="0.471099">
        <ele>770.308</ele>
        <time>2018-11-24T09:47:33Z</time>
      </trkpt>
      <trkpt lat="42.027893" lon="0.471004">
        <ele>770.185</ele>
        <time>2018-11-24T09:47:34Z</time>
      </trkpt>
      <trkpt lat="42.028122" lon="0.470906">
        <ele>770.162</ele>
        <time>2018-11-24T09:47:35Z</time>
      </trkpt>
      <trkpt lat="42.028350" lon="0.470809">
        <ele>770.079</ele>
        <time>2018-11-24T09:47:36Z</time>
      </trkpt>
      <trkpt lat="42.028579" lon="0.470712">
        <ele>769.999</ele>
        <time>2018-11-24T09:47:37Z</time>
      </trkpt>
      <trkpt lat="42.028807" lon="0.470612">
        <ele>770.090</ele>
        <time>2018-11-24T09:47:38Z</time>
      </trkpt>
      <trkpt lat="42.029035" lon="0.470513">
        <ele>769.989</ele>
        <time>2018-11-24T09:47:39Z</time>
      </trkpt>
      <trkpt lat="42.029262" lon="0.470414">
        <ele>769.939</ele>
        <time>2018-11-24T09:47:40Z</time>
      </trkpt>
      <trkpt lat="42.029489" lon="0.470314">
        <ele>770.094</ele>
        <time>2018-11-24T09:47:41Z</time>
      </trkpt>
      <trkpt lat="42.029716" lon="0.470217">
        <ele>770.036</ele>
        <time>2018-11-24T09:47:42Z</time>
      </trkpt>
      <trkpt lat="42.029944" lon="0.470120">
        <ele>770.117</ele>
        <time>2018-11-24T09:47:43Z</time>
      </trkpt>
      <trkpt lat="42.030171" lon="0.470022">
        <ele>770.118</ele>
        <time>2018-11-24T09:47:44Z</time>
      </trkpt>
      <trkpt lat="42.030398" lon="0.469925">
        <ele>770.208</ele>
        <time>2018-11-24T09:47:45Z</time>
      </trkpt>
      <trkpt lat="42.030626" lon="0.469827">
        <ele>770.286</ele>
        <time>2018-11-24T09:47:46Z</time>
      </trkpt>
      <trkpt lat="42.030853" lon="0.469728">
        <ele>770.493</ele>
        <time>2018-11-24T09:47:47Z</time>
      </trkpt>
      <trkpt lat="42.031080" lon="0.469629">
        <ele>770.650</ele>
        <time>2018-11-24T09:47:48Z</time>
      </trkpt>
      <trkpt lat="42.031307" lon="0.469530">
        <ele>771.150</ele>
        <time>2018-11-24T09:47:49Z</time>
      </trkpt>
      <trkpt lat="42.031534" lon="0.469430">
        <ele>771.421</ele>
        <time>2018-11-24T09:47:50Z</time>
      </trkpt>
      <trkpt lat="42.031761" lon="0.469332">
        <ele>771.820</ele>
        <time>2018-11-24T09:47:51Z</time>
      </trkpt>
      <trkpt lat="42.031987" lon="0.469232">
        <ele>772.270</ele>
        <time>2018-11-24T09:47:52Z</time>
      </trkpt>
      <trkpt lat="42.032214" lon="0.469133">
        <ele>772.575</ele>
        <time>2018-11-24T09:47:53Z</time>
      </trkpt>
      <trkpt lat="42.032441" lon="0.469034">
        <ele>773.069</ele>
        <time>2018-11-24T09:47:54Z</time>
      </trkpt>
      <trkpt lat="42.032667" lon="0.468934">
        <ele>773.504</ele>
        <time>2018-11-24T09:47:55Z</time>
      </trkpt>
      <trkpt lat="42.032894" lon="0.468834">
        <ele>773.824</ele>
        <time>2018-11-24T09:47:56Z</time>
      </trkpt>
      <trkpt lat="42.033121" lon="0.468734">
        <ele>774.308</ele>
        <time>2018-11-24T09:47:57Z</time>
      </trkpt>
      <trkpt lat="42.033348" lon="0.468634">
        <ele>774.749</ele>
        <time>2018-11-24T09:47:58Z</time>
      </trkpt>
      <trkpt lat="42.033575" lon="0.468535">
        <ele>775.116</ele>
        <time>2018-11-24T09:47:59Z</time>
      </trkpt>
      <trkpt lat="42.033802" lon="0.468436">
        <ele>775.723</ele>
        <time>2018-11-24T09:48:00Z</time>
      </trkpt>
      <trkpt lat="42.034030" lon="0.468338">
        <ele>776.263</ele>
        <time>2018-11-24T09:48:01Z</time>
      </trkpt>
      <trkpt lat="42.034258" lon="0.468241">
        <ele>776.664</ele>
        <time>2018-11-24T09:48:02Z</time>
      </trkpt>
      <trkpt lat="42.034486" lon="0.468144">
        <ele>777.013</ele>
        <time>2018-11-24T09:48:03Z</time>
      </trkpt>
      <trkpt lat="42.034714" lon="0.468048">
        <ele>777.383</ele>
        <time>2018-11-24T09:48:04Z</time>
      </trkpt>
      <trkpt lat="42.034942" lon="0.467952">
        <ele>777.958</ele>
        <time>2018-11-24T09:48:05Z</time>
      </trkpt>
      <trkpt lat="42.035170" lon="0.467856">
        <ele>778.458</ele>
        <time>2018-11-24T09:48:06Z</time>
      </trkpt>
      <trkpt lat="42.035398" lon="0.467761">
        <ele>778.852</ele>
        <time>2018-11-24T09:48:07Z</time>
      </trkpt>
      <trkpt lat="42.035626" lon="0.467666">
        <ele>779.217</ele>
        <time>2018-11-24T09:48:08Z</time>
      </trkpt>
      <trkpt lat="42.035854" lon="0.467571">
        <ele>779.708</ele>
        <time>2018-11-24T09:48:09Z</time>
      </trkpt>
      <trkpt lat="42.036082" lon="0.467475">
        <ele>780.258</ele>
        <time>2018-11-24T09:48:10Z</time>
      </trkpt>
      <trkpt lat="42.036310" lon="0.467378">
        <ele>780.695</ele>
        <time>2018-11-24T09:48:11Z</time>
      </trkpt>
      <trkpt lat="42.036540" lon="0.467284">
        <ele>780.732</ele>
        <time>2018-11-24T09:48:12Z</time>
      </trkpt>
      <trkpt lat="42.036769" lon="0.467191">
        <ele>780.742</ele>
        <time>2018-11-24T09:48:13Z</time>
      </trkpt>
      <trkpt lat="42.037000" lon="0.467097">
        <ele>780.513</ele>
        <time>2018-11-24T09:48:14Z</time>
      </trkpt>
      <trkpt lat="42.037231" lon="0.467002">
        <ele>780.132</ele>
        <time>2018-11-24T09:48:15Z</time>
      </trkpt>
      <trkpt lat="42.037460" lon="0.466903">
        <ele>779.832</ele>
        <time>2018-11-24T09:48:16Z</time>
      </trkpt>
      <trkpt lat="42.037691" lon="0.466801">
        <ele>779.267</ele>
        <time>2018-11-24T09:48:17Z</time>
      </trkpt>
      <trkpt lat="42.037919" lon="0.466698">
        <ele>779.275</ele>
        <time>2018-11-24T09:48:18Z</time>
      </trkpt>
      <trkpt lat="42.038147" lon="0.466593">
        <ele>778.728</ele>
        <time>2018-11-24T09:48:19Z</time>
      </trkpt>
      <trkpt lat="42.038375" lon="0.466490">
        <ele>778.520</ele>
        <time>2018-11-24T09:48:20Z</time>
      </trkpt>
      <trkpt lat="42.038602" lon="0.466385">
        <ele>778.008</ele>
        <time>2018-11-24T09:48:21Z</time>
      </trkpt>
      <trkpt lat="42.038830" lon="0.466284">
        <ele>777.630</ele>
        <time>2018-11-24T09:48:22Z</time>
      </trkpt>
      <trkpt lat="42.039058" lon="0.466184">
        <ele>777.187</ele>
        <time>2018-11-24T09:48:23Z</time>
      </trkpt>
      <trkpt lat="42.039287" lon="0.466084">
        <ele>776.734</ele>
        <time>2018-11-24T09:48:24Z</time>
      </trkpt>
      <trkpt lat="42.039515" lon="0.465984">
        <ele>776.114</ele>
        <time>2018-11-24T09:48:25Z</time>
      </trkpt>
      <trkpt lat="42.039743" lon="0.465886">
        <ele>775.445</ele>
        <time>2018-11-24T09:48:26Z</time>
      </trkpt>
      <trkpt lat="42.039972" lon="0.465787">
        <ele>774.994</ele>
        <time>2018-11-24T09:48:27Z</time>
      </trkpt>
      <trkpt lat="42.040200" lon="0.465687">
        <ele>774.114</ele>
        <time>2018-11-24T09:48:28Z</time>
      </trkpt>
      <trkpt lat="42.040428" lon="0.465586">
        <ele>773.389</ele>
        <time>2018-11-24T09:48:29Z</time>
      </trkpt>
      <trkpt lat="42.040656" lon="0.465489">
        <ele>773.366</ele>
        <time>2018-11-24T09:48:30Z</time>
      </trkpt>
      <trkpt lat="42.040883" lon="0.465391">
        <ele>772.829</ele>
        <time>2018-11-24T09:48:31Z</time>
      </trkpt>
      <trkpt lat="42.041111" lon="0.465295">
        <ele>772.321</ele>
        <time>2018-11-24T09:48:32Z</time>
      </trkpt>
      <trkpt lat="42.041339" lon="0.465195">
        <ele>771.808</ele>
        <time>2018-11-24T09:48:33Z</time>
      </trkpt>
      <trkpt lat="42.041568" lon="0.465096">
        <ele>771.659</ele>
        <time>2018-11-24T09:48:34Z</time>
      </trkpt>
      <trkpt lat="42.041795" lon="0.465000">
        <ele>771.326</ele>
        <time>2018-11-24T09:48:35Z</time>
      </trkpt>
      <trkpt lat="42.042021" lon="0.464898">
        <ele>771.043</ele>
        <time>2018-11-24T09:48:36Z</time>
      </trkpt>
      <trkpt lat="42.042249" lon="0.464798">
        <ele>770.623</ele>
        <time>2018-11-24T09:48:37Z</time>
      </trkpt>
      <trkpt lat="42.042476" lon="0.464699">
        <ele>770.464</ele>
        <time>2018-11-24T09:48:38Z</time>
      </trkpt>
      <trkpt lat="42.042705" lon="0.464601">
        <ele>770.233</ele>
        <time>2018-11-24T09:48:39Z</time>
      </trkpt>
      <trkpt lat="42.042933" lon="0.464503">
        <ele>769.863</ele>
        <time>2018-11-24T09:48:40Z</time>
      </trkpt>
      <trkpt lat="42.043161" lon="0.464404">
        <ele>769.478</ele>
        <time>2018-11-24T09:48:41Z</time>
      </trkpt>
      <trkpt lat="42.043389" lon="0.464306">
        <ele>769.065</ele>
        <time>2018-11-24T09:48:42Z</time>
      </trkpt>
      <trkpt lat="42.043617" lon="0.464205">
        <ele>768.668</ele>
        <time>2018-11-24T09:48:43Z</time>
      </trkpt>
      <trkpt lat="42.043845" lon="0.464103">
        <ele>767.914</ele>
        <time>2018-11-24T09:48:44Z</time>
      </trkpt>
      <trkpt lat="42.044071" lon="0.463994">
        <ele>767.008</ele>
        <time>2018-11-24T09:48:45Z</time>
      </trkpt>
      <trkpt lat="42.044297" lon="0.463884">
        <ele>765.739</ele>
        <time>2018-11-24T09:48:46Z</time>
      </trkpt>
      <trkpt lat="42.044524" lon="0.463778">
        <ele>764.846</ele>
        <time>2018-11-24T09:48:47Z</time>
      </trkpt>
      <trkpt lat="42.044753" lon="0.463681">
        <ele>763.453</ele>
        <time>2018-11-24T09:48:48Z</time>
      </trkpt>
      <trkpt lat="42.044984" lon="0.463596">
        <ele>761.973</ele>
        <time>2018-11-24T09:48:49Z</time>
      </trkpt>
      <trkpt lat="42.045217" lon="0.463518">
        <ele>760.774</ele>
        <time>2018-11-24T09:48:50Z</time>
      </trkpt>
      <trkpt lat="42.045450" lon="0.463441">
        <ele>759.493</ele>
        <time>2018-11-24T09:48:51Z</time>
      </trkpt>
      <trkpt lat="42.045685" lon="0.463377">
        <ele>757.993</ele>
        <time>2018-11-24T09:48:52Z</time>
      </trkpt>
      <trkpt lat="42.045922" lon="0.463339">
        <ele>756.778</ele>
        <time>2018-11-24T09:48:53Z</time>
      </trkpt>
      <trkpt lat="42.046161" lon="0.463330">
        <ele>755.729</ele>
        <time>2018-11-24T09:48:54Z</time>
      </trkpt>
      <trkpt lat="42.046399" lon="0.463346">
        <ele>754.800</ele>
        <time>2018-11-24T09:48:55Z</time>
      </trkpt>
      <trkpt lat="42.046635" lon="0.463388">
        <ele>754.220</ele>
        <time>2018-11-24T09:48:56Z</time>
      </trkpt>
      <trkpt lat="42.046868" lon="0.463453">
        <ele>754.108</ele>
        <time>2018-11-24T09:48:57Z</time>
      </trkpt>
      <trkpt lat="42.047098" lon="0.463528">
        <ele>754.175</ele>
        <time>2018-11-24T09:48:58Z</time>
      </trkpt>
      <trkpt lat="42.047327" lon="0.463608">
        <ele>754.472</ele>
        <time>2018-11-24T09:48:59Z</time>
      </trkpt>
      <trkpt lat="42.047555" lon="0.463696">
        <ele>754.889</ele>
        <time>2018-11-24T09:49:00Z</time>
      </trkpt>
      <trkpt lat="42.047779" lon="0.463801">
        <ele>755.079</ele>
        <time>2018-11-24T09:49:01Z</time>
      </trkpt>
      <trkpt lat="42.047995" lon="0.463932">
        <ele>755.280</ele>
        <time>2018-11-24T09:49:02Z</time>
      </trkpt>
      <trkpt lat="42.048202" lon="0.464090">
        <ele>755.699</ele>
        <time>2018-11-24T09:49:03Z</time>
      </trkpt>
      <trkpt lat="42.048399" lon="0.464272">
        <ele>755.939</ele>
        <time>2018-11-24T09:49:04Z</time>
      </trkpt>
      <trkpt lat="42.048588" lon="0.464464">
        <ele>756.294</ele>
        <time>2018-11-24T09:49:05Z</time>
      </trkpt>
      <trkpt lat="42.048779" lon="0.464655">
        <ele>756.745</ele>
        <time>2018-11-24T09:49:06Z</time>
      </trkpt>
      <trkpt lat="42.048976" lon="0.464836">
        <ele>757.347</ele>
        <time>2018-11-24T09:49:07Z</time>
      </trkpt>
      <trkpt lat="42.049184" lon="0.464993">
        <ele>757.411</ele>
        <time>2018-11-24T09:49:08Z</time>
      </trkpt>
      <trkpt lat="42.049404" lon="0.465124">
        <ele>757.408</ele>
        <time>2018-11-24T09:49:09Z</time>
      </trkpt>
      <trkpt lat="42.049632" lon="0.465226">
        <ele>757.127</ele>
        <time>2018-11-24T09:49:10Z</time>
      </trkpt>
      <trkpt lat="42.049866" lon="0.465302">
        <ele>756.514</ele>
        <time>2018-11-24T09:49:11Z</time>
      </trkpt>
      <trkpt lat="42.050104" lon="0.465361">
        <ele>755.671</ele>
        <time>2018-11-24T09:49:12Z</time>
      </trkpt>
      <trkpt lat="42.050343" lon="0.465412">
        <ele>754.541</ele>
        <time>2018-11-24T09:49:13Z</time>
      </trkpt>
      <trkpt lat="42.050582" lon="0.465465">
        <ele>752.932</ele>
        <time>2018-11-24T09:49:14Z</time>
      </trkpt>
      <trkpt lat="42.050820" lon="0.465520">
        <ele>751.291</ele>
        <time>2018-11-24T09:49:15Z</time>
      </trkpt>
      <trkpt lat="42.051057" lon="0.465580">
        <ele>749.691</ele>
        <time>2018-11-24T09:49:16Z</time>
      </trkpt>
      <trkpt lat="42.051291" lon="0.465650">
        <ele>747.946</ele>
        <time>2018-11-24T09:49:17Z</time>
      </trkpt>
      <trkpt lat="42.051516" lon="0.465731">
        <ele>746.336</ele>
        <time>2018-11-24T09:49:18Z</time>
      </trkpt>
      <trkpt lat="42.051738" lon="0.465823">
        <ele>744.417</ele>
        <time>2018-11-24T09:49:19Z</time>
      </trkpt>
      <trkpt lat="42.051958" lon="0.465923">
        <ele>742.618</ele>
        <time>2018-11-24T09:49:20Z</time>
      </trkpt>
      <trkpt lat="42.052179" lon="0.466021">
        <ele>741.208</ele>
        <time>2018-11-24T09:49:21Z</time>
      </trkpt>
      <trkpt lat="42.052403" lon="0.466103">
        <ele>739.446</ele>
        <time>2018-11-24T09:49:22Z</time>
      </trkpt>
      <trkpt lat="42.052630" lon="0.466160">
        <ele>737.993</ele>
        <time>2018-11-24T09:49:23Z</time>
      </trkpt>
      <trkpt lat="42.052861" lon="0.466214">
        <ele>736.380</ele>
        <time>2018-11-24T09:49:24Z</time>
      </trkpt>
      <trkpt lat="42.053099" lon="0.466214">
        <ele>735.160</ele>
        <time>2018-11-24T09:49:25Z</time>
      </trkpt>
      <trkpt lat="42.053337" lon="0.466164">
        <ele>733.531</ele>
        <time>2018-11-24T09:49:26Z</time>
      </trkpt>
      <trkpt lat="42.053575" lon="0.466096">
        <ele>732.090</ele>
        <time>2018-11-24T09:49:27Z</time>
      </trkpt>
      <trkpt lat="42.053811" lon="0.465993">
        <ele>730.370</ele>
        <time>2018-11-24T09:49:28Z</time>
      </trkpt>
      <trkpt lat="42.054042" lon="0.465880">
        <ele>728.735</ele>
        <time>2018-11-24T09:49:29Z</time>
      </trkpt>
      <trkpt lat="42.054271" lon="0.465729">
        <ele>727.433</ele>
        <time>2018-11-24T09:49:30Z</time>
      </trkpt>
      <trkpt lat="42.054499" lon="0.465590">
        <ele>725.523</ele>
        <time>2018-11-24T09:49:31Z</time>
      </trkpt>
      <trkpt lat="42.054738" lon="0.465468">
        <ele>723.915</ele>
        <time>2018-11-24T09:49:32Z</time>
      </trkpt>
      <trkpt lat="42.054986" lon="0.465378">
        <ele>722.008</ele>
        <time>2018-11-24T09:49:33Z</time>
      </trkpt>
      <trkpt lat="42.055230" lon="0.465320">
        <ele>720.456</ele>
        <time>2018-11-24T09:49:34Z</time>
      </trkpt>
      <trkpt lat="42.055481" lon="0.465302">
        <ele>718.723</ele>
        <time>2018-11-24T09:49:35Z</time>
      </trkpt>
      <trkpt lat="42.055729" lon="0.465305">
        <ele>717.310</ele>
        <time>2018-11-24T09:49:36Z</time>
      </trkpt>
      <trkpt lat="42.055979" lon="0.465322">
        <ele>715.630</ele>
        <time>2018-11-24T09:49:37Z</time>
      </trkpt>
      <trkpt lat="42.056229" lon="0.465348">
        <ele>714.311</ele>
        <time>2018-11-24T09:49:38Z</time>
      </trkpt>
      <trkpt lat="42.056480" lon="0.465371">
        <ele>712.510</ele>
        <time>2018-11-24T09:49:39Z</time>
      </trkpt>
      <trkpt lat="42.056729" lon="0.465393">
        <ele>711.130</ele>
        <time>2018-11-24T09:49:40Z</time>
      </trkpt>
      <trkpt lat="42.056977" lon="0.465416">
        <ele>709.365</ele>
        <time>2018-11-24T09:49:41Z</time>
      </trkpt>
      <trkpt lat="42.057221" lon="0.465454">
        <ele>707.618</ele>
        <time>2018-11-24T09:49:42Z</time>
      </trkpt>
      <trkpt lat="42.057463" lon="0.465503">
        <ele>706.398</ele>
        <time>2018-11-24T09:49:43Z</time>
      </trkpt>
      <trkpt lat="42.057704" lon="0.465564">
        <ele>704.817</ele>
        <time>2018-11-24T09:49:44Z</time>
      </trkpt>
      <trkpt lat="42.057944" lon="0.465631">
        <ele>703.608</ele>
        <time>2018-11-24T09:49:45Z</time>
      </trkpt>
      <trkpt lat="42.058180" lon="0.465705">
        <ele>702.464</ele>
        <time>2018-11-24T09:49:46Z</time>
      </trkpt>
      <trkpt lat="42.058413" lon="0.465791">
        <ele>701.231</ele>
        <time>2018-11-24T09:49:47Z</time>
      </trkpt>
      <trkpt lat="42.058642" lon="0.465889">
        <ele>700.058</ele>
        <time>2018-11-24T09:49:48Z</time>
      </trkpt>
      <trkpt lat="42.058868" lon="0.465989">
        <ele>698.818</ele>
        <time>2018-11-24T09:49:49Z</time>
      </trkpt>
      <trkpt lat="42.059090" lon="0.466114">
        <ele>697.919</ele>
        <time>2018-11-24T09:49:50Z</time>
      </trkpt>
      <trkpt lat="42.059309" lon="0.466241">
        <ele>696.948</ele>
        <time>2018-11-24T09:49:51Z</time>
      </trkpt>
      <trkpt lat="42.059528" lon="0.466369">
        <ele>695.968</ele>
        <time>2018-11-24T09:49:52Z</time>
      </trkpt>
      <trkpt lat="42.059744" lon="0.466498">
        <ele>694.993</ele>
        <time>2018-11-24T09:49:53Z</time>
      </trkpt>
      <trkpt lat="42.059960" lon="0.466624">
        <ele>694.248</ele>
        <time>2018-11-24T09:49:54Z</time>
      </trkpt>
      <trkpt lat="42.060177" lon="0.466753">
        <ele>693.561</ele>
        <time>2018-11-24T09:49:55Z</time>
      </trkpt>
      <trkpt lat="42.060396" lon="0.466888">
        <ele>693.017</ele>
        <time>2018-11-24T09:49:56Z</time>
      </trkpt>
      <trkpt lat="42.060614" lon="0.467016">
        <ele>692.708</ele>
        <time>2018-11-24T09:49:57Z</time>
      </trkpt>
      <trkpt lat="42.060836" lon="0.467129">
        <ele>692.247</ele>
        <time>2018-11-24T09:49:58Z</time>
      </trkpt>
      <trkpt lat="42.061065" lon="0.467221">
        <ele>691.924</ele>
        <time>2018-11-24T09:49:59Z</time>
      </trkpt>
      <trkpt lat="42.061296" lon="0.467295">
        <ele>691.731</ele>
        <time>2018-11-24T09:50:00Z</time>
      </trkpt>
      <trkpt lat="42.061528" lon="0.467343">
        <ele>691.561</ele>
        <time>2018-11-24T09:50:01Z</time>
      </trkpt>
      <trkpt lat="42.061762" lon="0.467380">
        <ele>691.362</ele>
        <time>2018-11-24T09:50:02Z</time>
      </trkpt>
      <trkpt lat="42.061998" lon="0.467419">
        <ele>691.161</ele>
        <time>2018-11-24T09:50:03Z</time>
      </trkpt>
      <trkpt lat="42.062233" lon="0.467460">
        <ele>691.091</ele>
        <time>2018-11-24T09:50:04Z</time>
      </trkpt>
      <trkpt lat="42.062469" lon="0.467512">
        <ele>691.076</ele>
        <time>2018-11-24T09:50:05Z</time>
      </trkpt>
      <trkpt lat="42.062702" lon="0.467582">
        <ele>690.874</ele>
        <time>2018-11-24T09:50:06Z</time>
      </trkpt>
      <trkpt lat="42.062929" lon="0.467675">
        <ele>690.656</ele>
        <time>2018-11-24T09:50:07Z</time>
      </trkpt>
      <trkpt lat="42.063150" lon="0.467795">
        <ele>690.521</ele>
        <time>2018-11-24T09:50:08Z</time>
      </trkpt>
      <trkpt lat="42.063360" lon="0.467945">
        <ele>690.108</ele>
        <time>2018-11-24T09:50:09Z</time>
      </trkpt>
      <trkpt lat="42.063564" lon="0.468116">
        <ele>689.780</ele>
        <time>2018-11-24T09:50:10Z</time>
      </trkpt>
      <trkpt lat="42.063763" lon="0.468287">
        <ele>689.227</ele>
        <time>2018-11-24T09:50:11Z</time>
      </trkpt>
      <trkpt lat="42.063953" lon="0.468484">
        <ele>688.694</ele>
        <time>2018-11-24T09:50:12Z</time>
      </trkpt>
      <trkpt lat="42.064137" lon="0.468683">
        <ele>688.034</ele>
        <time>2018-11-24T09:50:13Z</time>
      </trkpt>
      <trkpt lat="42.064324" lon="0.468882">
        <ele>687.495</ele>
        <time>2018-11-24T09:50:14Z</time>
      </trkpt>
      <trkpt lat="42.064513" lon="0.469078">
        <ele>686.694</ele>
        <time>2018-11-24T09:50:15Z</time>
      </trkpt>
      <trkpt lat="42.064701" lon="0.469277">
        <ele>685.954</ele>
        <time>2018-11-24T09:50:16Z</time>
      </trkpt>
      <trkpt lat="42.064887" lon="0.469481">
        <ele>685.279</ele>
        <time>2018-11-24T09:50:17Z</time>
      </trkpt>
      <trkpt lat="42.065075" lon="0.469679">
        <ele>684.699</ele>
        <time>2018-11-24T09:50:18Z</time>
      </trkpt>
      <trkpt lat="42.065265" lon="0.469877">
        <ele>684.307</ele>
        <time>2018-11-24T09:50:19Z</time>
      </trkpt>
      <trkpt lat="42.065453" lon="0.470079">
        <ele>683.727</ele>
        <time>2018-11-24T09:50:20Z</time>
      </trkpt>
      <trkpt lat="42.065641" lon="0.470274">
        <ele>683.308</ele>
        <time>2018-11-24T09:50:21Z</time>
      </trkpt>
      <trkpt lat="42.065829" lon="0.470475">
        <ele>682.882</ele>
        <time>2018-11-24T09:50:22Z</time>
      </trkpt>
      <trkpt lat="42.066018" lon="0.470674">
        <ele>682.239</ele>
        <time>2018-11-24T09:50:23Z</time>
      </trkpt>
      <trkpt lat="42.066208" lon="0.470870">
        <ele>681.836</ele>
        <time>2018-11-24T09:50:24Z</time>
      </trkpt>
      <trkpt lat="42.066395" lon="0.471070">
        <ele>681.316</ele>
        <time>2018-11-24T09:50:25Z</time>
      </trkpt>
      <trkpt lat="42.066576" lon="0.471283">
        <ele>681.117</ele>
        <time>2018-11-24T09:50:26Z</time>
      </trkpt>
      <trkpt lat="42.066747" lon="0.471511">
        <ele>681.056</ele>
        <time>2018-11-24T09:50:27Z</time>
      </trkpt>
      <trkpt lat="42.066902" lon="0.471755">
        <ele>681.066</ele>
        <time>2018-11-24T09:50:28Z</time>
      </trkpt>
      <trkpt lat="42.067056" lon="0.472002">
        <ele>681.071</ele>
        <time>2018-11-24T09:50:29Z</time>
      </trkpt>
      <trkpt lat="42.067179" lon="0.472280">
        <ele>681.036</ele>
        <time>2018-11-24T09:50:30Z</time>
      </trkpt>
      <trkpt lat="42.067284" lon="0.472565">
        <ele>681.017</ele>
        <time>2018-11-24T09:50:31Z</time>
      </trkpt>
      <trkpt lat="42.067363" lon="0.472864">
        <ele>681.118</ele>
        <time>2018-11-24T09:50:32Z</time>
      </trkpt>
      <trkpt lat="42.067444" lon="0.473165">
        <ele>681.108</ele>
        <time>2018-11-24T09:50:33Z</time>
      </trkpt>
      <trkpt lat="42.067529" lon="0.473463">
        <ele>680.786</ele>
        <time>2018-11-24T09:50:34Z</time>
      </trkpt>
      <trkpt lat="42.067629" lon="0.473758">
        <ele>680.353</ele>
        <time>2018-11-24T09:50:35Z</time>
      </trkpt>
      <trkpt lat="42.067743" lon="0.474041">
        <ele>679.620</ele>
        <time>2018-11-24T09:50:36Z</time>
      </trkpt>
      <trkpt lat="42.067874" lon="0.474308">
        <ele>678.850</ele>
        <time>2018-11-24T09:50:37Z</time>
      </trkpt>
      <trkpt lat="42.068028" lon="0.474556">
        <ele>677.971</ele>
        <time>2018-11-24T09:50:38Z</time>
      </trkpt>
      <trkpt lat="42.068203" lon="0.474780">
        <ele>677.110</ele>
        <time>2018-11-24T09:50:39Z</time>
      </trkpt>
      <trkpt lat="42.068394" lon="0.474979">
        <ele>676.110</ele>
        <time>2018-11-24T09:50:40Z</time>
      </trkpt>
      <trkpt lat="42.068600" lon="0.475150">
        <ele>675.245</ele>
        <time>2018-11-24T09:50:41Z</time>
      </trkpt>
      <trkpt lat="42.068809" lon="0.475306">
        <ele>674.198</ele>
        <time>2018-11-24T09:50:42Z</time>
      </trkpt>
      <trkpt lat="42.069021" lon="0.475457">
        <ele>672.915</ele>
        <time>2018-11-24T09:50:43Z</time>
      </trkpt>
      <trkpt lat="42.069233" lon="0.475606">
        <ele>672.226</ele>
        <time>2018-11-24T09:50:44Z</time>
      </trkpt>
      <trkpt lat="42.069443" lon="0.475759">
        <ele>671.508</ele>
        <time>2018-11-24T09:50:45Z</time>
      </trkpt>
      <trkpt lat="42.069649" lon="0.475925">
        <ele>671.032</ele>
        <time>2018-11-24T09:50:46Z</time>
      </trkpt>
      <trkpt lat="42.069844" lon="0.476110">
        <ele>670.489</ele>
        <time>2018-11-24T09:50:47Z</time>
      </trkpt>
      <trkpt lat="42.070027" lon="0.476319">
        <ele>669.926</ele>
        <time>2018-11-24T09:50:48Z</time>
      </trkpt>
      <trkpt lat="42.070192" lon="0.476551">
        <ele>669.516</ele>
        <time>2018-11-24T09:50:49Z</time>
      </trkpt>
      <trkpt lat="42.070344" lon="0.476798">
        <ele>669.097</ele>
        <time>2018-11-24T09:50:50Z</time>
      </trkpt>
      <trkpt lat="42.070488" lon="0.477056">
        <ele>668.726</ele>
        <time>2018-11-24T09:50:51Z</time>
      </trkpt>
      <trkpt lat="42.070630" lon="0.477314">
        <ele>668.236</ele>
        <time>2018-11-24T09:50:52Z</time>
      </trkpt>
      <trkpt lat="42.070772" lon="0.477573">
        <ele>667.741</ele>
        <time>2018-11-24T09:50:53Z</time>
      </trkpt>
      <trkpt lat="42.070914" lon="0.477832">
        <ele>667.374</ele>
        <time>2018-11-24T09:50:54Z</time>
      </trkpt>
      <trkpt lat="42.071057" lon="0.478090">
        <ele>667.056</ele>
        <time>2018-11-24T09:50:55Z</time>
      </trkpt>
      <trkpt lat="42.071198" lon="0.478349">
        <ele>666.621</ele>
        <time>2018-11-24T09:50:56Z</time>
      </trkpt>
      <trkpt lat="42.071341" lon="0.478607">
        <ele>666.308</ele>
        <time>2018-11-24T09:50:57Z</time>
      </trkpt>
      <trkpt lat="42.071486" lon="0.478863">
        <ele>665.910</ele>
        <time>2018-11-24T09:50:58Z</time>
      </trkpt>
      <trkpt lat="42.071634" lon="0.479115">
        <ele>665.547</ele>
        <time>2018-11-24T09:50:59Z</time>
      </trkpt>
      <trkpt lat="42.071789" lon="0.479360">
        <ele>665.174</ele>
        <time>2018-11-24T09:51:00Z</time>
      </trkpt>
      <trkpt lat="42.071949" lon="0.479599">
        <ele>664.694</ele>
        <time>2018-11-24T09:51:01Z</time>
      </trkpt>
      <trkpt lat="42.072119" lon="0.479821">
        <ele>664.145</ele>
        <time>2018-11-24T09:51:02Z</time>
      </trkpt>
      <trkpt lat="42.072301" lon="0.480034">
        <ele>663.684</ele>
        <time>2018-11-24T09:51:03Z</time>
      </trkpt>
      <trkpt lat="42.072490" lon="0.480232">
        <ele>663.114</ele>
        <time>2018-11-24T09:51:04Z</time>
      </trkpt>
      <trkpt lat="42.072681" lon="0.480429">
        <ele>662.649</ele>
        <time>2018-11-24T09:51:05Z</time>
      </trkpt>
      <trkpt lat="42.072872" lon="0.480625">
        <ele>662.231</ele>
        <time>2018-11-24T09:51:06Z</time>
      </trkpt>
      <trkpt lat="42.073065" lon="0.480819">
        <ele>661.861</ele>
        <time>2018-11-24T09:51:07Z</time>
      </trkpt>
      <trkpt lat="42.073255" lon="0.481015">
        <ele>661.407</ele>
        <time>2018-11-24T09:51:08Z</time>
      </trkpt>
      <trkpt lat="42.073445" lon="0.481208">
        <ele>661.208</ele>
        <time>2018-11-24T09:51:09Z</time>
      </trkpt>
      <trkpt lat="42.073634" lon="0.481404">
        <ele>660.896</ele>
        <time>2018-11-24T09:51:10Z</time>
      </trkpt>
      <trkpt lat="42.073824" lon="0.481601">
        <ele>660.543</ele>
        <time>2018-11-24T09:51:11Z</time>
      </trkpt>
      <trkpt lat="42.074012" lon="0.481798">
        <ele>660.010</ele>
        <time>2018-11-24T09:51:12Z</time>
      </trkpt>
      <trkpt lat="42.074200" lon="0.481995">
        <ele>659.950</ele>
        <time>2018-11-24T09:51:13Z</time>
      </trkpt>
      <trkpt lat="42.074389" lon="0.482193">
        <ele>659.671</ele>
        <time>2018-11-24T09:51:14Z</time>
      </trkpt>
      <trkpt lat="42.074578" lon="0.482389">
        <ele>659.380</ele>
        <time>2018-11-24T09:51:15Z</time>
      </trkpt>
      <trkpt lat="42.074772" lon="0.482577">
        <ele>658.910</ele>
        <time>2018-11-24T09:51:16Z</time>
      </trkpt>
      <trkpt lat="42.074967" lon="0.482767">
        <ele>658.745</ele>
        <time>2018-11-24T09:51:17Z</time>
      </trkpt>
      <trkpt lat="42.075157" lon="0.482962">
        <ele>658.371</ele>
        <time>2018-11-24T09:51:18Z</time>
      </trkpt>
      <trkpt lat="42.075348" lon="0.483164">
        <ele>657.941</ele>
        <time>2018-11-24T09:51:19Z</time>
      </trkpt>
      <trkpt lat="42.075536" lon="0.483365">
        <ele>657.515</ele>
        <time>2018-11-24T09:51:20Z</time>
      </trkpt>
      <trkpt lat="42.075724" lon="0.483561">
        <ele>657.008</ele>
        <time>2018-11-24T09:51:21Z</time>
      </trkpt>
      <trkpt lat="42.075914" lon="0.483758">
        <ele>656.760</ele>
        <time>2018-11-24T09:51:22Z</time>
      </trkpt>
      <trkpt lat="42.076102" lon="0.483957">
        <ele>656.227</ele>
        <time>2018-11-24T09:51:23Z</time>
      </trkpt>
      <trkpt lat="42.076289" lon="0.484155">
        <ele>655.824</ele>
        <time>2018-11-24T09:51:24Z</time>
      </trkpt>
      <trkpt lat="42.076479" lon="0.484353">
        <ele>655.454</ele>
        <time>2018-11-24T09:51:25Z</time>
      </trkpt>
      <trkpt lat="42.076665" lon="0.484551">
        <ele>655.115</ele>
        <time>2018-11-24T09:51:26Z</time>
      </trkpt>
      <trkpt lat="42.076855" lon="0.484748">
        <ele>654.754</ele>
        <time>2018-11-24T09:51:27Z</time>
      </trkpt>
      <trkpt lat="42.077045" lon="0.484944">
        <ele>654.234</ele>
        <time>2018-11-24T09:51:28Z</time>
      </trkpt>
      <trkpt lat="42.077234" lon="0.485143">
        <ele>653.959</ele>
        <time>2018-11-24T09:51:29Z</time>
      </trkpt>
      <trkpt lat="42.077423" lon="0.485338">
        <ele>653.311</ele>
        <time>2018-11-24T09:51:30Z</time>
      </trkpt>
      <trkpt lat="42.077612" lon="0.485536">
        <ele>652.821</ele>
        <time>2018-11-24T09:51:31Z</time>
      </trkpt>
      <trkpt lat="42.077803" lon="0.485731">
        <ele>652.303</ele>
        <time>2018-11-24T09:51:32Z</time>
      </trkpt>
      <trkpt lat="42.077993" lon="0.485927">
        <ele>651.908</ele>
        <time>2018-11-24T09:51:33Z</time>
      </trkpt>
      <trkpt lat="42.078181" lon="0.486127">
        <ele>651.264</ele>
        <time>2018-11-24T09:51:34Z</time>
      </trkpt>
      <trkpt lat="42.078370" lon="0.486327">
        <ele>650.681</ele>
        <time>2018-11-24T09:51:35Z</time>
      </trkpt>
      <trkpt lat="42.078553" lon="0.486533">
        <ele>649.978</ele>
        <time>2018-11-24T09:51:36Z</time>
      </trkpt>
      <trkpt lat="42.078733" lon="0.486746">
        <ele>649.288</ele>
        <time>2018-11-24T09:51:37Z</time>
      </trkpt>
      <trkpt lat="42.078909" lon="0.486964">
        <ele>648.529</ele>
        <time>2018-11-24T09:51:38Z</time>
      </trkpt>
      <trkpt lat="42.079082" lon="0.487186">
        <ele>647.858</ele>
        <time>2018-11-24T09:51:39Z</time>
      </trkpt>
      <trkpt lat="42.079252" lon="0.487413">
        <ele>647.018</ele>
        <time>2018-11-24T09:51:40Z</time>
      </trkpt>
      <trkpt lat="42.079419" lon="0.487645">
        <ele>646.163</ele>
        <time>2018-11-24T09:51:41Z</time>
      </trkpt>
      <trkpt lat="42.079584" lon="0.487878">
        <ele>645.394</ele>
        <time>2018-11-24T09:51:42Z</time>
      </trkpt>
      <trkpt lat="42.079747" lon="0.488113">
        <ele>644.457</ele>
        <time>2018-11-24T09:51:43Z</time>
      </trkpt>
      <trkpt lat="42.079909" lon="0.488351">
        <ele>643.822</ele>
        <time>2018-11-24T09:51:44Z</time>
      </trkpt>
      <trkpt lat="42.080070" lon="0.488588">
        <ele>643.008</ele>
        <time>2018-11-24T09:51:45Z</time>
      </trkpt>
      <trkpt lat="42.080231" lon="0.488826">
        <ele>642.192</ele>
        <time>2018-11-24T09:51:46Z</time>
      </trkpt>
      <trkpt lat="42.080393" lon="0.489063">
        <ele>641.549</ele>
        <time>2018-11-24T09:51:47Z</time>
      </trkpt>
      <trkpt lat="42.080556" lon="0.489302">
        <ele>640.996</ele>
        <time>2018-11-24T09:51:48Z</time>
      </trkpt>
      <trkpt lat="42.080722" lon="0.489545">
        <ele>640.446</ele>
        <time>2018-11-24T09:51:49Z</time>
      </trkpt>
      <trkpt lat="42.080888" lon="0.489789">
        <ele>639.867</ele>
        <time>2018-11-24T09:51:50Z</time>
      </trkpt>
      <trkpt lat="42.081054" lon="0.490033">
        <ele>639.336</ele>
        <time>2018-11-24T09:51:51Z</time>
      </trkpt>
      <trkpt lat="42.081220" lon="0.490276">
        <ele>638.646</ele>
        <time>2018-11-24T09:51:52Z</time>
      </trkpt>
      <trkpt lat="42.081386" lon="0.490520">
        <ele>638.141</ele>
        <time>2018-11-24T09:51:53Z</time>
      </trkpt>
      <trkpt lat="42.081552" lon="0.490764">
        <ele>637.742</ele>
        <time>2018-11-24T09:51:54Z</time>
      </trkpt>
      <trkpt lat="42.081719" lon="0.491008">
        <ele>637.422</ele>
        <time>2018-11-24T09:51:55Z</time>
      </trkpt>
      <trkpt lat="42.081885" lon="0.491252">
        <ele>637.014</ele>
        <time>2018-11-24T09:51:56Z</time>
      </trkpt>
      <trkpt lat="42.082051" lon="0.491496">
        <ele>636.608</ele>
        <time>2018-11-24T09:51:57Z</time>
      </trkpt>
      <trkpt lat="42.082216" lon="0.491741">
        <ele>636.587</ele>
        <time>2018-11-24T09:51:58Z</time>
      </trkpt>
      <trkpt lat="42.082380" lon="0.491987">
        <ele>636.244</ele>
        <time>2018-11-24T09:51:59Z</time>
      </trkpt>
      <trkpt lat="42.082543" lon="0.492235">
        <ele>635.941</ele>
        <time>2018-11-24T09:52:00Z</time>
      </trkpt>
      <trkpt lat="42.082706" lon="0.492485">
        <ele>635.561</ele>
        <time>2018-11-24T09:52:01Z</time>
      </trkpt>
      <trkpt lat="42.082868" lon="0.492735">
        <ele>635.262</ele>
        <time>2018-11-24T09:52:02Z</time>
      </trkpt>
      <trkpt lat="42.083031" lon="0.492984">
        <ele>635.061</ele>
        <time>2018-11-24T09:52:03Z</time>
      </trkpt>
      <trkpt lat="42.083192" lon="0.493229">
        <ele>634.541</ele>
        <time>2018-11-24T09:52:04Z</time>
      </trkpt>
      <trkpt lat="42.083353" lon="0.493473">
        <ele>634.396</ele>
        <time>2018-11-24T09:52:05Z</time>
      </trkpt>
      <trkpt lat="42.083516" lon="0.493715">
        <ele>634.188</ele>
        <time>2018-11-24T09:52:06Z</time>
      </trkpt>
      <trkpt lat="42.083686" lon="0.493946">
        <ele>634.224</ele>
        <time>2018-11-24T09:52:07Z</time>
      </trkpt>
      <trkpt lat="42.083868" lon="0.494160">
        <ele>634.126</ele>
        <time>2018-11-24T09:52:08Z</time>
      </trkpt>
      <trkpt lat="42.084053" lon="0.494364">
        <ele>634.208</ele>
        <time>2018-11-24T09:52:09Z</time>
      </trkpt>
      <trkpt lat="42.084266" lon="0.494524">
        <ele>634.291</ele>
        <time>2018-11-24T09:52:10Z</time>
      </trkpt>
      <trkpt lat="42.084480" lon="0.494672">
        <ele>634.238</ele>
        <time>2018-11-24T09:52:11Z</time>
      </trkpt>
      <trkpt lat="42.084707" lon="0.494780">
        <ele>634.255</ele>
        <time>2018-11-24T09:52:12Z</time>
      </trkpt>
      <trkpt lat="42.084955" lon="0.494836">
        <ele>634.435</ele>
        <time>2018-11-24T09:52:13Z</time>
      </trkpt>
      <trkpt lat="42.085198" lon="0.494856">
        <ele>634.526</ele>
        <time>2018-11-24T09:52:14Z</time>
      </trkpt>
      <trkpt lat="42.085441" lon="0.494845">
        <ele>634.445</ele>
        <time>2018-11-24T09:52:15Z</time>
      </trkpt>
      <trkpt lat="42.085682" lon="0.494789">
        <ele>634.495</ele>
        <time>2018-11-24T09:52:16Z</time>
      </trkpt>
      <trkpt lat="42.085920" lon="0.494711">
        <ele>634.580</ele>
        <time>2018-11-24T09:52:17Z</time>
      </trkpt>
      <trkpt lat="42.086154" lon="0.494613">
        <ele>634.437</ele>
        <time>2018-11-24T09:52:18Z</time>
      </trkpt>
      <trkpt lat="42.086383" lon="0.494497">
        <ele>634.549</ele>
        <time>2018-11-24T09:52:19Z</time>
      </trkpt>
      <trkpt lat="42.086611" lon="0.494379">
        <ele>634.613</ele>
        <time>2018-11-24T09:52:20Z</time>
      </trkpt>
      <trkpt lat="42.086835" lon="0.494253">
        <ele>634.808</ele>
        <time>2018-11-24T09:52:21Z</time>
      </trkpt>
      <trkpt lat="42.087059" lon="0.494125">
        <ele>635.126</ele>
        <time>2018-11-24T09:52:22Z</time>
      </trkpt>
      <trkpt lat="42.087278" lon="0.493984">
        <ele>635.373</ele>
        <time>2018-11-24T09:52:23Z</time>
      </trkpt>
      <trkpt lat="42.087489" lon="0.493822">
        <ele>635.770</ele>
        <time>2018-11-24T09:52:24Z</time>
      </trkpt>
      <trkpt lat="42.087691" lon="0.493638">
        <ele>636.010</ele>
        <time>2018-11-24T09:52:25Z</time>
      </trkpt>
      <trkpt lat="42.087878" lon="0.493432">
        <ele>636.461</ele>
        <time>2018-11-24T09:52:26Z</time>
      </trkpt>
      <trkpt lat="42.088053" lon="0.493207">
        <ele>637.070</ele>
        <time>2018-11-24T09:52:27Z</time>
      </trkpt>
      <trkpt lat="42.088216" lon="0.492965">
        <ele>637.550</ele>
        <time>2018-11-24T09:52:28Z</time>
      </trkpt>
      <trkpt lat="42.088380" lon="0.492727">
        <ele>638.055</ele>
        <time>2018-11-24T09:52:29Z</time>
      </trkpt>
      <trkpt lat="42.088533" lon="0.492477">
        <ele>638.596</ele>
        <time>2018-11-24T09:52:30Z</time>
      </trkpt>
      <trkpt lat="42.088697" lon="0.492235">
        <ele>639.231</ele>
        <time>2018-11-24T09:52:31Z</time>
      </trkpt>
      <trkpt lat="42.088874" lon="0.492016">
        <ele>639.524</ele>
        <time>2018-11-24T09:52:32Z</time>
      </trkpt>
      <trkpt lat="42.089069" lon="0.491820">
        <ele>640.008</ele>
        <time>2018-11-24T09:52:33Z</time>
      </trkpt>
      <trkpt lat="42.089281" lon="0.491661">
        <ele>640.442</ele>
        <time>2018-11-24T09:52:34Z</time>
      </trkpt>
      <trkpt lat="42.089500" lon="0.491520">
        <ele>640.949</ele>
        <time>2018-11-24T09:52:35Z</time>
      </trkpt>
      <trkpt lat="42.089718" lon="0.491389">
        <ele>641.626</ele>
        <time>2018-11-24T09:52:36Z</time>
      </trkpt>
      <trkpt lat="42.089960" lon="0.491333">
        <ele>642.286</ele>
        <time>2018-11-24T09:52:37Z</time>
      </trkpt>
      <trkpt lat="42.090202" lon="0.491298">
        <ele>642.677</ele>
        <time>2018-11-24T09:52:38Z</time>
      </trkpt>
      <trkpt lat="42.090446" lon="0.491254">
        <ele>643.156</ele>
        <time>2018-11-24T09:52:39Z</time>
      </trkpt>
      <trkpt lat="42.090685" lon="0.491205">
        <ele>643.636</ele>
        <time>2018-11-24T09:52:40Z</time>
      </trkpt>
      <trkpt lat="42.090924" lon="0.491153">
        <ele>644.271</ele>
        <time>2018-11-24T09:52:41Z</time>
      </trkpt>
      <trkpt lat="42.091160" lon="0.491096">
        <ele>645.116</ele>
        <time>2018-11-24T09:52:42Z</time>
      </trkpt>
      <trkpt lat="42.091401" lon="0.491028">
        <ele>645.876</ele>
        <time>2018-11-24T09:52:43Z</time>
      </trkpt>
      <trkpt lat="42.091636" lon="0.490953">
        <ele>646.513</ele>
        <time>2018-11-24T09:52:44Z</time>
      </trkpt>
      <trkpt lat="42.091871" lon="0.490875">
        <ele>647.108</ele>
        <time>2018-11-24T09:52:45Z</time>
      </trkpt>
      <trkpt lat="42.092104" lon="0.490786">
        <ele>647.834</ele>
        <time>2018-11-24T09:52:46Z</time>
      </trkpt>
      <trkpt lat="42.092336" lon="0.490694">
        <ele>648.481</ele>
        <time>2018-11-24T09:52:47Z</time>
      </trkpt>
      <trkpt lat="42.092568" lon="0.490601">
        <ele>649.498</ele>
        <time>2018-11-24T09:52:48Z</time>
      </trkpt>
      <trkpt lat="42.092802" lon="0.490511">
        <ele>650.398</ele>
        <time>2018-11-24T09:52:49Z</time>
      </trkpt>
      <trkpt lat="42.093035" lon="0.490419">
        <ele>651.059</ele>
        <time>2018-11-24T09:52:50Z</time>
      </trkpt>
      <trkpt lat="42.093269" lon="0.490327">
        <ele>652.038</ele>
        <time>2018-11-24T09:52:51Z</time>
      </trkpt>
      <trkpt lat="42.093501" lon="0.490234">
        <ele>652.828</ele>
        <time>2018-11-24T09:52:52Z</time>
      </trkpt>
      <trkpt lat="42.093734" lon="0.490140">
        <ele>653.743</ele>
        <time>2018-11-24T09:52:53Z</time>
      </trkpt>
      <trkpt lat="42.093961" lon="0.490026">
        <ele>654.974</ele>
        <time>2018-11-24T09:52:54Z</time>
      </trkpt>
      <trkpt lat="42.094181" lon="0.489892">
        <ele>656.256</ele>
        <time>2018-11-24T09:52:55Z</time>
      </trkpt>
      <trkpt lat="42.094396" lon="0.489743">
        <ele>657.321</ele>
        <time>2018-11-24T09:52:56Z</time>
      </trkpt>
      <trkpt lat="42.094606" lon="0.489583">
        <ele>658.208</ele>
        <time>2018-11-24T09:52:57Z</time>
      </trkpt>
      <trkpt lat="42.094812" lon="0.489412">
        <ele>659.730</ele>
        <time>2018-11-24T09:52:58Z</time>
      </trkpt>
      <trkpt lat="42.095011" lon="0.489228">
        <ele>660.997</ele>
        <time>2018-11-24T09:52:59Z</time>
      </trkpt>
      <trkpt lat="42.095208" lon="0.489040">
        <ele>662.554</ele>
        <time>2018-11-24T09:53:00Z</time>
      </trkpt>
      <trkpt lat="42.095404" lon="0.488850">
        <ele>663.944</ele>
        <time>2018-11-24T09:53:01Z</time>
      </trkpt>
      <trkpt lat="42.095599" lon="0.488660">
        <ele>665.685</ele>
        <time>2018-11-24T09:53:02Z</time>
      </trkpt>
      <trkpt lat="42.095795" lon="0.488471">
        <ele>667.174</ele>
        <time>2018-11-24T09:53:03Z</time>
      </trkpt>
      <trkpt lat="42.095990" lon="0.488282">
        <ele>668.854</ele>
        <time>2018-11-24T09:53:04Z</time>
      </trkpt>
      <trkpt lat="42.096186" lon="0.488095">
        <ele>670.399</ele>
        <time>2018-11-24T09:53:05Z</time>
      </trkpt>
      <trkpt lat="42.096383" lon="0.487909">
        <ele>672.274</ele>
        <time>2018-11-24T09:53:06Z</time>
      </trkpt>
      <trkpt lat="42.096582" lon="0.487726">
        <ele>674.256</ele>
        <time>2018-11-24T09:53:07Z</time>
      </trkpt>
      <trkpt lat="42.096780" lon="0.487543">
        <ele>676.021</ele>
        <time>2018-11-24T09:53:08Z</time>
      </trkpt>
      <trkpt lat="42.096977" lon="0.487357">
        <ele>678.308</ele>
        <time>2018-11-24T09:53:09Z</time>
      </trkpt>
      <trkpt lat="42.097175" lon="0.487173">
        <ele>680.130</ele>
        <time>2018-11-24T09:53:10Z</time>
      </trkpt>
      <trkpt lat="42.097376" lon="0.486996">
        <ele>682.377</ele>
        <time>2018-11-24T09:53:11Z</time>
      </trkpt>
      <trkpt lat="42.097581" lon="0.486828">
        <ele>684.324</ele>
        <time>2018-11-24T09:53:12Z</time>
      </trkpt>
      <trkpt lat="42.097791" lon="0.486672">
        <ele>686.714</ele>
        <time>2018-11-24T09:53:13Z</time>
      </trkpt>
      <trkpt lat="42.098007" lon="0.486530">
        <ele>688.665</ele>
        <time>2018-11-24T09:53:14Z</time>
      </trkpt>
      <trkpt lat="42.098227" lon="0.486399">
        <ele>690.774</ele>
        <time>2018-11-24T09:53:15Z</time>
      </trkpt>
      <trkpt lat="42.098450" lon="0.486277">
        <ele>692.924</ele>
        <time>2018-11-24T09:53:16Z</time>
      </trkpt>
      <trkpt lat="42.098677" lon="0.486164">
        <ele>694.789</ele>
        <time>2018-11-24T09:53:17Z</time>
      </trkpt>
      <trkpt lat="42.098907" lon="0.486061">
        <ele>696.988</ele>
        <time>2018-11-24T09:53:18Z</time>
      </trkpt>
      <trkpt lat="42.099138" lon="0.485966">
        <ele>698.724</ele>
        <time>2018-11-24T09:53:19Z</time>
      </trkpt>
      <trkpt lat="42.099370" lon="0.485879">
        <ele>701.126</ele>
        <time>2018-11-24T09:53:20Z</time>
      </trkpt>
      <trkpt lat="42.099602" lon="0.485794">
        <ele>703.308</ele>
        <time>2018-11-24T09:53:21Z</time>
      </trkpt>
      <trkpt lat="42.099834" lon="0.485710">
        <ele>705.691</ele>
        <time>2018-11-24T09:53:22Z</time>
      </trkpt>
      <trkpt lat="42.100066" lon="0.485623">
        <ele>707.688</ele>
        <time>2018-11-24T09:53:23Z</time>
      </trkpt>
      <trkpt lat="42.100299" lon="0.485536">
        <ele>709.915</ele>
        <time>2018-11-24T09:53:24Z</time>
      </trkpt>
      <trkpt lat="42.100537" lon="0.485449">
        <ele>711.475</ele>
        <time>2018-11-24T09:53:25Z</time>
      </trkpt>
      <trkpt lat="42.100772" lon="0.485355">
        <ele>713.226</ele>
        <time>2018-11-24T09:53:26Z</time>
      </trkpt>
      <trkpt lat="42.101006" lon="0.485262">
        <ele>714.765</ele>
        <time>2018-11-24T09:53:27Z</time>
      </trkpt>
      <trkpt lat="42.101241" lon="0.485174">
        <ele>715.785</ele>
        <time>2018-11-24T09:53:28Z</time>
      </trkpt>
      <trkpt lat="42.101477" lon="0.485089">
        <ele>717.030</ele>
        <time>2018-11-24T09:53:29Z</time>
      </trkpt>
      <trkpt lat="42.101713" lon="0.485007">
        <ele>717.828</ele>
        <time>2018-11-24T09:53:30Z</time>
      </trkpt>
      <trkpt lat="42.101953" lon="0.484923">
        <ele>718.689</ele>
        <time>2018-11-24T09:53:31Z</time>
      </trkpt>
      <trkpt lat="42.102184" lon="0.484837">
        <ele>719.017</ele>
        <time>2018-11-24T09:53:32Z</time>
      </trkpt>
      <trkpt lat="42.102417" lon="0.484757">
        <ele>719.108</ele>
        <time>2018-11-24T09:53:33Z</time>
      </trkpt>
      <trkpt lat="42.102647" lon="0.484672">
        <ele>719.225</ele>
        <time>2018-11-24T09:53:34Z</time>
      </trkpt>
      <trkpt lat="42.102874" lon="0.484592">
        <ele>719.192</ele>
        <time>2018-11-24T09:53:35Z</time>
      </trkpt>
      <trkpt lat="42.103106" lon="0.484525">
        <ele>719.129</ele>
        <time>2018-11-24T09:53:36Z</time>
      </trkpt>
      <trkpt lat="42.103337" lon="0.484479">
        <ele>719.059</ele>
        <time>2018-11-24T09:53:37Z</time>
      </trkpt>
      <trkpt lat="42.103567" lon="0.484431">
        <ele>719.170</ele>
        <time>2018-11-24T09:53:38Z</time>
      </trkpt>
      <trkpt lat="42.103802" lon="0.484398">
        <ele>719.119</ele>
        <time>2018-11-24T09:53:39Z</time>
      </trkpt>
      <trkpt lat="42.104035" lon="0.484376">
        <ele>719.219</ele>
        <time>2018-11-24T09:53:40Z</time>
      </trkpt>
      <trkpt lat="42.104275" lon="0.484363">
        <ele>719.734</ele>
        <time>2018-11-24T09:53:41Z</time>
      </trkpt>
      <trkpt lat="42.104513" lon="0.484366">
        <ele>720.254</ele>
        <time>2018-11-24T09:53:42Z</time>
      </trkpt>
      <trkpt lat="42.104753" lon="0.484383">
        <ele>720.756</ele>
        <time>2018-11-24T09:53:43Z</time>
      </trkpt>
      <trkpt lat="42.104991" lon="0.484406">
        <ele>721.511</ele>
        <time>2018-11-24T09:53:44Z</time>
      </trkpt>
      <trkpt lat="42.105227" lon="0.484436">
        <ele>722.408</ele>
        <time>2018-11-24T09:53:45Z</time>
      </trkpt>
      <trkpt lat="42.105463" lon="0.484477">
        <ele>723.158</ele>
        <time>2018-11-24T09:53:46Z</time>
      </trkpt>
      <trkpt lat="42.105699" lon="0.484525">
        <ele>724.285</ele>
        <time>2018-11-24T09:53:47Z</time>
      </trkpt>
      <trkpt lat="42.105933" lon="0.484575">
        <ele>725.252</ele>
        <time>2018-11-24T09:53:48Z</time>
      </trkpt>
      <trkpt lat="42.106168" lon="0.484627">
        <ele>726.792</ele>
        <time>2018-11-24T09:53:49Z</time>
      </trkpt>
      <trkpt lat="42.106404" lon="0.484676">
        <ele>728.063</ele>
        <time>2018-11-24T09:53:50Z</time>
      </trkpt>
      <trkpt lat="42.106639" lon="0.484722">
        <ele>729.612</ele>
        <time>2018-11-24T09:53:51Z</time>
      </trkpt>
      <trkpt lat="42.106874" lon="0.484772">
        <ele>731.112</ele>
        <time>2018-11-24T09:53:52Z</time>
      </trkpt>
      <trkpt lat="42.107107" lon="0.484837">
        <ele>732.247</ele>
        <time>2018-11-24T09:53:53Z</time>
      </trkpt>
      <trkpt lat="42.107335" lon="0.484927">
        <ele>733.795</ele>
        <time>2018-11-24T09:53:54Z</time>
      </trkpt>
      <trkpt lat="42.107555" lon="0.485054">
        <ele>734.649</ele>
        <time>2018-11-24T09:53:55Z</time>
      </trkpt>
      <trkpt lat="42.107764" lon="0.485213">
        <ele>735.723</ele>
        <time>2018-11-24T09:53:56Z</time>
      </trkpt>
      <trkpt lat="42.107957" lon="0.485409">
        <ele>736.308</ele>
        <time>2018-11-24T09:53:57Z</time>
      </trkpt>
      <trkpt lat="42.108130" lon="0.485637">
        <ele>736.852</ele>
        <time>2018-11-24T09:53:58Z</time>
      </trkpt>
      <trkpt lat="42.108277" lon="0.485894">
        <ele>737.199</ele>
        <time>2018-11-24T09:53:59Z</time>
      </trkpt>
      <trkpt lat="42.108397" lon="0.486177">
        <ele>737.396</ele>
        <time>2018-11-24T09:54:00Z</time>
      </trkpt>
      <trkpt lat="42.108490" lon="0.486476">
        <ele>737.386</ele>
        <time>2018-11-24T09:54:01Z</time>
      </trkpt>
      <trkpt lat="42.108555" lon="0.486787">
        <ele>737.287</ele>
        <time>2018-11-24T09:54:02Z</time>
      </trkpt>
      <trkpt lat="42.108590" lon="0.487110">
        <ele>736.836</ele>
        <time>2018-11-24T09:54:03Z</time>
      </trkpt>
      <trkpt lat="42.108592" lon="0.487434">
        <ele>736.376</ele>
        <time>2018-11-24T09:54:04Z</time>
      </trkpt>
      <trkpt lat="42.108561" lon="0.487757">
        <ele>735.581</ele>
        <time>2018-11-24T09:54:05Z</time>
      </trkpt>
      <trkpt lat="42.108530" lon="0.488078">
        <ele>734.679</ele>
        <time>2018-11-24T09:54:06Z</time>
      </trkpt>
      <trkpt lat="42.108427" lon="0.488375">
        <ele>733.305</ele>
        <time>2018-11-24T09:54:07Z</time>
      </trkpt>
      <trkpt lat="42.108309" lon="0.488650">
        <ele>731.925</ele>
        <time>2018-11-24T09:54:08Z</time>
      </trkpt>
      <trkpt lat="42.108161" lon="0.488897">
        <ele>730.308</ele>
        <time>2018-11-24T09:54:09Z</time>
      </trkpt>
      <trkpt lat="42.108017" lon="0.489136">
        <ele>728.720</ele>
        <time>2018-11-24T09:54:10Z</time>
      </trkpt>
      <trkpt lat="42.107837" lon="0.489337">
        <ele>727.267</ele>
        <time>2018-11-24T09:54:11Z</time>
      </trkpt>
      <trkpt lat="42.107647" lon="0.489523">
        <ele>725.584</ele>
        <time>2018-11-24T09:54:12Z</time>
      </trkpt>
      <trkpt lat="42.107454" lon="0.489697">
        <ele>724.164</ele>
        <time>2018-11-24T09:54:13Z</time>
      </trkpt>
      <trkpt lat="42.107257" lon="0.489870">
        <ele>722.555</ele>
        <time>2018-11-24T09:54:14Z</time>
      </trkpt>
      <trkpt lat="42.107072" lon="0.490057">
        <ele>721.384</ele>
        <time>2018-11-24T09:54:15Z</time>
      </trkpt>
      <trkpt lat="42.106899" lon="0.490269">
        <ele>720.014</ele>
        <time>2018-11-24T09:54:16Z</time>
      </trkpt>
      <trkpt lat="42.106742" lon="0.490504">
        <ele>718.929</ele>
        <time>2018-11-24T09:54:17Z</time>
      </trkpt>
      <trkpt lat="42.106607" lon="0.490763">
        <ele>717.653</ele>
        <time>2018-11-24T09:54:18Z</time>
      </trkpt>
      <trkpt lat="42.106472" lon="0.491021">
        <ele>716.804</ele>
        <time>2018-11-24T09:54:19Z</time>
      </trkpt>
      <trkpt lat="42.106385" lon="0.491315">
        <ele>716.614</ele>
        <time>2018-11-24T09:54:20Z</time>
      </trkpt>
      <trkpt lat="42.106321" lon="0.491622">
        <ele>716.508</ele>
        <time>2018-11-24T09:54:21Z</time>
      </trkpt>
      <trkpt lat="42.106283" lon="0.491939">
        <ele>716.658</ele>
        <time>2018-11-24T09:54:22Z</time>
      </trkpt>
      <trkpt lat="42.106267" lon="0.492263">
        <ele>717.045</ele>
        <time>2018-11-24T09:54:23Z</time>
      </trkpt>
      <trkpt lat="42.106271" lon="0.492579">
        <ele>717.412</ele>
        <time>2018-11-24T09:54:24Z</time>
      </trkpt>
      <trkpt lat="42.106297" lon="0.492897">
        <ele>717.812</ele>
        <time>2018-11-24T09:54:25Z</time>
      </trkpt>
      <trkpt lat="42.106340" lon="0.493207">
        <ele>716.713</ele>
        <time>2018-11-24T09:54:26Z</time>
      </trkpt>
      <trkpt lat="42.106397" lon="0.493517">
        <ele>716.322</ele>
        <time>2018-11-24T09:54:27Z</time>
      </trkpt>
      <trkpt lat="42.106453" lon="0.493823">
        <ele>717.442</ele>
        <time>2018-11-24T09:54:28Z</time>
      </trkpt>
      <trkpt lat="42.106506" lon="0.494127">
        <ele>717.967</ele>
        <time>2018-11-24T09:54:29Z</time>
      </trkpt>
      <trkpt lat="42.106561" lon="0.494429">
        <ele>718.349</ele>
        <time>2018-11-24T09:54:30Z</time>
      </trkpt>
      <trkpt lat="42.106616" lon="0.494729">
        <ele>718.502</ele>
        <time>2018-11-24T09:54:31Z</time>
      </trkpt>
      <trkpt lat="42.106668" lon="0.495030">
        <ele>718.822</ele>
        <time>2018-11-24T09:54:32Z</time>
      </trkpt>
      <trkpt lat="42.106721" lon="0.495330">
        <ele>719.108</ele>
        <time>2018-11-24T09:54:33Z</time>
      </trkpt>
      <trkpt lat="42.106772" lon="0.495636">
        <ele>719.347</ele>
        <time>2018-11-24T09:54:34Z</time>
      </trkpt>
      <trkpt lat="42.106821" lon="0.495938">
        <ele>719.634</ele>
        <time>2018-11-24T09:54:35Z</time>
      </trkpt>
      <trkpt lat="42.106870" lon="0.496242">
        <ele>719.621</ele>
        <time>2018-11-24T09:54:36Z</time>
      </trkpt>
      <trkpt lat="42.106908" lon="0.496549">
        <ele>721.061</ele>
        <time>2018-11-24T09:54:37Z</time>
      </trkpt>
      <trkpt lat="42.106943" lon="0.496856">
        <ele>722.942</ele>
        <time>2018-11-24T09:54:38Z</time>
      </trkpt>
      <trkpt lat="42.106977" lon="0.497165">
        <ele>723.911</ele>
        <time>2018-11-24T09:54:39Z</time>
      </trkpt>
      <trkpt lat="42.107008" lon="0.497471">
        <ele>724.651</ele>
        <time>2018-11-24T09:54:40Z</time>
      </trkpt>
      <trkpt lat="42.107033" lon="0.497781">
        <ele>725.446</ele>
        <time>2018-11-24T09:54:41Z</time>
      </trkpt>
      <trkpt lat="42.107057" lon="0.498089">
        <ele>726.044</ele>
        <time>2018-11-24T09:54:42Z</time>
      </trkpt>
      <trkpt lat="42.107078" lon="0.498398">
        <ele>726.805</ele>
        <time>2018-11-24T09:54:43Z</time>
      </trkpt>
      <trkpt lat="42.107099" lon="0.498708">
        <ele>727.315</ele>
        <time>2018-11-24T09:54:44Z</time>
      </trkpt>
      <trkpt lat="42.107118" lon="0.499017">
        <ele>727.908</ele>
        <time>2018-11-24T09:54:45Z</time>
      </trkpt>
      <trkpt lat="42.107137" lon="0.499325">
        <ele>728.567</ele>
        <time>2018-11-24T09:54:46Z</time>
      </trkpt>
      <trkpt lat="42.107155" lon="0.499634">
        <ele>729.184</ele>
        <time>2018-11-24T09:54:47Z</time>
      </trkpt>
      <trkpt lat="42.107171" lon="0.499942">
        <ele>729.971</ele>
        <time>2018-11-24T09:54:48Z</time>
      </trkpt>
      <trkpt lat="42.107191" lon="0.500250">
        <ele>730.771</ele>
        <time>2018-11-24T09:54:49Z</time>
      </trkpt>
      <trkpt lat="42.107215" lon="0.500559">
        <ele>731.352</ele>
        <time>2018-11-24T09:54:50Z</time>
      </trkpt>
      <trkpt lat="42.107248" lon="0.500866">
        <ele>731.881</ele>
        <time>2018-11-24T09:54:51Z</time>
      </trkpt>
      <trkpt lat="42.107293" lon="0.501171">
        <ele>732.391</ele>
        <time>2018-11-24T09:54:52Z</time>
      </trkpt>
      <trkpt lat="42.107349" lon="0.501473">
        <ele>732.766</ele>
        <time>2018-11-24T09:54:53Z</time>
      </trkpt>
      <trkpt lat="42.107409" lon="0.501773">
        <ele>733.586</ele>
        <time>2018-11-24T09:54:54Z</time>
      </trkpt>
      <trkpt lat="42.107469" lon="0.502073">
        <ele>733.960</ele>
        <time>2018-11-24T09:54:55Z</time>
      </trkpt>
      <trkpt lat="42.107530" lon="0.502373">
        <ele>734.426</ele>
        <time>2018-11-24T09:54:56Z</time>
      </trkpt>
      <trkpt lat="42.107592" lon="0.502673">
        <ele>735.108</ele>
        <time>2018-11-24T09:54:57Z</time>
      </trkpt>
      <trkpt lat="42.107652" lon="0.502973">
        <ele>735.551</ele>
        <time>2018-11-24T09:54:58Z</time>
      </trkpt>
      <trkpt lat="42.107712" lon="0.503273">
        <ele>736.238</ele>
        <time>2018-11-24T09:54:59Z</time>
      </trkpt>
      <trkpt lat="42.107773" lon="0.503573">
        <ele>736.955</ele>
        <time>2018-11-24T09:55:00Z</time>
      </trkpt>
      <trkpt lat="42.107833" lon="0.503873">
        <ele>737.635</ele>
        <time>2018-11-24T09:55:01Z</time>
      </trkpt>
      <trkpt lat="42.107892" lon="0.504173">
        <ele>738.186</ele>
        <time>2018-11-24T09:55:02Z</time>
      </trkpt>
      <trkpt lat="42.107951" lon="0.504473">
        <ele>738.745</ele>
        <time>2018-11-24T09:55:03Z</time>
      </trkpt>
      <trkpt lat="42.108010" lon="0.504773">
        <ele>739.215</ele>
        <time>2018-11-24T09:55:04Z</time>
      </trkpt>
      <trkpt lat="42.108071" lon="0.505072">
        <ele>739.910</ele>
        <time>2018-11-24T09:55:05Z</time>
      </trkpt>
      <trkpt lat="42.108133" lon="0.505371">
        <ele>740.886</ele>
        <time>2018-11-24T09:55:06Z</time>
      </trkpt>
      <trkpt lat="42.108195" lon="0.505671">
        <ele>741.260</ele>
        <time>2018-11-24T09:55:07Z</time>
      </trkpt>
      <trkpt lat="42.108256" lon="0.505971">
        <ele>741.826</ele>
        <time>2018-11-24T09:55:08Z</time>
      </trkpt>
      <trkpt lat="42.108317" lon="0.506270">
        <ele>742.308</ele>
        <time>2018-11-24T09:55:09Z</time>
      </trkpt>
      <trkpt lat="42.108378" lon="0.506570">
        <ele>742.821</ele>
        <time>2018-11-24T09:55:10Z</time>
      </trkpt>
      <trkpt lat="42.108439" lon="0.506870">
        <ele>743.448</ele>
        <time>2018-11-24T09:55:11Z</time>
      </trkpt>
      <trkpt lat="42.108497" lon="0.507170">
        <ele>744.035</ele>
        <time>2018-11-24T09:55:12Z</time>
      </trkpt>
      <trkpt lat="42.108553" lon="0.507472">
        <ele>744.695</ele>
        <time>2018-11-24T09:55:13Z</time>
      </trkpt>
      <trkpt lat="42.108602" lon="0.507776">
        <ele>745.336</ele>
        <time>2018-11-24T09:55:14Z</time>
      </trkpt>
      <trkpt lat="42.108641" lon="0.508082">
        <ele>746.155</ele>
        <time>2018-11-24T09:55:15Z</time>
      </trkpt>
      <trkpt lat="42.108668" lon="0.508391">
        <ele>746.895</ele>
        <time>2018-11-24T09:55:16Z</time>
      </trkpt>
      <trkpt lat="42.108685" lon="0.508700">
        <ele>747.510</ele>
        <time>2018-11-24T09:55:17Z</time>
      </trkpt>
      <trkpt lat="42.108695" lon="0.509009">
        <ele>748.135</ele>
        <time>2018-11-24T09:55:18Z</time>
      </trkpt>
      <trkpt lat="42.108709" lon="0.509318">
        <ele>749.086</ele>
        <time>2018-11-24T09:55:19Z</time>
      </trkpt>
      <trkpt lat="42.108737" lon="0.509626">
        <ele>749.714</ele>
        <time>2018-11-24T09:55:20Z</time>
      </trkpt>
      <trkpt lat="42.108770" lon="0.509930">
        <ele>750.508</ele>
        <time>2018-11-24T09:55:21Z</time>
      </trkpt>
      <trkpt lat="42.108844" lon="0.510224">
        <ele>751.386</ele>
        <time>2018-11-24T09:55:22Z</time>
      </trkpt>
      <trkpt lat="42.108924" lon="0.510512">
        <ele>752.323</ele>
        <time>2018-11-24T09:55:23Z</time>
      </trkpt>
      <trkpt lat="42.109010" lon="0.510799">
        <ele>753.360</ele>
        <time>2018-11-24T09:55:24Z</time>
      </trkpt>
      <trkpt lat="42.109105" lon="0.511082">
        <ele>753.810</ele>
        <time>2018-11-24T09:55:25Z</time>
      </trkpt>
      <trkpt lat="42.109207" lon="0.511361">
        <ele>754.781</ele>
        <time>2018-11-24T09:55:26Z</time>
      </trkpt>
      <trkpt lat="42.109301" lon="0.511643">
        <ele>755.410</ele>
        <time>2018-11-24T09:55:27Z</time>
      </trkpt>
      <trkpt lat="42.109395" lon="0.511923">
        <ele>756.280</ele>
        <time>2018-11-24T09:55:28Z</time>
      </trkpt>
      <trkpt lat="42.109488" lon="0.512205">
        <ele>756.935</ele>
        <time>2018-11-24T09:55:29Z</time>
      </trkpt>
      <trkpt lat="42.109582" lon="0.512487">
        <ele>757.984</ele>
        <time>2018-11-24T09:55:30Z</time>
      </trkpt>
      <trkpt lat="42.109676" lon="0.512769">
        <ele>758.607</ele>
        <time>2018-11-24T09:55:31Z</time>
      </trkpt>
      <trkpt lat="42.109771" lon="0.513051">
        <ele>759.117</ele>
        <time>2018-11-24T09:55:32Z</time>
      </trkpt>
      <trkpt lat="42.109864" lon="0.513333">
        <ele>759.908</ele>
        <time>2018-11-24T09:55:33Z</time>
      </trkpt>
      <trkpt lat="42.109958" lon="0.513615">
        <ele>760.641</ele>
        <time>2018-11-24T09:55:34Z</time>
      </trkpt>
      <trkpt lat="42.110051" lon="0.513896">
        <ele>761.978</ele>
        <time>2018-11-24T09:55:35Z</time>
      </trkpt>
      <trkpt lat="42.110144" lon="0.514175">
        <ele>763.055</ele>
        <time>2018-11-24T09:55:36Z</time>
      </trkpt>
      <trkpt lat="42.110235" lon="0.514455">
        <ele>764.315</ele>
        <time>2018-11-24T09:55:37Z</time>
      </trkpt>
      <trkpt lat="42.110328" lon="0.514734">
        <ele>765.916</ele>
        <time>2018-11-24T09:55:38Z</time>
      </trkpt>
      <trkpt lat="42.110424" lon="0.515012">
        <ele>767.235</ele>
        <time>2018-11-24T09:55:39Z</time>
      </trkpt>
      <trkpt lat="42.110523" lon="0.515289">
        <ele>768.775</ele>
        <time>2018-11-24T09:55:40Z</time>
      </trkpt>
      <trkpt lat="42.110625" lon="0.515565">
        <ele>770.370</ele>
        <time>2018-11-24T09:55:41Z</time>
      </trkpt>
      <trkpt lat="42.110730" lon="0.515840">
        <ele>772.024</ele>
        <time>2018-11-24T09:55:42Z</time>
      </trkpt>
      <trkpt lat="42.110836" lon="0.516115">
        <ele>773.404</ele>
        <time>2018-11-24T09:55:43Z</time>
      </trkpt>
      <trkpt lat="42.110945" lon="0.516388">
        <ele>775.014</ele>
        <time>2018-11-24T09:55:44Z</time>
      </trkpt>
      <trkpt lat="42.111055" lon="0.516660">
        <ele>776.508</ele>
        <time>2018-11-24T09:55:45Z</time>
      </trkpt>
      <trkpt lat="42.111168" lon="0.516929">
        <ele>778.525</ele>
        <time>2018-11-24T09:55:46Z</time>
      </trkpt>
      <trkpt lat="42.111283" lon="0.517198">
        <ele>779.952</ele>
        <time>2018-11-24T09:55:47Z</time>
      </trkpt>
      <trkpt lat="42.111398" lon="0.517468">
        <ele>781.519</ele>
        <time>2018-11-24T09:55:48Z</time>
      </trkpt>
      <trkpt lat="42.111515" lon="0.517737">
        <ele>782.949</ele>
        <time>2018-11-24T09:55:49Z</time>
      </trkpt>
      <trkpt lat="42.111634" lon="0.518005">
        <ele>784.240</ele>
        <time>2018-11-24T09:55:50Z</time>
      </trkpt>
      <trkpt lat="42.111753" lon="0.518274">
        <ele>785.419</ele>
        <time>2018-11-24T09:55:51Z</time>
      </trkpt>
      <trkpt lat="42.111869" lon="0.518544">
        <ele>786.419</ele>
        <time>2018-11-24T09:55:52Z</time>
      </trkpt>
      <trkpt lat="42.111982" lon="0.518819">
        <ele>787.414</ele>
        <time>2018-11-24T09:55:53Z</time>
      </trkpt>
      <trkpt lat="42.112088" lon="0.519098">
        <ele>787.952</ele>
        <time>2018-11-24T09:55:54Z</time>
      </trkpt>
      <trkpt lat="42.112184" lon="0.519382">
        <ele>788.753</ele>
        <time>2018-11-24T09:55:55Z</time>
      </trkpt>
      <trkpt lat="42.112269" lon="0.519670">
        <ele>789.308</ele>
        <time>2018-11-24T09:55:56Z</time>
      </trkpt>
      <trkpt lat="42.112346" lon="0.519965">
        <ele>789.908</ele>
        <time>2018-11-24T09:55:57Z</time>
      </trkpt>
      <trkpt lat="42.112415" lon="0.520263">
        <ele>790.478</ele>
        <time>2018-11-24T09:55:58Z</time>
      </trkpt>
      <trkpt lat="42.112477" lon="0.520565">
        <ele>790.655</ele>
        <time>2018-11-24T09:55:59Z</time>
      </trkpt>
      <trkpt lat="42.112527" lon="0.520871">
        <ele>790.592</ele>
        <time>2018-11-24T09:56:00Z</time>
      </trkpt>
      <trkpt lat="42.112565" lon="0.521181">
        <ele>790.432</ele>
        <time>2018-11-24T09:56:01Z</time>
      </trkpt>
      <trkpt lat="42.112596" lon="0.521492">
        <ele>790.433</ele>
        <time>2018-11-24T09:56:02Z</time>
      </trkpt>
      <trkpt lat="42.112621" lon="0.521804">
        <ele>790.222</ele>
        <time>2018-11-24T09:56:03Z</time>
      </trkpt>
      <trkpt lat="42.112641" lon="0.522116">
        <ele>789.812</ele>
        <time>2018-11-24T09:56:04Z</time>
      </trkpt>
      <trkpt lat="42.112656" lon="0.522429">
        <ele>789.797</ele>
        <time>2018-11-24T09:56:05Z</time>
      </trkpt>
      <trkpt lat="42.112670" lon="0.522742">
        <ele>789.536</ele>
        <time>2018-11-24T09:56:06Z</time>
      </trkpt>
      <trkpt lat="42.112688" lon="0.523054">
        <ele>789.117</ele>
        <time>2018-11-24T09:56:07Z</time>
      </trkpt>
      <trkpt lat="42.112709" lon="0.523366">
        <ele>788.718</ele>
        <time>2018-11-24T09:56:08Z</time>
      </trkpt>
      <trkpt lat="42.112736" lon="0.523676">
        <ele>788.208</ele>
        <time>2018-11-24T09:56:09Z</time>
      </trkpt>
      <trkpt lat="42.112771" lon="0.523985">
        <ele>787.776</ele>
        <time>2018-11-24T09:56:10Z</time>
      </trkpt>
      <trkpt lat="42.112813" lon="0.524293">
        <ele>786.743</ele>
        <time>2018-11-24T09:56:11Z</time>
      </trkpt>
      <trkpt lat="42.112863" lon="0.524599">
        <ele>785.740</ele>
        <time>2018-11-24T09:56:12Z</time>
      </trkpt>
      <trkpt lat="42.112922" lon="0.524902">
        <ele>784.520</ele>
        <time>2018-11-24T09:56:13Z</time>
      </trkpt>
      <trkpt lat="42.112989" lon="0.525201">
        <ele>783.641</ele>
        <time>2018-11-24T09:56:14Z</time>
      </trkpt>
      <trkpt lat="42.113063" lon="0.525496">
        <ele>782.910</ele>
        <time>2018-11-24T09:56:15Z</time>
      </trkpt>
      <trkpt lat="42.113145" lon="0.525786">
        <ele>782.550</ele>
        <time>2018-11-24T09:56:16Z</time>
      </trkpt>
      <trkpt lat="42.113234" lon="0.526073">
        <ele>782.195</ele>
        <time>2018-11-24T09:56:17Z</time>
      </trkpt>
      <trkpt lat="42.113328" lon="0.526356">
        <ele>782.071</ele>
        <time>2018-11-24T09:56:18Z</time>
      </trkpt>
      <trkpt lat="42.113424" lon="0.526637">
        <ele>781.941</ele>
        <time>2018-11-24T09:56:19Z</time>
      </trkpt>
      <trkpt lat="42.113519" lon="0.526918">
        <ele>782.115</ele>
        <time>2018-11-24T09:56:20Z</time>
      </trkpt>
      <trkpt lat="42.113606" lon="0.527203">
        <ele>782.308</ele>
        <time>2018-11-24T09:56:21Z</time>
      </trkpt>
      <trkpt lat="42.113682" lon="0.527496">
        <ele>782.530</ele>
        <time>2018-11-24T09:56:22Z</time>
      </trkpt>
      <trkpt lat="42.113741" lon="0.527795">
        <ele>782.727</ele>
        <time>2018-11-24T09:56:23Z</time>
      </trkpt>
      <trkpt lat="42.113785" lon="0.528098">
        <ele>783.084</ele>
        <time>2018-11-24T09:56:24Z</time>
      </trkpt>
      <trkpt lat="42.113814" lon="0.528406">
        <ele>783.184</ele>
        <time>2018-11-24T09:56:25Z</time>
      </trkpt>
      <trkpt lat="42.113834" lon="0.528715">
        <ele>782.885</ele>
        <time>2018-11-24T09:56:26Z</time>
      </trkpt>
      <trkpt lat="42.113850" lon="0.529026">
        <ele>782.714</ele>
        <time>2018-11-24T09:56:27Z</time>
      </trkpt>
      <trkpt lat="42.113863" lon="0.529338">
        <ele>782.694</ele>
        <time>2018-11-24T09:56:28Z</time>
      </trkpt>
      <trkpt lat="42.113872" lon="0.529651">
        <ele>782.439</ele>
        <time>2018-11-24T09:56:29Z</time>
      </trkpt>
      <trkpt lat="42.113877" lon="0.529964">
        <ele>782.051</ele>
        <time>2018-11-24T09:56:30Z</time>
      </trkpt>
      <trkpt lat="42.113878" lon="0.530278">
        <ele>781.501</ele>
        <time>2018-11-24T09:56:31Z</time>
      </trkpt>
      <trkpt lat="42.113875" lon="0.530591">
        <ele>780.911</ele>
        <time>2018-11-24T09:56:32Z</time>
      </trkpt>
      <trkpt lat="42.113869" lon="0.530904">
        <ele>779.808</ele>
        <time>2018-11-24T09:56:33Z</time>
      </trkpt>
      <trkpt lat="42.113862" lon="0.531218">
        <ele>778.428</ele>
        <time>2018-11-24T09:56:34Z</time>
      </trkpt>
      <trkpt lat="42.113854" lon="0.531532">
        <ele>777.015</ele>
        <time>2018-11-24T09:56:35Z</time>
      </trkpt>
      <trkpt lat="42.113844" lon="0.531847">
        <ele>775.192</ele>
        <time>2018-11-24T09:56:36Z</time>
      </trkpt>
      <trkpt lat="42.113834" lon="0.532161">
        <ele>773.812</ele>
        <time>2018-11-24T09:56:37Z</time>
      </trkpt>
      <trkpt lat="42.113826" lon="0.532475">
        <ele>772.343</ele>
        <time>2018-11-24T09:56:38Z</time>
      </trkpt>
      <trkpt lat="42.113817" lon="0.532787">
        <ele>771.092</ele>
        <time>2018-11-24T09:56:39Z</time>
      </trkpt>
      <trkpt lat="42.113808" lon="0.533097">
        <ele>769.742</ele>
        <time>2018-11-24T09:56:40Z</time>
      </trkpt>
      <trkpt lat="42.113799" lon="0.533407">
        <ele>768.987</ele>
        <time>2018-11-24T09:56:41Z</time>
      </trkpt>
      <trkpt lat="42.113795" lon="0.533714">
        <ele>768.166</ele>
        <time>2018-11-24T09:56:42Z</time>
      </trkpt>
      <trkpt lat="42.113786" lon="0.534023">
        <ele>767.229</ele>
        <time>2018-11-24T09:56:43Z</time>
      </trkpt>
      <trkpt lat="42.113777" lon="0.534331">
        <ele>766.421</ele>
        <time>2018-11-24T09:56:44Z</time>
      </trkpt>
      <trkpt lat="42.113768" lon="0.534641">
        <ele>765.808</ele>
        <time>2018-11-24T09:56:45Z</time>
      </trkpt>
      <trkpt lat="42.113757" lon="0.534953">
        <ele>764.929</ele>
        <time>2018-11-24T09:56:46Z</time>
      </trkpt>
      <trkpt lat="42.113752" lon="0.535260">
        <ele>764.366</ele>
        <time>2018-11-24T09:56:47Z</time>
      </trkpt>
      <trkpt lat="42.113745" lon="0.535569">
        <ele>763.693</ele>
        <time>2018-11-24T09:56:48Z</time>
      </trkpt>
      <trkpt lat="42.113738" lon="0.535879">
        <ele>762.813</ele>
        <time>2018-11-24T09:56:49Z</time>
      </trkpt>
      <trkpt lat="42.113729" lon="0.536190">
        <ele>762.284</ele>
        <time>2018-11-24T09:56:50Z</time>
      </trkpt>
      <trkpt lat="42.113719" lon="0.536502">
        <ele>761.443</ele>
        <time>2018-11-24T09:56:51Z</time>
      </trkpt>
      <trkpt lat="42.113710" lon="0.536816">
        <ele>760.883</ele>
        <time>2018-11-24T09:56:52Z</time>
      </trkpt>
      <trkpt lat="42.113702" lon="0.537134">
        <ele>760.218</ele>
        <time>2018-11-24T09:56:53Z</time>
      </trkpt>
      <trkpt lat="42.113699" lon="0.537447">
        <ele>759.398</ele>
        <time>2018-11-24T09:56:54Z</time>
      </trkpt>
      <trkpt lat="42.113719" lon="0.537758">
        <ele>758.615</ele>
        <time>2018-11-24T09:56:55Z</time>
      </trkpt>
      <trkpt lat="42.113756" lon="0.538058">
        <ele>757.626</ele>
        <time>2018-11-24T09:56:56Z</time>
      </trkpt>
      <trkpt lat="42.113818" lon="0.538364">
        <ele>756.408</ele>
        <time>2018-11-24T09:56:57Z</time>
      </trkpt>
      <trkpt lat="42.113899" lon="0.538653">
        <ele>754.712</ele>
        <time>2018-11-24T09:56:58Z</time>
      </trkpt>
      <trkpt lat="42.114006" lon="0.538937">
        <ele>753.459</ele>
        <time>2018-11-24T09:56:59Z</time>
      </trkpt>
      <trkpt lat="42.114124" lon="0.539213">
        <ele>751.956</ele>
        <time>2018-11-24T09:57:00Z</time>
      </trkpt>
      <trkpt lat="42.114268" lon="0.539479">
        <ele>750.356</ele>
        <time>2018-11-24T09:57:01Z</time>
      </trkpt>
      <trkpt lat="42.114402" lon="0.539743">
        <ele>748.827</ele>
        <time>2018-11-24T09:57:02Z</time>
      </trkpt>
      <trkpt lat="42.114524" lon="0.540022">
        <ele>747.176</ele>
        <time>2018-11-24T09:57:03Z</time>
      </trkpt>
      <trkpt lat="42.114642" lon="0.540301">
        <ele>745.666</ele>
        <time>2018-11-24T09:57:04Z</time>
      </trkpt>
      <trkpt lat="42.114723" lon="0.540602">
        <ele>743.721</ele>
        <time>2018-11-24T09:57:05Z</time>
      </trkpt>
      <trkpt lat="42.114779" lon="0.540915">
        <ele>742.243</ele>
        <time>2018-11-24T09:57:06Z</time>
      </trkpt>
      <trkpt lat="42.114812" lon="0.541241">
        <ele>740.264</ele>
        <time>2018-11-24T09:57:07Z</time>
      </trkpt>
      <trkpt lat="42.114828" lon="0.541561">
        <ele>738.610</ele>
        <time>2018-11-24T09:57:08Z</time>
      </trkpt>
      <trkpt lat="42.114807" lon="0.541882">
        <ele>736.608</ele>
        <time>2018-11-24T09:57:09Z</time>
      </trkpt>
      <trkpt lat="42.114764" lon="0.542198">
        <ele>735.037</ele>
        <time>2018-11-24T09:57:10Z</time>
      </trkpt>
      <trkpt lat="42.114712" lon="0.542510">
        <ele>733.354</ele>
        <time>2018-11-24T09:57:11Z</time>
      </trkpt>
      <trkpt lat="42.114619" lon="0.542808">
        <ele>731.621</ele>
        <time>2018-11-24T09:57:12Z</time>
      </trkpt>
      <trkpt lat="42.114503" lon="0.543104">
        <ele>729.661</ele>
        <time>2018-11-24T09:57:13Z</time>
      </trkpt>
      <trkpt lat="42.114396" lon="0.543400">
        <ele>727.982</ele>
        <time>2018-11-24T09:57:14Z</time>
      </trkpt>
      <trkpt lat="42.114309" lon="0.543701">
        <ele>726.431</ele>
        <time>2018-11-24T09:57:15Z</time>
      </trkpt>
      <trkpt lat="42.114239" lon="0.544009">
        <ele>724.751</ele>
        <time>2018-11-24T09:57:16Z</time>
      </trkpt>
      <trkpt lat="42.114182" lon="0.544326">
        <ele>723.496</ele>
        <time>2018-11-24T09:57:17Z</time>
      </trkpt>
      <trkpt lat="42.114143" lon="0.544645">
        <ele>721.657</ele>
        <time>2018-11-24T09:57:18Z</time>
      </trkpt>
      <trkpt lat="42.114118" lon="0.544967">
        <ele>719.600</ele>
        <time>2018-11-24T09:57:19Z</time>
      </trkpt>
      <trkpt lat="42.114104" lon="0.545282">
        <ele>718.020</ele>
        <time>2018-11-24T09:57:20Z</time>
      </trkpt>
      <trkpt lat="42.114090" lon="0.545603">
        <ele>716.208</ele>
        <time>2018-11-24T09:57:21Z</time>
      </trkpt>
      <trkpt lat="42.114067" lon="0.545923">
        <ele>714.998</ele>
        <time>2018-11-24T09:57:22Z</time>
      </trkpt>
      <trkpt lat="42.114027" lon="0.546238">
        <ele>713.595</ele>
        <time>2018-11-24T09:57:23Z</time>
      </trkpt>
      <trkpt lat="42.113974" lon="0.546552">
        <ele>712.482</ele>
        <time>2018-11-24T09:57:24Z</time>
      </trkpt>
      <trkpt lat="42.113909" lon="0.546861">
        <ele>711.592</ele>
        <time>2018-11-24T09:57:25Z</time>
      </trkpt>
      <trkpt lat="42.113836" lon="0.547167">
        <ele>711.093</ele>
        <time>2018-11-24T09:57:26Z</time>
      </trkpt>
      <trkpt lat="42.113758" lon="0.547470">
        <ele>710.732</ele>
        <time>2018-11-24T09:57:27Z</time>
      </trkpt>
      <trkpt lat="42.113680" lon="0.547772">
        <ele>710.432</ele>
        <time>2018-11-24T09:57:28Z</time>
      </trkpt>
      <trkpt lat="42.113602" lon="0.548073">
        <ele>710.027</ele>
        <time>2018-11-24T09:57:29Z</time>
      </trkpt>
      <trkpt lat="42.113523" lon="0.548379">
        <ele>709.834</ele>
        <time>2018-11-24T09:57:30Z</time>
      </trkpt>
      <trkpt lat="42.113446" lon="0.548678">
        <ele>709.755</ele>
        <time>2018-11-24T09:57:31Z</time>
      </trkpt>
      <trkpt lat="42.113361" lon="0.548980">
        <ele>709.410</ele>
        <time>2018-11-24T09:57:32Z</time>
      </trkpt>
      <trkpt lat="42.113251" lon="0.549270">
        <ele>709.208</ele>
        <time>2018-11-24T09:57:33Z</time>
      </trkpt>
      <trkpt lat="42.113137" lon="0.549556">
        <ele>709.176</ele>
        <time>2018-11-24T09:57:34Z</time>
      </trkpt>
      <trkpt lat="42.113014" lon="0.549820">
        <ele>708.813</ele>
        <time>2018-11-24T09:57:35Z</time>
      </trkpt>
      <trkpt lat="42.112877" lon="0.550076">
        <ele>708.490</ele>
        <time>2018-11-24T09:57:36Z</time>
      </trkpt>
      <trkpt lat="42.112753" lon="0.550347">
        <ele>708.410</ele>
        <time>2018-11-24T09:57:37Z</time>
      </trkpt>
      <trkpt lat="42.112641" lon="0.550627">
        <ele>708.121</ele>
        <time>2018-11-24T09:57:38Z</time>
      </trkpt>
      <trkpt lat="42.112550" lon="0.550922">
        <ele>707.890</ele>
        <time>2018-11-24T09:57:39Z</time>
      </trkpt>
      <trkpt lat="42.112483" lon="0.551231">
        <ele>707.760</ele>
        <time>2018-11-24T09:57:40Z</time>
      </trkpt>
      <trkpt lat="42.112439" lon="0.551548">
        <ele>707.635</ele>
        <time>2018-11-24T09:57:41Z</time>
      </trkpt>
      <trkpt lat="42.112422" lon="0.551868">
        <ele>707.637</ele>
        <time>2018-11-24T09:57:42Z</time>
      </trkpt>
      <trkpt lat="42.112431" lon="0.552187">
        <ele>708.049</ele>
        <time>2018-11-24T09:57:43Z</time>
      </trkpt>
      <trkpt lat="42.112465" lon="0.552504">
        <ele>708.213</ele>
        <time>2018-11-24T09:57:44Z</time>
      </trkpt>
      <trkpt lat="42.112504" lon="0.552818">
        <ele>708.608</ele>
        <time>2018-11-24T09:57:45Z</time>
      </trkpt>
      <trkpt lat="42.112589" lon="0.553115">
        <ele>709.046</ele>
        <time>2018-11-24T09:57:46Z</time>
      </trkpt>
      <trkpt lat="42.112687" lon="0.553403">
        <ele>709.313</ele>
        <time>2018-11-24T09:57:47Z</time>
      </trkpt>
      <trkpt lat="42.112796" lon="0.553686">
        <ele>709.720</ele>
        <time>2018-11-24T09:57:48Z</time>
      </trkpt>
      <trkpt lat="42.112912" lon="0.553968">
        <ele>710.140</ele>
        <time>2018-11-24T09:57:49Z</time>
      </trkpt>
      <trkpt lat="42.113021" lon="0.554253">
        <ele>710.461</ele>
        <time>2018-11-24T09:57:50Z</time>
      </trkpt>
      <trkpt lat="42.113120" lon="0.554545">
        <ele>710.530</ele>
        <time>2018-11-24T09:57:51Z</time>
      </trkpt>
      <trkpt lat="42.113210" lon="0.554841">
        <ele>710.880</ele>
        <time>2018-11-24T09:57:52Z</time>
      </trkpt>
      <trkpt lat="42.113270" lon="0.555151">
        <ele>710.995</ele>
        <time>2018-11-24T09:57:53Z</time>
      </trkpt>
      <trkpt lat="42.113311" lon="0.555471">
        <ele>711.273</ele>
        <time>2018-11-24T09:57:54Z</time>
      </trkpt>
      <trkpt lat="42.113350" lon="0.555788">
        <ele>711.485</ele>
        <time>2018-11-24T09:57:55Z</time>
      </trkpt>
      <trkpt lat="42.113388" lon="0.556107">
        <ele>711.613</ele>
        <time>2018-11-24T09:57:56Z</time>
      </trkpt>
      <trkpt lat="42.113428" lon="0.556426">
        <ele>712.108</ele>
        <time>2018-11-24T09:57:57Z</time>
      </trkpt>
      <trkpt lat="42.113473" lon="0.556743">
        <ele>712.340</ele>
        <time>2018-11-24T09:57:58Z</time>
      </trkpt>
      <trkpt lat="42.113520" lon="0.557058">
        <ele>712.457</ele>
        <time>2018-11-24T09:57:59Z</time>
      </trkpt>
      <trkpt lat="42.113591" lon="0.557352">
        <ele>712.234</ele>
        <time>2018-11-24T09:58:00Z</time>
      </trkpt>
      <trkpt lat="42.113678" lon="0.557640">
        <ele>712.034</ele>
        <time>2018-11-24T09:58:01Z</time>
      </trkpt>
      <trkpt lat="42.113784" lon="0.557913">
        <ele>711.445</ele>
        <time>2018-11-24T09:58:02Z</time>
      </trkpt>
      <trkpt lat="42.113895" lon="0.558173">
        <ele>710.814</ele>
        <time>2018-11-24T09:58:03Z</time>
      </trkpt>
      <trkpt lat="42.114035" lon="0.558407">
        <ele>710.094</ele>
        <time>2018-11-24T09:58:04Z</time>
      </trkpt>
      <trkpt lat="42.114192" lon="0.558642">
        <ele>709.329</ele>
        <time>2018-11-24T09:58:05Z</time>
      </trkpt>
      <trkpt lat="42.114366" lon="0.558861">
        <ele>708.618</ele>
        <time>2018-11-24T09:58:06Z</time>
      </trkpt>
      <trkpt lat="42.114529" lon="0.559084">
        <ele>708.098</ele>
        <time>2018-11-24T09:58:07Z</time>
      </trkpt>
      <trkpt lat="42.114688" lon="0.559306">
        <ele>707.617</ele>
        <time>2018-11-24T09:58:08Z</time>
      </trkpt>
      <trkpt lat="42.114845" lon="0.559533">
        <ele>707.608</ele>
        <time>2018-11-24T09:58:09Z</time>
      </trkpt>
      <trkpt lat="42.114963" lon="0.559803">
        <ele>708.524</ele>
        <time>2018-11-24T09:58:10Z</time>
      </trkpt>
      <trkpt lat="42.115086" lon="0.560066">
        <ele>709.751</ele>
        <time>2018-11-24T09:58:11Z</time>
      </trkpt>
      <trkpt lat="42.115198" lon="0.560334">
        <ele>710.798</ele>
        <time>2018-11-24T09:58:12Z</time>
      </trkpt>
      <trkpt lat="42.115312" lon="0.560601">
        <ele>711.818</ele>
        <time>2018-11-24T09:58:13Z</time>
      </trkpt>
      <trkpt lat="42.115425" lon="0.560866">
        <ele>712.989</ele>
        <time>2018-11-24T09:58:14Z</time>
      </trkpt>
      <trkpt lat="42.115540" lon="0.561130">
        <ele>714.038</ele>
        <time>2018-11-24T09:58:15Z</time>
      </trkpt>
      <trkpt lat="42.115651" lon="0.561392">
        <ele>714.768</ele>
        <time>2018-11-24T09:58:16Z</time>
      </trkpt>
      <trkpt lat="42.115767" lon="0.561655">
        <ele>715.363</ele>
        <time>2018-11-24T09:58:17Z</time>
      </trkpt>
      <trkpt lat="42.115882" lon="0.561924">
        <ele>715.693</ele>
        <time>2018-11-24T09:58:18Z</time>
      </trkpt>
      <trkpt lat="42.115999" lon="0.562196">
        <ele>715.865</ele>
        <time>2018-11-24T09:58:19Z</time>
      </trkpt>
      <trkpt lat="42.116115" lon="0.562470">
        <ele>715.721</ele>
        <time>2018-11-24T09:58:20Z</time>
      </trkpt>
      <trkpt lat="42.116233" lon="0.562746">
        <ele>715.308</ele>
        <time>2018-11-24T09:58:21Z</time>
      </trkpt>
      <trkpt lat="42.116350" lon="0.563020">
        <ele>714.992</ele>
        <time>2018-11-24T09:58:22Z</time>
      </trkpt>
      <trkpt lat="42.116468" lon="0.563298">
        <ele>714.319</ele>
        <time>2018-11-24T09:58:23Z</time>
      </trkpt>
      <trkpt lat="42.116587" lon="0.563577">
        <ele>713.276</ele>
        <time>2018-11-24T09:58:24Z</time>
      </trkpt>
      <trkpt lat="42.116704" lon="0.563855">
        <ele>712.026</ele>
        <time>2018-11-24T09:58:25Z</time>
      </trkpt>
      <trkpt lat="42.116821" lon="0.564133">
        <ele>710.327</ele>
        <time>2018-11-24T09:58:26Z</time>
      </trkpt>
      <trkpt lat="42.116939" lon="0.564410">
        <ele>708.746</ele>
        <time>2018-11-24T09:58:27Z</time>
      </trkpt>
      <trkpt lat="42.117058" lon="0.564686">
        <ele>706.916</ele>
        <time>2018-11-24T09:58:28Z</time>
      </trkpt>
      <trkpt lat="42.117177" lon="0.564963">
        <ele>705.721</ele>
        <time>2018-11-24T09:58:29Z</time>
      </trkpt>
      <trkpt lat="42.117296" lon="0.565240">
        <ele>704.032</ele>
        <time>2018-11-24T09:58:30Z</time>
      </trkpt>
      <trkpt lat="42.117414" lon="0.565517">
        <ele>702.692</ele>
        <time>2018-11-24T09:58:31Z</time>
      </trkpt>
      <trkpt lat="42.117533" lon="0.565793">
        <ele>700.611</ele>
        <time>2018-11-24T09:58:32Z</time>
      </trkpt>
      <trkpt lat="42.117651" lon="0.566067">
        <ele>698.508</ele>
        <time>2018-11-24T09:58:33Z</time>
      </trkpt>
      <trkpt lat="42.117770" lon="0.566341">
        <ele>696.826</ele>
        <time>2018-11-24T09:58:34Z</time>
      </trkpt>
      <trkpt lat="42.117889" lon="0.566616">
        <ele>695.153</ele>
        <time>2018-11-24T09:58:35Z</time>
      </trkpt>
      <trkpt lat="42.118008" lon="0.566890">
        <ele>693.630</ele>
        <time>2018-11-24T09:58:36Z</time>
      </trkpt>
      <trkpt lat="42.118127" lon="0.567166">
        <ele>691.980</ele>
        <time>2018-11-24T09:58:37Z</time>
      </trkpt>
      <trkpt lat="42.118245" lon="0.567441">
        <ele>690.321</ele>
        <time>2018-11-24T09:58:38Z</time>
      </trkpt>
      <trkpt lat="42.118364" lon="0.567718">
        <ele>688.590</ele>
        <time>2018-11-24T09:58:39Z</time>
      </trkpt>
      <trkpt lat="42.118482" lon="0.567996">
        <ele>686.970</ele>
        <time>2018-11-24T09:58:40Z</time>
      </trkpt>
      <trkpt lat="42.118599" lon="0.568274">
        <ele>685.225</ele>
        <time>2018-11-24T09:58:41Z</time>
      </trkpt>
      <trkpt lat="42.118714" lon="0.568555">
        <ele>683.565</ele>
        <time>2018-11-24T09:58:42Z</time>
      </trkpt>
      <trkpt lat="42.118819" lon="0.568842">
        <ele>682.168</ele>
        <time>2018-11-24T09:58:43Z</time>
      </trkpt>
      <trkpt lat="42.118912" lon="0.569135">
        <ele>680.914</ele>
        <time>2018-11-24T09:58:44Z</time>
      </trkpt>
      <trkpt lat="42.118989" lon="0.569429">
        <ele>680.108</ele>
        <time>2018-11-24T09:58:45Z</time>
      </trkpt>
      <trkpt lat="42.119046" lon="0.569729">
        <ele>679.729</ele>
        <time>2018-11-24T09:58:46Z</time>
      </trkpt>
      <trkpt lat="42.119084" lon="0.570035">
        <ele>679.556</ele>
        <time>2018-11-24T09:58:47Z</time>
      </trkpt>
      <trkpt lat="42.119106" lon="0.570342">
        <ele>679.513</ele>
        <time>2018-11-24T09:58:48Z</time>
      </trkpt>
      <trkpt lat="42.119117" lon="0.570651">
        <ele>680.283</ele>
        <time>2018-11-24T09:58:49Z</time>
      </trkpt>
      <trkpt lat="42.119121" lon="0.570958">
        <ele>681.324</ele>
        <time>2018-11-24T09:58:50Z</time>
      </trkpt>
      <trkpt lat="42.119120" lon="0.571267">
        <ele>682.973</ele>
        <time>2018-11-24T09:58:51Z</time>
      </trkpt>
      <trkpt lat="42.119115" lon="0.571579">
        <ele>684.663</ele>
        <time>2018-11-24T09:58:52Z</time>
      </trkpt>
      <trkpt lat="42.119107" lon="0.571891">
        <ele>685.928</ele>
        <time>2018-11-24T09:58:53Z</time>
      </trkpt>
      <trkpt lat="42.119096" lon="0.572204">
        <ele>687.075</ele>
        <time>2018-11-24T09:58:54Z</time>
      </trkpt>
      <trkpt lat="42.119088" lon="0.572518">
        <ele>688.728</ele>
        <time>2018-11-24T09:58:55Z</time>
      </trkpt>
      <trkpt lat="42.119084" lon="0.572832">
        <ele>690.220</ele>
        <time>2018-11-24T09:58:56Z</time>
      </trkpt>
      <trkpt lat="42.119081" lon="0.573147">
        <ele>692.208</ele>
        <time>2018-11-24T09:58:57Z</time>
      </trkpt>
      <trkpt lat="42.119079" lon="0.573462">
        <ele>693.780</ele>
        <time>2018-11-24T09:58:58Z</time>
      </trkpt>
      <trkpt lat="42.119076" lon="0.573777">
        <ele>695.287</ele>
        <time>2018-11-24T09:58:59Z</time>
      </trkpt>
      <trkpt lat="42.119073" lon="0.574093">
        <ele>697.124</ele>
        <time>2018-11-24T09:59:00Z</time>
      </trkpt>
      <trkpt lat="42.119072" lon="0.574407">
        <ele>698.564</ele>
        <time>2018-11-24T09:59:01Z</time>
      </trkpt>
      <trkpt lat="42.119071" lon="0.574722">
        <ele>700.045</ele>
        <time>2018-11-24T09:59:02Z</time>
      </trkpt>
      <trkpt lat="42.119066" lon="0.575037">
        <ele>701.464</ele>
        <time>2018-11-24T09:59:03Z</time>
      </trkpt>
      <trkpt lat="42.119052" lon="0.575351">
        <ele>702.924</ele>
        <time>2018-11-24T09:59:04Z</time>
      </trkpt>
      <trkpt lat="42.119026" lon="0.575663">
        <ele>704.159</ele>
        <time>2018-11-24T09:59:05Z</time>
      </trkpt>
      <trkpt lat="42.118987" lon="0.575973">
        <ele>705.723</ele>
        <time>2018-11-24T09:59:06Z</time>
      </trkpt>
      <trkpt lat="42.118937" lon="0.576281">
        <ele>707.183</ele>
        <time>2018-11-24T09:59:07Z</time>
      </trkpt>
      <trkpt lat="42.118885" lon="0.576587">
        <ele>708.911</ele>
        <time>2018-11-24T09:59:08Z</time>
      </trkpt>
      <trkpt lat="42.118818" lon="0.576886">
        <ele>710.708</ele>
        <time>2018-11-24T09:59:09Z</time>
      </trkpt>
      <trkpt lat="42.118742" lon="0.577188">
        <ele>712.115</ele>
        <time>2018-11-24T09:59:10Z</time>
      </trkpt>
      <trkpt lat="42.118666" lon="0.577490">
        <ele>714.282</ele>
        <time>2018-11-24T09:59:11Z</time>
      </trkpt>
      <trkpt lat="42.118593" lon="0.577790">
        <ele>715.689</ele>
        <time>2018-11-24T09:59:12Z</time>
      </trkpt>
      <trkpt lat="42.118519" lon="0.578088">
        <ele>717.449</ele>
        <time>2018-11-24T09:59:13Z</time>
      </trkpt>
      <trkpt lat="42.118446" lon="0.578387">
        <ele>718.780</ele>
        <time>2018-11-24T09:59:14Z</time>
      </trkpt>
      <trkpt lat="42.118374" lon="0.578689">
        <ele>720.119</ele>
        <time>2018-11-24T09:59:15Z</time>
      </trkpt>
      <trkpt lat="42.118301" lon="0.578990">
        <ele>721.219</ele>
        <time>2018-11-24T09:59:16Z</time>
      </trkpt>
      <trkpt lat="42.118228" lon="0.579290">
        <ele>722.544</ele>
        <time>2018-11-24T09:59:17Z</time>
      </trkpt>
      <trkpt lat="42.118156" lon="0.579591">
        <ele>723.375</ele>
        <time>2018-11-24T09:59:18Z</time>
      </trkpt>
      <trkpt lat="42.118081" lon="0.579891">
        <ele>724.428</ele>
        <time>2018-11-24T09:59:19Z</time>
      </trkpt>
      <trkpt lat="42.118006" lon="0.580191">
        <ele>725.420</ele>
        <time>2018-11-24T09:59:20Z</time>
      </trkpt>
      <trkpt lat="42.117932" lon="0.580492">
        <ele>726.308</ele>
        <time>2018-11-24T09:59:21Z</time>
      </trkpt>
      <trkpt lat="42.117859" lon="0.580794">
        <ele>727.080</ele>
        <time>2018-11-24T09:59:22Z</time>
      </trkpt>
      <trkpt lat="42.117787" lon="0.581095">
        <ele>727.917</ele>
        <time>2018-11-24T09:59:23Z</time>
      </trkpt>
      <trkpt lat="42.117716" lon="0.581397">
        <ele>729.374</ele>
        <time>2018-11-24T09:59:24Z</time>
      </trkpt>
      <trkpt lat="42.117645" lon="0.581699">
        <ele>730.344</ele>
        <time>2018-11-24T09:59:25Z</time>
      </trkpt>
      <trkpt lat="42.117573" lon="0.582000">
        <ele>731.475</ele>
        <time>2018-11-24T09:59:26Z</time>
      </trkpt>
      <trkpt lat="42.117502" lon="0.582300">
        <ele>732.514</ele>
        <time>2018-11-24T09:59:27Z</time>
      </trkpt>
      <trkpt lat="42.117430" lon="0.582600">
        <ele>733.244</ele>
        <time>2018-11-24T09:59:28Z</time>
      </trkpt>
      <trkpt lat="42.117359" lon="0.582901">
        <ele>734.419</ele>
        <time>2018-11-24T09:59:29Z</time>
      </trkpt>
      <trkpt lat="42.117287" lon="0.583201">
        <ele>735.369</ele>
        <time>2018-11-24T09:59:30Z</time>
      </trkpt>
      <trkpt lat="42.117216" lon="0.583501">
        <ele>736.504</ele>
        <time>2018-11-24T09:59:31Z</time>
      </trkpt>
      <trkpt lat="42.117146" lon="0.583802">
        <ele>737.624</ele>
        <time>2018-11-24T09:59:32Z</time>
      </trkpt>
      <trkpt lat="42.117078" lon="0.584104">
        <ele>738.808</ele>
        <time>2018-11-24T09:59:33Z</time>
      </trkpt>
      <trkpt lat="42.117011" lon="0.584406">
        <ele>740.049</ele>
        <time>2018-11-24T09:59:34Z</time>
      </trkpt>
      <trkpt lat="42.116945" lon="0.584708">
        <ele>741.176</ele>
        <time>2018-11-24T09:59:35Z</time>
      </trkpt>
      <trkpt lat="42.116879" lon="0.585009">
        <ele>742.093</ele>
        <time>2018-11-24T09:59:36Z</time>
      </trkpt>
      <trkpt lat="42.116811" lon="0.585312">
        <ele>742.973</ele>
        <time>2018-11-24T09:59:37Z</time>
      </trkpt>
      <trkpt lat="42.116742" lon="0.585614">
        <ele>744.024</ele>
        <time>2018-11-24T09:59:38Z</time>
      </trkpt>
      <trkpt lat="42.116672" lon="0.585918">
        <ele>744.513</ele>
        <time>2018-11-24T09:59:39Z</time>
      </trkpt>
      <trkpt lat="42.116601" lon="0.586222">
        <ele>745.223</ele>
        <time>2018-11-24T09:59:40Z</time>
      </trkpt>
      <trkpt lat="42.116529" lon="0.586526">
        <ele>745.538</ele>
        <time>2018-11-24T09:59:41Z</time>
      </trkpt>
      <trkpt lat="42.116460" lon="0.586832">
        <ele>745.566</ele>
        <time>2018-11-24T09:59:42Z</time>
      </trkpt>
      <trkpt lat="42.116395" lon="0.587140">
        <ele>745.529</ele>
        <time>2018-11-24T09:59:43Z</time>
      </trkpt>
      <trkpt lat="42.116331" lon="0.587449">
        <ele>745.121</ele>
        <time>2018-11-24T09:59:44Z</time>
      </trkpt>
      <trkpt lat="42.116267" lon="0.587756">
        <ele>744.408</ele>
        <time>2018-11-24T09:59:45Z</time>
      </trkpt>
      <trkpt lat="42.116204" lon="0.588063">
        <ele>743.479</ele>
        <time>2018-11-24T09:59:46Z</time>
      </trkpt>
      <trkpt lat="42.116142" lon="0.588369">
        <ele>742.566</ele>
        <time>2018-11-24T09:59:47Z</time>
      </trkpt>
      <trkpt lat="42.116080" lon="0.588675">
        <ele>742.223</ele>
        <time>2018-11-24T09:59:48Z</time>
      </trkpt>
      <trkpt lat="42.116019" lon="0.588979">
        <ele>742.283</ele>
        <time>2018-11-24T09:59:49Z</time>
      </trkpt>
      <trkpt lat="42.115958" lon="0.589282">
        <ele>742.314</ele>
        <time>2018-11-24T09:59:50Z</time>
      </trkpt>
      <trkpt lat="42.115896" lon="0.589584">
        <ele>743.093</ele>
        <time>2018-11-24T09:59:51Z</time>
      </trkpt>
      <trkpt lat="42.115835" lon="0.589885">
        <ele>743.433</ele>
        <time>2018-11-24T09:59:52Z</time>
      </trkpt>
      <trkpt lat="42.115775" lon="0.590185">
        <ele>744.618</ele>
        <time>2018-11-24T09:59:53Z</time>
      </trkpt>
      <trkpt lat="42.115718" lon="0.590484">
        <ele>746.171</ele>
        <time>2018-11-24T09:59:54Z</time>
      </trkpt>
      <trkpt lat="42.115661" lon="0.590778">
        <ele>747.441</ele>
        <time>2018-11-24T09:59:55Z</time>
      </trkpt>
      <trkpt lat="42.115625" lon="0.591078">
        <ele>749.015</ele>
        <time>2018-11-24T09:59:56Z</time>
      </trkpt>
      <trkpt lat="42.115611" lon="0.591383">
        <ele>750.708</ele>
        <time>2018-11-24T09:59:57Z</time>
      </trkpt>
      <trkpt lat="42.115646" lon="0.591684">
        <ele>752.720</ele>
        <time>2018-11-24T09:59:58Z</time>
      </trkpt>
      <trkpt lat="42.115684" lon="0.591997">
        <ele>754.057</ele>
        <time>2018-11-24T09:59:59Z</time>
      </trkpt>
      <trkpt lat="42.115742" lon="0.592304">
        <ele>754.524</ele>
        <time>2018-11-24T10:00:00Z</time>
      </trkpt>
      <trkpt lat="42.115824" lon="0.592586">
        <ele>756.344</ele>
        <time>2018-11-24T10:00:01Z</time>
      </trkpt>
      <trkpt lat="42.115927" lon="0.592867">
        <ele>757.225</ele>
        <time>2018-11-24T10:00:02Z</time>
      </trkpt>
      <trkpt lat="42.116045" lon="0.593141">
        <ele>757.614</ele>
        <time>2018-11-24T10:00:03Z</time>
      </trkpt>
      <trkpt lat="42.116194" lon="0.593390">
        <ele>757.784</ele>
        <time>2018-11-24T10:00:04Z</time>
      </trkpt>
      <trkpt lat="42.116359" lon="0.593622">
        <ele>758.339</ele>
        <time>2018-11-24T10:00:05Z</time>
      </trkpt>
      <trkpt lat="42.116538" lon="0.593828">
        <ele>757.721</ele>
        <time>2018-11-24T10:00:06Z</time>
      </trkpt>
      <trkpt lat="42.116731" lon="0.594017">
        <ele>757.541</ele>
        <time>2018-11-24T10:00:07Z</time>
      </trkpt>
      <trkpt lat="42.116924" lon="0.594202">
        <ele>757.605</ele>
        <time>2018-11-24T10:00:08Z</time>
      </trkpt>
      <trkpt lat="42.117115" lon="0.594389">
        <ele>757.908</ele>
        <time>2018-11-24T10:00:09Z</time>
      </trkpt>
      <trkpt lat="42.117303" lon="0.594572">
        <ele>758.355</ele>
        <time>2018-11-24T10:00:10Z</time>
      </trkpt>
      <trkpt lat="42.117491" lon="0.594755">
        <ele>759.792</ele>
        <time>2018-11-24T10:00:11Z</time>
      </trkpt>
      <trkpt lat="42.117678" lon="0.594938">
        <ele>761.189</ele>
        <time>2018-11-24T10:00:12Z</time>
      </trkpt>
      <trkpt lat="42.117866" lon="0.595119">
        <ele>762.669</ele>
        <time>2018-11-24T10:00:13Z</time>
      </trkpt>
      <trkpt lat="42.118057" lon="0.595291">
        <ele>764.170</ele>
        <time>2018-11-24T10:00:14Z</time>
      </trkpt>
      <trkpt lat="42.118256" lon="0.595448">
        <ele>765.519</ele>
        <time>2018-11-24T10:00:15Z</time>
      </trkpt>
      <trkpt lat="42.118465" lon="0.595587">
        <ele>766.959</ele>
        <time>2018-11-24T10:00:16Z</time>
      </trkpt>
      <trkpt lat="42.118680" lon="0.595707">
        <ele>768.124</ele>
        <time>2018-11-24T10:00:17Z</time>
      </trkpt>
      <trkpt lat="42.118899" lon="0.595830">
        <ele>768.992</ele>
        <time>2018-11-24T10:00:18Z</time>
      </trkpt>
      <trkpt lat="42.119127" lon="0.595917">
        <ele>769.873</ele>
        <time>2018-11-24T10:00:19Z</time>
      </trkpt>
      <trkpt lat="42.119352" lon="0.596001">
        <ele>770.420</ele>
        <time>2018-11-24T10:00:20Z</time>
      </trkpt>
      <trkpt lat="42.119580" lon="0.596089">
        <ele>771.208</ele>
        <time>2018-11-24T10:00:21Z</time>
      </trkpt>
      <trkpt lat="42.119805" lon="0.596179">
        <ele>771.922</ele>
        <time>2018-11-24T10:00:22Z</time>
      </trkpt>
      <trkpt lat="42.120030" lon="0.596276">
        <ele>772.669</ele>
        <time>2018-11-24T10:00:23Z</time>
      </trkpt>
      <trkpt lat="42.120249" lon="0.596393">
        <ele>773.426</ele>
        <time>2018-11-24T10:00:24Z</time>
      </trkpt>
      <trkpt lat="42.120452" lon="0.596542">
        <ele>774.016</ele>
        <time>2018-11-24T10:00:25Z</time>
      </trkpt>
      <trkpt lat="42.120648" lon="0.596716">
        <ele>775.177</ele>
        <time>2018-11-24T10:00:26Z</time>
      </trkpt>
      <trkpt lat="42.120831" lon="0.596910">
        <ele>776.216</ele>
        <time>2018-11-24T10:00:27Z</time>
      </trkpt>
      <trkpt lat="42.121011" lon="0.597106">
        <ele>777.696</ele>
        <time>2018-11-24T10:00:28Z</time>
      </trkpt>
      <trkpt lat="42.121197" lon="0.597293">
        <ele>779.071</ele>
        <time>2018-11-24T10:00:29Z</time>
      </trkpt>
      <trkpt lat="42.121391" lon="0.597465">
        <ele>780.715</ele>
        <time>2018-11-24T10:00:30Z</time>
      </trkpt>
      <trkpt lat="42.121596" lon="0.597609">
        <ele>782.265</ele>
        <time>2018-11-24T10:00:31Z</time>
      </trkpt>
      <trkpt lat="42.121807" lon="0.597735">
        <ele>783.911</ele>
        <time>2018-11-24T10:00:32Z</time>
      </trkpt>
      <trkpt lat="42.122023" lon="0.597850">
        <ele>785.308</ele>
        <time>2018-11-24T10:00:33Z</time>
      </trkpt>
      <trkpt lat="42.122237" lon="0.597973">
        <ele>787.044</ele>
        <time>2018-11-24T10:00:34Z</time>
      </trkpt>
      <trkpt lat="42.122441" lon="0.598121">
        <ele>788.381</ele>
        <time>2018-11-24T10:00:35Z</time>
      </trkpt>
      <trkpt lat="42.122635" lon="0.598296">
        <ele>790.018</ele>
        <time>2018-11-24T10:00:36Z</time>
      </trkpt>
      <trkpt lat="42.122816" lon="0.598493">
        <ele>791.358</ele>
        <time>2018-11-24T10:00:37Z</time>
      </trkpt>
      <trkpt lat="42.122982" lon="0.598715">
        <ele>793.119</ele>
        <time>2018-11-24T10:00:38Z</time>
      </trkpt>
      <trkpt lat="42.123147" lon="0.598938">
        <ele>794.518</ele>
        <time>2018-11-24T10:00:39Z</time>
      </trkpt>
      <trkpt lat="42.123302" lon="0.599180">
        <ele>795.948</ele>
        <time>2018-11-24T10:00:40Z</time>
      </trkpt>
      <trkpt lat="42.123455" lon="0.599418">
        <ele>797.213</ele>
        <time>2018-11-24T10:00:41Z</time>
      </trkpt>
      <trkpt lat="42.123632" lon="0.599632">
        <ele>797.942</ele>
        <time>2018-11-24T10:00:42Z</time>
      </trkpt>
      <trkpt lat="42.123822" lon="0.599828">
        <ele>798.622</ele>
        <time>2018-11-24T10:00:43Z</time>
      </trkpt>
      <trkpt lat="42.124016" lon="0.600011">
        <ele>798.914</ele>
        <time>2018-11-24T10:00:44Z</time>
      </trkpt>
      <trkpt lat="42.124216" lon="0.600185">
        <ele>799.208</ele>
        <time>2018-11-24T10:00:45Z</time>
      </trkpt>
      <trkpt lat="42.124413" lon="0.600361">
        <ele>799.557</ele>
        <time>2018-11-24T10:00:46Z</time>
      </trkpt>
      <trkpt lat="42.124607" lon="0.600538">
        <ele>800.524</ele>
        <time>2018-11-24T10:00:47Z</time>
      </trkpt>
      <trkpt lat="42.124804" lon="0.600712">
        <ele>801.461</ele>
        <time>2018-11-24T10:00:48Z</time>
      </trkpt>
      <trkpt lat="42.125000" lon="0.600885">
        <ele>802.381</ele>
        <time>2018-11-24T10:00:49Z</time>
      </trkpt>
      <trkpt lat="42.125197" lon="0.601058">
        <ele>803.172</ele>
        <time>2018-11-24T10:00:50Z</time>
      </trkpt>
      <trkpt lat="42.125393" lon="0.601235">
        <ele>803.611</ele>
        <time>2018-11-24T10:00:51Z</time>
      </trkpt>
      <trkpt lat="42.125578" lon="0.601423">
        <ele>803.981</ele>
        <time>2018-11-24T10:00:52Z</time>
      </trkpt>
      <trkpt lat="42.125751" lon="0.601636">
        <ele>804.166</ele>
        <time>2018-11-24T10:00:53Z</time>
      </trkpt>
      <trkpt lat="42.125910" lon="0.601871">
        <ele>804.869</ele>
        <time>2018-11-24T10:00:54Z</time>
      </trkpt>
      <trkpt lat="42.126055" lon="0.602118">
        <ele>805.604</ele>
        <time>2018-11-24T10:00:55Z</time>
      </trkpt>
      <trkpt lat="42.126197" lon="0.602370">
        <ele>806.224</ele>
        <time>2018-11-24T10:00:56Z</time>
      </trkpt>
      <trkpt lat="42.126338" lon="0.602623">
        <ele>806.808</ele>
        <time>2018-11-24T10:00:57Z</time>
      </trkpt>
      <trkpt lat="42.126480" lon="0.602875">
        <ele>807.459</ele>
        <time>2018-11-24T10:00:58Z</time>
      </trkpt>
      <trkpt lat="42.126621" lon="0.603125">
        <ele>808.116</ele>
        <time>2018-11-24T10:00:59Z</time>
      </trkpt>
      <trkpt lat="42.126769" lon="0.603371">
        <ele>808.773</ele>
        <time>2018-11-24T10:01:00Z</time>
      </trkpt>
      <trkpt lat="42.126929" lon="0.603601">
        <ele>809.443</ele>
        <time>2018-11-24T10:01:01Z</time>
      </trkpt>
      <trkpt lat="42.127102" lon="0.603814">
        <ele>810.484</ele>
        <time>2018-11-24T10:01:02Z</time>
      </trkpt>
      <trkpt lat="42.127290" lon="0.604000">
        <ele>810.983</ele>
        <time>2018-11-24T10:01:03Z</time>
      </trkpt>
      <trkpt lat="42.127486" lon="0.604175">
        <ele>811.393</ele>
        <time>2018-11-24T10:01:04Z</time>
      </trkpt>
      <trkpt lat="42.127683" lon="0.604345">
        <ele>811.848</ele>
        <time>2018-11-24T10:01:05Z</time>
      </trkpt>
      <trkpt lat="42.127879" lon="0.604502">
        <ele>812.425</ele>
        <time>2018-11-24T10:01:06Z</time>
      </trkpt>
      <trkpt lat="42.128076" lon="0.604674">
        <ele>812.826</ele>
        <time>2018-11-24T10:01:07Z</time>
      </trkpt>
      <trkpt lat="42.128273" lon="0.604844">
        <ele>813.308</ele>
        <time>2018-11-24T10:01:08Z</time>
      </trkpt>
      <trkpt lat="42.128472" lon="0.605014">
        <ele>813.108</ele>
        <time>2018-11-24T10:01:09Z</time>
      </trkpt>
      <trkpt lat="42.128672" lon="0.605185">
        <ele>813.015</ele>
        <time>2018-11-24T10:01:10Z</time>
      </trkpt>
      <trkpt lat="42.128872" lon="0.605358">
        <ele>812.422</ele>
        <time>2018-11-24T10:01:11Z</time>
      </trkpt>
      <trkpt lat="42.129071" lon="0.605526">
        <ele>811.249</ele>
        <time>2018-11-24T10:01:12Z</time>
      </trkpt>
      <trkpt lat="42.129270" lon="0.605698">
        <ele>810.449</ele>
        <time>2018-11-24T10:01:13Z</time>
      </trkpt>
      <trkpt lat="42.129468" lon="0.605870">
        <ele>809.470</ele>
        <time>2018-11-24T10:01:14Z</time>
      </trkpt>
      <trkpt lat="42.129665" lon="0.606044">
        <ele>809.199</ele>
        <time>2018-11-24T10:01:15Z</time>
      </trkpt>
      <trkpt lat="42.129863" lon="0.606216">
        <ele>808.929</ele>
        <time>2018-11-24T10:01:16Z</time>
      </trkpt>
      <trkpt lat="42.130058" lon="0.606384">
        <ele>809.134</ele>
        <time>2018-11-24T10:01:17Z</time>
      </trkpt>
      <trkpt lat="42.130253" lon="0.606554">
        <ele>809.365</ele>
        <time>2018-11-24T10:01:18Z</time>
      </trkpt>
      <trkpt lat="42.130449" lon="0.606726">
        <ele>809.868</ele>
        <time>2018-11-24T10:01:19Z</time>
      </trkpt>
      <trkpt lat="42.130644" lon="0.606896">
        <ele>810.214</ele>
        <time>2018-11-24T10:01:20Z</time>
      </trkpt>
      <trkpt lat="42.130841" lon="0.607063">
        <ele>811.108</ele>
        <time>2018-11-24T10:01:21Z</time>
      </trkpt>
      <trkpt lat="42.131036" lon="0.607235">
        <ele>811.699</ele>
        <time>2018-11-24T10:01:22Z</time>
      </trkpt>
      <trkpt lat="42.131225" lon="0.607417">
        <ele>812.476</ele>
        <time>2018-11-24T10:01:23Z</time>
      </trkpt>
      <trkpt lat="42.131407" lon="0.607613">
        <ele>813.223</ele>
        <time>2018-11-24T10:01:24Z</time>
      </trkpt>
      <trkpt lat="42.131581" lon="0.607823">
        <ele>814.053</ele>
        <time>2018-11-24T10:01:25Z</time>
      </trkpt>
      <trkpt lat="42.131747" lon="0.608044">
        <ele>814.954</ele>
        <time>2018-11-24T10:01:26Z</time>
      </trkpt>
      <trkpt lat="42.131905" lon="0.608276">
        <ele>815.233</ele>
        <time>2018-11-24T10:01:27Z</time>
      </trkpt>
      <trkpt lat="42.132056" lon="0.608517">
        <ele>816.143</ele>
        <time>2018-11-24T10:01:28Z</time>
      </trkpt>
      <trkpt lat="42.132208" lon="0.608753">
        <ele>816.658</ele>
        <time>2018-11-24T10:01:29Z</time>
      </trkpt>
      <trkpt lat="42.132341" lon="0.609010">
        <ele>817.247</ele>
        <time>2018-11-24T10:01:30Z</time>
      </trkpt>
      <trkpt lat="42.132475" lon="0.609274">
        <ele>818.029</ele>
        <time>2018-11-24T10:01:31Z</time>
      </trkpt>
      <trkpt lat="42.132609" lon="0.609535">
        <ele>818.921</ele>
        <time>2018-11-24T10:01:32Z</time>
      </trkpt>
      <trkpt lat="42.132754" lon="0.609788">
        <ele>819.508</ele>
        <time>2018-11-24T10:01:33Z</time>
      </trkpt>
      <trkpt lat="42.132906" lon="0.610027">
        <ele>820.457</ele>
        <time>2018-11-24T10:01:34Z</time>
      </trkpt>
      <trkpt lat="42.133064" lon="0.610263">
        <ele>821.154</ele>
        <time>2018-11-24T10:01:35Z</time>
      </trkpt>
      <trkpt lat="42.133224" lon="0.610497">
        <ele>821.731</ele>
        <time>2018-11-24T10:01:36Z</time>
      </trkpt>
      <trkpt lat="42.133384" lon="0.610729">
        <ele>822.681</ele>
        <time>2018-11-24T10:01:37Z</time>
      </trkpt>
      <trkpt lat="42.133544" lon="0.610959">
        <ele>823.332</ele>
        <time>2018-11-24T10:01:38Z</time>
      </trkpt>
      <trkpt lat="42.133703" lon="0.611184">
        <ele>824.421</ele>
        <time>2018-11-24T10:01:39Z</time>
      </trkpt>
      <trkpt lat="42.133861" lon="0.611419">
        <ele>825.461</ele>
        <time>2018-11-24T10:01:40Z</time>
      </trkpt>
      <trkpt lat="42.134012" lon="0.611654">
        <ele>826.516</ele>
        <time>2018-11-24T10:01:41Z</time>
      </trkpt>
      <trkpt lat="42.134161" lon="0.611894">
        <ele>827.789</ele>
        <time>2018-11-24T10:01:42Z</time>
      </trkpt>
      <trkpt lat="42.134297" lon="0.612148">
        <ele>829.106</ele>
        <time>2018-11-24T10:01:43Z</time>
      </trkpt>
      <trkpt lat="42.134419" lon="0.612415">
        <ele>830.326</ele>
        <time>2018-11-24T10:01:44Z</time>
      </trkpt>
      <trkpt lat="42.134532" lon="0.612695">
        <ele>831.608</ele>
        <time>2018-11-24T10:01:45Z</time>
      </trkpt>
      <trkpt lat="42.134640" lon="0.612978">
        <ele>833.321</ele>
        <time>2018-11-24T10:01:46Z</time>
      </trkpt>
      <trkpt lat="42.134749" lon="0.613262">
        <ele>834.438</ele>
        <time>2018-11-24T10:01:47Z</time>
      </trkpt>
      <trkpt lat="42.134857" lon="0.613545">
        <ele>836.045</ele>
        <time>2018-11-24T10:01:48Z</time>
      </trkpt>
      <trkpt lat="42.134963" lon="0.613829">
        <ele>837.465</ele>
        <time>2018-11-24T10:01:49Z</time>
      </trkpt>
      <trkpt lat="42.135071" lon="0.614115">
        <ele>838.536</ele>
        <time>2018-11-24T10:01:50Z</time>
      </trkpt>
      <trkpt lat="42.135179" lon="0.614401">
        <ele>840.245</ele>
        <time>2018-11-24T10:01:51Z</time>
      </trkpt>
      <trkpt lat="42.135287" lon="0.614685">
        <ele>841.255</ele>
        <time>2018-11-24T10:01:52Z</time>
      </trkpt>
      <trkpt lat="42.135397" lon="0.614968">
        <ele>842.850</ele>
        <time>2018-11-24T10:01:53Z</time>
      </trkpt>
      <trkpt lat="42.135507" lon="0.615252">
        <ele>843.834</ele>
        <time>2018-11-24T10:01:54Z</time>
      </trkpt>
      <trkpt lat="42.135616" lon="0.615537">
        <ele>845.155</ele>
        <time>2018-11-24T10:01:55Z</time>
      </trkpt>
      <trkpt lat="42.135725" lon="0.615819">
        <ele>846.210</ele>
        <time>2018-11-24T10:01:56Z</time>
      </trkpt>
      <trkpt lat="42.135837" lon="0.616103">
        <ele>847.708</ele>
        <time>2018-11-24T10:01:57Z</time>
      </trkpt>
      <trkpt lat="42.135946" lon="0.616389">
        <ele>848.956</ele>
        <time>2018-11-24T10:01:58Z</time>
      </trkpt>
      <trkpt lat="42.136048" lon="0.616678">
        <ele>849.833</ele>
        <time>2018-11-24T10:01:59Z</time>
      </trkpt>
      <trkpt lat="42.136136" lon="0.616976">
        <ele>851.050</ele>
        <time>2018-11-24T10:02:00Z</time>
      </trkpt>
      <trkpt lat="42.136204" lon="0.617281">
        <ele>852.060</ele>
        <time>2018-11-24T10:02:01Z</time>
      </trkpt>
      <trkpt lat="42.136245" lon="0.617597">
        <ele>853.381</ele>
        <time>2018-11-24T10:02:02Z</time>
      </trkpt>
      <trkpt lat="42.136263" lon="0.617918">
        <ele>853.680</ele>
        <time>2018-11-24T10:02:03Z</time>
      </trkpt>
      <trkpt lat="42.136260" lon="0.618241">
        <ele>854.670</ele>
        <time>2018-11-24T10:02:04Z</time>
      </trkpt>
      <trkpt lat="42.136233" lon="0.618561">
        <ele>855.495</ele>
        <time>2018-11-24T10:02:05Z</time>
      </trkpt>
      <trkpt lat="42.136198" lon="0.618877">
        <ele>856.134</ele>
        <time>2018-11-24T10:02:06Z</time>
      </trkpt>
      <trkpt lat="42.136102" lon="0.619183">
        <ele>856.255</ele>
        <time>2018-11-24T10:02:07Z</time>
      </trkpt>
      <trkpt lat="42.135984" lon="0.619471">
        <ele>856.010</ele>
        <time>2018-11-24T10:02:08Z</time>
      </trkpt>
      <trkpt lat="42.135850" lon="0.619741">
        <ele>855.408</ele>
        <time>2018-11-24T10:02:09Z</time>
      </trkpt>
      <trkpt lat="42.135706" lon="0.620004">
        <ele>854.646</ele>
        <time>2018-11-24T10:02:10Z</time>
      </trkpt>
      <trkpt lat="42.135532" lon="0.620227">
        <ele>853.793</ele>
        <time>2018-11-24T10:02:11Z</time>
      </trkpt>
      <trkpt lat="42.135337" lon="0.620421">
        <ele>852.740</ele>
        <time>2018-11-24T10:02:12Z</time>
      </trkpt>
      <trkpt lat="42.135135" lon="0.620607">
        <ele>851.730</ele>
        <time>2018-11-24T10:02:13Z</time>
      </trkpt>
      <trkpt lat="42.134929" lon="0.620776">
        <ele>850.691</ele>
        <time>2018-11-24T10:02:14Z</time>
      </trkpt>
      <trkpt lat="42.134721" lon="0.620945">
        <ele>848.740</ele>
        <time>2018-11-24T10:02:15Z</time>
      </trkpt>
      <trkpt lat="42.134516" lon="0.621115">
        <ele>847.230</ele>
        <time>2018-11-24T10:02:16Z</time>
      </trkpt>
      <trkpt lat="42.134322" lon="0.621305">
        <ele>845.895</ele>
        <time>2018-11-24T10:02:17Z</time>
      </trkpt>
      <trkpt lat="42.134133" lon="0.621499">
        <ele>844.335</ele>
        <time>2018-11-24T10:02:18Z</time>
      </trkpt>
      <trkpt lat="42.133973" lon="0.621742">
        <ele>842.986</ele>
        <time>2018-11-24T10:02:19Z</time>
      </trkpt>
      <trkpt lat="42.133829" lon="0.621992">
        <ele>841.414</ele>
        <time>2018-11-24T10:02:20Z</time>
      </trkpt>
      <trkpt lat="42.133704" lon="0.622263">
        <ele>840.208</ele>
        <time>2018-11-24T10:02:21Z</time>
      </trkpt>
      <trkpt lat="42.133601" lon="0.622551">
        <ele>838.966</ele>
        <time>2018-11-24T10:02:22Z</time>
      </trkpt>
      <trkpt lat="42.133520" lon="0.622852">
        <ele>837.753</ele>
        <time>2018-11-24T10:02:23Z</time>
      </trkpt>
      <trkpt lat="42.133465" lon="0.623163">
        <ele>836.420</ele>
        <time>2018-11-24T10:02:24Z</time>
      </trkpt>
      <trkpt lat="42.133434" lon="0.623480">
        <ele>835.230</ele>
        <time>2018-11-24T10:02:25Z</time>
      </trkpt>
      <trkpt lat="42.133421" lon="0.623802">
        <ele>834.241</ele>
        <time>2018-11-24T10:02:26Z</time>
      </trkpt>
      <trkpt lat="42.133418" lon="0.624121">
        <ele>833.030</ele>
        <time>2018-11-24T10:02:27Z</time>
      </trkpt>
      <trkpt lat="42.133420" lon="0.624442">
        <ele>831.860</ele>
        <time>2018-11-24T10:02:28Z</time>
      </trkpt>
      <trkpt lat="42.133421" lon="0.624762">
        <ele>830.435</ele>
        <time>2018-11-24T10:02:29Z</time>
      </trkpt>
      <trkpt lat="42.133426" lon="0.625078">
        <ele>829.437</ele>
        <time>2018-11-24T10:02:30Z</time>
      </trkpt>
      <trkpt lat="42.133428" lon="0.625398">
        <ele>828.349</ele>
        <time>2018-11-24T10:02:31Z</time>
      </trkpt>
      <trkpt lat="42.133436" lon="0.625717">
        <ele>827.313</ele>
        <time>2018-11-24T10:02:32Z</time>
      </trkpt>
      <trkpt lat="42.133444" lon="0.626033">
        <ele>826.208</ele>
        <time>2018-11-24T10:02:33Z</time>
      </trkpt>
      <trkpt lat="42.133470" lon="0.626352">
        <ele>825.366</ele>
        <time>2018-11-24T10:02:34Z</time>
      </trkpt>
      <trkpt lat="42.133514" lon="0.626665">
        <ele>824.373</ele>
        <time>2018-11-24T10:02:35Z</time>
      </trkpt>
      <trkpt lat="42.133571" lon="0.626979">
        <ele>823.330</ele>
        <time>2018-11-24T10:02:36Z</time>
      </trkpt>
      <trkpt lat="42.133636" lon="0.627290">
        <ele>822.220</ele>
        <time>2018-11-24T10:02:37Z</time>
      </trkpt>
      <trkpt lat="42.133713" lon="0.627596">
        <ele>820.881</ele>
        <time>2018-11-24T10:02:38Z</time>
      </trkpt>
      <trkpt lat="42.133793" lon="0.627901">
        <ele>819.880</ele>
        <time>2018-11-24T10:02:39Z</time>
      </trkpt>
      <trkpt lat="42.133874" lon="0.628202">
        <ele>818.560</ele>
        <time>2018-11-24T10:02:40Z</time>
      </trkpt>
      <trkpt lat="42.133955" lon="0.628507">
        <ele>817.185</ele>
        <time>2018-11-24T10:02:41Z</time>
      </trkpt>
      <trkpt lat="42.134035" lon="0.628812">
        <ele>815.834</ele>
        <time>2018-11-24T10:02:42Z</time>
      </trkpt>
      <trkpt lat="42.134116" lon="0.629115">
        <ele>814.455</ele>
        <time>2018-11-24T10:02:43Z</time>
      </trkpt>
      <trkpt lat="42.134198" lon="0.629417">
        <ele>812.610</ele>
        <time>2018-11-24T10:02:44Z</time>
      </trkpt>
      <trkpt lat="42.134279" lon="0.629719">
        <ele>810.808</ele>
        <time>2018-11-24T10:02:45Z</time>
      </trkpt>
      <trkpt lat="42.134359" lon="0.630022">
        <ele>809.466</ele>
        <time>2018-11-24T10:02:46Z</time>
      </trkpt>
      <trkpt lat="42.134438" lon="0.630326">
        <ele>807.743</ele>
        <time>2018-11-24T10:02:47Z</time>
      </trkpt>
      <trkpt lat="42.134521" lon="0.630630">
        <ele>806.360</ele>
        <time>2018-11-24T10:02:48Z</time>
      </trkpt>
      <trkpt lat="42.134609" lon="0.630928">
        <ele>804.420</ele>
        <time>2018-11-24T10:02:49Z</time>
      </trkpt>
      <trkpt lat="42.134714" lon="0.631218">
        <ele>803.151</ele>
        <time>2018-11-24T10:02:50Z</time>
      </trkpt>
      <trkpt lat="42.134838" lon="0.631495">
        <ele>801.340</ele>
        <time>2018-11-24T10:02:51Z</time>
      </trkpt>
      <trkpt lat="42.134984" lon="0.631752">
        <ele>799.510</ele>
        <time>2018-11-24T10:02:52Z</time>
      </trkpt>
      <trkpt lat="42.135146" lon="0.631989">
        <ele>798.215</ele>
        <time>2018-11-24T10:02:53Z</time>
      </trkpt>
      <trkpt lat="42.135314" lon="0.632216">
        <ele>796.539</ele>
        <time>2018-11-24T10:02:54Z</time>
      </trkpt>
      <trkpt lat="42.135503" lon="0.632416">
        <ele>794.901</ele>
        <time>2018-11-24T10:02:55Z</time>
      </trkpt>
      <trkpt lat="42.135695" lon="0.632610">
        <ele>793.021</ele>
        <time>2018-11-24T10:02:56Z</time>
      </trkpt>
      <trkpt lat="42.135882" lon="0.632811">
        <ele>791.408</ele>
        <time>2018-11-24T10:02:57Z</time>
      </trkpt>
      <trkpt lat="42.136062" lon="0.633025">
        <ele>789.546</ele>
        <time>2018-11-24T10:02:58Z</time>
      </trkpt>
      <trkpt lat="42.136229" lon="0.633256">
        <ele>788.153</ele>
        <time>2018-11-24T10:02:59Z</time>
      </trkpt>
      <trkpt lat="42.136375" lon="0.633509">
        <ele>786.360</ele>
        <time>2018-11-24T10:03:00Z</time>
      </trkpt>
      <trkpt lat="42.136498" lon="0.633784">
        <ele>784.760</ele>
        <time>2018-11-24T10:03:01Z</time>
      </trkpt>
      <trkpt lat="42.136602" lon="0.634071">
        <ele>782.851</ele>
        <time>2018-11-24T10:03:02Z</time>
      </trkpt>
      <trkpt lat="42.136682" lon="0.634374">
        <ele>781.230</ele>
        <time>2018-11-24T10:03:03Z</time>
      </trkpt>
      <trkpt lat="42.136757" lon="0.634675">
        <ele>779.550</ele>
        <time>2018-11-24T10:03:04Z</time>
      </trkpt>
      <trkpt lat="42.136790" lon="0.634989">
        <ele>777.665</ele>
        <time>2018-11-24T10:03:05Z</time>
      </trkpt>
      <trkpt lat="42.136808" lon="0.635310">
        <ele>776.138</ele>
        <time>2018-11-24T10:03:06Z</time>
      </trkpt>
      <trkpt lat="42.136826" lon="0.635629">
        <ele>774.570</ele>
        <time>2018-11-24T10:03:07Z</time>
      </trkpt>
      <trkpt lat="42.136845" lon="0.635945">
        <ele>773.517</ele>
        <time>2018-11-24T10:03:08Z</time>
      </trkpt>
      <trkpt lat="42.136863" lon="0.636262">
        <ele>772.708</ele>
        <time>2018-11-24T10:03:09Z</time>
      </trkpt>
      <trkpt lat="42.136884" lon="0.636579">
        <ele>771.986</ele>
        <time>2018-11-24T10:03:10Z</time>
      </trkpt>
      <trkpt lat="42.136909" lon="0.636896">
        <ele>771.093</ele>
        <time>2018-11-24T10:03:11Z</time>
      </trkpt>
      <trkpt lat="42.136942" lon="0.637209">
        <ele>769.930</ele>
        <time>2018-11-24T10:03:12Z</time>
      </trkpt>
      <trkpt lat="42.136982" lon="0.637522">
        <ele>769.030</ele>
        <time>2018-11-24T10:03:13Z</time>
      </trkpt>
      <trkpt lat="42.137027" lon="0.637832">
        <ele>767.891</ele>
        <time>2018-11-24T10:03:14Z</time>
      </trkpt>
      <trkpt lat="42.137072" lon="0.638145">
        <ele>767.840</ele>
        <time>2018-11-24T10:03:15Z</time>
      </trkpt>
      <trkpt lat="42.137121" lon="0.638456">
        <ele>767.310</ele>
        <time>2018-11-24T10:03:16Z</time>
      </trkpt>
      <trkpt lat="42.137170" lon="0.638770">
        <ele>765.225</ele>
        <time>2018-11-24T10:03:17Z</time>
      </trkpt>
      <trkpt lat="42.137219" lon="0.639083">
        <ele>763.981</ele>
        <time>2018-11-24T10:03:18Z</time>
      </trkpt>
      <trkpt lat="42.137269" lon="0.639395">
        <ele>762.961</ele>
        <time>2018-11-24T10:03:19Z</time>
      </trkpt>
      <trkpt lat="42.137319" lon="0.639708">
        <ele>761.717</ele>
        <time>2018-11-24T10:03:20Z</time>
      </trkpt>
      <trkpt lat="42.137371" lon="0.640021">
        <ele>760.808</ele>
        <time>2018-11-24T10:03:21Z</time>
      </trkpt>
      <trkpt lat="42.137422" lon="0.640334">
        <ele>760.011</ele>
        <time>2018-11-24T10:03:22Z</time>
      </trkpt>
      <trkpt lat="42.137474" lon="0.640647">
        <ele>759.678</ele>
        <time>2018-11-24T10:03:23Z</time>
      </trkpt>
      <trkpt lat="42.137527" lon="0.640960">
        <ele>758.965</ele>
        <time>2018-11-24T10:03:24Z</time>
      </trkpt>
      <trkpt lat="42.137584" lon="0.641272">
        <ele>758.635</ele>
        <time>2018-11-24T10:03:25Z</time>
      </trkpt>
      <trkpt lat="42.137654" lon="0.641576">
        <ele>758.626</ele>
        <time>2018-11-24T10:03:26Z</time>
      </trkpt>
      <trkpt lat="42.137742" lon="0.641871">
        <ele>758.645</ele>
        <time>2018-11-24T10:03:27Z</time>
      </trkpt>
      <trkpt lat="42.137849" lon="0.642152">
        <ele>758.795</ele>
        <time>2018-11-24T10:03:28Z</time>
      </trkpt>
      <trkpt lat="42.137959" lon="0.642429">
        <ele>759.020</ele>
        <time>2018-11-24T10:03:29Z</time>
      </trkpt>
      <trkpt lat="42.138087" lon="0.642709">
        <ele>759.314</ele>
        <time>2018-11-24T10:03:30Z</time>
      </trkpt>
      <trkpt lat="42.138229" lon="0.642990">
        <ele>759.954</ele>
        <time>2018-11-24T10:03:31Z</time>
      </trkpt>
      <trkpt lat="42.138358" lon="0.643300">
        <ele>760.509</ele>
        <time>2018-11-24T10:03:32Z</time>
      </trkpt>
      <trkpt lat="42.138467" lon="0.643632">
        <ele>761.208</ele>
        <time>2018-11-24T10:03:33Z</time>
      </trkpt>
      <trkpt lat="42.138576" lon="0.643969">
        <ele>761.854</ele>
        <time>2018-11-24T10:03:34Z</time>
      </trkpt>
      <trkpt lat="42.138639" lon="0.644347">
        <ele>762.491</ele>
        <time>2018-11-24T10:03:35Z</time>
      </trkpt>
      <trkpt lat="42.138693" lon="0.644721">
        <ele>763.078</ele>
        <time>2018-11-24T10:03:36Z</time>
      </trkpt>
      <trkpt lat="42.138744" lon="0.645088">
        <ele>763.168</ele>
        <time>2018-11-24T10:03:37Z</time>
      </trkpt>
      <trkpt lat="42.138798" lon="0.645446">
        <ele>762.749</ele>
        <time>2018-11-24T10:03:38Z</time>
      </trkpt>
      <trkpt lat="42.138859" lon="0.645808">
        <ele>762.128</ele>
        <time>2018-11-24T10:03:39Z</time>
      </trkpt>
      <trkpt lat="42.138928" lon="0.646173">
        <ele>761.428</ele>
        <time>2018-11-24T10:03:40Z</time>
      </trkpt>
      <trkpt lat="42.139014" lon="0.646543">
        <ele>760.443</ele>
        <time>2018-11-24T10:03:41Z</time>
      </trkpt>
      <trkpt lat="42.139120" lon="0.646916">
        <ele>759.087</ele>
        <time>2018-11-24T10:03:42Z</time>
      </trkpt>
      <trkpt lat="42.139245" lon="0.647284">
        <ele>756.942</ele>
        <time>2018-11-24T10:03:43Z</time>
      </trkpt>
      <trkpt lat="42.139389" lon="0.647643">
        <ele>755.026</ele>
        <time>2018-11-24T10:03:44Z</time>
      </trkpt>
      <trkpt lat="42.139555" lon="0.647989">
        <ele>752.408</ele>
        <time>2018-11-24T10:03:45Z</time>
      </trkpt>
      <trkpt lat="42.139736" lon="0.648314">
        <ele>750.481</ele>
        <time>2018-11-24T10:03:46Z</time>
      </trkpt>
      <trkpt lat="42.139927" lon="0.648612">
        <ele>747.888</ele>
        <time>2018-11-24T10:03:47Z</time>
      </trkpt>
      <trkpt lat="42.140123" lon="0.648883">
        <ele>745.055</ele>
        <time>2018-11-24T10:03:48Z</time>
      </trkpt>
      <trkpt lat="42.140330" lon="0.649125">
        <ele>742.855</ele>
        <time>2018-11-24T10:03:49Z</time>
      </trkpt>
      <trkpt lat="42.140548" lon="0.649340">
        <ele>740.746</ele>
        <time>2018-11-24T10:03:50Z</time>
      </trkpt>
      <trkpt lat="42.140787" lon="0.649516">
        <ele>738.915</ele>
        <time>2018-11-24T10:03:51Z</time>
      </trkpt>
      <trkpt lat="42.141037" lon="0.649651">
        <ele>736.675</ele>
        <time>2018-11-24T10:03:52Z</time>
      </trkpt>
      <trkpt lat="42.141294" lon="0.649756">
        <ele>734.630</ele>
        <time>2018-11-24T10:03:53Z</time>
      </trkpt>
      <trkpt lat="42.141547" lon="0.649855">
        <ele>732.176</ele>
        <time>2018-11-24T10:03:54Z</time>
      </trkpt>
      <trkpt lat="42.141790" lon="0.649975">
        <ele>730.090</ele>
        <time>2018-11-24T10:03:55Z</time>
      </trkpt>
      <trkpt lat="42.142023" lon="0.650134">
        <ele>728.119</ele>
        <time>2018-11-24T10:03:56Z</time>
      </trkpt>
      <trkpt lat="42.142242" lon="0.650340">
        <ele>726.408</ele>
        <time>2018-11-24T10:03:57Z</time>
      </trkpt>
      <trkpt lat="42.142434" lon="0.650591">
        <ele>724.380</ele>
        <time>2018-11-24T10:03:58Z</time>
      </trkpt>
      <trkpt lat="42.142596" lon="0.650874">
        <ele>722.197</ele>
        <time>2018-11-24T10:03:59Z</time>
      </trkpt>
      <trkpt lat="42.142724" lon="0.651184">
        <ele>720.744</ele>
        <time>2018-11-24T10:04:00Z</time>
      </trkpt>
      <trkpt lat="42.142817" lon="0.651513">
        <ele>718.024</ele>
        <time>2018-11-24T10:04:01Z</time>
      </trkpt>
      <trkpt lat="42.142874" lon="0.651863">
        <ele>716.065</ele>
        <time>2018-11-24T10:04:02Z</time>
      </trkpt>
      <trkpt lat="42.142889" lon="0.652225">
        <ele>714.014</ele>
        <time>2018-11-24T10:04:03Z</time>
      </trkpt>
      <trkpt lat="42.142868" lon="0.652595">
        <ele>712.234</ele>
        <time>2018-11-24T10:04:04Z</time>
      </trkpt>
      <trkpt lat="42.142845" lon="0.652973">
        <ele>710.319</ele>
        <time>2018-11-24T10:04:05Z</time>
      </trkpt>
      <trkpt lat="42.142742" lon="0.653325">
        <ele>708.089</ele>
        <time>2018-11-24T10:04:06Z</time>
      </trkpt>
      <trkpt lat="42.142636" lon="0.653677">
        <ele>706.006</ele>
        <time>2018-11-24T10:04:07Z</time>
      </trkpt>
      <trkpt lat="42.142556" lon="0.654041">
        <ele>703.926</ele>
        <time>2018-11-24T10:04:08Z</time>
      </trkpt>
      <trkpt lat="42.142501" lon="0.654431">
        <ele>702.208</ele>
        <time>2018-11-24T10:04:09Z</time>
      </trkpt>
      <trkpt lat="42.142475" lon="0.654836">
        <ele>700.261</ele>
        <time>2018-11-24T10:04:10Z</time>
      </trkpt>
      <trkpt lat="42.142461" lon="0.655248">
        <ele>698.468</ele>
        <time>2018-11-24T10:04:11Z</time>
      </trkpt>
      <trkpt lat="42.142452" lon="0.655652">
        <ele>695.495</ele>
        <time>2018-11-24T10:04:12Z</time>
      </trkpt>
      <trkpt lat="42.142453" lon="0.656021">
        <ele>692.665</ele>
        <time>2018-11-24T10:04:13Z</time>
      </trkpt>
      <trkpt lat="42.142466" lon="0.656369">
        <ele>689.566</ele>
        <time>2018-11-24T10:04:14Z</time>
      </trkpt>
      <trkpt lat="42.142503" lon="0.656723">
        <ele>687.625</ele>
        <time>2018-11-24T10:04:15Z</time>
      </trkpt>
      <trkpt lat="42.142570" lon="0.657091">
        <ele>685.665</ele>
        <time>2018-11-24T10:04:16Z</time>
      </trkpt>
      <trkpt lat="42.142668" lon="0.657450">
        <ele>683.620</ele>
        <time>2018-11-24T10:04:17Z</time>
      </trkpt>
      <trkpt lat="42.142795" lon="0.657807">
        <ele>682.075</ele>
        <time>2018-11-24T10:04:18Z</time>
      </trkpt>
      <trkpt lat="42.142938" lon="0.658172">
        <ele>680.128</ele>
        <time>2018-11-24T10:04:19Z</time>
      </trkpt>
      <trkpt lat="42.143085" lon="0.658540">
        <ele>678.120</ele>
        <time>2018-11-24T10:04:20Z</time>
      </trkpt>
      <trkpt lat="42.143231" lon="0.658907">
        <ele>675.408</ele>
        <time>2018-11-24T10:04:21Z</time>
      </trkpt>
      <trkpt lat="42.143378" lon="0.659273">
        <ele>673.440</ele>
        <time>2018-11-24T10:04:22Z</time>
      </trkpt>
      <trkpt lat="42.143526" lon="0.659636">
        <ele>670.737</ele>
        <time>2018-11-24T10:04:23Z</time>
      </trkpt>
      <trkpt lat="42.143673" lon="0.659999">
        <ele>668.734</ele>
        <time>2018-11-24T10:04:24Z</time>
      </trkpt>
      <trkpt lat="42.143815" lon="0.660353">
        <ele>665.954</ele>
        <time>2018-11-24T10:04:25Z</time>
      </trkpt>
      <trkpt lat="42.143946" lon="0.660693">
        <ele>662.625</ele>
        <time>2018-11-24T10:04:26Z</time>
      </trkpt>
      <trkpt lat="42.144058" lon="0.661040">
        <ele>660.364</ele>
        <time>2018-11-24T10:04:27Z</time>
      </trkpt>
      <trkpt lat="42.144136" lon="0.661402">
        <ele>657.734</ele>
        <time>2018-11-24T10:04:28Z</time>
      </trkpt>
      <trkpt lat="42.144202" lon="0.661765">
        <ele>655.859</ele>
        <time>2018-11-24T10:04:29Z</time>
      </trkpt>
      <trkpt lat="42.144207" lon="0.662141">
        <ele>653.456</ele>
        <time>2018-11-24T10:04:30Z</time>
      </trkpt>
      <trkpt lat="42.144180" lon="0.662524">
        <ele>651.059</ele>
        <time>2018-11-24T10:04:31Z</time>
      </trkpt>
      <trkpt lat="42.144116" lon="0.662901">
        <ele>649.314</ele>
        <time>2018-11-24T10:04:32Z</time>
      </trkpt>
      <trkpt lat="42.144009" lon="0.663281">
        <ele>647.308</ele>
        <time>2018-11-24T10:04:33Z</time>
      </trkpt>
      <trkpt lat="42.143862" lon="0.663649">
        <ele>645.288</ele>
        <time>2018-11-24T10:04:34Z</time>
      </trkpt>
      <trkpt lat="42.143682" lon="0.664008">
        <ele>643.045</ele>
        <time>2018-11-24T10:04:35Z</time>
      </trkpt>
      <trkpt lat="42.143490" lon="0.664360">
        <ele>641.012</ele>
        <time>2018-11-24T10:04:36Z</time>
      </trkpt>
      <trkpt lat="42.143298" lon="0.664712">
        <ele>638.372</ele>
        <time>2018-11-24T10:04:37Z</time>
      </trkpt>
      <trkpt lat="42.143109" lon="0.665064">
        <ele>635.983</ele>
        <time>2018-11-24T10:04:38Z</time>
      </trkpt>
      <trkpt lat="42.142925" lon="0.665406">
        <ele>633.032</ele>
        <time>2018-11-24T10:04:39Z</time>
      </trkpt>
      <trkpt lat="42.142745" lon="0.665742">
        <ele>630.412</ele>
        <time>2018-11-24T10:04:40Z</time>
      </trkpt>
      <trkpt lat="42.142576" lon="0.666081">
        <ele>627.767</ele>
        <time>2018-11-24T10:04:41Z</time>
      </trkpt>
      <trkpt lat="42.142432" lon="0.666439">
        <ele>625.822</ele>
        <time>2018-11-24T10:04:42Z</time>
      </trkpt>
      <trkpt lat="42.142310" lon="0.666806">
        <ele>624.862</ele>
        <time>2018-11-24T10:04:43Z</time>
      </trkpt>
      <trkpt lat="42.142198" lon="0.667174">
        <ele>624.108</ele>
        <time>2018-11-24T10:04:44Z</time>
      </trkpt>
      <trkpt lat="42.142082" lon="0.667535">
        <ele>623.408</ele>
        <time>2018-11-24T10:04:45Z</time>
      </trkpt>
      <trkpt lat="42.141941" lon="0.667878">
        <ele>623.315</ele>
        <time>2018-11-24T10:04:46Z</time>
      </trkpt>
      <trkpt lat="42.141770" lon="0.668191">
        <ele>623.772</ele>
        <time>2018-11-24T10:04:47Z</time>
      </trkpt>
      <trkpt lat="42.141578" lon="0.668469">
        <ele>623.929</ele>
        <time>2018-11-24T10:04:48Z</time>
      </trkpt>
      <trkpt lat="42.141369" lon="0.668713">
        <ele>624.039</ele>
        <time>2018-11-24T10:04:49Z</time>
      </trkpt>
      <trkpt lat="42.141158" lon="0.668944">
        <ele>623.760</ele>
        <time>2018-11-24T10:04:50Z</time>
      </trkpt>
      <trkpt lat="42.140953" lon="0.669180">
        <ele>623.059</ele>
        <time>2018-11-24T10:04:51Z</time>
      </trkpt>
      <trkpt lat="42.140760" lon="0.669437">
        <ele>621.859</ele>
        <time>2018-11-24T10:04:52Z</time>
      </trkpt>
      <trkpt lat="42.140581" lon="0.669721">
        <ele>620.364</ele>
        <time>2018-11-24T10:04:53Z</time>
      </trkpt>
      <trkpt lat="42.140409" lon="0.670030">
        <ele>619.595</ele>
        <time>2018-11-24T10:04:54Z</time>
      </trkpt>
      <trkpt lat="42.140235" lon="0.670353">
        <ele>618.049</ele>
        <time>2018-11-24T10:04:55Z</time>
      </trkpt>
      <trkpt lat="42.140061" lon="0.670677">
        <ele>616.223</ele>
        <time>2018-11-24T10:04:56Z</time>
      </trkpt>
      <trkpt lat="42.139893" lon="0.670995">
        <ele>614.008</ele>
        <time>2018-11-24T10:04:57Z</time>
      </trkpt>
      <trkpt lat="42.139733" lon="0.671312">
        <ele>612.082</ele>
        <time>2018-11-24T10:04:58Z</time>
      </trkpt>
      <trkpt lat="42.139587" lon="0.671641">
        <ele>609.999</ele>
        <time>2018-11-24T10:04:59Z</time>
      </trkpt>
      <trkpt lat="42.139460" lon="0.671984">
        <ele>607.886</ele>
        <time>2018-11-24T10:05:00Z</time>
      </trkpt>
      <trkpt lat="42.139345" lon="0.672338">
        <ele>606.166</ele>
        <time>2018-11-24T10:05:01Z</time>
      </trkpt>
      <trkpt lat="42.139229" lon="0.672695">
        <ele>604.187</ele>
        <time>2018-11-24T10:05:02Z</time>
      </trkpt>
      <trkpt lat="42.139097" lon="0.673040">
        <ele>602.636</ele>
        <time>2018-11-24T10:05:03Z</time>
      </trkpt>
      <trkpt lat="42.138943" lon="0.673367">
        <ele>600.346</ele>
        <time>2018-11-24T10:05:04Z</time>
      </trkpt>
      <trkpt lat="42.138771" lon="0.673678">
        <ele>598.591</ele>
        <time>2018-11-24T10:05:05Z</time>
      </trkpt>
      <trkpt lat="42.138597" lon="0.673987">
        <ele>596.495</ele>
        <time>2018-11-24T10:05:06Z</time>
      </trkpt>
      <trkpt lat="42.138437" lon="0.674311">
        <ele>594.949</ele>
        <time>2018-11-24T10:05:07Z</time>
      </trkpt>
      <trkpt lat="42.138299" lon="0.674652">
        <ele>593.223</ele>
        <time>2018-11-24T10:05:08Z</time>
      </trkpt>
      <trkpt lat="42.138177" lon="0.675002">
        <ele>591.608</ele>
        <time>2018-11-24T10:05:09Z</time>
      </trkpt>
      <trkpt lat="42.138059" lon="0.675352">
        <ele>590.152</ele>
        <time>2018-11-24T10:05:10Z</time>
      </trkpt>
      <trkpt lat="42.137940" lon="0.675699">
        <ele>588.799</ele>
        <time>2018-11-24T10:05:11Z</time>
      </trkpt>
      <trkpt lat="42.137822" lon="0.676047">
        <ele>587.846</ele>
        <time>2018-11-24T10:05:12Z</time>
      </trkpt>
      <trkpt lat="42.137709" lon="0.676390">
        <ele>586.666</ele>
        <time>2018-11-24T10:05:13Z</time>
      </trkpt>
      <trkpt lat="42.137609" lon="0.676735">
        <ele>585.897</ele>
        <time>2018-11-24T10:05:14Z</time>
      </trkpt>
      <trkpt lat="42.137543" lon="0.677093">
        <ele>584.636</ele>
        <time>2018-11-24T10:05:15Z</time>
      </trkpt>
      <trkpt lat="42.137502" lon="0.677459">
        <ele>583.836</ele>
        <time>2018-11-24T10:05:16Z</time>
      </trkpt>
      <trkpt lat="42.137490" lon="0.677837">
        <ele>582.921</ele>
        <time>2018-11-24T10:05:17Z</time>
      </trkpt>
      <trkpt lat="42.137481" lon="0.678206">
        <ele>581.935</ele>
        <time>2018-11-24T10:05:18Z</time>
      </trkpt>
      <trkpt lat="42.137454" lon="0.678569">
        <ele>581.086</ele>
        <time>2018-11-24T10:05:19Z</time>
      </trkpt>
      <trkpt lat="42.137404" lon="0.678923">
        <ele>580.114</ele>
        <time>2018-11-24T10:05:20Z</time>
      </trkpt>
      <trkpt lat="42.137326" lon="0.679266">
        <ele>579.608</ele>
        <time>2018-11-24T10:05:21Z</time>
      </trkpt>
      <trkpt lat="42.137232" lon="0.679599">
        <ele>579.566</ele>
        <time>2018-11-24T10:05:22Z</time>
      </trkpt>
      <trkpt lat="42.137145" lon="0.679925">
        <ele>579.423</ele>
        <time>2018-11-24T10:05:23Z</time>
      </trkpt>
      <trkpt lat="42.137072" lon="0.680260">
        <ele>579.550</ele>
        <time>2018-11-24T10:05:24Z</time>
      </trkpt>
      <trkpt lat="42.137016" lon="0.680603">
        <ele>579.240</ele>
        <time>2018-11-24T10:05:25Z</time>
      </trkpt>
      <trkpt lat="42.136979" lon="0.680957">
        <ele>578.731</ele>
        <time>2018-11-24T10:05:26Z</time>
      </trkpt>
      <trkpt lat="42.136950" lon="0.681316">
        <ele>578.250</ele>
        <time>2018-11-24T10:05:27Z</time>
      </trkpt>
      <trkpt lat="42.136908" lon="0.681673">
        <ele>577.470</ele>
        <time>2018-11-24T10:05:28Z</time>
      </trkpt>
      <trkpt lat="42.136845" lon="0.682027">
        <ele>576.565</ele>
        <time>2018-11-24T10:05:29Z</time>
      </trkpt>
      <trkpt lat="42.136761" lon="0.682373">
        <ele>575.643</ele>
        <time>2018-11-24T10:05:30Z</time>
      </trkpt>
      <trkpt lat="42.136668" lon="0.682718">
        <ele>574.664</ele>
        <time>2018-11-24T10:05:31Z</time>
      </trkpt>
      <trkpt lat="42.136575" lon="0.683062">
        <ele>573.910</ele>
        <time>2018-11-24T10:05:32Z</time>
      </trkpt>
      <trkpt lat="42.136477" lon="0.683406">
        <ele>573.308</ele>
        <time>2018-11-24T10:05:33Z</time>
      </trkpt>
      <trkpt lat="42.136367" lon="0.683745">
        <ele>572.497</ele>
        <time>2018-11-24T10:05:34Z</time>
      </trkpt>
      <trkpt lat="42.136240" lon="0.684073">
        <ele>571.424</ele>
        <time>2018-11-24T10:05:35Z</time>
      </trkpt>
      <trkpt lat="42.136090" lon="0.684383">
        <ele>570.481</ele>
        <time>2018-11-24T10:05:36Z</time>
      </trkpt>
      <trkpt lat="42.135928" lon="0.684684">
        <ele>569.691</ele>
        <time>2018-11-24T10:05:37Z</time>
      </trkpt>
      <trkpt lat="42.135769" lon="0.684993">
        <ele>568.792</ele>
        <time>2018-11-24T10:05:38Z</time>
      </trkpt>
      <trkpt lat="42.135628" lon="0.685321">
        <ele>568.051</ele>
        <time>2018-11-24T10:05:39Z</time>
      </trkpt>
      <trkpt lat="42.135509" lon="0.685666">
        <ele>567.321</ele>
        <time>2018-11-24T10:05:40Z</time>
      </trkpt>
      <trkpt lat="42.135412" lon="0.686023">
        <ele>566.926</ele>
        <time>2018-11-24T10:05:41Z</time>
      </trkpt>
      <trkpt lat="42.135328" lon="0.686390">
        <ele>567.026</ele>
        <time>2018-11-24T10:05:42Z</time>
      </trkpt>
      <trkpt lat="42.135244" lon="0.686756">
        <ele>567.747</ele>
        <time>2018-11-24T10:05:43Z</time>
      </trkpt>
      <trkpt lat="42.135152" lon="0.687118">
        <ele>569.111</ele>
        <time>2018-11-24T10:05:44Z</time>
      </trkpt>
      <trkpt lat="42.135055" lon="0.687476">
        <ele>570.008</ele>
        <time>2018-11-24T10:05:45Z</time>
      </trkpt>
      <trkpt lat="42.134953" lon="0.687822">
        <ele>571.155</ele>
        <time>2018-11-24T10:05:46Z</time>
      </trkpt>
      <trkpt lat="42.134848" lon="0.688156">
        <ele>572.582</ele>
        <time>2018-11-24T10:05:47Z</time>
      </trkpt>
      <trkpt lat="42.134742" lon="0.688483">
        <ele>573.829</ele>
        <time>2018-11-24T10:05:48Z</time>
      </trkpt>
      <trkpt lat="42.134641" lon="0.688810">
        <ele>575.089</ele>
        <time>2018-11-24T10:05:49Z</time>
      </trkpt>
      <trkpt lat="42.134548" lon="0.689140">
        <ele>576.180</ele>
        <time>2018-11-24T10:05:50Z</time>
      </trkpt>
      <trkpt lat="42.134471" lon="0.689475">
        <ele>577.499</ele>
        <time>2018-11-24T10:05:51Z</time>
      </trkpt>
      <trkpt lat="42.134411" lon="0.689814">
        <ele>578.419</ele>
        <time>2018-11-24T10:05:52Z</time>
      </trkpt>
      <trkpt lat="42.134371" lon="0.690158">
        <ele>579.644</ele>
        <time>2018-11-24T10:05:53Z</time>
      </trkpt>
      <trkpt lat="42.134354" lon="0.690504">
        <ele>580.837</ele>
        <time>2018-11-24T10:05:54Z</time>
      </trkpt>
      <trkpt lat="42.134357" lon="0.690849">
        <ele>581.749</ele>
        <time>2018-11-24T10:05:55Z</time>
      </trkpt>
      <trkpt lat="42.134379" lon="0.691191">
        <ele>582.913</ele>
        <time>2018-11-24T10:05:56Z</time>
      </trkpt>
      <trkpt lat="42.134421" lon="0.691528">
        <ele>583.908</ele>
        <time>2018-11-24T10:05:57Z</time>
      </trkpt>
      <trkpt lat="42.134484" lon="0.691856">
        <ele>585.076</ele>
        <time>2018-11-24T10:05:58Z</time>
      </trkpt>
      <trkpt lat="42.134566" lon="0.692174">
        <ele>585.963</ele>
        <time>2018-11-24T10:05:59Z</time>
      </trkpt>
      <trkpt lat="42.134669" lon="0.692480">
        <ele>586.830</ele>
        <time>2018-11-24T10:06:00Z</time>
      </trkpt>
      <trkpt lat="42.134788" lon="0.692772">
        <ele>587.210</ele>
        <time>2018-11-24T10:06:01Z</time>
      </trkpt>
      <trkpt lat="42.134924" lon="0.693051">
        <ele>587.471</ele>
        <time>2018-11-24T10:06:02Z</time>
      </trkpt>
      <trkpt lat="42.135083" lon="0.693309">
        <ele>587.510</ele>
        <time>2018-11-24T10:06:03Z</time>
      </trkpt>
      <trkpt lat="42.135267" lon="0.693546">
        <ele>587.470</ele>
        <time>2018-11-24T10:06:04Z</time>
      </trkpt>
      <trkpt lat="42.135474" lon="0.693760">
        <ele>586.845</ele>
        <time>2018-11-24T10:06:05Z</time>
      </trkpt>
      <trkpt lat="42.135701" lon="0.693943">
        <ele>585.437</ele>
        <time>2018-11-24T10:06:06Z</time>
      </trkpt>
      <trkpt lat="42.135945" lon="0.694089">
        <ele>585.249</ele>
        <time>2018-11-24T10:06:07Z</time>
      </trkpt>
      <trkpt lat="42.136203" lon="0.694195">
        <ele>584.513</ele>
        <time>2018-11-24T10:06:08Z</time>
      </trkpt>
      <trkpt lat="42.136469" lon="0.694256">
        <ele>583.608</ele>
        <time>2018-11-24T10:06:09Z</time>
      </trkpt>
      <trkpt lat="42.136736" lon="0.694273">
        <ele>582.946</ele>
        <time>2018-11-24T10:06:10Z</time>
      </trkpt>
      <trkpt lat="42.137006" lon="0.694272">
        <ele>582.193</ele>
        <time>2018-11-24T10:06:11Z</time>
      </trkpt>
      <trkpt lat="42.137270" lon="0.694173">
        <ele>581.430</ele>
        <time>2018-11-24T10:06:12Z</time>
      </trkpt>
      <trkpt lat="42.137532" lon="0.694057">
        <ele>580.530</ele>
        <time>2018-11-24T10:06:13Z</time>
      </trkpt>
      <trkpt lat="42.137793" lon="0.693915">
        <ele>579.721</ele>
        <time>2018-11-24T10:06:14Z</time>
      </trkpt>
      <trkpt lat="42.138048" lon="0.693766">
        <ele>578.810</ele>
        <time>2018-11-24T10:06:15Z</time>
      </trkpt>
      <trkpt lat="42.138312" lon="0.693630">
        <ele>577.920</ele>
        <time>2018-11-24T10:06:16Z</time>
      </trkpt>
      <trkpt lat="42.138584" lon="0.693511">
        <ele>577.035</ele>
        <time>2018-11-24T10:06:17Z</time>
      </trkpt>
      <trkpt lat="42.138860" lon="0.693430">
        <ele>575.866</ele>
        <time>2018-11-24T10:06:18Z</time>
      </trkpt>
      <trkpt lat="42.139140" lon="0.693387">
        <ele>574.929</ele>
        <time>2018-11-24T10:06:19Z</time>
      </trkpt>
      <trkpt lat="42.139425" lon="0.693380">
        <ele>574.021</ele>
        <time>2018-11-24T10:06:20Z</time>
      </trkpt>
      <trkpt lat="42.139706" lon="0.693392">
        <ele>573.208</ele>
        <time>2018-11-24T10:06:21Z</time>
      </trkpt>
      <trkpt lat="42.139985" lon="0.693405">
        <ele>572.139</ele>
        <time>2018-11-24T10:06:22Z</time>
      </trkpt>
      <trkpt lat="42.140262" lon="0.693416">
        <ele>571.116</ele>
        <time>2018-11-24T10:06:23Z</time>
      </trkpt>
      <trkpt lat="42.140537" lon="0.693423">
        <ele>569.933</ele>
        <time>2018-11-24T10:06:24Z</time>
      </trkpt>
      <trkpt lat="42.140810" lon="0.693434">
        <ele>569.053</ele>
        <time>2018-11-24T10:06:25Z</time>
      </trkpt>
      <trkpt lat="42.141078" lon="0.693493">
        <ele>568.084</ele>
        <time>2018-11-24T10:06:26Z</time>
      </trkpt>
      <trkpt lat="42.141346" lon="0.693570">
        <ele>566.993</ele>
        <time>2018-11-24T10:06:27Z</time>
      </trkpt>
      <trkpt lat="42.141607" lon="0.693684">
        <ele>566.213</ele>
        <time>2018-11-24T10:06:28Z</time>
      </trkpt>
      <trkpt lat="42.141857" lon="0.693816">
        <ele>565.068</ele>
        <time>2018-11-24T10:06:29Z</time>
      </trkpt>
      <trkpt lat="42.142105" lon="0.693987">
        <ele>564.052</ele>
        <time>2018-11-24T10:06:30Z</time>
      </trkpt>
      <trkpt lat="42.142358" lon="0.694114">
        <ele>563.153</ele>
        <time>2018-11-24T10:06:31Z</time>
      </trkpt>
      <trkpt lat="42.142606" lon="0.694241">
        <ele>562.008</ele>
        <time>2018-11-24T10:06:32Z</time>
      </trkpt>
      <trkpt lat="42.142867" lon="0.694306">
        <ele>560.908</ele>
        <time>2018-11-24T10:06:33Z</time>
      </trkpt>
      <trkpt lat="42.143137" lon="0.694346">
        <ele>559.488</ele>
        <time>2018-11-24T10:06:34Z</time>
      </trkpt>
      <trkpt lat="42.143415" lon="0.694360">
        <ele>557.835</ele>
        <time>2018-11-24T10:06:35Z</time>
      </trkpt>
      <trkpt lat="42.143695" lon="0.694376">
        <ele>555.582</ele>
        <time>2018-11-24T10:06:36Z</time>
      </trkpt>
      <trkpt lat="42.143974" lon="0.694393">
        <ele>553.782</ele>
        <time>2018-11-24T10:06:37Z</time>
      </trkpt>
      <trkpt lat="42.144255" lon="0.694405">
        <ele>551.593</ele>
        <time>2018-11-24T10:06:38Z</time>
      </trkpt>
      <trkpt lat="42.144537" lon="0.694415">
        <ele>549.872</ele>
        <time>2018-11-24T10:06:39Z</time>
      </trkpt>
      <trkpt lat="42.144813" lon="0.694425">
        <ele>547.772</ele>
        <time>2018-11-24T10:06:40Z</time>
      </trkpt>
      <trkpt lat="42.145081" lon="0.694440">
        <ele>546.367</ele>
        <time>2018-11-24T10:06:41Z</time>
      </trkpt>
      <trkpt lat="42.145329" lon="0.694453">
        <ele>544.713</ele>
        <time>2018-11-24T10:06:42Z</time>
      </trkpt>
      <trkpt lat="42.145555" lon="0.694468">
        <ele>543.543</ele>
        <time>2018-11-24T10:06:43Z</time>
      </trkpt>
      <trkpt lat="42.145767" lon="0.694482">
        <ele>542.807</ele>
        <time>2018-11-24T10:06:44Z</time>
      </trkpt>
      <trkpt lat="42.145966" lon="0.694494">
        <ele>542.308</ele>
        <time>2018-11-24T10:06:45Z</time>
      </trkpt>
      <trkpt lat="42.146147" lon="0.694508">
        <ele>541.794</ele>
        <time>2018-11-24T10:06:46Z</time>
      </trkpt>
      <trkpt lat="42.146321" lon="0.694524">
        <ele>541.491</ele>
        <time>2018-11-24T10:06:47Z</time>
      </trkpt>
      <trkpt lat="42.146493" lon="0.694545">
        <ele>541.378</ele>
        <time>2018-11-24T10:06:48Z</time>
      </trkpt>
      <trkpt lat="42.146665" lon="0.694569">
        <ele>541.478</ele>
        <time>2018-11-24T10:06:49Z</time>
      </trkpt>
      <trkpt lat="42.146837" lon="0.694595">
        <ele>541.279</ele>
        <time>2018-11-24T10:06:50Z</time>
      </trkpt>
      <trkpt lat="42.147010" lon="0.694623">
        <ele>541.288</ele>
        <time>2018-11-24T10:06:51Z</time>
      </trkpt>
      <trkpt lat="42.147185" lon="0.694653">
        <ele>541.028</ele>
        <time>2018-11-24T10:06:52Z</time>
      </trkpt>
      <trkpt lat="42.147362" lon="0.694685">
        <ele>541.053</ele>
        <time>2018-11-24T10:06:53Z</time>
      </trkpt>
      <trkpt lat="42.147542" lon="0.694715">
        <ele>540.998</ele>
        <time>2018-11-24T10:06:54Z</time>
      </trkpt>
      <trkpt lat="42.147723" lon="0.694747">
        <ele>540.915</ele>
        <time>2018-11-24T10:06:55Z</time>
      </trkpt>
      <trkpt lat="42.147904" lon="0.694782">
        <ele>540.726</ele>
        <time>2018-11-24T10:06:56Z</time>
      </trkpt>
      <trkpt lat="42.148084" lon="0.694817">
        <ele>540.408</ele>
        <time>2018-11-24T10:06:57Z</time>
      </trkpt>
      <trkpt lat="42.148263" lon="0.694847">
        <ele>540.382</ele>
        <time>2018-11-24T10:06:58Z</time>
      </trkpt>
      <trkpt lat="42.148442" lon="0.694864">
        <ele>540.169</ele>
        <time>2018-11-24T10:06:59Z</time>
      </trkpt>
      <trkpt lat="42.148619" lon="0.694855">
        <ele>540.096</ele>
        <time>2018-11-24T10:07:00Z</time>
      </trkpt>
      <trkpt lat="42.148794" lon="0.694812">
        <ele>539.966</ele>
        <time>2018-11-24T10:07:01Z</time>
      </trkpt>
      <trkpt lat="42.148961" lon="0.694732">
        <ele>540.187</ele>
        <time>2018-11-24T10:07:02Z</time>
      </trkpt>
      <trkpt lat="42.149114" lon="0.694619">
        <ele>540.636</ele>
        <time>2018-11-24T10:07:03Z</time>
      </trkpt>
      <trkpt lat="42.149259" lon="0.694489">
        <ele>540.856</ele>
        <time>2018-11-24T10:07:04Z</time>
      </trkpt>
      <trkpt lat="42.149401" lon="0.694352">
        <ele>541.011</ele>
        <time>2018-11-24T10:07:05Z</time>
      </trkpt>
      <trkpt lat="42.149543" lon="0.694212">
        <ele>541.255</ele>
        <time>2018-11-24T10:07:06Z</time>
      </trkpt>
      <trkpt lat="42.149690" lon="0.694064">
        <ele>541.407</ele>
        <time>2018-11-24T10:07:07Z</time>
      </trkpt>
      <trkpt lat="42.149838" lon="0.693912">
        <ele>542.017</ele>
        <time>2018-11-24T10:07:08Z</time>
      </trkpt>
      <trkpt lat="42.149988" lon="0.693752">
        <ele>542.308</ele>
        <time>2018-11-24T10:07:09Z</time>
      </trkpt>
      <trkpt lat="42.150139" lon="0.693593">
        <ele>542.798</ele>
        <time>2018-11-24T10:07:10Z</time>
      </trkpt>
      <trkpt lat="42.150294" lon="0.693444">
        <ele>542.865</ele>
        <time>2018-11-24T10:07:11Z</time>
      </trkpt>
      <trkpt lat="42.150440" lon="0.693296">
        <ele>542.872</ele>
        <time>2018-11-24T10:07:12Z</time>
      </trkpt>
      <trkpt lat="42.150586" lon="0.693152">
        <ele>542.862</ele>
        <time>2018-11-24T10:07:13Z</time>
      </trkpt>
      <trkpt lat="42.150729" lon="0.693014">
        <ele>542.933</ele>
        <time>2018-11-24T10:07:14Z</time>
      </trkpt>
      <trkpt lat="42.150869" lon="0.692880">
        <ele>543.072</ele>
        <time>2018-11-24T10:07:15Z</time>
      </trkpt>
      <trkpt lat="42.151009" lon="0.692752">
        <ele>543.012</ele>
        <time>2018-11-24T10:07:16Z</time>
      </trkpt>
      <trkpt lat="42.151153" lon="0.692648">
        <ele>543.157</ele>
        <time>2018-11-24T10:07:17Z</time>
      </trkpt>
      <trkpt lat="42.151305" lon="0.692582">
        <ele>543.182</ele>
        <time>2018-11-24T10:07:18Z</time>
      </trkpt>
      <trkpt lat="42.151465" lon="0.692556">
        <ele>543.143</ele>
        <time>2018-11-24T10:07:19Z</time>
      </trkpt>
      <trkpt lat="42.151629" lon="0.692553">
        <ele>543.417</ele>
        <time>2018-11-24T10:07:20Z</time>
      </trkpt>
      <trkpt lat="42.151794" lon="0.692554">
        <ele>543.808</ele>
        <time>2018-11-24T10:07:21Z</time>
      </trkpt>
      <trkpt lat="42.151960" lon="0.692551">
        <ele>544.121</ele>
        <time>2018-11-24T10:07:22Z</time>
      </trkpt>
      <trkpt lat="42.152129" lon="0.692541">
        <ele>544.628</ele>
        <time>2018-11-24T10:07:23Z</time>
      </trkpt>
      <trkpt lat="42.152304" lon="0.692516">
        <ele>545.025</ele>
        <time>2018-11-24T10:07:24Z</time>
      </trkpt>
      <trkpt lat="42.152484" lon="0.692469">
        <ele>545.695</ele>
        <time>2018-11-24T10:07:25Z</time>
      </trkpt>
      <trkpt lat="42.152668" lon="0.692404">
        <ele>546.056</ele>
        <time>2018-11-24T10:07:26Z</time>
      </trkpt>
      <trkpt lat="42.152856" lon="0.692334">
        <ele>546.475</ele>
        <time>2018-11-24T10:07:27Z</time>
      </trkpt>
      <trkpt lat="42.153048" lon="0.692285">
        <ele>546.865</ele>
        <time>2018-11-24T10:07:28Z</time>
      </trkpt>
      <trkpt lat="42.153245" lon="0.692277">
        <ele>547.050</ele>
        <time>2018-11-24T10:07:29Z</time>
      </trkpt>
      <trkpt lat="42.153443" lon="0.692296">
        <ele>547.265</ele>
        <time>2018-11-24T10:07:30Z</time>
      </trkpt>
      <trkpt lat="42.153644" lon="0.692308">
        <ele>547.468</ele>
        <time>2018-11-24T10:07:31Z</time>
      </trkpt>
      <trkpt lat="42.153847" lon="0.692312">
        <ele>547.814</ele>
        <time>2018-11-24T10:07:32Z</time>
      </trkpt>
      <trkpt lat="42.154052" lon="0.692282">
        <ele>548.308</ele>
        <time>2018-11-24T10:07:33Z</time>
      </trkpt>
      <trkpt lat="42.154256" lon="0.692250">
        <ele>548.949</ele>
        <time>2018-11-24T10:07:34Z</time>
      </trkpt>
      <trkpt lat="42.154464" lon="0.692206">
        <ele>549.476</ele>
        <time>2018-11-24T10:07:35Z</time>
      </trkpt>
      <trkpt lat="42.154675" lon="0.692159">
        <ele>549.713</ele>
        <time>2018-11-24T10:07:36Z</time>
      </trkpt>
      <trkpt lat="42.154889" lon="0.692070">
        <ele>549.923</ele>
        <time>2018-11-24T10:07:37Z</time>
      </trkpt>
      <trkpt lat="42.155106" lon="0.691985">
        <ele>550.164</ele>
        <time>2018-11-24T10:07:38Z</time>
      </trkpt>
      <trkpt lat="42.155324" lon="0.691912">
        <ele>550.143</ele>
        <time>2018-11-24T10:07:39Z</time>
      </trkpt>
      <trkpt lat="42.155553" lon="0.691869">
        <ele>549.623</ele>
        <time>2018-11-24T10:07:40Z</time>
      </trkpt>
      <trkpt lat="42.155783" lon="0.691844">
        <ele>550.048</ele>
        <time>2018-11-24T10:07:41Z</time>
      </trkpt>
      <trkpt lat="42.156018" lon="0.691854">
        <ele>550.093</ele>
        <time>2018-11-24T10:07:42Z</time>
      </trkpt>
      <trkpt lat="42.156256" lon="0.691904">
        <ele>550.165</ele>
        <time>2018-11-24T10:07:43Z</time>
      </trkpt>
      <trkpt lat="42.156494" lon="0.691983">
        <ele>550.121</ele>
        <time>2018-11-24T10:07:44Z</time>
      </trkpt>
      <trkpt lat="42.156728" lon="0.692097">
        <ele>550.308</ele>
        <time>2018-11-24T10:07:45Z</time>
      </trkpt>
      <trkpt lat="42.156958" lon="0.692229">
        <ele>550.812</ele>
        <time>2018-11-24T10:07:46Z</time>
      </trkpt>
      <trkpt lat="42.157192" lon="0.692364">
        <ele>551.429</ele>
        <time>2018-11-24T10:07:47Z</time>
      </trkpt>
      <trkpt lat="42.157430" lon="0.692479">
        <ele>552.166</ele>
        <time>2018-11-24T10:07:48Z</time>
      </trkpt>
      <trkpt lat="42.157674" lon="0.692563">
        <ele>552.896</ele>
        <time>2018-11-24T10:07:49Z</time>
      </trkpt>
      <trkpt lat="42.157923" lon="0.692621">
        <ele>553.417</ele>
        <time>2018-11-24T10:07:50Z</time>
      </trkpt>
      <trkpt lat="42.158176" lon="0.692650">
        <ele>554.276</ele>
        <time>2018-11-24T10:07:51Z</time>
      </trkpt>
      <trkpt lat="42.158431" lon="0.692668">
        <ele>554.746</ele>
        <time>2018-11-24T10:07:52Z</time>
      </trkpt>
      <trkpt lat="42.158687" lon="0.692690">
        <ele>555.071</ele>
        <time>2018-11-24T10:07:53Z</time>
      </trkpt>
      <trkpt lat="42.158945" lon="0.692721">
        <ele>555.541</ele>
        <time>2018-11-24T10:07:54Z</time>
      </trkpt>
      <trkpt lat="42.159201" lon="0.692781">
        <ele>556.081</ele>
        <time>2018-11-24T10:07:55Z</time>
      </trkpt>
      <trkpt lat="42.159455" lon="0.692861">
        <ele>556.409</ele>
        <time>2018-11-24T10:07:56Z</time>
      </trkpt>
      <trkpt lat="42.159711" lon="0.692940">
        <ele>556.808</ele>
        <time>2018-11-24T10:07:57Z</time>
      </trkpt>
      <trkpt lat="42.159968" lon="0.693043">
        <ele>557.127</ele>
        <time>2018-11-24T10:07:58Z</time>
      </trkpt>
      <trkpt lat="42.160224" lon="0.693166">
        <ele>557.784</ele>
        <time>2018-11-24T10:07:59Z</time>
      </trkpt>
      <trkpt lat="42.160474" lon="0.693308">
        <ele>558.531</ele>
        <time>2018-11-24T10:08:00Z</time>
      </trkpt>
      <trkpt lat="42.160725" lon="0.693451">
        <ele>559.171</ele>
        <time>2018-11-24T10:08:01Z</time>
      </trkpt>
      <trkpt lat="42.160981" lon="0.693591">
        <ele>559.892</ele>
        <time>2018-11-24T10:08:02Z</time>
      </trkpt>
      <trkpt lat="42.161239" lon="0.693718">
        <ele>560.531</ele>
        <time>2018-11-24T10:08:03Z</time>
      </trkpt>
      <trkpt lat="42.161502" lon="0.693833">
        <ele>561.521</ele>
        <time>2018-11-24T10:08:04Z</time>
      </trkpt>
      <trkpt lat="42.161770" lon="0.693927">
        <ele>562.376</ele>
        <time>2018-11-24T10:08:05Z</time>
      </trkpt>
      <trkpt lat="42.162047" lon="0.694009">
        <ele>563.175</ele>
        <time>2018-11-24T10:08:06Z</time>
      </trkpt>
      <trkpt lat="42.162330" lon="0.694088">
        <ele>563.828</ele>
        <time>2018-11-24T10:08:07Z</time>
      </trkpt>
      <trkpt lat="42.162616" lon="0.694171">
        <ele>564.520</ele>
        <time>2018-11-24T10:08:08Z</time>
      </trkpt>
      <trkpt lat="42.162904" lon="0.694255">
        <ele>565.408</ele>
        <time>2018-11-24T10:08:09Z</time>
      </trkpt>
      <trkpt lat="42.163195" lon="0.694337">
        <ele>566.130</ele>
        <time>2018-11-24T10:08:10Z</time>
      </trkpt>
      <trkpt lat="42.163487" lon="0.694419">
        <ele>566.647</ele>
        <time>2018-11-24T10:08:11Z</time>
      </trkpt>
      <trkpt lat="42.163782" lon="0.694503">
        <ele>566.444</ele>
        <time>2018-11-24T10:08:12Z</time>
      </trkpt>
      <trkpt lat="42.164079" lon="0.694587">
        <ele>566.514</ele>
        <time>2018-11-24T10:08:13Z</time>
      </trkpt>
      <trkpt lat="42.164377" lon="0.694670">
        <ele>566.695</ele>
        <time>2018-11-24T10:08:14Z</time>
      </trkpt>
      <trkpt lat="42.164675" lon="0.694752">
        <ele>566.554</ele>
        <time>2018-11-24T10:08:15Z</time>
      </trkpt>
      <trkpt lat="42.164973" lon="0.694838">
        <ele>566.664</ele>
        <time>2018-11-24T10:08:16Z</time>
      </trkpt>
      <trkpt lat="42.165272" lon="0.694924">
        <ele>566.929</ele>
        <time>2018-11-24T10:08:17Z</time>
      </trkpt>
      <trkpt lat="42.165570" lon="0.695010">
        <ele>567.413</ele>
        <time>2018-11-24T10:08:18Z</time>
      </trkpt>
      <trkpt lat="42.165861" lon="0.695093">
        <ele>567.843</ele>
        <time>2018-11-24T10:08:19Z</time>
      </trkpt>
      <trkpt lat="42.166150" lon="0.695173">
        <ele>568.307</ele>
        <time>2018-11-24T10:08:20Z</time>
      </trkpt>
      <trkpt lat="42.166436" lon="0.695246">
        <ele>569.408</ele>
        <time>2018-11-24T10:08:21Z</time>
      </trkpt>
      <trkpt lat="42.166724" lon="0.695311">
        <ele>570.934</ele>
        <time>2018-11-24T10:08:22Z</time>
      </trkpt>
      <trkpt lat="42.167014" lon="0.695359">
        <ele>572.651</ele>
        <time>2018-11-24T10:08:23Z</time>
      </trkpt>
      <trkpt lat="42.167308" lon="0.695392">
        <ele>574.758</ele>
        <time>2018-11-24T10:08:24Z</time>
      </trkpt>
      <trkpt lat="42.167607" lon="0.695416">
        <ele>576.598</ele>
        <time>2018-11-24T10:08:25Z</time>
      </trkpt>
      <trkpt lat="42.167910" lon="0.695441">
        <ele>578.549</ele>
        <time>2018-11-24T10:08:26Z</time>
      </trkpt>
      <trkpt lat="42.168215" lon="0.695467">
        <ele>580.298</ele>
        <time>2018-11-24T10:08:27Z</time>
      </trkpt>
      <trkpt lat="42.168522" lon="0.695493">
        <ele>582.258</ele>
        <time>2018-11-24T10:08:28Z</time>
      </trkpt>
      <trkpt lat="42.168831" lon="0.695522">
        <ele>584.323</ele>
        <time>2018-11-24T10:08:29Z</time>
      </trkpt>
      <trkpt lat="42.169149" lon="0.695530">
        <ele>586.576</ele>
        <time>2018-11-24T10:08:30Z</time>
      </trkpt>
      <trkpt lat="42.169470" lon="0.695531">
        <ele>589.090</ele>
        <time>2018-11-24T10:08:31Z</time>
      </trkpt>
      <trkpt lat="42.169795" lon="0.695543">
        <ele>590.719</ele>
        <time>2018-11-24T10:08:32Z</time>
      </trkpt>
      <trkpt lat="42.170122" lon="0.695556">
        <ele>592.608</ele>
        <time>2018-11-24T10:08:33Z</time>
      </trkpt>
      <trkpt lat="42.170446" lon="0.695561">
        <ele>594.360</ele>
        <time>2018-11-24T10:08:34Z</time>
      </trkpt>
      <trkpt lat="42.170756" lon="0.695563">
        <ele>596.077</ele>
        <time>2018-11-24T10:08:35Z</time>
      </trkpt>
      <trkpt lat="42.171066" lon="0.695569">
        <ele>597.714</ele>
        <time>2018-11-24T10:08:36Z</time>
      </trkpt>
      <trkpt lat="42.171378" lon="0.695586">
        <ele>599.044</ele>
        <time>2018-11-24T10:08:37Z</time>
      </trkpt>
      <trkpt lat="42.171694" lon="0.695614">
        <ele>600.475</ele>
        <time>2018-11-24T10:08:38Z</time>
      </trkpt>
      <trkpt lat="42.172017" lon="0.695653">
        <ele>601.244</ele>
        <time>2018-11-24T10:08:39Z</time>
      </trkpt>
      <trkpt lat="42.172340" lon="0.695705">
        <ele>602.054</ele>
        <time>2018-11-24T10:08:40Z</time>
      </trkpt>
      <trkpt lat="42.172656" lon="0.695772">
        <ele>601.899</ele>
        <time>2018-11-24T10:08:41Z</time>
      </trkpt>
      <trkpt lat="42.172971" lon="0.695837">
        <ele>601.012</ele>
        <time>2018-11-24T10:08:42Z</time>
      </trkpt>
      <trkpt lat="42.173275" lon="0.695934">
        <ele>600.032</ele>
        <time>2018-11-24T10:08:43Z</time>
      </trkpt>
      <trkpt lat="42.173576" lon="0.696046">
        <ele>598.005</ele>
        <time>2018-11-24T10:08:44Z</time>
      </trkpt>
      <trkpt lat="42.173876" lon="0.696177">
        <ele>596.308</ele>
        <time>2018-11-24T10:08:45Z</time>
      </trkpt>
      <trkpt lat="42.174176" lon="0.696329">
        <ele>595.154</ele>
        <time>2018-11-24T10:08:46Z</time>
      </trkpt>
      <trkpt lat="42.174477" lon="0.696502">
        <ele>593.611</ele>
        <time>2018-11-24T10:08:47Z</time>
      </trkpt>
      <trkpt lat="42.174774" lon="0.696684">
        <ele>591.128</ele>
        <time>2018-11-24T10:08:48Z</time>
      </trkpt>
      <trkpt lat="42.175076" lon="0.696861">
        <ele>589.168</ele>
        <time>2018-11-24T10:08:49Z</time>
      </trkpt>
      <trkpt lat="42.175383" lon="0.697040">
        <ele>587.429</ele>
        <time>2018-11-24T10:08:50Z</time>
      </trkpt>
      <trkpt lat="42.175691" lon="0.697219">
        <ele>585.068</ele>
        <time>2018-11-24T10:08:51Z</time>
      </trkpt>
      <trkpt lat="42.176000" lon="0.697401">
        <ele>583.118</ele>
        <time>2018-11-24T10:08:52Z</time>
      </trkpt>
      <trkpt lat="42.176311" lon="0.697585">
        <ele>580.823</ele>
        <time>2018-11-24T10:08:53Z</time>
      </trkpt>
      <trkpt lat="42.176623" lon="0.697763">
        <ele>578.928</ele>
        <time>2018-11-24T10:08:54Z</time>
      </trkpt>
      <trkpt lat="42.176933" lon="0.697941">
        <ele>577.289</ele>
        <time>2018-11-24T10:08:55Z</time>
      </trkpt>
      <trkpt lat="42.177243" lon="0.698114">
        <ele>576.017</ele>
        <time>2018-11-24T10:08:56Z</time>
      </trkpt>
      <trkpt lat="42.177554" lon="0.698279">
        <ele>574.908</ele>
        <time>2018-11-24T10:08:57Z</time>
      </trkpt>
      <trkpt lat="42.177866" lon="0.698433">
        <ele>574.225</ele>
        <time>2018-11-24T10:08:58Z</time>
      </trkpt>
      <trkpt lat="42.178184" lon="0.698580">
        <ele>574.262</ele>
        <time>2018-11-24T10:08:59Z</time>
      </trkpt>
      <trkpt lat="42.178503" lon="0.698723">
        <ele>574.239</ele>
        <time>2018-11-24T10:09:00Z</time>
      </trkpt>
      <trkpt lat="42.178827" lon="0.698856">
        <ele>574.659</ele>
        <time>2018-11-24T10:09:01Z</time>
      </trkpt>
      <trkpt lat="42.179155" lon="0.698986">
        <ele>574.980</ele>
        <time>2018-11-24T10:09:02Z</time>
      </trkpt>
      <trkpt lat="42.179489" lon="0.699109">
        <ele>575.019</ele>
        <time>2018-11-24T10:09:03Z</time>
      </trkpt>
      <trkpt lat="42.179826" lon="0.699226">
        <ele>575.399</ele>
        <time>2018-11-24T10:09:04Z</time>
      </trkpt>
      <trkpt lat="42.180168" lon="0.699338">
        <ele>575.994</ele>
        <time>2018-11-24T10:09:05Z</time>
      </trkpt>
      <trkpt lat="42.180513" lon="0.699452">
        <ele>576.244</ele>
        <time>2018-11-24T10:09:06Z</time>
      </trkpt>
      <trkpt lat="42.180862" lon="0.699567">
        <ele>576.405</ele>
        <time>2018-11-24T10:09:07Z</time>
      </trkpt>
      <trkpt lat="42.181213" lon="0.699680">
        <ele>576.815</ele>
        <time>2018-11-24T10:09:08Z</time>
      </trkpt>
      <trkpt lat="42.181566" lon="0.699792">
        <ele>577.208</ele>
        <time>2018-11-24T10:09:09Z</time>
      </trkpt>
      <trkpt lat="42.181918" lon="0.699906">
        <ele>577.657</ele>
        <time>2018-11-24T10:09:10Z</time>
      </trkpt>
      <trkpt lat="42.182269" lon="0.700020">
        <ele>578.474</ele>
        <time>2018-11-24T10:09:11Z</time>
      </trkpt>
      <trkpt lat="42.182621" lon="0.700133">
        <ele>578.851</ele>
        <time>2018-11-24T10:09:12Z</time>
      </trkpt>
      <trkpt lat="42.182965" lon="0.700244">
        <ele>578.971</ele>
        <time>2018-11-24T10:09:13Z</time>
      </trkpt>
      <trkpt lat="42.183303" lon="0.700353">
        <ele>578.622</ele>
        <time>2018-11-24T10:09:14Z</time>
      </trkpt>
      <trkpt lat="42.183629" lon="0.700458">
        <ele>578.251</ele>
        <time>2018-11-24T10:09:15Z</time>
      </trkpt>
      <trkpt lat="42.183941" lon="0.700559">
        <ele>577.441</ele>
        <time>2018-11-24T10:09:16Z</time>
      </trkpt>
      <trkpt lat="42.184240" lon="0.700657">
        <ele>576.656</ele>
        <time>2018-11-24T10:09:17Z</time>
      </trkpt>
      <trkpt lat="42.184533" lon="0.700751">
        <ele>575.918</ele>
        <time>2018-11-24T10:09:18Z</time>
      </trkpt>
      <trkpt lat="42.184820" lon="0.700842">
        <ele>575.698</ele>
        <time>2018-11-24T10:09:19Z</time>
      </trkpt>
      <trkpt lat="42.185102" lon="0.700936">
        <ele>575.617</ele>
        <time>2018-11-24T10:09:20Z</time>
      </trkpt>
      <trkpt lat="42.185374" lon="0.701025">
        <ele>575.608</ele>
        <time>2018-11-24T10:09:21Z</time>
      </trkpt>
      <trkpt lat="42.185628" lon="0.701109">
        <ele>575.364</ele>
        <time>2018-11-24T10:09:22Z</time>
      </trkpt>
      <trkpt lat="42.185872" lon="0.701190">
        <ele>575.271</ele>
        <time>2018-11-24T10:09:23Z</time>
      </trkpt>
      <trkpt lat="42.186117" lon="0.701263">
        <ele>575.768</ele>
        <time>2018-11-24T10:09:24Z</time>
      </trkpt>
      <trkpt lat="42.186369" lon="0.701310">
        <ele>576.398</ele>
        <time>2018-11-24T10:09:25Z</time>
      </trkpt>
      <trkpt lat="42.186629" lon="0.701318">
        <ele>576.729</ele>
        <time>2018-11-24T10:09:26Z</time>
      </trkpt>
      <trkpt lat="42.186893" lon="0.701289">
        <ele>577.228</ele>
        <time>2018-11-24T10:09:27Z</time>
      </trkpt>
      <trkpt lat="42.187158" lon="0.701230">
        <ele>577.498</ele>
        <time>2018-11-24T10:09:28Z</time>
      </trkpt>
      <trkpt lat="42.187422" lon="0.701145">
        <ele>577.243</ele>
        <time>2018-11-24T10:09:29Z</time>
      </trkpt>
      <trkpt lat="42.187689" lon="0.701053">
        <ele>577.092</ele>
        <time>2018-11-24T10:09:30Z</time>
      </trkpt>
      <trkpt lat="42.187960" lon="0.700977">
        <ele>576.673</ele>
        <time>2018-11-24T10:09:31Z</time>
      </trkpt>
      <trkpt lat="42.188233" lon="0.700938">
        <ele>576.620</ele>
        <time>2018-11-24T10:09:32Z</time>
      </trkpt>
      <trkpt lat="42.188506" lon="0.700906">
        <ele>576.908</ele>
        <time>2018-11-24T10:09:33Z</time>
      </trkpt>
      <trkpt lat="42.188773" lon="0.700953">
        <ele>577.772</ele>
        <time>2018-11-24T10:09:34Z</time>
      </trkpt>
      <trkpt lat="42.189032" lon="0.701024">
        <ele>578.799</ele>
        <time>2018-11-24T10:09:35Z</time>
      </trkpt>
      <trkpt lat="42.189284" lon="0.701111">
        <ele>580.116</ele>
        <time>2018-11-24T10:09:36Z</time>
      </trkpt>
      <trkpt lat="42.189535" lon="0.701190">
        <ele>581.236</ele>
        <time>2018-11-24T10:09:37Z</time>
      </trkpt>
      <trkpt lat="42.189783" lon="0.701281">
        <ele>582.597</ele>
        <time>2018-11-24T10:09:38Z</time>
      </trkpt>
      <trkpt lat="42.190026" lon="0.701386">
        <ele>583.526</ele>
        <time>2018-11-24T10:09:39Z</time>
      </trkpt>
      <trkpt lat="42.190263" lon="0.701521">
        <ele>584.626</ele>
        <time>2018-11-24T10:09:40Z</time>
      </trkpt>
      <trkpt lat="42.190483" lon="0.701693">
        <ele>585.241</ele>
        <time>2018-11-24T10:09:41Z</time>
      </trkpt>
      <trkpt lat="42.190680" lon="0.701900">
        <ele>584.637</ele>
        <time>2018-11-24T10:09:42Z</time>
      </trkpt>
      <trkpt lat="42.190867" lon="0.702130">
        <ele>586.449</ele>
        <time>2018-11-24T10:09:43Z</time>
      </trkpt>
      <trkpt lat="42.191053" lon="0.702365">
        <ele>587.113</ele>
        <time>2018-11-24T10:09:44Z</time>
      </trkpt>
      <trkpt lat="42.191241" lon="0.702604">
        <ele>587.408</ele>
        <time>2018-11-24T10:09:45Z</time>
      </trkpt>
      <trkpt lat="42.191431" lon="0.702847">
        <ele>587.456</ele>
        <time>2018-11-24T10:09:46Z</time>
      </trkpt>
      <trkpt lat="42.191623" lon="0.703092">
        <ele>587.653</ele>
        <time>2018-11-24T10:09:47Z</time>
      </trkpt>
      <trkpt lat="42.191815" lon="0.703338">
        <ele>587.680</ele>
        <time>2018-11-24T10:09:48Z</time>
      </trkpt>
      <trkpt lat="42.192007" lon="0.703585">
        <ele>587.780</ele>
        <time>2018-11-24T10:09:49Z</time>
      </trkpt>
      <trkpt lat="42.192200" lon="0.703830">
        <ele>587.761</ele>
        <time>2018-11-24T10:09:50Z</time>
      </trkpt>
      <trkpt lat="42.192394" lon="0.704076">
        <ele>587.610</ele>
        <time>2018-11-24T10:09:51Z</time>
      </trkpt>
      <trkpt lat="42.192592" lon="0.704320">
        <ele>587.720</ele>
        <time>2018-11-24T10:09:52Z</time>
      </trkpt>
      <trkpt lat="42.192801" lon="0.704551">
        <ele>588.015</ele>
        <time>2018-11-24T10:09:53Z</time>
      </trkpt>
      <trkpt lat="42.193030" lon="0.704760">
        <ele>588.234</ele>
        <time>2018-11-24T10:09:54Z</time>
      </trkpt>
      <trkpt lat="42.193275" lon="0.704945">
        <ele>588.355</ele>
        <time>2018-11-24T10:09:55Z</time>
      </trkpt>
      <trkpt lat="42.193530" lon="0.705118">
        <ele>588.310</ele>
        <time>2018-11-24T10:09:56Z</time>
      </trkpt>
      <trkpt lat="42.193789" lon="0.705289">
        <ele>588.108</ele>
        <time>2018-11-24T10:09:57Z</time>
      </trkpt>
      <trkpt lat="42.194043" lon="0.705459">
        <ele>587.546</ele>
        <time>2018-11-24T10:09:58Z</time>
      </trkpt>
      <trkpt lat="42.194293" lon="0.705627">
        <ele>587.193</ele>
        <time>2018-11-24T10:09:59Z</time>
      </trkpt>
      <trkpt lat="42.194541" lon="0.705793">
        <ele>586.970</ele>
        <time>2018-11-24T10:10:00Z</time>
      </trkpt>
      <trkpt lat="42.194789" lon="0.705956">
        <ele>587.160</ele>
        <time>2018-11-24T10:10:01Z</time>
      </trkpt>
      <trkpt lat="42.195041" lon="0.706115">
        <ele>587.381</ele>
        <time>2018-11-24T10:10:02Z</time>
      </trkpt>
      <trkpt lat="42.195297" lon="0.706270">
        <ele>587.680</ele>
        <time>2018-11-24T10:10:03Z</time>
      </trkpt>
      <trkpt lat="42.195558" lon="0.706415">
        <ele>588.050</ele>
        <time>2018-11-24T10:10:04Z</time>
      </trkpt>
      <trkpt lat="42.195824" lon="0.706549">
        <ele>588.325</ele>
        <time>2018-11-24T10:10:05Z</time>
      </trkpt>
      <trkpt lat="42.196097" lon="0.706670">
        <ele>588.693</ele>
        <time>2018-11-24T10:10:06Z</time>
      </trkpt>
      <trkpt lat="42.196373" lon="0.706791">
        <ele>588.965</ele>
        <time>2018-11-24T10:10:07Z</time>
      </trkpt>
      <trkpt lat="42.196652" lon="0.706915">
        <ele>589.421</ele>
        <time>2018-11-24T10:10:08Z</time>
      </trkpt>
      <trkpt lat="42.196934" lon="0.707039">
        <ele>589.908</ele>
        <time>2018-11-24T10:10:09Z</time>
      </trkpt>
      <trkpt lat="42.197218" lon="0.707165">
        <ele>590.452</ele>
        <time>2018-11-24T10:10:10Z</time>
      </trkpt>
      <trkpt lat="42.197502" lon="0.707292">
        <ele>590.719</ele>
        <time>2018-11-24T10:10:11Z</time>
      </trkpt>
      <trkpt lat="42.197783" lon="0.707417">
        <ele>591.026</ele>
        <time>2018-11-24T10:10:12Z</time>
      </trkpt>
      <trkpt lat="42.198059" lon="0.707538">
        <ele>591.036</ele>
        <time>2018-11-24T10:10:13Z</time>
      </trkpt>
      <trkpt lat="42.198330" lon="0.707659">
        <ele>590.697</ele>
        <time>2018-11-24T10:10:14Z</time>
      </trkpt>
      <trkpt lat="42.198599" lon="0.707779">
        <ele>590.466</ele>
        <time>2018-11-24T10:10:15Z</time>
      </trkpt>
      <trkpt lat="42.198869" lon="0.707896">
        <ele>590.316</ele>
        <time>2018-11-24T10:10:16Z</time>
      </trkpt>
      <trkpt lat="42.199141" lon="0.708003">
        <ele>590.411</ele>
        <time>2018-11-24T10:10:17Z</time>
      </trkpt>
      <trkpt lat="42.199417" lon="0.708091">
        <ele>590.648</ele>
        <time>2018-11-24T10:10:18Z</time>
      </trkpt>
      <trkpt lat="42.199698" lon="0.708150">
        <ele>590.861</ele>
        <time>2018-11-24T10:10:19Z</time>
      </trkpt>
      <trkpt lat="42.199981" lon="0.708175">
        <ele>591.017</ele>
        <time>2018-11-24T10:10:20Z</time>
      </trkpt>
      <trkpt lat="42.200269" lon="0.708172">
        <ele>590.808</ele>
        <time>2018-11-24T10:10:21Z</time>
      </trkpt>
      <trkpt lat="42.200558" lon="0.708138">
        <ele>590.697</ele>
        <time>2018-11-24T10:10:22Z</time>
      </trkpt>
      <trkpt lat="42.200849" lon="0.708081">
        <ele>590.284</ele>
        <time>2018-11-24T10:10:23Z</time>
      </trkpt>
      <trkpt lat="42.201138" lon="0.707992">
        <ele>589.261</ele>
        <time>2018-11-24T10:10:24Z</time>
      </trkpt>
      <trkpt lat="42.201423" lon="0.707875">
        <ele>588.651</ele>
        <time>2018-11-24T10:10:25Z</time>
      </trkpt>
      <trkpt lat="42.201705" lon="0.707745">
        <ele>588.132</ele>
        <time>2018-11-24T10:10:26Z</time>
      </trkpt>
      <trkpt lat="42.201985" lon="0.707612">
        <ele>588.091</ele>
        <time>2018-11-24T10:10:27Z</time>
      </trkpt>
      <trkpt lat="42.202265" lon="0.707480">
        <ele>587.941</ele>
        <time>2018-11-24T10:10:28Z</time>
      </trkpt>
      <trkpt lat="42.202545" lon="0.707346">
        <ele>588.256</ele>
        <time>2018-11-24T10:10:29Z</time>
      </trkpt>
      <trkpt lat="42.202829" lon="0.707230">
        <ele>588.531</ele>
        <time>2018-11-24T10:10:30Z</time>
      </trkpt>
      <trkpt lat="42.203121" lon="0.707135">
        <ele>588.761</ele>
        <time>2018-11-24T10:10:31Z</time>
      </trkpt>
      <trkpt lat="42.203420" lon="0.707069">
        <ele>589.007</ele>
        <time>2018-11-24T10:10:32Z</time>
      </trkpt>
      <trkpt lat="42.203716" lon="0.707013">
        <ele>589.508</ele>
        <time>2018-11-24T10:10:33Z</time>
      </trkpt>
      <trkpt lat="42.204011" lon="0.707008">
        <ele>590.046</ele>
        <time>2018-11-24T10:10:34Z</time>
      </trkpt>
      <trkpt lat="42.204300" lon="0.707040">
        <ele>591.143</ele>
        <time>2018-11-24T10:10:35Z</time>
      </trkpt>
      <trkpt lat="42.204573" lon="0.707113">
        <ele>592.190</ele>
        <time>2018-11-24T10:10:36Z</time>
      </trkpt>
      <trkpt lat="42.204833" lon="0.707233">
        <ele>593.330</ele>
        <time>2018-11-24T10:10:37Z</time>
      </trkpt>
      <trkpt lat="42.205084" lon="0.707375">
        <ele>594.221</ele>
        <time>2018-11-24T10:10:38Z</time>
      </trkpt>
      <trkpt lat="42.205326" lon="0.707543">
        <ele>594.940</ele>
        <time>2018-11-24T10:10:39Z</time>
      </trkpt>
      <trkpt lat="42.205565" lon="0.707730">
        <ele>595.290</ele>
        <time>2018-11-24T10:10:40Z</time>
      </trkpt>
      <trkpt lat="42.205804" lon="0.707904">
        <ele>595.825</ele>
        <time>2018-11-24T10:10:41Z</time>
      </trkpt>
      <trkpt lat="42.206044" lon="0.708090">
        <ele>596.122</ele>
        <time>2018-11-24T10:10:42Z</time>
      </trkpt>
      <trkpt lat="42.206291" lon="0.708254">
        <ele>596.962</ele>
        <time>2018-11-24T10:10:43Z</time>
      </trkpt>
      <trkpt lat="42.206551" lon="0.708372">
        <ele>597.108</ele>
        <time>2018-11-24T10:10:44Z</time>
      </trkpt>
      <trkpt lat="42.206805" lon="0.708505">
        <ele>597.108</ele>
        <time>2018-11-24T10:10:45Z</time>
      </trkpt>
      <trkpt lat="42.207044" lon="0.708664">
        <ele>597.225</ele>
        <time>2018-11-24T10:10:46Z</time>
      </trkpt>
      <trkpt lat="42.207282" lon="0.708816">
        <ele>597.152</ele>
        <time>2018-11-24T10:10:47Z</time>
      </trkpt>
      <trkpt lat="42.207496" lon="0.709020">
        <ele>597.439</ele>
        <time>2018-11-24T10:10:48Z</time>
      </trkpt>
      <trkpt lat="42.207695" lon="0.709249">
        <ele>597.919</ele>
        <time>2018-11-24T10:10:49Z</time>
      </trkpt>
      <trkpt lat="42.207881" lon="0.709502">
        <ele>598.320</ele>
        <time>2018-11-24T10:10:50Z</time>
      </trkpt>
      <trkpt lat="42.208064" lon="0.709764">
        <ele>598.859</ele>
        <time>2018-11-24T10:10:51Z</time>
      </trkpt>
      <trkpt lat="42.208242" lon="0.710031">
        <ele>599.469</ele>
        <time>2018-11-24T10:10:52Z</time>
      </trkpt>
      <trkpt lat="42.208425" lon="0.710299">
        <ele>599.614</ele>
        <time>2018-11-24T10:10:53Z</time>
      </trkpt>
      <trkpt lat="42.208610" lon="0.710567">
        <ele>599.955</ele>
        <time>2018-11-24T10:10:54Z</time>
      </trkpt>
      <trkpt lat="42.208801" lon="0.710831">
        <ele>599.707</ele>
        <time>2018-11-24T10:10:55Z</time>
      </trkpt>
      <trkpt lat="42.208999" lon="0.711087">
        <ele>599.517</ele>
        <time>2018-11-24T10:10:56Z</time>
      </trkpt>
      <trkpt lat="42.209204" lon="0.711336">
        <ele>599.208</ele>
        <time>2018-11-24T10:10:57Z</time>
      </trkpt>
      <trkpt lat="42.209416" lon="0.711567">
        <ele>599.288</ele>
        <time>2018-11-24T10:10:58Z</time>
      </trkpt>
      <trkpt lat="42.209637" lon="0.711783">
        <ele>599.425</ele>
        <time>2018-11-24T10:10:59Z</time>
      </trkpt>
      <trkpt lat="42.209868" lon="0.711979">
        <ele>599.642</ele>
        <time>2018-11-24T10:11:00Z</time>
      </trkpt>
      <trkpt lat="42.210108" lon="0.712153">
        <ele>599.762</ele>
        <time>2018-11-24T10:11:01Z</time>
      </trkpt>
      <trkpt lat="42.210358" lon="0.712305">
        <ele>599.733</ele>
        <time>2018-11-24T10:11:02Z</time>
      </trkpt>
      <trkpt lat="42.210616" lon="0.712434">
        <ele>599.452</ele>
        <time>2018-11-24T10:11:03Z</time>
      </trkpt>
      <trkpt lat="42.210882" lon="0.712531">
        <ele>599.562</ele>
        <time>2018-11-24T10:11:04Z</time>
      </trkpt>
      <trkpt lat="42.211155" lon="0.712596">
        <ele>599.727</ele>
        <time>2018-11-24T10:11:05Z</time>
      </trkpt>
      <trkpt lat="42.211431" lon="0.712639">
        <ele>599.821</ele>
        <time>2018-11-24T10:11:06Z</time>
      </trkpt>
      <trkpt lat="42.211709" lon="0.712659">
        <ele>599.741</ele>
        <time>2018-11-24T10:11:07Z</time>
      </trkpt>
      <trkpt lat="42.211990" lon="0.712660">
        <ele>599.705</ele>
        <time>2018-11-24T10:11:08Z</time>
      </trkpt>
      <trkpt lat="42.212270" lon="0.712642">
        <ele>599.808</ele>
        <time>2018-11-24T10:11:09Z</time>
      </trkpt>
      <trkpt lat="42.212553" lon="0.712606">
        <ele>600.125</ele>
        <time>2018-11-24T10:11:10Z</time>
      </trkpt>
      <trkpt lat="42.212838" lon="0.712562">
        <ele>600.752</ele>
        <time>2018-11-24T10:11:11Z</time>
      </trkpt>
      <trkpt lat="42.213128" lon="0.712510">
        <ele>601.239</ele>
        <time>2018-11-24T10:11:12Z</time>
      </trkpt>
      <trkpt lat="42.213422" lon="0.712448">
        <ele>601.889</ele>
        <time>2018-11-24T10:11:13Z</time>
      </trkpt>
      <trkpt lat="42.213720" lon="0.712382">
        <ele>602.740</ele>
        <time>2018-11-24T10:11:14Z</time>
      </trkpt>
      <trkpt lat="42.214022" lon="0.712323">
        <ele>603.679</ele>
        <time>2018-11-24T10:11:15Z</time>
      </trkpt>
      <trkpt lat="42.214328" lon="0.712278">
        <ele>604.529</ele>
        <time>2018-11-24T10:11:16Z</time>
      </trkpt>
      <trkpt lat="42.214638" lon="0.712247">
        <ele>605.674</ele>
        <time>2018-11-24T10:11:17Z</time>
      </trkpt>
      <trkpt lat="42.214952" lon="0.712237">
        <ele>606.524</ele>
        <time>2018-11-24T10:11:18Z</time>
      </trkpt>
      <trkpt lat="42.215267" lon="0.712253">
        <ele>607.404</ele>
        <time>2018-11-24T10:11:19Z</time>
      </trkpt>
      <trkpt lat="42.215581" lon="0.712296">
        <ele>608.114</ele>
        <time>2018-11-24T10:11:20Z</time>
      </trkpt>
      <trkpt lat="42.215891" lon="0.712362">
        <ele>609.108</ele>
        <time>2018-11-24T10:11:21Z</time>
      </trkpt>
      <trkpt lat="42.216197" lon="0.712450">
        <ele>609.895</ele>
        <time>2018-11-24T10:11:22Z</time>
      </trkpt>
      <trkpt lat="42.216499" lon="0.712556">
        <ele>610.932</ele>
        <time>2018-11-24T10:11:23Z</time>
      </trkpt>
      <trkpt lat="42.216796" lon="0.712682">
        <ele>611.519</ele>
        <time>2018-11-24T10:11:24Z</time>
      </trkpt>
      <trkpt lat="42.217088" lon="0.712822">
        <ele>612.569</ele>
        <time>2018-11-24T10:11:25Z</time>
      </trkpt>
      <trkpt lat="42.217377" lon="0.712961">
        <ele>613.440</ele>
        <time>2018-11-24T10:11:26Z</time>
      </trkpt>
      <trkpt lat="42.217667" lon="0.713089">
        <ele>613.939</ele>
        <time>2018-11-24T10:11:27Z</time>
      </trkpt>
      <trkpt lat="42.217957" lon="0.713203">
        <ele>614.639</ele>
        <time>2018-11-24T10:11:28Z</time>
      </trkpt>
      <trkpt lat="42.218249" lon="0.713307">
        <ele>615.044</ele>
        <time>2018-11-24T10:11:29Z</time>
      </trkpt>
      <trkpt lat="42.218543" lon="0.713375">
        <ele>615.244</ele>
        <time>2018-11-24T10:11:30Z</time>
      </trkpt>
      <trkpt lat="42.218842" lon="0.713397">
        <ele>615.505</ele>
        <time>2018-11-24T10:11:31Z</time>
      </trkpt>
      <trkpt lat="42.219151" lon="0.713390">
        <ele>615.515</ele>
        <time>2018-11-24T10:11:32Z</time>
      </trkpt>
      <trkpt lat="42.219460" lon="0.713342">
        <ele>615.608</ele>
        <time>2018-11-24T10:11:33Z</time>
      </trkpt>
      <trkpt lat="42.219765" lon="0.713266">
        <ele>615.727</ele>
        <time>2018-11-24T10:11:34Z</time>
      </trkpt>
      <trkpt lat="42.220071" lon="0.713171">
        <ele>615.784</ele>
        <time>2018-11-24T10:11:35Z</time>
      </trkpt>
      <trkpt lat="42.220375" lon="0.713053">
        <ele>615.361</ele>
        <time>2018-11-24T10:11:36Z</time>
      </trkpt>
      <trkpt lat="42.220677" lon="0.712930">
        <ele>614.691</ele>
        <time>2018-11-24T10:11:37Z</time>
      </trkpt>
      <trkpt lat="42.220982" lon="0.712818">
        <ele>614.052</ele>
        <time>2018-11-24T10:11:38Z</time>
      </trkpt>
      <trkpt lat="42.221291" lon="0.712731">
        <ele>613.781</ele>
        <time>2018-11-24T10:11:39Z</time>
      </trkpt>
      <trkpt lat="42.221604" lon="0.712668">
        <ele>613.761</ele>
        <time>2018-11-24T10:11:40Z</time>
      </trkpt>
      <trkpt lat="42.221917" lon="0.712640">
        <ele>614.236</ele>
        <time>2018-11-24T10:11:41Z</time>
      </trkpt>
      <trkpt lat="42.222232" lon="0.712621">
        <ele>614.468</ele>
        <time>2018-11-24T10:11:42Z</time>
      </trkpt>
      <trkpt lat="42.222542" lon="0.712686">
        <ele>614.542</ele>
        <time>2018-11-24T10:11:43Z</time>
      </trkpt>
      <trkpt lat="42.222849" lon="0.712777">
        <ele>615.526</ele>
        <time>2018-11-24T10:11:44Z</time>
      </trkpt>
      <trkpt lat="42.223144" lon="0.712896">
        <ele>616.508</ele>
        <time>2018-11-24T10:11:45Z</time>
      </trkpt>
      <trkpt lat="42.223430" lon="0.713050">
        <ele>617.619</ele>
        <time>2018-11-24T10:11:46Z</time>
      </trkpt>
      <trkpt lat="42.223701" lon="0.713224">
        <ele>618.696</ele>
        <time>2018-11-24T10:11:47Z</time>
      </trkpt>
      <trkpt lat="42.223968" lon="0.713395">
        <ele>619.523</ele>
        <time>2018-11-24T10:11:48Z</time>
      </trkpt>
      <trkpt lat="42.224235" lon="0.713570">
        <ele>620.723</ele>
        <time>2018-11-24T10:11:49Z</time>
      </trkpt>
      <trkpt lat="42.224505" lon="0.713745">
        <ele>621.724</ele>
        <time>2018-11-24T10:11:50Z</time>
      </trkpt>
      <trkpt lat="42.224780" lon="0.713927">
        <ele>622.473</ele>
        <time>2018-11-24T10:11:51Z</time>
      </trkpt>
      <trkpt lat="42.225062" lon="0.714103">
        <ele>622.863</ele>
        <time>2018-11-24T10:11:52Z</time>
      </trkpt>
      <trkpt lat="42.225341" lon="0.714259">
        <ele>622.818</ele>
        <time>2018-11-24T10:11:53Z</time>
      </trkpt>
      <trkpt lat="42.225621" lon="0.714403">
        <ele>622.678</ele>
        <time>2018-11-24T10:11:54Z</time>
      </trkpt>
      <trkpt lat="42.225903" lon="0.714535">
        <ele>622.533</ele>
        <time>2018-11-24T10:11:55Z</time>
      </trkpt>
      <trkpt lat="42.226190" lon="0.714654">
        <ele>622.526</ele>
        <time>2018-11-24T10:11:56Z</time>
      </trkpt>
      <trkpt lat="42.226481" lon="0.714753">
        <ele>622.108</ele>
        <time>2018-11-24T10:11:57Z</time>
      </trkpt>
      <trkpt lat="42.226777" lon="0.714836">
        <ele>621.910</ele>
        <time>2018-11-24T10:11:58Z</time>
      </trkpt>
      <trkpt lat="42.227076" lon="0.714902">
        <ele>621.537</ele>
        <time>2018-11-24T10:11:59Z</time>
      </trkpt>
      <trkpt lat="42.227381" lon="0.714950">
        <ele>620.844</ele>
        <time>2018-11-24T10:12:00Z</time>
      </trkpt>
      <trkpt lat="42.227692" lon="0.714983">
        <ele>620.434</ele>
        <time>2018-11-24T10:12:01Z</time>
      </trkpt>
      <trkpt lat="42.228007" lon="0.715003">
        <ele>620.325</ele>
        <time>2018-11-24T10:12:02Z</time>
      </trkpt>
      <trkpt lat="42.228318" lon="0.715013">
        <ele>620.394</ele>
        <time>2018-11-24T10:12:03Z</time>
      </trkpt>
      <trkpt lat="42.228624" lon="0.715016">
        <ele>620.764</ele>
        <time>2018-11-24T10:12:04Z</time>
      </trkpt>
      <trkpt lat="42.228931" lon="0.715016">
        <ele>621.139</ele>
        <time>2018-11-24T10:12:05Z</time>
      </trkpt>
      <trkpt lat="42.229239" lon="0.715018">
        <ele>621.683</ele>
        <time>2018-11-24T10:12:06Z</time>
      </trkpt>
      <trkpt lat="42.229549" lon="0.715024">
        <ele>622.325</ele>
        <time>2018-11-24T10:12:07Z</time>
      </trkpt>
      <trkpt lat="42.229861" lon="0.715029">
        <ele>623.117</ele>
        <time>2018-11-24T10:12:08Z</time>
      </trkpt>
      <trkpt lat="42.230180" lon="0.715036">
        <ele>624.208</ele>
        <time>2018-11-24T10:12:09Z</time>
      </trkpt>
      <trkpt lat="42.230503" lon="0.715047">
        <ele>625.081</ele>
        <time>2018-11-24T10:12:10Z</time>
      </trkpt>
      <trkpt lat="42.230828" lon="0.715061">
        <ele>625.988</ele>
        <time>2018-11-24T10:12:11Z</time>
      </trkpt>
      <trkpt lat="42.231156" lon="0.715077">
        <ele>626.745</ele>
        <time>2018-11-24T10:12:12Z</time>
      </trkpt>
      <trkpt lat="42.231481" lon="0.715093">
        <ele>627.435</ele>
        <time>2018-11-24T10:12:13Z</time>
      </trkpt>
      <trkpt lat="42.231799" lon="0.715110">
        <ele>628.056</ele>
        <time>2018-11-24T10:12:14Z</time>
      </trkpt>
      <trkpt lat="42.232114" lon="0.715126">
        <ele>628.785</ele>
        <time>2018-11-24T10:12:15Z</time>
      </trkpt>
      <trkpt lat="42.232430" lon="0.715139">
        <ele>629.235</ele>
        <time>2018-11-24T10:12:16Z</time>
      </trkpt>
      <trkpt lat="42.232745" lon="0.715152">
        <ele>629.510</ele>
        <time>2018-11-24T10:12:17Z</time>
      </trkpt>
      <trkpt lat="42.233056" lon="0.715171">
        <ele>629.756</ele>
        <time>2018-11-24T10:12:18Z</time>
      </trkpt>
      <trkpt lat="42.233365" lon="0.715207">
        <ele>630.059</ele>
        <time>2018-11-24T10:12:19Z</time>
      </trkpt>
      <trkpt lat="42.233676" lon="0.715265">
        <ele>630.114</ele>
        <time>2018-11-24T10:12:20Z</time>
      </trkpt>
      <trkpt lat="42.233988" lon="0.715346">
        <ele>630.508</ele>
        <time>2018-11-24T10:12:21Z</time>
      </trkpt>
      <trkpt lat="42.234302" lon="0.715446">
        <ele>630.678</ele>
        <time>2018-11-24T10:12:22Z</time>
      </trkpt>
      <trkpt lat="42.234614" lon="0.715552">
        <ele>630.585</ele>
        <time>2018-11-24T10:12:23Z</time>
      </trkpt>
      <trkpt lat="42.234924" lon="0.715657">
        <ele>630.282</ele>
        <time>2018-11-24T10:12:24Z</time>
      </trkpt>
      <trkpt lat="42.235234" lon="0.715772">
        <ele>630.322</ele>
        <time>2018-11-24T10:12:25Z</time>
      </trkpt>
      <trkpt lat="42.235539" lon="0.715908">
        <ele>630.743</ele>
        <time>2018-11-24T10:12:26Z</time>
      </trkpt>
      <trkpt lat="42.235836" lon="0.716071">
        <ele>631.362</ele>
        <time>2018-11-24T10:12:27Z</time>
      </trkpt>
      <trkpt lat="42.236125" lon="0.716255">
        <ele>632.272</ele>
        <time>2018-11-24T10:12:28Z</time>
      </trkpt>
      <trkpt lat="42.236407" lon="0.716455">
        <ele>633.357</ele>
        <time>2018-11-24T10:12:29Z</time>
      </trkpt>
      <trkpt lat="42.236686" lon="0.716664">
        <ele>634.432</ele>
        <time>2018-11-24T10:12:30Z</time>
      </trkpt>
      <trkpt lat="42.236966" lon="0.716875">
        <ele>635.792</ele>
        <time>2018-11-24T10:12:31Z</time>
      </trkpt>
      <trkpt lat="42.237246" lon="0.717089">
        <ele>636.311</ele>
        <time>2018-11-24T10:12:32Z</time>
      </trkpt>
      <trkpt lat="42.237527" lon="0.717305">
        <ele>636.608</ele>
        <time>2018-11-24T10:12:33Z</time>
      </trkpt>
      <trkpt lat="42.237810" lon="0.717521">
        <ele>636.976</ele>
        <time>2018-11-24T10:12:34Z</time>
      </trkpt>
      <trkpt lat="42.238094" lon="0.717736">
        <ele>637.363</ele>
        <time>2018-11-24T10:12:35Z</time>
      </trkpt>
      <trkpt lat="42.238379" lon="0.717950">
        <ele>637.480</ele>
        <time>2018-11-24T10:12:36Z</time>
      </trkpt>
      <trkpt lat="42.238661" lon="0.718163">
        <ele>637.460</ele>
        <time>2018-11-24T10:12:37Z</time>
      </trkpt>
      <trkpt lat="42.238942" lon="0.718376">
        <ele>637.421</ele>
        <time>2018-11-24T10:12:38Z</time>
      </trkpt>
      <trkpt lat="42.239223" lon="0.718590">
        <ele>637.350</ele>
        <time>2018-11-24T10:12:39Z</time>
      </trkpt>
      <trkpt lat="42.239504" lon="0.718804">
        <ele>637.590</ele>
        <time>2018-11-24T10:12:40Z</time>
      </trkpt>
      <trkpt lat="42.239784" lon="0.719017">
        <ele>637.985</ele>
        <time>2018-11-24T10:12:41Z</time>
      </trkpt>
      <trkpt lat="42.240064" lon="0.719232">
        <ele>638.067</ele>
        <time>2018-11-24T10:12:42Z</time>
      </trkpt>
      <trkpt lat="42.240347" lon="0.719448">
        <ele>638.881</ele>
        <time>2018-11-24T10:12:43Z</time>
      </trkpt>
      <trkpt lat="42.240633" lon="0.719666">
        <ele>639.219</ele>
        <time>2018-11-24T10:12:44Z</time>
      </trkpt>
      <trkpt lat="42.240921" lon="0.719885">
        <ele>639.908</ele>
        <time>2018-11-24T10:12:45Z</time>
      </trkpt>
      <trkpt lat="42.241211" lon="0.720105">
        <ele>640.359</ele>
        <time>2018-11-24T10:12:46Z</time>
      </trkpt>
      <trkpt lat="42.241504" lon="0.720326">
        <ele>641.026</ele>
        <time>2018-11-24T10:12:47Z</time>
      </trkpt>
      <trkpt lat="42.241801" lon="0.720549">
        <ele>641.613</ele>
        <time>2018-11-24T10:12:48Z</time>
      </trkpt>
      <trkpt lat="42.242100" lon="0.720776">
        <ele>642.113</ele>
        <time>2018-11-24T10:12:49Z</time>
      </trkpt>
      <trkpt lat="42.242401" lon="0.721010">
        <ele>642.434</ele>
        <time>2018-11-24T10:12:50Z</time>
      </trkpt>
      <trkpt lat="42.242703" lon="0.721252">
        <ele>642.913</ele>
        <time>2018-11-24T10:12:51Z</time>
      </trkpt>
      <trkpt lat="42.243004" lon="0.721506">
        <ele>643.133</ele>
        <time>2018-11-24T10:12:52Z</time>
      </trkpt>
      <trkpt lat="42.243304" lon="0.721768">
        <ele>643.138</ele>
        <time>2018-11-24T10:12:53Z</time>
      </trkpt>
      <trkpt lat="42.243603" lon="0.722037">
        <ele>643.164</ele>
        <time>2018-11-24T10:12:54Z</time>
      </trkpt>
      <trkpt lat="42.243897" lon="0.722309">
        <ele>643.106</ele>
        <time>2018-11-24T10:12:55Z</time>
      </trkpt>
      <trkpt lat="42.244184" lon="0.722578">
        <ele>642.916</ele>
        <time>2018-11-24T10:12:56Z</time>
      </trkpt>
      <trkpt lat="42.244463" lon="0.722840">
        <ele>643.308</ele>
        <time>2018-11-24T10:12:57Z</time>
      </trkpt>
      <trkpt lat="42.244735" lon="0.723096">
        <ele>643.859</ele>
        <time>2018-11-24T10:12:58Z</time>
      </trkpt>
      <trkpt lat="42.245002" lon="0.723350">
        <ele>644.276</ele>
        <time>2018-11-24T10:12:59Z</time>
      </trkpt>
      <trkpt lat="42.245269" lon="0.723603">
        <ele>644.973</ele>
        <time>2018-11-24T10:13:00Z</time>
      </trkpt>
      <trkpt lat="42.245536" lon="0.723854">
        <ele>646.053</ele>
        <time>2018-11-24T10:13:01Z</time>
      </trkpt>
      <trkpt lat="42.245803" lon="0.724105">
        <ele>646.894</ele>
        <time>2018-11-24T10:13:02Z</time>
      </trkpt>
      <trkpt lat="42.246065" lon="0.724353">
        <ele>647.513</ele>
        <time>2018-11-24T10:13:03Z</time>
      </trkpt>
      <trkpt lat="42.246317" lon="0.724591">
        <ele>647.913</ele>
        <time>2018-11-24T10:13:04Z</time>
      </trkpt>
      <trkpt lat="42.246563" lon="0.724821">
        <ele>648.248</ele>
        <time>2018-11-24T10:13:05Z</time>
      </trkpt>
      <trkpt lat="42.246810" lon="0.725045">
        <ele>648.683</ele>
        <time>2018-11-24T10:13:06Z</time>
      </trkpt>
      <trkpt lat="42.247065" lon="0.725252">
        <ele>649.025</ele>
        <time>2018-11-24T10:13:07Z</time>
      </trkpt>
      <trkpt lat="42.247334" lon="0.725429">
        <ele>649.317</ele>
        <time>2018-11-24T10:13:08Z</time>
      </trkpt>
      <trkpt lat="42.247621" lon="0.725575">
        <ele>649.708</ele>
        <time>2018-11-24T10:13:09Z</time>
      </trkpt>
      <trkpt lat="42.247924" lon="0.725695">
        <ele>650.591</ele>
        <time>2018-11-24T10:13:10Z</time>
      </trkpt>
      <trkpt lat="42.248236" lon="0.725813">
        <ele>651.118</ele>
        <time>2018-11-24T10:13:11Z</time>
      </trkpt>
      <trkpt lat="42.248549" lon="0.725935">
        <ele>651.585</ele>
        <time>2018-11-24T10:13:12Z</time>
      </trkpt>
      <trkpt lat="42.248856" lon="0.726056">
        <ele>651.425</ele>
        <time>2018-11-24T10:13:13Z</time>
      </trkpt>
      <trkpt lat="42.249156" lon="0.726175">
        <ele>651.266</ele>
        <time>2018-11-24T10:13:14Z</time>
      </trkpt>
      <trkpt lat="42.249450" lon="0.726292">
        <ele>651.215</ele>
        <time>2018-11-24T10:13:15Z</time>
      </trkpt>
      <trkpt lat="42.249738" lon="0.726405">
        <ele>651.285</ele>
        <time>2018-11-24T10:13:16Z</time>
      </trkpt>
      <trkpt lat="42.250020" lon="0.726513">
        <ele>651.280</ele>
        <time>2018-11-24T10:13:17Z</time>
      </trkpt>
      <trkpt lat="42.250297" lon="0.726620">
        <ele>651.375</ele>
        <time>2018-11-24T10:13:18Z</time>
      </trkpt>
      <trkpt lat="42.250572" lon="0.726728">
        <ele>651.528</ele>
        <time>2018-11-24T10:13:19Z</time>
      </trkpt>
      <trkpt lat="42.250844" lon="0.726837">
        <ele>651.620</ele>
        <time>2018-11-24T10:13:20Z</time>
      </trkpt>
      <trkpt lat="42.251110" lon="0.726953">
        <ele>651.908</ele>
        <time>2018-11-24T10:13:21Z</time>
      </trkpt>
      <trkpt lat="42.251364" lon="0.727091">
        <ele>652.240</ele>
        <time>2018-11-24T10:13:22Z</time>
      </trkpt>
      <trkpt lat="42.251602" lon="0.727266">
        <ele>652.887</ele>
        <time>2018-11-24T10:13:23Z</time>
      </trkpt>
      <trkpt lat="42.251816" lon="0.727483">
        <ele>653.374</ele>
        <time>2018-11-24T10:13:24Z</time>
      </trkpt>
      <trkpt lat="42.252005" lon="0.727735">
        <ele>653.764</ele>
        <time>2018-11-24T10:13:25Z</time>
      </trkpt>
      <trkpt lat="42.252169" lon="0.728019">
        <ele>654.055</ele>
        <time>2018-11-24T10:13:26Z</time>
      </trkpt>
      <trkpt lat="42.252313" lon="0.728325">
        <ele>654.344</ele>
        <time>2018-11-24T10:13:27Z</time>
      </trkpt>
      <trkpt lat="42.252453" lon="0.728634">
        <ele>654.314</ele>
        <time>2018-11-24T10:13:28Z</time>
      </trkpt>
      <trkpt lat="42.252587" lon="0.728937">
        <ele>653.899</ele>
        <time>2018-11-24T10:13:29Z</time>
      </trkpt>
      <trkpt lat="42.252716" lon="0.729229">
        <ele>653.168</ele>
        <time>2018-11-24T10:13:30Z</time>
      </trkpt>
      <trkpt lat="42.252843" lon="0.729517">
        <ele>652.542</ele>
        <time>2018-11-24T10:13:31Z</time>
      </trkpt>
      <trkpt lat="42.252969" lon="0.729802">
        <ele>652.226</ele>
        <time>2018-11-24T10:13:32Z</time>
      </trkpt>
      <trkpt lat="42.253089" lon="0.730072">
        <ele>651.808</ele>
        <time>2018-11-24T10:13:33Z</time>
      </trkpt>
      <trkpt lat="42.253190" lon="0.730297">
        <ele>650.529</ele>
        <time>2018-11-24T10:13:34Z</time>
      </trkpt>
      <trkpt lat="42.253278" lon="0.730492">
        <ele>649.586</ele>
        <time>2018-11-24T10:13:35Z</time>
      </trkpt>
      <trkpt lat="42.253356" lon="0.730667">
        <ele>648.733</ele>
        <time>2018-11-24T10:13:36Z</time>
      </trkpt>
      <trkpt lat="42.253427" lon="0.730826">
        <ele>648.393</ele>
        <time>2018-11-24T10:13:37Z</time>
      </trkpt>
      <trkpt lat="42.253493" lon="0.730974">
        <ele>648.244</ele>
        <time>2018-11-24T10:13:38Z</time>
      </trkpt>
      <trkpt lat="42.253557" lon="0.731118">
        <ele>648.183</ele>
        <time>2018-11-24T10:13:39Z</time>
      </trkpt>
      <trkpt lat="42.253620" lon="0.731261">
        <ele>648.163</ele>
        <time>2018-11-24T10:13:40Z</time>
      </trkpt>
      <trkpt lat="42.253684" lon="0.731405">
        <ele>648.168</ele>
        <time>2018-11-24T10:13:41Z</time>
      </trkpt>
      <trkpt lat="42.253749" lon="0.731551">
        <ele>648.298</ele>
        <time>2018-11-24T10:13:42Z</time>
      </trkpt>
      <trkpt lat="42.253815" lon="0.731698">
        <ele>648.015</ele>
        <time>2018-11-24T10:13:43Z</time>
      </trkpt>
      <trkpt lat="42.253881" lon="0.731847">
        <ele>648.026</ele>
        <time>2018-11-24T10:13:44Z</time>
      </trkpt>
      <trkpt lat="42.253948" lon="0.731997">
        <ele>648.008</ele>
        <time>2018-11-24T10:13:45Z</time>
      </trkpt>
      <trkpt lat="42.254014" lon="0.732147">
        <ele>648.032</ele>
        <time>2018-11-24T10:13:46Z</time>
      </trkpt>
      <trkpt lat="42.254080" lon="0.732296">
        <ele>647.969</ele>
        <time>2018-11-24T10:13:47Z</time>
      </trkpt>
      <trkpt lat="42.254147" lon="0.732445">
        <ele>648.096</ele>
        <time>2018-11-24T10:13:48Z</time>
      </trkpt>
      <trkpt lat="42.254214" lon="0.732595">
        <ele>647.836</ele>
        <time>2018-11-24T10:13:49Z</time>
      </trkpt>
      <trkpt lat="42.254282" lon="0.732746">
        <ele>647.827</ele>
        <time>2018-11-24T10:13:50Z</time>
      </trkpt>
      <trkpt lat="42.254347" lon="0.732894">
        <ele>647.796</ele>
        <time>2018-11-24T10:13:51Z</time>
      </trkpt>
      <trkpt lat="42.254411" lon="0.733037">
        <ele>647.616</ele>
        <time>2018-11-24T10:13:52Z</time>
      </trkpt>
      <trkpt lat="42.254475" lon="0.733178">
        <ele>647.741</ele>
        <time>2018-11-24T10:13:53Z</time>
      </trkpt>
      <trkpt lat="42.254539" lon="0.733332">
        <ele>647.778</ele>
        <time>2018-11-24T10:13:54Z</time>
      </trkpt>
      <trkpt lat="42.254607" lon="0.733494">
        <ele>647.833</ele>
        <time>2018-11-24T10:13:55Z</time>
      </trkpt>
      <trkpt lat="42.254681" lon="0.733661">
        <ele>647.926</ele>
        <time>2018-11-24T10:13:56Z</time>
      </trkpt>
      <trkpt lat="42.254759" lon="0.733841">
        <ele>648.008</ele>
        <time>2018-11-24T10:13:57Z</time>
      </trkpt>
      <trkpt lat="42.254844" lon="0.734024">
        <ele>647.960</ele>
        <time>2018-11-24T10:13:58Z</time>
      </trkpt>
      <trkpt lat="42.254927" lon="0.734203">
        <ele>647.627</ele>
        <time>2018-11-24T10:13:59Z</time>
      </trkpt>
      <trkpt lat="42.255001" lon="0.734381">
        <ele>647.344</ele>
        <time>2018-11-24T10:14:00Z</time>
      </trkpt>
      <trkpt lat="42.255079" lon="0.734551">
        <ele>647.064</ele>
        <time>2018-11-24T10:14:01Z</time>
      </trkpt>
      <trkpt lat="42.255158" lon="0.734721">
        <ele>646.715</ele>
        <time>2018-11-24T10:14:02Z</time>
      </trkpt>
      <trkpt lat="42.255245" lon="0.734894">
        <ele>646.624</ele>
        <time>2018-11-24T10:14:03Z</time>
      </trkpt>
      <trkpt lat="42.255331" lon="0.735059">
        <ele>646.354</ele>
        <time>2018-11-24T10:14:04Z</time>
      </trkpt>
      <trkpt lat="42.255426" lon="0.735224">
        <ele>646.149</ele>
        <time>2018-11-24T10:14:05Z</time>
      </trkpt>
      <trkpt lat="42.255545" lon="0.735352">
        <ele>645.994</ele>
        <time>2018-11-24T10:14:06Z</time>
      </trkpt>
      <trkpt lat="42.255675" lon="0.735451">
        <ele>645.857</ele>
        <time>2018-11-24T10:14:07Z</time>
      </trkpt>
      <trkpt lat="42.255815" lon="0.735532">
        <ele>645.722</ele>
        <time>2018-11-24T10:14:08Z</time>
      </trkpt>
      <trkpt lat="42.255967" lon="0.735562">
        <ele>645.608</ele>
        <time>2018-11-24T10:14:09Z</time>
      </trkpt>
      <trkpt lat="42.256125" lon="0.735573">
        <ele>645.512</ele>
        <time>2018-11-24T10:14:10Z</time>
      </trkpt>
      <trkpt lat="42.256287" lon="0.735577">
        <ele>645.269</ele>
        <time>2018-11-24T10:14:11Z</time>
      </trkpt>
      <trkpt lat="42.256452" lon="0.735579">
        <ele>644.956</ele>
        <time>2018-11-24T10:14:12Z</time>
      </trkpt>
      <trkpt lat="42.256623" lon="0.735576">
        <ele>644.676</ele>
        <time>2018-11-24T10:14:13Z</time>
      </trkpt>
      <trkpt lat="42.256796" lon="0.735577">
        <ele>644.397</ele>
        <time>2018-11-24T10:14:14Z</time>
      </trkpt>
      <trkpt lat="42.256977" lon="0.735577">
        <ele>644.456</ele>
        <time>2018-11-24T10:14:15Z</time>
      </trkpt>
      <trkpt lat="42.257163" lon="0.735586">
        <ele>644.656</ele>
        <time>2018-11-24T10:14:16Z</time>
      </trkpt>
      <trkpt lat="42.257355" lon="0.735592">
        <ele>644.811</ele>
        <time>2018-11-24T10:14:17Z</time>
      </trkpt>
      <trkpt lat="42.257558" lon="0.735597">
        <ele>645.217</ele>
        <time>2018-11-24T10:14:18Z</time>
      </trkpt>
      <trkpt lat="42.257765" lon="0.735603">
        <ele>645.487</ele>
        <time>2018-11-24T10:14:19Z</time>
      </trkpt>
      <trkpt lat="42.257976" lon="0.735608">
        <ele>645.715</ele>
        <time>2018-11-24T10:14:20Z</time>
      </trkpt>
      <trkpt lat="42.258187" lon="0.735610">
        <ele>646.408</ele>
        <time>2018-11-24T10:14:21Z</time>
      </trkpt>
      <trkpt lat="42.258393" lon="0.735613">
        <ele>647.254</ele>
        <time>2018-11-24T10:14:22Z</time>
      </trkpt>
      <trkpt lat="42.258597" lon="0.735619">
        <ele>647.961</ele>
        <time>2018-11-24T10:14:23Z</time>
      </trkpt>
      <trkpt lat="42.258804" lon="0.735624">
        <ele>648.958</ele>
        <time>2018-11-24T10:14:24Z</time>
      </trkpt>
      <trkpt lat="42.259015" lon="0.735629">
        <ele>649.738</ele>
        <time>2018-11-24T10:14:25Z</time>
      </trkpt>
      <trkpt lat="42.259233" lon="0.735632">
        <ele>650.979</ele>
        <time>2018-11-24T10:14:26Z</time>
      </trkpt>
      <trkpt lat="42.259455" lon="0.735627">
        <ele>651.868</ele>
        <time>2018-11-24T10:14:27Z</time>
      </trkpt>
      <trkpt lat="42.259681" lon="0.735614">
        <ele>652.798</ele>
        <time>2018-11-24T10:14:28Z</time>
      </trkpt>
      <trkpt lat="42.259911" lon="0.735596">
        <ele>653.343</ele>
        <time>2018-11-24T10:14:29Z</time>
      </trkpt>
      <trkpt lat="42.260143" lon="0.735556">
        <ele>654.226</ele>
        <time>2018-11-24T10:14:30Z</time>
      </trkpt>
      <trkpt lat="42.260378" lon="0.735520">
        <ele>655.047</ele>
        <time>2018-11-24T10:14:31Z</time>
      </trkpt>
      <trkpt lat="42.260617" lon="0.735487">
        <ele>655.911</ele>
        <time>2018-11-24T10:14:32Z</time>
      </trkpt>
      <trkpt lat="42.260862" lon="0.735445">
        <ele>656.708</ele>
        <time>2018-11-24T10:14:33Z</time>
      </trkpt>
      <trkpt lat="42.261112" lon="0.735405">
        <ele>657.495</ele>
        <time>2018-11-24T10:14:34Z</time>
      </trkpt>
      <trkpt lat="42.261366" lon="0.735368">
        <ele>658.112</ele>
        <time>2018-11-24T10:14:35Z</time>
      </trkpt>
      <trkpt lat="42.261621" lon="0.735333">
        <ele>658.779</ele>
        <time>2018-11-24T10:14:36Z</time>
      </trkpt>
      <trkpt lat="42.261876" lon="0.735297">
        <ele>658.919</ele>
        <time>2018-11-24T10:14:37Z</time>
      </trkpt>
      <trkpt lat="42.262134" lon="0.735257">
        <ele>660.640</ele>
        <time>2018-11-24T10:14:38Z</time>
      </trkpt>
      <trkpt lat="42.262392" lon="0.735218">
        <ele>660.779</ele>
        <time>2018-11-24T10:14:39Z</time>
      </trkpt>
      <trkpt lat="42.262648" lon="0.735178">
        <ele>661.549</ele>
        <time>2018-11-24T10:14:40Z</time>
      </trkpt>
      <trkpt lat="42.262900" lon="0.735141">
        <ele>661.684</ele>
        <time>2018-11-24T10:14:41Z</time>
      </trkpt>
      <trkpt lat="42.263154" lon="0.735099">
        <ele>662.088</ele>
        <time>2018-11-24T10:14:42Z</time>
      </trkpt>
      <trkpt lat="42.263411" lon="0.735056">
        <ele>662.424</ele>
        <time>2018-11-24T10:14:43Z</time>
      </trkpt>
      <trkpt lat="42.263670" lon="0.735013">
        <ele>663.026</ele>
        <time>2018-11-24T10:14:44Z</time>
      </trkpt>
      <trkpt lat="42.263934" lon="0.734974">
        <ele>663.508</ele>
        <time>2018-11-24T10:14:45Z</time>
      </trkpt>
      <trkpt lat="42.264200" lon="0.734935">
        <ele>664.361</ele>
        <time>2018-11-24T10:14:46Z</time>
      </trkpt>
      <trkpt lat="42.264470" lon="0.734897">
        <ele>664.858</ele>
        <time>2018-11-24T10:14:47Z</time>
      </trkpt>
      <trkpt lat="42.264743" lon="0.734859">
        <ele>665.435</ele>
        <time>2018-11-24T10:14:48Z</time>
      </trkpt>
      <trkpt lat="42.265016" lon="0.734819">
        <ele>666.555</ele>
        <time>2018-11-24T10:14:49Z</time>
      </trkpt>
      <trkpt lat="42.265289" lon="0.734778">
        <ele>667.516</ele>
        <time>2018-11-24T10:14:50Z</time>
      </trkpt>
      <trkpt lat="42.265561" lon="0.734736">
        <ele>667.975</ele>
        <time>2018-11-24T10:14:51Z</time>
      </trkpt>
      <trkpt lat="42.265831" lon="0.734695">
        <ele>668.145</ele>
        <time>2018-11-24T10:14:52Z</time>
      </trkpt>
      <trkpt lat="42.266101" lon="0.734653">
        <ele>668.490</ele>
        <time>2018-11-24T10:14:53Z</time>
      </trkpt>
      <trkpt lat="42.266370" lon="0.734611">
        <ele>668.984</ele>
        <time>2018-11-24T10:14:54Z</time>
      </trkpt>
      <trkpt lat="42.266641" lon="0.734570">
        <ele>669.207</ele>
        <time>2018-11-24T10:14:55Z</time>
      </trkpt>
      <trkpt lat="42.266914" lon="0.734529">
        <ele>669.817</ele>
        <time>2018-11-24T10:14:56Z</time>
      </trkpt>
      <trkpt lat="42.267189" lon="0.734487">
        <ele>670.408</ele>
        <time>2018-11-24T10:14:57Z</time>
      </trkpt>
      <trkpt lat="42.267468" lon="0.734447">
        <ele>671.011</ele>
        <time>2018-11-24T10:14:58Z</time>
      </trkpt>
      <trkpt lat="42.267749" lon="0.734405">
        <ele>671.818</ele>
        <time>2018-11-24T10:14:59Z</time>
      </trkpt>
      <trkpt lat="42.268031" lon="0.734364">
        <ele>672.325</ele>
        <time>2018-11-24T10:15:00Z</time>
      </trkpt>
      <trkpt lat="42.268314" lon="0.734323">
        <ele>672.755</ele>
        <time>2018-11-24T10:15:01Z</time>
      </trkpt>
      <trkpt lat="42.268598" lon="0.734281">
        <ele>673.086</ele>
        <time>2018-11-24T10:15:02Z</time>
      </trkpt>
      <trkpt lat="42.268881" lon="0.734238">
        <ele>673.495</ele>
        <time>2018-11-24T10:15:03Z</time>
      </trkpt>
      <trkpt lat="42.269160" lon="0.734196">
        <ele>673.635</ele>
        <time>2018-11-24T10:15:04Z</time>
      </trkpt>
      <trkpt lat="42.269433" lon="0.734156">
        <ele>673.880</ele>
        <time>2018-11-24T10:15:05Z</time>
      </trkpt>
      <trkpt lat="42.269705" lon="0.734114">
        <ele>674.194</ele>
        <time>2018-11-24T10:15:06Z</time>
      </trkpt>
      <trkpt lat="42.269977" lon="0.734072">
        <ele>675.057</ele>
        <time>2018-11-24T10:15:07Z</time>
      </trkpt>
      <trkpt lat="42.270249" lon="0.734031">
        <ele>675.322</ele>
        <time>2018-11-24T10:15:08Z</time>
      </trkpt>
      <trkpt lat="42.270519" lon="0.733991">
        <ele>675.508</ele>
        <time>2018-11-24T10:15:09Z</time>
      </trkpt>
      <trkpt lat="42.270783" lon="0.733951">
        <ele>675.712</ele>
        <time>2018-11-24T10:15:10Z</time>
      </trkpt>
      <trkpt lat="42.271040" lon="0.733910">
        <ele>676.229</ele>
        <time>2018-11-24T10:15:11Z</time>
      </trkpt>
      <trkpt lat="42.271293" lon="0.733868">
        <ele>676.726</ele>
        <time>2018-11-24T10:15:12Z</time>
      </trkpt>
      <trkpt lat="42.271544" lon="0.733828">
        <ele>677.676</ele>
        <time>2018-11-24T10:15:13Z</time>
      </trkpt>
      <trkpt lat="42.271792" lon="0.733796">
        <ele>678.457</ele>
        <time>2018-11-24T10:15:14Z</time>
      </trkpt>
      <trkpt lat="42.272038" lon="0.733787">
        <ele>679.086</ele>
        <time>2018-11-24T10:15:15Z</time>
      </trkpt>
      <trkpt lat="42.272281" lon="0.733810">
        <ele>679.756</ele>
        <time>2018-11-24T10:15:16Z</time>
      </trkpt>
      <trkpt lat="42.272522" lon="0.733836">
        <ele>680.591</ele>
        <time>2018-11-24T10:15:17Z</time>
      </trkpt>
      <trkpt lat="42.272760" lon="0.733895">
        <ele>681.434</ele>
        <time>2018-11-24T10:15:18Z</time>
      </trkpt>
      <trkpt lat="42.272993" lon="0.733960">
        <ele>682.355</ele>
        <time>2018-11-24T10:15:19Z</time>
      </trkpt>
      <trkpt lat="42.273225" lon="0.734030">
        <ele>683.110</ele>
        <time>2018-11-24T10:15:20Z</time>
      </trkpt>
      <trkpt lat="42.273463" lon="0.734076">
        <ele>684.008</ele>
        <time>2018-11-24T10:15:21Z</time>
      </trkpt>
      <trkpt lat="42.273699" lon="0.734132">
        <ele>684.826</ele>
        <time>2018-11-24T10:15:22Z</time>
      </trkpt>
      <trkpt lat="42.273934" lon="0.734194">
        <ele>685.433</ele>
        <time>2018-11-24T10:15:23Z</time>
      </trkpt>
      <trkpt lat="42.274165" lon="0.734261">
        <ele>686.040</ele>
        <time>2018-11-24T10:15:24Z</time>
      </trkpt>
      <trkpt lat="42.274385" lon="0.734348">
        <ele>686.720</ele>
        <time>2018-11-24T10:15:25Z</time>
      </trkpt>
      <trkpt lat="42.274596" lon="0.734468">
        <ele>687.571</ele>
        <time>2018-11-24T10:15:26Z</time>
      </trkpt>
      <trkpt lat="42.274797" lon="0.734620">
        <ele>688.070</ele>
        <time>2018-11-24T10:15:27Z</time>
      </trkpt>
      <trkpt lat="42.274987" lon="0.734779">
        <ele>688.510</ele>
        <time>2018-11-24T10:15:28Z</time>
      </trkpt>
      <trkpt lat="42.275177" lon="0.734931">
        <ele>689.285</ele>
        <time>2018-11-24T10:15:29Z</time>
      </trkpt>
      <trkpt lat="42.275369" lon="0.735077">
        <ele>689.861</ele>
        <time>2018-11-24T10:15:30Z</time>
      </trkpt>
      <trkpt lat="42.275558" lon="0.735220">
        <ele>690.421</ele>
        <time>2018-11-24T10:15:31Z</time>
      </trkpt>
      <trkpt lat="42.275743" lon="0.735362">
        <ele>691.113</ele>
        <time>2018-11-24T10:15:32Z</time>
      </trkpt>
      <trkpt lat="42.275925" lon="0.735514">
        <ele>691.608</ele>
        <time>2018-11-24T10:15:33Z</time>
      </trkpt>
      <trkpt lat="42.276094" lon="0.735680">
        <ele>692.289</ele>
        <time>2018-11-24T10:15:34Z</time>
      </trkpt>
      <trkpt lat="42.276250" lon="0.735866">
        <ele>692.946</ele>
        <time>2018-11-24T10:15:35Z</time>
      </trkpt>
      <trkpt lat="42.276394" lon="0.736052">
        <ele>693.123</ele>
        <time>2018-11-24T10:15:36Z</time>
      </trkpt>
      <trkpt lat="42.276514" lon="0.736235">
        <ele>693.293</ele>
        <time>2018-11-24T10:15:37Z</time>
      </trkpt>
      <trkpt lat="42.276636" lon="0.736399">
        <ele>693.514</ele>
        <time>2018-11-24T10:15:38Z</time>
      </trkpt>
      <trkpt lat="42.276757" lon="0.736553">
        <ele>693.993</ele>
        <time>2018-11-24T10:15:39Z</time>
      </trkpt>
      <trkpt lat="42.276884" lon="0.736701">
        <ele>694.573</ele>
        <time>2018-11-24T10:15:40Z</time>
      </trkpt>
      <trkpt lat="42.277028" lon="0.736811">
        <ele>695.298</ele>
        <time>2018-11-24T10:15:41Z</time>
      </trkpt>
      <trkpt lat="42.277185" lon="0.736910">
        <ele>695.699</ele>
        <time>2018-11-24T10:15:42Z</time>
      </trkpt>
      <trkpt lat="42.277362" lon="0.736953">
        <ele>696.107</ele>
        <time>2018-11-24T10:15:43Z</time>
      </trkpt>
      <trkpt lat="42.277532" lon="0.737003">
        <ele>696.427</ele>
        <time>2018-11-24T10:15:44Z</time>
      </trkpt>
      <trkpt lat="42.277703" lon="0.737044">
        <ele>696.808</ele>
        <time>2018-11-24T10:15:45Z</time>
      </trkpt>
      <trkpt lat="42.277873" lon="0.737083">
        <ele>697.052</ele>
        <time>2018-11-24T10:15:46Z</time>
      </trkpt>
      <trkpt lat="42.278045" lon="0.737128">
        <ele>697.559</ele>
        <time>2018-11-24T10:15:47Z</time>
      </trkpt>
      <trkpt lat="42.278224" lon="0.737173">
        <ele>698.116</ele>
        <time>2018-11-24T10:15:48Z</time>
      </trkpt>
      <trkpt lat="42.278405" lon="0.737216">
        <ele>698.676</ele>
        <time>2018-11-24T10:15:49Z</time>
      </trkpt>
      <trkpt lat="42.278592" lon="0.737257">
        <ele>699.387</ele>
        <time>2018-11-24T10:15:50Z</time>
      </trkpt>
      <trkpt lat="42.278784" lon="0.737306">
        <ele>699.766</ele>
        <time>2018-11-24T10:15:51Z</time>
      </trkpt>
      <trkpt lat="42.278979" lon="0.737354">
        <ele>700.326</ele>
        <time>2018-11-24T10:15:52Z</time>
      </trkpt>
      <trkpt lat="42.279176" lon="0.737406">
        <ele>700.861</ele>
        <time>2018-11-24T10:15:53Z</time>
      </trkpt>
      <trkpt lat="42.279364" lon="0.737450">
        <ele>701.078</ele>
        <time>2018-11-24T10:15:54Z</time>
      </trkpt>
      <trkpt lat="42.279550" lon="0.737496">
        <ele>701.133</ele>
        <time>2018-11-24T10:15:55Z</time>
      </trkpt>
      <trkpt lat="42.279733" lon="0.737532">
        <ele>701.426</ele>
        <time>2018-11-24T10:15:56Z</time>
      </trkpt>
      <trkpt lat="42.279914" lon="0.737540">
        <ele>701.708</ele>
        <time>2018-11-24T10:15:57Z</time>
      </trkpt>
      <trkpt lat="42.280087" lon="0.737500">
        <ele>701.820</ele>
        <time>2018-11-24T10:15:58Z</time>
      </trkpt>
      <trkpt lat="42.280251" lon="0.737427">
        <ele>701.987</ele>
        <time>2018-11-24T10:15:59Z</time>
      </trkpt>
      <trkpt lat="42.280413" lon="0.737331">
        <ele>701.964</ele>
        <time>2018-11-24T10:16:00Z</time>
      </trkpt>
      <trkpt lat="42.280568" lon="0.737219">
        <ele>701.444</ele>
        <time>2018-11-24T10:16:01Z</time>
      </trkpt>
      <trkpt lat="42.280725" lon="0.737109">
        <ele>700.855</ele>
        <time>2018-11-24T10:16:02Z</time>
      </trkpt>
      <trkpt lat="42.280883" lon="0.736999">
        <ele>700.224</ele>
        <time>2018-11-24T10:16:03Z</time>
      </trkpt>
      <trkpt lat="42.281044" lon="0.736886">
        <ele>699.764</ele>
        <time>2018-11-24T10:16:04Z</time>
      </trkpt>
      <trkpt lat="42.281209" lon="0.736765">
        <ele>699.049</ele>
        <time>2018-11-24T10:16:05Z</time>
      </trkpt>
      <trkpt lat="42.281379" lon="0.736642">
        <ele>698.351</ele>
        <time>2018-11-24T10:16:06Z</time>
      </trkpt>
      <trkpt lat="42.281555" lon="0.736519">
        <ele>697.501</ele>
        <time>2018-11-24T10:16:07Z</time>
      </trkpt>
      <trkpt lat="42.281734" lon="0.736390">
        <ele>696.511</ele>
        <time>2018-11-24T10:16:08Z</time>
      </trkpt>
      <trkpt lat="42.281919" lon="0.736259">
        <ele>695.708</ele>
        <time>2018-11-24T10:16:09Z</time>
      </trkpt>
      <trkpt lat="42.282106" lon="0.736124">
        <ele>694.948</ele>
        <time>2018-11-24T10:16:10Z</time>
      </trkpt>
      <trkpt lat="42.282295" lon="0.735987">
        <ele>694.365</ele>
        <time>2018-11-24T10:16:11Z</time>
      </trkpt>
      <trkpt lat="42.282482" lon="0.735852">
        <ele>693.552</ele>
        <time>2018-11-24T10:16:12Z</time>
      </trkpt>
      <trkpt lat="42.282673" lon="0.735723">
        <ele>693.072</ele>
        <time>2018-11-24T10:16:13Z</time>
      </trkpt>
      <trkpt lat="42.282882" lon="0.735622">
        <ele>692.923</ele>
        <time>2018-11-24T10:16:14Z</time>
      </trkpt>
      <trkpt lat="42.283098" lon="0.735563">
        <ele>693.052</ele>
        <time>2018-11-24T10:16:15Z</time>
      </trkpt>
      <trkpt lat="42.283310" lon="0.735524">
        <ele>692.962</ele>
        <time>2018-11-24T10:16:16Z</time>
      </trkpt>
      <trkpt lat="42.283522" lon="0.735484">
        <ele>692.787</ele>
        <time>2018-11-24T10:16:17Z</time>
      </trkpt>
      <trkpt lat="42.283737" lon="0.735444">
        <ele>693.268</ele>
        <time>2018-11-24T10:16:18Z</time>
      </trkpt>
      <trkpt lat="42.283954" lon="0.735401">
        <ele>693.142</ele>
        <time>2018-11-24T10:16:19Z</time>
      </trkpt>
      <trkpt lat="42.284173" lon="0.735353">
        <ele>693.026</ele>
        <time>2018-11-24T10:16:20Z</time>
      </trkpt>
      <trkpt lat="42.284396" lon="0.735304">
        <ele>692.608</ele>
        <time>2018-11-24T10:16:21Z</time>
      </trkpt>
      <trkpt lat="42.284620" lon="0.735254">
        <ele>692.229</ele>
        <time>2018-11-24T10:16:22Z</time>
      </trkpt>
      <trkpt lat="42.284843" lon="0.735209">
        <ele>691.736</ele>
        <time>2018-11-24T10:16:23Z</time>
      </trkpt>
      <trkpt lat="42.285066" lon="0.735158">
        <ele>691.333</ele>
        <time>2018-11-24T10:16:24Z</time>
      </trkpt>
      <trkpt lat="42.285293" lon="0.735110">
        <ele>691.073</ele>
        <time>2018-11-24T10:16:25Z</time>
      </trkpt>
      <trkpt lat="42.285518" lon="0.735068">
        <ele>690.724</ele>
        <time>2018-11-24T10:16:26Z</time>
      </trkpt>
      <trkpt lat="42.285746" lon="0.735023">
        <ele>690.423</ele>
        <time>2018-11-24T10:16:27Z</time>
      </trkpt>
      <trkpt lat="42.285967" lon="0.734979">
        <ele>690.163</ele>
        <time>2018-11-24T10:16:28Z</time>
      </trkpt>
      <trkpt lat="42.286188" lon="0.734925">
        <ele>689.828</ele>
        <time>2018-11-24T10:16:29Z</time>
      </trkpt>
      <trkpt lat="42.286403" lon="0.734924">
        <ele>689.597</ele>
        <time>2018-11-24T10:16:30Z</time>
      </trkpt>
      <trkpt lat="42.286617" lon="0.734966">
        <ele>689.423</ele>
        <time>2018-11-24T10:16:31Z</time>
      </trkpt>
      <trkpt lat="42.286828" lon="0.735039">
        <ele>689.525</ele>
        <time>2018-11-24T10:16:32Z</time>
      </trkpt>
      <trkpt lat="42.287039" lon="0.735101">
        <ele>689.808</ele>
        <time>2018-11-24T10:16:33Z</time>
      </trkpt>
      <trkpt lat="42.287245" lon="0.735174">
        <ele>690.082</ele>
        <time>2018-11-24T10:16:34Z</time>
      </trkpt>
      <trkpt lat="42.287455" lon="0.735242">
        <ele>690.379</ele>
        <time>2018-11-24T10:16:35Z</time>
      </trkpt>
      <trkpt lat="42.287669" lon="0.735309">
        <ele>690.526</ele>
        <time>2018-11-24T10:16:36Z</time>
      </trkpt>
      <trkpt lat="42.287881" lon="0.735370">
        <ele>691.066</ele>
        <time>2018-11-24T10:16:37Z</time>
      </trkpt>
      <trkpt lat="42.288098" lon="0.735438">
        <ele>691.437</ele>
        <time>2018-11-24T10:16:38Z</time>
      </trkpt>
      <trkpt lat="42.288312" lon="0.735503">
        <ele>691.616</ele>
        <time>2018-11-24T10:16:39Z</time>
      </trkpt>
      <trkpt lat="42.288530" lon="0.735566">
        <ele>692.086</ele>
        <time>2018-11-24T10:16:40Z</time>
      </trkpt>
      <trkpt lat="42.288746" lon="0.735621">
        <ele>692.591</ele>
        <time>2018-11-24T10:16:41Z</time>
      </trkpt>
      <trkpt lat="42.288966" lon="0.735690">
        <ele>692.789</ele>
        <time>2018-11-24T10:16:42Z</time>
      </trkpt>
      <trkpt lat="42.289186" lon="0.735747">
        <ele>693.006</ele>
        <time>2018-11-24T10:16:43Z</time>
      </trkpt>
      <trkpt lat="42.289397" lon="0.735808">
        <ele>692.826</ele>
        <time>2018-11-24T10:16:44Z</time>
      </trkpt>
      <trkpt lat="42.289610" lon="0.735874">
        <ele>693.008</ele>
        <time>2018-11-24T10:16:45Z</time>
      </trkpt>
      <trkpt lat="42.289824" lon="0.735939">
        <ele>693.081</ele>
        <time>2018-11-24T10:16:46Z</time>
      </trkpt>
      <trkpt lat="42.290042" lon="0.736000">
        <ele>693.128</ele>
        <time>2018-11-24T10:16:47Z</time>
      </trkpt>
      <trkpt lat="42.290260" lon="0.736063">
        <ele>693.155</ele>
        <time>2018-11-24T10:16:48Z</time>
      </trkpt>
      <trkpt lat="42.290478" lon="0.736124">
        <ele>693.235</ele>
        <time>2018-11-24T10:16:49Z</time>
      </trkpt>
      <trkpt lat="42.290697" lon="0.736189">
        <ele>693.566</ele>
        <time>2018-11-24T10:16:50Z</time>
      </trkpt>
      <trkpt lat="42.290919" lon="0.736254">
        <ele>693.895</ele>
        <time>2018-11-24T10:16:51Z</time>
      </trkpt>
      <trkpt lat="42.291140" lon="0.736318">
        <ele>693.865</ele>
        <time>2018-11-24T10:16:52Z</time>
      </trkpt>
      <trkpt lat="42.291362" lon="0.736384">
        <ele>693.770</ele>
        <time>2018-11-24T10:16:53Z</time>
      </trkpt>
      <trkpt lat="42.291583" lon="0.736451">
        <ele>693.593</ele>
        <time>2018-11-24T10:16:54Z</time>
      </trkpt>
      <trkpt lat="42.291805" lon="0.736509">
        <ele>693.665</ele>
        <time>2018-11-24T10:16:55Z</time>
      </trkpt>
      <trkpt lat="42.292031" lon="0.736548">
        <ele>693.921</ele>
        <time>2018-11-24T10:16:56Z</time>
      </trkpt>
      <trkpt lat="42.292262" lon="0.736588">
        <ele>694.008</ele>
        <time>2018-11-24T10:16:57Z</time>
      </trkpt>
      <trkpt lat="42.292492" lon="0.736594">
        <ele>694.142</ele>
        <time>2018-11-24T10:16:58Z</time>
      </trkpt>
      <trkpt lat="42.292720" lon="0.736536">
        <ele>693.989</ele>
        <time>2018-11-24T10:16:59Z</time>
      </trkpt>
      <trkpt lat="42.292943" lon="0.736469">
        <ele>693.846</ele>
        <time>2018-11-24T10:17:00Z</time>
      </trkpt>
      <trkpt lat="42.293162" lon="0.736366">
        <ele>693.886</ele>
        <time>2018-11-24T10:17:01Z</time>
      </trkpt>
      <trkpt lat="42.293377" lon="0.736251">
        <ele>693.797</ele>
        <time>2018-11-24T10:17:02Z</time>
      </trkpt>
      <trkpt lat="42.293584" lon="0.736109">
        <ele>693.786</ele>
        <time>2018-11-24T10:17:03Z</time>
      </trkpt>
      <trkpt lat="42.293773" lon="0.735945">
        <ele>693.726</ele>
        <time>2018-11-24T10:17:04Z</time>
      </trkpt>
      <trkpt lat="42.293965" lon="0.735772">
        <ele>693.911</ele>
        <time>2018-11-24T10:17:05Z</time>
      </trkpt>
      <trkpt lat="42.294151" lon="0.735601">
        <ele>694.133</ele>
        <time>2018-11-24T10:17:06Z</time>
      </trkpt>
      <trkpt lat="42.294340" lon="0.735426">
        <ele>694.123</ele>
        <time>2018-11-24T10:17:07Z</time>
      </trkpt>
      <trkpt lat="42.294530" lon="0.735252">
        <ele>694.215</ele>
        <time>2018-11-24T10:17:08Z</time>
      </trkpt>
      <trkpt lat="42.294719" lon="0.735078">
        <ele>694.208</ele>
        <time>2018-11-24T10:17:09Z</time>
      </trkpt>
      <trkpt lat="42.294908" lon="0.734909">
        <ele>694.246</ele>
        <time>2018-11-24T10:17:10Z</time>
      </trkpt>
      <trkpt lat="42.295098" lon="0.734736">
        <ele>694.413</ele>
        <time>2018-11-24T10:17:11Z</time>
      </trkpt>
      <trkpt lat="42.295287" lon="0.734564">
        <ele>695.090</ele>
        <time>2018-11-24T10:17:12Z</time>
      </trkpt>
      <trkpt lat="42.295475" lon="0.734394">
        <ele>695.550</ele>
        <time>2018-11-24T10:17:13Z</time>
      </trkpt>
      <trkpt lat="42.295660" lon="0.734224">
        <ele>695.731</ele>
        <time>2018-11-24T10:17:14Z</time>
      </trkpt>
      <trkpt lat="42.295843" lon="0.734047">
        <ele>696.050</ele>
        <time>2018-11-24T10:17:15Z</time>
      </trkpt>
      <trkpt lat="42.296031" lon="0.733882">
        <ele>696.440</ele>
        <time>2018-11-24T10:17:16Z</time>
      </trkpt>
      <trkpt lat="42.296225" lon="0.733729">
        <ele>696.715</ele>
        <time>2018-11-24T10:17:17Z</time>
      </trkpt>
      <trkpt lat="42.296429" lon="0.733611">
        <ele>697.111</ele>
        <time>2018-11-24T10:17:18Z</time>
      </trkpt>
      <trkpt lat="42.296637" lon="0.733502">
        <ele>697.821</ele>
        <time>2018-11-24T10:17:19Z</time>
      </trkpt>
      <trkpt lat="42.296858" lon="0.733452">
        <ele>698.403</ele>
        <time>2018-11-24T10:17:20Z</time>
      </trkpt>
      <trkpt lat="42.297073" lon="0.733415">
        <ele>698.708</ele>
        <time>2018-11-24T10:17:21Z</time>
      </trkpt>
      <trkpt lat="42.297284" lon="0.733380">
        <ele>699.114</ele>
        <time>2018-11-24T10:17:22Z</time>
      </trkpt>
      <trkpt lat="42.297496" lon="0.733337">
        <ele>699.421</ele>
        <time>2018-11-24T10:17:23Z</time>
      </trkpt>
      <trkpt lat="42.297710" lon="0.733292">
        <ele>699.468</ele>
        <time>2018-11-24T10:17:24Z</time>
      </trkpt>
      <trkpt lat="42.297927" lon="0.733246">
        <ele>699.378</ele>
        <time>2018-11-24T10:17:25Z</time>
      </trkpt>
      <trkpt lat="42.298142" lon="0.733202">
        <ele>699.139</ele>
        <time>2018-11-24T10:17:26Z</time>
      </trkpt>
      <trkpt lat="42.298358" lon="0.733162">
        <ele>698.778</ele>
        <time>2018-11-24T10:17:27Z</time>
      </trkpt>
      <trkpt lat="42.298579" lon="0.733119">
        <ele>698.578</ele>
        <time>2018-11-24T10:17:28Z</time>
      </trkpt>
      <trkpt lat="42.298801" lon="0.733071">
        <ele>698.593</ele>
        <time>2018-11-24T10:17:29Z</time>
      </trkpt>
      <trkpt lat="42.299023" lon="0.733027">
        <ele>698.254</ele>
        <time>2018-11-24T10:17:30Z</time>
      </trkpt>
      <trkpt lat="42.299246" lon="0.732990">
        <ele>697.956</ele>
        <time>2018-11-24T10:17:31Z</time>
      </trkpt>
      <trkpt lat="42.299474" lon="0.732983">
        <ele>697.611</ele>
        <time>2018-11-24T10:17:32Z</time>
      </trkpt>
      <trkpt lat="42.299702" lon="0.732998">
        <ele>697.308</ele>
        <time>2018-11-24T10:17:33Z</time>
      </trkpt>
      <trkpt lat="42.299932" lon="0.733026">
        <ele>696.978</ele>
        <time>2018-11-24T10:17:34Z</time>
      </trkpt>
      <trkpt lat="42.300165" lon="0.733060">
        <ele>696.745</ele>
        <time>2018-11-24T10:17:35Z</time>
      </trkpt>
      <trkpt lat="42.300401" lon="0.733101">
        <ele>696.252</ele>
        <time>2018-11-24T10:17:36Z</time>
      </trkpt>
      <trkpt lat="42.300631" lon="0.733144">
        <ele>695.842</ele>
        <time>2018-11-24T10:17:37Z</time>
      </trkpt>
      <trkpt lat="42.300855" lon="0.733217">
        <ele>695.373</ele>
        <time>2018-11-24T10:17:38Z</time>
      </trkpt>
      <trkpt lat="42.301074" lon="0.733334">
        <ele>694.862</ele>
        <time>2018-11-24T10:17:39Z</time>
      </trkpt>
      <trkpt lat="42.301290" lon="0.733477">
        <ele>695.312</ele>
        <time>2018-11-24T10:17:40Z</time>
      </trkpt>
      <trkpt lat="42.301511" lon="0.733628">
        <ele>695.027</ele>
        <time>2018-11-24T10:17:41Z</time>
      </trkpt>
      <trkpt lat="42.301745" lon="0.733786">
        <ele>695.289</ele>
        <time>2018-11-24T10:17:42Z</time>
      </trkpt>
      <trkpt lat="42.301988" lon="0.733953">
        <ele>695.606</ele>
        <time>2018-11-24T10:17:43Z</time>
      </trkpt>
      <trkpt lat="42.302242" lon="0.734120">
        <ele>696.626</ele>
        <time>2018-11-24T10:17:44Z</time>
      </trkpt>
      <trkpt lat="42.302505" lon="0.734288">
        <ele>697.608</ele>
        <time>2018-11-24T10:17:45Z</time>
      </trkpt>
      <trkpt lat="42.302775" lon="0.734466">
        <ele>698.391</ele>
        <time>2018-11-24T10:17:46Z</time>
      </trkpt>
      <trkpt lat="42.303051" lon="0.734644">
        <ele>699.488</ele>
        <time>2018-11-24T10:17:47Z</time>
      </trkpt>
      <trkpt lat="42.303334" lon="0.734828">
        <ele>700.345</ele>
        <time>2018-11-24T10:17:48Z</time>
      </trkpt>
      <trkpt lat="42.303626" lon="0.735018">
        <ele>701.315</ele>
        <time>2018-11-24T10:17:49Z</time>
      </trkpt>
      <trkpt lat="42.303925" lon="0.735212">
        <ele>702.296</ele>
        <time>2018-11-24T10:17:50Z</time>
      </trkpt>
      <trkpt lat="42.304229" lon="0.735403">
        <ele>702.945</ele>
        <time>2018-11-24T10:17:51Z</time>
      </trkpt>
      <trkpt lat="42.304544" lon="0.735588">
        <ele>703.725</ele>
        <time>2018-11-24T10:17:52Z</time>
      </trkpt>
      <trkpt lat="42.304864" lon="0.735780">
        <ele>704.780</ele>
        <time>2018-11-24T10:17:53Z</time>
      </trkpt>
      <trkpt lat="42.305186" lon="0.735984">
        <ele>706.472</ele>
        <time>2018-11-24T10:17:54Z</time>
      </trkpt>
      <trkpt lat="42.305514" lon="0.736187">
        <ele>707.013</ele>
        <time>2018-11-24T10:17:55Z</time>
      </trkpt>
      <trkpt lat="42.305842" lon="0.736402">
        <ele>707.914</ele>
        <time>2018-11-24T10:17:56Z</time>
      </trkpt>
      <trkpt lat="42.306175" lon="0.736618">
        <ele>710.008</ele>
        <time>2018-11-24T10:17:57Z</time>
      </trkpt>
      <trkpt lat="42.306513" lon="0.736836">
        <ele>711.130</ele>
        <time>2018-11-24T10:17:58Z</time>
      </trkpt>
      <trkpt lat="42.306855" lon="0.737059">
        <ele>712.627</ele>
        <time>2018-11-24T10:17:59Z</time>
      </trkpt>
      <trkpt lat="42.307200" lon="0.737284">
        <ele>714.174</ele>
        <time>2018-11-24T10:18:00Z</time>
      </trkpt>
      <trkpt lat="42.307542" lon="0.737507">
        <ele>716.024</ele>
        <time>2018-11-24T10:18:01Z</time>
      </trkpt>
      <trkpt lat="42.307873" lon="0.737739">
        <ele>716.765</ele>
        <time>2018-11-24T10:18:02Z</time>
      </trkpt>
      <trkpt lat="42.308196" lon="0.737964">
        <ele>717.684</ele>
        <time>2018-11-24T10:18:03Z</time>
      </trkpt>
      <trkpt lat="42.308514" lon="0.738185">
        <ele>718.214</ele>
        <time>2018-11-24T10:18:04Z</time>
      </trkpt>
      <trkpt lat="42.308821" lon="0.738395">
        <ele>718.999</ele>
        <time>2018-11-24T10:18:05Z</time>
      </trkpt>
      <trkpt lat="42.309123" lon="0.738597">
        <ele>719.846</ele>
        <time>2018-11-24T10:18:06Z</time>
      </trkpt>
      <trkpt lat="42.309417" lon="0.738796">
        <ele>720.788</ele>
        <time>2018-11-24T10:18:07Z</time>
      </trkpt>
      <trkpt lat="42.309702" lon="0.738984">
        <ele>721.116</ele>
        <time>2018-11-24T10:18:08Z</time>
      </trkpt>
      <trkpt lat="42.309981" lon="0.739166">
        <ele>721.408</ele>
        <time>2018-11-24T10:18:09Z</time>
      </trkpt>
      <trkpt lat="42.310253" lon="0.739342">
        <ele>721.497</ele>
        <time>2018-11-24T10:18:10Z</time>
      </trkpt>
      <trkpt lat="42.310516" lon="0.739512">
        <ele>721.534</ele>
        <time>2018-11-24T10:18:11Z</time>
      </trkpt>
      <trkpt lat="42.310770" lon="0.739679">
        <ele>722.141</ele>
        <time>2018-11-24T10:18:12Z</time>
      </trkpt>
      <trkpt lat="42.311012" lon="0.739853">
        <ele>723.241</ele>
        <time>2018-11-24T10:18:13Z</time>
      </trkpt>
      <trkpt lat="42.311240" lon="0.740042">
        <ele>723.992</ele>
        <time>2018-11-24T10:18:14Z</time>
      </trkpt>
      <trkpt lat="42.311453" lon="0.740252">
        <ele>725.381</ele>
        <time>2018-11-24T10:18:15Z</time>
      </trkpt>
      <trkpt lat="42.311657" lon="0.740472">
        <ele>726.711</ele>
        <time>2018-11-24T10:18:16Z</time>
      </trkpt>
      <trkpt lat="42.311856" lon="0.740687">
        <ele>727.896</ele>
        <time>2018-11-24T10:18:17Z</time>
      </trkpt>
      <trkpt lat="42.312049" lon="0.740896">
        <ele>729.085</ele>
        <time>2018-11-24T10:18:18Z</time>
      </trkpt>
      <trkpt lat="42.312236" lon="0.741097">
        <ele>730.289</ele>
        <time>2018-11-24T10:18:19Z</time>
      </trkpt>
      <trkpt lat="42.312417" lon="0.741291">
        <ele>731.717</ele>
        <time>2018-11-24T10:18:20Z</time>
      </trkpt>
      <trkpt lat="42.312592" lon="0.741479">
        <ele>732.608</ele>
        <time>2018-11-24T10:18:21Z</time>
      </trkpt>
      <trkpt lat="42.312764" lon="0.741663">
        <ele>732.561</ele>
        <time>2018-11-24T10:18:22Z</time>
      </trkpt>
      <trkpt lat="42.312932" lon="0.741841">
        <ele>733.348</ele>
        <time>2018-11-24T10:18:23Z</time>
      </trkpt>
      <trkpt lat="42.313084" lon="0.742020">
        <ele>734.915</ele>
        <time>2018-11-24T10:18:24Z</time>
      </trkpt>
      <trkpt lat="42.313240" lon="0.742181">
        <ele>734.995</ele>
        <time>2018-11-24T10:18:25Z</time>
      </trkpt>
      <trkpt lat="42.313383" lon="0.742349">
        <ele>734.446</ele>
        <time>2018-11-24T10:18:26Z</time>
      </trkpt>
      <trkpt lat="42.313468" lon="0.742568">
        <ele>735.425</ele>
        <time>2018-11-24T10:18:27Z</time>
      </trkpt>
      <trkpt lat="42.313498" lon="0.742808">
        <ele>736.725</ele>
        <time>2018-11-24T10:18:28Z</time>
      </trkpt>
      <trkpt lat="42.313519" lon="0.743054">
        <ele>737.860</ele>
        <time>2018-11-24T10:18:29Z</time>
      </trkpt>
      <trkpt lat="42.313529" lon="0.743312">
        <ele>738.794</ele>
        <time>2018-11-24T10:18:30Z</time>
      </trkpt>
      <trkpt lat="42.313549" lon="0.743556">
        <ele>739.557</ele>
        <time>2018-11-24T10:18:31Z</time>
      </trkpt>
      <trkpt lat="42.313600" lon="0.743778">
        <ele>740.722</ele>
        <time>2018-11-24T10:18:32Z</time>
      </trkpt>
      <trkpt lat="42.313678" lon="0.743973">
        <ele>741.708</ele>
        <time>2018-11-24T10:18:33Z</time>
      </trkpt>
      <trkpt lat="42.313762" lon="0.744163">
        <ele>742.022</ele>
        <time>2018-11-24T10:18:34Z</time>
      </trkpt>
      <trkpt lat="42.313880" lon="0.744323">
        <ele>742.479</ele>
        <time>2018-11-24T10:18:35Z</time>
      </trkpt>
      <trkpt lat="42.314015" lon="0.744478">
        <ele>743.396</ele>
        <time>2018-11-24T10:18:36Z</time>
      </trkpt>
      <trkpt lat="42.314143" lon="0.744621">
        <ele>743.926</ele>
        <time>2018-11-24T10:18:37Z</time>
      </trkpt>
      <trkpt lat="42.314291" lon="0.744720">
        <ele>744.747</ele>
        <time>2018-11-24T10:18:38Z</time>
      </trkpt>
      <trkpt lat="42.314448" lon="0.744790">
        <ele>744.816</ele>
        <time>2018-11-24T10:18:39Z</time>
      </trkpt>
      <trkpt lat="42.314604" lon="0.744832">
        <ele>746.066</ele>
        <time>2018-11-24T10:18:40Z</time>
      </trkpt>
      <trkpt lat="42.314762" lon="0.744884">
        <ele>748.191</ele>
        <time>2018-11-24T10:18:41Z</time>
      </trkpt>
      <trkpt lat="42.314912" lon="0.744927">
        <ele>748.872</ele>
        <time>2018-11-24T10:18:42Z</time>
      </trkpt>
      <trkpt lat="42.315073" lon="0.744954">
        <ele>748.613</ele>
        <time>2018-11-24T10:18:43Z</time>
      </trkpt>
      <trkpt lat="42.315240" lon="0.744983">
        <ele>749.114</ele>
        <time>2018-11-24T10:18:44Z</time>
      </trkpt>
      <trkpt lat="42.315416" lon="0.745007">
        <ele>749.808</ele>
        <time>2018-11-24T10:18:45Z</time>
      </trkpt>
      <trkpt lat="42.315601" lon="0.745013">
        <ele>750.640</ele>
        <time>2018-11-24T10:18:46Z</time>
      </trkpt>
      <trkpt lat="42.315782" lon="0.744994">
        <ele>751.477</ele>
        <time>2018-11-24T10:18:47Z</time>
      </trkpt>
      <trkpt lat="42.315960" lon="0.744981">
        <ele>752.394</ele>
        <time>2018-11-24T10:18:48Z</time>
      </trkpt>
      <trkpt lat="42.316141" lon="0.744930">
        <ele>753.134</ele>
        <time>2018-11-24T10:18:49Z</time>
      </trkpt>
      <trkpt lat="42.316314" lon="0.744898">
        <ele>754.045</ele>
        <time>2018-11-24T10:18:50Z</time>
      </trkpt>
      <trkpt lat="42.316485" lon="0.744883">
        <ele>754.894</ele>
        <time>2018-11-24T10:18:51Z</time>
      </trkpt>
      <trkpt lat="42.316654" lon="0.744865">
        <ele>755.944</ele>
        <time>2018-11-24T10:18:52Z</time>
      </trkpt>
      <trkpt lat="42.316823" lon="0.744851">
        <ele>757.089</ele>
        <time>2018-11-24T10:18:53Z</time>
      </trkpt>
      <trkpt lat="42.316984" lon="0.744850">
        <ele>758.683</ele>
        <time>2018-11-24T10:18:54Z</time>
      </trkpt>
      <trkpt lat="42.317134" lon="0.744895">
        <ele>760.025</ele>
        <time>2018-11-24T10:18:55Z</time>
      </trkpt>
      <trkpt lat="42.317261" lon="0.745022">
        <ele>761.117</ele>
        <time>2018-11-24T10:18:56Z</time>
      </trkpt>
      <trkpt lat="42.317350" lon="0.745196">
        <ele>762.108</ele>
        <time>2018-11-24T10:18:57Z</time>
      </trkpt>
      <trkpt lat="42.317417" lon="0.745379">
        <ele>763.461</ele>
        <time>2018-11-24T10:18:58Z</time>
      </trkpt>
      <trkpt lat="42.317480" lon="0.745553">
        <ele>765.278</ele>
        <time>2018-11-24T10:18:59Z</time>
      </trkpt>
      <trkpt lat="42.317545" lon="0.745725">
        <ele>766.545</ele>
        <time>2018-11-24T10:19:00Z</time>
      </trkpt>
      <trkpt lat="42.317612" lon="0.745902">
        <ele>768.455</ele>
        <time>2018-11-24T10:19:01Z</time>
      </trkpt>
      <trkpt lat="42.317681" lon="0.746090">
        <ele>770.456</ele>
        <time>2018-11-24T10:19:02Z</time>
      </trkpt>
      <trkpt lat="42.317785" lon="0.746274">
        <ele>772.665</ele>
        <time>2018-11-24T10:19:03Z</time>
      </trkpt>
      <trkpt lat="42.317912" lon="0.746439">
        <ele>773.855</ele>
        <time>2018-11-24T10:19:04Z</time>
      </trkpt>
      <trkpt lat="42.318057" lon="0.746580">
        <ele>775.590</ele>
        <time>2018-11-24T10:19:05Z</time>
      </trkpt>
      <trkpt lat="42.318226" lon="0.746685">
        <ele>777.614</ele>
        <time>2018-11-24T10:19:06Z</time>
      </trkpt>
      <trkpt lat="42.318415" lon="0.746785">
        <ele>779.154</ele>
        <time>2018-11-24T10:19:07Z</time>
      </trkpt>
      <trkpt lat="42.318631" lon="0.746790">
        <ele>780.509</ele>
        <time>2018-11-24T10:19:08Z</time>
      </trkpt>
      <trkpt lat="42.318843" lon="0.746728">
        <ele>782.108</ele>
        <time>2018-11-24T10:19:09Z</time>
      </trkpt>
      <trkpt lat="42.319057" lon="0.746666">
        <ele>783.584</ele>
        <time>2018-11-24T10:19:10Z</time>
      </trkpt>
      <trkpt lat="42.319231" lon="0.746508">
        <ele>784.741</ele>
        <time>2018-11-24T10:19:11Z</time>
      </trkpt>
      <trkpt lat="42.319382" lon="0.746313">
        <ele>786.078</ele>
        <time>2018-11-24T10:19:12Z</time>
      </trkpt>
      <trkpt lat="42.319518" lon="0.746082">
        <ele>787.338</ele>
        <time>2018-11-24T10:19:13Z</time>
      </trkpt>
      <trkpt lat="42.319645" lon="0.745847">
        <ele>788.989</ele>
        <time>2018-11-24T10:19:14Z</time>
      </trkpt>
      <trkpt lat="42.319769" lon="0.745608">
        <ele>790.028</ele>
        <time>2018-11-24T10:19:15Z</time>
      </trkpt>
      <trkpt lat="42.319896" lon="0.745368">
        <ele>791.168</ele>
        <time>2018-11-24T10:19:16Z</time>
      </trkpt>
      <trkpt lat="42.320018" lon="0.745120">
        <ele>792.423</ele>
        <time>2018-11-24T10:19:17Z</time>
      </trkpt>
      <trkpt lat="42.320144" lon="0.744875">
        <ele>793.717</ele>
        <time>2018-11-24T10:19:18Z</time>
      </trkpt>
      <trkpt lat="42.320269" lon="0.744632">
        <ele>795.787</ele>
        <time>2018-11-24T10:19:19Z</time>
      </trkpt>
      <trkpt lat="42.320372" lon="0.744389">
        <ele>797.415</ele>
        <time>2018-11-24T10:19:20Z</time>
      </trkpt>
      <trkpt lat="42.320475" lon="0.744145">
        <ele>799.208</ele>
        <time>2018-11-24T10:19:21Z</time>
      </trkpt>
      <trkpt lat="42.320575" lon="0.743896">
        <ele>800.574</ele>
        <time>2018-11-24T10:19:22Z</time>
      </trkpt>
      <trkpt lat="42.320670" lon="0.743649">
        <ele>802.251</ele>
        <time>2018-11-24T10:19:23Z</time>
      </trkpt>
      <trkpt lat="42.320760" lon="0.743399">
        <ele>803.688</ele>
        <time>2018-11-24T10:19:24Z</time>
      </trkpt>
      <trkpt lat="42.320847" lon="0.743149">
        <ele>805.448</ele>
        <time>2018-11-24T10:19:25Z</time>
      </trkpt>
      <trkpt lat="42.320935" lon="0.742905">
        <ele>807.199</ele>
        <time>2018-11-24T10:19:26Z</time>
      </trkpt>
      <trkpt lat="42.321022" lon="0.742674">
        <ele>807.838</ele>
        <time>2018-11-24T10:19:27Z</time>
      </trkpt>
      <trkpt lat="42.321117" lon="0.742465">
        <ele>808.498</ele>
        <time>2018-11-24T10:19:28Z</time>
      </trkpt>
      <trkpt lat="42.321225" lon="0.742274">
        <ele>809.463</ele>
        <time>2018-11-24T10:19:29Z</time>
      </trkpt>
      <trkpt lat="42.321348" lon="0.742105">
        <ele>810.755</ele>
        <time>2018-11-24T10:19:30Z</time>
      </trkpt>
      <trkpt lat="42.321489" lon="0.741962">
        <ele>812.007</ele>
        <time>2018-11-24T10:19:31Z</time>
      </trkpt>
      <trkpt lat="42.321647" lon="0.741847">
        <ele>813.217</ele>
        <time>2018-11-24T10:19:32Z</time>
      </trkpt>
      <trkpt lat="42.321820" lon="0.741763">
        <ele>814.208</ele>
        <time>2018-11-24T10:19:33Z</time>
      </trkpt>
      <trkpt lat="42.322000" lon="0.741686">
        <ele>815.498</ele>
        <time>2018-11-24T10:19:34Z</time>
      </trkpt>
      <trkpt lat="42.322184" lon="0.741608">
        <ele>816.555</ele>
        <time>2018-11-24T10:19:35Z</time>
      </trkpt>
      <trkpt lat="42.322370" lon="0.741528">
        <ele>817.672</ele>
        <time>2018-11-24T10:19:36Z</time>
      </trkpt>
      <trkpt lat="42.322563" lon="0.741469">
        <ele>818.822</ele>
        <time>2018-11-24T10:19:37Z</time>
      </trkpt>
      <trkpt lat="42.322757" lon="0.741430">
        <ele>819.743</ele>
        <time>2018-11-24T10:19:39Z</time>
      </trkpt>
      <trkpt lat="42.322948" lon="0.741400">
        <ele>821.092</ele>
        <time>2018-11-24T10:19:40Z</time>
      </trkpt>
      <trkpt lat="42.323140" lon="0.741391">
        <ele>822.322</ele>
        <time>2018-11-24T10:19:41Z</time>
      </trkpt>
      <trkpt lat="42.323340" lon="0.741418">
        <ele>823.697</ele>
        <time>2018-11-24T10:19:42Z</time>
      </trkpt>
      <trkpt lat="42.323533" lon="0.741547">
        <ele>824.959</ele>
        <time>2018-11-24T10:19:43Z</time>
      </trkpt>
      <trkpt lat="42.323743" lon="0.741648">
        <ele>826.003</ele>
        <time>2018-11-24T10:19:44Z</time>
      </trkpt>
      <trkpt lat="42.323934" lon="0.741747">
        <ele>827.123</ele>
        <time>2018-11-24T10:19:45Z</time>
      </trkpt>
      <trkpt lat="42.324113" lon="0.741875">
        <ele>828.408</ele>
        <time>2018-11-24T10:19:46Z</time>
      </trkpt>
      <trkpt lat="42.324277" lon="0.742017">
        <ele>829.828</ele>
        <time>2018-11-24T10:19:47Z</time>
      </trkpt>
      <trkpt lat="42.324449" lon="0.742195">
        <ele>830.385</ele>
        <time>2018-11-24T10:19:48Z</time>
      </trkpt>
      <trkpt lat="42.324741" lon="0.742419">
        <ele>832.382</ele>
        <time>2018-11-24T10:19:50Z</time>
      </trkpt>
      <trkpt lat="42.324907" lon="0.742508">
        <ele>832.962</ele>
        <time>2018-11-24T10:19:51Z</time>
      </trkpt>
      <trkpt lat="42.325102" lon="0.742532">
        <ele>833.633</ele>
        <time>2018-11-24T10:19:52Z</time>
      </trkpt>
      <trkpt lat="42.325430" lon="0.742632">
        <ele>835.062</ele>
        <time>2018-11-24T10:19:54Z</time>
      </trkpt>
      <trkpt lat="42.325573" lon="0.742608">
        <ele>835.052</ele>
        <time>2018-11-24T10:19:55Z</time>
      </trkpt>
      <trkpt lat="42.325717" lon="0.742493">
        <ele>835.487</ele>
        <time>2018-11-24T10:19:56Z</time>
      </trkpt>
      <trkpt lat="42.325873" lon="0.742343">
        <ele>835.781</ele>
        <time>2018-11-24T10:19:57Z</time>
      </trkpt>
      <trkpt lat="42.325972" lon="0.742177">
        <ele>836.661</ele>
        <time>2018-11-24T10:19:58Z</time>
      </trkpt>
      <trkpt lat="42.326600" lon="0.740827">
        <ele>837.217</ele>
        <time>2018-11-24T10:20:06Z</time>
      </trkpt>
      <trkpt lat="42.326905" lon="0.740989">
        <ele>837.508</ele>
        <time>2018-11-24T10:20:07Z</time>
      </trkpt>
      <trkpt lat="42.327086" lon="0.740979">
        <ele>838.061</ele>
        <time>2018-11-24T10:20:08Z</time>
      </trkpt>
      <trkpt lat="42.327251" lon="0.740936">
        <ele>838.758</ele>
        <time>2018-11-24T10:20:09Z</time>
      </trkpt>
      <trkpt lat="42.327446" lon="0.740862">
        <ele>839.345</ele>
        <time>2018-11-24T10:20:10Z</time>
      </trkpt>
      <trkpt lat="42.327574" lon="0.740713">
        <ele>839.835</ele>
        <time>2018-11-24T10:20:11Z</time>
      </trkpt>
      <trkpt lat="42.327681" lon="0.740553">
        <ele>840.166</ele>
        <time>2018-11-24T10:20:12Z</time>
      </trkpt>
      <trkpt lat="42.327795" lon="0.740412">
        <ele>840.155</ele>
        <time>2018-11-24T10:20:13Z</time>
      </trkpt>
      <trkpt lat="42.327919" lon="0.740316">
        <ele>840.345</ele>
        <time>2018-11-24T10:20:14Z</time>
      </trkpt>
      <trkpt lat="42.328056" lon="0.740222">
        <ele>841.010</ele>
        <time>2018-11-24T10:20:15Z</time>
      </trkpt>
      <trkpt lat="42.328221" lon="0.740222">
        <ele>842.369</ele>
        <time>2018-11-24T10:20:16Z</time>
      </trkpt>
      <trkpt lat="42.328393" lon="0.740249">
        <ele>843.504</ele>
        <time>2018-11-24T10:20:17Z</time>
      </trkpt>
      <trkpt lat="42.328557" lon="0.740264">
        <ele>844.624</ele>
        <time>2018-11-24T10:20:18Z</time>
      </trkpt>
      <trkpt lat="42.328712" lon="0.740246">
        <ele>845.408</ele>
        <time>2018-11-24T10:20:19Z</time>
      </trkpt>
      <trkpt lat="42.328864" lon="0.740215">
        <ele>846.539</ele>
        <time>2018-11-24T10:20:20Z</time>
      </trkpt>
      <trkpt lat="42.328993" lon="0.740130">
        <ele>847.786</ele>
        <time>2018-11-24T10:20:21Z</time>
      </trkpt>
      <trkpt lat="42.329134" lon="0.740017">
        <ele>848.883</ele>
        <time>2018-11-24T10:20:22Z</time>
      </trkpt>
      <trkpt lat="42.329287" lon="0.739908">
        <ele>850.163</ele>
        <time>2018-11-24T10:20:23Z</time>
      </trkpt>
      <trkpt lat="42.329437" lon="0.739791">
        <ele>851.314</ele>
        <time>2018-11-24T10:20:24Z</time>
      </trkpt>
      <trkpt lat="42.329597" lon="0.739666">
        <ele>852.773</ele>
        <time>2018-11-24T10:20:25Z</time>
      </trkpt>
      <trkpt lat="42.329751" lon="0.739543">
        <ele>853.923</ele>
        <time>2018-11-24T10:20:26Z</time>
      </trkpt>
      <trkpt lat="42.329899" lon="0.739425">
        <ele>854.868</ele>
        <time>2018-11-24T10:20:27Z</time>
      </trkpt>
      <trkpt lat="42.330037" lon="0.739316">
        <ele>856.079</ele>
        <time>2018-11-24T10:20:28Z</time>
      </trkpt>
      <trkpt lat="42.330176" lon="0.739207">
        <ele>857.405</ele>
        <time>2018-11-24T10:20:29Z</time>
      </trkpt>
      <trkpt lat="42.330542" lon="0.738915">
        <ele>860.325</ele>
        <time>2018-11-24T10:20:32Z</time>
      </trkpt>
      <trkpt lat="42.330638" lon="0.738836">
        <ele>860.708</ele>
        <time>2018-11-24T10:20:33Z</time>
      </trkpt>
      <trkpt lat="42.330707" lon="0.738706">
        <ele>861.370</ele>
        <time>2018-11-24T10:20:34Z</time>
      </trkpt>
      <trkpt lat="42.330791" lon="0.738517">
        <ele>862.297</ele>
        <time>2018-11-24T10:20:35Z</time>
      </trkpt>
      <trkpt lat="42.330823" lon="0.738296">
        <ele>863.474</ele>
        <time>2018-11-24T10:20:36Z</time>
      </trkpt>
      <trkpt lat="42.330878" lon="0.738075">
        <ele>864.434</ele>
        <time>2018-11-24T10:20:37Z</time>
      </trkpt>
      <trkpt lat="42.330944" lon="0.737894">
        <ele>865.135</ele>
        <time>2018-11-24T10:20:38Z</time>
      </trkpt>
      <trkpt lat="42.331043" lon="0.737747">
        <ele>866.144</ele>
        <time>2018-11-24T10:20:39Z</time>
      </trkpt>
      <trkpt lat="42.331155" lon="0.737632">
        <ele>867.044</ele>
        <time>2018-11-24T10:20:40Z</time>
      </trkpt>
      <trkpt lat="42.331263" lon="0.737513">
        <ele>868.119</ele>
        <time>2018-11-24T10:20:41Z</time>
      </trkpt>
      <trkpt lat="42.331357" lon="0.737381">
        <ele>868.838</ele>
        <time>2018-11-24T10:20:42Z</time>
      </trkpt>
      <trkpt lat="42.331421" lon="0.737226">
        <ele>869.570</ele>
        <time>2018-11-24T10:20:43Z</time>
      </trkpt>
      <trkpt lat="42.331505" lon="0.736881">
        <ele>870.817</ele>
        <time>2018-11-24T10:20:45Z</time>
      </trkpt>
      <trkpt lat="42.331507" lon="0.736639">
        <ele>870.908</ele>
        <time>2018-11-24T10:20:46Z</time>
      </trkpt>
      <trkpt lat="42.331532" lon="0.736424">
        <ele>871.036</ele>
        <time>2018-11-24T10:20:47Z</time>
      </trkpt>
      <trkpt lat="42.331563" lon="0.736241">
        <ele>871.363</ele>
        <time>2018-11-24T10:20:48Z</time>
      </trkpt>
      <trkpt lat="42.331631" lon="0.736060">
        <ele>871.730</ele>
        <time>2018-11-24T10:20:49Z</time>
      </trkpt>
      <trkpt lat="42.331738" lon="0.735904">
        <ele>872.280</ele>
        <time>2018-11-24T10:20:50Z</time>
      </trkpt>
      <trkpt lat="42.331878" lon="0.735795">
        <ele>872.941</ele>
        <time>2018-11-24T10:20:51Z</time>
      </trkpt>
      <trkpt lat="42.332017" lon="0.735687">
        <ele>873.730</ele>
        <time>2018-11-24T10:20:52Z</time>
      </trkpt>
      <trkpt lat="42.332182" lon="0.735609">
        <ele>874.190</ele>
        <time>2018-11-24T10:20:53Z</time>
      </trkpt>
      <trkpt lat="42.332373" lon="0.735564">
        <ele>874.425</ele>
        <time>2018-11-24T10:20:54Z</time>
      </trkpt>
      <trkpt lat="42.332563" lon="0.735538">
        <ele>874.766</ele>
        <time>2018-11-24T10:20:55Z</time>
      </trkpt>
      <trkpt lat="42.332745" lon="0.735546">
        <ele>875.329</ele>
        <time>2018-11-24T10:20:56Z</time>
      </trkpt>
      <trkpt lat="42.332923" lon="0.735574">
        <ele>875.821</ele>
        <time>2018-11-24T10:20:57Z</time>
      </trkpt>
      <trkpt lat="42.333107" lon="0.735609">
        <ele>875.908</ele>
        <time>2018-11-24T10:20:58Z</time>
      </trkpt>
      <trkpt lat="42.333298" lon="0.735652">
        <ele>876.129</ele>
        <time>2018-11-24T10:20:59Z</time>
      </trkpt>
      <trkpt lat="42.333495" lon="0.735695">
        <ele>876.036</ele>
        <time>2018-11-24T10:21:00Z</time>
      </trkpt>
      <trkpt lat="42.333695" lon="0.735737">
        <ele>875.213</ele>
        <time>2018-11-24T10:21:01Z</time>
      </trkpt>
      <trkpt lat="42.333896" lon="0.735782">
        <ele>874.063</ele>
        <time>2018-11-24T10:21:02Z</time>
      </trkpt>
      <trkpt lat="42.334096" lon="0.735832">
        <ele>872.424</ele>
        <time>2018-11-24T10:21:03Z</time>
      </trkpt>
      <trkpt lat="42.334301" lon="0.735878">
        <ele>870.743</ele>
        <time>2018-11-24T10:21:04Z</time>
      </trkpt>
      <trkpt lat="42.334510" lon="0.735915">
        <ele>869.333</ele>
        <time>2018-11-24T10:21:05Z</time>
      </trkpt>
      <trkpt lat="42.334722" lon="0.735944">
        <ele>867.658</ele>
        <time>2018-11-24T10:21:06Z</time>
      </trkpt>
      <trkpt lat="42.334937" lon="0.735966">
        <ele>866.294</ele>
        <time>2018-11-24T10:21:07Z</time>
      </trkpt>
      <trkpt lat="42.335152" lon="0.735983">
        <ele>864.557</ele>
        <time>2018-11-24T10:21:08Z</time>
      </trkpt>
      <trkpt lat="42.335366" lon="0.736021">
        <ele>862.922</ele>
        <time>2018-11-24T10:21:09Z</time>
      </trkpt>
      <trkpt lat="42.335572" lon="0.736066">
        <ele>860.808</ele>
        <time>2018-11-24T10:21:10Z</time>
      </trkpt>
      <trkpt lat="42.335751" lon="0.736217">
        <ele>859.422</ele>
        <time>2018-11-24T10:21:11Z</time>
      </trkpt>
      <trkpt lat="42.335916" lon="0.736387">
        <ele>858.659</ele>
        <time>2018-11-24T10:21:12Z</time>
      </trkpt>
      <trkpt lat="42.336099" lon="0.736522">
        <ele>858.086</ele>
        <time>2018-11-24T10:21:13Z</time>
      </trkpt>
      <trkpt lat="42.336282" lon="0.736653">
        <ele>857.146</ele>
        <time>2018-11-24T10:21:14Z</time>
      </trkpt>
      <trkpt lat="42.336492" lon="0.736693">
        <ele>855.787</ele>
        <time>2018-11-24T10:21:15Z</time>
      </trkpt>
      <trkpt lat="42.336666" lon="0.736744">
        <ele>854.966</ele>
        <time>2018-11-24T10:21:16Z</time>
      </trkpt>
      <trkpt lat="42.336822" lon="0.736848">
        <ele>854.786</ele>
        <time>2018-11-24T10:21:17Z</time>
      </trkpt>
      <trkpt lat="42.336901" lon="0.737067">
        <ele>854.861</ele>
        <time>2018-11-24T10:21:18Z</time>
      </trkpt>
      <trkpt lat="42.336987" lon="0.737307">
        <ele>855.284</ele>
        <time>2018-11-24T10:21:19Z</time>
      </trkpt>
      <trkpt lat="42.337054" lon="0.737556">
        <ele>855.707</ele>
        <time>2018-11-24T10:21:20Z</time>
      </trkpt>
      <trkpt lat="42.337122" lon="0.737772">
        <ele>856.317</ele>
        <time>2018-11-24T10:21:21Z</time>
      </trkpt>
      <trkpt lat="42.337213" lon="0.737962">
        <ele>857.008</ele>
        <time>2018-11-24T10:21:22Z</time>
      </trkpt>
      <trkpt lat="42.337313" lon="0.738136">
        <ele>857.851</ele>
        <time>2018-11-24T10:21:23Z</time>
      </trkpt>
      <trkpt lat="42.337455" lon="0.738259">
        <ele>858.598</ele>
        <time>2018-11-24T10:21:24Z</time>
      </trkpt>
      <trkpt lat="42.337619" lon="0.738279">
        <ele>859.055</ele>
        <time>2018-11-24T10:21:25Z</time>
      </trkpt>
      <trkpt lat="42.337794" lon="0.738204">
        <ele>859.775</ele>
        <time>2018-11-24T10:21:26Z</time>
      </trkpt>
      <trkpt lat="42.337965" lon="0.738134">
        <ele>860.486</ele>
        <time>2018-11-24T10:21:27Z</time>
      </trkpt>
      <trkpt lat="42.338137" lon="0.738057">
        <ele>861.315</ele>
        <time>2018-11-24T10:21:28Z</time>
      </trkpt>
      <trkpt lat="42.338311" lon="0.737984">
        <ele>862.135</ele>
        <time>2018-11-24T10:21:29Z</time>
      </trkpt>
      <trkpt lat="42.338494" lon="0.737914">
        <ele>863.170</ele>
        <time>2018-11-24T10:21:30Z</time>
      </trkpt>
      <trkpt lat="42.338679" lon="0.737848">
        <ele>864.142</ele>
        <time>2018-11-24T10:21:31Z</time>
      </trkpt>
      <trkpt lat="42.338868" lon="0.737777">
        <ele>865.322</ele>
        <time>2018-11-24T10:21:32Z</time>
      </trkpt>
      <trkpt lat="42.339060" lon="0.737701">
        <ele>866.714</ele>
        <time>2018-11-24T10:21:33Z</time>
      </trkpt>
      <trkpt lat="42.339244" lon="0.737623">
        <ele>867.508</ele>
        <time>2018-11-24T10:21:34Z</time>
      </trkpt>
      <trkpt lat="42.339419" lon="0.737528">
        <ele>868.497</ele>
        <time>2018-11-24T10:21:35Z</time>
      </trkpt>
      <trkpt lat="42.339594" lon="0.737417">
        <ele>869.194</ele>
        <time>2018-11-24T10:21:36Z</time>
      </trkpt>
      <trkpt lat="42.339757" lon="0.737275">
        <ele>869.551</ele>
        <time>2018-11-24T10:21:37Z</time>
      </trkpt>
      <trkpt lat="42.339914" lon="0.737135">
        <ele>869.761</ele>
        <time>2018-11-24T10:21:38Z</time>
      </trkpt>
      <trkpt lat="42.340058" lon="0.736958">
        <ele>869.282</ele>
        <time>2018-11-24T10:21:39Z</time>
      </trkpt>
      <trkpt lat="42.340197" lon="0.736776">
        <ele>868.431</ele>
        <time>2018-11-24T10:21:40Z</time>
      </trkpt>
      <trkpt lat="42.340324" lon="0.736594">
        <ele>867.651</ele>
        <time>2018-11-24T10:21:41Z</time>
      </trkpt>
      <trkpt lat="42.340441" lon="0.736394">
        <ele>867.036</ele>
        <time>2018-11-24T10:21:42Z</time>
      </trkpt>
      <trkpt lat="42.340546" lon="0.736176">
        <ele>866.429</ele>
        <time>2018-11-24T10:21:43Z</time>
      </trkpt>
      <trkpt lat="42.340643" lon="0.735961">
        <ele>865.800</ele>
        <time>2018-11-24T10:21:44Z</time>
      </trkpt>
      <trkpt lat="42.340685" lon="0.735706">
        <ele>865.120</ele>
        <time>2018-11-24T10:21:45Z</time>
      </trkpt>
      <trkpt lat="42.340701" lon="0.735425">
        <ele>864.208</ele>
        <time>2018-11-24T10:21:46Z</time>
      </trkpt>
      <trkpt lat="42.340687" lon="0.735140">
        <ele>863.515</ele>
        <time>2018-11-24T10:21:47Z</time>
      </trkpt>
      <trkpt lat="42.340638" lon="0.734858">
        <ele>862.662</ele>
        <time>2018-11-24T10:21:48Z</time>
      </trkpt>
      <trkpt lat="42.340564" lon="0.734592">
        <ele>861.489</ele>
        <time>2018-11-24T10:21:49Z</time>
      </trkpt>
      <trkpt lat="42.340483" lon="0.734342">
        <ele>860.239</ele>
        <time>2018-11-24T10:21:50Z</time>
      </trkpt>
      <trkpt lat="42.340408" lon="0.734081">
        <ele>858.920</ele>
        <time>2018-11-24T10:21:51Z</time>
      </trkpt>
      <trkpt lat="42.340358" lon="0.733809">
        <ele>857.939</ele>
        <time>2018-11-24T10:21:52Z</time>
      </trkpt>
      <trkpt lat="42.340342" lon="0.733538">
        <ele>856.739</ele>
        <time>2018-11-24T10:21:53Z</time>
      </trkpt>
      <trkpt lat="42.340329" lon="0.733264">
        <ele>855.514</ele>
        <time>2018-11-24T10:21:54Z</time>
      </trkpt>
      <trkpt lat="42.340360" lon="0.733027">
        <ele>854.188</ele>
        <time>2018-11-24T10:21:55Z</time>
      </trkpt>
      <trkpt lat="42.340383" lon="0.732810">
        <ele>853.224</ele>
        <time>2018-11-24T10:21:56Z</time>
      </trkpt>
      <trkpt lat="42.340377" lon="0.732597">
        <ele>852.126</ele>
        <time>2018-11-24T10:21:57Z</time>
      </trkpt>
      <trkpt lat="42.340363" lon="0.732401">
        <ele>851.108</ele>
        <time>2018-11-24T10:21:58Z</time>
      </trkpt>
      <trkpt lat="42.340268" lon="0.732228">
        <ele>850.421</ele>
        <time>2018-11-24T10:21:59Z</time>
      </trkpt>
      <trkpt lat="42.340167" lon="0.732069">
        <ele>849.868</ele>
        <time>2018-11-24T10:22:00Z</time>
      </trkpt>
      <trkpt lat="42.340009" lon="0.731942">
        <ele>849.085</ele>
        <time>2018-11-24T10:22:01Z</time>
      </trkpt>
      <trkpt lat="42.339855" lon="0.731807">
        <ele>848.195</ele>
        <time>2018-11-24T10:22:02Z</time>
      </trkpt>
      <trkpt lat="42.339717" lon="0.731652">
        <ele>847.386</ele>
        <time>2018-11-24T10:22:03Z</time>
      </trkpt>
      <trkpt lat="42.339616" lon="0.731462">
        <ele>846.495</ele>
        <time>2018-11-24T10:22:04Z</time>
      </trkpt>
      <trkpt lat="42.339537" lon="0.731243">
        <ele>845.625</ele>
        <time>2018-11-24T10:22:05Z</time>
      </trkpt>
      <trkpt lat="42.339473" lon="0.731014">
        <ele>844.740</ele>
        <time>2018-11-24T10:22:06Z</time>
      </trkpt>
      <trkpt lat="42.339413" lon="0.730794">
        <ele>843.673</ele>
        <time>2018-11-24T10:22:07Z</time>
      </trkpt>
      <trkpt lat="42.339382" lon="0.730560">
        <ele>842.585</ele>
        <time>2018-11-24T10:22:08Z</time>
      </trkpt>
      <trkpt lat="42.339381" lon="0.730337">
        <ele>841.613</ele>
        <time>2018-11-24T10:22:09Z</time>
      </trkpt>
      <trkpt lat="42.339434" lon="0.730118">
        <ele>841.308</ele>
        <time>2018-11-24T10:22:10Z</time>
      </trkpt>
      <trkpt lat="42.339558" lon="0.729950">
        <ele>841.120</ele>
        <time>2018-11-24T10:22:11Z</time>
      </trkpt>
      <trkpt lat="42.339722" lon="0.729824">
        <ele>841.217</ele>
        <time>2018-11-24T10:22:12Z</time>
      </trkpt>
      <trkpt lat="42.339917" lon="0.729741">
        <ele>842.174</ele>
        <time>2018-11-24T10:22:13Z</time>
      </trkpt>
      <trkpt lat="42.340125" lon="0.729781">
        <ele>843.154</ele>
        <time>2018-11-24T10:22:14Z</time>
      </trkpt>
      <trkpt lat="42.340336" lon="0.729851">
        <ele>844.195</ele>
        <time>2018-11-24T10:22:15Z</time>
      </trkpt>
      <trkpt lat="42.340535" lon="0.729913">
        <ele>845.184</ele>
        <time>2018-11-24T10:22:16Z</time>
      </trkpt>
      <trkpt lat="42.340725" lon="0.729979">
        <ele>845.884</ele>
        <time>2018-11-24T10:22:17Z</time>
      </trkpt>
      <trkpt lat="42.340909" lon="0.730076">
        <ele>846.779</ele>
        <time>2018-11-24T10:22:18Z</time>
      </trkpt>
      <trkpt lat="42.341085" lon="0.730188">
        <ele>847.628</ele>
        <time>2018-11-24T10:22:19Z</time>
      </trkpt>
      <trkpt lat="42.341210" lon="0.730375">
        <ele>848.689</ele>
        <time>2018-11-24T10:22:20Z</time>
      </trkpt>
      <trkpt lat="42.341319" lon="0.730600">
        <ele>849.417</ele>
        <time>2018-11-24T10:22:21Z</time>
      </trkpt>
      <trkpt lat="42.341409" lon="0.730812">
        <ele>850.308</ele>
        <time>2018-11-24T10:22:22Z</time>
      </trkpt>
      <trkpt lat="42.341511" lon="0.731004">
        <ele>851.015</ele>
        <time>2018-11-24T10:22:23Z</time>
      </trkpt>
      <trkpt lat="42.341630" lon="0.731176">
        <ele>851.922</ele>
        <time>2018-11-24T10:22:24Z</time>
      </trkpt>
      <trkpt lat="42.341772" lon="0.731315">
        <ele>853.039</ele>
        <time>2018-11-24T10:22:25Z</time>
      </trkpt>
      <trkpt lat="42.341931" lon="0.731411">
        <ele>854.019</ele>
        <time>2018-11-24T10:22:26Z</time>
      </trkpt>
      <trkpt lat="42.342096" lon="0.731493">
        <ele>855.220</ele>
        <time>2018-11-24T10:22:27Z</time>
      </trkpt>
      <trkpt lat="42.342257" lon="0.731575">
        <ele>856.199</ele>
        <time>2018-11-24T10:22:28Z</time>
      </trkpt>
      <trkpt lat="42.342400" lon="0.731678">
        <ele>857.259</ele>
        <time>2018-11-24T10:22:29Z</time>
      </trkpt>
      <trkpt lat="42.342517" lon="0.731849">
        <ele>858.414</ele>
        <time>2018-11-24T10:22:30Z</time>
      </trkpt>
      <trkpt lat="42.342606" lon="0.732056">
        <ele>859.523</ele>
        <time>2018-11-24T10:22:31Z</time>
      </trkpt>
      <trkpt lat="42.342680" lon="0.732256">
        <ele>860.683</ele>
        <time>2018-11-24T10:22:32Z</time>
      </trkpt>
      <trkpt lat="42.342730" lon="0.732490">
        <ele>862.011</ele>
        <time>2018-11-24T10:22:33Z</time>
      </trkpt>
      <trkpt lat="42.342781" lon="0.732718">
        <ele>863.208</ele>
        <time>2018-11-24T10:22:34Z</time>
      </trkpt>
      <trkpt lat="42.342832" lon="0.732942">
        <ele>864.245</ele>
        <time>2018-11-24T10:22:35Z</time>
      </trkpt>
      <trkpt lat="42.342887" lon="0.733175">
        <ele>865.452</ele>
        <time>2018-11-24T10:22:36Z</time>
      </trkpt>
      <trkpt lat="42.342952" lon="0.733410">
        <ele>866.379</ele>
        <time>2018-11-24T10:22:37Z</time>
      </trkpt>
      <trkpt lat="42.343030" lon="0.733648">
        <ele>867.659</ele>
        <time>2018-11-24T10:22:38Z</time>
      </trkpt>
      <trkpt lat="42.343122" lon="0.733872">
        <ele>868.580</ele>
        <time>2018-11-24T10:22:39Z</time>
      </trkpt>
      <trkpt lat="42.343213" lon="0.734076">
        <ele>869.179</ele>
        <time>2018-11-24T10:22:40Z</time>
      </trkpt>
      <trkpt lat="42.343306" lon="0.734251">
        <ele>869.589</ele>
        <time>2018-11-24T10:22:41Z</time>
      </trkpt>
      <trkpt lat="42.343402" lon="0.734389">
        <ele>869.884</ele>
        <time>2018-11-24T10:22:42Z</time>
      </trkpt>
      <trkpt lat="42.343515" lon="0.734489">
        <ele>870.222</ele>
        <time>2018-11-24T10:22:43Z</time>
      </trkpt>
      <trkpt lat="42.343649" lon="0.734535">
        <ele>870.862</ele>
        <time>2018-11-24T10:22:44Z</time>
      </trkpt>
      <trkpt lat="42.343787" lon="0.734525">
        <ele>871.608</ele>
        <time>2018-11-24T10:22:45Z</time>
      </trkpt>
      <trkpt lat="42.343921" lon="0.734494">
        <ele>872.108</ele>
        <time>2018-11-24T10:22:46Z</time>
      </trkpt>
      <trkpt lat="42.344029" lon="0.734355">
        <ele>872.655</ele>
        <time>2018-11-24T10:22:47Z</time>
      </trkpt>
      <trkpt lat="42.344119" lon="0.734220">
        <ele>873.072</ele>
        <time>2018-11-24T10:22:48Z</time>
      </trkpt>
      <trkpt lat="42.344206" lon="0.734070">
        <ele>873.439</ele>
        <time>2018-11-24T10:22:49Z</time>
      </trkpt>
      <trkpt lat="42.344303" lon="0.733940">
        <ele>873.789</ele>
        <time>2018-11-24T10:22:50Z</time>
      </trkpt>
      <trkpt lat="42.344422" lon="0.733843">
        <ele>873.850</ele>
        <time>2018-11-24T10:22:51Z</time>
      </trkpt>
      <trkpt lat="42.344547" lon="0.733750">
        <ele>874.019</ele>
        <time>2018-11-24T10:22:52Z</time>
      </trkpt>
      <trkpt lat="42.344703" lon="0.733770">
        <ele>874.259</ele>
        <time>2018-11-24T10:22:53Z</time>
      </trkpt>
      <trkpt lat="42.344852" lon="0.733871">
        <ele>874.314</ele>
        <time>2018-11-24T10:22:54Z</time>
      </trkpt>
      <trkpt lat="42.344984" lon="0.734014">
        <ele>874.173</ele>
        <time>2018-11-24T10:22:55Z</time>
      </trkpt>
      <trkpt lat="42.345101" lon="0.734173">
        <ele>873.585</ele>
        <time>2018-11-24T10:22:56Z</time>
      </trkpt>
      <trkpt lat="42.345229" lon="0.734315">
        <ele>872.713</ele>
        <time>2018-11-24T10:22:57Z</time>
      </trkpt>
      <trkpt lat="42.345371" lon="0.734433">
        <ele>871.908</ele>
        <time>2018-11-24T10:22:58Z</time>
      </trkpt>
      <trkpt lat="42.345528" lon="0.734504">
        <ele>871.210</ele>
        <time>2018-11-24T10:22:59Z</time>
      </trkpt>
      <trkpt lat="42.345686" lon="0.734553">
        <ele>870.327</ele>
        <time>2018-11-24T10:23:00Z</time>
      </trkpt>
      <trkpt lat="42.345848" lon="0.734602">
        <ele>869.434</ele>
        <time>2018-11-24T10:23:01Z</time>
      </trkpt>
      <trkpt lat="42.346004" lon="0.734675">
        <ele>868.614</ele>
        <time>2018-11-24T10:23:02Z</time>
      </trkpt>
      <trkpt lat="42.346152" lon="0.734788">
        <ele>867.875</ele>
        <time>2018-11-24T10:23:03Z</time>
      </trkpt>
      <trkpt lat="42.346287" lon="0.734919">
        <ele>867.674</ele>
        <time>2018-11-24T10:23:04Z</time>
      </trkpt>
      <trkpt lat="42.346394" lon="0.735104">
        <ele>867.724</ele>
        <time>2018-11-24T10:23:05Z</time>
      </trkpt>
      <trkpt lat="42.346466" lon="0.735341">
        <ele>867.899</ele>
        <time>2018-11-24T10:23:06Z</time>
      </trkpt>
      <trkpt lat="42.346509" lon="0.735597">
        <ele>867.854</ele>
        <time>2018-11-24T10:23:07Z</time>
      </trkpt>
      <trkpt lat="42.346541" lon="0.735840">
        <ele>867.856</ele>
        <time>2018-11-24T10:23:08Z</time>
      </trkpt>
      <trkpt lat="42.346570" lon="0.736073">
        <ele>867.811</ele>
        <time>2018-11-24T10:23:09Z</time>
      </trkpt>
      <trkpt lat="42.346594" lon="0.736309">
        <ele>868.108</ele>
        <time>2018-11-24T10:23:10Z</time>
      </trkpt>
      <trkpt lat="42.346609" lon="0.736549">
        <ele>868.518</ele>
        <time>2018-11-24T10:23:11Z</time>
      </trkpt>
      <trkpt lat="42.346631" lon="0.736779">
        <ele>869.345</ele>
        <time>2018-11-24T10:23:12Z</time>
      </trkpt>
      <trkpt lat="42.346671" lon="0.737012">
        <ele>870.122</ele>
        <time>2018-11-24T10:23:13Z</time>
      </trkpt>
      <trkpt lat="42.346725" lon="0.737231">
        <ele>871.352</ele>
        <time>2018-11-24T10:23:14Z</time>
      </trkpt>
      <trkpt lat="42.346802" lon="0.737454">
        <ele>872.373</ele>
        <time>2018-11-24T10:23:15Z</time>
      </trkpt>
      <trkpt lat="42.346891" lon="0.737667">
        <ele>873.632</ele>
        <time>2018-11-24T10:23:16Z</time>
      </trkpt>
      <trkpt lat="42.346982" lon="0.737876">
        <ele>874.732</ele>
        <time>2018-11-24T10:23:17Z</time>
      </trkpt>
      <trkpt lat="42.347073" lon="0.738087">
        <ele>876.087</ele>
        <time>2018-11-24T10:23:18Z</time>
      </trkpt>
      <trkpt lat="42.347163" lon="0.738299">
        <ele>877.137</ele>
        <time>2018-11-24T10:23:19Z</time>
      </trkpt>
      <trkpt lat="42.347246" lon="0.738501">
        <ele>878.249</ele>
        <time>2018-11-24T10:23:20Z</time>
      </trkpt>
      <trkpt lat="42.347314" lon="0.738706">
        <ele>879.313</ele>
        <time>2018-11-24T10:23:21Z</time>
      </trkpt>
      <trkpt lat="42.347340" lon="0.738918">
        <ele>880.108</ele>
        <time>2018-11-24T10:23:22Z</time>
      </trkpt>
      <trkpt lat="42.347343" lon="0.739133">
        <ele>881.326</ele>
        <time>2018-11-24T10:23:23Z</time>
      </trkpt>
      <trkpt lat="42.347325" lon="0.739341">
        <ele>882.363</ele>
        <time>2018-11-24T10:23:24Z</time>
      </trkpt>
      <trkpt lat="42.347303" lon="0.739552">
        <ele>883.480</ele>
        <time>2018-11-24T10:23:25Z</time>
      </trkpt>
      <trkpt lat="42.347279" lon="0.739762">
        <ele>884.480</ele>
        <time>2018-11-24T10:23:26Z</time>
      </trkpt>
      <trkpt lat="42.347288" lon="0.739966">
        <ele>885.571</ele>
        <time>2018-11-24T10:23:27Z</time>
      </trkpt>
      <trkpt lat="42.347333" lon="0.740157">
        <ele>886.750</ele>
        <time>2018-11-24T10:23:28Z</time>
      </trkpt>
      <trkpt lat="42.347386" lon="0.740342">
        <ele>887.660</ele>
        <time>2018-11-24T10:23:29Z</time>
      </trkpt>
      <trkpt lat="42.347473" lon="0.740511">
        <ele>888.835</ele>
        <time>2018-11-24T10:23:30Z</time>
      </trkpt>
      <trkpt lat="42.347562" lon="0.740687">
        <ele>889.969</ele>
        <time>2018-11-24T10:23:31Z</time>
      </trkpt>
      <trkpt lat="42.347628" lon="0.740877">
        <ele>891.004</ele>
        <time>2018-11-24T10:23:32Z</time>
      </trkpt>
      <trkpt lat="42.347685" lon="0.741076">
        <ele>891.924</ele>
        <time>2018-11-24T10:23:33Z</time>
      </trkpt>
      <trkpt lat="42.347711" lon="0.741307">
        <ele>893.308</ele>
        <time>2018-11-24T10:23:34Z</time>
      </trkpt>
      <trkpt lat="42.347717" lon="0.741541">
        <ele>894.529</ele>
        <time>2018-11-24T10:23:35Z</time>
      </trkpt>
      <trkpt lat="42.347697" lon="0.741770">
        <ele>896.026</ele>
        <time>2018-11-24T10:23:36Z</time>
      </trkpt>
      <trkpt lat="42.347647" lon="0.741999">
        <ele>897.073</ele>
        <time>2018-11-24T10:23:37Z</time>
      </trkpt>
      <trkpt lat="42.347579" lon="0.742214">
        <ele>898.323</ele>
        <time>2018-11-24T10:23:38Z</time>
      </trkpt>
      <trkpt lat="42.347509" lon="0.742430">
        <ele>899.754</ele>
        <time>2018-11-24T10:23:39Z</time>
      </trkpt>
      <trkpt lat="42.347443" lon="0.742647">
        <ele>900.923</ele>
        <time>2018-11-24T10:23:40Z</time>
      </trkpt>
      <trkpt lat="42.347385" lon="0.742864">
        <ele>902.253</ele>
        <time>2018-11-24T10:23:41Z</time>
      </trkpt>
      <trkpt lat="42.347347" lon="0.743085">
        <ele>903.368</ele>
        <time>2018-11-24T10:23:42Z</time>
      </trkpt>
      <trkpt lat="42.347320" lon="0.743301">
        <ele>904.214</ele>
        <time>2018-11-24T10:23:43Z</time>
      </trkpt>
      <trkpt lat="42.347351" lon="0.743525">
        <ele>905.054</ele>
        <time>2018-11-24T10:23:44Z</time>
      </trkpt>
      <trkpt lat="42.347412" lon="0.743725">
        <ele>905.809</ele>
        <time>2018-11-24T10:23:45Z</time>
      </trkpt>
      <trkpt lat="42.347489" lon="0.743921">
        <ele>906.508</ele>
        <time>2018-11-24T10:23:46Z</time>
      </trkpt>
      <trkpt lat="42.347614" lon="0.744076">
        <ele>907.174</ele>
        <time>2018-11-24T10:23:47Z</time>
      </trkpt>
      <trkpt lat="42.347751" lon="0.744235">
        <ele>907.861</ele>
        <time>2018-11-24T10:23:48Z</time>
      </trkpt>
      <trkpt lat="42.347892" lon="0.744396">
        <ele>908.028</ele>
        <time>2018-11-24T10:23:49Z</time>
      </trkpt>
      <trkpt lat="42.348043" lon="0.744560">
        <ele>908.568</ele>
        <time>2018-11-24T10:23:50Z</time>
      </trkpt>
      <trkpt lat="42.348186" lon="0.744726">
        <ele>908.999</ele>
        <time>2018-11-24T10:23:51Z</time>
      </trkpt>
      <trkpt lat="42.348323" lon="0.744913">
        <ele>909.358</ele>
        <time>2018-11-24T10:23:52Z</time>
      </trkpt>
      <trkpt lat="42.348406" lon="0.745166">
        <ele>909.598</ele>
        <time>2018-11-24T10:23:53Z</time>
      </trkpt>
      <trkpt lat="42.348458" lon="0.745416">
        <ele>910.283</ele>
        <time>2018-11-24T10:23:54Z</time>
      </trkpt>
      <trkpt lat="42.348501" lon="0.745672">
        <ele>910.688</ele>
        <time>2018-11-24T10:23:55Z</time>
      </trkpt>
      <trkpt lat="42.348545" lon="0.745903">
        <ele>910.824</ele>
        <time>2018-11-24T10:23:56Z</time>
      </trkpt>
      <trkpt lat="42.348604" lon="0.746109">
        <ele>910.926</ele>
        <time>2018-11-24T10:23:57Z</time>
      </trkpt>
      <trkpt lat="42.348663" lon="0.746317">
        <ele>911.508</ele>
        <time>2018-11-24T10:23:58Z</time>
      </trkpt>
      <trkpt lat="42.349021" lon="0.746988">
        <ele>913.311</ele>
        <time>2018-11-24T10:24:02Z</time>
      </trkpt>
      <trkpt lat="42.349164" lon="0.747060">
        <ele>912.958</ele>
        <time>2018-11-24T10:24:03Z</time>
      </trkpt>
      <trkpt lat="42.349334" lon="0.747057">
        <ele>913.275</ele>
        <time>2018-11-24T10:24:04Z</time>
      </trkpt>
      <trkpt lat="42.349650" lon="0.746836">
        <ele>913.595</ele>
        <time>2018-11-24T10:24:05Z</time>
      </trkpt>
      <trkpt lat="42.349829" lon="0.746756">
        <ele>913.946</ele>
        <time>2018-11-24T10:24:06Z</time>
      </trkpt>
      <trkpt lat="42.350010" lon="0.746686">
        <ele>914.325</ele>
        <time>2018-11-24T10:24:07Z</time>
      </trkpt>
      <trkpt lat="42.350169" lon="0.746592">
        <ele>914.695</ele>
        <time>2018-11-24T10:24:08Z</time>
      </trkpt>
      <trkpt lat="42.350316" lon="0.746522">
        <ele>914.740</ele>
        <time>2018-11-24T10:24:09Z</time>
      </trkpt>
      <trkpt lat="42.350476" lon="0.746458">
        <ele>915.043</ele>
        <time>2018-11-24T10:24:10Z</time>
      </trkpt>
      <trkpt lat="42.350637" lon="0.746471">
        <ele>915.264</ele>
        <time>2018-11-24T10:24:11Z</time>
      </trkpt>
      <trkpt lat="42.350803" lon="0.746481">
        <ele>915.810</ele>
        <time>2018-11-24T10:24:12Z</time>
      </trkpt>
      <trkpt lat="42.350956" lon="0.746578">
        <ele>916.308</ele>
        <time>2018-11-24T10:24:13Z</time>
      </trkpt>
      <trkpt lat="42.351096" lon="0.746675">
        <ele>917.017</ele>
        <time>2018-11-24T10:24:14Z</time>
      </trkpt>
      <trkpt lat="42.351238" lon="0.746760">
        <ele>917.554</ele>
        <time>2018-11-24T10:24:15Z</time>
      </trkpt>
      <trkpt lat="42.351397" lon="0.746817">
        <ele>917.841</ele>
        <time>2018-11-24T10:24:16Z</time>
      </trkpt>
      <trkpt lat="42.351547" lon="0.746891">
        <ele>917.941</ele>
        <time>2018-11-24T10:24:17Z</time>
      </trkpt>
      <trkpt lat="42.351705" lon="0.746909">
        <ele>917.682</ele>
        <time>2018-11-24T10:24:18Z</time>
      </trkpt>
      <trkpt lat="42.351865" lon="0.746899">
        <ele>917.131</ele>
        <time>2018-11-24T10:24:19Z</time>
      </trkpt>
      <trkpt lat="42.352017" lon="0.746821">
        <ele>916.591</ele>
        <time>2018-11-24T10:24:20Z</time>
      </trkpt>
      <trkpt lat="42.352152" lon="0.746717">
        <ele>915.456</ele>
        <time>2018-11-24T10:24:21Z</time>
      </trkpt>
      <trkpt lat="42.352276" lon="0.746596">
        <ele>914.179</ele>
        <time>2018-11-24T10:24:22Z</time>
      </trkpt>
      <trkpt lat="42.352416" lon="0.746558">
        <ele>912.705</ele>
        <time>2018-11-24T10:24:23Z</time>
      </trkpt>
      <trkpt lat="42.352552" lon="0.746545">
        <ele>911.425</ele>
        <time>2018-11-24T10:24:24Z</time>
      </trkpt>
      <trkpt lat="42.352693" lon="0.746541">
        <ele>910.608</ele>
        <time>2018-11-24T10:24:25Z</time>
      </trkpt>
      <trkpt lat="42.352806" lon="0.746684">
        <ele>909.670</ele>
        <time>2018-11-24T10:24:26Z</time>
      </trkpt>
      <trkpt lat="42.352920" lon="0.746824">
        <ele>908.777</ele>
        <time>2018-11-24T10:24:27Z</time>
      </trkpt>
      <trkpt lat="42.353032" lon="0.746958">
        <ele>907.964</ele>
        <time>2018-11-24T10:24:28Z</time>
      </trkpt>
      <trkpt lat="42.353154" lon="0.747084">
        <ele>907.054</ele>
        <time>2018-11-24T10:24:29Z</time>
      </trkpt>
      <trkpt lat="42.353287" lon="0.747180">
        <ele>905.955</ele>
        <time>2018-11-24T10:24:30Z</time>
      </trkpt>
      <trkpt lat="42.353440" lon="0.747169">
        <ele>904.814</ele>
        <time>2018-11-24T10:24:31Z</time>
      </trkpt>
      <trkpt lat="42.353599" lon="0.747118">
        <ele>904.064</ele>
        <time>2018-11-24T10:24:32Z</time>
      </trkpt>
      <trkpt lat="42.353746" lon="0.746988">
        <ele>903.029</ele>
        <time>2018-11-24T10:24:33Z</time>
      </trkpt>
      <trkpt lat="42.353882" lon="0.746857">
        <ele>902.141</ele>
        <time>2018-11-24T10:24:34Z</time>
      </trkpt>
      <trkpt lat="42.354020" lon="0.746721">
        <ele>901.081</ele>
        <time>2018-11-24T10:24:35Z</time>
      </trkpt>
      <trkpt lat="42.354159" lon="0.746570">
        <ele>900.209</ele>
        <time>2018-11-24T10:24:36Z</time>
      </trkpt>
      <trkpt lat="42.354304" lon="0.746426">
        <ele>899.508</ele>
        <time>2018-11-24T10:24:37Z</time>
      </trkpt>
      <trkpt lat="42.354464" lon="0.746301">
        <ele>899.137</ele>
        <time>2018-11-24T10:24:38Z</time>
      </trkpt>
      <trkpt lat="42.354634" lon="0.746182">
        <ele>899.024</ele>
        <time>2018-11-24T10:24:39Z</time>
      </trkpt>
      <trkpt lat="42.356253" lon="0.745279">
        <ele>902.641</ele>
        <time>2018-11-24T10:24:49Z</time>
      </trkpt>
      <trkpt lat="42.356401" lon="0.745208">
        <ele>902.511</ele>
        <time>2018-11-24T10:24:50Z</time>
      </trkpt>
      <trkpt lat="42.356525" lon="0.745097">
        <ele>902.142</ele>
        <time>2018-11-24T10:24:51Z</time>
      </trkpt>
      <trkpt lat="42.356653" lon="0.744953">
        <ele>901.591</ele>
        <time>2018-11-24T10:24:52Z</time>
      </trkpt>
      <trkpt lat="42.356770" lon="0.744784">
        <ele>900.611</ele>
        <time>2018-11-24T10:24:53Z</time>
      </trkpt>
      <trkpt lat="42.356882" lon="0.744613">
        <ele>899.956</ele>
        <time>2018-11-24T10:24:54Z</time>
      </trkpt>
      <trkpt lat="42.356987" lon="0.744428">
        <ele>899.148</ele>
        <time>2018-11-24T10:24:55Z</time>
      </trkpt>
      <trkpt lat="42.357052" lon="0.744220">
        <ele>898.761</ele>
        <time>2018-11-24T10:24:56Z</time>
      </trkpt>
      <trkpt lat="42.357119" lon="0.744011">
        <ele>898.117</ele>
        <time>2018-11-24T10:24:57Z</time>
      </trkpt>
      <trkpt lat="42.357177" lon="0.743799">
        <ele>897.508</ele>
        <time>2018-11-24T10:24:58Z</time>
      </trkpt>
      <trkpt lat="42.357232" lon="0.743597">
        <ele>896.987</ele>
        <time>2018-11-24T10:24:59Z</time>
      </trkpt>
      <trkpt lat="42.357294" lon="0.743407">
        <ele>896.414</ele>
        <time>2018-11-24T10:25:00Z</time>
      </trkpt>
      <trkpt lat="42.357380" lon="0.743232">
        <ele>896.191</ele>
        <time>2018-11-24T10:25:01Z</time>
      </trkpt>
      <trkpt lat="42.357501" lon="0.743112">
        <ele>895.971</ele>
        <time>2018-11-24T10:25:02Z</time>
      </trkpt>
      <trkpt lat="42.357642" lon="0.743018">
        <ele>895.942</ele>
        <time>2018-11-24T10:25:03Z</time>
      </trkpt>
      <trkpt lat="42.357799" lon="0.743003">
        <ele>895.931</ele>
        <time>2018-11-24T10:25:04Z</time>
      </trkpt>
      <trkpt lat="42.357955" lon="0.743004">
        <ele>895.761</ele>
        <time>2018-11-24T10:25:05Z</time>
      </trkpt>
      <trkpt lat="42.358104" lon="0.742977">
        <ele>895.466</ele>
        <time>2018-11-24T10:25:06Z</time>
      </trkpt>
      <trkpt lat="42.358242" lon="0.742920">
        <ele>895.242</ele>
        <time>2018-11-24T10:25:07Z</time>
      </trkpt>
      <trkpt lat="42.358347" lon="0.742792">
        <ele>895.122</ele>
        <time>2018-11-24T10:25:08Z</time>
      </trkpt>
      <trkpt lat="42.358403" lon="0.742610">
        <ele>895.214</ele>
        <time>2018-11-24T10:25:09Z</time>
      </trkpt>
      <trkpt lat="42.358431" lon="0.742405">
        <ele>895.208</ele>
        <time>2018-11-24T10:25:10Z</time>
      </trkpt>
      <trkpt lat="42.358426" lon="0.742172">
        <ele>895.097</ele>
        <time>2018-11-24T10:25:11Z</time>
      </trkpt>
      <trkpt lat="42.358420" lon="0.741957">
        <ele>894.724</ele>
        <time>2018-11-24T10:25:12Z</time>
      </trkpt>
      <trkpt lat="42.358412" lon="0.741760">
        <ele>895.131</ele>
        <time>2018-11-24T10:25:13Z</time>
      </trkpt>
      <trkpt lat="42.358408" lon="0.741569">
        <ele>894.351</ele>
        <time>2018-11-24T10:25:14Z</time>
      </trkpt>
      <trkpt lat="42.358403" lon="0.741388">
        <ele>893.872</ele>
        <time>2018-11-24T10:25:15Z</time>
      </trkpt>
      <trkpt lat="42.358413" lon="0.741213">
        <ele>893.451</ele>
        <time>2018-11-24T10:25:16Z</time>
      </trkpt>
      <trkpt lat="42.358438" lon="0.741036">
        <ele>893.021</ele>
        <time>2018-11-24T10:25:17Z</time>
      </trkpt>
      <trkpt lat="42.358502" lon="0.740881">
        <ele>892.926</ele>
        <time>2018-11-24T10:25:18Z</time>
      </trkpt>
      <trkpt lat="42.358582" lon="0.740726">
        <ele>892.782</ele>
        <time>2018-11-24T10:25:19Z</time>
      </trkpt>
      <trkpt lat="42.358725" lon="0.740664">
        <ele>892.643</ele>
        <time>2018-11-24T10:25:20Z</time>
      </trkpt>
      <trkpt lat="42.358881" lon="0.740634">
        <ele>892.417</ele>
        <time>2018-11-24T10:25:21Z</time>
      </trkpt>
      <trkpt lat="42.359032" lon="0.740688">
        <ele>892.308</ele>
        <time>2018-11-24T10:25:22Z</time>
      </trkpt>
      <trkpt lat="42.359153" lon="0.740822">
        <ele>892.281</ele>
        <time>2018-11-24T10:25:23Z</time>
      </trkpt>
      <trkpt lat="42.359250" lon="0.740997">
        <ele>892.528</ele>
        <time>2018-11-24T10:25:24Z</time>
      </trkpt>
      <trkpt lat="42.359340" lon="0.741200">
        <ele>893.025</ele>
        <time>2018-11-24T10:25:25Z</time>
      </trkpt>
      <trkpt lat="42.359422" lon="0.741405">
        <ele>893.145</ele>
        <time>2018-11-24T10:25:26Z</time>
      </trkpt>
      <trkpt lat="42.359502" lon="0.741613">
        <ele>893.196</ele>
        <time>2018-11-24T10:25:27Z</time>
      </trkpt>
      <trkpt lat="42.359583" lon="0.741813">
        <ele>892.925</ele>
        <time>2018-11-24T10:25:28Z</time>
      </trkpt>
      <trkpt lat="42.359669" lon="0.741992">
        <ele>892.485</ele>
        <time>2018-11-24T10:25:29Z</time>
      </trkpt>
      <trkpt lat="42.359765" lon="0.742160">
        <ele>892.130</ele>
        <time>2018-11-24T10:25:30Z</time>
      </trkpt>
      <trkpt lat="42.359898" lon="0.742280">
        <ele>891.938</ele>
        <time>2018-11-24T10:25:31Z</time>
      </trkpt>
      <trkpt lat="42.360046" lon="0.742384">
        <ele>891.670</ele>
        <time>2018-11-24T10:25:32Z</time>
      </trkpt>
      <trkpt lat="42.360226" lon="0.742405">
        <ele>891.417</ele>
        <time>2018-11-24T10:25:33Z</time>
      </trkpt>
      <trkpt lat="42.360404" lon="0.742381">
        <ele>891.208</ele>
        <time>2018-11-24T10:25:34Z</time>
      </trkpt>
      <trkpt lat="42.360584" lon="0.742276">
        <ele>891.046</ele>
        <time>2018-11-24T10:25:35Z</time>
      </trkpt>
      <trkpt lat="42.360764" lon="0.742177">
        <ele>890.623</ele>
        <time>2018-11-24T10:25:36Z</time>
      </trkpt>
      <trkpt lat="42.360942" lon="0.742077">
        <ele>890.360</ele>
        <time>2018-11-24T10:25:37Z</time>
      </trkpt>
      <trkpt lat="42.361113" lon="0.741989">
        <ele>889.680</ele>
        <time>2018-11-24T10:25:38Z</time>
      </trkpt>
      <trkpt lat="42.361281" lon="0.741909">
        <ele>888.951</ele>
        <time>2018-11-24T10:25:39Z</time>
      </trkpt>
      <trkpt lat="42.361438" lon="0.741829">
        <ele>888.340</ele>
        <time>2018-11-24T10:25:40Z</time>
      </trkpt>
      <trkpt lat="42.361593" lon="0.741743">
        <ele>887.770</ele>
        <time>2018-11-24T10:25:41Z</time>
      </trkpt>
      <trkpt lat="42.361734" lon="0.741636">
        <ele>887.565</ele>
        <time>2018-11-24T10:25:42Z</time>
      </trkpt>
      <trkpt lat="42.361850" lon="0.741464">
        <ele>887.629</ele>
        <time>2018-11-24T10:25:43Z</time>
      </trkpt>
      <trkpt lat="42.361972" lon="0.741281">
        <ele>887.500</ele>
        <time>2018-11-24T10:25:44Z</time>
      </trkpt>
      <trkpt lat="42.362016" lon="0.741028">
        <ele>887.320</ele>
        <time>2018-11-24T10:25:45Z</time>
      </trkpt>
      <trkpt lat="42.362063" lon="0.740763">
        <ele>887.208</ele>
        <time>2018-11-24T10:25:46Z</time>
      </trkpt>
      <trkpt lat="42.362127" lon="0.740507">
        <ele>886.965</ele>
        <time>2018-11-24T10:25:47Z</time>
      </trkpt>
      <trkpt lat="42.362191" lon="0.740254">
        <ele>886.832</ele>
        <time>2018-11-24T10:25:48Z</time>
      </trkpt>
      <trkpt lat="42.362268" lon="0.740013">
        <ele>886.639</ele>
        <time>2018-11-24T10:25:49Z</time>
      </trkpt>
      <trkpt lat="42.362352" lon="0.739776">
        <ele>886.379</ele>
        <time>2018-11-24T10:25:50Z</time>
      </trkpt>
      <trkpt lat="42.362479" lon="0.739578">
        <ele>885.970</ele>
        <time>2018-11-24T10:25:51Z</time>
      </trkpt>
      <trkpt lat="42.362610" lon="0.739402">
        <ele>885.619</ele>
        <time>2018-11-24T10:25:52Z</time>
      </trkpt>
      <trkpt lat="42.362756" lon="0.739254">
        <ele>885.539</ele>
        <time>2018-11-24T10:25:53Z</time>
      </trkpt>
      <trkpt lat="42.362887" lon="0.739100">
        <ele>885.434</ele>
        <time>2018-11-24T10:25:54Z</time>
      </trkpt>
      <trkpt lat="42.363022" lon="0.738954">
        <ele>885.463</ele>
        <time>2018-11-24T10:25:55Z</time>
      </trkpt>
      <trkpt lat="42.363154" lon="0.738810">
        <ele>885.444</ele>
        <time>2018-11-24T10:25:56Z</time>
      </trkpt>
      <trkpt lat="42.363284" lon="0.738670">
        <ele>885.518</ele>
        <time>2018-11-24T10:25:57Z</time>
      </trkpt>
      <trkpt lat="42.363410" lon="0.738528">
        <ele>885.708</ele>
        <time>2018-11-24T10:25:58Z</time>
      </trkpt>
      <trkpt lat="42.363528" lon="0.738374">
        <ele>886.169</ele>
        <time>2018-11-24T10:25:59Z</time>
      </trkpt>
      <trkpt lat="42.363633" lon="0.738207">
        <ele>886.616</ele>
        <time>2018-11-24T10:26:00Z</time>
      </trkpt>
      <trkpt lat="42.363712" lon="0.738016">
        <ele>886.963</ele>
        <time>2018-11-24T10:26:01Z</time>
      </trkpt>
      <trkpt lat="42.363767" lon="0.737810">
        <ele>887.573</ele>
        <time>2018-11-24T10:26:02Z</time>
      </trkpt>
      <trkpt lat="42.363795" lon="0.737590">
        <ele>887.964</ele>
        <time>2018-11-24T10:26:03Z</time>
      </trkpt>
      <trkpt lat="42.363805" lon="0.737367">
        <ele>888.353</ele>
        <time>2018-11-24T10:26:04Z</time>
      </trkpt>
      <trkpt lat="42.363802" lon="0.737137">
        <ele>888.833</ele>
        <time>2018-11-24T10:26:05Z</time>
      </trkpt>
      <trkpt lat="42.363799" lon="0.736906">
        <ele>889.218</ele>
        <time>2018-11-24T10:26:06Z</time>
      </trkpt>
      <trkpt lat="42.363809" lon="0.736681">
        <ele>889.545</ele>
        <time>2018-11-24T10:26:07Z</time>
      </trkpt>
      <trkpt lat="42.363845" lon="0.736462">
        <ele>889.647</ele>
        <time>2018-11-24T10:26:08Z</time>
      </trkpt>
      <trkpt lat="42.363914" lon="0.736262">
        <ele>889.811</ele>
        <time>2018-11-24T10:26:09Z</time>
      </trkpt>
      <trkpt lat="42.364017" lon="0.736093">
        <ele>890.208</ele>
        <time>2018-11-24T10:26:10Z</time>
      </trkpt>
      <trkpt lat="42.364146" lon="0.735958">
        <ele>890.697</ele>
        <time>2018-11-24T10:26:11Z</time>
      </trkpt>
      <trkpt lat="42.364289" lon="0.735847">
        <ele>891.194</ele>
        <time>2018-11-24T10:26:12Z</time>
      </trkpt>
      <trkpt lat="42.364438" lon="0.735742">
        <ele>891.651</ele>
        <time>2018-11-24T10:26:13Z</time>
      </trkpt>
      <trkpt lat="42.364590" lon="0.735637">
        <ele>892.161</ele>
        <time>2018-11-24T10:26:14Z</time>
      </trkpt>
      <trkpt lat="42.364740" lon="0.735533">
        <ele>892.432</ele>
        <time>2018-11-24T10:26:15Z</time>
      </trkpt>
      <trkpt lat="42.364888" lon="0.735426">
        <ele>892.891</ele>
        <time>2018-11-24T10:26:16Z</time>
      </trkpt>
      <trkpt lat="42.365026" lon="0.735302">
        <ele>893.251</ele>
        <time>2018-11-24T10:26:17Z</time>
      </trkpt>
      <trkpt lat="42.365158" lon="0.735173">
        <ele>893.686</ele>
        <time>2018-11-24T10:26:18Z</time>
      </trkpt>
      <trkpt lat="42.365265" lon="0.735005">
        <ele>894.023</ele>
        <time>2018-11-24T10:26:19Z</time>
      </trkpt>
      <trkpt lat="42.365329" lon="0.734798">
        <ele>894.283</ele>
        <time>2018-11-24T10:26:20Z</time>
      </trkpt>
      <trkpt lat="42.365405" lon="0.734613">
        <ele>894.411</ele>
        <time>2018-11-24T10:26:21Z</time>
      </trkpt>
      <trkpt lat="42.365437" lon="0.734416">
        <ele>894.808</ele>
        <time>2018-11-24T10:26:22Z</time>
      </trkpt>
      <trkpt lat="42.365464" lon="0.734227">
        <ele>894.865</ele>
        <time>2018-11-24T10:26:23Z</time>
      </trkpt>
      <trkpt lat="42.365471" lon="0.734030">
        <ele>894.742</ele>
        <time>2018-11-24T10:26:24Z</time>
      </trkpt>
      <trkpt lat="42.365498" lon="0.733858">
        <ele>894.689</ele>
        <time>2018-11-24T10:26:25Z</time>
      </trkpt>
      <trkpt lat="42.365518" lon="0.733686">
        <ele>894.659</ele>
        <time>2018-11-24T10:26:26Z</time>
      </trkpt>
      <trkpt lat="42.365582" lon="0.733554">
        <ele>894.060</ele>
        <time>2018-11-24T10:26:27Z</time>
      </trkpt>
      <trkpt lat="42.365677" lon="0.733463">
        <ele>894.019</ele>
        <time>2018-11-24T10:26:28Z</time>
      </trkpt>
      <trkpt lat="42.365802" lon="0.733439">
        <ele>894.119</ele>
        <time>2018-11-24T10:26:29Z</time>
      </trkpt>
      <trkpt lat="42.365934" lon="0.733438">
        <ele>893.994</ele>
        <time>2018-11-24T10:26:30Z</time>
      </trkpt>
      <trkpt lat="42.366081" lon="0.733436">
        <ele>893.863</ele>
        <time>2018-11-24T10:26:31Z</time>
      </trkpt>
      <trkpt lat="42.366241" lon="0.733419">
        <ele>893.744</ele>
        <time>2018-11-24T10:26:32Z</time>
      </trkpt>
      <trkpt lat="42.366397" lon="0.733373">
        <ele>893.518</ele>
        <time>2018-11-24T10:26:33Z</time>
      </trkpt>
      <trkpt lat="42.366538" lon="0.733277">
        <ele>893.308</ele>
        <time>2018-11-24T10:26:34Z</time>
      </trkpt>
      <trkpt lat="42.366671" lon="0.733135">
        <ele>893.349</ele>
        <time>2018-11-24T10:26:35Z</time>
      </trkpt>
      <trkpt lat="42.366803" lon="0.732972">
        <ele>893.456</ele>
        <time>2018-11-24T10:26:36Z</time>
      </trkpt>
      <trkpt lat="42.366939" lon="0.732793">
        <ele>893.473</ele>
        <time>2018-11-24T10:26:37Z</time>
      </trkpt>
      <trkpt lat="42.367078" lon="0.732609">
        <ele>893.353</ele>
        <time>2018-11-24T10:26:38Z</time>
      </trkpt>
      <trkpt lat="42.367215" lon="0.732430">
        <ele>893.074</ele>
        <time>2018-11-24T10:26:39Z</time>
      </trkpt>
      <trkpt lat="42.367347" lon="0.732251">
        <ele>892.723</ele>
        <time>2018-11-24T10:26:40Z</time>
      </trkpt>
      <trkpt lat="42.367475" lon="0.732075">
        <ele>892.353</ele>
        <time>2018-11-24T10:26:41Z</time>
      </trkpt>
      <trkpt lat="42.367594" lon="0.731913">
        <ele>891.968</ele>
        <time>2018-11-24T10:26:42Z</time>
      </trkpt>
      <trkpt lat="42.367712" lon="0.731776">
        <ele>891.457</ele>
        <time>2018-11-24T10:26:43Z</time>
      </trkpt>
      <trkpt lat="42.367831" lon="0.731681">
        <ele>891.000</ele>
        <time>2018-11-24T10:26:44Z</time>
      </trkpt>
      <trkpt lat="42.367945" lon="0.731599">
        <ele>890.820</ele>
        <time>2018-11-24T10:26:45Z</time>
      </trkpt>
      <trkpt lat="42.368072" lon="0.731597">
        <ele>890.808</ele>
        <time>2018-11-24T10:26:46Z</time>
      </trkpt>
      <trkpt lat="42.368181" lon="0.731716">
        <ele>890.918</ele>
        <time>2018-11-24T10:26:47Z</time>
      </trkpt>
      <trkpt lat="42.368283" lon="0.731840">
        <ele>891.115</ele>
        <time>2018-11-24T10:26:48Z</time>
      </trkpt>
      <trkpt lat="42.368288" lon="0.732064">
        <ele>891.472</ele>
        <time>2018-11-24T10:26:49Z</time>
      </trkpt>
      <trkpt lat="42.368248" lon="0.732289">
        <ele>892.172</ele>
        <time>2018-11-24T10:26:50Z</time>
      </trkpt>
      <trkpt lat="42.368170" lon="0.732493">
        <ele>893.123</ele>
        <time>2018-11-24T10:26:51Z</time>
      </trkpt>
      <trkpt lat="42.368080" lon="0.732695">
        <ele>894.512</ele>
        <time>2018-11-24T10:26:52Z</time>
      </trkpt>
      <trkpt lat="42.367990" lon="0.732906">
        <ele>895.772</ele>
        <time>2018-11-24T10:26:53Z</time>
      </trkpt>
      <trkpt lat="42.367899" lon="0.733108">
        <ele>897.047</ele>
        <time>2018-11-24T10:26:54Z</time>
      </trkpt>
      <trkpt lat="42.367818" lon="0.733315">
        <ele>898.067</ele>
        <time>2018-11-24T10:26:55Z</time>
      </trkpt>
      <trkpt lat="42.367755" lon="0.733518">
        <ele>899.381</ele>
        <time>2018-11-24T10:26:56Z</time>
      </trkpt>
      <trkpt lat="42.367712" lon="0.733740">
        <ele>900.419</ele>
        <time>2018-11-24T10:26:57Z</time>
      </trkpt>
      <trkpt lat="42.367710" lon="0.733972">
        <ele>901.908</ele>
        <time>2018-11-24T10:26:58Z</time>
      </trkpt>
      <trkpt lat="42.367722" lon="0.734209">
        <ele>903.589</ele>
        <time>2018-11-24T10:26:59Z</time>
      </trkpt>
      <trkpt lat="42.367764" lon="0.734453">
        <ele>904.816</ele>
        <time>2018-11-24T10:27:00Z</time>
      </trkpt>
      <trkpt lat="42.367793" lon="0.734696">
        <ele>905.993</ele>
        <time>2018-11-24T10:27:01Z</time>
      </trkpt>
      <trkpt lat="42.367774" lon="0.734926">
        <ele>907.473</ele>
        <time>2018-11-24T10:27:02Z</time>
      </trkpt>
      <trkpt lat="42.367720" lon="0.735153">
        <ele>908.994</ele>
        <time>2018-11-24T10:27:03Z</time>
      </trkpt>
      <trkpt lat="42.367639" lon="0.735370">
        <ele>910.663</ele>
        <time>2018-11-24T10:27:04Z</time>
      </trkpt>
      <trkpt lat="42.367559" lon="0.735577">
        <ele>911.843</ele>
        <time>2018-11-24T10:27:05Z</time>
      </trkpt>
      <trkpt lat="42.367501" lon="0.735786">
        <ele>912.578</ele>
        <time>2018-11-24T10:27:06Z</time>
      </trkpt>
      <trkpt lat="42.367469" lon="0.736000">
        <ele>912.993</ele>
        <time>2018-11-24T10:27:07Z</time>
      </trkpt>
      <trkpt lat="42.367449" lon="0.736215">
        <ele>913.165</ele>
        <time>2018-11-24T10:27:08Z</time>
      </trkpt>
      <trkpt lat="42.367492" lon="0.736439">
        <ele>912.821</ele>
        <time>2018-11-24T10:27:09Z</time>
      </trkpt>
      <trkpt lat="42.367547" lon="0.736675">
        <ele>912.308</ele>
        <time>2018-11-24T10:27:10Z</time>
      </trkpt>
      <trkpt lat="42.367617" lon="0.736925">
        <ele>911.642</ele>
        <time>2018-11-24T10:27:11Z</time>
      </trkpt>
      <trkpt lat="42.367679" lon="0.737168">
        <ele>911.039</ele>
        <time>2018-11-24T10:27:12Z</time>
      </trkpt>
      <trkpt lat="42.367733" lon="0.737407">
        <ele>910.366</ele>
        <time>2018-11-24T10:27:13Z</time>
      </trkpt>
      <trkpt lat="42.367798" lon="0.737630">
        <ele>909.626</ele>
        <time>2018-11-24T10:27:14Z</time>
      </trkpt>
      <trkpt lat="42.367867" lon="0.737837">
        <ele>908.937</ele>
        <time>2018-11-24T10:27:15Z</time>
      </trkpt>
      <trkpt lat="42.367983" lon="0.738020">
        <ele>908.876</ele>
        <time>2018-11-24T10:27:16Z</time>
      </trkpt>
      <trkpt lat="42.368128" lon="0.738184">
        <ele>908.716</ele>
        <time>2018-11-24T10:27:17Z</time>
      </trkpt>
      <trkpt lat="42.368307" lon="0.738334">
        <ele>908.641</ele>
        <time>2018-11-24T10:27:18Z</time>
      </trkpt>
      <trkpt lat="42.368486" lon="0.738465">
        <ele>908.436</ele>
        <time>2018-11-24T10:27:19Z</time>
      </trkpt>
      <trkpt lat="42.368668" lon="0.738592">
        <ele>907.717</ele>
        <time>2018-11-24T10:27:20Z</time>
      </trkpt>
      <trkpt lat="42.368848" lon="0.738720">
        <ele>907.018</ele>
        <time>2018-11-24T10:27:21Z</time>
      </trkpt>
      <trkpt lat="42.369024" lon="0.738849">
        <ele>906.208</ele>
        <time>2018-11-24T10:27:22Z</time>
      </trkpt>
      <trkpt lat="42.369204" lon="0.738989">
        <ele>905.886</ele>
        <time>2018-11-24T10:27:23Z</time>
      </trkpt>
      <trkpt lat="42.369379" lon="0.739139">
        <ele>905.113</ele>
        <time>2018-11-24T10:27:24Z</time>
      </trkpt>
      <trkpt lat="42.369537" lon="0.739300">
        <ele>904.340</ele>
        <time>2018-11-24T10:27:25Z</time>
      </trkpt>
      <trkpt lat="42.369689" lon="0.739470">
        <ele>903.380</ele>
        <time>2018-11-24T10:27:26Z</time>
      </trkpt>
      <trkpt lat="42.369841" lon="0.739638">
        <ele>902.481</ele>
        <time>2018-11-24T10:27:27Z</time>
      </trkpt>
      <trkpt lat="42.369984" lon="0.739794">
        <ele>901.020</ele>
        <time>2018-11-24T10:27:28Z</time>
      </trkpt>
      <trkpt lat="42.370121" lon="0.739931">
        <ele>899.760</ele>
        <time>2018-11-24T10:27:29Z</time>
      </trkpt>
      <trkpt lat="42.370267" lon="0.740056">
        <ele>898.215</ele>
        <time>2018-11-24T10:27:30Z</time>
      </trkpt>
      <trkpt lat="42.370418" lon="0.740180">
        <ele>897.443</ele>
        <time>2018-11-24T10:27:31Z</time>
      </trkpt>
      <trkpt lat="42.370617" lon="0.740216">
        <ele>896.264</ele>
        <time>2018-11-24T10:27:32Z</time>
      </trkpt>
      <trkpt lat="42.370820" lon="0.740240">
        <ele>895.110</ele>
        <time>2018-11-24T10:27:33Z</time>
      </trkpt>
      <trkpt lat="42.371025" lon="0.740277">
        <ele>893.708</ele>
        <time>2018-11-24T10:27:34Z</time>
      </trkpt>
      <trkpt lat="42.371230" lon="0.740317">
        <ele>893.027</ele>
        <time>2018-11-24T10:27:35Z</time>
      </trkpt>
      <trkpt lat="42.371436" lon="0.740378">
        <ele>892.674</ele>
        <time>2018-11-24T10:27:36Z</time>
      </trkpt>
      <trkpt lat="42.371623" lon="0.740499">
        <ele>892.591</ele>
        <time>2018-11-24T10:27:37Z</time>
      </trkpt>
      <trkpt lat="42.371793" lon="0.740649">
        <ele>892.271</ele>
        <time>2018-11-24T10:27:38Z</time>
      </trkpt>
      <trkpt lat="42.371966" lon="0.740801">
        <ele>891.792</ele>
        <time>2018-11-24T10:27:39Z</time>
      </trkpt>
      <trkpt lat="42.372127" lon="0.740934">
        <ele>891.251</ele>
        <time>2018-11-24T10:27:40Z</time>
      </trkpt>
      <trkpt lat="42.372289" lon="0.741046">
        <ele>890.871</ele>
        <time>2018-11-24T10:27:41Z</time>
      </trkpt>
      <trkpt lat="42.372462" lon="0.741123">
        <ele>890.826</ele>
        <time>2018-11-24T10:27:42Z</time>
      </trkpt>
      <trkpt lat="42.372647" lon="0.741180">
        <ele>891.132</ele>
        <time>2018-11-24T10:27:43Z</time>
      </trkpt>
      <trkpt lat="42.372840" lon="0.741187">
        <ele>891.292</ele>
        <time>2018-11-24T10:27:44Z</time>
      </trkpt>
      <trkpt lat="42.373036" lon="0.741195">
        <ele>891.311</ele>
        <time>2018-11-24T10:27:45Z</time>
      </trkpt>
      <trkpt lat="42.373232" lon="0.741200">
        <ele>891.208</ele>
        <time>2018-11-24T10:27:46Z</time>
      </trkpt>
      <trkpt lat="42.373425" lon="0.741204">
        <ele>891.466</ele>
        <time>2018-11-24T10:27:47Z</time>
      </trkpt>
      <trkpt lat="42.373619" lon="0.741188">
        <ele>891.433</ele>
        <time>2018-11-24T10:27:48Z</time>
      </trkpt>
      <trkpt lat="42.373802" lon="0.741160">
        <ele>891.130</ele>
        <time>2018-11-24T10:27:49Z</time>
      </trkpt>
      <trkpt lat="42.373983" lon="0.741088">
        <ele>890.730</ele>
        <time>2018-11-24T10:27:50Z</time>
      </trkpt>
      <trkpt lat="42.374164" lon="0.741002">
        <ele>889.731</ele>
        <time>2018-11-24T10:27:51Z</time>
      </trkpt>
      <trkpt lat="42.374344" lon="0.740921">
        <ele>888.810</ele>
        <time>2018-11-24T10:27:52Z</time>
      </trkpt>
      <trkpt lat="42.374528" lon="0.740862">
        <ele>887.780</ele>
        <time>2018-11-24T10:27:53Z</time>
      </trkpt>
      <trkpt lat="42.374715" lon="0.740859">
        <ele>886.865</ele>
        <time>2018-11-24T10:27:54Z</time>
      </trkpt>
      <trkpt lat="42.374908" lon="0.740912">
        <ele>885.923</ele>
        <time>2018-11-24T10:27:55Z</time>
      </trkpt>
      <trkpt lat="42.375099" lon="0.740983">
        <ele>885.183</ele>
        <time>2018-11-24T10:27:56Z</time>
      </trkpt>
      <trkpt lat="42.375289" lon="0.741061">
        <ele>884.211</ele>
        <time>2018-11-24T10:27:57Z</time>
      </trkpt>
      <trkpt lat="42.375478" lon="0.741144">
        <ele>882.908</ele>
        <time>2018-11-24T10:27:58Z</time>
      </trkpt>
      <trkpt lat="42.375664" lon="0.741252">
        <ele>881.935</ele>
        <time>2018-11-24T10:27:59Z</time>
      </trkpt>
      <trkpt lat="42.375841" lon="0.741384">
        <ele>880.992</ele>
        <time>2018-11-24T10:28:00Z</time>
      </trkpt>
      <trkpt lat="42.376007" lon="0.741538">
        <ele>879.779</ele>
        <time>2018-11-24T10:28:01Z</time>
      </trkpt>
      <trkpt lat="42.376157" lon="0.741683">
        <ele>878.599</ele>
        <time>2018-11-24T10:28:02Z</time>
      </trkpt>
      <trkpt lat="42.376298" lon="0.741810">
        <ele>877.150</ele>
        <time>2018-11-24T10:28:03Z</time>
      </trkpt>
      <trkpt lat="42.376439" lon="0.741902">
        <ele>875.859</ele>
        <time>2018-11-24T10:28:04Z</time>
      </trkpt>
      <trkpt lat="42.376593" lon="0.741946">
        <ele>874.829</ele>
        <time>2018-11-24T10:28:05Z</time>
      </trkpt>
      <trkpt lat="42.376765" lon="0.741938">
        <ele>874.274</ele>
        <time>2018-11-24T10:28:06Z</time>
      </trkpt>
      <trkpt lat="42.376951" lon="0.741888">
        <ele>873.453</ele>
        <time>2018-11-24T10:28:07Z</time>
      </trkpt>
      <trkpt lat="42.377149" lon="0.741824">
        <ele>872.504</ele>
        <time>2018-11-24T10:28:08Z</time>
      </trkpt>
      <trkpt lat="42.377349" lon="0.741765">
        <ele>870.914</ele>
        <time>2018-11-24T10:28:09Z</time>
      </trkpt>
      <trkpt lat="42.377549" lon="0.741709">
        <ele>869.508</ele>
        <time>2018-11-24T10:28:10Z</time>
      </trkpt>
      <trkpt lat="42.377744" lon="0.741646">
        <ele>867.788</ele>
        <time>2018-11-24T10:28:11Z</time>
      </trkpt>
      <trkpt lat="42.377934" lon="0.741565">
        <ele>866.175</ele>
        <time>2018-11-24T10:28:12Z</time>
      </trkpt>
      <trkpt lat="42.378116" lon="0.741455">
        <ele>864.472</ele>
        <time>2018-11-24T10:28:13Z</time>
      </trkpt>
      <trkpt lat="42.378291" lon="0.741323">
        <ele>863.142</ele>
        <time>2018-11-24T10:28:14Z</time>
      </trkpt>
      <trkpt lat="42.378468" lon="0.741195">
        <ele>861.383</ele>
        <time>2018-11-24T10:28:15Z</time>
      </trkpt>
      <trkpt lat="42.378653" lon="0.741078">
        <ele>859.962</ele>
        <time>2018-11-24T10:28:16Z</time>
      </trkpt>
      <trkpt lat="42.378867" lon="0.741031">
        <ele>858.572</ele>
        <time>2018-11-24T10:28:17Z</time>
      </trkpt>
      <trkpt lat="42.379084" lon="0.741065">
        <ele>857.327</ele>
        <time>2018-11-24T10:28:18Z</time>
      </trkpt>
      <trkpt lat="42.379302" lon="0.741136">
        <ele>855.673</ele>
        <time>2018-11-24T10:28:19Z</time>
      </trkpt>
      <trkpt lat="42.379527" lon="0.741226">
        <ele>854.385</ele>
        <time>2018-11-24T10:28:20Z</time>
      </trkpt>
      <trkpt lat="42.379754" lon="0.741321">
        <ele>852.313</ele>
        <time>2018-11-24T10:28:21Z</time>
      </trkpt>
      <trkpt lat="42.379983" lon="0.741416">
        <ele>850.508</ele>
        <time>2018-11-24T10:28:22Z</time>
      </trkpt>
      <trkpt lat="42.380213" lon="0.741506">
        <ele>848.990</ele>
        <time>2018-11-24T10:28:23Z</time>
      </trkpt>
      <trkpt lat="42.380442" lon="0.741589">
        <ele>847.377</ele>
        <time>2018-11-24T10:28:24Z</time>
      </trkpt>
      <trkpt lat="42.380662" lon="0.741661">
        <ele>845.324</ele>
        <time>2018-11-24T10:28:25Z</time>
      </trkpt>
      <trkpt lat="42.380877" lon="0.741742">
        <ele>843.514</ele>
        <time>2018-11-24T10:28:26Z</time>
      </trkpt>
      <trkpt lat="42.381081" lon="0.741816">
        <ele>841.385</ele>
        <time>2018-11-24T10:28:27Z</time>
      </trkpt>
      <trkpt lat="42.381276" lon="0.741909">
        <ele>839.944</ele>
        <time>2018-11-24T10:28:28Z</time>
      </trkpt>
      <trkpt lat="42.381460" lon="0.742030">
        <ele>838.444</ele>
        <time>2018-11-24T10:28:29Z</time>
      </trkpt>
      <trkpt lat="42.381640" lon="0.742153">
        <ele>837.049</ele>
        <time>2018-11-24T10:28:30Z</time>
      </trkpt>
      <trkpt lat="42.381785" lon="0.742310">
        <ele>835.871</ele>
        <time>2018-11-24T10:28:31Z</time>
      </trkpt>
      <trkpt lat="42.381920" lon="0.742441">
        <ele>834.841</ele>
        <time>2018-11-24T10:28:32Z</time>
      </trkpt>
      <trkpt lat="42.382070" lon="0.742511">
        <ele>834.415</ele>
        <time>2018-11-24T10:28:33Z</time>
      </trkpt>
      <trkpt lat="42.382233" lon="0.742520">
        <ele>834.308</ele>
        <time>2018-11-24T10:28:34Z</time>
      </trkpt>
      <trkpt lat="42.382396" lon="0.742471">
        <ele>834.460</ele>
        <time>2018-11-24T10:28:35Z</time>
      </trkpt>
      <trkpt lat="42.382559" lon="0.742393">
        <ele>834.677</ele>
        <time>2018-11-24T10:28:36Z</time>
      </trkpt>
      <trkpt lat="42.382720" lon="0.742328">
        <ele>834.684</ele>
        <time>2018-11-24T10:28:37Z</time>
      </trkpt>
      <trkpt lat="42.382882" lon="0.742292">
        <ele>834.864</ele>
        <time>2018-11-24T10:28:38Z</time>
      </trkpt>
      <trkpt lat="42.383051" lon="0.742297">
        <ele>835.715</ele>
        <time>2018-11-24T10:28:39Z</time>
      </trkpt>
      <trkpt lat="42.383217" lon="0.742338">
        <ele>836.614</ele>
        <time>2018-11-24T10:28:40Z</time>
      </trkpt>
      <trkpt lat="42.383383" lon="0.742401">
        <ele>837.854</ele>
        <time>2018-11-24T10:28:41Z</time>
      </trkpt>
      <trkpt lat="42.383547" lon="0.742475">
        <ele>838.979</ele>
        <time>2018-11-24T10:28:42Z</time>
      </trkpt>
      <trkpt lat="42.383712" lon="0.742548">
        <ele>840.289</ele>
        <time>2018-11-24T10:28:43Z</time>
      </trkpt>
      <trkpt lat="42.383882" lon="0.742603">
        <ele>841.306</ele>
        <time>2018-11-24T10:28:44Z</time>
      </trkpt>
      <trkpt lat="42.384063" lon="0.742643">
        <ele>842.726</ele>
        <time>2018-11-24T10:28:45Z</time>
      </trkpt>
      <trkpt lat="42.384246" lon="0.742681">
        <ele>844.308</ele>
        <time>2018-11-24T10:28:46Z</time>
      </trkpt>
      <trkpt lat="42.384450" lon="0.742689">
        <ele>845.561</ele>
        <time>2018-11-24T10:28:47Z</time>
      </trkpt>
      <trkpt lat="42.384646" lon="0.742704">
        <ele>846.318</ele>
        <time>2018-11-24T10:28:48Z</time>
      </trkpt>
      <trkpt lat="42.384828" lon="0.742716">
        <ele>847.225</ele>
        <time>2018-11-24T10:28:49Z</time>
      </trkpt>
      <trkpt lat="42.385005" lon="0.742710">
        <ele>848.225</ele>
        <time>2018-11-24T10:28:50Z</time>
      </trkpt>
      <trkpt lat="42.385181" lon="0.742667">
        <ele>849.226</ele>
        <time>2018-11-24T10:28:51Z</time>
      </trkpt>
      <trkpt lat="42.385345" lon="0.742590">
        <ele>850.045</ele>
        <time>2018-11-24T10:28:52Z</time>
      </trkpt>
      <trkpt lat="42.385511" lon="0.742491">
        <ele>851.065</ele>
        <time>2018-11-24T10:28:53Z</time>
      </trkpt>
      <trkpt lat="42.385651" lon="0.742339">
        <ele>851.740</ele>
        <time>2018-11-24T10:28:54Z</time>
      </trkpt>
      <trkpt lat="42.385774" lon="0.742180">
        <ele>852.119</ele>
        <time>2018-11-24T10:28:55Z</time>
      </trkpt>
      <trkpt lat="42.385892" lon="0.742018">
        <ele>852.409</ele>
        <time>2018-11-24T10:28:56Z</time>
      </trkpt>
      <trkpt lat="42.386012" lon="0.741847">
        <ele>852.919</ele>
        <time>2018-11-24T10:28:57Z</time>
      </trkpt>
      <trkpt lat="42.386134" lon="0.741675">
        <ele>853.508</ele>
        <time>2018-11-24T10:28:58Z</time>
      </trkpt>
      <trkpt lat="42.386260" lon="0.741495">
        <ele>853.814</ele>
        <time>2018-11-24T10:28:59Z</time>
      </trkpt>
      <trkpt lat="42.386390" lon="0.741316">
        <ele>854.111</ele>
        <time>2018-11-24T10:29:00Z</time>
      </trkpt>
      <trkpt lat="42.386525" lon="0.741148">
        <ele>854.168</ele>
        <time>2018-11-24T10:29:01Z</time>
      </trkpt>
      <trkpt lat="42.386664" lon="0.740998">
        <ele>854.248</ele>
        <time>2018-11-24T10:29:02Z</time>
      </trkpt>
      <trkpt lat="42.386806" lon="0.740867">
        <ele>854.229</ele>
        <time>2018-11-24T10:29:03Z</time>
      </trkpt>
      <trkpt lat="42.386954" lon="0.740746">
        <ele>853.848</ele>
        <time>2018-11-24T10:29:04Z</time>
      </trkpt>
      <trkpt lat="42.387108" lon="0.740624">
        <ele>853.358</ele>
        <time>2018-11-24T10:29:05Z</time>
      </trkpt>
      <trkpt lat="42.387266" lon="0.740493">
        <ele>852.313</ele>
        <time>2018-11-24T10:29:06Z</time>
      </trkpt>
      <trkpt lat="42.387426" lon="0.740376">
        <ele>850.919</ele>
        <time>2018-11-24T10:29:07Z</time>
      </trkpt>
      <trkpt lat="42.387586" lon="0.740272">
        <ele>849.709</ele>
        <time>2018-11-24T10:29:08Z</time>
      </trkpt>
      <trkpt lat="42.387754" lon="0.740192">
        <ele>848.719</ele>
        <time>2018-11-24T10:29:09Z</time>
      </trkpt>
      <trkpt lat="42.387938" lon="0.740195">
        <ele>847.608</ele>
        <time>2018-11-24T10:29:10Z</time>
      </trkpt>
      <trkpt lat="42.388123" lon="0.740242">
        <ele>846.994</ele>
        <time>2018-11-24T10:29:11Z</time>
      </trkpt>
      <trkpt lat="42.388302" lon="0.740329">
        <ele>846.121</ele>
        <time>2018-11-24T10:29:12Z</time>
      </trkpt>
      <trkpt lat="42.388471" lon="0.740426">
        <ele>845.458</ele>
        <time>2018-11-24T10:29:13Z</time>
      </trkpt>
      <trkpt lat="42.388640" lon="0.740538">
        <ele>844.578</ele>
        <time>2018-11-24T10:29:14Z</time>
      </trkpt>
      <trkpt lat="42.388802" lon="0.740662">
        <ele>844.049</ele>
        <time>2018-11-24T10:29:15Z</time>
      </trkpt>
      <trkpt lat="42.388956" lon="0.740819">
        <ele>843.168</ele>
        <time>2018-11-24T10:29:16Z</time>
      </trkpt>
      <trkpt lat="42.389098" lon="0.741009">
        <ele>842.238</ele>
        <time>2018-11-24T10:29:17Z</time>
      </trkpt>
      <trkpt lat="42.389224" lon="0.741211">
        <ele>841.253</ele>
        <time>2018-11-24T10:29:18Z</time>
      </trkpt>
      <trkpt lat="42.389344" lon="0.741412">
        <ele>840.232</ele>
        <time>2018-11-24T10:29:19Z</time>
      </trkpt>
      <trkpt lat="42.389456" lon="0.741605">
        <ele>839.592</ele>
        <time>2018-11-24T10:29:20Z</time>
      </trkpt>
      <trkpt lat="42.389565" lon="0.741764">
        <ele>838.811</ele>
        <time>2018-11-24T10:29:21Z</time>
      </trkpt>
      <trkpt lat="42.389678" lon="0.741901">
        <ele>838.608</ele>
        <time>2018-11-24T10:29:22Z</time>
      </trkpt>
      <trkpt lat="42.389817" lon="0.741996">
        <ele>838.786</ele>
        <time>2018-11-24T10:29:23Z</time>
      </trkpt>
      <trkpt lat="42.389973" lon="0.742040">
        <ele>838.943</ele>
        <time>2018-11-24T10:29:24Z</time>
      </trkpt>
      <trkpt lat="42.390134" lon="0.742083">
        <ele>839.250</ele>
        <time>2018-11-24T10:29:25Z</time>
      </trkpt>
      <trkpt lat="42.390313" lon="0.742033">
        <ele>839.640</ele>
        <time>2018-11-24T10:29:26Z</time>
      </trkpt>
      <trkpt lat="42.390518" lon="0.742001">
        <ele>839.841</ele>
        <time>2018-11-24T10:29:27Z</time>
      </trkpt>
      <trkpt lat="42.390724" lon="0.741956">
        <ele>840.150</ele>
        <time>2018-11-24T10:29:28Z</time>
      </trkpt>
      <trkpt lat="42.390950" lon="0.741911">
        <ele>840.570</ele>
        <time>2018-11-24T10:29:29Z</time>
      </trkpt>
      <trkpt lat="42.391190" lon="0.741869">
        <ele>841.015</ele>
        <time>2018-11-24T10:29:30Z</time>
      </trkpt>
      <trkpt lat="42.391432" lon="0.741835">
        <ele>841.267</ele>
        <time>2018-11-24T10:29:31Z</time>
      </trkpt>
      <trkpt lat="42.391677" lon="0.741807">
        <ele>841.381</ele>
        <time>2018-11-24T10:29:32Z</time>
      </trkpt>
      <trkpt lat="42.391921" lon="0.741762">
        <ele>841.819</ele>
        <time>2018-11-24T10:29:33Z</time>
      </trkpt>
      <trkpt lat="42.392163" lon="0.741730">
        <ele>842.308</ele>
        <time>2018-11-24T10:29:34Z</time>
      </trkpt>
      <trkpt lat="42.392394" lon="0.741684">
        <ele>842.869</ele>
        <time>2018-11-24T10:29:35Z</time>
      </trkpt>
      <trkpt lat="42.392616" lon="0.741616">
        <ele>843.366</ele>
        <time>2018-11-24T10:29:36Z</time>
      </trkpt>
      <trkpt lat="42.392828" lon="0.741535">
        <ele>844.243</ele>
        <time>2018-11-24T10:29:37Z</time>
      </trkpt>
      <trkpt lat="42.393031" lon="0.741405">
        <ele>844.883</ele>
        <time>2018-11-24T10:29:38Z</time>
      </trkpt>
      <trkpt lat="42.393222" lon="0.741257">
        <ele>845.284</ele>
        <time>2018-11-24T10:29:39Z</time>
      </trkpt>
      <trkpt lat="42.393408" lon="0.741094">
        <ele>845.363</ele>
        <time>2018-11-24T10:29:40Z</time>
      </trkpt>
      <trkpt lat="42.393592" lon="0.740938">
        <ele>845.583</ele>
        <time>2018-11-24T10:29:41Z</time>
      </trkpt>
      <trkpt lat="42.393780" lon="0.740806">
        <ele>845.518</ele>
        <time>2018-11-24T10:29:42Z</time>
      </trkpt>
      <trkpt lat="42.393979" lon="0.740720">
        <ele>845.593</ele>
        <time>2018-11-24T10:29:43Z</time>
      </trkpt>
      <trkpt lat="42.394181" lon="0.740643">
        <ele>845.765</ele>
        <time>2018-11-24T10:29:44Z</time>
      </trkpt>
      <trkpt lat="42.394395" lon="0.740664">
        <ele>846.121</ele>
        <time>2018-11-24T10:29:45Z</time>
      </trkpt>
      <trkpt lat="42.394602" lon="0.740759">
        <ele>846.308</ele>
        <time>2018-11-24T10:29:46Z</time>
      </trkpt>
      <trkpt lat="42.394791" lon="0.740878">
        <ele>846.492</ele>
        <time>2018-11-24T10:29:47Z</time>
      </trkpt>
      <trkpt lat="42.394966" lon="0.741011">
        <ele>846.249</ele>
        <time>2018-11-24T10:29:48Z</time>
      </trkpt>
      <trkpt lat="42.395136" lon="0.741140">
        <ele>846.236</ele>
        <time>2018-11-24T10:29:49Z</time>
      </trkpt>
      <trkpt lat="42.395305" lon="0.741267">
        <ele>846.376</ele>
        <time>2018-11-24T10:29:50Z</time>
      </trkpt>
      <trkpt lat="42.395471" lon="0.741391">
        <ele>846.417</ele>
        <time>2018-11-24T10:29:51Z</time>
      </trkpt>
      <trkpt lat="42.395650" lon="0.741492">
        <ele>846.426</ele>
        <time>2018-11-24T10:29:52Z</time>
      </trkpt>
      <trkpt lat="42.395851" lon="0.741573">
        <ele>846.216</ele>
        <time>2018-11-24T10:29:53Z</time>
      </trkpt>
      <trkpt lat="42.396056" lon="0.741638">
        <ele>845.711</ele>
        <time>2018-11-24T10:29:54Z</time>
      </trkpt>
      <trkpt lat="42.396257" lon="0.741700">
        <ele>844.955</ele>
        <time>2018-11-24T10:29:55Z</time>
      </trkpt>
      <trkpt lat="42.396449" lon="0.741757">
        <ele>844.207</ele>
        <time>2018-11-24T10:29:56Z</time>
      </trkpt>
      <trkpt lat="42.396626" lon="0.741812">
        <ele>843.317</ele>
        <time>2018-11-24T10:29:57Z</time>
      </trkpt>
      <trkpt lat="42.396790" lon="0.741842">
        <ele>842.508</ele>
        <time>2018-11-24T10:29:58Z</time>
      </trkpt>
      <trkpt lat="42.396956" lon="0.741863">
        <ele>841.938</ele>
        <time>2018-11-24T10:29:59Z</time>
      </trkpt>
      <trkpt lat="42.397123" lon="0.741826">
        <ele>841.765</ele>
        <time>2018-11-24T10:30:00Z</time>
      </trkpt>
      <trkpt lat="42.397287" lon="0.741704">
        <ele>842.092</ele>
        <time>2018-11-24T10:30:01Z</time>
      </trkpt>
      <trkpt lat="42.397444" lon="0.741548">
        <ele>841.772</ele>
        <time>2018-11-24T10:30:02Z</time>
      </trkpt>
      <trkpt lat="42.397580" lon="0.741356">
        <ele>841.543</ele>
        <time>2018-11-24T10:30:03Z</time>
      </trkpt>
      <trkpt lat="42.397716" lon="0.741171">
        <ele>841.362</ele>
        <time>2018-11-24T10:30:04Z</time>
      </trkpt>
      <trkpt lat="42.397849" lon="0.740987">
        <ele>841.252</ele>
        <time>2018-11-24T10:30:05Z</time>
      </trkpt>
      <trkpt lat="42.397992" lon="0.740826">
        <ele>841.377</ele>
        <time>2018-11-24T10:30:06Z</time>
      </trkpt>
      <trkpt lat="42.398138" lon="0.740670">
        <ele>841.266</ele>
        <time>2018-11-24T10:30:07Z</time>
      </trkpt>
      <trkpt lat="42.398330" lon="0.740594">
        <ele>841.529</ele>
        <time>2018-11-24T10:30:08Z</time>
      </trkpt>
      <trkpt lat="42.398516" lon="0.740542">
        <ele>842.021</ele>
        <time>2018-11-24T10:30:09Z</time>
      </trkpt>
      <trkpt lat="42.398704" lon="0.740505">
        <ele>842.408</ele>
        <time>2018-11-24T10:30:10Z</time>
      </trkpt>
      <trkpt lat="42.398898" lon="0.740473">
        <ele>842.899</ele>
        <time>2018-11-24T10:30:11Z</time>
      </trkpt>
      <trkpt lat="42.399093" lon="0.740437">
        <ele>843.086</ele>
        <time>2018-11-24T10:30:12Z</time>
      </trkpt>
      <trkpt lat="42.399287" lon="0.740407">
        <ele>843.453</ele>
        <time>2018-11-24T10:30:13Z</time>
      </trkpt>
      <trkpt lat="42.399479" lon="0.740384">
        <ele>843.793</ele>
        <time>2018-11-24T10:30:14Z</time>
      </trkpt>
      <trkpt lat="42.399671" lon="0.740355">
        <ele>843.664</ele>
        <time>2018-11-24T10:30:15Z</time>
      </trkpt>
      <trkpt lat="42.399843" lon="0.740331">
        <ele>843.213</ele>
        <time>2018-11-24T10:30:16Z</time>
      </trkpt>
      <trkpt lat="42.399991" lon="0.740340">
        <ele>842.573</ele>
        <time>2018-11-24T10:30:17Z</time>
      </trkpt>
      <trkpt lat="42.400141" lon="0.740379">
        <ele>842.328</ele>
        <time>2018-11-24T10:30:18Z</time>
      </trkpt>
      <trkpt lat="42.400265" lon="0.740529">
        <ele>842.159</ele>
        <time>2018-11-24T10:30:19Z</time>
      </trkpt>
      <trkpt lat="42.400363" lon="0.740708">
        <ele>842.203</ele>
        <time>2018-11-24T10:30:20Z</time>
      </trkpt>
      <trkpt lat="42.400459" lon="0.740925">
        <ele>842.723</ele>
        <time>2018-11-24T10:30:21Z</time>
      </trkpt>
      <trkpt lat="42.400566" lon="0.741146">
        <ele>843.008</ele>
        <time>2018-11-24T10:30:22Z</time>
      </trkpt>
      <trkpt lat="42.400671" lon="0.741363">
        <ele>843.088</ele>
        <time>2018-11-24T10:30:23Z</time>
      </trkpt>
      <trkpt lat="42.400778" lon="0.741583">
        <ele>842.745</ele>
        <time>2018-11-24T10:30:24Z</time>
      </trkpt>
      <trkpt lat="42.400881" lon="0.741786">
        <ele>842.682</ele>
        <time>2018-11-24T10:30:25Z</time>
      </trkpt>
      <trkpt lat="42.400989" lon="0.741981">
        <ele>842.632</ele>
        <time>2018-11-24T10:30:26Z</time>
      </trkpt>
      <trkpt lat="42.401108" lon="0.742158">
        <ele>842.583</ele>
        <time>2018-11-24T10:30:27Z</time>
      </trkpt>
      <trkpt lat="42.401243" lon="0.742303">
        <ele>842.212</ele>
        <time>2018-11-24T10:30:28Z</time>
      </trkpt>
      <trkpt lat="42.401396" lon="0.742397">
        <ele>842.312</ele>
        <time>2018-11-24T10:30:29Z</time>
      </trkpt>
      <trkpt lat="42.401569" lon="0.742429">
        <ele>842.887</ele>
        <time>2018-11-24T10:30:30Z</time>
      </trkpt>
      <trkpt lat="42.401742" lon="0.742458">
        <ele>843.418</ele>
        <time>2018-11-24T10:30:31Z</time>
      </trkpt>
      <trkpt lat="42.401905" lon="0.742449">
        <ele>844.098</ele>
        <time>2018-11-24T10:30:32Z</time>
      </trkpt>
      <trkpt lat="42.402064" lon="0.742426">
        <ele>844.817</ele>
        <time>2018-11-24T10:30:33Z</time>
      </trkpt>
      <trkpt lat="42.402220" lon="0.742401">
        <ele>845.708</ele>
        <time>2018-11-24T10:30:34Z</time>
      </trkpt>
      <trkpt lat="42.402378" lon="0.742379">
        <ele>846.564</ele>
        <time>2018-11-24T10:30:35Z</time>
      </trkpt>
      <trkpt lat="42.402537" lon="0.742360">
        <ele>847.441</ele>
        <time>2018-11-24T10:30:36Z</time>
      </trkpt>
      <trkpt lat="42.402700" lon="0.742337">
        <ele>848.668</ele>
        <time>2018-11-24T10:30:37Z</time>
      </trkpt>
      <trkpt lat="42.402863" lon="0.742315">
        <ele>849.318</ele>
        <time>2018-11-24T10:30:38Z</time>
      </trkpt>
      <trkpt lat="42.403022" lon="0.742296">
        <ele>849.539</ele>
        <time>2018-11-24T10:30:39Z</time>
      </trkpt>
      <trkpt lat="42.403174" lon="0.742271">
        <ele>849.848</ele>
        <time>2018-11-24T10:30:40Z</time>
      </trkpt>
      <trkpt lat="42.403325" lon="0.742251">
        <ele>849.938</ele>
        <time>2018-11-24T10:30:41Z</time>
      </trkpt>
      <trkpt lat="42.403476" lon="0.742230">
        <ele>850.073</ele>
        <time>2018-11-24T10:30:42Z</time>
      </trkpt>
      <trkpt lat="42.403625" lon="0.742215">
        <ele>850.082</ele>
        <time>2018-11-24T10:30:43Z</time>
      </trkpt>
      <trkpt lat="42.403773" lon="0.742204">
        <ele>849.943</ele>
        <time>2018-11-24T10:30:44Z</time>
      </trkpt>
      <trkpt lat="42.403924" lon="0.742229">
        <ele>849.917</ele>
        <time>2018-11-24T10:30:45Z</time>
      </trkpt>
      <trkpt lat="42.404074" lon="0.742269">
        <ele>849.808</ele>
        <time>2018-11-24T10:30:46Z</time>
      </trkpt>
      <trkpt lat="42.404221" lon="0.742328">
        <ele>849.741</ele>
        <time>2018-11-24T10:30:47Z</time>
      </trkpt>
      <trkpt lat="42.404362" lon="0.742385">
        <ele>849.538</ele>
        <time>2018-11-24T10:30:48Z</time>
      </trkpt>
      <trkpt lat="42.404505" lon="0.742440">
        <ele>849.475</ele>
        <time>2018-11-24T10:30:49Z</time>
      </trkpt>
      <trkpt lat="42.404647" lon="0.742472">
        <ele>849.575</ele>
        <time>2018-11-24T10:30:50Z</time>
      </trkpt>
      <trkpt lat="42.404795" lon="0.742490">
        <ele>849.746</ele>
        <time>2018-11-24T10:30:51Z</time>
      </trkpt>
      <trkpt lat="42.404947" lon="0.742489">
        <ele>849.995</ele>
        <time>2018-11-24T10:30:52Z</time>
      </trkpt>
      <trkpt lat="42.405100" lon="0.742459">
        <ele>850.715</ele>
        <time>2018-11-24T10:30:53Z</time>
      </trkpt>
      <trkpt lat="42.405245" lon="0.742423">
        <ele>851.090</ele>
        <time>2018-11-24T10:30:54Z</time>
      </trkpt>
      <trkpt lat="42.405386" lon="0.742385">
        <ele>851.369</ele>
        <time>2018-11-24T10:30:55Z</time>
      </trkpt>
      <trkpt lat="42.405523" lon="0.742352">
        <ele>851.804</ele>
        <time>2018-11-24T10:30:56Z</time>
      </trkpt>
      <trkpt lat="42.405662" lon="0.742320">
        <ele>852.224</ele>
        <time>2018-11-24T10:30:57Z</time>
      </trkpt>
      <trkpt lat="42.405799" lon="0.742291">
        <ele>852.508</ele>
        <time>2018-11-24T10:30:58Z</time>
      </trkpt>
      <trkpt lat="42.405932" lon="0.742290">
        <ele>852.719</ele>
        <time>2018-11-24T10:30:59Z</time>
      </trkpt>
      <trkpt lat="42.406059" lon="0.742315">
        <ele>853.096</ele>
        <time>2018-11-24T10:31:00Z</time>
      </trkpt>
      <trkpt lat="42.406186" lon="0.742363">
        <ele>853.473</ele>
        <time>2018-11-24T10:31:01Z</time>
      </trkpt>
      <trkpt lat="42.406314" lon="0.742425">
        <ele>853.673</ele>
        <time>2018-11-24T10:31:02Z</time>
      </trkpt>
      <trkpt lat="42.406443" lon="0.742488">
        <ele>853.794</ele>
        <time>2018-11-24T10:31:03Z</time>
      </trkpt>
      <trkpt lat="42.406576" lon="0.742550">
        <ele>853.753</ele>
        <time>2018-11-24T10:31:04Z</time>
      </trkpt>
      <trkpt lat="42.406709" lon="0.742610">
        <ele>853.893</ele>
        <time>2018-11-24T10:31:05Z</time>
      </trkpt>
      <trkpt lat="42.406844" lon="0.742674">
        <ele>853.988</ele>
        <time>2018-11-24T10:31:06Z</time>
      </trkpt>
      <trkpt lat="42.406979" lon="0.742737">
        <ele>853.946</ele>
        <time>2018-11-24T10:31:07Z</time>
      </trkpt>
      <trkpt lat="42.407111" lon="0.742793">
        <ele>853.888</ele>
        <time>2018-11-24T10:31:08Z</time>
      </trkpt>
      <trkpt lat="42.407239" lon="0.742832">
        <ele>853.816</ele>
        <time>2018-11-24T10:31:09Z</time>
      </trkpt>
      <trkpt lat="42.407366" lon="0.742834">
        <ele>853.708</ele>
        <time>2018-11-24T10:31:10Z</time>
      </trkpt>
      <trkpt lat="42.407495" lon="0.742819">
        <ele>853.767</ele>
        <time>2018-11-24T10:31:11Z</time>
      </trkpt>
      <trkpt lat="42.407611" lon="0.742738">
        <ele>853.744</ele>
        <time>2018-11-24T10:31:12Z</time>
      </trkpt>
      <trkpt lat="42.407712" lon="0.742637">
        <ele>853.641</ele>
        <time>2018-11-24T10:31:13Z</time>
      </trkpt>
      <trkpt lat="42.407807" lon="0.742529">
        <ele>853.721</ele>
        <time>2018-11-24T10:31:14Z</time>
      </trkpt>
      <trkpt lat="42.407904" lon="0.742423">
        <ele>854.112</ele>
        <time>2018-11-24T10:31:15Z</time>
      </trkpt>
      <trkpt lat="42.407997" lon="0.742322">
        <ele>854.821</ele>
        <time>2018-11-24T10:31:16Z</time>
      </trkpt>
      <trkpt lat="42.408089" lon="0.742221">
        <ele>855.681</ele>
        <time>2018-11-24T10:31:17Z</time>
      </trkpt>
      <trkpt lat="42.408179" lon="0.742132">
        <ele>856.626</ele>
        <time>2018-11-24T10:31:18Z</time>
      </trkpt>
      <trkpt lat="42.408266" lon="0.742037">
        <ele>857.464</ele>
        <time>2018-11-24T10:31:19Z</time>
      </trkpt>
      <trkpt lat="42.408355" lon="0.741942">
        <ele>858.406</ele>
        <time>2018-11-24T10:31:20Z</time>
      </trkpt>
      <trkpt lat="42.408439" lon="0.741831">
        <ele>859.316</ele>
        <time>2018-11-24T10:31:21Z</time>
      </trkpt>
      <trkpt lat="42.408533" lon="0.741738">
        <ele>860.108</ele>
        <time>2018-11-24T10:31:22Z</time>
      </trkpt>
      <trkpt lat="42.408629" lon="0.741648">
        <ele>860.789</ele>
        <time>2018-11-24T10:31:23Z</time>
      </trkpt>
      <trkpt lat="42.408726" lon="0.741551">
        <ele>861.366</ele>
        <time>2018-11-24T10:31:24Z</time>
      </trkpt>
      <trkpt lat="42.408825" lon="0.741454">
        <ele>861.513</ele>
        <time>2018-11-24T10:31:25Z</time>
      </trkpt>
      <trkpt lat="42.408925" lon="0.741354">
        <ele>861.683</ele>
        <time>2018-11-24T10:31:26Z</time>
      </trkpt>
      <trkpt lat="42.409031" lon="0.741264">
        <ele>861.674</ele>
        <time>2018-11-24T10:31:27Z</time>
      </trkpt>
      <trkpt lat="42.409137" lon="0.741179">
        <ele>861.653</ele>
        <time>2018-11-24T10:31:28Z</time>
      </trkpt>
      <trkpt lat="42.409227" lon="0.741092">
        <ele>861.783</ele>
        <time>2018-11-24T10:31:29Z</time>
      </trkpt>
      <trkpt lat="42.409299" lon="0.741026">
        <ele>861.628</ele>
        <time>2018-11-24T10:31:30Z</time>
      </trkpt>
      <trkpt lat="42.409359" lon="0.740962">
        <ele>861.437</ele>
        <time>2018-11-24T10:31:31Z</time>
      </trkpt>
      <trkpt lat="42.409411" lon="0.740911">
        <ele>861.449</ele>
        <time>2018-11-24T10:31:32Z</time>
      </trkpt>
      <trkpt lat="42.409459" lon="0.740863">
        <ele>861.313</ele>
        <time>2018-11-24T10:31:33Z</time>
      </trkpt>
      <trkpt lat="42.409512" lon="0.740816">
        <ele>861.608</ele>
        <time>2018-11-24T10:31:34Z</time>
      </trkpt>
      <trkpt lat="42.409570" lon="0.740772">
        <ele>861.896</ele>
        <time>2018-11-24T10:31:35Z</time>
      </trkpt>
      <trkpt lat="42.409630" lon="0.740728">
        <ele>861.873</ele>
        <time>2018-11-24T10:31:36Z</time>
      </trkpt>
      <trkpt lat="42.409701" lon="0.740680">
        <ele>862.060</ele>
        <time>2018-11-24T10:31:37Z</time>
      </trkpt>
      <trkpt lat="42.409790" lon="0.740638">
        <ele>862.340</ele>
        <time>2018-11-24T10:31:38Z</time>
      </trkpt>
      <trkpt lat="42.409880" lon="0.740602">
        <ele>862.331</ele>
        <time>2018-11-24T10:31:39Z</time>
      </trkpt>
      <trkpt lat="42.409974" lon="0.740574">
        <ele>862.340</ele>
        <time>2018-11-24T10:31:40Z</time>
      </trkpt>
      <trkpt lat="42.410072" lon="0.740543">
        <ele>862.630</ele>
        <time>2018-11-24T10:31:41Z</time>
      </trkpt>
      <trkpt lat="42.410188" lon="0.740519">
        <ele>862.965</ele>
        <time>2018-11-24T10:31:42Z</time>
      </trkpt>
      <trkpt lat="42.410307" lon="0.740494">
        <ele>863.198</ele>
        <time>2018-11-24T10:31:43Z</time>
      </trkpt>
      <trkpt lat="42.410420" lon="0.740472">
        <ele>863.415</ele>
        <time>2018-11-24T10:31:44Z</time>
      </trkpt>
      <trkpt lat="42.410537" lon="0.740451">
        <ele>863.626</ele>
        <time>2018-11-24T10:31:45Z</time>
      </trkpt>
      <trkpt lat="42.410657" lon="0.740429">
        <ele>864.008</ele>
        <time>2018-11-24T10:31:46Z</time>
      </trkpt>
      <trkpt lat="42.410778" lon="0.740412">
        <ele>864.212</ele>
        <time>2018-11-24T10:31:47Z</time>
      </trkpt>
      <trkpt lat="42.410902" lon="0.740393">
        <ele>864.539</ele>
        <time>2018-11-24T10:31:48Z</time>
      </trkpt>
      <trkpt lat="42.411030" lon="0.740367">
        <ele>864.916</ele>
        <time>2018-11-24T10:31:49Z</time>
      </trkpt>
      <trkpt lat="42.411158" lon="0.740344">
        <ele>865.416</ele>
        <time>2018-11-24T10:31:50Z</time>
      </trkpt>
      <trkpt lat="42.411286" lon="0.740319">
        <ele>865.937</ele>
        <time>2018-11-24T10:31:51Z</time>
      </trkpt>
      <trkpt lat="42.411419" lon="0.740295">
        <ele>866.466</ele>
        <time>2018-11-24T10:31:52Z</time>
      </trkpt>
      <trkpt lat="42.411555" lon="0.740270">
        <ele>866.986</ele>
        <time>2018-11-24T10:31:53Z</time>
      </trkpt>
      <trkpt lat="42.411687" lon="0.740245">
        <ele>867.471</ele>
        <time>2018-11-24T10:31:54Z</time>
      </trkpt>
      <trkpt lat="42.411833" lon="0.740231">
        <ele>868.091</ele>
        <time>2018-11-24T10:31:55Z</time>
      </trkpt>
      <trkpt lat="42.411979" lon="0.740212">
        <ele>868.381</ele>
        <time>2018-11-24T10:31:56Z</time>
      </trkpt>
      <trkpt lat="42.412123" lon="0.740185">
        <ele>868.519</ele>
        <time>2018-11-24T10:31:57Z</time>
      </trkpt>
      <trkpt lat="42.412263" lon="0.740161">
        <ele>868.408</ele>
        <time>2018-11-24T10:31:58Z</time>
      </trkpt>
      <trkpt lat="42.412393" lon="0.740127">
        <ele>868.252</ele>
        <time>2018-11-24T10:31:59Z</time>
      </trkpt>
      <trkpt lat="42.412523" lon="0.740084">
        <ele>868.269</ele>
        <time>2018-11-24T10:32:00Z</time>
      </trkpt>
      <trkpt lat="42.412649" lon="0.740032">
        <ele>868.176</ele>
        <time>2018-11-24T10:32:01Z</time>
      </trkpt>
      <trkpt lat="42.412765" lon="0.739945">
        <ele>868.036</ele>
        <time>2018-11-24T10:32:02Z</time>
      </trkpt>
      <trkpt lat="42.412864" lon="0.739825">
        <ele>867.847</ele>
        <time>2018-11-24T10:32:03Z</time>
      </trkpt>
      <trkpt lat="42.412957" lon="0.739688">
        <ele>867.666</ele>
        <time>2018-11-24T10:32:04Z</time>
      </trkpt>
      <trkpt lat="42.412992" lon="0.739506">
        <ele>867.766</ele>
        <time>2018-11-24T10:32:05Z</time>
      </trkpt>
      <trkpt lat="42.413018" lon="0.739314">
        <ele>867.541</ele>
        <time>2018-11-24T10:32:06Z</time>
      </trkpt>
      <trkpt lat="42.413013" lon="0.739119">
        <ele>867.287</ele>
        <time>2018-11-24T10:32:07Z</time>
      </trkpt>
      <trkpt lat="42.413040" lon="0.738936">
        <ele>867.242</ele>
        <time>2018-11-24T10:32:08Z</time>
      </trkpt>
      <trkpt lat="42.413077" lon="0.738761">
        <ele>867.226</ele>
        <time>2018-11-24T10:32:09Z</time>
      </trkpt>
      <trkpt lat="42.413153" lon="0.738605">
        <ele>867.108</ele>
        <time>2018-11-24T10:32:10Z</time>
      </trkpt>
      <trkpt lat="42.413251" lon="0.738466">
        <ele>867.191</ele>
        <time>2018-11-24T10:32:11Z</time>
      </trkpt>
      <trkpt lat="42.413361" lon="0.738337">
        <ele>867.258</ele>
        <time>2018-11-24T10:32:12Z</time>
      </trkpt>
      <trkpt lat="42.413481" lon="0.738214">
        <ele>867.395</ele>
        <time>2018-11-24T10:32:13Z</time>
      </trkpt>
      <trkpt lat="42.413603" lon="0.738098">
        <ele>867.535</ele>
        <time>2018-11-24T10:32:14Z</time>
      </trkpt>
      <trkpt lat="42.413733" lon="0.737990">
        <ele>867.626</ele>
        <time>2018-11-24T10:32:15Z</time>
      </trkpt>
      <trkpt lat="42.413867" lon="0.737887">
        <ele>867.825</ele>
        <time>2018-11-24T10:32:16Z</time>
      </trkpt>
      <trkpt lat="42.414011" lon="0.737803">
        <ele>868.225</ele>
        <time>2018-11-24T10:32:17Z</time>
      </trkpt>
      <trkpt lat="42.414160" lon="0.737740">
        <ele>868.410</ele>
        <time>2018-11-24T10:32:18Z</time>
      </trkpt>
      <trkpt lat="42.414322" lon="0.737707">
        <ele>868.866</ele>
        <time>2018-11-24T10:32:19Z</time>
      </trkpt>
      <trkpt lat="42.414481" lon="0.737669">
        <ele>869.029</ele>
        <time>2018-11-24T10:32:20Z</time>
      </trkpt>
      <trkpt lat="42.414644" lon="0.737633">
        <ele>869.121</ele>
        <time>2018-11-24T10:32:21Z</time>
      </trkpt>
      <trkpt lat="42.414802" lon="0.737585">
        <ele>869.408</ele>
        <time>2018-11-24T10:32:22Z</time>
      </trkpt>
      <trkpt lat="42.414954" lon="0.737501">
        <ele>869.849</ele>
        <time>2018-11-24T10:32:23Z</time>
      </trkpt>
      <trkpt lat="42.415096" lon="0.737410">
        <ele>870.136</ele>
        <time>2018-11-24T10:32:24Z</time>
      </trkpt>
      <trkpt lat="42.415242" lon="0.737302">
        <ele>870.573</ele>
        <time>2018-11-24T10:32:25Z</time>
      </trkpt>
      <trkpt lat="42.415394" lon="0.737187">
        <ele>871.053</ele>
        <time>2018-11-24T10:32:26Z</time>
      </trkpt>
      <trkpt lat="42.415548" lon="0.737064">
        <ele>871.274</ele>
        <time>2018-11-24T10:32:27Z</time>
      </trkpt>
      <trkpt lat="42.415707" lon="0.736944">
        <ele>871.223</ele>
        <time>2018-11-24T10:32:28Z</time>
      </trkpt>
      <trkpt lat="42.415860" lon="0.736823">
        <ele>871.363</ele>
        <time>2018-11-24T10:32:29Z</time>
      </trkpt>
      <trkpt lat="42.416016" lon="0.736702">
        <ele>871.638</ele>
        <time>2018-11-24T10:32:30Z</time>
      </trkpt>
      <trkpt lat="42.416179" lon="0.736593">
        <ele>871.781</ele>
        <time>2018-11-24T10:32:31Z</time>
      </trkpt>
      <trkpt lat="42.416353" lon="0.736495">
        <ele>871.861</ele>
        <time>2018-11-24T10:32:32Z</time>
      </trkpt>
      <trkpt lat="42.416524" lon="0.736392">
        <ele>871.917</ele>
        <time>2018-11-24T10:32:33Z</time>
      </trkpt>
      <trkpt lat="42.416688" lon="0.736287">
        <ele>872.008</ele>
        <time>2018-11-24T10:32:34Z</time>
      </trkpt>
      <trkpt lat="42.416846" lon="0.736189">
        <ele>872.051</ele>
        <time>2018-11-24T10:32:35Z</time>
      </trkpt>
      <trkpt lat="42.417002" lon="0.736089">
        <ele>871.858</ele>
        <time>2018-11-24T10:32:36Z</time>
      </trkpt>
      <trkpt lat="42.417155" lon="0.735983">
        <ele>871.425</ele>
        <time>2018-11-24T10:32:37Z</time>
      </trkpt>
      <trkpt lat="42.417310" lon="0.735880">
        <ele>870.965</ele>
        <time>2018-11-24T10:32:38Z</time>
      </trkpt>
      <trkpt lat="42.417466" lon="0.735783">
        <ele>870.466</ele>
        <time>2018-11-24T10:32:39Z</time>
      </trkpt>
      <trkpt lat="42.417628" lon="0.735711">
        <ele>870.075</ele>
        <time>2018-11-24T10:32:40Z</time>
      </trkpt>
      <trkpt lat="42.417795" lon="0.735660">
        <ele>869.535</ele>
        <time>2018-11-24T10:32:41Z</time>
      </trkpt>
      <trkpt lat="42.417964" lon="0.735623">
        <ele>869.160</ele>
        <time>2018-11-24T10:32:42Z</time>
      </trkpt>
      <trkpt lat="42.418138" lon="0.735652">
        <ele>868.624</ele>
        <time>2018-11-24T10:32:43Z</time>
      </trkpt>
      <trkpt lat="42.418305" lon="0.735694">
        <ele>868.304</ele>
        <time>2018-11-24T10:32:44Z</time>
      </trkpt>
      <trkpt lat="42.418471" lon="0.735735">
        <ele>867.814</ele>
        <time>2018-11-24T10:32:45Z</time>
      </trkpt>
      <trkpt lat="42.418638" lon="0.735741">
        <ele>867.508</ele>
        <time>2018-11-24T10:32:46Z</time>
      </trkpt>
      <trkpt lat="42.418808" lon="0.735726">
        <ele>866.965</ele>
        <time>2018-11-24T10:32:47Z</time>
      </trkpt>
      <trkpt lat="42.418971" lon="0.735657">
        <ele>866.532</ele>
        <time>2018-11-24T10:32:48Z</time>
      </trkpt>
      <trkpt lat="42.419129" lon="0.735590">
        <ele>866.189</ele>
        <time>2018-11-24T10:32:49Z</time>
      </trkpt>
      <trkpt lat="42.419287" lon="0.735517">
        <ele>865.769</ele>
        <time>2018-11-24T10:32:50Z</time>
      </trkpt>
      <trkpt lat="42.419456" lon="0.735444">
        <ele>865.370</ele>
        <time>2018-11-24T10:32:51Z</time>
      </trkpt>
      <trkpt lat="42.419624" lon="0.735364">
        <ele>864.889</ele>
        <time>2018-11-24T10:32:52Z</time>
      </trkpt>
      <trkpt lat="42.419805" lon="0.735281">
        <ele>864.439</ele>
        <time>2018-11-24T10:32:53Z</time>
      </trkpt>
      <trkpt lat="42.419996" lon="0.735191">
        <ele>864.374</ele>
        <time>2018-11-24T10:32:54Z</time>
      </trkpt>
      <trkpt lat="42.420198" lon="0.735088">
        <ele>864.244</ele>
        <time>2018-11-24T10:32:55Z</time>
      </trkpt>
      <trkpt lat="42.420409" lon="0.734980">
        <ele>864.605</ele>
        <time>2018-11-24T10:32:56Z</time>
      </trkpt>
      <trkpt lat="42.420629" lon="0.734866">
        <ele>865.315</ele>
        <time>2018-11-24T10:32:57Z</time>
      </trkpt>
      <trkpt lat="42.420851" lon="0.734746">
        <ele>865.808</ele>
        <time>2018-11-24T10:32:58Z</time>
      </trkpt>
      <trkpt lat="42.421068" lon="0.734630">
        <ele>866.367</ele>
        <time>2018-11-24T10:32:59Z</time>
      </trkpt>
      <trkpt lat="42.421286" lon="0.734505">
        <ele>866.654</ele>
        <time>2018-11-24T10:33:00Z</time>
      </trkpt>
      <trkpt lat="42.421499" lon="0.734373">
        <ele>867.081</ele>
        <time>2018-11-24T10:33:01Z</time>
      </trkpt>
      <trkpt lat="42.421717" lon="0.734257">
        <ele>867.551</ele>
        <time>2018-11-24T10:33:02Z</time>
      </trkpt>
      <trkpt lat="42.421928" lon="0.734140">
        <ele>867.812</ele>
        <time>2018-11-24T10:33:03Z</time>
      </trkpt>
      <trkpt lat="42.422132" lon="0.734016">
        <ele>868.091</ele>
        <time>2018-11-24T10:33:04Z</time>
      </trkpt>
      <trkpt lat="42.422327" lon="0.733872">
        <ele>868.591</ele>
        <time>2018-11-24T10:33:05Z</time>
      </trkpt>
      <trkpt lat="42.422515" lon="0.733710">
        <ele>868.926</ele>
        <time>2018-11-24T10:33:06Z</time>
      </trkpt>
      <trkpt lat="42.422706" lon="0.733549">
        <ele>869.252</ele>
        <time>2018-11-24T10:33:07Z</time>
      </trkpt>
      <trkpt lat="42.422904" lon="0.733404">
        <ele>869.653</ele>
        <time>2018-11-24T10:33:08Z</time>
      </trkpt>
      <trkpt lat="42.423110" lon="0.733269">
        <ele>869.908</ele>
        <time>2018-11-24T10:33:09Z</time>
      </trkpt>
      <trkpt lat="42.423321" lon="0.733137">
        <ele>870.508</ele>
        <time>2018-11-24T10:33:10Z</time>
      </trkpt>
      <trkpt lat="42.423534" lon="0.733005">
        <ele>871.518</ele>
        <time>2018-11-24T10:33:11Z</time>
      </trkpt>
      <trkpt lat="42.423747" lon="0.732880">
        <ele>872.435</ele>
        <time>2018-11-24T10:33:12Z</time>
      </trkpt>
      <trkpt lat="42.423960" lon="0.732760">
        <ele>873.582</ele>
        <time>2018-11-24T10:33:13Z</time>
      </trkpt>
      <trkpt lat="42.424183" lon="0.732672">
        <ele>874.582</ele>
        <time>2018-11-24T10:33:14Z</time>
      </trkpt>
      <trkpt lat="42.424396" lon="0.732602">
        <ele>875.613</ele>
        <time>2018-11-24T10:33:15Z</time>
      </trkpt>
      <trkpt lat="42.424608" lon="0.732540">
        <ele>876.382</ele>
        <time>2018-11-24T10:33:16Z</time>
      </trkpt>
      <trkpt lat="42.424819" lon="0.732471">
        <ele>876.662</ele>
        <time>2018-11-24T10:33:17Z</time>
      </trkpt>
      <trkpt lat="42.425022" lon="0.732397">
        <ele>876.597</ele>
        <time>2018-11-24T10:33:18Z</time>
      </trkpt>
      <trkpt lat="42.425220" lon="0.732313">
        <ele>876.516</ele>
        <time>2018-11-24T10:33:19Z</time>
      </trkpt>
      <trkpt lat="42.425412" lon="0.732202">
        <ele>877.076</ele>
        <time>2018-11-24T10:33:20Z</time>
      </trkpt>
      <trkpt lat="42.425600" lon="0.732068">
        <ele>877.513</ele>
        <time>2018-11-24T10:33:21Z</time>
      </trkpt>
      <trkpt lat="42.425792" lon="0.731923">
        <ele>877.708</ele>
        <time>2018-11-24T10:33:22Z</time>
      </trkpt>
      <trkpt lat="42.425977" lon="0.731772">
        <ele>877.524</ele>
        <time>2018-11-24T10:33:23Z</time>
      </trkpt>
      <trkpt lat="42.426153" lon="0.731628">
        <ele>877.241</ele>
        <time>2018-11-24T10:33:24Z</time>
      </trkpt>
      <trkpt lat="42.426311" lon="0.731476">
        <ele>877.188</ele>
        <time>2018-11-24T10:33:25Z</time>
      </trkpt>
      <trkpt lat="42.426460" lon="0.731313">
        <ele>877.138</ele>
        <time>2018-11-24T10:33:26Z</time>
      </trkpt>
      <trkpt lat="42.426551" lon="0.731084">
        <ele>877.289</ele>
        <time>2018-11-24T10:33:27Z</time>
      </trkpt>
      <trkpt lat="42.426637" lon="0.730858">
        <ele>877.448</ele>
        <time>2018-11-24T10:33:28Z</time>
      </trkpt>
      <trkpt lat="42.426690" lon="0.730603">
        <ele>877.598</ele>
        <time>2018-11-24T10:33:29Z</time>
      </trkpt>
      <trkpt lat="42.426749" lon="0.730345">
        <ele>877.863</ele>
        <time>2018-11-24T10:33:30Z</time>
      </trkpt>
      <trkpt lat="42.426814" lon="0.730083">
        <ele>878.592</ele>
        <time>2018-11-24T10:33:31Z</time>
      </trkpt>
      <trkpt lat="42.426874" lon="0.729801">
        <ele>879.073</ele>
        <time>2018-11-24T10:33:32Z</time>
      </trkpt>
      <trkpt lat="42.426941" lon="0.729524">
        <ele>879.320</ele>
        <time>2018-11-24T10:33:33Z</time>
      </trkpt>
      <trkpt lat="42.427012" lon="0.729240">
        <ele>879.708</ele>
        <time>2018-11-24T10:33:34Z</time>
      </trkpt>
      <trkpt lat="42.427094" lon="0.728948">
        <ele>880.132</ele>
        <time>2018-11-24T10:33:35Z</time>
      </trkpt>
      <trkpt lat="42.427185" lon="0.728648">
        <ele>880.529</ele>
        <time>2018-11-24T10:33:36Z</time>
      </trkpt>
      <trkpt lat="42.427276" lon="0.728349">
        <ele>881.056</ele>
        <time>2018-11-24T10:33:37Z</time>
      </trkpt>
      <trkpt lat="42.427368" lon="0.728055">
        <ele>881.356</ele>
        <time>2018-11-24T10:33:38Z</time>
      </trkpt>
      <trkpt lat="42.427453" lon="0.727763">
        <ele>880.997</ele>
        <time>2018-11-24T10:33:39Z</time>
      </trkpt>
      <trkpt lat="42.427532" lon="0.727494">
        <ele>880.336</ele>
        <time>2018-11-24T10:33:40Z</time>
      </trkpt>
      <trkpt lat="42.427610" lon="0.727253">
        <ele>879.926</ele>
        <time>2018-11-24T10:33:41Z</time>
      </trkpt>
      <trkpt lat="42.427695" lon="0.727027">
        <ele>880.031</ele>
        <time>2018-11-24T10:33:42Z</time>
      </trkpt>
      <trkpt lat="42.427786" lon="0.726803">
        <ele>880.268</ele>
        <time>2018-11-24T10:33:43Z</time>
      </trkpt>
      <trkpt lat="42.427913" lon="0.726602">
        <ele>880.542</ele>
        <time>2018-11-24T10:33:44Z</time>
      </trkpt>
      <trkpt lat="42.428068" lon="0.726415">
        <ele>880.726</ele>
        <time>2018-11-24T10:33:45Z</time>
      </trkpt>
      <trkpt lat="42.428214" lon="0.726213">
        <ele>880.508</ele>
        <time>2018-11-24T10:33:46Z</time>
      </trkpt>
      <trkpt lat="42.428374" lon="0.726016">
        <ele>880.679</ele>
        <time>2018-11-24T10:33:47Z</time>
      </trkpt>
      <trkpt lat="42.428521" lon="0.725809">
        <ele>880.736</ele>
        <time>2018-11-24T10:33:48Z</time>
      </trkpt>
      <trkpt lat="42.428663" lon="0.725605">
        <ele>880.713</ele>
        <time>2018-11-24T10:33:49Z</time>
      </trkpt>
      <trkpt lat="42.428800" lon="0.725407">
        <ele>880.593</ele>
        <time>2018-11-24T10:33:50Z</time>
      </trkpt>
      <trkpt lat="42.428937" lon="0.725218">
        <ele>880.494</ele>
        <time>2018-11-24T10:33:51Z</time>
      </trkpt>
      <trkpt lat="42.429080" lon="0.725038">
        <ele>880.473</ele>
        <time>2018-11-24T10:33:52Z</time>
      </trkpt>
      <trkpt lat="42.429243" lon="0.724911">
        <ele>880.523</ele>
        <time>2018-11-24T10:33:53Z</time>
      </trkpt>
      <trkpt lat="42.429418" lon="0.724810">
        <ele>881.388</ele>
        <time>2018-11-24T10:33:54Z</time>
      </trkpt>
      <trkpt lat="42.429593" lon="0.724721">
        <ele>882.424</ele>
        <time>2018-11-24T10:33:55Z</time>
      </trkpt>
      <trkpt lat="42.429767" lon="0.724631">
        <ele>883.504</ele>
        <time>2018-11-24T10:33:56Z</time>
      </trkpt>
      <trkpt lat="42.429928" lon="0.724536">
        <ele>884.914</ele>
        <time>2018-11-24T10:33:57Z</time>
      </trkpt>
      <trkpt lat="42.430077" lon="0.724413">
        <ele>886.508</ele>
        <time>2018-11-24T10:33:58Z</time>
      </trkpt>
      <trkpt lat="42.430207" lon="0.724258">
        <ele>887.645</ele>
        <time>2018-11-24T10:33:59Z</time>
      </trkpt>
      <trkpt lat="42.430300" lon="0.724064">
        <ele>888.862</ele>
        <time>2018-11-24T10:34:00Z</time>
      </trkpt>
      <trkpt lat="42.430377" lon="0.723855">
        <ele>890.039</ele>
        <time>2018-11-24T10:34:01Z</time>
      </trkpt>
      <trkpt lat="42.430452" lon="0.723642">
        <ele>891.139</ele>
        <time>2018-11-24T10:34:02Z</time>
      </trkpt>
      <trkpt lat="42.430526" lon="0.723417">
        <ele>891.810</ele>
        <time>2018-11-24T10:34:03Z</time>
      </trkpt>
      <trkpt lat="42.430601" lon="0.723181">
        <ele>892.659</ele>
        <time>2018-11-24T10:34:04Z</time>
      </trkpt>
      <trkpt lat="42.430677" lon="0.722935">
        <ele>893.069</ele>
        <time>2018-11-24T10:34:05Z</time>
      </trkpt>
      <trkpt lat="42.430758" lon="0.722688">
        <ele>893.614</ele>
        <time>2018-11-24T10:34:06Z</time>
      </trkpt>
      <trkpt lat="42.430840" lon="0.722435">
        <ele>894.245</ele>
        <time>2018-11-24T10:34:07Z</time>
      </trkpt>
      <trkpt lat="42.430919" lon="0.722186">
        <ele>894.647</ele>
        <time>2018-11-24T10:34:08Z</time>
      </trkpt>
      <trkpt lat="42.430987" lon="0.721966">
        <ele>894.511</ele>
        <time>2018-11-24T10:34:09Z</time>
      </trkpt>
      <trkpt lat="42.431048" lon="0.721793">
        <ele>893.908</ele>
        <time>2018-11-24T10:34:10Z</time>
      </trkpt>
      <trkpt lat="42.431109" lon="0.721667">
        <ele>893.297</ele>
        <time>2018-11-24T10:34:11Z</time>
      </trkpt>
      <trkpt lat="42.431164" lon="0.721550">
        <ele>893.074</ele>
        <time>2018-11-24T10:34:12Z</time>
      </trkpt>
      <trkpt lat="42.431220" lon="0.721450">
        <ele>893.161</ele>
        <time>2018-11-24T10:34:13Z</time>
      </trkpt>
      <trkpt lat="42.431272" lon="0.721353">
        <ele>893.381</ele>
        <time>2018-11-24T10:34:14Z</time>
      </trkpt>
      <trkpt lat="42.431306" lon="0.721285">
        <ele>893.372</ele>
        <time>2018-11-24T10:34:15Z</time>
      </trkpt>
      <trkpt lat="42.431305" lon="0.721172">
        <ele>893.321</ele>
        <time>2018-11-24T10:35:43Z</time>
      </trkpt>
      <trkpt lat="42.431204" lon="0.721287">
        <ele>892.811</ele>
        <time>2018-11-24T10:35:48Z</time>
      </trkpt>
      <trkpt lat="42.431150" lon="0.721343">
        <ele>892.746</ele>
        <time>2018-11-24T10:35:49Z</time>
      </trkpt>
      <trkpt lat="42.431116" lon="0.721401">
        <ele>892.748</ele>
        <time>2018-11-24T10:35:50Z</time>
      </trkpt>
      <trkpt lat="42.431078" lon="0.721462">
        <ele>892.761</ele>
        <time>2018-11-24T10:35:51Z</time>
      </trkpt>
      <trkpt lat="42.431041" lon="0.721558">
        <ele>892.717</ele>
        <time>2018-11-24T10:35:52Z</time>
      </trkpt>
      <trkpt lat="42.430995" lon="0.721685">
        <ele>893.008</ele>
        <time>2018-11-24T10:35:53Z</time>
      </trkpt>
      <trkpt lat="42.430940" lon="0.721847">
        <ele>893.387</ele>
        <time>2018-11-24T10:35:54Z</time>
      </trkpt>
      <trkpt lat="42.430887" lon="0.722022">
        <ele>893.224</ele>
        <time>2018-11-24T10:35:55Z</time>
      </trkpt>
      <trkpt lat="42.430828" lon="0.722224">
        <ele>893.351</ele>
        <time>2018-11-24T10:35:56Z</time>
      </trkpt>
      <trkpt lat="42.430758" lon="0.722452">
        <ele>893.951</ele>
        <time>2018-11-24T10:35:57Z</time>
      </trkpt>
      <trkpt lat="42.430683" lon="0.722699">
        <ele>894.152</ele>
        <time>2018-11-24T10:35:58Z</time>
      </trkpt>
      <trkpt lat="42.430604" lon="0.722944">
        <ele>893.781</ele>
        <time>2018-11-24T10:35:59Z</time>
      </trkpt>
      <trkpt lat="42.430520" lon="0.723198">
        <ele>893.381</ele>
        <time>2018-11-24T10:36:00Z</time>
      </trkpt>
      <trkpt lat="42.430440" lon="0.723455">
        <ele>893.186</ele>
        <time>2018-11-24T10:36:01Z</time>
      </trkpt>
      <trkpt lat="42.430362" lon="0.723702">
        <ele>892.619</ele>
        <time>2018-11-24T10:36:02Z</time>
      </trkpt>
      <trkpt lat="42.430285" lon="0.723939">
        <ele>891.509</ele>
        <time>2018-11-24T10:36:03Z</time>
      </trkpt>
      <trkpt lat="42.430189" lon="0.724164">
        <ele>890.419</ele>
        <time>2018-11-24T10:36:04Z</time>
      </trkpt>
      <trkpt lat="42.430061" lon="0.724353">
        <ele>889.308</ele>
        <time>2018-11-24T10:36:05Z</time>
      </trkpt>
      <trkpt lat="42.429905" lon="0.724500">
        <ele>888.034</ele>
        <time>2018-11-24T10:36:06Z</time>
      </trkpt>
      <trkpt lat="42.429718" lon="0.724607">
        <ele>886.641</ele>
        <time>2018-11-24T10:36:07Z</time>
      </trkpt>
      <trkpt lat="42.429521" lon="0.724701">
        <ele>885.078</ele>
        <time>2018-11-24T10:36:08Z</time>
      </trkpt>
      <trkpt lat="42.429323" lon="0.724797">
        <ele>883.778</ele>
        <time>2018-11-24T10:36:09Z</time>
      </trkpt>
      <trkpt lat="42.429131" lon="0.724904">
        <ele>882.239</ele>
        <time>2018-11-24T10:36:10Z</time>
      </trkpt>
      <trkpt lat="42.428960" lon="0.725068">
        <ele>881.238</ele>
        <time>2018-11-24T10:36:11Z</time>
      </trkpt>
      <trkpt lat="42.428799" lon="0.725260">
        <ele>880.838</ele>
        <time>2018-11-24T10:36:12Z</time>
      </trkpt>
      <trkpt lat="42.428639" lon="0.725462">
        <ele>880.913</ele>
        <time>2018-11-24T10:36:13Z</time>
      </trkpt>
      <trkpt lat="42.428487" lon="0.725685">
        <ele>880.691</ele>
        <time>2018-11-24T10:36:14Z</time>
      </trkpt>
      <trkpt lat="42.428333" lon="0.725910">
        <ele>880.381</ele>
        <time>2018-11-24T10:36:15Z</time>
      </trkpt>
      <trkpt lat="42.428184" lon="0.726121">
        <ele>880.119</ele>
        <time>2018-11-24T10:36:16Z</time>
      </trkpt>
      <trkpt lat="42.428035" lon="0.726324">
        <ele>880.008</ele>
        <time>2018-11-24T10:36:17Z</time>
      </trkpt>
      <trkpt lat="42.427898" lon="0.726537">
        <ele>879.872</ele>
        <time>2018-11-24T10:36:18Z</time>
      </trkpt>
      <trkpt lat="42.427761" lon="0.726743">
        <ele>879.889</ele>
        <time>2018-11-24T10:36:19Z</time>
      </trkpt>
      <trkpt lat="42.427646" lon="0.726934">
        <ele>879.796</ele>
        <time>2018-11-24T10:36:20Z</time>
      </trkpt>
      <trkpt lat="42.427568" lon="0.727188">
        <ele>879.866</ele>
        <time>2018-11-24T10:36:21Z</time>
      </trkpt>
      <trkpt lat="42.427478" lon="0.727447">
        <ele>879.977</ele>
        <time>2018-11-24T10:36:22Z</time>
      </trkpt>
      <trkpt lat="42.427393" lon="0.727718">
        <ele>880.456</ele>
        <time>2018-11-24T10:36:23Z</time>
      </trkpt>
      <trkpt lat="42.427308" lon="0.727997">
        <ele>880.526</ele>
        <time>2018-11-24T10:36:24Z</time>
      </trkpt>
      <trkpt lat="42.427220" lon="0.728279">
        <ele>880.871</ele>
        <time>2018-11-24T10:36:25Z</time>
      </trkpt>
      <trkpt lat="42.427135" lon="0.728566">
        <ele>880.795</ele>
        <time>2018-11-24T10:36:26Z</time>
      </trkpt>
      <trkpt lat="42.427052" lon="0.728848">
        <ele>880.549</ele>
        <time>2018-11-24T10:36:27Z</time>
      </trkpt>
      <trkpt lat="42.426971" lon="0.729120">
        <ele>880.023</ele>
        <time>2018-11-24T10:36:28Z</time>
      </trkpt>
      <trkpt lat="42.426897" lon="0.729393">
        <ele>879.808</ele>
        <time>2018-11-24T10:36:29Z</time>
      </trkpt>
      <trkpt lat="42.426826" lon="0.729662">
        <ele>879.692</ele>
        <time>2018-11-24T10:36:30Z</time>
      </trkpt>
      <trkpt lat="42.426759" lon="0.729938">
        <ele>879.329</ele>
        <time>2018-11-24T10:36:31Z</time>
      </trkpt>
      <trkpt lat="42.426699" lon="0.730207">
        <ele>878.886</ele>
        <time>2018-11-24T10:36:32Z</time>
      </trkpt>
      <trkpt lat="42.426640" lon="0.730467">
        <ele>878.396</ele>
        <time>2018-11-24T10:36:33Z</time>
      </trkpt>
      <trkpt lat="42.426580" lon="0.730718">
        <ele>877.917</ele>
        <time>2018-11-24T10:36:34Z</time>
      </trkpt>
      <trkpt lat="42.426525" lon="0.730955">
        <ele>877.336</ele>
        <time>2018-11-24T10:36:35Z</time>
      </trkpt>
      <trkpt lat="42.426462" lon="0.731168">
        <ele>876.716</ele>
        <time>2018-11-24T10:36:36Z</time>
      </trkpt>
      <trkpt lat="42.426365" lon="0.731350">
        <ele>876.351</ele>
        <time>2018-11-24T10:36:37Z</time>
      </trkpt>
      <trkpt lat="42.426235" lon="0.731507">
        <ele>876.355</ele>
        <time>2018-11-24T10:36:38Z</time>
      </trkpt>
      <trkpt lat="42.426094" lon="0.731639">
        <ele>876.207</ele>
        <time>2018-11-24T10:36:39Z</time>
      </trkpt>
      <trkpt lat="42.425949" lon="0.731753">
        <ele>876.017</ele>
        <time>2018-11-24T10:36:40Z</time>
      </trkpt>
      <trkpt lat="42.425810" lon="0.731860">
        <ele>875.808</ele>
        <time>2018-11-24T10:36:41Z</time>
      </trkpt>
      <trkpt lat="42.425681" lon="0.731956">
        <ele>875.488</ele>
        <time>2018-11-24T10:36:42Z</time>
      </trkpt>
      <trkpt lat="42.425564" lon="0.732044">
        <ele>875.015</ele>
        <time>2018-11-24T10:36:43Z</time>
      </trkpt>
      <trkpt lat="42.425463" lon="0.732123">
        <ele>874.552</ele>
        <time>2018-11-24T10:36:44Z</time>
      </trkpt>
      <trkpt lat="42.425382" lon="0.732190">
        <ele>874.052</ele>
        <time>2018-11-24T10:36:45Z</time>
      </trkpt>
      <trkpt lat="42.425337" lon="0.732284">
        <ele>873.753</ele>
        <time>2018-11-24T10:36:46Z</time>
      </trkpt>
      <trkpt lat="42.425329" lon="0.732398">
        <ele>873.832</ele>
        <time>2018-11-24T10:36:47Z</time>
      </trkpt>
      <trkpt lat="42.425364" lon="0.732513">
        <ele>874.392</ele>
        <time>2018-11-24T10:36:48Z</time>
      </trkpt>
      <trkpt lat="42.425401" lon="0.732625">
        <ele>875.037</ele>
        <time>2018-11-24T10:36:49Z</time>
      </trkpt>
      <trkpt lat="42.425459" lon="0.732748">
        <ele>875.992</ele>
        <time>2018-11-24T10:36:50Z</time>
      </trkpt>
      <trkpt lat="42.425518" lon="0.732895">
        <ele>876.873</ele>
        <time>2018-11-24T10:36:51Z</time>
      </trkpt>
      <trkpt lat="42.425582" lon="0.733056">
        <ele>878.120</ele>
        <time>2018-11-24T10:36:52Z</time>
      </trkpt>
      <trkpt lat="42.425651" lon="0.733227">
        <ele>879.208</ele>
        <time>2018-11-24T10:36:53Z</time>
      </trkpt>
      <trkpt lat="42.425740" lon="0.733399">
        <ele>880.682</ele>
        <time>2018-11-24T10:36:54Z</time>
      </trkpt>
      <trkpt lat="42.425843" lon="0.733572">
        <ele>881.599</ele>
        <time>2018-11-24T10:36:55Z</time>
      </trkpt>
      <trkpt lat="42.425942" lon="0.733736">
        <ele>882.676</ele>
        <time>2018-11-24T10:36:56Z</time>
      </trkpt>
      <trkpt lat="42.426058" lon="0.733885">
        <ele>883.356</ele>
        <time>2018-11-24T10:36:57Z</time>
      </trkpt>
      <trkpt lat="42.426192" lon="0.734037">
        <ele>884.697</ele>
        <time>2018-11-24T10:36:58Z</time>
      </trkpt>
      <trkpt lat="42.426334" lon="0.734187">
        <ele>885.696</ele>
        <time>2018-11-24T10:36:59Z</time>
      </trkpt>
      <trkpt lat="42.426479" lon="0.734346">
        <ele>886.826</ele>
        <time>2018-11-24T10:37:00Z</time>
      </trkpt>
      <trkpt lat="42.426631" lon="0.734509">
        <ele>887.541</ele>
        <time>2018-11-24T10:37:01Z</time>
      </trkpt>
      <trkpt lat="42.426788" lon="0.734681">
        <ele>888.485</ele>
        <time>2018-11-24T10:37:02Z</time>
      </trkpt>
      <trkpt lat="42.426948" lon="0.734849">
        <ele>889.089</ele>
        <time>2018-11-24T10:37:03Z</time>
      </trkpt>
      <trkpt lat="42.427102" lon="0.735017">
        <ele>889.617</ele>
        <time>2018-11-24T10:37:04Z</time>
      </trkpt>
      <trkpt lat="42.427254" lon="0.735182">
        <ele>889.808</ele>
        <time>2018-11-24T10:37:05Z</time>
      </trkpt>
      <trkpt lat="42.427406" lon="0.735348">
        <ele>890.131</ele>
        <time>2018-11-24T10:37:06Z</time>
      </trkpt>
      <trkpt lat="42.427559" lon="0.735517">
        <ele>890.428</ele>
        <time>2018-11-24T10:37:07Z</time>
      </trkpt>
      <trkpt lat="42.427713" lon="0.735681">
        <ele>890.685</ele>
        <time>2018-11-24T10:37:08Z</time>
      </trkpt>
      <trkpt lat="42.427867" lon="0.735848">
        <ele>890.975</ele>
        <time>2018-11-24T10:37:09Z</time>
      </trkpt>
      <trkpt lat="42.428022" lon="0.736016">
        <ele>891.186</ele>
        <time>2018-11-24T10:37:10Z</time>
      </trkpt>
      <trkpt lat="42.428179" lon="0.736186">
        <ele>891.445</ele>
        <time>2018-11-24T10:37:11Z</time>
      </trkpt>
      <trkpt lat="42.428338" lon="0.736357">
        <ele>891.925</ele>
        <time>2018-11-24T10:37:12Z</time>
      </trkpt>
      <trkpt lat="42.428497" lon="0.736532">
        <ele>892.350</ele>
        <time>2018-11-24T10:37:13Z</time>
      </trkpt>
      <trkpt lat="42.428656" lon="0.736706">
        <ele>892.517</ele>
        <time>2018-11-24T10:37:14Z</time>
      </trkpt>
      <trkpt lat="42.428815" lon="0.736879">
        <ele>892.887</ele>
        <time>2018-11-24T10:37:15Z</time>
      </trkpt>
      <trkpt lat="42.428973" lon="0.737052">
        <ele>893.215</ele>
        <time>2018-11-24T10:37:16Z</time>
      </trkpt>
      <trkpt lat="42.429133" lon="0.737221">
        <ele>893.608</ele>
        <time>2018-11-24T10:37:17Z</time>
      </trkpt>
      <trkpt lat="42.429294" lon="0.737388">
        <ele>894.174</ele>
        <time>2018-11-24T10:37:18Z</time>
      </trkpt>
      <trkpt lat="42.429460" lon="0.737550">
        <ele>894.671</ele>
        <time>2018-11-24T10:37:19Z</time>
      </trkpt>
      <trkpt lat="42.429631" lon="0.737702">
        <ele>894.938</ele>
        <time>2018-11-24T10:37:20Z</time>
      </trkpt>
      <trkpt lat="42.429808" lon="0.737839">
        <ele>895.048</ele>
        <time>2018-11-24T10:37:21Z</time>
      </trkpt>
      <trkpt lat="42.429986" lon="0.737963">
        <ele>895.379</ele>
        <time>2018-11-24T10:37:22Z</time>
      </trkpt>
      <trkpt lat="42.430163" lon="0.738084">
        <ele>895.678</ele>
        <time>2018-11-24T10:37:23Z</time>
      </trkpt>
      <trkpt lat="42.430342" lon="0.738203">
        <ele>895.678</ele>
        <time>2018-11-24T10:37:24Z</time>
      </trkpt>
      <trkpt lat="42.430522" lon="0.738321">
        <ele>895.563</ele>
        <time>2018-11-24T10:37:25Z</time>
      </trkpt>
      <trkpt lat="42.430702" lon="0.738438">
        <ele>895.595</ele>
        <time>2018-11-24T10:37:26Z</time>
      </trkpt>
      <trkpt lat="42.430878" lon="0.738555">
        <ele>895.649</ele>
        <time>2018-11-24T10:37:27Z</time>
      </trkpt>
      <trkpt lat="42.431048" lon="0.738677">
        <ele>895.423</ele>
        <time>2018-11-24T10:37:28Z</time>
      </trkpt>
      <trkpt lat="42.431209" lon="0.738810">
        <ele>895.308</ele>
        <time>2018-11-24T10:37:29Z</time>
      </trkpt>
      <trkpt lat="42.431367" lon="0.738948">
        <ele>895.342</ele>
        <time>2018-11-24T10:37:30Z</time>
      </trkpt>
      <trkpt lat="42.431505" lon="0.739114">
        <ele>895.439</ele>
        <time>2018-11-24T10:37:31Z</time>
      </trkpt>
      <trkpt lat="42.431630" lon="0.739316">
        <ele>895.576</ele>
        <time>2018-11-24T10:37:32Z</time>
      </trkpt>
      <trkpt lat="42.431746" lon="0.739531">
        <ele>895.776</ele>
        <time>2018-11-24T10:37:33Z</time>
      </trkpt>
      <trkpt lat="42.431864" lon="0.739752">
        <ele>895.717</ele>
        <time>2018-11-24T10:37:34Z</time>
      </trkpt>
      <trkpt lat="42.431978" lon="0.739980">
        <ele>895.856</ele>
        <time>2018-11-24T10:37:35Z</time>
      </trkpt>
      <trkpt lat="42.432093" lon="0.740208">
        <ele>895.966</ele>
        <time>2018-11-24T10:37:36Z</time>
      </trkpt>
      <trkpt lat="42.432208" lon="0.740439">
        <ele>896.141</ele>
        <time>2018-11-24T10:37:37Z</time>
      </trkpt>
      <trkpt lat="42.432320" lon="0.740667">
        <ele>896.116</ele>
        <time>2018-11-24T10:37:38Z</time>
      </trkpt>
      <trkpt lat="42.432431" lon="0.740894">
        <ele>896.076</ele>
        <time>2018-11-24T10:37:39Z</time>
      </trkpt>
      <trkpt lat="42.432542" lon="0.741121">
        <ele>895.913</ele>
        <time>2018-11-24T10:37:40Z</time>
      </trkpt>
      <trkpt lat="42.432650" lon="0.741339">
        <ele>895.908</ele>
        <time>2018-11-24T10:37:41Z</time>
      </trkpt>
      <trkpt lat="42.432757" lon="0.741553">
        <ele>895.864</ele>
        <time>2018-11-24T10:37:42Z</time>
      </trkpt>
      <trkpt lat="42.432860" lon="0.741764">
        <ele>895.871</ele>
        <time>2018-11-24T10:37:43Z</time>
      </trkpt>
      <trkpt lat="42.432965" lon="0.741971">
        <ele>895.698</ele>
        <time>2018-11-24T10:37:44Z</time>
      </trkpt>
      <trkpt lat="42.433078" lon="0.742160">
        <ele>895.488</ele>
        <time>2018-11-24T10:37:45Z</time>
      </trkpt>
      <trkpt lat="42.433210" lon="0.742330">
        <ele>895.519</ele>
        <time>2018-11-24T10:37:46Z</time>
      </trkpt>
      <trkpt lat="42.433364" lon="0.742473">
        <ele>895.518</ele>
        <time>2018-11-24T10:37:47Z</time>
      </trkpt>
      <trkpt lat="42.433535" lon="0.742588">
        <ele>895.538</ele>
        <time>2018-11-24T10:37:48Z</time>
      </trkpt>
      <trkpt lat="42.433720" lon="0.742686">
        <ele>895.453</ele>
        <time>2018-11-24T10:37:49Z</time>
      </trkpt>
      <trkpt lat="42.433915" lon="0.742778">
        <ele>895.657</ele>
        <time>2018-11-24T10:37:50Z</time>
      </trkpt>
      <trkpt lat="42.434117" lon="0.742870">
        <ele>895.700</ele>
        <time>2018-11-24T10:37:51Z</time>
      </trkpt>
      <trkpt lat="42.434323" lon="0.742962">
        <ele>895.620</ele>
        <time>2018-11-24T10:37:52Z</time>
      </trkpt>
      <trkpt lat="42.434529" lon="0.743054">
        <ele>895.708</ele>
        <time>2018-11-24T10:37:53Z</time>
      </trkpt>
      <trkpt lat="42.434731" lon="0.743146">
        <ele>895.818</ele>
        <time>2018-11-24T10:37:54Z</time>
      </trkpt>
      <trkpt lat="42.434923" lon="0.743237">
        <ele>895.885</ele>
        <time>2018-11-24T10:37:55Z</time>
      </trkpt>
      <trkpt lat="42.435121" lon="0.743328">
        <ele>896.132</ele>
        <time>2018-11-24T10:37:56Z</time>
      </trkpt>
      <trkpt lat="42.435309" lon="0.743427">
        <ele>896.552</ele>
        <time>2018-11-24T10:37:57Z</time>
      </trkpt>
      <trkpt lat="42.435491" lon="0.743543">
        <ele>897.083</ele>
        <time>2018-11-24T10:37:58Z</time>
      </trkpt>
      <trkpt lat="42.435662" lon="0.743687">
        <ele>897.542</ele>
        <time>2018-11-24T10:37:59Z</time>
      </trkpt>
      <trkpt lat="42.435821" lon="0.743856">
        <ele>898.112</ele>
        <time>2018-11-24T10:38:00Z</time>
      </trkpt>
      <trkpt lat="42.435968" lon="0.744045">
        <ele>898.677</ele>
        <time>2018-11-24T10:38:01Z</time>
      </trkpt>
      <trkpt lat="42.436113" lon="0.744239">
        <ele>899.277</ele>
        <time>2018-11-24T10:38:02Z</time>
      </trkpt>
      <trkpt lat="42.436258" lon="0.744436">
        <ele>899.961</ele>
        <time>2018-11-24T10:38:03Z</time>
      </trkpt>
      <trkpt lat="42.436403" lon="0.744634">
        <ele>900.527</ele>
        <time>2018-11-24T10:38:04Z</time>
      </trkpt>
      <trkpt lat="42.436548" lon="0.744835">
        <ele>901.208</ele>
        <time>2018-11-24T10:38:05Z</time>
      </trkpt>
      <trkpt lat="42.436694" lon="0.745034">
        <ele>901.960</ele>
        <time>2018-11-24T10:38:06Z</time>
      </trkpt>
      <trkpt lat="42.436842" lon="0.745234">
        <ele>902.497</ele>
        <time>2018-11-24T10:38:07Z</time>
      </trkpt>
      <trkpt lat="42.436990" lon="0.745430">
        <ele>903.064</ele>
        <time>2018-11-24T10:38:08Z</time>
      </trkpt>
      <trkpt lat="42.437139" lon="0.745629">
        <ele>903.554</ele>
        <time>2018-11-24T10:38:09Z</time>
      </trkpt>
      <trkpt lat="42.437280" lon="0.745831">
        <ele>903.945</ele>
        <time>2018-11-24T10:38:10Z</time>
      </trkpt>
      <trkpt lat="42.437422" lon="0.746023">
        <ele>904.384</ele>
        <time>2018-11-24T10:38:11Z</time>
      </trkpt>
      <trkpt lat="42.437561" lon="0.746202">
        <ele>904.564</ele>
        <time>2018-11-24T10:38:12Z</time>
      </trkpt>
      <trkpt lat="42.437700" lon="0.746370">
        <ele>904.759</ele>
        <time>2018-11-24T10:38:13Z</time>
      </trkpt>
      <trkpt lat="42.437851" lon="0.746507">
        <ele>905.091</ele>
        <time>2018-11-24T10:38:14Z</time>
      </trkpt>
      <trkpt lat="42.438017" lon="0.746597">
        <ele>905.281</ele>
        <time>2018-11-24T10:38:15Z</time>
      </trkpt>
      <trkpt lat="42.438196" lon="0.746654">
        <ele>905.519</ele>
        <time>2018-11-24T10:38:16Z</time>
      </trkpt>
      <trkpt lat="42.438386" lon="0.746626">
        <ele>905.908</ele>
        <time>2018-11-24T10:38:17Z</time>
      </trkpt>
      <trkpt lat="42.438577" lon="0.746578">
        <ele>906.062</ele>
        <time>2018-11-24T10:38:18Z</time>
      </trkpt>
      <trkpt lat="42.438746" lon="0.746440">
        <ele>906.399</ele>
        <time>2018-11-24T10:38:19Z</time>
      </trkpt>
      <trkpt lat="42.438898" lon="0.746270">
        <ele>906.756</ele>
        <time>2018-11-24T10:38:20Z</time>
      </trkpt>
      <trkpt lat="42.439053" lon="0.746106">
        <ele>907.116</ele>
        <time>2018-11-24T10:38:21Z</time>
      </trkpt>
      <trkpt lat="42.439217" lon="0.745954">
        <ele>907.617</ele>
        <time>2018-11-24T10:38:22Z</time>
      </trkpt>
      <trkpt lat="42.439392" lon="0.745819">
        <ele>907.676</ele>
        <time>2018-11-24T10:38:23Z</time>
      </trkpt>
      <trkpt lat="42.439585" lon="0.745741">
        <ele>907.896</ele>
        <time>2018-11-24T10:38:24Z</time>
      </trkpt>
      <trkpt lat="42.439786" lon="0.745714">
        <ele>908.071</ele>
        <time>2018-11-24T10:38:25Z</time>
      </trkpt>
      <trkpt lat="42.439985" lon="0.745743">
        <ele>908.495</ele>
        <time>2018-11-24T10:38:26Z</time>
      </trkpt>
      <trkpt lat="42.440183" lon="0.745832">
        <ele>908.649</ele>
        <time>2018-11-24T10:38:27Z</time>
      </trkpt>
      <trkpt lat="42.440377" lon="0.745936">
        <ele>909.123</ele>
        <time>2018-11-24T10:38:28Z</time>
      </trkpt>
      <trkpt lat="42.440542" lon="0.746103">
        <ele>909.608</ele>
        <time>2018-11-24T10:38:29Z</time>
      </trkpt>
      <trkpt lat="42.440705" lon="0.746292">
        <ele>910.522</ele>
        <time>2018-11-24T10:38:30Z</time>
      </trkpt>
      <trkpt lat="42.440861" lon="0.746482">
        <ele>911.489</ele>
        <time>2018-11-24T10:38:31Z</time>
      </trkpt>
      <trkpt lat="42.441020" lon="0.746680">
        <ele>912.596</ele>
        <time>2018-11-24T10:38:32Z</time>
      </trkpt>
      <trkpt lat="42.441182" lon="0.746866">
        <ele>913.596</ele>
        <time>2018-11-24T10:38:33Z</time>
      </trkpt>
      <trkpt lat="42.441348" lon="0.747046">
        <ele>914.667</ele>
        <time>2018-11-24T10:38:34Z</time>
      </trkpt>
      <trkpt lat="42.441526" lon="0.747213">
        <ele>915.676</ele>
        <time>2018-11-24T10:38:35Z</time>
      </trkpt>
      <trkpt lat="42.441708" lon="0.747378">
        <ele>916.316</ele>
        <time>2018-11-24T10:38:36Z</time>
      </trkpt>
      <trkpt lat="42.441893" lon="0.747546">
        <ele>917.361</ele>
        <time>2018-11-24T10:38:37Z</time>
      </trkpt>
      <trkpt lat="42.442076" lon="0.747714">
        <ele>918.425</ele>
        <time>2018-11-24T10:38:38Z</time>
      </trkpt>
      <trkpt lat="42.442264" lon="0.747884">
        <ele>919.226</ele>
        <time>2018-11-24T10:38:39Z</time>
      </trkpt>
      <trkpt lat="42.442452" lon="0.748051">
        <ele>920.108</ele>
        <time>2018-11-24T10:38:40Z</time>
      </trkpt>
      <trkpt lat="42.442639" lon="0.748219">
        <ele>920.908</ele>
        <time>2018-11-24T10:38:41Z</time>
      </trkpt>
      <trkpt lat="42.442829" lon="0.748389">
        <ele>921.915</ele>
        <time>2018-11-24T10:38:42Z</time>
      </trkpt>
      <trkpt lat="42.443018" lon="0.748561">
        <ele>922.772</ele>
        <time>2018-11-24T10:38:43Z</time>
      </trkpt>
      <trkpt lat="42.443209" lon="0.748733">
        <ele>923.339</ele>
        <time>2018-11-24T10:38:44Z</time>
      </trkpt>
      <trkpt lat="42.443400" lon="0.748907">
        <ele>923.889</ele>
        <time>2018-11-24T10:38:45Z</time>
      </trkpt>
      <trkpt lat="42.443590" lon="0.749078">
        <ele>924.360</ele>
        <time>2018-11-24T10:38:46Z</time>
      </trkpt>
      <trkpt lat="42.443779" lon="0.749249">
        <ele>925.019</ele>
        <time>2018-11-24T10:38:47Z</time>
      </trkpt>
      <trkpt lat="42.443963" lon="0.749416">
        <ele>925.219</ele>
        <time>2018-11-24T10:38:48Z</time>
      </trkpt>
      <trkpt lat="42.444143" lon="0.749579">
        <ele>925.444</ele>
        <time>2018-11-24T10:38:49Z</time>
      </trkpt>
      <trkpt lat="42.444318" lon="0.749736">
        <ele>925.835</ele>
        <time>2018-11-24T10:38:50Z</time>
      </trkpt>
      <trkpt lat="42.444485" lon="0.749882">
        <ele>925.986</ele>
        <time>2018-11-24T10:38:51Z</time>
      </trkpt>
      <trkpt lat="42.444643" lon="0.750017">
        <ele>926.114</ele>
        <time>2018-11-24T10:38:52Z</time>
      </trkpt>
      <trkpt lat="42.444805" lon="0.750137">
        <ele>926.608</ele>
        <time>2018-11-24T10:38:53Z</time>
      </trkpt>
      <trkpt lat="42.444977" lon="0.750231">
        <ele>927.166</ele>
        <time>2018-11-24T10:38:54Z</time>
      </trkpt>
      <trkpt lat="42.445156" lon="0.750308">
        <ele>927.723</ele>
        <time>2018-11-24T10:38:55Z</time>
      </trkpt>
      <trkpt lat="42.445337" lon="0.750378">
        <ele>928.210</ele>
        <time>2018-11-24T10:38:56Z</time>
      </trkpt>
      <trkpt lat="42.445517" lon="0.750452">
        <ele>928.860</ele>
        <time>2018-11-24T10:38:57Z</time>
      </trkpt>
      <trkpt lat="42.445686" lon="0.750571">
        <ele>929.191</ele>
        <time>2018-11-24T10:38:58Z</time>
      </trkpt>
      <trkpt lat="42.445839" lon="0.750722">
        <ele>929.950</ele>
        <time>2018-11-24T10:38:59Z</time>
      </trkpt>
      <trkpt lat="42.445981" lon="0.750905">
        <ele>930.660</ele>
        <time>2018-11-24T10:39:00Z</time>
      </trkpt>
      <trkpt lat="42.446117" lon="0.751089">
        <ele>931.255</ele>
        <time>2018-11-24T10:39:01Z</time>
      </trkpt>
      <trkpt lat="42.446250" lon="0.751272">
        <ele>931.881</ele>
        <time>2018-11-24T10:39:02Z</time>
      </trkpt>
      <trkpt lat="42.446391" lon="0.751446">
        <ele>932.361</ele>
        <time>2018-11-24T10:39:03Z</time>
      </trkpt>
      <trkpt lat="42.446547" lon="0.751590">
        <ele>932.917</ele>
        <time>2018-11-24T10:39:04Z</time>
      </trkpt>
      <trkpt lat="42.446709" lon="0.751717">
        <ele>933.508</ele>
        <time>2018-11-24T10:39:05Z</time>
      </trkpt>
      <trkpt lat="42.446904" lon="0.751777">
        <ele>934.211</ele>
        <time>2018-11-24T10:39:06Z</time>
      </trkpt>
      <trkpt lat="42.447089" lon="0.751833">
        <ele>934.968</ele>
        <time>2018-11-24T10:39:07Z</time>
      </trkpt>
      <trkpt lat="42.447280" lon="0.751881">
        <ele>935.545</ele>
        <time>2018-11-24T10:39:08Z</time>
      </trkpt>
      <trkpt lat="42.447464" lon="0.751921">
        <ele>936.045</ele>
        <time>2018-11-24T10:39:09Z</time>
      </trkpt>
      <trkpt lat="42.447639" lon="0.751963">
        <ele>936.486</ele>
        <time>2018-11-24T10:39:10Z</time>
      </trkpt>
      <trkpt lat="42.447819" lon="0.751984">
        <ele>937.145</ele>
        <time>2018-11-24T10:39:11Z</time>
      </trkpt>
      <trkpt lat="42.447999" lon="0.751967">
        <ele>937.665</ele>
        <time>2018-11-24T10:39:12Z</time>
      </trkpt>
      <trkpt lat="42.448180" lon="0.751915">
        <ele>938.490</ele>
        <time>2018-11-24T10:39:13Z</time>
      </trkpt>
      <trkpt lat="42.448360" lon="0.751836">
        <ele>939.058</ele>
        <time>2018-11-24T10:39:14Z</time>
      </trkpt>
      <trkpt lat="42.448544" lon="0.751755">
        <ele>939.752</ele>
        <time>2018-11-24T10:39:15Z</time>
      </trkpt>
      <trkpt lat="42.448732" lon="0.751678">
        <ele>940.417</ele>
        <time>2018-11-24T10:39:16Z</time>
      </trkpt>
      <trkpt lat="42.448929" lon="0.751608">
        <ele>941.208</ele>
        <time>2018-11-24T10:39:17Z</time>
      </trkpt>
      <trkpt lat="42.449127" lon="0.751535">
        <ele>942.178</ele>
        <time>2018-11-24T10:39:18Z</time>
      </trkpt>
      <trkpt lat="42.449352" lon="0.751527">
        <ele>942.965</ele>
        <time>2018-11-24T10:39:19Z</time>
      </trkpt>
      <trkpt lat="42.449561" lon="0.751554">
        <ele>943.672</ele>
        <time>2018-11-24T10:39:20Z</time>
      </trkpt>
      <trkpt lat="42.449765" lon="0.751620">
        <ele>944.252</ele>
        <time>2018-11-24T10:39:21Z</time>
      </trkpt>
      <trkpt lat="42.449968" lon="0.751718">
        <ele>944.723</ele>
        <time>2018-11-24T10:39:22Z</time>
      </trkpt>
      <trkpt lat="42.450155" lon="0.751835">
        <ele>944.972</ele>
        <time>2018-11-24T10:39:23Z</time>
      </trkpt>
      <trkpt lat="42.450345" lon="0.751965">
        <ele>945.492</ele>
        <time>2018-11-24T10:39:24Z</time>
      </trkpt>
      <trkpt lat="42.450537" lon="0.752105">
        <ele>945.857</ele>
        <time>2018-11-24T10:39:25Z</time>
      </trkpt>
      <trkpt lat="42.450733" lon="0.752245">
        <ele>946.235</ele>
        <time>2018-11-24T10:39:26Z</time>
      </trkpt>
      <trkpt lat="42.450933" lon="0.752388">
        <ele>946.386</ele>
        <time>2018-11-24T10:39:27Z</time>
      </trkpt>
      <trkpt lat="42.451132" lon="0.752536">
        <ele>946.614</ele>
        <time>2018-11-24T10:39:28Z</time>
      </trkpt>
      <trkpt lat="42.451332" lon="0.752692">
        <ele>946.808</ele>
        <time>2018-11-24T10:39:29Z</time>
      </trkpt>
      <trkpt lat="42.451534" lon="0.752857">
        <ele>947.036</ele>
        <time>2018-11-24T10:39:30Z</time>
      </trkpt>
      <trkpt lat="42.451729" lon="0.753031">
        <ele>947.533</ele>
        <time>2018-11-24T10:39:31Z</time>
      </trkpt>
      <trkpt lat="42.451922" lon="0.753210">
        <ele>948.060</ele>
        <time>2018-11-24T10:39:32Z</time>
      </trkpt>
      <trkpt lat="42.452114" lon="0.753397">
        <ele>948.510</ele>
        <time>2018-11-24T10:39:33Z</time>
      </trkpt>
      <trkpt lat="42.452303" lon="0.753588">
        <ele>949.061</ele>
        <time>2018-11-24T10:39:34Z</time>
      </trkpt>
      <trkpt lat="42.452489" lon="0.753781">
        <ele>949.430</ele>
        <time>2018-11-24T10:39:35Z</time>
      </trkpt>
      <trkpt lat="42.452668" lon="0.753978">
        <ele>949.890</ele>
        <time>2018-11-24T10:39:36Z</time>
      </trkpt>
      <trkpt lat="42.452831" lon="0.754196">
        <ele>950.195</ele>
        <time>2018-11-24T10:39:37Z</time>
      </trkpt>
      <trkpt lat="42.452978" lon="0.754433">
        <ele>951.081</ele>
        <time>2018-11-24T10:39:38Z</time>
      </trkpt>
      <trkpt lat="42.453109" lon="0.754690">
        <ele>951.861</ele>
        <time>2018-11-24T10:39:39Z</time>
      </trkpt>
      <trkpt lat="42.453230" lon="0.754960">
        <ele>953.317</ele>
        <time>2018-11-24T10:39:40Z</time>
      </trkpt>
      <trkpt lat="42.453352" lon="0.755231">
        <ele>954.608</ele>
        <time>2018-11-24T10:39:41Z</time>
      </trkpt>
      <trkpt lat="42.453472" lon="0.755505">
        <ele>956.091</ele>
        <time>2018-11-24T10:39:42Z</time>
      </trkpt>
      <trkpt lat="42.453591" lon="0.755782">
        <ele>957.718</ele>
        <time>2018-11-24T10:39:43Z</time>
      </trkpt>
      <trkpt lat="42.453708" lon="0.756060">
        <ele>958.945</ele>
        <time>2018-11-24T10:39:44Z</time>
      </trkpt>
      <trkpt lat="42.453834" lon="0.756341">
        <ele>960.555</ele>
        <time>2018-11-24T10:39:45Z</time>
      </trkpt>
      <trkpt lat="42.453953" lon="0.756612">
        <ele>961.586</ele>
        <time>2018-11-24T10:39:46Z</time>
      </trkpt>
      <trkpt lat="42.454073" lon="0.756891">
        <ele>962.645</ele>
        <time>2018-11-24T10:39:47Z</time>
      </trkpt>
      <trkpt lat="42.454192" lon="0.757169">
        <ele>963.625</ele>
        <time>2018-11-24T10:39:48Z</time>
      </trkpt>
      <trkpt lat="42.454306" lon="0.757432">
        <ele>964.480</ele>
        <time>2018-11-24T10:39:49Z</time>
      </trkpt>
      <trkpt lat="42.454424" lon="0.757690">
        <ele>964.968</ele>
        <time>2018-11-24T10:39:50Z</time>
      </trkpt>
      <trkpt lat="42.454536" lon="0.757947">
        <ele>965.642</ele>
        <time>2018-11-24T10:39:51Z</time>
      </trkpt>
      <trkpt lat="42.454647" lon="0.758197">
        <ele>966.426</ele>
        <time>2018-11-24T10:39:52Z</time>
      </trkpt>
      <trkpt lat="42.454763" lon="0.758442">
        <ele>966.708</ele>
        <time>2018-11-24T10:39:53Z</time>
      </trkpt>
      <trkpt lat="42.454888" lon="0.758680">
        <ele>967.789</ele>
        <time>2018-11-24T10:39:54Z</time>
      </trkpt>
      <trkpt lat="42.455029" lon="0.758902">
        <ele>968.616</ele>
        <time>2018-11-24T10:39:55Z</time>
      </trkpt>
      <trkpt lat="42.455178" lon="0.759117">
        <ele>969.473</ele>
        <time>2018-11-24T10:39:56Z</time>
      </trkpt>
      <trkpt lat="42.455334" lon="0.759322">
        <ele>970.073</ele>
        <time>2018-11-24T10:39:57Z</time>
      </trkpt>
      <trkpt lat="42.455493" lon="0.759516">
        <ele>970.574</ele>
        <time>2018-11-24T10:39:58Z</time>
      </trkpt>
      <trkpt lat="42.455656" lon="0.759706">
        <ele>971.173</ele>
        <time>2018-11-24T10:39:59Z</time>
      </trkpt>
      <trkpt lat="42.455815" lon="0.759891">
        <ele>971.923</ele>
        <time>2018-11-24T10:40:00Z</time>
      </trkpt>
      <trkpt lat="42.455961" lon="0.760060">
        <ele>971.918</ele>
        <time>2018-11-24T10:40:01Z</time>
      </trkpt>
      <trkpt lat="42.456093" lon="0.760207">
        <ele>971.648</ele>
        <time>2018-11-24T10:40:02Z</time>
      </trkpt>
      <trkpt lat="42.456224" lon="0.760328">
        <ele>971.561</ele>
        <time>2018-11-24T10:40:03Z</time>
      </trkpt>
      <trkpt lat="42.456369" lon="0.760419">
        <ele>971.417</ele>
        <time>2018-11-24T10:40:04Z</time>
      </trkpt>
      <trkpt lat="42.456523" lon="0.760498">
        <ele>971.208</ele>
        <time>2018-11-24T10:40:05Z</time>
      </trkpt>
      <trkpt lat="42.456696" lon="0.760528">
        <ele>971.057</ele>
        <time>2018-11-24T10:40:06Z</time>
      </trkpt>
      <trkpt lat="42.456866" lon="0.760548">
        <ele>970.354</ele>
        <time>2018-11-24T10:40:07Z</time>
      </trkpt>
      <trkpt lat="42.457033" lon="0.760596">
        <ele>969.511</ele>
        <time>2018-11-24T10:40:08Z</time>
      </trkpt>
      <trkpt lat="42.457187" lon="0.760697">
        <ele>968.431</ele>
        <time>2018-11-24T10:40:09Z</time>
      </trkpt>
      <trkpt lat="42.457330" lon="0.760814">
        <ele>967.572</ele>
        <time>2018-11-24T10:40:10Z</time>
      </trkpt>
      <trkpt lat="42.457440" lon="0.760999">
        <ele>967.181</ele>
        <time>2018-11-24T10:40:11Z</time>
      </trkpt>
      <trkpt lat="42.457533" lon="0.761213">
        <ele>966.391</ele>
        <time>2018-11-24T10:40:12Z</time>
      </trkpt>
      <trkpt lat="42.457600" lon="0.761469">
        <ele>965.656</ele>
        <time>2018-11-24T10:40:13Z</time>
      </trkpt>
      <trkpt lat="42.457677" lon="0.761728">
        <ele>964.778</ele>
        <time>2018-11-24T10:40:14Z</time>
      </trkpt>
      <trkpt lat="42.457755" lon="0.761990">
        <ele>963.833</ele>
        <time>2018-11-24T10:40:15Z</time>
      </trkpt>
      <trkpt lat="42.457869" lon="0.762238">
        <ele>963.226</ele>
        <time>2018-11-24T10:40:16Z</time>
      </trkpt>
      <trkpt lat="42.458000" lon="0.762469">
        <ele>962.608</ele>
        <time>2018-11-24T10:40:17Z</time>
      </trkpt>
      <trkpt lat="42.458162" lon="0.762677">
        <ele>962.380</ele>
        <time>2018-11-24T10:40:18Z</time>
      </trkpt>
      <trkpt lat="42.458350" lon="0.762837">
        <ele>961.997</ele>
        <time>2018-11-24T10:40:19Z</time>
      </trkpt>
      <trkpt lat="42.458534" lon="0.762995">
        <ele>961.974</ele>
        <time>2018-11-24T10:40:20Z</time>
      </trkpt>
      <trkpt lat="42.458739" lon="0.763096">
        <ele>962.064</ele>
        <time>2018-11-24T10:40:21Z</time>
      </trkpt>
      <trkpt lat="42.458952" lon="0.763182">
        <ele>962.145</ele>
        <time>2018-11-24T10:40:22Z</time>
      </trkpt>
      <trkpt lat="42.459162" lon="0.763264">
        <ele>962.134</ele>
        <time>2018-11-24T10:40:23Z</time>
      </trkpt>
      <trkpt lat="42.459358" lon="0.763333">
        <ele>960.354</ele>
        <time>2018-11-24T10:40:24Z</time>
      </trkpt>
      <trkpt lat="42.459547" lon="0.763401">
        <ele>960.239</ele>
        <time>2018-11-24T10:40:25Z</time>
      </trkpt>
      <trkpt lat="42.459708" lon="0.763501">
        <ele>960.855</ele>
        <time>2018-11-24T10:40:26Z</time>
      </trkpt>
      <trkpt lat="42.459854" lon="0.763633">
        <ele>961.207</ele>
        <time>2018-11-24T10:40:27Z</time>
      </trkpt>
      <trkpt lat="42.459972" lon="0.763820">
        <ele>961.517</ele>
        <time>2018-11-24T10:40:28Z</time>
      </trkpt>
      <trkpt lat="42.460058" lon="0.764052">
        <ele>961.808</ele>
        <time>2018-11-24T10:40:29Z</time>
      </trkpt>
      <trkpt lat="42.460145" lon="0.764281">
        <ele>962.388</ele>
        <time>2018-11-24T10:40:30Z</time>
      </trkpt>
      <trkpt lat="42.460226" lon="0.764532">
        <ele>962.665</ele>
        <time>2018-11-24T10:40:31Z</time>
      </trkpt>
      <trkpt lat="42.460287" lon="0.764796">
        <ele>962.812</ele>
        <time>2018-11-24T10:40:32Z</time>
      </trkpt>
      <trkpt lat="42.460328" lon="0.765056">
        <ele>963.342</ele>
        <time>2018-11-24T10:40:33Z</time>
      </trkpt>
      <trkpt lat="42.460355" lon="0.765326">
        <ele>963.813</ele>
        <time>2018-11-24T10:40:34Z</time>
      </trkpt>
      <trkpt lat="42.460375" lon="0.765590">
        <ele>964.282</ele>
        <time>2018-11-24T10:40:35Z</time>
      </trkpt>
      <trkpt lat="42.460395" lon="0.765845">
        <ele>964.262</ele>
        <time>2018-11-24T10:40:36Z</time>
      </trkpt>
      <trkpt lat="42.460416" lon="0.766091">
        <ele>964.397</ele>
        <time>2018-11-24T10:40:37Z</time>
      </trkpt>
      <trkpt lat="42.460451" lon="0.766327">
        <ele>964.512</ele>
        <time>2018-11-24T10:40:38Z</time>
      </trkpt>
      <trkpt lat="42.460518" lon="0.766552">
        <ele>965.132</ele>
        <time>2018-11-24T10:40:39Z</time>
      </trkpt>
      <trkpt lat="42.460602" lon="0.766763">
        <ele>965.405</ele>
        <time>2018-11-24T10:40:40Z</time>
      </trkpt>
      <trkpt lat="42.460715" lon="0.766955">
        <ele>965.908</ele>
        <time>2018-11-24T10:40:41Z</time>
      </trkpt>
      <trkpt lat="42.460837" lon="0.767155">
        <ele>966.174</ele>
        <time>2018-11-24T10:40:42Z</time>
      </trkpt>
      <trkpt lat="42.460924" lon="0.767396">
        <ele>966.541</ele>
        <time>2018-11-24T10:40:43Z</time>
      </trkpt>
      <trkpt lat="42.460996" lon="0.767656">
        <ele>967.048</ele>
        <time>2018-11-24T10:40:44Z</time>
      </trkpt>
      <trkpt lat="42.461065" lon="0.767908">
        <ele>967.778</ele>
        <time>2018-11-24T10:40:45Z</time>
      </trkpt>
      <trkpt lat="42.461137" lon="0.768185">
        <ele>968.319</ele>
        <time>2018-11-24T10:40:46Z</time>
      </trkpt>
      <trkpt lat="42.461206" lon="0.768442">
        <ele>968.618</ele>
        <time>2018-11-24T10:40:47Z</time>
      </trkpt>
      <trkpt lat="42.461275" lon="0.768701">
        <ele>969.038</ele>
        <time>2018-11-24T10:40:48Z</time>
      </trkpt>
      <trkpt lat="42.461337" lon="0.768935">
        <ele>969.033</ele>
        <time>2018-11-24T10:40:49Z</time>
      </trkpt>
      <trkpt lat="42.461406" lon="0.769131">
        <ele>968.998</ele>
        <time>2018-11-24T10:40:50Z</time>
      </trkpt>
      <trkpt lat="42.461479" lon="0.769309">
        <ele>969.015</ele>
        <time>2018-11-24T10:40:51Z</time>
      </trkpt>
      <trkpt lat="42.461602" lon="0.769448">
        <ele>969.426</ele>
        <time>2018-11-24T10:40:52Z</time>
      </trkpt>
      <trkpt lat="42.461734" lon="0.769545">
        <ele>969.708</ele>
        <time>2018-11-24T10:40:53Z</time>
      </trkpt>
      <trkpt lat="42.461889" lon="0.769610">
        <ele>970.262</ele>
        <time>2018-11-24T10:40:54Z</time>
      </trkpt>
      <trkpt lat="42.462063" lon="0.769583">
        <ele>970.649</ele>
        <time>2018-11-24T10:40:55Z</time>
      </trkpt>
      <trkpt lat="42.462242" lon="0.769545">
        <ele>971.196</ele>
        <time>2018-11-24T10:40:56Z</time>
      </trkpt>
      <trkpt lat="42.462405" lon="0.769530">
        <ele>971.656</ele>
        <time>2018-11-24T10:40:57Z</time>
      </trkpt>
      <trkpt lat="42.462579" lon="0.769509">
        <ele>972.217</ele>
        <time>2018-11-24T10:40:58Z</time>
      </trkpt>
      <trkpt lat="42.462757" lon="0.769498">
        <ele>973.136</ele>
        <time>2018-11-24T10:40:59Z</time>
      </trkpt>
      <trkpt lat="42.462925" lon="0.769517">
        <ele>974.046</ele>
        <time>2018-11-24T10:41:00Z</time>
      </trkpt>
      <trkpt lat="42.463089" lon="0.769582">
        <ele>975.381</ele>
        <time>2018-11-24T10:41:01Z</time>
      </trkpt>
      <trkpt lat="42.463247" lon="0.769687">
        <ele>976.474</ele>
        <time>2018-11-24T10:41:02Z</time>
      </trkpt>
      <trkpt lat="42.463389" lon="0.769828">
        <ele>977.756</ele>
        <time>2018-11-24T10:41:03Z</time>
      </trkpt>
      <trkpt lat="42.463525" lon="0.769983">
        <ele>979.321</ele>
        <time>2018-11-24T10:41:04Z</time>
      </trkpt>
      <trkpt lat="42.463657" lon="0.770148">
        <ele>980.608</ele>
        <time>2018-11-24T10:41:05Z</time>
      </trkpt>
      <trkpt lat="42.463793" lon="0.770307">
        <ele>981.820</ele>
        <time>2018-11-24T10:41:06Z</time>
      </trkpt>
      <trkpt lat="42.463941" lon="0.770454">
        <ele>983.387</ele>
        <time>2018-11-24T10:41:07Z</time>
      </trkpt>
      <trkpt lat="42.464101" lon="0.770576">
        <ele>984.844</ele>
        <time>2018-11-24T10:41:08Z</time>
      </trkpt>
      <trkpt lat="42.464271" lon="0.770670">
        <ele>985.854</ele>
        <time>2018-11-24T10:41:09Z</time>
      </trkpt>
      <trkpt lat="42.464446" lon="0.770750">
        <ele>987.155</ele>
        <time>2018-11-24T10:41:10Z</time>
      </trkpt>
      <trkpt lat="42.464622" lon="0.770821">
        <ele>988.274</ele>
        <time>2018-11-24T10:41:11Z</time>
      </trkpt>
      <trkpt lat="42.464797" lon="0.770889">
        <ele>989.664</ele>
        <time>2018-11-24T10:41:12Z</time>
      </trkpt>
      <trkpt lat="42.464966" lon="0.770962">
        <ele>990.779</ele>
        <time>2018-11-24T10:41:13Z</time>
      </trkpt>
      <trkpt lat="42.465130" lon="0.771056">
        <ele>991.591</ele>
        <time>2018-11-24T10:41:14Z</time>
      </trkpt>
      <trkpt lat="42.465287" lon="0.771172">
        <ele>992.081</ele>
        <time>2018-11-24T10:41:15Z</time>
      </trkpt>
      <trkpt lat="42.465435" lon="0.771316">
        <ele>992.819</ele>
        <time>2018-11-24T10:41:16Z</time>
      </trkpt>
      <trkpt lat="42.465579" lon="0.771476">
        <ele>993.408</ele>
        <time>2018-11-24T10:41:17Z</time>
      </trkpt>
      <trkpt lat="42.465726" lon="0.771640">
        <ele>993.822</ele>
        <time>2018-11-24T10:41:18Z</time>
      </trkpt>
      <trkpt lat="42.465868" lon="0.771811">
        <ele>994.049</ele>
        <time>2018-11-24T10:41:19Z</time>
      </trkpt>
      <trkpt lat="42.465997" lon="0.771998">
        <ele>994.146</ele>
        <time>2018-11-24T10:41:20Z</time>
      </trkpt>
      <trkpt lat="42.466112" lon="0.772206">
        <ele>994.426</ele>
        <time>2018-11-24T10:41:21Z</time>
      </trkpt>
      <trkpt lat="42.466210" lon="0.772435">
        <ele>995.017</ele>
        <time>2018-11-24T10:41:22Z</time>
      </trkpt>
      <trkpt lat="42.466303" lon="0.772675">
        <ele>995.316</ele>
        <time>2018-11-24T10:41:23Z</time>
      </trkpt>
      <trkpt lat="42.466392" lon="0.772922">
        <ele>995.846</ele>
        <time>2018-11-24T10:41:24Z</time>
      </trkpt>
      <trkpt lat="42.466482" lon="0.773174">
        <ele>996.251</ele>
        <time>2018-11-24T10:41:25Z</time>
      </trkpt>
      <trkpt lat="42.466578" lon="0.773432">
        <ele>996.535</ele>
        <time>2018-11-24T10:41:26Z</time>
      </trkpt>
      <trkpt lat="42.466674" lon="0.773696">
        <ele>996.986</ele>
        <time>2018-11-24T10:41:27Z</time>
      </trkpt>
      <trkpt lat="42.466768" lon="0.773966">
        <ele>997.214</ele>
        <time>2018-11-24T10:41:28Z</time>
      </trkpt>
      <trkpt lat="42.466866" lon="0.774237">
        <ele>997.408</ele>
        <time>2018-11-24T10:41:29Z</time>
      </trkpt>
      <trkpt lat="42.466965" lon="0.774512">
        <ele>997.646</ele>
        <time>2018-11-24T10:41:30Z</time>
      </trkpt>
      <trkpt lat="42.467063" lon="0.774787">
        <ele>997.943</ele>
        <time>2018-11-24T10:41:31Z</time>
      </trkpt>
      <trkpt lat="42.467163" lon="0.775065">
        <ele>997.980</ele>
        <time>2018-11-24T10:41:32Z</time>
      </trkpt>
      <trkpt lat="42.467265" lon="0.775343">
        <ele>998.020</ele>
        <time>2018-11-24T10:41:33Z</time>
      </trkpt>
      <trkpt lat="42.467366" lon="0.775623">
        <ele>998.111</ele>
        <time>2018-11-24T10:41:34Z</time>
      </trkpt>
      <trkpt lat="42.467467" lon="0.775904">
        <ele>998.480</ele>
        <time>2018-11-24T10:41:35Z</time>
      </trkpt>
      <trkpt lat="42.467568" lon="0.776185">
        <ele>998.660</ele>
        <time>2018-11-24T10:41:36Z</time>
      </trkpt>
      <trkpt lat="42.467667" lon="0.776462">
        <ele>998.535</ele>
        <time>2018-11-24T10:41:37Z</time>
      </trkpt>
      <trkpt lat="42.467762" lon="0.776724">
        <ele>998.373</ele>
        <time>2018-11-24T10:41:38Z</time>
      </trkpt>
      <trkpt lat="42.467852" lon="0.776963">
        <ele>997.885</ele>
        <time>2018-11-24T10:41:39Z</time>
      </trkpt>
      <trkpt lat="42.467950" lon="0.777181">
        <ele>997.513</ele>
        <time>2018-11-24T10:41:40Z</time>
      </trkpt>
      <trkpt lat="42.468069" lon="0.777376">
        <ele>997.408</ele>
        <time>2018-11-24T10:41:41Z</time>
      </trkpt>
      <trkpt lat="42.468194" lon="0.777560">
        <ele>997.610</ele>
        <time>2018-11-24T10:41:42Z</time>
      </trkpt>
      <trkpt lat="42.468360" lon="0.777682">
        <ele>997.937</ele>
        <time>2018-11-24T10:41:43Z</time>
      </trkpt>
      <trkpt lat="42.468556" lon="0.777741">
        <ele>998.454</ele>
        <time>2018-11-24T10:41:44Z</time>
      </trkpt>
      <trkpt lat="42.468748" lon="0.777788">
        <ele>998.844</ele>
        <time>2018-11-24T10:41:45Z</time>
      </trkpt>
      <trkpt lat="42.468950" lon="0.777824">
        <ele>999.395</ele>
        <time>2018-11-24T10:41:46Z</time>
      </trkpt>
      <trkpt lat="42.469148" lon="0.777856">
        <ele>999.784</ele>
        <time>2018-11-24T10:41:47Z</time>
      </trkpt>
      <trkpt lat="42.469338" lon="0.777891">
        <ele>1000.274</ele>
        <time>2018-11-24T10:41:48Z</time>
      </trkpt>
      <trkpt lat="42.469529" lon="0.777918">
        <ele>1000.849</ele>
        <time>2018-11-24T10:41:49Z</time>
      </trkpt>
      <trkpt lat="42.469709" lon="0.777948">
        <ele>1001.237</ele>
        <time>2018-11-24T10:41:50Z</time>
      </trkpt>
      <trkpt lat="42.469880" lon="0.777974">
        <ele>1001.749</ele>
        <time>2018-11-24T10:41:51Z</time>
      </trkpt>
      <trkpt lat="42.470040" lon="0.778001">
        <ele>1002.013</ele>
        <time>2018-11-24T10:41:52Z</time>
      </trkpt>
      <trkpt lat="42.470195" lon="0.778024">
        <ele>1002.308</ele>
        <time>2018-11-24T10:41:53Z</time>
      </trkpt>
      <trkpt lat="42.470345" lon="0.778048">
        <ele>1002.876</ele>
        <time>2018-11-24T10:41:54Z</time>
      </trkpt>
      <trkpt lat="42.470492" lon="0.778073">
        <ele>1003.363</ele>
        <time>2018-11-24T10:41:55Z</time>
      </trkpt>
      <trkpt lat="42.470637" lon="0.778094">
        <ele>1003.640</ele>
        <time>2018-11-24T10:41:56Z</time>
      </trkpt>
      <trkpt lat="42.470781" lon="0.778112">
        <ele>1004.230</ele>
        <time>2018-11-24T10:41:57Z</time>
      </trkpt>
      <trkpt lat="42.470926" lon="0.778127">
        <ele>1004.761</ele>
        <time>2018-11-24T10:41:58Z</time>
      </trkpt>
      <trkpt lat="42.471067" lon="0.778123">
        <ele>1005.220</ele>
        <time>2018-11-24T10:41:59Z</time>
      </trkpt>
      <trkpt lat="42.471205" lon="0.778110">
        <ele>1005.670</ele>
        <time>2018-11-24T10:42:00Z</time>
      </trkpt>
      <trkpt lat="42.471339" lon="0.778085">
        <ele>1006.075</ele>
        <time>2018-11-24T10:42:01Z</time>
      </trkpt>
      <trkpt lat="42.471468" lon="0.778051">
        <ele>1006.622</ele>
        <time>2018-11-24T10:42:02Z</time>
      </trkpt>
      <trkpt lat="42.471595" lon="0.778008">
        <ele>1007.162</ele>
        <time>2018-11-24T10:42:03Z</time>
      </trkpt>
      <trkpt lat="42.471721" lon="0.777957">
        <ele>1007.608</ele>
        <time>2018-11-24T10:42:04Z</time>
      </trkpt>
      <trkpt lat="42.471845" lon="0.777896">
        <ele>1008.008</ele>
        <time>2018-11-24T10:42:05Z</time>
      </trkpt>
      <trkpt lat="42.471971" lon="0.777825">
        <ele>1008.575</ele>
        <time>2018-11-24T10:42:06Z</time>
      </trkpt>
      <trkpt lat="42.472096" lon="0.777747">
        <ele>1009.052</ele>
        <time>2018-11-24T10:42:07Z</time>
      </trkpt>
      <trkpt lat="42.472223" lon="0.777666">
        <ele>1009.569</ele>
        <time>2018-11-24T10:42:08Z</time>
      </trkpt>
      <trkpt lat="42.472351" lon="0.777584">
        <ele>1009.979</ele>
        <time>2018-11-24T10:42:09Z</time>
      </trkpt>
      <trkpt lat="42.472481" lon="0.777501">
        <ele>1010.440</ele>
        <time>2018-11-24T10:42:10Z</time>
      </trkpt>
      <trkpt lat="42.472610" lon="0.777417">
        <ele>1011.179</ele>
        <time>2018-11-24T10:42:11Z</time>
      </trkpt>
      <trkpt lat="42.472738" lon="0.777335">
        <ele>1011.559</ele>
        <time>2018-11-24T10:42:12Z</time>
      </trkpt>
      <trkpt lat="42.472862" lon="0.777261">
        <ele>1011.984</ele>
        <time>2018-11-24T10:42:13Z</time>
      </trkpt>
      <trkpt lat="42.472985" lon="0.777197">
        <ele>1012.318</ele>
        <time>2018-11-24T10:42:14Z</time>
      </trkpt>
      <trkpt lat="42.473107" lon="0.777141">
        <ele>1012.698</ele>
        <time>2018-11-24T10:42:15Z</time>
      </trkpt>
      <trkpt lat="42.473228" lon="0.777095">
        <ele>1013.017</ele>
        <time>2018-11-24T10:42:16Z</time>
      </trkpt>
      <trkpt lat="42.473352" lon="0.777061">
        <ele>1013.408</ele>
        <time>2018-11-24T10:42:17Z</time>
      </trkpt>
      <trkpt lat="42.473480" lon="0.777039">
        <ele>1013.834</ele>
        <time>2018-11-24T10:42:18Z</time>
      </trkpt>
      <trkpt lat="42.473607" lon="0.777024">
        <ele>1014.341</ele>
        <time>2018-11-24T10:42:19Z</time>
      </trkpt>
      <trkpt lat="42.473733" lon="0.777024">
        <ele>1014.758</ele>
        <time>2018-11-24T10:42:20Z</time>
      </trkpt>
      <trkpt lat="42.473861" lon="0.777027">
        <ele>1015.288</ele>
        <time>2018-11-24T10:42:21Z</time>
      </trkpt>
      <trkpt lat="42.473984" lon="0.777062">
        <ele>1015.819</ele>
        <time>2018-11-24T10:42:22Z</time>
      </trkpt>
      <trkpt lat="42.474113" lon="0.777092">
        <ele>1016.248</ele>
        <time>2018-11-24T10:42:23Z</time>
      </trkpt>
      <trkpt lat="42.474245" lon="0.777134">
        <ele>1016.828</ele>
        <time>2018-11-24T10:42:24Z</time>
      </trkpt>
      <trkpt lat="42.474385" lon="0.777165">
        <ele>1017.213</ele>
        <time>2018-11-24T10:42:25Z</time>
      </trkpt>
      <trkpt lat="42.474527" lon="0.777212">
        <ele>1017.935</ele>
        <time>2018-11-24T10:42:26Z</time>
      </trkpt>
      <trkpt lat="42.474671" lon="0.777265">
        <ele>1018.486</ele>
        <time>2018-11-24T10:42:27Z</time>
      </trkpt>
      <trkpt lat="42.474812" lon="0.777311">
        <ele>1018.614</ele>
        <time>2018-11-24T10:42:28Z</time>
      </trkpt>
      <trkpt lat="42.474951" lon="0.777356">
        <ele>1018.808</ele>
        <time>2018-11-24T10:42:29Z</time>
      </trkpt>
      <trkpt lat="42.475092" lon="0.777401">
        <ele>1019.376</ele>
        <time>2018-11-24T10:42:30Z</time>
      </trkpt>
      <trkpt lat="42.475233" lon="0.777448">
        <ele>1019.723</ele>
        <time>2018-11-24T10:42:31Z</time>
      </trkpt>
      <trkpt lat="42.475363" lon="0.777503">
        <ele>1019.820</ele>
        <time>2018-11-24T10:42:32Z</time>
      </trkpt>
      <trkpt lat="42.475486" lon="0.777556">
        <ele>1020.130</ele>
        <time>2018-11-24T10:42:33Z</time>
      </trkpt>
      <trkpt lat="42.475603" lon="0.777611">
        <ele>1020.391</ele>
        <time>2018-11-24T10:42:34Z</time>
      </trkpt>
      <trkpt lat="42.475722" lon="0.777661">
        <ele>1020.640</ele>
        <time>2018-11-24T10:42:35Z</time>
      </trkpt>
      <trkpt lat="42.475837" lon="0.777697">
        <ele>1020.980</ele>
        <time>2018-11-24T10:42:36Z</time>
      </trkpt>
      <trkpt lat="42.475954" lon="0.777734">
        <ele>1021.295</ele>
        <time>2018-11-24T10:42:37Z</time>
      </trkpt>
      <trkpt lat="42.476075" lon="0.777774">
        <ele>1021.525</ele>
        <time>2018-11-24T10:42:38Z</time>
      </trkpt>
      <trkpt lat="42.476197" lon="0.777816">
        <ele>1021.926</ele>
        <time>2018-11-24T10:42:39Z</time>
      </trkpt>
      <trkpt lat="42.476317" lon="0.777857">
        <ele>1022.008</ele>
        <time>2018-11-24T10:42:40Z</time>
      </trkpt>
      <trkpt lat="42.476439" lon="0.777901">
        <ele>1022.508</ele>
        <time>2018-11-24T10:42:41Z</time>
      </trkpt>
      <trkpt lat="42.476565" lon="0.777944">
        <ele>1022.895</ele>
        <time>2018-11-24T10:42:42Z</time>
      </trkpt>
      <trkpt lat="42.476693" lon="0.777993">
        <ele>1023.252</ele>
        <time>2018-11-24T10:42:43Z</time>
      </trkpt>
      <trkpt lat="42.476822" lon="0.778046">
        <ele>1023.419</ele>
        <time>2018-11-24T10:42:44Z</time>
      </trkpt>
      <trkpt lat="42.476949" lon="0.778104">
        <ele>1023.629</ele>
        <time>2018-11-24T10:42:45Z</time>
      </trkpt>
      <trkpt lat="42.477073" lon="0.778169">
        <ele>1023.960</ele>
        <time>2018-11-24T10:42:46Z</time>
      </trkpt>
      <trkpt lat="42.477198" lon="0.778239">
        <ele>1024.129</ele>
        <time>2018-11-24T10:42:47Z</time>
      </trkpt>
      <trkpt lat="42.477323" lon="0.778312">
        <ele>1024.499</ele>
        <time>2018-11-24T10:42:48Z</time>
      </trkpt>
      <trkpt lat="42.477448" lon="0.778386">
        <ele>1024.734</ele>
        <time>2018-11-24T10:42:49Z</time>
      </trkpt>
      <trkpt lat="42.477574" lon="0.778462">
        <ele>1025.066</ele>
        <time>2018-11-24T10:42:50Z</time>
      </trkpt>
      <trkpt lat="42.477704" lon="0.778532">
        <ele>1025.229</ele>
        <time>2018-11-24T10:42:51Z</time>
      </trkpt>
      <trkpt lat="42.477834" lon="0.778600">
        <ele>1025.521</ele>
        <time>2018-11-24T10:42:52Z</time>
      </trkpt>
      <trkpt lat="42.477962" lon="0.778666">
        <ele>1025.808</ele>
        <time>2018-11-24T10:42:53Z</time>
      </trkpt>
      <trkpt lat="42.478092" lon="0.778728">
        <ele>1026.189</ele>
        <time>2018-11-24T10:42:54Z</time>
      </trkpt>
      <trkpt lat="42.478221" lon="0.778784">
        <ele>1026.246</ele>
        <time>2018-11-24T10:42:55Z</time>
      </trkpt>
      <trkpt lat="42.478353" lon="0.778833">
        <ele>1026.523</ele>
        <time>2018-11-24T10:42:56Z</time>
      </trkpt>
      <trkpt lat="42.478488" lon="0.778878">
        <ele>1026.853</ele>
        <time>2018-11-24T10:42:57Z</time>
      </trkpt>
      <trkpt lat="42.478625" lon="0.778906">
        <ele>1026.934</ele>
        <time>2018-11-24T10:42:58Z</time>
      </trkpt>
      <trkpt lat="42.478761" lon="0.778926">
        <ele>1027.143</ele>
        <time>2018-11-24T10:42:59Z</time>
      </trkpt>
      <trkpt lat="42.478902" lon="0.778934">
        <ele>1027.473</ele>
        <time>2018-11-24T10:43:00Z</time>
      </trkpt>
      <trkpt lat="42.479046" lon="0.778937">
        <ele>1027.728</ele>
        <time>2018-11-24T10:43:01Z</time>
      </trkpt>
      <trkpt lat="42.479195" lon="0.778947">
        <ele>1028.016</ele>
        <time>2018-11-24T10:43:02Z</time>
      </trkpt>
      <trkpt lat="42.479341" lon="0.778947">
        <ele>1028.276</ele>
        <time>2018-11-24T10:43:03Z</time>
      </trkpt>
      <trkpt lat="42.479485" lon="0.778943">
        <ele>1028.413</ele>
        <time>2018-11-24T10:43:04Z</time>
      </trkpt>
      <trkpt lat="42.479630" lon="0.778934">
        <ele>1028.508</ele>
        <time>2018-11-24T10:43:05Z</time>
      </trkpt>
      <trkpt lat="42.479773" lon="0.778930">
        <ele>1028.864</ele>
        <time>2018-11-24T10:43:06Z</time>
      </trkpt>
      <trkpt lat="42.479911" lon="0.778929">
        <ele>1028.921</ele>
        <time>2018-11-24T10:43:07Z</time>
      </trkpt>
      <trkpt lat="42.480051" lon="0.778930">
        <ele>1029.168</ele>
        <time>2018-11-24T10:43:08Z</time>
      </trkpt>
      <trkpt lat="42.480195" lon="0.778927">
        <ele>1029.328</ele>
        <time>2018-11-24T10:43:09Z</time>
      </trkpt>
      <trkpt lat="42.480337" lon="0.778913">
        <ele>1029.729</ele>
        <time>2018-11-24T10:43:10Z</time>
      </trkpt>
      <trkpt lat="42.480482" lon="0.778907">
        <ele>1029.768</ele>
        <time>2018-11-24T10:43:11Z</time>
      </trkpt>
      <trkpt lat="42.480629" lon="0.778913">
        <ele>1029.568</ele>
        <time>2018-11-24T10:43:12Z</time>
      </trkpt>
      <trkpt lat="42.480777" lon="0.778907">
        <ele>1029.573</ele>
        <time>2018-11-24T10:43:13Z</time>
      </trkpt>
      <trkpt lat="42.480935" lon="0.778898">
        <ele>1029.981</ele>
        <time>2018-11-24T10:43:14Z</time>
      </trkpt>
      <trkpt lat="42.481093" lon="0.778882">
        <ele>1030.761</ele>
        <time>2018-11-24T10:43:15Z</time>
      </trkpt>
      <trkpt lat="42.481266" lon="0.778871">
        <ele>1031.617</ele>
        <time>2018-11-24T10:43:16Z</time>
      </trkpt>
      <trkpt lat="42.481449" lon="0.778856">
        <ele>1032.908</ele>
        <time>2018-11-24T10:43:17Z</time>
      </trkpt>
      <trkpt lat="42.481641" lon="0.778844">
        <ele>1033.841</ele>
        <time>2018-11-24T10:43:18Z</time>
      </trkpt>
      <trkpt lat="42.481835" lon="0.778836">
        <ele>1034.738</ele>
        <time>2018-11-24T10:43:19Z</time>
      </trkpt>
      <trkpt lat="42.482020" lon="0.778826">
        <ele>1036.445</ele>
        <time>2018-11-24T10:43:20Z</time>
      </trkpt>
      <trkpt lat="42.482196" lon="0.778813">
        <ele>1038.065</ele>
        <time>2018-11-24T10:43:21Z</time>
      </trkpt>
      <trkpt lat="42.482363" lon="0.778802">
        <ele>1038.796</ele>
        <time>2018-11-24T10:43:22Z</time>
      </trkpt>
      <trkpt lat="42.482527" lon="0.778794">
        <ele>1039.415</ele>
        <time>2018-11-24T10:43:23Z</time>
      </trkpt>
      <trkpt lat="42.482684" lon="0.778788">
        <ele>1040.275</ele>
        <time>2018-11-24T10:43:24Z</time>
      </trkpt>
      <trkpt lat="42.482835" lon="0.778783">
        <ele>1040.860</ele>
        <time>2018-11-24T10:43:25Z</time>
      </trkpt>
      <trkpt lat="42.482986" lon="0.778771">
        <ele>1041.599</ele>
        <time>2018-11-24T10:43:26Z</time>
      </trkpt>
      <trkpt lat="42.483135" lon="0.778752">
        <ele>1042.407</ele>
        <time>2018-11-24T10:43:27Z</time>
      </trkpt>
      <trkpt lat="42.483282" lon="0.778754">
        <ele>1043.127</ele>
        <time>2018-11-24T10:43:28Z</time>
      </trkpt>
      <trkpt lat="42.483430" lon="0.778747">
        <ele>1043.908</ele>
        <time>2018-11-24T10:43:29Z</time>
      </trkpt>
      <trkpt lat="42.483580" lon="0.778739">
        <ele>1045.412</ele>
        <time>2018-11-24T10:43:30Z</time>
      </trkpt>
      <trkpt lat="42.483726" lon="0.778732">
        <ele>1046.239</ele>
        <time>2018-11-24T10:43:31Z</time>
      </trkpt>
      <trkpt lat="42.483874" lon="0.778727">
        <ele>1046.856</ele>
        <time>2018-11-24T10:43:32Z</time>
      </trkpt>
      <trkpt lat="42.484015" lon="0.778722">
        <ele>1046.916</ele>
        <time>2018-11-24T10:43:33Z</time>
      </trkpt>
      <trkpt lat="42.484151" lon="0.778720">
        <ele>1047.167</ele>
        <time>2018-11-24T10:43:34Z</time>
      </trkpt>
      <trkpt lat="42.484285" lon="0.778714">
        <ele>1047.356</ele>
        <time>2018-11-24T10:43:35Z</time>
      </trkpt>
      <trkpt lat="42.484421" lon="0.778706">
        <ele>1047.546</ele>
        <time>2018-11-24T10:43:36Z</time>
      </trkpt>
      <trkpt lat="42.484559" lon="0.778701">
        <ele>1048.041</ele>
        <time>2018-11-24T10:43:37Z</time>
      </trkpt>
      <trkpt lat="42.484705" lon="0.778698">
        <ele>1048.391</ele>
        <time>2018-11-24T10:43:38Z</time>
      </trkpt>
      <trkpt lat="42.484855" lon="0.778703">
        <ele>1048.781</ele>
        <time>2018-11-24T10:43:39Z</time>
      </trkpt>
      <trkpt lat="42.485009" lon="0.778722">
        <ele>1049.019</ele>
        <time>2018-11-24T10:43:40Z</time>
      </trkpt>
      <trkpt lat="42.485167" lon="0.778741">
        <ele>1049.308</ele>
        <time>2018-11-24T10:43:41Z</time>
      </trkpt>
      <trkpt lat="42.485314" lon="0.778814">
        <ele>1048.942</ele>
        <time>2018-11-24T10:43:42Z</time>
      </trkpt>
      <trkpt lat="42.485449" lon="0.778905">
        <ele>1049.989</ele>
        <time>2018-11-24T10:43:43Z</time>
      </trkpt>
      <trkpt lat="42.485582" lon="0.779015">
        <ele>1050.396</ele>
        <time>2018-11-24T10:43:44Z</time>
      </trkpt>
      <trkpt lat="42.485710" lon="0.779135">
        <ele>1050.776</ele>
        <time>2018-11-24T10:43:45Z</time>
      </trkpt>
      <trkpt lat="42.485831" lon="0.779261">
        <ele>1050.997</ele>
        <time>2018-11-24T10:43:46Z</time>
      </trkpt>
      <trkpt lat="42.485947" lon="0.779380">
        <ele>1051.196</ele>
        <time>2018-11-24T10:43:47Z</time>
      </trkpt>
      <trkpt lat="42.486065" lon="0.779498">
        <ele>1051.486</ele>
        <time>2018-11-24T10:43:48Z</time>
      </trkpt>
      <trkpt lat="42.486178" lon="0.779614">
        <ele>1051.851</ele>
        <time>2018-11-24T10:43:49Z</time>
      </trkpt>
      <trkpt lat="42.486296" lon="0.779730">
        <ele>1052.033</ele>
        <time>2018-11-24T10:43:50Z</time>
      </trkpt>
      <trkpt lat="42.486410" lon="0.779833">
        <ele>1052.223</ele>
        <time>2018-11-24T10:43:51Z</time>
      </trkpt>
      <trkpt lat="42.486522" lon="0.779912">
        <ele>1052.415</ele>
        <time>2018-11-24T10:43:52Z</time>
      </trkpt>
      <trkpt lat="42.486637" lon="0.779980">
        <ele>1052.508</ele>
        <time>2018-11-24T10:43:53Z</time>
      </trkpt>
      <trkpt lat="42.486760" lon="0.780036">
        <ele>1052.856</ele>
        <time>2018-11-24T10:43:54Z</time>
      </trkpt>
      <trkpt lat="42.486881" lon="0.780092">
        <ele>1053.113</ele>
        <time>2018-11-24T10:43:55Z</time>
      </trkpt>
      <trkpt lat="42.487005" lon="0.780132">
        <ele>1053.330</ele>
        <time>2018-11-24T10:43:56Z</time>
      </trkpt>
      <trkpt lat="42.487123" lon="0.780174">
        <ele>1053.890</ele>
        <time>2018-11-24T10:43:57Z</time>
      </trkpt>
      <trkpt lat="42.487248" lon="0.780214">
        <ele>1054.261</ele>
        <time>2018-11-24T10:43:58Z</time>
      </trkpt>
      <trkpt lat="42.487376" lon="0.780253">
        <ele>1054.770</ele>
        <time>2018-11-24T10:43:59Z</time>
      </trkpt>
      <trkpt lat="42.487499" lon="0.780295">
        <ele>1055.140</ele>
        <time>2018-11-24T10:44:00Z</time>
      </trkpt>
      <trkpt lat="42.487629" lon="0.780324">
        <ele>1055.685</ele>
        <time>2018-11-24T10:44:01Z</time>
      </trkpt>
      <trkpt lat="42.487769" lon="0.780345">
        <ele>1056.232</ele>
        <time>2018-11-24T10:44:02Z</time>
      </trkpt>
      <trkpt lat="42.487902" lon="0.780367">
        <ele>1056.792</ele>
        <time>2018-11-24T10:44:03Z</time>
      </trkpt>
      <trkpt lat="42.488036" lon="0.780384">
        <ele>1057.311</ele>
        <time>2018-11-24T10:44:04Z</time>
      </trkpt>
      <trkpt lat="42.488162" lon="0.780407">
        <ele>1057.708</ele>
        <time>2018-11-24T10:44:05Z</time>
      </trkpt>
      <trkpt lat="42.488286" lon="0.780436">
        <ele>1058.166</ele>
        <time>2018-11-24T10:44:06Z</time>
      </trkpt>
      <trkpt lat="42.488409" lon="0.780455">
        <ele>1058.323</ele>
        <time>2018-11-24T10:44:07Z</time>
      </trkpt>
      <trkpt lat="42.488535" lon="0.780479">
        <ele>1058.840</ele>
        <time>2018-11-24T10:44:08Z</time>
      </trkpt>
      <trkpt lat="42.488665" lon="0.780496">
        <ele>1059.420</ele>
        <time>2018-11-24T10:44:09Z</time>
      </trkpt>
      <trkpt lat="42.488794" lon="0.780514">
        <ele>1059.921</ele>
        <time>2018-11-24T10:44:10Z</time>
      </trkpt>
      <trkpt lat="42.488927" lon="0.780525">
        <ele>1060.620</ele>
        <time>2018-11-24T10:44:11Z</time>
      </trkpt>
      <trkpt lat="42.489062" lon="0.780535">
        <ele>1061.070</ele>
        <time>2018-11-24T10:44:12Z</time>
      </trkpt>
      <trkpt lat="42.489197" lon="0.780543">
        <ele>1061.635</ele>
        <time>2018-11-24T10:44:13Z</time>
      </trkpt>
      <trkpt lat="42.489335" lon="0.780551">
        <ele>1062.245</ele>
        <time>2018-11-24T10:44:14Z</time>
      </trkpt>
      <trkpt lat="42.489469" lon="0.780558">
        <ele>1062.847</ele>
        <time>2018-11-24T10:44:15Z</time>
      </trkpt>
      <trkpt lat="42.489599" lon="0.780565">
        <ele>1063.511</ele>
        <time>2018-11-24T10:44:16Z</time>
      </trkpt>
      <trkpt lat="42.489725" lon="0.780571">
        <ele>1064.008</ele>
        <time>2018-11-24T10:44:17Z</time>
      </trkpt>
      <trkpt lat="42.489847" lon="0.780574">
        <ele>1064.777</ele>
        <time>2018-11-24T10:44:18Z</time>
      </trkpt>
      <trkpt lat="42.489970" lon="0.780577">
        <ele>1065.574</ele>
        <time>2018-11-24T10:44:19Z</time>
      </trkpt>
      <trkpt lat="42.490096" lon="0.780578">
        <ele>1066.341</ele>
        <time>2018-11-24T10:44:20Z</time>
      </trkpt>
      <trkpt lat="42.490223" lon="0.780579">
        <ele>1067.041</ele>
        <time>2018-11-24T10:44:21Z</time>
      </trkpt>
      <trkpt lat="42.490351" lon="0.780595">
        <ele>1067.842</ele>
        <time>2018-11-24T10:44:22Z</time>
      </trkpt>
      <trkpt lat="42.490479" lon="0.780622">
        <ele>1068.511</ele>
        <time>2018-11-24T10:44:23Z</time>
      </trkpt>
      <trkpt lat="42.490605" lon="0.780672">
        <ele>1069.481</ele>
        <time>2018-11-24T10:44:24Z</time>
      </trkpt>
      <trkpt lat="42.490732" lon="0.780739">
        <ele>1070.056</ele>
        <time>2018-11-24T10:44:25Z</time>
      </trkpt>
      <trkpt lat="42.490860" lon="0.780815">
        <ele>1071.019</ele>
        <time>2018-11-24T10:44:26Z</time>
      </trkpt>
      <trkpt lat="42.490981" lon="0.780903">
        <ele>1071.709</ele>
        <time>2018-11-24T10:44:27Z</time>
      </trkpt>
      <trkpt lat="42.491094" lon="0.780990">
        <ele>1072.419</ele>
        <time>2018-11-24T10:44:28Z</time>
      </trkpt>
      <trkpt lat="42.491204" lon="0.781078">
        <ele>1073.008</ele>
        <time>2018-11-24T10:44:29Z</time>
      </trkpt>
      <trkpt lat="42.491317" lon="0.781169">
        <ele>1073.684</ele>
        <time>2018-11-24T10:44:30Z</time>
      </trkpt>
      <trkpt lat="42.491428" lon="0.781274">
        <ele>1074.241</ele>
        <time>2018-11-24T10:44:31Z</time>
      </trkpt>
      <trkpt lat="42.491539" lon="0.781388">
        <ele>1075.038</ele>
        <time>2018-11-24T10:44:32Z</time>
      </trkpt>
      <trkpt lat="42.491653" lon="0.781495">
        <ele>1075.518</ele>
        <time>2018-11-24T10:44:33Z</time>
      </trkpt>
      <trkpt lat="42.491768" lon="0.781610">
        <ele>1076.129</ele>
        <time>2018-11-24T10:44:34Z</time>
      </trkpt>
      <trkpt lat="42.491880" lon="0.781717">
        <ele>1076.618</ele>
        <time>2018-11-24T10:44:35Z</time>
      </trkpt>
      <trkpt lat="42.491988" lon="0.781823">
        <ele>1077.118</ele>
        <time>2018-11-24T10:44:36Z</time>
      </trkpt>
      <trkpt lat="42.492092" lon="0.781922">
        <ele>1077.683</ele>
        <time>2018-11-24T10:44:37Z</time>
      </trkpt>
      <trkpt lat="42.492199" lon="0.782022">
        <ele>1078.385</ele>
        <time>2018-11-24T10:44:38Z</time>
      </trkpt>
      <trkpt lat="42.492306" lon="0.782122">
        <ele>1078.889</ele>
        <time>2018-11-24T10:44:39Z</time>
      </trkpt>
      <trkpt lat="42.492416" lon="0.782219">
        <ele>1079.317</ele>
        <time>2018-11-24T10:44:40Z</time>
      </trkpt>
      <trkpt lat="42.492527" lon="0.782321">
        <ele>1079.808</ele>
        <time>2018-11-24T10:44:41Z</time>
      </trkpt>
      <trkpt lat="42.492655" lon="0.782400">
        <ele>1080.511</ele>
        <time>2018-11-24T10:44:42Z</time>
      </trkpt>
      <trkpt lat="42.492792" lon="0.782464">
        <ele>1081.128</ele>
        <time>2018-11-24T10:44:43Z</time>
      </trkpt>
      <trkpt lat="42.492942" lon="0.782493">
        <ele>1081.745</ele>
        <time>2018-11-24T10:44:44Z</time>
      </trkpt>
      <trkpt lat="42.493079" lon="0.782557">
        <ele>1082.425</ele>
        <time>2018-11-24T10:44:45Z</time>
      </trkpt>
      <trkpt lat="42.493217" lon="0.782627">
        <ele>1083.156</ele>
        <time>2018-11-24T10:44:46Z</time>
      </trkpt>
      <trkpt lat="42.493360" lon="0.782701">
        <ele>1083.925</ele>
        <time>2018-11-24T10:44:47Z</time>
      </trkpt>
      <trkpt lat="42.493507" lon="0.782765">
        <ele>1084.435</ele>
        <time>2018-11-24T10:44:48Z</time>
      </trkpt>
      <trkpt lat="42.493639" lon="0.782825">
        <ele>1085.050</ele>
        <time>2018-11-24T10:44:49Z</time>
      </trkpt>
      <trkpt lat="42.493778" lon="0.782892">
        <ele>1085.592</ele>
        <time>2018-11-24T10:44:50Z</time>
      </trkpt>
      <trkpt lat="42.493922" lon="0.782958">
        <ele>1086.173</ele>
        <time>2018-11-24T10:44:51Z</time>
      </trkpt>
      <trkpt lat="42.494065" lon="0.783039">
        <ele>1086.920</ele>
        <time>2018-11-24T10:44:52Z</time>
      </trkpt>
      <trkpt lat="42.494199" lon="0.783137">
        <ele>1087.608</ele>
        <time>2018-11-24T10:44:53Z</time>
      </trkpt>
      <trkpt lat="42.494330" lon="0.783249">
        <ele>1088.352</ele>
        <time>2018-11-24T10:44:54Z</time>
      </trkpt>
      <trkpt lat="42.494461" lon="0.783353">
        <ele>1088.979</ele>
        <time>2018-11-24T10:44:55Z</time>
      </trkpt>
      <trkpt lat="42.494570" lon="0.783495">
        <ele>1089.826</ele>
        <time>2018-11-24T10:44:56Z</time>
      </trkpt>
      <trkpt lat="42.494664" lon="0.783655">
        <ele>1090.776</ele>
        <time>2018-11-24T10:44:57Z</time>
      </trkpt>
      <trkpt lat="42.494747" lon="0.783830">
        <ele>1091.527</ele>
        <time>2018-11-24T10:44:58Z</time>
      </trkpt>
      <trkpt lat="42.494820" lon="0.784006">
        <ele>1092.546</ele>
        <time>2018-11-24T10:44:59Z</time>
      </trkpt>
      <trkpt lat="42.494888" lon="0.784174">
        <ele>1093.436</ele>
        <time>2018-11-24T10:45:00Z</time>
      </trkpt>
      <trkpt lat="42.494949" lon="0.784351">
        <ele>1094.251</ele>
        <time>2018-11-24T10:45:01Z</time>
      </trkpt>
      <trkpt lat="42.495004" lon="0.784524">
        <ele>1095.175</ele>
        <time>2018-11-24T10:45:02Z</time>
      </trkpt>
      <trkpt lat="42.495054" lon="0.784690">
        <ele>1095.828</ele>
        <time>2018-11-24T10:45:03Z</time>
      </trkpt>
      <trkpt lat="42.495105" lon="0.784864">
        <ele>1096.920</ele>
        <time>2018-11-24T10:45:04Z</time>
      </trkpt>
      <trkpt lat="42.495153" lon="0.785041">
        <ele>1097.708</ele>
        <time>2018-11-24T10:45:05Z</time>
      </trkpt>
      <trkpt lat="42.495193" lon="0.785217">
        <ele>1098.290</ele>
        <time>2018-11-24T10:45:06Z</time>
      </trkpt>
      <trkpt lat="42.495235" lon="0.785380">
        <ele>1098.847</ele>
        <time>2018-11-24T10:45:07Z</time>
      </trkpt>
      <trkpt lat="42.495278" lon="0.785531">
        <ele>1099.294</ele>
        <time>2018-11-24T10:45:08Z</time>
      </trkpt>
      <trkpt lat="42.495322" lon="0.785682">
        <ele>1099.844</ele>
        <time>2018-11-24T10:45:09Z</time>
      </trkpt>
      <trkpt lat="42.495368" lon="0.785831">
        <ele>1100.235</ele>
        <time>2018-11-24T10:45:10Z</time>
      </trkpt>
      <trkpt lat="42.495424" lon="0.785974">
        <ele>1100.824</ele>
        <time>2018-11-24T10:45:11Z</time>
      </trkpt>
      <trkpt lat="42.495491" lon="0.786106">
        <ele>1101.144</ele>
        <time>2018-11-24T10:45:12Z</time>
      </trkpt>
      <trkpt lat="42.495568" lon="0.786224">
        <ele>1101.559</ele>
        <time>2018-11-24T10:45:13Z</time>
      </trkpt>
      <trkpt lat="42.495654" lon="0.786329">
        <ele>1101.884</ele>
        <time>2018-11-24T10:45:14Z</time>
      </trkpt>
      <trkpt lat="42.495749" lon="0.786422">
        <ele>1102.207</ele>
        <time>2018-11-24T10:45:15Z</time>
      </trkpt>
      <trkpt lat="42.495851" lon="0.786496">
        <ele>1102.517</ele>
        <time>2018-11-24T10:45:16Z</time>
      </trkpt>
      <trkpt lat="42.495961" lon="0.786561">
        <ele>1102.808</ele>
        <time>2018-11-24T10:45:17Z</time>
      </trkpt>
      <trkpt lat="42.496079" lon="0.786610">
        <ele>1103.231</ele>
        <time>2018-11-24T10:45:18Z</time>
      </trkpt>
      <trkpt lat="42.496197" lon="0.786648">
        <ele>1103.548</ele>
        <time>2018-11-24T10:45:19Z</time>
      </trkpt>
      <trkpt lat="42.496313" lon="0.786681">
        <ele>1103.835</ele>
        <time>2018-11-24T10:45:20Z</time>
      </trkpt>
      <trkpt lat="42.496427" lon="0.786715">
        <ele>1104.275</ele>
        <time>2018-11-24T10:45:21Z</time>
      </trkpt>
      <trkpt lat="42.496541" lon="0.786758">
        <ele>1104.446</ele>
        <time>2018-11-24T10:45:22Z</time>
      </trkpt>
      <trkpt lat="42.496649" lon="0.786814">
        <ele>1104.865</ele>
        <time>2018-11-24T10:45:23Z</time>
      </trkpt>
      <trkpt lat="42.496759" lon="0.786904">
        <ele>1105.125</ele>
        <time>2018-11-24T10:45:24Z</time>
      </trkpt>
      <trkpt lat="42.496861" lon="0.786990">
        <ele>1105.590</ele>
        <time>2018-11-24T10:45:25Z</time>
      </trkpt>
      <trkpt lat="42.496965" lon="0.787104">
        <ele>1105.924</ele>
        <time>2018-11-24T10:45:26Z</time>
      </trkpt>
      <trkpt lat="42.497073" lon="0.787224">
        <ele>1106.504</ele>
        <time>2018-11-24T10:45:27Z</time>
      </trkpt>
      <trkpt lat="42.497178" lon="0.787348">
        <ele>1107.114</ele>
        <time>2018-11-24T10:45:28Z</time>
      </trkpt>
      <trkpt lat="42.497284" lon="0.787480">
        <ele>1107.608</ele>
        <time>2018-11-24T10:45:29Z</time>
      </trkpt>
      <trkpt lat="42.497388" lon="0.787616">
        <ele>1108.065</ele>
        <time>2018-11-24T10:45:30Z</time>
      </trkpt>
      <trkpt lat="42.497505" lon="0.787757">
        <ele>1108.242</ele>
        <time>2018-11-24T10:45:31Z</time>
      </trkpt>
      <trkpt lat="42.497621" lon="0.787908">
        <ele>1108.219</ele>
        <time>2018-11-24T10:45:32Z</time>
      </trkpt>
      <trkpt lat="42.497736" lon="0.788067">
        <ele>1108.129</ele>
        <time>2018-11-24T10:45:33Z</time>
      </trkpt>
      <trkpt lat="42.497856" lon="0.788234">
        <ele>1108.110</ele>
        <time>2018-11-24T10:45:34Z</time>
      </trkpt>
      <trkpt lat="42.497982" lon="0.788408">
        <ele>1108.159</ele>
        <time>2018-11-24T10:45:35Z</time>
      </trkpt>
      <trkpt lat="42.498119" lon="0.788603">
        <ele>1108.369</ele>
        <time>2018-11-24T10:45:36Z</time>
      </trkpt>
      <trkpt lat="42.498274" lon="0.788811">
        <ele>1108.654</ele>
        <time>2018-11-24T10:45:37Z</time>
      </trkpt>
      <trkpt lat="42.498433" lon="0.789047">
        <ele>1108.898</ele>
        <time>2018-11-24T10:45:38Z</time>
      </trkpt>
      <trkpt lat="42.498592" lon="0.789301">
        <ele>1108.915</ele>
        <time>2018-11-24T10:45:39Z</time>
      </trkpt>
      <trkpt lat="42.498761" lon="0.789564">
        <ele>1108.326</ele>
        <time>2018-11-24T10:45:40Z</time>
      </trkpt>
      <trkpt lat="42.498927" lon="0.789827">
        <ele>1108.608</ele>
        <time>2018-11-24T10:45:41Z</time>
      </trkpt>
      <trkpt lat="42.499087" lon="0.790101">
        <ele>1108.122</ele>
        <time>2018-11-24T10:45:42Z</time>
      </trkpt>
      <trkpt lat="42.499248" lon="0.790395">
        <ele>1108.289</ele>
        <time>2018-11-24T10:45:43Z</time>
      </trkpt>
      <trkpt lat="42.499412" lon="0.790683">
        <ele>1108.116</ele>
        <time>2018-11-24T10:45:44Z</time>
      </trkpt>
      <trkpt lat="42.499582" lon="0.790960">
        <ele>1108.156</ele>
        <time>2018-11-24T10:45:45Z</time>
      </trkpt>
      <trkpt lat="42.499750" lon="0.791228">
        <ele>1107.967</ele>
        <time>2018-11-24T10:45:46Z</time>
      </trkpt>
      <trkpt lat="42.499915" lon="0.791495">
        <ele>1108.096</ele>
        <time>2018-11-24T10:45:47Z</time>
      </trkpt>
      <trkpt lat="42.500079" lon="0.791760">
        <ele>1108.026</ele>
        <time>2018-11-24T10:45:48Z</time>
      </trkpt>
      <trkpt lat="42.500238" lon="0.792020">
        <ele>1107.991</ele>
        <time>2018-11-24T10:45:49Z</time>
      </trkpt>
      <trkpt lat="42.500390" lon="0.792277">
        <ele>1108.015</ele>
        <time>2018-11-24T10:45:50Z</time>
      </trkpt>
      <trkpt lat="42.500537" lon="0.792537">
        <ele>1108.265</ele>
        <time>2018-11-24T10:45:51Z</time>
      </trkpt>
      <trkpt lat="42.500675" lon="0.792806">
        <ele>1108.311</ele>
        <time>2018-11-24T10:45:52Z</time>
      </trkpt>
      <trkpt lat="42.500805" lon="0.793080">
        <ele>1108.308</ele>
        <time>2018-11-24T10:45:53Z</time>
      </trkpt>
      <trkpt lat="42.500926" lon="0.793364">
        <ele>1108.634</ele>
        <time>2018-11-24T10:45:54Z</time>
      </trkpt>
      <trkpt lat="42.501037" lon="0.793653">
        <ele>1108.881</ele>
        <time>2018-11-24T10:45:55Z</time>
      </trkpt>
      <trkpt lat="42.501141" lon="0.793935">
        <ele>1108.758</ele>
        <time>2018-11-24T10:45:56Z</time>
      </trkpt>
      <trkpt lat="42.501248" lon="0.794211">
        <ele>1108.838</ele>
        <time>2018-11-24T10:45:57Z</time>
      </trkpt>
      <trkpt lat="42.501355" lon="0.794489">
        <ele>1109.069</ele>
        <time>2018-11-24T10:45:58Z</time>
      </trkpt>
      <trkpt lat="42.501472" lon="0.794763">
        <ele>1109.188</ele>
        <time>2018-11-24T10:45:59Z</time>
      </trkpt>
      <trkpt lat="42.501607" lon="0.795025">
        <ele>1109.428</ele>
        <time>2018-11-24T10:46:00Z</time>
      </trkpt>
      <trkpt lat="42.501751" lon="0.795278">
        <ele>1109.663</ele>
        <time>2018-11-24T10:46:01Z</time>
      </trkpt>
      <trkpt lat="42.501913" lon="0.795508">
        <ele>1109.824</ele>
        <time>2018-11-24T10:46:02Z</time>
      </trkpt>
      <trkpt lat="42.502080" lon="0.795732">
        <ele>1110.104</ele>
        <time>2018-11-24T10:46:03Z</time>
      </trkpt>
      <trkpt lat="42.502258" lon="0.795946">
        <ele>1110.314</ele>
        <time>2018-11-24T10:46:04Z</time>
      </trkpt>
      <trkpt lat="42.502443" lon="0.796154">
        <ele>1110.608</ele>
        <time>2018-11-24T10:46:05Z</time>
      </trkpt>
      <trkpt lat="42.502630" lon="0.796358">
        <ele>1110.975</ele>
        <time>2018-11-24T10:46:06Z</time>
      </trkpt>
      <trkpt lat="42.502814" lon="0.796556">
        <ele>1110.912</ele>
        <time>2018-11-24T10:46:07Z</time>
      </trkpt>
      <trkpt lat="42.502992" lon="0.796747">
        <ele>1110.959</ele>
        <time>2018-11-24T10:46:08Z</time>
      </trkpt>
      <trkpt lat="42.503160" lon="0.796930">
        <ele>1110.779</ele>
        <time>2018-11-24T10:46:09Z</time>
      </trkpt>
      <trkpt lat="42.503318" lon="0.797101">
        <ele>1110.210</ele>
        <time>2018-11-24T10:46:10Z</time>
      </trkpt>
      <trkpt lat="42.503462" lon="0.797264">
        <ele>1110.059</ele>
        <time>2018-11-24T10:46:11Z</time>
      </trkpt>
      <trkpt lat="42.503591" lon="0.797429">
        <ele>1109.949</ele>
        <time>2018-11-24T10:46:12Z</time>
      </trkpt>
      <trkpt lat="42.503707" lon="0.797599">
        <ele>1109.814</ele>
        <time>2018-11-24T10:46:13Z</time>
      </trkpt>
      <trkpt lat="42.503808" lon="0.797781">
        <ele>1109.795</ele>
        <time>2018-11-24T10:46:14Z</time>
      </trkpt>
      <trkpt lat="42.503898" lon="0.797969">
        <ele>1109.849</ele>
        <time>2018-11-24T10:46:15Z</time>
      </trkpt>
      <trkpt lat="42.503980" lon="0.798157">
        <ele>1109.823</ele>
        <time>2018-11-24T10:46:16Z</time>
      </trkpt>
      <trkpt lat="42.504057" lon="0.798337">
        <ele>1109.908</ele>
        <time>2018-11-24T10:46:17Z</time>
      </trkpt>
      <trkpt lat="42.504130" lon="0.798512">
        <ele>1109.972</ele>
        <time>2018-11-24T10:46:18Z</time>
      </trkpt>
      <trkpt lat="42.504206" lon="0.798689">
        <ele>1110.119</ele>
        <time>2018-11-24T10:46:19Z</time>
      </trkpt>
      <trkpt lat="42.504275" lon="0.798864">
        <ele>1110.446</ele>
        <time>2018-11-24T10:46:20Z</time>
      </trkpt>
      <trkpt lat="42.504323" lon="0.799047">
        <ele>1110.866</ele>
        <time>2018-11-24T10:46:21Z</time>
      </trkpt>
      <trkpt lat="42.504365" lon="0.799232">
        <ele>1111.097</ele>
        <time>2018-11-24T10:46:22Z</time>
      </trkpt>
      <trkpt lat="42.504381" lon="0.799428">
        <ele>1111.316</ele>
        <time>2018-11-24T10:46:23Z</time>
      </trkpt>
      <trkpt lat="42.504378" lon="0.799610">
        <ele>1111.596</ele>
        <time>2018-11-24T10:46:24Z</time>
      </trkpt>
      <trkpt lat="42.504373" lon="0.799789">
        <ele>1111.961</ele>
        <time>2018-11-24T10:46:25Z</time>
      </trkpt>
      <trkpt lat="42.504354" lon="0.799979">
        <ele>1112.373</ele>
        <time>2018-11-24T10:46:26Z</time>
      </trkpt>
      <trkpt lat="42.504329" lon="0.800161">
        <ele>1112.785</ele>
        <time>2018-11-24T10:46:27Z</time>
      </trkpt>
      <trkpt lat="42.504307" lon="0.800347">
        <ele>1112.913</ele>
        <time>2018-11-24T10:46:28Z</time>
      </trkpt>
      <trkpt lat="42.504283" lon="0.800530">
        <ele>1113.308</ele>
        <time>2018-11-24T10:46:29Z</time>
      </trkpt>
      <trkpt lat="42.504267" lon="0.800708">
        <ele>1113.620</ele>
        <time>2018-11-24T10:46:30Z</time>
      </trkpt>
      <trkpt lat="42.504258" lon="0.800883">
        <ele>1113.867</ele>
        <time>2018-11-24T10:46:31Z</time>
      </trkpt>
      <trkpt lat="42.504255" lon="0.801049">
        <ele>1114.134</ele>
        <time>2018-11-24T10:46:32Z</time>
      </trkpt>
      <trkpt lat="42.504265" lon="0.801210">
        <ele>1114.374</ele>
        <time>2018-11-24T10:46:33Z</time>
      </trkpt>
      <trkpt lat="42.504287" lon="0.801371">
        <ele>1114.425</ele>
        <time>2018-11-24T10:46:34Z</time>
      </trkpt>
      <trkpt lat="42.504313" lon="0.801525">
        <ele>1114.424</ele>
        <time>2018-11-24T10:46:35Z</time>
      </trkpt>
      <trkpt lat="42.504341" lon="0.801659">
        <ele>1114.314</ele>
        <time>2018-11-24T10:46:36Z</time>
      </trkpt>
      <trkpt lat="42.504367" lon="0.801774">
        <ele>1114.139</ele>
        <time>2018-11-24T10:46:37Z</time>
      </trkpt>
      <trkpt lat="42.504391" lon="0.801880">
        <ele>1114.174</ele>
        <time>2018-11-24T10:46:38Z</time>
      </trkpt>
      <trkpt lat="42.504412" lon="0.801981">
        <ele>1114.156</ele>
        <time>2018-11-24T10:46:39Z</time>
      </trkpt>
      <trkpt lat="42.504437" lon="0.802073">
        <ele>1114.321</ele>
        <time>2018-11-24T10:46:40Z</time>
      </trkpt>
      <trkpt lat="42.504455" lon="0.802158">
        <ele>1114.308</ele>
        <time>2018-11-24T10:46:41Z</time>
      </trkpt>
      <trkpt lat="42.504481" lon="0.802236">
        <ele>1114.310</ele>
        <time>2018-11-24T10:46:42Z</time>
      </trkpt>
      <trkpt lat="42.504500" lon="0.802317">
        <ele>1114.417</ele>
        <time>2018-11-24T10:46:43Z</time>
      </trkpt>
      <trkpt lat="42.504515" lon="0.802403">
        <ele>1114.644</ele>
        <time>2018-11-24T10:46:44Z</time>
      </trkpt>
      <trkpt lat="42.504535" lon="0.802489">
        <ele>1114.764</ele>
        <time>2018-11-24T10:46:45Z</time>
      </trkpt>
      <trkpt lat="42.504556" lon="0.802581">
        <ele>1114.825</ele>
        <time>2018-11-24T10:46:46Z</time>
      </trkpt>
      <trkpt lat="42.504573" lon="0.802668">
        <ele>1114.924</ele>
        <time>2018-11-24T10:46:47Z</time>
      </trkpt>
      <trkpt lat="42.504590" lon="0.802781">
        <ele>1114.844</ele>
        <time>2018-11-24T10:46:49Z</time>
      </trkpt>
      <trkpt lat="42.504597" lon="0.802843">
        <ele>1115.049</ele>
        <time>2018-11-24T10:46:50Z</time>
      </trkpt>
      <trkpt lat="42.504610" lon="0.802927">
        <ele>1115.191</ele>
        <time>2018-11-24T10:46:51Z</time>
      </trkpt>
      <trkpt lat="42.504628" lon="0.803034">
        <ele>1115.681</ele>
        <time>2018-11-24T10:46:52Z</time>
      </trkpt>
      <trkpt lat="42.504653" lon="0.803149">
        <ele>1115.819</ele>
        <time>2018-11-24T10:46:53Z</time>
      </trkpt>
      <trkpt lat="42.504677" lon="0.803267">
        <ele>1115.808</ele>
        <time>2018-11-24T10:46:54Z</time>
      </trkpt>
      <trkpt lat="42.504703" lon="0.803394">
        <ele>1115.912</ele>
        <time>2018-11-24T10:46:55Z</time>
      </trkpt>
      <trkpt lat="42.504731" lon="0.803534">
        <ele>1116.239</ele>
        <time>2018-11-24T10:46:56Z</time>
      </trkpt>
      <trkpt lat="42.504765" lon="0.803687">
        <ele>1116.586</ele>
        <time>2018-11-24T10:46:57Z</time>
      </trkpt>
      <trkpt lat="42.504803" lon="0.803844">
        <ele>1116.926</ele>
        <time>2018-11-24T10:46:58Z</time>
      </trkpt>
      <trkpt lat="42.504849" lon="0.804009">
        <ele>1117.397</ele>
        <time>2018-11-24T10:46:59Z</time>
      </trkpt>
      <trkpt lat="42.504913" lon="0.804180">
        <ele>1117.986</ele>
        <time>2018-11-24T10:47:00Z</time>
      </trkpt>
      <trkpt lat="42.504987" lon="0.804336">
        <ele>1118.256</ele>
        <time>2018-11-24T10:47:01Z</time>
      </trkpt>
      <trkpt lat="42.505070" lon="0.804484">
        <ele>1118.611</ele>
        <time>2018-11-24T10:47:02Z</time>
      </trkpt>
      <trkpt lat="42.505157" lon="0.804627">
        <ele>1119.211</ele>
        <time>2018-11-24T10:47:03Z</time>
      </trkpt>
      <trkpt lat="42.505273" lon="0.804752">
        <ele>1119.821</ele>
        <time>2018-11-24T10:47:04Z</time>
      </trkpt>
      <trkpt lat="42.505387" lon="0.804885">
        <ele>1120.403</ele>
        <time>2018-11-24T10:47:05Z</time>
      </trkpt>
      <trkpt lat="42.505506" lon="0.805026">
        <ele>1121.008</ele>
        <time>2018-11-24T10:47:06Z</time>
      </trkpt>
      <trkpt lat="42.505627" lon="0.805173">
        <ele>1121.924</ele>
        <time>2018-11-24T10:47:07Z</time>
      </trkpt>
      <trkpt lat="42.505748" lon="0.805324">
        <ele>1122.581</ele>
        <time>2018-11-24T10:47:08Z</time>
      </trkpt>
      <trkpt lat="42.505877" lon="0.805479">
        <ele>1123.278</ele>
        <time>2018-11-24T10:47:09Z</time>
      </trkpt>
      <trkpt lat="42.506008" lon="0.805634">
        <ele>1123.678</ele>
        <time>2018-11-24T10:47:10Z</time>
      </trkpt>
      <trkpt lat="42.506139" lon="0.805777">
        <ele>1124.089</ele>
        <time>2018-11-24T10:47:11Z</time>
      </trkpt>
      <trkpt lat="42.506281" lon="0.805913">
        <ele>1124.318</ele>
        <time>2018-11-24T10:47:12Z</time>
      </trkpt>
      <trkpt lat="42.506431" lon="0.806036">
        <ele>1124.738</ele>
        <time>2018-11-24T10:47:13Z</time>
      </trkpt>
      <trkpt lat="42.506589" lon="0.806158">
        <ele>1124.883</ele>
        <time>2018-11-24T10:47:14Z</time>
      </trkpt>
      <trkpt lat="42.506757" lon="0.806277">
        <ele>1125.159</ele>
        <time>2018-11-24T10:47:15Z</time>
      </trkpt>
      <trkpt lat="42.506930" lon="0.806402">
        <ele>1125.303</ele>
        <time>2018-11-24T10:47:16Z</time>
      </trkpt>
      <trkpt lat="42.507105" lon="0.806527">
        <ele>1125.323</ele>
        <time>2018-11-24T10:47:17Z</time>
      </trkpt>
      <trkpt lat="42.507287" lon="0.806659">
        <ele>1125.408</ele>
        <time>2018-11-24T10:47:18Z</time>
      </trkpt>
      <trkpt lat="42.507474" lon="0.806798">
        <ele>1125.268</ele>
        <time>2018-11-24T10:47:19Z</time>
      </trkpt>
      <trkpt lat="42.507667" lon="0.806942">
        <ele>1124.925</ele>
        <time>2018-11-24T10:47:20Z</time>
      </trkpt>
      <trkpt lat="42.507860" lon="0.807095">
        <ele>1124.462</ele>
        <time>2018-11-24T10:47:21Z</time>
      </trkpt>
      <trkpt lat="42.508050" lon="0.807262">
        <ele>1124.332</ele>
        <time>2018-11-24T10:47:22Z</time>
      </trkpt>
      <trkpt lat="42.508237" lon="0.807446">
        <ele>1123.843</ele>
        <time>2018-11-24T10:47:23Z</time>
      </trkpt>
      <trkpt lat="42.508420" lon="0.807641">
        <ele>1123.482</ele>
        <time>2018-11-24T10:47:24Z</time>
      </trkpt>
      <trkpt lat="42.508602" lon="0.807843">
        <ele>1122.912</ele>
        <time>2018-11-24T10:47:25Z</time>
      </trkpt>
      <trkpt lat="42.508782" lon="0.808044">
        <ele>1122.437</ele>
        <time>2018-11-24T10:47:26Z</time>
      </trkpt>
      <trkpt lat="42.508959" lon="0.808244">
        <ele>1121.734</ele>
        <time>2018-11-24T10:47:27Z</time>
      </trkpt>
      <trkpt lat="42.509133" lon="0.808442">
        <ele>1121.255</ele>
        <time>2018-11-24T10:47:28Z</time>
      </trkpt>
      <trkpt lat="42.509302" lon="0.808643">
        <ele>1120.510</ele>
        <time>2018-11-24T10:47:29Z</time>
      </trkpt>
      <trkpt lat="42.509457" lon="0.808858">
        <ele>1120.008</ele>
        <time>2018-11-24T10:47:30Z</time>
      </trkpt>
      <trkpt lat="42.509596" lon="0.809092">
        <ele>1119.576</ele>
        <time>2018-11-24T10:47:31Z</time>
      </trkpt>
      <trkpt lat="42.509717" lon="0.809336">
        <ele>1119.283</ele>
        <time>2018-11-24T10:47:32Z</time>
      </trkpt>
      <trkpt lat="42.509820" lon="0.809588">
        <ele>1119.010</ele>
        <time>2018-11-24T10:47:33Z</time>
      </trkpt>
      <trkpt lat="42.509913" lon="0.809838">
        <ele>1118.880</ele>
        <time>2018-11-24T10:47:34Z</time>
      </trkpt>
      <trkpt lat="42.510003" lon="0.810081">
        <ele>1118.811</ele>
        <time>2018-11-24T10:47:35Z</time>
      </trkpt>
      <trkpt lat="42.510096" lon="0.810312">
        <ele>1118.780</ele>
        <time>2018-11-24T10:47:36Z</time>
      </trkpt>
      <trkpt lat="42.510203" lon="0.810531">
        <ele>1118.970</ele>
        <time>2018-11-24T10:47:37Z</time>
      </trkpt>
      <trkpt lat="42.510328" lon="0.810737">
        <ele>1119.345</ele>
        <time>2018-11-24T10:47:38Z</time>
      </trkpt>
      <trkpt lat="42.510470" lon="0.810929">
        <ele>1119.722</ele>
        <time>2018-11-24T10:47:39Z</time>
      </trkpt>
      <trkpt lat="42.510620" lon="0.811120">
        <ele>1120.062</ele>
        <time>2018-11-24T10:47:40Z</time>
      </trkpt>
      <trkpt lat="42.510794" lon="0.811289">
        <ele>1120.308</ele>
        <time>2018-11-24T10:47:41Z</time>
      </trkpt>
      <trkpt lat="42.510970" lon="0.811464">
        <ele>1120.708</ele>
        <time>2018-11-24T10:47:42Z</time>
      </trkpt>
      <trkpt lat="42.511147" lon="0.811642">
        <ele>1121.175</ele>
        <time>2018-11-24T10:47:43Z</time>
      </trkpt>
      <trkpt lat="42.511334" lon="0.811819">
        <ele>1121.492</ele>
        <time>2018-11-24T10:47:44Z</time>
      </trkpt>
      <trkpt lat="42.511512" lon="0.811999">
        <ele>1121.629</ele>
        <time>2018-11-24T10:47:45Z</time>
      </trkpt>
      <trkpt lat="42.511683" lon="0.812178">
        <ele>1121.789</ele>
        <time>2018-11-24T10:47:46Z</time>
      </trkpt>
      <trkpt lat="42.511853" lon="0.812355">
        <ele>1121.470</ele>
        <time>2018-11-24T10:47:47Z</time>
      </trkpt>
      <trkpt lat="42.512024" lon="0.812536">
        <ele>1122.129</ele>
        <time>2018-11-24T10:47:48Z</time>
      </trkpt>
      <trkpt lat="42.512190" lon="0.812724">
        <ele>1122.369</ele>
        <time>2018-11-24T10:47:49Z</time>
      </trkpt>
      <trkpt lat="42.512348" lon="0.812918">
        <ele>1122.734</ele>
        <time>2018-11-24T10:47:50Z</time>
      </trkpt>
      <trkpt lat="42.512504" lon="0.813113">
        <ele>1122.934</ele>
        <time>2018-11-24T10:47:51Z</time>
      </trkpt>
      <trkpt lat="42.512658" lon="0.813315">
        <ele>1123.255</ele>
        <time>2018-11-24T10:47:52Z</time>
      </trkpt>
      <trkpt lat="42.512798" lon="0.813529">
        <ele>1123.510</ele>
        <time>2018-11-24T10:47:53Z</time>
      </trkpt>
      <trkpt lat="42.512940" lon="0.813746">
        <ele>1123.908</ele>
        <time>2018-11-24T10:47:54Z</time>
      </trkpt>
      <trkpt lat="42.513081" lon="0.813960">
        <ele>1124.496</ele>
        <time>2018-11-24T10:47:55Z</time>
      </trkpt>
      <trkpt lat="42.513219" lon="0.814177">
        <ele>1124.923</ele>
        <time>2018-11-24T10:47:56Z</time>
      </trkpt>
      <trkpt lat="42.513353" lon="0.814397">
        <ele>1125.330</ele>
        <time>2018-11-24T10:47:57Z</time>
      </trkpt>
      <trkpt lat="42.513481" lon="0.814624">
        <ele>1125.690</ele>
        <time>2018-11-24T10:47:58Z</time>
      </trkpt>
      <trkpt lat="42.513604" lon="0.814859">
        <ele>1126.181</ele>
        <time>2018-11-24T10:47:59Z</time>
      </trkpt>
      <trkpt lat="42.513722" lon="0.815095">
        <ele>1126.640</ele>
        <time>2018-11-24T10:48:00Z</time>
      </trkpt>
      <trkpt lat="42.513840" lon="0.815339">
        <ele>1127.190</ele>
        <time>2018-11-24T10:48:01Z</time>
      </trkpt>
      <trkpt lat="42.513950" lon="0.815584">
        <ele>1127.635</ele>
        <time>2018-11-24T10:48:02Z</time>
      </trkpt>
      <trkpt lat="42.514060" lon="0.815829">
        <ele>1127.953</ele>
        <time>2018-11-24T10:48:03Z</time>
      </trkpt>
      <trkpt lat="42.514174" lon="0.816061">
        <ele>1128.204</ele>
        <time>2018-11-24T10:48:04Z</time>
      </trkpt>
      <trkpt lat="42.514296" lon="0.816292">
        <ele>1128.914</ele>
        <time>2018-11-24T10:48:05Z</time>
      </trkpt>
      <trkpt lat="42.514425" lon="0.816521">
        <ele>1129.308</ele>
        <time>2018-11-24T10:48:06Z</time>
      </trkpt>
      <trkpt lat="42.514560" lon="0.816737">
        <ele>1129.718</ele>
        <time>2018-11-24T10:48:07Z</time>
      </trkpt>
      <trkpt lat="42.514697" lon="0.816953">
        <ele>1130.275</ele>
        <time>2018-11-24T10:48:08Z</time>
      </trkpt>
      <trkpt lat="42.514849" lon="0.817153">
        <ele>1130.792</ele>
        <time>2018-11-24T10:48:09Z</time>
      </trkpt>
      <trkpt lat="42.514997" lon="0.817352">
        <ele>1131.012</ele>
        <time>2018-11-24T10:48:10Z</time>
      </trkpt>
      <trkpt lat="42.515148" lon="0.817545">
        <ele>1131.363</ele>
        <time>2018-11-24T10:48:11Z</time>
      </trkpt>
      <trkpt lat="42.515299" lon="0.817748">
        <ele>1131.952</ele>
        <time>2018-11-24T10:48:12Z</time>
      </trkpt>
      <trkpt lat="42.515449" lon="0.817950">
        <ele>1132.312</ele>
        <time>2018-11-24T10:48:13Z</time>
      </trkpt>
      <trkpt lat="42.515602" lon="0.818150">
        <ele>1132.697</ele>
        <time>2018-11-24T10:48:14Z</time>
      </trkpt>
      <trkpt lat="42.515755" lon="0.818347">
        <ele>1133.035</ele>
        <time>2018-11-24T10:48:15Z</time>
      </trkpt>
      <trkpt lat="42.515910" lon="0.818542">
        <ele>1133.586</ele>
        <time>2018-11-24T10:48:16Z</time>
      </trkpt>
      <trkpt lat="42.516070" lon="0.818723">
        <ele>1134.114</ele>
        <time>2018-11-24T10:48:17Z</time>
      </trkpt>
      <trkpt lat="42.516238" lon="0.818889">
        <ele>1135.008</ele>
        <time>2018-11-24T10:48:18Z</time>
      </trkpt>
      <trkpt lat="42.516410" lon="0.819048">
        <ele>1136.096</ele>
        <time>2018-11-24T10:48:19Z</time>
      </trkpt>
      <trkpt lat="42.516588" lon="0.819198">
        <ele>1136.943</ele>
        <time>2018-11-24T10:48:20Z</time>
      </trkpt>
      <trkpt lat="42.516769" lon="0.819342">
        <ele>1138.350</ele>
        <time>2018-11-24T10:48:21Z</time>
      </trkpt>
      <trkpt lat="42.516952" lon="0.819483">
        <ele>1139.420</ele>
        <time>2018-11-24T10:48:22Z</time>
      </trkpt>
      <trkpt lat="42.517141" lon="0.819607">
        <ele>1140.871</ele>
        <time>2018-11-24T10:48:23Z</time>
      </trkpt>
      <trkpt lat="42.517331" lon="0.819724">
        <ele>1141.980</ele>
        <time>2018-11-24T10:48:24Z</time>
      </trkpt>
      <trkpt lat="42.517524" lon="0.819845">
        <ele>1143.010</ele>
        <time>2018-11-24T10:48:25Z</time>
      </trkpt>
      <trkpt lat="42.517723" lon="0.819955">
        <ele>1144.365</ele>
        <time>2018-11-24T10:48:26Z</time>
      </trkpt>
      <trkpt lat="42.517919" lon="0.820062">
        <ele>1145.466</ele>
        <time>2018-11-24T10:48:27Z</time>
      </trkpt>
      <trkpt lat="42.518115" lon="0.820173">
        <ele>1146.629</ele>
        <time>2018-11-24T10:48:28Z</time>
      </trkpt>
      <trkpt lat="42.518309" lon="0.820289">
        <ele>1147.921</ele>
        <time>2018-11-24T10:48:29Z</time>
      </trkpt>
      <trkpt lat="42.518506" lon="0.820413">
        <ele>1149.108</ele>
        <time>2018-11-24T10:48:30Z</time>
      </trkpt>
      <trkpt lat="42.518694" lon="0.820554">
        <ele>1150.759</ele>
        <time>2018-11-24T10:48:31Z</time>
      </trkpt>
      <trkpt lat="42.518877" lon="0.820704">
        <ele>1152.356</ele>
        <time>2018-11-24T10:48:32Z</time>
      </trkpt>
      <trkpt lat="42.519053" lon="0.820863">
        <ele>1154.043</ele>
        <time>2018-11-24T10:48:33Z</time>
      </trkpt>
      <trkpt lat="42.519225" lon="0.821022">
        <ele>1155.513</ele>
        <time>2018-11-24T10:48:34Z</time>
      </trkpt>
      <trkpt lat="42.519397" lon="0.821187">
        <ele>1157.414</ele>
        <time>2018-11-24T10:48:35Z</time>
      </trkpt>
      <trkpt lat="42.519563" lon="0.821363">
        <ele>1158.963</ele>
        <time>2018-11-24T10:48:36Z</time>
      </trkpt>
      <trkpt lat="42.519726" lon="0.821544">
        <ele>1160.823</ele>
        <time>2018-11-24T10:48:37Z</time>
      </trkpt>
      <trkpt lat="42.519875" lon="0.821749">
        <ele>1162.368</ele>
        <time>2018-11-24T10:48:38Z</time>
      </trkpt>
      <trkpt lat="42.520017" lon="0.821962">
        <ele>1164.221</ele>
        <time>2018-11-24T10:48:39Z</time>
      </trkpt>
      <trkpt lat="42.520153" lon="0.822185">
        <ele>1165.941</ele>
        <time>2018-11-24T10:48:40Z</time>
      </trkpt>
      <trkpt lat="42.520282" lon="0.822418">
        <ele>1168.105</ele>
        <time>2018-11-24T10:48:41Z</time>
      </trkpt>
      <trkpt lat="42.520404" lon="0.822662">
        <ele>1169.908</ele>
        <time>2018-11-24T10:48:42Z</time>
      </trkpt>
      <trkpt lat="42.520519" lon="0.822909">
        <ele>1172.185</ele>
        <time>2018-11-24T10:48:43Z</time>
      </trkpt>
      <trkpt lat="42.520633" lon="0.823159">
        <ele>1173.772</ele>
        <time>2018-11-24T10:48:44Z</time>
      </trkpt>
      <trkpt lat="42.520745" lon="0.823409">
        <ele>1175.849</ele>
        <time>2018-11-24T10:48:45Z</time>
      </trkpt>
      <trkpt lat="42.520857" lon="0.823659">
        <ele>1177.589</ele>
        <time>2018-11-24T10:48:46Z</time>
      </trkpt>
      <trkpt lat="42.520967" lon="0.823907">
        <ele>1179.880</ele>
        <time>2018-11-24T10:48:47Z</time>
      </trkpt>
      <trkpt lat="42.521077" lon="0.824156">
        <ele>1181.769</ele>
        <time>2018-11-24T10:48:48Z</time>
      </trkpt>
      <trkpt lat="42.521187" lon="0.824399">
        <ele>1183.599</ele>
        <time>2018-11-24T10:48:49Z</time>
      </trkpt>
      <trkpt lat="42.521299" lon="0.824640">
        <ele>1185.124</ele>
        <time>2018-11-24T10:48:50Z</time>
      </trkpt>
      <trkpt lat="42.521413" lon="0.824880">
        <ele>1187.279</ele>
        <time>2018-11-24T10:48:51Z</time>
      </trkpt>
      <trkpt lat="42.521531" lon="0.825113">
        <ele>1189.005</ele>
        <time>2018-11-24T10:48:52Z</time>
      </trkpt>
      <trkpt lat="42.521650" lon="0.825342">
        <ele>1191.025</ele>
        <time>2018-11-24T10:48:53Z</time>
      </trkpt>
      <trkpt lat="42.521772" lon="0.825568">
        <ele>1192.608</ele>
        <time>2018-11-24T10:48:54Z</time>
      </trkpt>
      <trkpt lat="42.521896" lon="0.825791">
        <ele>1194.570</ele>
        <time>2018-11-24T10:48:55Z</time>
      </trkpt>
      <trkpt lat="42.522022" lon="0.826012">
        <ele>1195.937</ele>
        <time>2018-11-24T10:48:56Z</time>
      </trkpt>
      <trkpt lat="42.522151" lon="0.826232">
        <ele>1197.474</ele>
        <time>2018-11-24T10:48:57Z</time>
      </trkpt>
      <trkpt lat="42.522280" lon="0.826453">
        <ele>1198.574</ele>
        <time>2018-11-24T10:48:58Z</time>
      </trkpt>
      <trkpt lat="42.522407" lon="0.826671">
        <ele>1199.565</ele>
        <time>2018-11-24T10:48:59Z</time>
      </trkpt>
      <trkpt lat="42.522533" lon="0.826889">
        <ele>1200.664</ele>
        <time>2018-11-24T10:49:00Z</time>
      </trkpt>
      <trkpt lat="42.522657" lon="0.827103">
        <ele>1201.824</ele>
        <time>2018-11-24T10:49:01Z</time>
      </trkpt>
      <trkpt lat="42.522779" lon="0.827313">
        <ele>1203.589</ele>
        <time>2018-11-24T10:49:02Z</time>
      </trkpt>
      <trkpt lat="42.522899" lon="0.827514">
        <ele>1204.941</ele>
        <time>2018-11-24T10:49:03Z</time>
      </trkpt>
      <trkpt lat="42.523020" lon="0.827710">
        <ele>1206.781</ele>
        <time>2018-11-24T10:49:04Z</time>
      </trkpt>
      <trkpt lat="42.523146" lon="0.827895">
        <ele>1208.609</ele>
        <time>2018-11-24T10:49:05Z</time>
      </trkpt>
      <trkpt lat="42.523281" lon="0.828063">
        <ele>1210.308</ele>
        <time>2018-11-24T10:49:06Z</time>
      </trkpt>
      <trkpt lat="42.523425" lon="0.828215">
        <ele>1211.957</ele>
        <time>2018-11-24T10:49:07Z</time>
      </trkpt>
      <trkpt lat="42.523579" lon="0.828345">
        <ele>1213.664</ele>
        <time>2018-11-24T10:49:08Z</time>
      </trkpt>
      <trkpt lat="42.523742" lon="0.828456">
        <ele>1215.531</ele>
        <time>2018-11-24T10:49:09Z</time>
      </trkpt>
      <trkpt lat="42.523915" lon="0.828546">
        <ele>1217.171</ele>
        <time>2018-11-24T10:49:10Z</time>
      </trkpt>
      <trkpt lat="42.524095" lon="0.828614">
        <ele>1218.762</ele>
        <time>2018-11-24T10:49:11Z</time>
      </trkpt>
      <trkpt lat="42.524272" lon="0.828679">
        <ele>1220.211</ele>
        <time>2018-11-24T10:49:12Z</time>
      </trkpt>
      <trkpt lat="42.524466" lon="0.828692">
        <ele>1221.871</ele>
        <time>2018-11-24T10:49:13Z</time>
      </trkpt>
      <trkpt lat="42.524666" lon="0.828693">
        <ele>1223.276</ele>
        <time>2018-11-24T10:49:14Z</time>
      </trkpt>
      <trkpt lat="42.524867" lon="0.828672">
        <ele>1224.877</ele>
        <time>2018-11-24T10:49:15Z</time>
      </trkpt>
      <trkpt lat="42.525071" lon="0.828656">
        <ele>1226.261</ele>
        <time>2018-11-24T10:49:16Z</time>
      </trkpt>
      <trkpt lat="42.525275" lon="0.828628">
        <ele>1227.427</ele>
        <time>2018-11-24T10:49:17Z</time>
      </trkpt>
      <trkpt lat="42.525480" lon="0.828623">
        <ele>1228.808</ele>
        <time>2018-11-24T10:49:18Z</time>
      </trkpt>
      <trkpt lat="42.525681" lon="0.828625">
        <ele>1230.060</ele>
        <time>2018-11-24T10:49:19Z</time>
      </trkpt>
      <trkpt lat="42.525874" lon="0.828651">
        <ele>1231.037</ele>
        <time>2018-11-24T10:49:20Z</time>
      </trkpt>
      <trkpt lat="42.526065" lon="0.828683">
        <ele>1231.834</ele>
        <time>2018-11-24T10:49:21Z</time>
      </trkpt>
      <trkpt lat="42.526244" lon="0.828754">
        <ele>1232.664</ele>
        <time>2018-11-24T10:49:22Z</time>
      </trkpt>
      <trkpt lat="42.526422" lon="0.828859">
        <ele>1233.315</ele>
        <time>2018-11-24T10:49:23Z</time>
      </trkpt>
      <trkpt lat="42.526595" lon="0.828984">
        <ele>1234.134</ele>
        <time>2018-11-24T10:49:24Z</time>
      </trkpt>
      <trkpt lat="42.526760" lon="0.829139">
        <ele>1234.724</ele>
        <time>2018-11-24T10:49:25Z</time>
      </trkpt>
      <trkpt lat="42.526917" lon="0.829322">
        <ele>1235.249</ele>
        <time>2018-11-24T10:49:26Z</time>
      </trkpt>
      <trkpt lat="42.527067" lon="0.829512">
        <ele>1235.743</ele>
        <time>2018-11-24T10:49:27Z</time>
      </trkpt>
      <trkpt lat="42.527215" lon="0.829713">
        <ele>1236.364</ele>
        <time>2018-11-24T10:49:28Z</time>
      </trkpt>
      <trkpt lat="42.527363" lon="0.829916">
        <ele>1237.110</ele>
        <time>2018-11-24T10:49:29Z</time>
      </trkpt>
      <trkpt lat="42.527512" lon="0.830120">
        <ele>1237.508</ele>
        <time>2018-11-24T10:49:30Z</time>
      </trkpt>
      <trkpt lat="42.527663" lon="0.830307">
        <ele>1237.677</ele>
        <time>2018-11-24T10:49:31Z</time>
      </trkpt>
      <trkpt lat="42.527821" lon="0.830484">
        <ele>1238.144</ele>
        <time>2018-11-24T10:49:32Z</time>
      </trkpt>
      <trkpt lat="42.527976" lon="0.830663">
        <ele>1238.641</ele>
        <time>2018-11-24T10:49:33Z</time>
      </trkpt>
      <trkpt lat="42.528142" lon="0.830827">
        <ele>1239.141</ele>
        <time>2018-11-24T10:49:34Z</time>
      </trkpt>
      <trkpt lat="42.528320" lon="0.830966">
        <ele>1239.662</ele>
        <time>2018-11-24T10:49:35Z</time>
      </trkpt>
      <trkpt lat="42.528514" lon="0.831084">
        <ele>1240.411</ele>
        <time>2018-11-24T10:49:36Z</time>
      </trkpt>
      <trkpt lat="42.528712" lon="0.831199">
        <ele>1241.061</ele>
        <time>2018-11-24T10:49:37Z</time>
      </trkpt>
      <trkpt lat="42.528919" lon="0.831295">
        <ele>1241.756</ele>
        <time>2018-11-24T10:49:38Z</time>
      </trkpt>
      <trkpt lat="42.529133" lon="0.831379">
        <ele>1242.128</ele>
        <time>2018-11-24T10:49:39Z</time>
      </trkpt>
      <trkpt lat="42.529347" lon="0.831470">
        <ele>1242.489</ele>
        <time>2018-11-24T10:49:40Z</time>
      </trkpt>
      <trkpt lat="42.529559" lon="0.831559">
        <ele>1242.817</ele>
        <time>2018-11-24T10:49:41Z</time>
      </trkpt>
      <trkpt lat="42.529763" lon="0.831638">
        <ele>1243.208</ele>
        <time>2018-11-24T10:49:42Z</time>
      </trkpt>
      <trkpt lat="42.529965" lon="0.831723">
        <ele>1243.475</ele>
        <time>2018-11-24T10:49:43Z</time>
      </trkpt>
      <trkpt lat="42.530159" lon="0.831804">
        <ele>1243.772</ele>
        <time>2018-11-24T10:49:44Z</time>
      </trkpt>
      <trkpt lat="42.530347" lon="0.831879">
        <ele>1243.759</ele>
        <time>2018-11-24T10:49:45Z</time>
      </trkpt>
      <trkpt lat="42.530529" lon="0.831955">
        <ele>1243.959</ele>
        <time>2018-11-24T10:49:46Z</time>
      </trkpt>
      <trkpt lat="42.530700" lon="0.832028">
        <ele>1244.010</ele>
        <time>2018-11-24T10:49:47Z</time>
      </trkpt>
      <trkpt lat="42.530853" lon="0.832101">
        <ele>1244.049</ele>
        <time>2018-11-24T10:49:48Z</time>
      </trkpt>
      <trkpt lat="42.530996" lon="0.832197">
        <ele>1243.619</ele>
        <time>2018-11-24T10:49:49Z</time>
      </trkpt>
      <trkpt lat="42.531132" lon="0.832303">
        <ele>1243.754</ele>
        <time>2018-11-24T10:49:50Z</time>
      </trkpt>
      <trkpt lat="42.531226" lon="0.832466">
        <ele>1243.774</ele>
        <time>2018-11-24T10:49:51Z</time>
      </trkpt>
      <trkpt lat="42.531312" lon="0.832629">
        <ele>1244.056</ele>
        <time>2018-11-24T10:49:52Z</time>
      </trkpt>
      <trkpt lat="42.531345" lon="0.832828">
        <ele>1244.421</ele>
        <time>2018-11-24T10:49:53Z</time>
      </trkpt>
      <trkpt lat="42.531383" lon="0.833011">
        <ele>1244.508</ele>
        <time>2018-11-24T10:49:54Z</time>
      </trkpt>
      <trkpt lat="42.531428" lon="0.833182">
        <ele>1244.730</ele>
        <time>2018-11-24T10:49:55Z</time>
      </trkpt>
      <trkpt lat="42.531508" lon="0.833329">
        <ele>1244.987</ele>
        <time>2018-11-24T10:49:56Z</time>
      </trkpt>
      <trkpt lat="42.531607" lon="0.833442">
        <ele>1245.244</ele>
        <time>2018-11-24T10:49:57Z</time>
      </trkpt>
      <trkpt lat="42.531717" lon="0.833527">
        <ele>1245.924</ele>
        <time>2018-11-24T10:49:58Z</time>
      </trkpt>
      <trkpt lat="42.531822" lon="0.833603">
        <ele>1246.685</ele>
        <time>2018-11-24T10:49:59Z</time>
      </trkpt>
      <trkpt lat="42.531932" lon="0.833667">
        <ele>1247.384</ele>
        <time>2018-11-24T10:50:00Z</time>
      </trkpt>
      <trkpt lat="42.532034" lon="0.833721">
        <ele>1248.084</ele>
        <time>2018-11-24T10:50:01Z</time>
      </trkpt>
      <trkpt lat="42.532140" lon="0.833771">
        <ele>1249.239</ele>
        <time>2018-11-24T10:50:02Z</time>
      </trkpt>
      <trkpt lat="42.532262" lon="0.833821">
        <ele>1250.275</ele>
        <time>2018-11-24T10:50:03Z</time>
      </trkpt>
      <trkpt lat="42.532394" lon="0.833866">
        <ele>1251.428</ele>
        <time>2018-11-24T10:50:04Z</time>
      </trkpt>
      <trkpt lat="42.532522" lon="0.833910">
        <ele>1252.520</ele>
        <time>2018-11-24T10:50:05Z</time>
      </trkpt>
      <trkpt lat="42.532662" lon="0.833950">
        <ele>1254.008</ele>
        <time>2018-11-24T10:50:06Z</time>
      </trkpt>
      <trkpt lat="42.532813" lon="0.833982">
        <ele>1255.260</ele>
        <time>2018-11-24T10:50:07Z</time>
      </trkpt>
      <trkpt lat="42.532977" lon="0.834000">
        <ele>1256.967</ele>
        <time>2018-11-24T10:50:08Z</time>
      </trkpt>
      <trkpt lat="42.533140" lon="0.834022">
        <ele>1258.384</ele>
        <time>2018-11-24T10:50:09Z</time>
      </trkpt>
      <trkpt lat="42.533291" lon="0.834043">
        <ele>1259.484</ele>
        <time>2018-11-24T10:50:10Z</time>
      </trkpt>
      <trkpt lat="42.533442" lon="0.834073">
        <ele>1260.425</ele>
        <time>2018-11-24T10:50:11Z</time>
      </trkpt>
      <trkpt lat="42.533587" lon="0.834107">
        <ele>1261.634</ele>
        <time>2018-11-24T10:50:12Z</time>
      </trkpt>
      <trkpt lat="42.533727" lon="0.834143">
        <ele>1262.574</ele>
        <time>2018-11-24T10:50:13Z</time>
      </trkpt>
      <trkpt lat="42.533868" lon="0.834175">
        <ele>1263.959</ele>
        <time>2018-11-24T10:50:14Z</time>
      </trkpt>
      <trkpt lat="42.534013" lon="0.834200">
        <ele>1265.286</ele>
        <time>2018-11-24T10:50:15Z</time>
      </trkpt>
      <trkpt lat="42.534161" lon="0.834223">
        <ele>1266.360</ele>
        <time>2018-11-24T10:50:16Z</time>
      </trkpt>
      <trkpt lat="42.534309" lon="0.834246">
        <ele>1267.726</ele>
        <time>2018-11-24T10:50:17Z</time>
      </trkpt>
      <trkpt lat="42.534457" lon="0.834254">
        <ele>1268.708</ele>
        <time>2018-11-24T10:50:18Z</time>
      </trkpt>
      <trkpt lat="42.534602" lon="0.834288">
        <ele>1270.151</ele>
        <time>2018-11-24T10:50:19Z</time>
      </trkpt>
      <trkpt lat="42.534745" lon="0.834342">
        <ele>1271.238</ele>
        <time>2018-11-24T10:50:20Z</time>
      </trkpt>
      <trkpt lat="42.534901" lon="0.834411">
        <ele>1272.875</ele>
        <time>2018-11-24T10:50:21Z</time>
      </trkpt>
      <trkpt lat="42.535056" lon="0.834486">
        <ele>1274.135</ele>
        <time>2018-11-24T10:50:22Z</time>
      </trkpt>
      <trkpt lat="42.535207" lon="0.834589">
        <ele>1275.696</ele>
        <time>2018-11-24T10:50:23Z</time>
      </trkpt>
      <trkpt lat="42.535362" lon="0.834691">
        <ele>1276.725</ele>
        <time>2018-11-24T10:50:24Z</time>
      </trkpt>
      <trkpt lat="42.535518" lon="0.834793">
        <ele>1278.395</ele>
        <time>2018-11-24T10:50:25Z</time>
      </trkpt>
      <trkpt lat="42.535670" lon="0.834894">
        <ele>1279.650</ele>
        <time>2018-11-24T10:50:26Z</time>
      </trkpt>
      <trkpt lat="42.535826" lon="0.835019">
        <ele>1280.895</ele>
        <time>2018-11-24T10:50:27Z</time>
      </trkpt>
      <trkpt lat="42.535970" lon="0.835131">
        <ele>1282.149</ele>
        <time>2018-11-24T10:50:28Z</time>
      </trkpt>
      <trkpt lat="42.536122" lon="0.835228">
        <ele>1283.023</ele>
        <time>2018-11-24T10:50:29Z</time>
      </trkpt>
      <trkpt lat="42.536271" lon="0.835321">
        <ele>1283.808</ele>
        <time>2018-11-24T10:50:30Z</time>
      </trkpt>
      <trkpt lat="42.536421" lon="0.835410">
        <ele>1284.912</ele>
        <time>2018-11-24T10:50:31Z</time>
      </trkpt>
      <trkpt lat="42.536585" lon="0.835483">
        <ele>1286.459</ele>
        <time>2018-11-24T10:50:32Z</time>
      </trkpt>
      <trkpt lat="42.536743" lon="0.835556">
        <ele>1287.446</ele>
        <time>2018-11-24T10:50:33Z</time>
      </trkpt>
      <trkpt lat="42.536911" lon="0.835612">
        <ele>1288.896</ele>
        <time>2018-11-24T10:50:34Z</time>
      </trkpt>
      <trkpt lat="42.537082" lon="0.835655">
        <ele>1290.097</ele>
        <time>2018-11-24T10:50:35Z</time>
      </trkpt>
      <trkpt lat="42.537248" lon="0.835699">
        <ele>1291.726</ele>
        <time>2018-11-24T10:50:36Z</time>
      </trkpt>
      <trkpt lat="42.537414" lon="0.835736">
        <ele>1293.226</ele>
        <time>2018-11-24T10:50:37Z</time>
      </trkpt>
      <trkpt lat="42.537581" lon="0.835772">
        <ele>1294.831</ele>
        <time>2018-11-24T10:50:38Z</time>
      </trkpt>
      <trkpt lat="42.537747" lon="0.835798">
        <ele>1296.566</ele>
        <time>2018-11-24T10:50:39Z</time>
      </trkpt>
      <trkpt lat="42.537917" lon="0.835806">
        <ele>1297.929</ele>
        <time>2018-11-24T10:50:40Z</time>
      </trkpt>
      <trkpt lat="42.538089" lon="0.835790">
        <ele>1299.521</ele>
        <time>2018-11-24T10:50:41Z</time>
      </trkpt>
      <trkpt lat="42.538258" lon="0.835751">
        <ele>1300.608</ele>
        <time>2018-11-24T10:50:42Z</time>
      </trkpt>
      <trkpt lat="42.538424" lon="0.835718">
        <ele>1302.079</ele>
        <time>2018-11-24T10:50:43Z</time>
      </trkpt>
      <trkpt lat="42.538590" lon="0.835705">
        <ele>1303.836</ele>
        <time>2018-11-24T10:50:44Z</time>
      </trkpt>
      <trkpt lat="42.538751" lon="0.835727">
        <ele>1305.153</ele>
        <time>2018-11-24T10:50:45Z</time>
      </trkpt>
      <trkpt lat="42.538894" lon="0.835764">
        <ele>1306.763</ele>
        <time>2018-11-24T10:50:46Z</time>
      </trkpt>
      <trkpt lat="42.539048" lon="0.835816">
        <ele>1308.164</ele>
        <time>2018-11-24T10:50:47Z</time>
      </trkpt>
      <trkpt lat="42.539205" lon="0.835896">
        <ele>1309.513</ele>
        <time>2018-11-24T10:50:48Z</time>
      </trkpt>
      <trkpt lat="42.539357" lon="0.835988">
        <ele>1311.043</ele>
        <time>2018-11-24T10:50:49Z</time>
      </trkpt>
      <trkpt lat="42.539504" lon="0.836100">
        <ele>1312.138</ele>
        <time>2018-11-24T10:50:50Z</time>
      </trkpt>
      <trkpt lat="42.539654" lon="0.836206">
        <ele>1313.256</ele>
        <time>2018-11-24T10:50:51Z</time>
      </trkpt>
      <trkpt lat="42.539803" lon="0.836312">
        <ele>1314.259</ele>
        <time>2018-11-24T10:50:52Z</time>
      </trkpt>
      <trkpt lat="42.539955" lon="0.836425">
        <ele>1315.414</ele>
        <time>2018-11-24T10:50:53Z</time>
      </trkpt>
      <trkpt lat="42.540109" lon="0.836540">
        <ele>1316.308</ele>
        <time>2018-11-24T10:50:54Z</time>
      </trkpt>
      <trkpt lat="42.540262" lon="0.836650">
        <ele>1317.498</ele>
        <time>2018-11-24T10:50:55Z</time>
      </trkpt>
      <trkpt lat="42.540413" lon="0.836763">
        <ele>1318.395</ele>
        <time>2018-11-24T10:50:56Z</time>
      </trkpt>
      <trkpt lat="42.540566" lon="0.836878">
        <ele>1319.332</ele>
        <time>2018-11-24T10:50:57Z</time>
      </trkpt>
      <trkpt lat="42.540721" lon="0.836993">
        <ele>1320.292</ele>
        <time>2018-11-24T10:50:58Z</time>
      </trkpt>
      <trkpt lat="42.540874" lon="0.837110">
        <ele>1321.353</ele>
        <time>2018-11-24T10:50:59Z</time>
      </trkpt>
      <trkpt lat="42.541027" lon="0.837227">
        <ele>1322.362</ele>
        <time>2018-11-24T10:51:00Z</time>
      </trkpt>
      <trkpt lat="42.541178" lon="0.837347">
        <ele>1323.542</ele>
        <time>2018-11-24T10:51:01Z</time>
      </trkpt>
      <trkpt lat="42.541322" lon="0.837465">
        <ele>1324.547</ele>
        <time>2018-11-24T10:51:02Z</time>
      </trkpt>
      <trkpt lat="42.541459" lon="0.837580">
        <ele>1325.685</ele>
        <time>2018-11-24T10:51:03Z</time>
      </trkpt>
      <trkpt lat="42.541594" lon="0.837696">
        <ele>1326.889</ele>
        <time>2018-11-24T10:51:04Z</time>
      </trkpt>
      <trkpt lat="42.541727" lon="0.837811">
        <ele>1328.217</ele>
        <time>2018-11-24T10:51:05Z</time>
      </trkpt>
      <trkpt lat="42.541859" lon="0.837929">
        <ele>1329.208</ele>
        <time>2018-11-24T10:51:06Z</time>
      </trkpt>
      <trkpt lat="42.541985" lon="0.838042">
        <ele>1330.381</ele>
        <time>2018-11-24T10:51:07Z</time>
      </trkpt>
      <trkpt lat="42.542107" lon="0.838157">
        <ele>1331.478</ele>
        <time>2018-11-24T10:51:08Z</time>
      </trkpt>
      <trkpt lat="42.542229" lon="0.838270">
        <ele>1332.715</ele>
        <time>2018-11-24T10:51:09Z</time>
      </trkpt>
      <trkpt lat="42.542343" lon="0.838379">
        <ele>1333.695</ele>
        <time>2018-11-24T10:51:10Z</time>
      </trkpt>
      <trkpt lat="42.542448" lon="0.838481">
        <ele>1334.586</ele>
        <time>2018-11-24T10:51:11Z</time>
      </trkpt>
      <trkpt lat="42.542546" lon="0.838580">
        <ele>1335.185</ele>
        <time>2018-11-24T10:51:12Z</time>
      </trkpt>
      <trkpt lat="42.542644" lon="0.838679">
        <ele>1336.155</ele>
        <time>2018-11-24T10:51:13Z</time>
      </trkpt>
      <trkpt lat="42.542743" lon="0.838780">
        <ele>1336.970</ele>
        <time>2018-11-24T10:51:14Z</time>
      </trkpt>
      <trkpt lat="42.542840" lon="0.838883">
        <ele>1337.852</ele>
        <time>2018-11-24T10:51:15Z</time>
      </trkpt>
      <trkpt lat="42.542929" lon="0.838981">
        <ele>1338.453</ele>
        <time>2018-11-24T10:51:16Z</time>
      </trkpt>
      <trkpt lat="42.543011" lon="0.839074">
        <ele>1339.008</ele>
        <time>2018-11-24T10:51:17Z</time>
      </trkpt>
      <trkpt lat="42.543093" lon="0.839166">
        <ele>1339.608</ele>
        <time>2018-11-24T10:51:18Z</time>
      </trkpt>
      <trkpt lat="42.543172" lon="0.839256">
        <ele>1340.378</ele>
        <time>2018-11-24T10:51:19Z</time>
      </trkpt>
      <trkpt lat="42.543247" lon="0.839343">
        <ele>1340.935</ele>
        <time>2018-11-24T10:51:20Z</time>
      </trkpt>
      <trkpt lat="42.543323" lon="0.839428">
        <ele>1341.732</ele>
        <time>2018-11-24T10:51:21Z</time>
      </trkpt>
      <trkpt lat="42.543405" lon="0.839509">
        <ele>1342.472</ele>
        <time>2018-11-24T10:51:22Z</time>
      </trkpt>
      <trkpt lat="42.543493" lon="0.839585">
        <ele>1343.153</ele>
        <time>2018-11-24T10:51:23Z</time>
      </trkpt>
      <trkpt lat="42.543606" lon="0.839608">
        <ele>1343.822</ele>
        <time>2018-11-24T10:51:24Z</time>
      </trkpt>
      <trkpt lat="42.543715" lon="0.839623">
        <ele>1344.662</ele>
        <time>2018-11-24T10:51:25Z</time>
      </trkpt>
      <trkpt lat="42.543831" lon="0.839550">
        <ele>1345.387</ele>
        <time>2018-11-24T10:51:26Z</time>
      </trkpt>
      <trkpt lat="42.543927" lon="0.839427">
        <ele>1346.354</ele>
        <time>2018-11-24T10:51:27Z</time>
      </trkpt>
      <trkpt lat="42.544011" lon="0.839293">
        <ele>1347.156</ele>
        <time>2018-11-24T10:51:28Z</time>
      </trkpt>
      <trkpt lat="42.544073" lon="0.839164">
        <ele>1347.711</ele>
        <time>2018-11-24T10:51:29Z</time>
      </trkpt>
      <trkpt lat="42.544122" lon="0.839058">
        <ele>1347.908</ele>
        <time>2018-11-24T10:51:30Z</time>
      </trkpt>
      <trkpt lat="42.544157" lon="0.838979">
        <ele>1347.998</ele>
        <time>2018-11-24T10:51:31Z</time>
      </trkpt>
      <trkpt lat="42.544189" lon="0.838933">
        <ele>1347.915</ele>
        <time>2018-11-24T10:51:32Z</time>
      </trkpt>
      <trkpt lat="42.544121" lon="0.838940">
        <ele>1348.212</ele>
        <time>2018-11-24T10:51:55Z</time>
      </trkpt>
      <trkpt lat="42.544084" lon="0.838993">
        <ele>1348.272</ele>
        <time>2018-11-24T10:51:56Z</time>
      </trkpt>
      <trkpt lat="42.544043" lon="0.839068">
        <ele>1348.033</ele>
        <time>2018-11-24T10:51:57Z</time>
      </trkpt>
      <trkpt lat="42.544003" lon="0.839146">
        <ele>1347.752</ele>
        <time>2018-11-24T10:51:58Z</time>
      </trkpt>
      <trkpt lat="42.543961" lon="0.839233">
        <ele>1347.582</ele>
        <time>2018-11-24T10:51:59Z</time>
      </trkpt>
      <trkpt lat="42.543912" lon="0.839326">
        <ele>1347.087</ele>
        <time>2018-11-24T10:52:00Z</time>
      </trkpt>
      <trkpt lat="42.543856" lon="0.839413">
        <ele>1346.092</ele>
        <time>2018-11-24T10:52:01Z</time>
      </trkpt>
      <trkpt lat="42.543789" lon="0.839489">
        <ele>1344.573</ele>
        <time>2018-11-24T10:52:02Z</time>
      </trkpt>
      <trkpt lat="42.543711" lon="0.839564">
        <ele>1343.420</ele>
        <time>2018-11-24T10:52:03Z</time>
      </trkpt>
      <trkpt lat="42.543609" lon="0.839577">
        <ele>1342.608</ele>
        <time>2018-11-24T10:52:04Z</time>
      </trkpt>
      <trkpt lat="42.543504" lon="0.839568">
        <ele>1342.532</ele>
        <time>2018-11-24T10:52:05Z</time>
      </trkpt>
      <trkpt lat="42.543395" lon="0.839472">
        <ele>1342.399</ele>
        <time>2018-11-24T10:52:06Z</time>
      </trkpt>
      <trkpt lat="42.543302" lon="0.839349">
        <ele>1342.046</ele>
        <time>2018-11-24T10:52:07Z</time>
      </trkpt>
      <trkpt lat="42.543199" lon="0.839226">
        <ele>1341.476</ele>
        <time>2018-11-24T10:52:08Z</time>
      </trkpt>
      <trkpt lat="42.543085" lon="0.839094">
        <ele>1340.877</ele>
        <time>2018-11-24T10:52:09Z</time>
      </trkpt>
      <trkpt lat="42.542958" lon="0.838950">
        <ele>1340.016</ele>
        <time>2018-11-24T10:52:10Z</time>
      </trkpt>
      <trkpt lat="42.542823" lon="0.838801">
        <ele>1339.016</ele>
        <time>2018-11-24T10:52:11Z</time>
      </trkpt>
      <trkpt lat="42.542686" lon="0.838656">
        <ele>1337.881</ele>
        <time>2018-11-24T10:52:12Z</time>
      </trkpt>
      <trkpt lat="42.542541" lon="0.838507">
        <ele>1337.017</ele>
        <time>2018-11-24T10:52:13Z</time>
      </trkpt>
      <trkpt lat="42.542389" lon="0.838350">
        <ele>1335.887</ele>
        <time>2018-11-24T10:52:14Z</time>
      </trkpt>
      <trkpt lat="42.542226" lon="0.838191">
        <ele>1334.715</ele>
        <time>2018-11-24T10:52:15Z</time>
      </trkpt>
      <trkpt lat="42.542052" lon="0.838031">
        <ele>1333.308</ele>
        <time>2018-11-24T10:52:16Z</time>
      </trkpt>
      <trkpt lat="42.541869" lon="0.837867">
        <ele>1331.924</ele>
        <time>2018-11-24T10:52:17Z</time>
      </trkpt>
      <trkpt lat="42.541678" lon="0.837703">
        <ele>1330.441</ele>
        <time>2018-11-24T10:52:18Z</time>
      </trkpt>
      <trkpt lat="42.541480" lon="0.837542">
        <ele>1328.838</ele>
        <time>2018-11-24T10:52:19Z</time>
      </trkpt>
      <trkpt lat="42.541283" lon="0.837377">
        <ele>1327.028</ele>
        <time>2018-11-24T10:52:20Z</time>
      </trkpt>
      <trkpt lat="42.541079" lon="0.837216">
        <ele>1325.639</ele>
        <time>2018-11-24T10:52:21Z</time>
      </trkpt>
      <trkpt lat="42.540868" lon="0.837060">
        <ele>1324.038</ele>
        <time>2018-11-24T10:52:22Z</time>
      </trkpt>
      <trkpt lat="42.540659" lon="0.836903">
        <ele>1322.748</ele>
        <time>2018-11-24T10:52:23Z</time>
      </trkpt>
      <trkpt lat="42.540449" lon="0.836747">
        <ele>1321.173</ele>
        <time>2018-11-24T10:52:24Z</time>
      </trkpt>
      <trkpt lat="42.540238" lon="0.836589">
        <ele>1319.931</ele>
        <time>2018-11-24T10:52:25Z</time>
      </trkpt>
      <trkpt lat="42.540030" lon="0.836436">
        <ele>1318.161</ele>
        <time>2018-11-24T10:52:26Z</time>
      </trkpt>
      <trkpt lat="42.539837" lon="0.836296">
        <ele>1316.307</ele>
        <time>2018-11-24T10:52:27Z</time>
      </trkpt>
      <trkpt lat="42.539655" lon="0.836164">
        <ele>1314.408</ele>
        <time>2018-11-24T10:52:28Z</time>
      </trkpt>
      <trkpt lat="42.539486" lon="0.836041">
        <ele>1312.836</ele>
        <time>2018-11-24T10:52:29Z</time>
      </trkpt>
      <trkpt lat="42.539329" lon="0.835929">
        <ele>1311.353</ele>
        <time>2018-11-24T10:52:30Z</time>
      </trkpt>
      <trkpt lat="42.539170" lon="0.835823">
        <ele>1310.280</ele>
        <time>2018-11-24T10:52:31Z</time>
      </trkpt>
      <trkpt lat="42.538997" lon="0.835738">
        <ele>1308.920</ele>
        <time>2018-11-24T10:52:32Z</time>
      </trkpt>
      <trkpt lat="42.538809" lon="0.835677">
        <ele>1307.821</ele>
        <time>2018-11-24T10:52:33Z</time>
      </trkpt>
      <trkpt lat="42.538609" lon="0.835645">
        <ele>1306.480</ele>
        <time>2018-11-24T10:52:34Z</time>
      </trkpt>
      <trkpt lat="42.538406" lon="0.835641">
        <ele>1304.850</ele>
        <time>2018-11-24T10:52:35Z</time>
      </trkpt>
      <trkpt lat="42.538202" lon="0.835670">
        <ele>1303.095</ele>
        <time>2018-11-24T10:52:36Z</time>
      </trkpt>
      <trkpt lat="42.537996" lon="0.835705">
        <ele>1301.552</ele>
        <time>2018-11-24T10:52:37Z</time>
      </trkpt>
      <trkpt lat="42.537785" lon="0.835715">
        <ele>1299.553</ele>
        <time>2018-11-24T10:52:38Z</time>
      </trkpt>
      <trkpt lat="42.537572" lon="0.835692">
        <ele>1297.908</ele>
        <time>2018-11-24T10:52:39Z</time>
      </trkpt>
      <trkpt lat="42.537356" lon="0.835655">
        <ele>1295.808</ele>
        <time>2018-11-24T10:52:40Z</time>
      </trkpt>
      <trkpt lat="42.537138" lon="0.835617">
        <ele>1294.198</ele>
        <time>2018-11-24T10:52:41Z</time>
      </trkpt>
      <trkpt lat="42.536921" lon="0.835562">
        <ele>1292.295</ele>
        <time>2018-11-24T10:52:42Z</time>
      </trkpt>
      <trkpt lat="42.536705" lon="0.835482">
        <ele>1290.472</ele>
        <time>2018-11-24T10:52:43Z</time>
      </trkpt>
      <trkpt lat="42.536492" lon="0.835382">
        <ele>1288.362</ele>
        <time>2018-11-24T10:52:44Z</time>
      </trkpt>
      <trkpt lat="42.536283" lon="0.835263">
        <ele>1287.173</ele>
        <time>2018-11-24T10:52:45Z</time>
      </trkpt>
      <trkpt lat="42.536079" lon="0.835132">
        <ele>1285.432</ele>
        <time>2018-11-24T10:52:46Z</time>
      </trkpt>
      <trkpt lat="42.535877" lon="0.834995">
        <ele>1284.112</ele>
        <time>2018-11-24T10:52:47Z</time>
      </trkpt>
      <trkpt lat="42.535674" lon="0.834857">
        <ele>1282.467</ele>
        <time>2018-11-24T10:52:48Z</time>
      </trkpt>
      <trkpt lat="42.535471" lon="0.834722">
        <ele>1281.025</ele>
        <time>2018-11-24T10:52:49Z</time>
      </trkpt>
      <trkpt lat="42.535283" lon="0.834581">
        <ele>1279.326</ele>
        <time>2018-11-24T10:52:50Z</time>
      </trkpt>
      <trkpt lat="42.535102" lon="0.834456">
        <ele>1277.108</ele>
        <time>2018-11-24T10:52:51Z</time>
      </trkpt>
      <trkpt lat="42.534922" lon="0.834355">
        <ele>1275.308</ele>
        <time>2018-11-24T10:52:52Z</time>
      </trkpt>
      <trkpt lat="42.534734" lon="0.834259">
        <ele>1273.925</ele>
        <time>2018-11-24T10:52:53Z</time>
      </trkpt>
      <trkpt lat="42.534534" lon="0.834201">
        <ele>1272.482</ele>
        <time>2018-11-24T10:52:54Z</time>
      </trkpt>
      <trkpt lat="42.534319" lon="0.834165">
        <ele>1271.229</ele>
        <time>2018-11-24T10:52:55Z</time>
      </trkpt>
      <trkpt lat="42.534087" lon="0.834147">
        <ele>1269.759</ele>
        <time>2018-11-24T10:52:56Z</time>
      </trkpt>
      <trkpt lat="42.533853" lon="0.834109">
        <ele>1268.220</ele>
        <time>2018-11-24T10:52:57Z</time>
      </trkpt>
      <trkpt lat="42.533613" lon="0.834087">
        <ele>1266.529</ele>
        <time>2018-11-24T10:52:58Z</time>
      </trkpt>
      <trkpt lat="42.533372" lon="0.834027">
        <ele>1264.229</ele>
        <time>2018-11-24T10:52:59Z</time>
      </trkpt>
      <trkpt lat="42.533126" lon="0.833984">
        <ele>1262.564</ele>
        <time>2018-11-24T10:53:00Z</time>
      </trkpt>
      <trkpt lat="42.532875" lon="0.833959">
        <ele>1260.543</ele>
        <time>2018-11-24T10:53:01Z</time>
      </trkpt>
      <trkpt lat="42.532630" lon="0.833914">
        <ele>1258.864</ele>
        <time>2018-11-24T10:53:02Z</time>
      </trkpt>
      <trkpt lat="42.532400" lon="0.833857">
        <ele>1256.310</ele>
        <time>2018-11-24T10:53:03Z</time>
      </trkpt>
      <trkpt lat="42.532185" lon="0.833773">
        <ele>1254.208</ele>
        <time>2018-11-24T10:53:04Z</time>
      </trkpt>
      <trkpt lat="42.531996" lon="0.833671">
        <ele>1251.447</ele>
        <time>2018-11-24T10:53:05Z</time>
      </trkpt>
      <trkpt lat="42.531835" lon="0.833576">
        <ele>1249.074</ele>
        <time>2018-11-24T10:53:06Z</time>
      </trkpt>
      <trkpt lat="42.531704" lon="0.833489">
        <ele>1247.051</ele>
        <time>2018-11-24T10:53:07Z</time>
      </trkpt>
      <trkpt lat="42.531600" lon="0.833402">
        <ele>1245.611</ele>
        <time>2018-11-24T10:53:08Z</time>
      </trkpt>
      <trkpt lat="42.531503" lon="0.833329">
        <ele>1244.512</ele>
        <time>2018-11-24T10:53:09Z</time>
      </trkpt>
      <trkpt lat="42.531410" lon="0.833249">
        <ele>1244.021</ele>
        <time>2018-11-24T10:53:10Z</time>
      </trkpt>
      <trkpt lat="42.531283" lon="0.833227">
        <ele>1243.821</ele>
        <time>2018-11-24T10:53:11Z</time>
      </trkpt>
      <trkpt lat="42.531159" lon="0.833196">
        <ele>1244.226</ele>
        <time>2018-11-24T10:53:12Z</time>
      </trkpt>
      <trkpt lat="42.531029" lon="0.833160">
        <ele>1245.119</ele>
        <time>2018-11-24T10:53:13Z</time>
      </trkpt>
      <trkpt lat="42.530894" lon="0.833146">
        <ele>1245.609</ele>
        <time>2018-11-24T10:53:14Z</time>
      </trkpt>
      <trkpt lat="42.530751" lon="0.833173">
        <ele>1246.519</ele>
        <time>2018-11-24T10:53:15Z</time>
      </trkpt>
      <trkpt lat="42.530610" lon="0.833223">
        <ele>1247.708</ele>
        <time>2018-11-24T10:53:16Z</time>
      </trkpt>
      <trkpt lat="42.530469" lon="0.833299">
        <ele>1248.914</ele>
        <time>2018-11-24T10:53:17Z</time>
      </trkpt>
      <trkpt lat="42.530334" lon="0.833381">
        <ele>1249.891</ele>
        <time>2018-11-24T10:53:18Z</time>
      </trkpt>
      <trkpt lat="42.530202" lon="0.833470">
        <ele>1250.978</ele>
        <time>2018-11-24T10:53:19Z</time>
      </trkpt>
      <trkpt lat="42.530059" lon="0.833555">
        <ele>1252.048</ele>
        <time>2018-11-24T10:53:20Z</time>
      </trkpt>
      <trkpt lat="42.529911" lon="0.833648">
        <ele>1253.459</ele>
        <time>2018-11-24T10:53:21Z</time>
      </trkpt>
      <trkpt lat="42.529766" lon="0.833755">
        <ele>1254.598</ele>
        <time>2018-11-24T10:53:22Z</time>
      </trkpt>
      <trkpt lat="42.529623" lon="0.833849">
        <ele>1255.978</ele>
        <time>2018-11-24T10:53:23Z</time>
      </trkpt>
      <trkpt lat="42.529488" lon="0.833932">
        <ele>1256.773</ele>
        <time>2018-11-24T10:53:24Z</time>
      </trkpt>
      <trkpt lat="42.529355" lon="0.833968">
        <ele>1257.695</ele>
        <time>2018-11-24T10:53:25Z</time>
      </trkpt>
      <trkpt lat="42.529221" lon="0.833942">
        <ele>1258.649</ele>
        <time>2018-11-24T10:53:26Z</time>
      </trkpt>
      <trkpt lat="42.529089" lon="0.833880">
        <ele>1259.823</ele>
        <time>2018-11-24T10:53:27Z</time>
      </trkpt>
      <trkpt lat="42.528954" lon="0.833815">
        <ele>1260.908</ele>
        <time>2018-11-24T10:53:28Z</time>
      </trkpt>
      <trkpt lat="42.528811" lon="0.833761">
        <ele>1262.392</ele>
        <time>2018-11-24T10:53:29Z</time>
      </trkpt>
      <trkpt lat="42.528661" lon="0.833706">
        <ele>1263.789</ele>
        <time>2018-11-24T10:53:30Z</time>
      </trkpt>
      <trkpt lat="42.528495" lon="0.833667">
        <ele>1264.726</ele>
        <time>2018-11-24T10:53:31Z</time>
      </trkpt>
      <trkpt lat="42.528333" lon="0.833648">
        <ele>1265.456</ele>
        <time>2018-11-24T10:53:32Z</time>
      </trkpt>
      <trkpt lat="42.528166" lon="0.833658">
        <ele>1265.747</ele>
        <time>2018-11-24T10:53:33Z</time>
      </trkpt>
      <trkpt lat="42.527999" lon="0.833679">
        <ele>1266.176</ele>
        <time>2018-11-24T10:53:34Z</time>
      </trkpt>
      <trkpt lat="42.527829" lon="0.833656">
        <ele>1266.366</ele>
        <time>2018-11-24T10:53:35Z</time>
      </trkpt>
      <trkpt lat="42.527650" lon="0.833593">
        <ele>1266.921</ele>
        <time>2018-11-24T10:53:36Z</time>
      </trkpt>
      <trkpt lat="42.527468" lon="0.833531">
        <ele>1267.365</ele>
        <time>2018-11-24T10:53:37Z</time>
      </trkpt>
      <trkpt lat="42.527271" lon="0.833480">
        <ele>1267.568</ele>
        <time>2018-11-24T10:53:38Z</time>
      </trkpt>
      <trkpt lat="42.527070" lon="0.833431">
        <ele>1267.714</ele>
        <time>2018-11-24T10:53:39Z</time>
      </trkpt>
      <trkpt lat="42.526875" lon="0.833381">
        <ele>1267.708</ele>
        <time>2018-11-24T10:53:40Z</time>
      </trkpt>
      <trkpt lat="42.526689" lon="0.833329">
        <ele>1267.579</ele>
        <time>2018-11-24T10:53:41Z</time>
      </trkpt>
      <trkpt lat="42.526514" lon="0.833285">
        <ele>1267.266</ele>
        <time>2018-11-24T10:53:42Z</time>
      </trkpt>
      <trkpt lat="42.526343" lon="0.833257">
        <ele>1267.363</ele>
        <time>2018-11-24T10:53:43Z</time>
      </trkpt>
      <trkpt lat="42.526167" lon="0.833252">
        <ele>1267.663</ele>
        <time>2018-11-24T10:53:44Z</time>
      </trkpt>
      <trkpt lat="42.525983" lon="0.833281">
        <ele>1268.144</ele>
        <time>2018-11-24T10:53:45Z</time>
      </trkpt>
      <trkpt lat="42.525793" lon="0.833332">
        <ele>1268.573</ele>
        <time>2018-11-24T10:53:46Z</time>
      </trkpt>
      <trkpt lat="42.525600" lon="0.833393">
        <ele>1268.943</ele>
        <time>2018-11-24T10:53:47Z</time>
      </trkpt>
      <trkpt lat="42.525419" lon="0.833493">
        <ele>1269.348</ele>
        <time>2018-11-24T10:53:48Z</time>
      </trkpt>
      <trkpt lat="42.525252" lon="0.833606">
        <ele>1269.667</ele>
        <time>2018-11-24T10:53:49Z</time>
      </trkpt>
      <trkpt lat="42.525090" lon="0.833710">
        <ele>1270.181</ele>
        <time>2018-11-24T10:53:50Z</time>
      </trkpt>
      <trkpt lat="42.524930" lon="0.833795">
        <ele>1270.619</ele>
        <time>2018-11-24T10:53:51Z</time>
      </trkpt>
      <trkpt lat="42.524772" lon="0.833868">
        <ele>1271.108</ele>
        <time>2018-11-24T10:53:52Z</time>
      </trkpt>
      <trkpt lat="42.524616" lon="0.833899">
        <ele>1271.679</ele>
        <time>2018-11-24T10:53:53Z</time>
      </trkpt>
      <trkpt lat="42.524463" lon="0.833902">
        <ele>1272.136</ele>
        <time>2018-11-24T10:53:54Z</time>
      </trkpt>
      <trkpt lat="42.524320" lon="0.833905">
        <ele>1272.413</ele>
        <time>2018-11-24T10:53:55Z</time>
      </trkpt>
      <trkpt lat="42.524184" lon="0.833911">
        <ele>1272.973</ele>
        <time>2018-11-24T10:53:56Z</time>
      </trkpt>
      <trkpt lat="42.524054" lon="0.833915">
        <ele>1273.214</ele>
        <time>2018-11-24T10:53:57Z</time>
      </trkpt>
      <trkpt lat="42.523931" lon="0.833915">
        <ele>1273.473</ele>
        <time>2018-11-24T10:53:58Z</time>
      </trkpt>
      <trkpt lat="42.523815" lon="0.833922">
        <ele>1273.763</ele>
        <time>2018-11-24T10:53:59Z</time>
      </trkpt>
      <trkpt lat="42.523700" lon="0.833938">
        <ele>1274.028</ele>
        <time>2018-11-24T10:54:00Z</time>
      </trkpt>
      <trkpt lat="42.523590" lon="0.833966">
        <ele>1274.631</ele>
        <time>2018-11-24T10:54:01Z</time>
      </trkpt>
      <trkpt lat="42.523480" lon="0.833999">
        <ele>1275.261</ele>
        <time>2018-11-24T10:54:02Z</time>
      </trkpt>
      <trkpt lat="42.523369" lon="0.834030">
        <ele>1275.907</ele>
        <time>2018-11-24T10:54:03Z</time>
      </trkpt>
      <trkpt lat="42.523258" lon="0.834057">
        <ele>1276.708</ele>
        <time>2018-11-24T10:54:04Z</time>
      </trkpt>
      <trkpt lat="42.523150" lon="0.834088">
        <ele>1277.196</ele>
        <time>2018-11-24T10:54:05Z</time>
      </trkpt>
      <trkpt lat="42.523044" lon="0.834113">
        <ele>1277.443</ele>
        <time>2018-11-24T10:54:06Z</time>
      </trkpt>
      <trkpt lat="42.522942" lon="0.834136">
        <ele>1278.040</ele>
        <time>2018-11-24T10:54:07Z</time>
      </trkpt>
      <trkpt lat="42.522844" lon="0.834162">
        <ele>1278.630</ele>
        <time>2018-11-24T10:54:08Z</time>
      </trkpt>
      <trkpt lat="42.522754" lon="0.834185">
        <ele>1279.291</ele>
        <time>2018-11-24T10:54:09Z</time>
      </trkpt>
      <trkpt lat="42.522670" lon="0.834209">
        <ele>1279.910</ele>
        <time>2018-11-24T10:54:10Z</time>
      </trkpt>
      <trkpt lat="42.522586" lon="0.834231">
        <ele>1280.780</ele>
        <time>2018-11-24T10:54:11Z</time>
      </trkpt>
      <trkpt lat="42.522501" lon="0.834254">
        <ele>1281.655</ele>
        <time>2018-11-24T10:54:12Z</time>
      </trkpt>
      <trkpt lat="42.522416" lon="0.834282">
        <ele>1282.793</ele>
        <time>2018-11-24T10:54:13Z</time>
      </trkpt>
      <trkpt lat="42.522330" lon="0.834321">
        <ele>1283.765</ele>
        <time>2018-11-24T10:54:14Z</time>
      </trkpt>
      <trkpt lat="42.522246" lon="0.834379">
        <ele>1284.821</ele>
        <time>2018-11-24T10:54:15Z</time>
      </trkpt>
      <trkpt lat="42.522163" lon="0.834453">
        <ele>1286.108</ele>
        <time>2018-11-24T10:54:16Z</time>
      </trkpt>
      <trkpt lat="42.522081" lon="0.834542">
        <ele>1287.222</ele>
        <time>2018-11-24T10:54:17Z</time>
      </trkpt>
      <trkpt lat="42.522002" lon="0.834647">
        <ele>1288.589</ele>
        <time>2018-11-24T10:54:18Z</time>
      </trkpt>
      <trkpt lat="42.521924" lon="0.834759">
        <ele>1289.856</ele>
        <time>2018-11-24T10:54:19Z</time>
      </trkpt>
      <trkpt lat="42.521843" lon="0.834866">
        <ele>1291.096</ele>
        <time>2018-11-24T10:54:20Z</time>
      </trkpt>
      <trkpt lat="42.521754" lon="0.834961">
        <ele>1292.567</ele>
        <time>2018-11-24T10:54:21Z</time>
      </trkpt>
      <trkpt lat="42.521671" lon="0.835048">
        <ele>1293.856</ele>
        <time>2018-11-24T10:54:22Z</time>
      </trkpt>
      <trkpt lat="42.521599" lon="0.835106">
        <ele>1294.286</ele>
        <time>2018-11-24T10:54:23Z</time>
      </trkpt>
      <trkpt lat="42.521573" lon="0.835165">
        <ele>1294.711</ele>
        <time>2018-11-24T10:54:24Z</time>
      </trkpt>
      <trkpt lat="42.521553" lon="0.835283">
        <ele>1295.625</ele>
        <time>2018-11-24T10:54:26Z</time>
      </trkpt>
      <trkpt lat="42.521580" lon="0.835340">
        <ele>1296.226</ele>
        <time>2018-11-24T10:54:27Z</time>
      </trkpt>
      <trkpt lat="42.521625" lon="0.835388">
        <ele>1296.708</ele>
        <time>2018-11-24T10:54:28Z</time>
      </trkpt>
      <trkpt lat="42.521678" lon="0.835446">
        <ele>1297.608</ele>
        <time>2018-11-24T10:54:29Z</time>
      </trkpt>
      <trkpt lat="42.521756" lon="0.835460">
        <ele>1298.325</ele>
        <time>2018-11-24T10:54:30Z</time>
      </trkpt>
      <trkpt lat="42.521845" lon="0.835481">
        <ele>1299.242</ele>
        <time>2018-11-24T10:54:31Z</time>
      </trkpt>
      <trkpt lat="42.521933" lon="0.835493">
        <ele>1299.759</ele>
        <time>2018-11-24T10:54:32Z</time>
      </trkpt>
      <trkpt lat="42.522014" lon="0.835512">
        <ele>1300.439</ele>
        <time>2018-11-24T10:54:33Z</time>
      </trkpt>
      <trkpt lat="42.522096" lon="0.835526">
        <ele>1301.250</ele>
        <time>2018-11-24T10:54:34Z</time>
      </trkpt>
      <trkpt lat="42.522186" lon="0.835550">
        <ele>1301.929</ele>
        <time>2018-11-24T10:54:35Z</time>
      </trkpt>
      <trkpt lat="42.522283" lon="0.835589">
        <ele>1302.679</ele>
        <time>2018-11-24T10:54:36Z</time>
      </trkpt>
      <trkpt lat="42.522386" lon="0.835623">
        <ele>1303.464</ele>
        <time>2018-11-24T10:54:37Z</time>
      </trkpt>
      <trkpt lat="42.522493" lon="0.835663">
        <ele>1304.596</ele>
        <time>2018-11-24T10:54:38Z</time>
      </trkpt>
      <trkpt lat="42.522605" lon="0.835705">
        <ele>1305.531</ele>
        <time>2018-11-24T10:54:39Z</time>
      </trkpt>
      <trkpt lat="42.522724" lon="0.835732">
        <ele>1306.624</ele>
        <time>2018-11-24T10:54:40Z</time>
      </trkpt>
      <trkpt lat="42.522846" lon="0.835762">
        <ele>1307.608</ele>
        <time>2018-11-24T10:54:41Z</time>
      </trkpt>
      <trkpt lat="42.522968" lon="0.835767">
        <ele>1308.772</ele>
        <time>2018-11-24T10:54:42Z</time>
      </trkpt>
      <trkpt lat="42.523089" lon="0.835762">
        <ele>1309.719</ele>
        <time>2018-11-24T10:54:43Z</time>
      </trkpt>
      <trkpt lat="42.523211" lon="0.835757">
        <ele>1311.056</ele>
        <time>2018-11-24T10:54:44Z</time>
      </trkpt>
      <trkpt lat="42.523328" lon="0.835753">
        <ele>1311.946</ele>
        <time>2018-11-24T10:54:45Z</time>
      </trkpt>
      <trkpt lat="42.523436" lon="0.835756">
        <ele>1312.927</ele>
        <time>2018-11-24T10:54:46Z</time>
      </trkpt>
      <trkpt lat="42.523523" lon="0.835760">
        <ele>1313.696</ele>
        <time>2018-11-24T10:54:47Z</time>
      </trkpt>
      <trkpt lat="42.523583" lon="0.835789">
        <ele>1314.586</ele>
        <time>2018-11-24T10:54:48Z</time>
      </trkpt>
      <trkpt lat="42.523623" lon="0.835857">
        <ele>1315.481</ele>
        <time>2018-11-24T10:54:49Z</time>
      </trkpt>
      <trkpt lat="42.523658" lon="0.835948">
        <ele>1316.549</ele>
        <time>2018-11-24T10:54:50Z</time>
      </trkpt>
      <trkpt lat="42.523648" lon="0.836060">
        <ele>1317.502</ele>
        <time>2018-11-24T10:54:51Z</time>
      </trkpt>
      <trkpt lat="42.523595" lon="0.836173">
        <ele>1318.522</ele>
        <time>2018-11-24T10:54:52Z</time>
      </trkpt>
      <trkpt lat="42.523534" lon="0.836261">
        <ele>1319.408</ele>
        <time>2018-11-24T10:54:53Z</time>
      </trkpt>
      <trkpt lat="42.523449" lon="0.836329">
        <ele>1320.357</ele>
        <time>2018-11-24T10:54:54Z</time>
      </trkpt>
      <trkpt lat="42.523364" lon="0.836387">
        <ele>1321.334</ele>
        <time>2018-11-24T10:54:55Z</time>
      </trkpt>
      <trkpt lat="42.523276" lon="0.836452">
        <ele>1322.391</ele>
        <time>2018-11-24T10:54:56Z</time>
      </trkpt>
      <trkpt lat="42.523184" lon="0.836540">
        <ele>1323.571</ele>
        <time>2018-11-24T10:54:57Z</time>
      </trkpt>
      <trkpt lat="42.523090" lon="0.836641">
        <ele>1324.442</ele>
        <time>2018-11-24T10:54:58Z</time>
      </trkpt>
      <trkpt lat="42.522990" lon="0.836755">
        <ele>1325.751</ele>
        <time>2018-11-24T10:54:59Z</time>
      </trkpt>
      <trkpt lat="42.522886" lon="0.836880">
        <ele>1327.041</ele>
        <time>2018-11-24T10:55:00Z</time>
      </trkpt>
      <trkpt lat="42.522769" lon="0.837005">
        <ele>1328.546</ele>
        <time>2018-11-24T10:55:01Z</time>
      </trkpt>
      <trkpt lat="42.522645" lon="0.837117">
        <ele>1329.862</ele>
        <time>2018-11-24T10:55:02Z</time>
      </trkpt>
      <trkpt lat="42.522519" lon="0.837202">
        <ele>1330.983</ele>
        <time>2018-11-24T10:55:03Z</time>
      </trkpt>
      <trkpt lat="42.522393" lon="0.837278">
        <ele>1332.011</ele>
        <time>2018-11-24T10:55:04Z</time>
      </trkpt>
      <trkpt lat="42.522262" lon="0.837351">
        <ele>1333.608</ele>
        <time>2018-11-24T10:55:05Z</time>
      </trkpt>
      <trkpt lat="42.522129" lon="0.837421">
        <ele>1334.969</ele>
        <time>2018-11-24T10:55:06Z</time>
      </trkpt>
      <trkpt lat="42.521993" lon="0.837490">
        <ele>1336.296</ele>
        <time>2018-11-24T10:55:07Z</time>
      </trkpt>
      <trkpt lat="42.521864" lon="0.837559">
        <ele>1337.223</ele>
        <time>2018-11-24T10:55:08Z</time>
      </trkpt>
      <trkpt lat="42.521743" lon="0.837643">
        <ele>1338.543</ele>
        <time>2018-11-24T10:55:09Z</time>
      </trkpt>
      <trkpt lat="42.521630" lon="0.837749">
        <ele>1339.664</ele>
        <time>2018-11-24T10:55:10Z</time>
      </trkpt>
      <trkpt lat="42.521517" lon="0.837862">
        <ele>1340.823</ele>
        <time>2018-11-24T10:55:11Z</time>
      </trkpt>
      <trkpt lat="42.521418" lon="0.838014">
        <ele>1341.933</ele>
        <time>2018-11-24T10:55:12Z</time>
      </trkpt>
      <trkpt lat="42.521315" lon="0.838173">
        <ele>1343.378</ele>
        <time>2018-11-24T10:55:13Z</time>
      </trkpt>
      <trkpt lat="42.521213" lon="0.838336">
        <ele>1344.717</ele>
        <time>2018-11-24T10:55:14Z</time>
      </trkpt>
      <trkpt lat="42.521109" lon="0.838508">
        <ele>1346.487</ele>
        <time>2018-11-24T10:55:15Z</time>
      </trkpt>
      <trkpt lat="42.521013" lon="0.838690">
        <ele>1347.915</ele>
        <time>2018-11-24T10:55:16Z</time>
      </trkpt>
      <trkpt lat="42.520915" lon="0.838857">
        <ele>1349.608</ele>
        <time>2018-11-24T10:55:17Z</time>
      </trkpt>
      <trkpt lat="42.520817" lon="0.839016">
        <ele>1351.134</ele>
        <time>2018-11-24T10:55:18Z</time>
      </trkpt>
      <trkpt lat="42.520710" lon="0.839159">
        <ele>1352.891</ele>
        <time>2018-11-24T10:55:19Z</time>
      </trkpt>
      <trkpt lat="42.520592" lon="0.839292">
        <ele>1354.178</ele>
        <time>2018-11-24T10:55:20Z</time>
      </trkpt>
      <trkpt lat="42.520473" lon="0.839410">
        <ele>1355.738</ele>
        <time>2018-11-24T10:55:21Z</time>
      </trkpt>
      <trkpt lat="42.520352" lon="0.839487">
        <ele>1356.729</ele>
        <time>2018-11-24T10:55:22Z</time>
      </trkpt>
      <trkpt lat="42.520241" lon="0.839532">
        <ele>1357.758</ele>
        <time>2018-11-24T10:55:23Z</time>
      </trkpt>
      <trkpt lat="42.520146" lon="0.839564">
        <ele>1358.898</ele>
        <time>2018-11-24T10:55:24Z</time>
      </trkpt>
      <trkpt lat="42.520062" lon="0.839599">
        <ele>1359.763</ele>
        <time>2018-11-24T10:55:25Z</time>
      </trkpt>
      <trkpt lat="42.519989" lon="0.839655">
        <ele>1360.464</ele>
        <time>2018-11-24T10:55:26Z</time>
      </trkpt>
      <trkpt lat="42.519919" lon="0.839710">
        <ele>1361.306</ele>
        <time>2018-11-24T10:55:27Z</time>
      </trkpt>
      <trkpt lat="42.519888" lon="0.839824">
        <ele>1362.316</ele>
        <time>2018-11-24T10:55:28Z</time>
      </trkpt>
      <trkpt lat="42.519901" lon="0.839960">
        <ele>1363.108</ele>
        <time>2018-11-24T10:55:29Z</time>
      </trkpt>
      <trkpt lat="42.519930" lon="0.840085">
        <ele>1364.039</ele>
        <time>2018-11-24T10:55:30Z</time>
      </trkpt>
      <trkpt lat="42.520015" lon="0.840175">
        <ele>1365.116</ele>
        <time>2018-11-24T10:55:31Z</time>
      </trkpt>
      <trkpt lat="42.520111" lon="0.840263">
        <ele>1366.443</ele>
        <time>2018-11-24T10:55:32Z</time>
      </trkpt>
      <trkpt lat="42.520213" lon="0.840358">
        <ele>1367.543</ele>
        <time>2018-11-24T10:55:33Z</time>
      </trkpt>
      <trkpt lat="42.520320" lon="0.840465">
        <ele>1368.794</ele>
        <time>2018-11-24T10:55:34Z</time>
      </trkpt>
      <trkpt lat="42.520427" lon="0.840569">
        <ele>1369.953</ele>
        <time>2018-11-24T10:55:35Z</time>
      </trkpt>
      <trkpt lat="42.520526" lon="0.840655">
        <ele>1370.913</ele>
        <time>2018-11-24T10:55:36Z</time>
      </trkpt>
      <trkpt lat="42.520637" lon="0.840717">
        <ele>1371.918</ele>
        <time>2018-11-24T10:55:37Z</time>
      </trkpt>
      <trkpt lat="42.520757" lon="0.840727">
        <ele>1373.199</ele>
        <time>2018-11-24T10:55:38Z</time>
      </trkpt>
      <trkpt lat="42.520885" lon="0.840719">
        <ele>1374.507</ele>
        <time>2018-11-24T10:55:39Z</time>
      </trkpt>
      <trkpt lat="42.521011" lon="0.840643">
        <ele>1376.027</ele>
        <time>2018-11-24T10:55:40Z</time>
      </trkpt>
      <trkpt lat="42.521131" lon="0.840531">
        <ele>1377.408</ele>
        <time>2018-11-24T10:55:41Z</time>
      </trkpt>
      <trkpt lat="42.521252" lon="0.840419">
        <ele>1378.732</ele>
        <time>2018-11-24T10:55:42Z</time>
      </trkpt>
      <trkpt lat="42.521363" lon="0.840311">
        <ele>1379.669</ele>
        <time>2018-11-24T10:55:43Z</time>
      </trkpt>
      <trkpt lat="42.521466" lon="0.840215">
        <ele>1380.856</ele>
        <time>2018-11-24T10:55:44Z</time>
      </trkpt>
      <trkpt lat="42.521567" lon="0.840131">
        <ele>1381.956</ele>
        <time>2018-11-24T10:55:45Z</time>
      </trkpt>
      <trkpt lat="42.521660" lon="0.840067">
        <ele>1382.827</ele>
        <time>2018-11-24T10:55:46Z</time>
      </trkpt>
      <trkpt lat="42.521743" lon="0.840037">
        <ele>1383.596</ele>
        <time>2018-11-24T10:55:47Z</time>
      </trkpt>
      <trkpt lat="42.521821" lon="0.840087">
        <ele>1384.136</ele>
        <time>2018-11-24T10:55:48Z</time>
      </trkpt>
      <trkpt lat="42.521872" lon="0.840151">
        <ele>1384.751</ele>
        <time>2018-11-24T10:55:49Z</time>
      </trkpt>
      <trkpt lat="42.521872" lon="0.840227">
        <ele>1385.578</ele>
        <time>2018-11-24T10:55:50Z</time>
      </trkpt>
      <trkpt lat="42.521842" lon="0.840277">
        <ele>1386.233</ele>
        <time>2018-11-24T10:55:51Z</time>
      </trkpt>
      <trkpt lat="42.521798" lon="0.840310">
        <ele>1387.026</ele>
        <time>2018-11-24T10:55:52Z</time>
      </trkpt>
      <trkpt lat="42.521732" lon="0.840327">
        <ele>1387.608</ele>
        <time>2018-11-24T10:55:53Z</time>
      </trkpt>
      <trkpt lat="42.521653" lon="0.840354">
        <ele>1388.380</ele>
        <time>2018-11-24T10:55:54Z</time>
      </trkpt>
      <trkpt lat="42.521566" lon="0.840404">
        <ele>1389.167</ele>
        <time>2018-11-24T10:55:55Z</time>
      </trkpt>
      <trkpt lat="42.521480" lon="0.840480">
        <ele>1390.074</ele>
        <time>2018-11-24T10:55:56Z</time>
      </trkpt>
      <trkpt lat="42.521405" lon="0.840560">
        <ele>1390.784</ele>
        <time>2018-11-24T10:55:57Z</time>
      </trkpt>
      <trkpt lat="42.521337" lon="0.840657">
        <ele>1391.875</ele>
        <time>2018-11-24T10:55:58Z</time>
      </trkpt>
      <trkpt lat="42.521271" lon="0.840776">
        <ele>1392.664</ele>
        <time>2018-11-24T10:55:59Z</time>
      </trkpt>
      <trkpt lat="42.521204" lon="0.840914">
        <ele>1393.814</ele>
        <time>2018-11-24T10:56:00Z</time>
      </trkpt>
      <trkpt lat="42.521131" lon="0.841071">
        <ele>1394.249</ele>
        <time>2018-11-24T10:56:01Z</time>
      </trkpt>
      <trkpt lat="42.521048" lon="0.841236">
        <ele>1396.564</ele>
        <time>2018-11-24T10:56:02Z</time>
      </trkpt>
      <trkpt lat="42.520970" lon="0.841419">
        <ele>1397.806</ele>
        <time>2018-11-24T10:56:03Z</time>
      </trkpt>
      <trkpt lat="42.520890" lon="0.841587">
        <ele>1399.116</ele>
        <time>2018-11-24T10:56:04Z</time>
      </trkpt>
      <trkpt lat="42.520808" lon="0.841748">
        <ele>1400.108</ele>
        <time>2018-11-24T10:56:05Z</time>
      </trkpt>
      <trkpt lat="42.520715" lon="0.841894">
        <ele>1401.429</ele>
        <time>2018-11-24T10:56:06Z</time>
      </trkpt>
      <trkpt lat="42.520614" lon="0.842044">
        <ele>1402.666</ele>
        <time>2018-11-24T10:56:07Z</time>
      </trkpt>
      <trkpt lat="42.520516" lon="0.842178">
        <ele>1403.613</ele>
        <time>2018-11-24T10:56:08Z</time>
      </trkpt>
      <trkpt lat="42.520426" lon="0.842293">
        <ele>1404.713</ele>
        <time>2018-11-24T10:56:09Z</time>
      </trkpt>
      <trkpt lat="42.520327" lon="0.842391">
        <ele>1405.824</ele>
        <time>2018-11-24T10:56:10Z</time>
      </trkpt>
      <trkpt lat="42.520223" lon="0.842477">
        <ele>1406.623</ele>
        <time>2018-11-24T10:56:11Z</time>
      </trkpt>
      <trkpt lat="42.520114" lon="0.842519">
        <ele>1407.363</ele>
        <time>2018-11-24T10:56:12Z</time>
      </trkpt>
      <trkpt lat="42.520014" lon="0.842552">
        <ele>1407.988</ele>
        <time>2018-11-24T10:56:13Z</time>
      </trkpt>
      <trkpt lat="42.519939" lon="0.842601">
        <ele>1408.536</ele>
        <time>2018-11-24T10:56:14Z</time>
      </trkpt>
      <trkpt lat="42.519875" lon="0.842658">
        <ele>1409.117</ele>
        <time>2018-11-24T10:56:15Z</time>
      </trkpt>
      <trkpt lat="42.519879" lon="0.842771">
        <ele>1409.918</ele>
        <time>2018-11-24T10:56:16Z</time>
      </trkpt>
      <trkpt lat="42.519914" lon="0.842855">
        <ele>1410.608</ele>
        <time>2018-11-24T10:56:17Z</time>
      </trkpt>
      <trkpt lat="42.519963" lon="0.842932">
        <ele>1411.246</ele>
        <time>2018-11-24T10:56:18Z</time>
      </trkpt>
      <trkpt lat="42.520064" lon="0.842925">
        <ele>1411.923</ele>
        <time>2018-11-24T10:56:19Z</time>
      </trkpt>
      <trkpt lat="42.520154" lon="0.842911">
        <ele>1412.630</ele>
        <time>2018-11-24T10:56:20Z</time>
      </trkpt>
      <trkpt lat="42.520251" lon="0.842883">
        <ele>1413.590</ele>
        <time>2018-11-24T10:56:21Z</time>
      </trkpt>
      <trkpt lat="42.520356" lon="0.842855">
        <ele>1414.351</ele>
        <time>2018-11-24T10:56:22Z</time>
      </trkpt>
      <trkpt lat="42.520473" lon="0.842823">
        <ele>1415.540</ele>
        <time>2018-11-24T10:56:23Z</time>
      </trkpt>
      <trkpt lat="42.520597" lon="0.842781">
        <ele>1416.810</ele>
        <time>2018-11-24T10:56:24Z</time>
      </trkpt>
      <trkpt lat="42.520730" lon="0.842727">
        <ele>1418.465</ele>
        <time>2018-11-24T10:56:25Z</time>
      </trkpt>
      <trkpt lat="42.520876" lon="0.842682">
        <ele>1420.253</ele>
        <time>2018-11-24T10:56:26Z</time>
      </trkpt>
      <trkpt lat="42.521003" lon="0.842566">
        <ele>1421.404</ele>
        <time>2018-11-24T10:56:27Z</time>
      </trkpt>
      <trkpt lat="42.521127" lon="0.842441">
        <ele>1423.014</ele>
        <time>2018-11-24T10:56:28Z</time>
      </trkpt>
      <trkpt lat="42.521250" lon="0.842319">
        <ele>1424.408</ele>
        <time>2018-11-24T10:56:29Z</time>
      </trkpt>
      <trkpt lat="42.521379" lon="0.842198">
        <ele>1425.818</ele>
        <time>2018-11-24T10:56:30Z</time>
      </trkpt>
      <trkpt lat="42.521501" lon="0.842068">
        <ele>1427.625</ele>
        <time>2018-11-24T10:56:31Z</time>
      </trkpt>
      <trkpt lat="42.521625" lon="0.841945">
        <ele>1428.812</ele>
        <time>2018-11-24T10:56:32Z</time>
      </trkpt>
      <trkpt lat="42.521733" lon="0.841819">
        <ele>1430.112</ele>
        <time>2018-11-24T10:56:33Z</time>
      </trkpt>
      <trkpt lat="42.521834" lon="0.841705">
        <ele>1431.333</ele>
        <time>2018-11-24T10:56:34Z</time>
      </trkpt>
      <trkpt lat="42.521915" lon="0.841584">
        <ele>1432.782</ele>
        <time>2018-11-24T10:56:35Z</time>
      </trkpt>
      <trkpt lat="42.521988" lon="0.841487">
        <ele>1434.242</ele>
        <time>2018-11-24T10:56:36Z</time>
      </trkpt>
      <trkpt lat="42.522046" lon="0.841411">
        <ele>1435.547</ele>
        <time>2018-11-24T10:56:37Z</time>
      </trkpt>
      <trkpt lat="42.522091" lon="0.841353">
        <ele>1436.339</ele>
        <time>2018-11-24T10:56:38Z</time>
      </trkpt>
      <trkpt lat="42.522152" lon="0.841355">
        <ele>1437.001</ele>
        <time>2018-11-24T10:56:39Z</time>
      </trkpt>
      <trkpt lat="42.522205" lon="0.841406">
        <ele>1438.021</ele>
        <time>2018-11-24T10:56:40Z</time>
      </trkpt>
      <trkpt lat="42.522226" lon="0.841496">
        <ele>1438.808</ele>
        <time>2018-11-24T10:56:41Z</time>
      </trkpt>
      <trkpt lat="42.522227" lon="0.841595">
        <ele>1440.096</ele>
        <time>2018-11-24T10:56:42Z</time>
      </trkpt>
      <trkpt lat="42.522172" lon="0.841687">
        <ele>1440.963</ele>
        <time>2018-11-24T10:56:43Z</time>
      </trkpt>
      <trkpt lat="42.522091" lon="0.841763">
        <ele>1441.990</ele>
        <time>2018-11-24T10:56:44Z</time>
      </trkpt>
      <trkpt lat="42.522018" lon="0.841856">
        <ele>1443.350</ele>
        <time>2018-11-24T10:56:45Z</time>
      </trkpt>
      <trkpt lat="42.521959" lon="0.841966">
        <ele>1444.571</ele>
        <time>2018-11-24T10:56:46Z</time>
      </trkpt>
      <trkpt lat="42.521896" lon="0.842072">
        <ele>1445.320</ele>
        <time>2018-11-24T10:56:47Z</time>
      </trkpt>
      <trkpt lat="42.521829" lon="0.842179">
        <ele>1446.340</ele>
        <time>2018-11-24T10:56:48Z</time>
      </trkpt>
      <trkpt lat="42.521762" lon="0.842301">
        <ele>1447.245</ele>
        <time>2018-11-24T10:56:49Z</time>
      </trkpt>
      <trkpt lat="42.521686" lon="0.842442">
        <ele>1448.427</ele>
        <time>2018-11-24T10:56:50Z</time>
      </trkpt>
      <trkpt lat="42.521613" lon="0.842604">
        <ele>1449.668</ele>
        <time>2018-11-24T10:56:51Z</time>
      </trkpt>
      <trkpt lat="42.521523" lon="0.842781">
        <ele>1451.214</ele>
        <time>2018-11-24T10:56:52Z</time>
      </trkpt>
      <trkpt lat="42.521440" lon="0.842957">
        <ele>1452.208</ele>
        <time>2018-11-24T10:56:53Z</time>
      </trkpt>
      <trkpt lat="42.521361" lon="0.843126">
        <ele>1453.255</ele>
        <time>2018-11-24T10:56:54Z</time>
      </trkpt>
      <trkpt lat="42.521275" lon="0.843288">
        <ele>1454.332</ele>
        <time>2018-11-24T10:56:55Z</time>
      </trkpt>
      <trkpt lat="42.521179" lon="0.843443">
        <ele>1455.729</ele>
        <time>2018-11-24T10:56:56Z</time>
      </trkpt>
      <trkpt lat="42.521078" lon="0.843597">
        <ele>1456.839</ele>
        <time>2018-11-24T10:56:57Z</time>
      </trkpt>
      <trkpt lat="42.520977" lon="0.843748">
        <ele>1458.260</ele>
        <time>2018-11-24T10:56:58Z</time>
      </trkpt>
      <trkpt lat="42.520878" lon="0.843896">
        <ele>1459.249</ele>
        <time>2018-11-24T10:56:59Z</time>
      </trkpt>
      <trkpt lat="42.520781" lon="0.844042">
        <ele>1460.339</ele>
        <time>2018-11-24T10:57:00Z</time>
      </trkpt>
      <trkpt lat="42.520685" lon="0.844187">
        <ele>1461.424</ele>
        <time>2018-11-24T10:57:01Z</time>
      </trkpt>
      <trkpt lat="42.520595" lon="0.844333">
        <ele>1462.482</ele>
        <time>2018-11-24T10:57:02Z</time>
      </trkpt>
      <trkpt lat="42.520496" lon="0.844484">
        <ele>1463.543</ele>
        <time>2018-11-24T10:57:03Z</time>
      </trkpt>
      <trkpt lat="42.520411" lon="0.844650">
        <ele>1464.817</ele>
        <time>2018-11-24T10:57:04Z</time>
      </trkpt>
      <trkpt lat="42.520332" lon="0.844813">
        <ele>1465.908</ele>
        <time>2018-11-24T10:57:05Z</time>
      </trkpt>
      <trkpt lat="42.520258" lon="0.844965">
        <ele>1466.731</ele>
        <time>2018-11-24T10:57:06Z</time>
      </trkpt>
      <trkpt lat="42.520171" lon="0.845093">
        <ele>1467.648</ele>
        <time>2018-11-24T10:57:07Z</time>
      </trkpt>
      <trkpt lat="42.520074" lon="0.845213">
        <ele>1468.965</ele>
        <time>2018-11-24T10:57:08Z</time>
      </trkpt>
      <trkpt lat="42.519973" lon="0.845316">
        <ele>1470.485</ele>
        <time>2018-11-24T10:57:09Z</time>
      </trkpt>
      <trkpt lat="42.519889" lon="0.845454">
        <ele>1471.786</ele>
        <time>2018-11-24T10:57:10Z</time>
      </trkpt>
      <trkpt lat="42.519809" lon="0.845591">
        <ele>1473.255</ele>
        <time>2018-11-24T10:57:11Z</time>
      </trkpt>
      <trkpt lat="42.519731" lon="0.845739">
        <ele>1474.595</ele>
        <time>2018-11-24T10:57:12Z</time>
      </trkpt>
      <trkpt lat="42.519649" lon="0.845892">
        <ele>1476.050</ele>
        <time>2018-11-24T10:57:13Z</time>
      </trkpt>
      <trkpt lat="42.519567" lon="0.846046">
        <ele>1477.293</ele>
        <time>2018-11-24T10:57:14Z</time>
      </trkpt>
      <trkpt lat="42.519488" lon="0.846207">
        <ele>1478.965</ele>
        <time>2018-11-24T10:57:15Z</time>
      </trkpt>
      <trkpt lat="42.519411" lon="0.846372">
        <ele>1480.621</ele>
        <time>2018-11-24T10:57:16Z</time>
      </trkpt>
      <trkpt lat="42.519337" lon="0.846544">
        <ele>1482.008</ele>
        <time>2018-11-24T10:57:17Z</time>
      </trkpt>
      <trkpt lat="42.519265" lon="0.846707">
        <ele>1483.342</ele>
        <time>2018-11-24T10:57:18Z</time>
      </trkpt>
      <trkpt lat="42.519189" lon="0.846868">
        <ele>1484.429</ele>
        <time>2018-11-24T10:57:19Z</time>
      </trkpt>
      <trkpt lat="42.519103" lon="0.847002">
        <ele>1486.076</ele>
        <time>2018-11-24T10:57:20Z</time>
      </trkpt>
      <trkpt lat="42.519005" lon="0.847140">
        <ele>1487.396</ele>
        <time>2018-11-24T10:57:21Z</time>
      </trkpt>
      <trkpt lat="42.518904" lon="0.847272">
        <ele>1488.477</ele>
        <time>2018-11-24T10:57:22Z</time>
      </trkpt>
      <trkpt lat="42.518800" lon="0.847392">
        <ele>1489.486</ele>
        <time>2018-11-24T10:57:23Z</time>
      </trkpt>
      <trkpt lat="42.518698" lon="0.847515">
        <ele>1490.566</ele>
        <time>2018-11-24T10:57:24Z</time>
      </trkpt>
      <trkpt lat="42.518595" lon="0.847642">
        <ele>1491.671</ele>
        <time>2018-11-24T10:57:25Z</time>
      </trkpt>
      <trkpt lat="42.518495" lon="0.847764">
        <ele>1492.414</ele>
        <time>2018-11-24T10:57:26Z</time>
      </trkpt>
      <trkpt lat="42.518401" lon="0.847870">
        <ele>1493.554</ele>
        <time>2018-11-24T10:57:27Z</time>
      </trkpt>
      <trkpt lat="42.518305" lon="0.847964">
        <ele>1494.509</ele>
        <time>2018-11-24T10:57:28Z</time>
      </trkpt>
      <trkpt lat="42.518211" lon="0.848047">
        <ele>1495.608</ele>
        <time>2018-11-24T10:57:29Z</time>
      </trkpt>
      <trkpt lat="42.518126" lon="0.848120">
        <ele>1496.454</ele>
        <time>2018-11-24T10:57:30Z</time>
      </trkpt>
      <trkpt lat="42.518047" lon="0.848148">
        <ele>1497.041</ele>
        <time>2018-11-24T10:57:31Z</time>
      </trkpt>
      <trkpt lat="42.517978" lon="0.848179">
        <ele>1497.768</ele>
        <time>2018-11-24T10:57:32Z</time>
      </trkpt>
      <trkpt lat="42.517901" lon="0.848207">
        <ele>1498.578</ele>
        <time>2018-11-24T10:57:33Z</time>
      </trkpt>
      <trkpt lat="42.517818" lon="0.848229">
        <ele>1499.189</ele>
        <time>2018-11-24T10:57:34Z</time>
      </trkpt>
      <trkpt lat="42.517733" lon="0.848247">
        <ele>1500.068</ele>
        <time>2018-11-24T10:57:35Z</time>
      </trkpt>
      <trkpt lat="42.517638" lon="0.848250">
        <ele>1500.788</ele>
        <time>2018-11-24T10:57:36Z</time>
      </trkpt>
      <trkpt lat="42.517537" lon="0.848254">
        <ele>1501.553</ele>
        <time>2018-11-24T10:57:37Z</time>
      </trkpt>
      <trkpt lat="42.517431" lon="0.848260">
        <ele>1502.162</ele>
        <time>2018-11-24T10:57:38Z</time>
      </trkpt>
      <trkpt lat="42.517332" lon="0.848281">
        <ele>1502.583</ele>
        <time>2018-11-24T10:57:39Z</time>
      </trkpt>
      <trkpt lat="42.517241" lon="0.848328">
        <ele>1502.811</ele>
        <time>2018-11-24T10:57:40Z</time>
      </trkpt>
      <trkpt lat="42.517154" lon="0.848397">
        <ele>1503.508</ele>
        <time>2018-11-24T10:57:41Z</time>
      </trkpt>
      <trkpt lat="42.517089" lon="0.848519">
        <ele>1504.159</ele>
        <time>2018-11-24T10:57:42Z</time>
      </trkpt>
      <trkpt lat="42.517030" lon="0.848654">
        <ele>1505.226</ele>
        <time>2018-11-24T10:57:43Z</time>
      </trkpt>
      <trkpt lat="42.516968" lon="0.848800">
        <ele>1506.393</ele>
        <time>2018-11-24T10:57:44Z</time>
      </trkpt>
      <trkpt lat="42.516900" lon="0.848955">
        <ele>1507.473</ele>
        <time>2018-11-24T10:57:45Z</time>
      </trkpt>
      <trkpt lat="42.516833" lon="0.849102">
        <ele>1508.074</ele>
        <time>2018-11-24T10:57:46Z</time>
      </trkpt>
      <trkpt lat="42.516765" lon="0.849246">
        <ele>1508.753</ele>
        <time>2018-11-24T10:57:47Z</time>
      </trkpt>
      <trkpt lat="42.516690" lon="0.849378">
        <ele>1509.563</ele>
        <time>2018-11-24T10:57:48Z</time>
      </trkpt>
      <trkpt lat="42.516601" lon="0.849492">
        <ele>1510.348</ele>
        <time>2018-11-24T10:57:49Z</time>
      </trkpt>
      <trkpt lat="42.516518" lon="0.849614">
        <ele>1511.473</ele>
        <time>2018-11-24T10:57:50Z</time>
      </trkpt>
      <trkpt lat="42.516436" lon="0.849730">
        <ele>1512.485</ele>
        <time>2018-11-24T10:57:51Z</time>
      </trkpt>
      <trkpt lat="42.516362" lon="0.849836">
        <ele>1513.013</ele>
        <time>2018-11-24T10:57:52Z</time>
      </trkpt>
      <trkpt lat="42.516291" lon="0.849949">
        <ele>1513.808</ele>
        <time>2018-11-24T10:57:53Z</time>
      </trkpt>
      <trkpt lat="42.516247" lon="0.850076">
        <ele>1514.690</ele>
        <time>2018-11-24T10:57:54Z</time>
      </trkpt>
      <trkpt lat="42.516225" lon="0.850208">
        <ele>1515.527</ele>
        <time>2018-11-24T10:57:55Z</time>
      </trkpt>
      <trkpt lat="42.516211" lon="0.850325">
        <ele>1516.454</ele>
        <time>2018-11-24T10:57:56Z</time>
      </trkpt>
      <trkpt lat="42.516259" lon="0.850450">
        <ele>1517.324</ele>
        <time>2018-11-24T10:57:57Z</time>
      </trkpt>
      <trkpt lat="42.516319" lon="0.850557">
        <ele>1518.155</ele>
        <time>2018-11-24T10:57:58Z</time>
      </trkpt>
      <trkpt lat="42.516415" lon="0.850622">
        <ele>1519.144</ele>
        <time>2018-11-24T10:57:59Z</time>
      </trkpt>
      <trkpt lat="42.516517" lon="0.850669">
        <ele>1520.324</ele>
        <time>2018-11-24T10:58:00Z</time>
      </trkpt>
      <trkpt lat="42.516633" lon="0.850717">
        <ele>1521.299</ele>
        <time>2018-11-24T10:58:01Z</time>
      </trkpt>
      <trkpt lat="42.516759" lon="0.850763">
        <ele>1522.223</ele>
        <time>2018-11-24T10:58:02Z</time>
      </trkpt>
      <trkpt lat="42.516893" lon="0.850822">
        <ele>1523.283</ele>
        <time>2018-11-24T10:58:03Z</time>
      </trkpt>
      <trkpt lat="42.517020" lon="0.850878">
        <ele>1524.411</ele>
        <time>2018-11-24T10:58:04Z</time>
      </trkpt>
      <trkpt lat="42.517144" lon="0.850925">
        <ele>1525.108</ele>
        <time>2018-11-24T10:58:05Z</time>
      </trkpt>
      <trkpt lat="42.517275" lon="0.850954">
        <ele>1525.975</ele>
        <time>2018-11-24T10:58:06Z</time>
      </trkpt>
      <trkpt lat="42.517399" lon="0.850964">
        <ele>1527.082</ele>
        <time>2018-11-24T10:58:07Z</time>
      </trkpt>
      <trkpt lat="42.517520" lon="0.850948">
        <ele>1528.139</ele>
        <time>2018-11-24T10:58:08Z</time>
      </trkpt>
      <trkpt lat="42.517646" lon="0.850912">
        <ele>1529.049</ele>
        <time>2018-11-24T10:58:09Z</time>
      </trkpt>
      <trkpt lat="42.517775" lon="0.850869">
        <ele>1530.250</ele>
        <time>2018-11-24T10:58:10Z</time>
      </trkpt>
      <trkpt lat="42.517905" lon="0.850824">
        <ele>1531.459</ele>
        <time>2018-11-24T10:58:11Z</time>
      </trkpt>
      <trkpt lat="42.518038" lon="0.850780">
        <ele>1532.889</ele>
        <time>2018-11-24T10:58:12Z</time>
      </trkpt>
      <trkpt lat="42.518175" lon="0.850728">
        <ele>1534.254</ele>
        <time>2018-11-24T10:58:13Z</time>
      </trkpt>
      <trkpt lat="42.518321" lon="0.850684">
        <ele>1535.898</ele>
        <time>2018-11-24T10:58:14Z</time>
      </trkpt>
      <trkpt lat="42.518477" lon="0.850645">
        <ele>1537.215</ele>
        <time>2018-11-24T10:58:15Z</time>
      </trkpt>
      <trkpt lat="42.518630" lon="0.850598">
        <ele>1538.726</ele>
        <time>2018-11-24T10:58:16Z</time>
      </trkpt>
      <trkpt lat="42.518774" lon="0.850548">
        <ele>1539.808</ele>
        <time>2018-11-24T10:58:17Z</time>
      </trkpt>
      <trkpt lat="42.518914" lon="0.850489">
        <ele>1541.222</ele>
        <time>2018-11-24T10:58:18Z</time>
      </trkpt>
      <trkpt lat="42.519049" lon="0.850406">
        <ele>1542.349</ele>
        <time>2018-11-24T10:58:19Z</time>
      </trkpt>
      <trkpt lat="42.519185" lon="0.850309">
        <ele>1543.636</ele>
        <time>2018-11-24T10:58:20Z</time>
      </trkpt>
      <trkpt lat="42.519319" lon="0.850182">
        <ele>1544.646</ele>
        <time>2018-11-24T10:58:21Z</time>
      </trkpt>
      <trkpt lat="42.519451" lon="0.850036">
        <ele>1546.047</ele>
        <time>2018-11-24T10:58:22Z</time>
      </trkpt>
      <trkpt lat="42.519582" lon="0.849875">
        <ele>1547.446</ele>
        <time>2018-11-24T10:58:23Z</time>
      </trkpt>
      <trkpt lat="42.519719" lon="0.849712">
        <ele>1549.326</ele>
        <time>2018-11-24T10:58:24Z</time>
      </trkpt>
      <trkpt lat="42.519852" lon="0.849548">
        <ele>1551.061</ele>
        <time>2018-11-24T10:58:25Z</time>
      </trkpt>
      <trkpt lat="42.519984" lon="0.849391">
        <ele>1552.521</ele>
        <time>2018-11-24T10:58:26Z</time>
      </trkpt>
      <trkpt lat="42.520112" lon="0.849225">
        <ele>1553.841</ele>
        <time>2018-11-24T10:58:27Z</time>
      </trkpt>
      <trkpt lat="42.520242" lon="0.849074">
        <ele>1555.305</ele>
        <time>2018-11-24T10:58:28Z</time>
      </trkpt>
      <trkpt lat="42.520366" lon="0.848926">
        <ele>1556.308</ele>
        <time>2018-11-24T10:58:29Z</time>
      </trkpt>
      <trkpt lat="42.520489" lon="0.848777">
        <ele>1557.345</ele>
        <time>2018-11-24T10:58:30Z</time>
      </trkpt>
      <trkpt lat="42.520612" lon="0.848629">
        <ele>1558.252</ele>
        <time>2018-11-24T10:58:31Z</time>
      </trkpt>
      <trkpt lat="42.520725" lon="0.848467">
        <ele>1559.239</ele>
        <time>2018-11-24T10:58:32Z</time>
      </trkpt>
      <trkpt lat="42.520831" lon="0.848307">
        <ele>1559.649</ele>
        <time>2018-11-24T10:58:33Z</time>
      </trkpt>
      <trkpt lat="42.520932" lon="0.848158">
        <ele>1560.090</ele>
        <time>2018-11-24T10:58:34Z</time>
      </trkpt>
      <trkpt lat="42.521027" lon="0.848013">
        <ele>1560.449</ele>
        <time>2018-11-24T10:58:35Z</time>
      </trkpt>
      <trkpt lat="42.521126" lon="0.847890">
        <ele>1560.949</ele>
        <time>2018-11-24T10:58:36Z</time>
      </trkpt>
      <trkpt lat="42.521214" lon="0.847768">
        <ele>1561.614</ele>
        <time>2018-11-24T10:58:37Z</time>
      </trkpt>
      <trkpt lat="42.521293" lon="0.847653">
        <ele>1562.349</ele>
        <time>2018-11-24T10:58:38Z</time>
      </trkpt>
      <trkpt lat="42.521361" lon="0.847548">
        <ele>1562.902</ele>
        <time>2018-11-24T10:58:39Z</time>
      </trkpt>
      <trkpt lat="42.521424" lon="0.847453">
        <ele>1563.722</ele>
        <time>2018-11-24T10:58:40Z</time>
      </trkpt>
      <trkpt lat="42.521482" lon="0.847373">
        <ele>1564.508</ele>
        <time>2018-11-24T10:58:41Z</time>
      </trkpt>
      <trkpt lat="42.521534" lon="0.847314">
        <ele>1565.167</ele>
        <time>2018-11-24T10:58:42Z</time>
      </trkpt>
      <trkpt lat="42.521575" lon="0.847264">
        <ele>1565.684</ele>
        <time>2018-11-24T10:58:43Z</time>
      </trkpt>
      <trkpt lat="42.521643" lon="0.847206">
        <ele>1566.611</ele>
        <time>2018-11-24T10:58:45Z</time>
      </trkpt>
      <trkpt lat="42.521689" lon="0.847198">
        <ele>1567.291</ele>
        <time>2018-11-24T10:58:46Z</time>
      </trkpt>
      <trkpt lat="42.521718" lon="0.847246">
        <ele>1567.772</ele>
        <time>2018-11-24T10:58:47Z</time>
      </trkpt>
      <trkpt lat="42.521741" lon="0.847308">
        <ele>1568.621</ele>
        <time>2018-11-24T10:58:48Z</time>
      </trkpt>
      <trkpt lat="42.521707" lon="0.847399">
        <ele>1569.391</ele>
        <time>2018-11-24T10:58:49Z</time>
      </trkpt>
      <trkpt lat="42.521672" lon="0.847481">
        <ele>1570.016</ele>
        <time>2018-11-24T10:58:50Z</time>
      </trkpt>
      <trkpt lat="42.521632" lon="0.847587">
        <ele>1571.294</ele>
        <time>2018-11-24T10:58:51Z</time>
      </trkpt>
      <trkpt lat="42.521582" lon="0.847719">
        <ele>1572.257</ele>
        <time>2018-11-24T10:58:52Z</time>
      </trkpt>
      <trkpt lat="42.521530" lon="0.847861">
        <ele>1573.722</ele>
        <time>2018-11-24T10:58:53Z</time>
      </trkpt>
      <trkpt lat="42.521468" lon="0.847999">
        <ele>1574.808</ele>
        <time>2018-11-24T10:58:54Z</time>
      </trkpt>
      <trkpt lat="42.521402" lon="0.848143">
        <ele>1576.412</ele>
        <time>2018-11-24T10:58:55Z</time>
      </trkpt>
      <trkpt lat="42.521333" lon="0.848303">
        <ele>1577.779</ele>
        <time>2018-11-24T10:58:56Z</time>
      </trkpt>
      <trkpt lat="42.521262" lon="0.848485">
        <ele>1579.766</ele>
        <time>2018-11-24T10:58:57Z</time>
      </trkpt>
      <trkpt lat="42.521188" lon="0.848687">
        <ele>1581.466</ele>
        <time>2018-11-24T10:58:58Z</time>
      </trkpt>
      <trkpt lat="42.521110" lon="0.848899">
        <ele>1583.647</ele>
        <time>2018-11-24T10:58:59Z</time>
      </trkpt>
      <trkpt lat="42.521030" lon="0.849100">
        <ele>1584.926</ele>
        <time>2018-11-24T10:59:00Z</time>
      </trkpt>
      <trkpt lat="42.520949" lon="0.849297">
        <ele>1586.676</ele>
        <time>2018-11-24T10:59:01Z</time>
      </trkpt>
      <trkpt lat="42.520865" lon="0.849492">
        <ele>1588.371</ele>
        <time>2018-11-24T10:59:02Z</time>
      </trkpt>
      <trkpt lat="42.520785" lon="0.849684">
        <ele>1590.017</ele>
        <time>2018-11-24T10:59:03Z</time>
      </trkpt>
      <trkpt lat="42.520714" lon="0.849888">
        <ele>1591.887</ele>
        <time>2018-11-24T10:59:04Z</time>
      </trkpt>
      <trkpt lat="42.520648" lon="0.850101">
        <ele>1593.415</ele>
        <time>2018-11-24T10:59:05Z</time>
      </trkpt>
      <trkpt lat="42.520597" lon="0.850332">
        <ele>1595.508</ele>
        <time>2018-11-24T10:59:06Z</time>
      </trkpt>
      <trkpt lat="42.520562" lon="0.850576">
        <ele>1597.594</ele>
        <time>2018-11-24T10:59:07Z</time>
      </trkpt>
      <trkpt lat="42.520529" lon="0.850823">
        <ele>1599.811</ele>
        <time>2018-11-24T10:59:08Z</time>
      </trkpt>
      <trkpt lat="42.520494" lon="0.851076">
        <ele>1601.518</ele>
        <time>2018-11-24T10:59:09Z</time>
      </trkpt>
      <trkpt lat="42.520453" lon="0.851321">
        <ele>1603.718</ele>
        <time>2018-11-24T10:59:10Z</time>
      </trkpt>
      <trkpt lat="42.520396" lon="0.851551">
        <ele>1605.279</ele>
        <time>2018-11-24T10:59:11Z</time>
      </trkpt>
      <trkpt lat="42.520329" lon="0.851765">
        <ele>1606.718</ele>
        <time>2018-11-24T10:59:12Z</time>
      </trkpt>
      <trkpt lat="42.520231" lon="0.851937">
        <ele>1607.868</ele>
        <time>2018-11-24T10:59:13Z</time>
      </trkpt>
      <trkpt lat="42.520135" lon="0.852087">
        <ele>1609.223</ele>
        <time>2018-11-24T10:59:14Z</time>
      </trkpt>
      <trkpt lat="42.520055" lon="0.852232">
        <ele>1610.382</ele>
        <time>2018-11-24T10:59:15Z</time>
      </trkpt>
      <trkpt lat="42.519988" lon="0.852386">
        <ele>1611.743</ele>
        <time>2018-11-24T10:59:16Z</time>
      </trkpt>
      <trkpt lat="42.519964" lon="0.852577">
        <ele>1613.017</ele>
        <time>2018-11-24T10:59:17Z</time>
      </trkpt>
      <trkpt lat="42.519947" lon="0.852768">
        <ele>1614.908</ele>
        <time>2018-11-24T10:59:18Z</time>
      </trkpt>
      <trkpt lat="42.519925" lon="0.852963">
        <ele>1616.421</ele>
        <time>2018-11-24T10:59:19Z</time>
      </trkpt>
      <trkpt lat="42.519895" lon="0.853166">
        <ele>1618.088</ele>
        <time>2018-11-24T10:59:20Z</time>
      </trkpt>
      <trkpt lat="42.519876" lon="0.853373">
        <ele>1619.415</ele>
        <time>2018-11-24T10:59:21Z</time>
      </trkpt>
      <trkpt lat="42.519862" lon="0.853588">
        <ele>1621.325</ele>
        <time>2018-11-24T10:59:22Z</time>
      </trkpt>
      <trkpt lat="42.519856" lon="0.853787">
        <ele>1622.516</ele>
        <time>2018-11-24T10:59:23Z</time>
      </trkpt>
      <trkpt lat="42.519846" lon="0.853970">
        <ele>1623.515</ele>
        <time>2018-11-24T10:59:24Z</time>
      </trkpt>
      <trkpt lat="42.519823" lon="0.854134">
        <ele>1624.445</ele>
        <time>2018-11-24T10:59:25Z</time>
      </trkpt>
      <trkpt lat="42.519769" lon="0.854281">
        <ele>1625.380</ele>
        <time>2018-11-24T10:59:26Z</time>
      </trkpt>
      <trkpt lat="42.519691" lon="0.854411">
        <ele>1626.835</ele>
        <time>2018-11-24T10:59:27Z</time>
      </trkpt>
      <trkpt lat="42.519582" lon="0.854529">
        <ele>1628.386</ele>
        <time>2018-11-24T10:59:28Z</time>
      </trkpt>
      <trkpt lat="42.519455" lon="0.854638">
        <ele>1629.814</ele>
        <time>2018-11-24T10:59:29Z</time>
      </trkpt>
      <trkpt lat="42.519329" lon="0.854735">
        <ele>1631.108</ele>
        <time>2018-11-24T10:59:30Z</time>
      </trkpt>
      <trkpt lat="42.519211" lon="0.854834">
        <ele>1632.226</ele>
        <time>2018-11-24T10:59:31Z</time>
      </trkpt>
      <trkpt lat="42.519099" lon="0.854942">
        <ele>1633.633</ele>
        <time>2018-11-24T10:59:32Z</time>
      </trkpt>
      <trkpt lat="42.518976" lon="0.855047">
        <ele>1635.360</ele>
        <time>2018-11-24T10:59:33Z</time>
      </trkpt>
      <trkpt lat="42.518836" lon="0.855133">
        <ele>1636.610</ele>
        <time>2018-11-24T10:59:34Z</time>
      </trkpt>
      <trkpt lat="42.518693" lon="0.855215">
        <ele>1638.081</ele>
        <time>2018-11-24T10:59:35Z</time>
      </trkpt>
      <trkpt lat="42.518556" lon="0.855263">
        <ele>1639.060</ele>
        <time>2018-11-24T10:59:36Z</time>
      </trkpt>
      <trkpt lat="42.518418" lon="0.855276">
        <ele>1640.140</ele>
        <time>2018-11-24T10:59:37Z</time>
      </trkpt>
      <trkpt lat="42.518274" lon="0.855272">
        <ele>1641.025</ele>
        <time>2018-11-24T10:59:38Z</time>
      </trkpt>
      <trkpt lat="42.518129" lon="0.855267">
        <ele>1641.734</ele>
        <time>2018-11-24T10:59:39Z</time>
      </trkpt>
      <trkpt lat="42.517989" lon="0.855264">
        <ele>1642.155</ele>
        <time>2018-11-24T10:59:40Z</time>
      </trkpt>
      <trkpt lat="42.517848" lon="0.855324">
        <ele>1642.710</ele>
        <time>2018-11-24T10:59:41Z</time>
      </trkpt>
      <trkpt lat="42.517716" lon="0.855415">
        <ele>1643.508</ele>
        <time>2018-11-24T10:59:42Z</time>
      </trkpt>
      <trkpt lat="42.517577" lon="0.855522">
        <ele>1644.546</ele>
        <time>2018-11-24T10:59:43Z</time>
      </trkpt>
      <trkpt lat="42.517433" lon="0.855642">
        <ele>1645.553</ele>
        <time>2018-11-24T10:59:44Z</time>
      </trkpt>
      <trkpt lat="42.517272" lon="0.855747">
        <ele>1646.650</ele>
        <time>2018-11-24T10:59:45Z</time>
      </trkpt>
      <trkpt lat="42.517108" lon="0.855872">
        <ele>1647.740</ele>
        <time>2018-11-24T10:59:46Z</time>
      </trkpt>
      <trkpt lat="42.516950" lon="0.856013">
        <ele>1648.641</ele>
        <time>2018-11-24T10:59:47Z</time>
      </trkpt>
      <trkpt lat="42.516803" lon="0.856152">
        <ele>1649.450</ele>
        <time>2018-11-24T10:59:48Z</time>
      </trkpt>
      <trkpt lat="42.516660" lon="0.856302">
        <ele>1650.330</ele>
        <time>2018-11-24T10:59:49Z</time>
      </trkpt>
      <trkpt lat="42.516523" lon="0.856449">
        <ele>1650.815</ele>
        <time>2018-11-24T10:59:50Z</time>
      </trkpt>
      <trkpt lat="42.516389" lon="0.856597">
        <ele>1651.126</ele>
        <time>2018-11-24T10:59:51Z</time>
      </trkpt>
      <trkpt lat="42.516258" lon="0.856743">
        <ele>1651.147</ele>
        <time>2018-11-24T10:59:52Z</time>
      </trkpt>
      <trkpt lat="42.516129" lon="0.856889">
        <ele>1651.411</ele>
        <time>2018-11-24T10:59:53Z</time>
      </trkpt>
      <trkpt lat="42.515999" lon="0.857043">
        <ele>1651.608</ele>
        <time>2018-11-24T10:59:54Z</time>
      </trkpt>
      <trkpt lat="42.515866" lon="0.857207">
        <ele>1651.385</ele>
        <time>2018-11-24T10:59:55Z</time>
      </trkpt>
      <trkpt lat="42.515734" lon="0.857377">
        <ele>1651.142</ele>
        <time>2018-11-24T10:59:56Z</time>
      </trkpt>
      <trkpt lat="42.515605" lon="0.857546">
        <ele>1650.759</ele>
        <time>2018-11-24T10:59:57Z</time>
      </trkpt>
      <trkpt lat="42.515478" lon="0.857719">
        <ele>1650.459</ele>
        <time>2018-11-24T10:59:58Z</time>
      </trkpt>
      <trkpt lat="42.515359" lon="0.857904">
        <ele>1650.230</ele>
        <time>2018-11-24T10:59:59Z</time>
      </trkpt>
      <trkpt lat="42.515250" lon="0.858109">
        <ele>1650.239</ele>
        <time>2018-11-24T11:00:00Z</time>
      </trkpt>
      <trkpt lat="42.515152" lon="0.858316">
        <ele>1650.089</ele>
        <time>2018-11-24T11:00:01Z</time>
      </trkpt>
      <trkpt lat="42.515059" lon="0.858517">
        <ele>1649.714</ele>
        <time>2018-11-24T11:00:02Z</time>
      </trkpt>
      <trkpt lat="42.514959" lon="0.858705">
        <ele>1649.769</ele>
        <time>2018-11-24T11:00:03Z</time>
      </trkpt>
      <trkpt lat="42.514834" lon="0.858870">
        <ele>1650.004</ele>
        <time>2018-11-24T11:00:04Z</time>
      </trkpt>
      <trkpt lat="42.514684" lon="0.859014">
        <ele>1650.224</ele>
        <time>2018-11-24T11:00:05Z</time>
      </trkpt>
      <trkpt lat="42.514517" lon="0.859142">
        <ele>1650.808</ele>
        <time>2018-11-24T11:00:06Z</time>
      </trkpt>
      <trkpt lat="42.514348" lon="0.859278">
        <ele>1651.539</ele>
        <time>2018-11-24T11:00:07Z</time>
      </trkpt>
      <trkpt lat="42.514171" lon="0.859380">
        <ele>1652.576</ele>
        <time>2018-11-24T11:00:08Z</time>
      </trkpt>
      <trkpt lat="42.514000" lon="0.859502">
        <ele>1653.583</ele>
        <time>2018-11-24T11:00:09Z</time>
      </trkpt>
      <trkpt lat="42.513838" lon="0.859637">
        <ele>1654.873</ele>
        <time>2018-11-24T11:00:10Z</time>
      </trkpt>
      <trkpt lat="42.513675" lon="0.859771">
        <ele>1656.064</ele>
        <time>2018-11-24T11:00:11Z</time>
      </trkpt>
      <trkpt lat="42.513510" lon="0.859900">
        <ele>1657.253</ele>
        <time>2018-11-24T11:00:12Z</time>
      </trkpt>
      <trkpt lat="42.513353" lon="0.860036">
        <ele>1658.993</ele>
        <time>2018-11-24T11:00:13Z</time>
      </trkpt>
      <trkpt lat="42.513199" lon="0.860181">
        <ele>1660.278</ele>
        <time>2018-11-24T11:00:14Z</time>
      </trkpt>
      <trkpt lat="42.513054" lon="0.860346">
        <ele>1661.946</ele>
        <time>2018-11-24T11:00:15Z</time>
      </trkpt>
      <trkpt lat="42.512911" lon="0.860518">
        <ele>1663.188</ele>
        <time>2018-11-24T11:00:16Z</time>
      </trkpt>
      <trkpt lat="42.512767" lon="0.860693">
        <ele>1664.816</ele>
        <time>2018-11-24T11:00:17Z</time>
      </trkpt>
      <trkpt lat="42.512622" lon="0.860874">
        <ele>1666.308</ele>
        <time>2018-11-24T11:00:18Z</time>
      </trkpt>
      <trkpt lat="42.512478" lon="0.861057">
        <ele>1667.857</ele>
        <time>2018-11-24T11:00:19Z</time>
      </trkpt>
      <trkpt lat="42.512328" lon="0.861237">
        <ele>1669.154</ele>
        <time>2018-11-24T11:00:20Z</time>
      </trkpt>
      <trkpt lat="42.512179" lon="0.861412">
        <ele>1670.451</ele>
        <time>2018-11-24T11:00:21Z</time>
      </trkpt>
      <trkpt lat="42.512029" lon="0.861583">
        <ele>1671.491</ele>
        <time>2018-11-24T11:00:22Z</time>
      </trkpt>
      <trkpt lat="42.511880" lon="0.861751">
        <ele>1672.572</ele>
        <time>2018-11-24T11:00:23Z</time>
      </trkpt>
      <trkpt lat="42.511735" lon="0.861911">
        <ele>1673.361</ele>
        <time>2018-11-24T11:00:24Z</time>
      </trkpt>
      <trkpt lat="42.511597" lon="0.862066">
        <ele>1673.871</ele>
        <time>2018-11-24T11:00:25Z</time>
      </trkpt>
      <trkpt lat="42.511466" lon="0.862220">
        <ele>1674.156</ele>
        <time>2018-11-24T11:00:26Z</time>
      </trkpt>
      <trkpt lat="42.511346" lon="0.862391">
        <ele>1674.795</ele>
        <time>2018-11-24T11:00:27Z</time>
      </trkpt>
      <trkpt lat="42.511239" lon="0.862580">
        <ele>1675.349</ele>
        <time>2018-11-24T11:00:28Z</time>
      </trkpt>
      <trkpt lat="42.511146" lon="0.862784">
        <ele>1676.123</ele>
        <time>2018-11-24T11:00:29Z</time>
      </trkpt>
      <trkpt lat="42.511065" lon="0.863002">
        <ele>1677.008</ele>
        <time>2018-11-24T11:00:30Z</time>
      </trkpt>
      <trkpt lat="42.510986" lon="0.863224">
        <ele>1677.812</ele>
        <time>2018-11-24T11:00:31Z</time>
      </trkpt>
      <trkpt lat="42.510905" lon="0.863453">
        <ele>1678.449</ele>
        <time>2018-11-24T11:00:32Z</time>
      </trkpt>
      <trkpt lat="42.510817" lon="0.863685">
        <ele>1679.196</ele>
        <time>2018-11-24T11:00:33Z</time>
      </trkpt>
      <trkpt lat="42.510721" lon="0.863909">
        <ele>1679.556</ele>
        <time>2018-11-24T11:00:34Z</time>
      </trkpt>
      <trkpt lat="42.510619" lon="0.864126">
        <ele>1679.897</ele>
        <time>2018-11-24T11:00:35Z</time>
      </trkpt>
      <trkpt lat="42.510513" lon="0.864338">
        <ele>1680.786</ele>
        <time>2018-11-24T11:00:36Z</time>
      </trkpt>
      <trkpt lat="42.510411" lon="0.864548">
        <ele>1681.776</ele>
        <time>2018-11-24T11:00:37Z</time>
      </trkpt>
      <trkpt lat="42.510317" lon="0.864763">
        <ele>1682.811</ele>
        <time>2018-11-24T11:00:38Z</time>
      </trkpt>
      <trkpt lat="42.510232" lon="0.864982">
        <ele>1683.781</ele>
        <time>2018-11-24T11:00:39Z</time>
      </trkpt>
      <trkpt lat="42.510159" lon="0.865201">
        <ele>1684.561</ele>
        <time>2018-11-24T11:00:40Z</time>
      </trkpt>
      <trkpt lat="42.510102" lon="0.865424">
        <ele>1685.217</ele>
        <time>2018-11-24T11:00:41Z</time>
      </trkpt>
      <trkpt lat="42.510062" lon="0.865654">
        <ele>1686.208</ele>
        <time>2018-11-24T11:00:42Z</time>
      </trkpt>
      <trkpt lat="42.510042" lon="0.865887">
        <ele>1687.141</ele>
        <time>2018-11-24T11:00:43Z</time>
      </trkpt>
      <trkpt lat="42.510041" lon="0.866123">
        <ele>1688.538</ele>
        <time>2018-11-24T11:00:44Z</time>
      </trkpt>
      <trkpt lat="42.510057" lon="0.866359">
        <ele>1689.515</ele>
        <time>2018-11-24T11:00:45Z</time>
      </trkpt>
      <trkpt lat="42.510081" lon="0.866593">
        <ele>1690.895</ele>
        <time>2018-11-24T11:00:46Z</time>
      </trkpt>
      <trkpt lat="42.510125" lon="0.866814">
        <ele>1691.886</ele>
        <time>2018-11-24T11:00:47Z</time>
      </trkpt>
      <trkpt lat="42.510163" lon="0.867047">
        <ele>1692.995</ele>
        <time>2018-11-24T11:00:48Z</time>
      </trkpt>
      <trkpt lat="42.510197" lon="0.867286">
        <ele>1693.835</ele>
        <time>2018-11-24T11:00:49Z</time>
      </trkpt>
      <trkpt lat="42.510220" lon="0.867528">
        <ele>1694.850</ele>
        <time>2018-11-24T11:00:50Z</time>
      </trkpt>
      <trkpt lat="42.510222" lon="0.867777">
        <ele>1695.539</ele>
        <time>2018-11-24T11:00:51Z</time>
      </trkpt>
      <trkpt lat="42.510219" lon="0.868028">
        <ele>1696.301</ele>
        <time>2018-11-24T11:00:52Z</time>
      </trkpt>
      <trkpt lat="42.510212" lon="0.868282">
        <ele>1696.821</ele>
        <time>2018-11-24T11:00:53Z</time>
      </trkpt>
      <trkpt lat="42.510207" lon="0.868538">
        <ele>1697.208</ele>
        <time>2018-11-24T11:00:54Z</time>
      </trkpt>
      <trkpt lat="42.510195" lon="0.868787">
        <ele>1697.666</ele>
        <time>2018-11-24T11:00:55Z</time>
      </trkpt>
      <trkpt lat="42.510171" lon="0.869035">
        <ele>1698.393</ele>
        <time>2018-11-24T11:00:56Z</time>
      </trkpt>
      <trkpt lat="42.510127" lon="0.869278">
        <ele>1699.090</ele>
        <time>2018-11-24T11:00:57Z</time>
      </trkpt>
      <trkpt lat="42.510066" lon="0.869517">
        <ele>1699.730</ele>
        <time>2018-11-24T11:00:58Z</time>
      </trkpt>
      <trkpt lat="42.509995" lon="0.869753">
        <ele>1700.421</ele>
        <time>2018-11-24T11:00:59Z</time>
      </trkpt>
      <trkpt lat="42.509919" lon="0.869985">
        <ele>1701.440</ele>
        <time>2018-11-24T11:01:00Z</time>
      </trkpt>
      <trkpt lat="42.509845" lon="0.870213">
        <ele>1702.330</ele>
        <time>2018-11-24T11:01:01Z</time>
      </trkpt>
      <trkpt lat="42.509774" lon="0.870443">
        <ele>1703.545</ele>
        <time>2018-11-24T11:01:02Z</time>
      </trkpt>
      <trkpt lat="42.509715" lon="0.870675">
        <ele>1704.673</ele>
        <time>2018-11-24T11:01:03Z</time>
      </trkpt>
      <trkpt lat="42.509669" lon="0.870913">
        <ele>1706.285</ele>
        <time>2018-11-24T11:01:04Z</time>
      </trkpt>
      <trkpt lat="42.509631" lon="0.871156">
        <ele>1707.413</ele>
        <time>2018-11-24T11:01:05Z</time>
      </trkpt>
      <trkpt lat="42.509601" lon="0.871403">
        <ele>1708.808</ele>
        <time>2018-11-24T11:01:06Z</time>
      </trkpt>
      <trkpt lat="42.509577" lon="0.871653">
        <ele>1709.880</ele>
        <time>2018-11-24T11:01:07Z</time>
      </trkpt>
      <trkpt lat="42.509555" lon="0.871905">
        <ele>1711.397</ele>
        <time>2018-11-24T11:01:08Z</time>
      </trkpt>
      <trkpt lat="42.509535" lon="0.872160">
        <ele>1712.424</ele>
        <time>2018-11-24T11:01:09Z</time>
      </trkpt>
      <trkpt lat="42.509515" lon="0.872418">
        <ele>1713.424</ele>
        <time>2018-11-24T11:01:10Z</time>
      </trkpt>
      <trkpt lat="42.509493" lon="0.872677">
        <ele>1714.845</ele>
        <time>2018-11-24T11:01:11Z</time>
      </trkpt>
      <trkpt lat="42.509467" lon="0.872936">
        <ele>1716.214</ele>
        <time>2018-11-24T11:01:12Z</time>
      </trkpt>
      <trkpt lat="42.509437" lon="0.873192">
        <ele>1717.284</ele>
        <time>2018-11-24T11:01:13Z</time>
      </trkpt>
      <trkpt lat="42.509407" lon="0.873443">
        <ele>1718.119</ele>
        <time>2018-11-24T11:01:14Z</time>
      </trkpt>
      <trkpt lat="42.509376" lon="0.873694">
        <ele>1718.452</ele>
        <time>2018-11-24T11:01:15Z</time>
      </trkpt>
      <trkpt lat="42.509345" lon="0.873949">
        <ele>1718.653</ele>
        <time>2018-11-24T11:01:16Z</time>
      </trkpt>
      <trkpt lat="42.509318" lon="0.874206">
        <ele>1718.708</ele>
        <time>2018-11-24T11:01:17Z</time>
      </trkpt>
      <trkpt lat="42.509297" lon="0.874462">
        <ele>1718.608</ele>
        <time>2018-11-24T11:01:18Z</time>
      </trkpt>
      <trkpt lat="42.509280" lon="0.874713">
        <ele>1718.698</ele>
        <time>2018-11-24T11:01:19Z</time>
      </trkpt>
      <trkpt lat="42.509263" lon="0.874957">
        <ele>1718.785</ele>
        <time>2018-11-24T11:01:20Z</time>
      </trkpt>
      <trkpt lat="42.509232" lon="0.875192">
        <ele>1718.722</ele>
        <time>2018-11-24T11:01:21Z</time>
      </trkpt>
      <trkpt lat="42.509184" lon="0.875417">
        <ele>1718.682</ele>
        <time>2018-11-24T11:01:22Z</time>
      </trkpt>
      <trkpt lat="42.509134" lon="0.875620">
        <ele>1718.133</ele>
        <time>2018-11-24T11:01:23Z</time>
      </trkpt>
      <trkpt lat="42.509086" lon="0.875798">
        <ele>1717.492</ele>
        <time>2018-11-24T11:01:24Z</time>
      </trkpt>
      <trkpt lat="42.509041" lon="0.875953">
        <ele>1716.992</ele>
        <time>2018-11-24T11:01:25Z</time>
      </trkpt>
      <trkpt lat="42.509003" lon="0.876084">
        <ele>1716.457</ele>
        <time>2018-11-24T11:01:26Z</time>
      </trkpt>
      <trkpt lat="42.508949" lon="0.876174">
        <ele>1716.471</ele>
        <time>2018-11-24T11:01:27Z</time>
      </trkpt>
      <trkpt lat="42.508873" lon="0.876235">
        <ele>1716.641</ele>
        <time>2018-11-24T11:01:28Z</time>
      </trkpt>
      <trkpt lat="42.508789" lon="0.876282">
        <ele>1716.915</ele>
        <time>2018-11-24T11:01:29Z</time>
      </trkpt>
      <trkpt lat="42.508699" lon="0.876319">
        <ele>1717.508</ele>
        <time>2018-11-24T11:01:30Z</time>
      </trkpt>
      <trkpt lat="42.508608" lon="0.876316">
        <ele>1717.740</ele>
        <time>2018-11-24T11:01:31Z</time>
      </trkpt>
      <trkpt lat="42.508519" lon="0.876304">
        <ele>1717.897</ele>
        <time>2018-11-24T11:01:32Z</time>
      </trkpt>
      <trkpt lat="42.508458" lon="0.876214">
        <ele>1718.084</ele>
        <time>2018-11-24T11:01:33Z</time>
      </trkpt>
      <trkpt lat="42.508449" lon="0.876086">
        <ele>1718.494</ele>
        <time>2018-11-24T11:01:34Z</time>
      </trkpt>
      <trkpt lat="42.508447" lon="0.875960">
        <ele>1718.925</ele>
        <time>2018-11-24T11:01:35Z</time>
      </trkpt>
      <trkpt lat="42.508451" lon="0.875815">
        <ele>1719.614</ele>
        <time>2018-11-24T11:01:36Z</time>
      </trkpt>
      <trkpt lat="42.508447" lon="0.875665">
        <ele>1720.324</ele>
        <time>2018-11-24T11:01:37Z</time>
      </trkpt>
      <trkpt lat="42.508436" lon="0.875509">
        <ele>1721.289</ele>
        <time>2018-11-24T11:01:38Z</time>
      </trkpt>
      <trkpt lat="42.508421" lon="0.875352">
        <ele>1722.033</ele>
        <time>2018-11-24T11:01:39Z</time>
      </trkpt>
      <trkpt lat="42.508408" lon="0.875189">
        <ele>1723.123</ele>
        <time>2018-11-24T11:01:40Z</time>
      </trkpt>
      <trkpt lat="42.508385" lon="0.875028">
        <ele>1723.915</ele>
        <time>2018-11-24T11:01:41Z</time>
      </trkpt>
      <trkpt lat="42.508357" lon="0.874869">
        <ele>1725.008</ele>
        <time>2018-11-24T11:01:42Z</time>
      </trkpt>
      <trkpt lat="42.508322" lon="0.874714">
        <ele>1725.946</ele>
        <time>2018-11-24T11:01:43Z</time>
      </trkpt>
      <trkpt lat="42.508280" lon="0.874569">
        <ele>1726.993</ele>
        <time>2018-11-24T11:01:44Z</time>
      </trkpt>
      <trkpt lat="42.508226" lon="0.874423">
        <ele>1727.760</ele>
        <time>2018-11-24T11:01:45Z</time>
      </trkpt>
      <trkpt lat="42.508164" lon="0.874279">
        <ele>1728.750</ele>
        <time>2018-11-24T11:01:46Z</time>
      </trkpt>
      <trkpt lat="42.508105" lon="0.874135">
        <ele>1729.761</ele>
        <time>2018-11-24T11:01:47Z</time>
      </trkpt>
      <trkpt lat="42.508019" lon="0.874001">
        <ele>1730.660</ele>
        <time>2018-11-24T11:01:48Z</time>
      </trkpt>
      <trkpt lat="42.507926" lon="0.873872">
        <ele>1731.730</ele>
        <time>2018-11-24T11:01:49Z</time>
      </trkpt>
      <trkpt lat="42.507828" lon="0.873753">
        <ele>1732.625</ele>
        <time>2018-11-24T11:01:50Z</time>
      </trkpt>
      <trkpt lat="42.507740" lon="0.873639">
        <ele>1733.498</ele>
        <time>2018-11-24T11:01:51Z</time>
      </trkpt>
      <trkpt lat="42.507657" lon="0.873531">
        <ele>1734.115</ele>
        <time>2018-11-24T11:01:52Z</time>
      </trkpt>
      <trkpt lat="42.507572" lon="0.873417">
        <ele>1735.026</ele>
        <time>2018-11-24T11:01:53Z</time>
      </trkpt>
      <trkpt lat="42.507494" lon="0.873300">
        <ele>1735.808</ele>
        <time>2018-11-24T11:01:54Z</time>
      </trkpt>
      <trkpt lat="42.507422" lon="0.873172">
        <ele>1736.592</ele>
        <time>2018-11-24T11:01:55Z</time>
      </trkpt>
      <trkpt lat="42.507353" lon="0.873037">
        <ele>1737.489</ele>
        <time>2018-11-24T11:01:56Z</time>
      </trkpt>
      <trkpt lat="42.507294" lon="0.872892">
        <ele>1738.056</ele>
        <time>2018-11-24T11:01:57Z</time>
      </trkpt>
      <trkpt lat="42.507240" lon="0.872740">
        <ele>1739.166</ele>
        <time>2018-11-24T11:01:58Z</time>
      </trkpt>
      <trkpt lat="42.507195" lon="0.872574">
        <ele>1740.347</ele>
        <time>2018-11-24T11:01:59Z</time>
      </trkpt>
      <trkpt lat="42.507157" lon="0.872392">
        <ele>1741.696</ele>
        <time>2018-11-24T11:02:00Z</time>
      </trkpt>
      <trkpt lat="42.507123" lon="0.872211">
        <ele>1742.656</ele>
        <time>2018-11-24T11:02:01Z</time>
      </trkpt>
      <trkpt lat="42.507091" lon="0.872014">
        <ele>1743.671</ele>
        <time>2018-11-24T11:02:02Z</time>
      </trkpt>
      <trkpt lat="42.507062" lon="0.871811">
        <ele>1744.762</ele>
        <time>2018-11-24T11:02:03Z</time>
      </trkpt>
      <trkpt lat="42.507035" lon="0.871620">
        <ele>1745.583</ele>
        <time>2018-11-24T11:02:04Z</time>
      </trkpt>
      <trkpt lat="42.507010" lon="0.871435">
        <ele>1746.411</ele>
        <time>2018-11-24T11:02:05Z</time>
      </trkpt>
      <trkpt lat="42.506983" lon="0.871256">
        <ele>1747.308</ele>
        <time>2018-11-24T11:02:06Z</time>
      </trkpt>
      <trkpt lat="42.506950" lon="0.871079">
        <ele>1748.439</ele>
        <time>2018-11-24T11:02:07Z</time>
      </trkpt>
      <trkpt lat="42.506911" lon="0.870901">
        <ele>1749.336</ele>
        <time>2018-11-24T11:02:08Z</time>
      </trkpt>
      <trkpt lat="42.506867" lon="0.870723">
        <ele>1750.463</ele>
        <time>2018-11-24T11:02:09Z</time>
      </trkpt>
      <trkpt lat="42.506822" lon="0.870545">
        <ele>1751.413</ele>
        <time>2018-11-24T11:02:10Z</time>
      </trkpt>
      <trkpt lat="42.506776" lon="0.870372">
        <ele>1752.694</ele>
        <time>2018-11-24T11:02:11Z</time>
      </trkpt>
      <trkpt lat="42.506731" lon="0.870204">
        <ele>1753.383</ele>
        <time>2018-11-24T11:02:12Z</time>
      </trkpt>
      <trkpt lat="42.506688" lon="0.870036">
        <ele>1754.573</ele>
        <time>2018-11-24T11:02:13Z</time>
      </trkpt>
      <trkpt lat="42.506646" lon="0.869868">
        <ele>1755.368</ele>
        <time>2018-11-24T11:02:14Z</time>
      </trkpt>
      <trkpt lat="42.506605" lon="0.869702">
        <ele>1756.321</ele>
        <time>2018-11-24T11:02:15Z</time>
      </trkpt>
      <trkpt lat="42.506565" lon="0.869542">
        <ele>1757.341</ele>
        <time>2018-11-24T11:02:16Z</time>
      </trkpt>
      <trkpt lat="42.506528" lon="0.869385">
        <ele>1758.205</ele>
        <time>2018-11-24T11:02:17Z</time>
      </trkpt>
      <trkpt lat="42.506490" lon="0.869224">
        <ele>1759.208</ele>
        <time>2018-11-24T11:02:18Z</time>
      </trkpt>
      <trkpt lat="42.506456" lon="0.869064">
        <ele>1760.425</ele>
        <time>2018-11-24T11:02:19Z</time>
      </trkpt>
      <trkpt lat="42.506410" lon="0.868901">
        <ele>1761.622</ele>
        <time>2018-11-24T11:02:20Z</time>
      </trkpt>
      <trkpt lat="42.506352" lon="0.868739">
        <ele>1762.779</ele>
        <time>2018-11-24T11:02:21Z</time>
      </trkpt>
      <trkpt lat="42.506279" lon="0.868582">
        <ele>1763.949</ele>
        <time>2018-11-24T11:02:22Z</time>
      </trkpt>
      <trkpt lat="42.506207" lon="0.868423">
        <ele>1765.210</ele>
        <time>2018-11-24T11:02:23Z</time>
      </trkpt>
      <trkpt lat="42.506135" lon="0.868261">
        <ele>1766.649</ele>
        <time>2018-11-24T11:02:24Z</time>
      </trkpt>
      <trkpt lat="42.506064" lon="0.868103">
        <ele>1767.689</ele>
        <time>2018-11-24T11:02:25Z</time>
      </trkpt>
      <trkpt lat="42.505992" lon="0.867948">
        <ele>1768.774</ele>
        <time>2018-11-24T11:02:26Z</time>
      </trkpt>
      <trkpt lat="42.505922" lon="0.867797">
        <ele>1769.738</ele>
        <time>2018-11-24T11:02:27Z</time>
      </trkpt>
      <trkpt lat="42.505859" lon="0.867650">
        <ele>1770.670</ele>
        <time>2018-11-24T11:02:28Z</time>
      </trkpt>
      <trkpt lat="42.505797" lon="0.867505">
        <ele>1771.717</ele>
        <time>2018-11-24T11:02:29Z</time>
      </trkpt>
      <trkpt lat="42.505733" lon="0.867356">
        <ele>1772.908</ele>
        <time>2018-11-24T11:02:30Z</time>
      </trkpt>
      <trkpt lat="42.505668" lon="0.867208">
        <ele>1773.966</ele>
        <time>2018-11-24T11:02:31Z</time>
      </trkpt>
      <trkpt lat="42.505603" lon="0.867078">
        <ele>1774.883</ele>
        <time>2018-11-24T11:02:32Z</time>
      </trkpt>
      <trkpt lat="42.505546" lon="0.866968">
        <ele>1775.430</ele>
        <time>2018-11-24T11:02:33Z</time>
      </trkpt>
      <trkpt lat="42.505495" lon="0.866858">
        <ele>1776.440</ele>
        <time>2018-11-24T11:02:34Z</time>
      </trkpt>
      <trkpt lat="42.505440" lon="0.866751">
        <ele>1777.391</ele>
        <time>2018-11-24T11:02:35Z</time>
      </trkpt>
      <trkpt lat="42.505386" lon="0.866646">
        <ele>1778.170</ele>
        <time>2018-11-24T11:02:36Z</time>
      </trkpt>
      <trkpt lat="42.505329" lon="0.866543">
        <ele>1778.740</ele>
        <time>2018-11-24T11:02:37Z</time>
      </trkpt>
      <trkpt lat="42.505276" lon="0.866450">
        <ele>1779.155</ele>
        <time>2018-11-24T11:02:38Z</time>
      </trkpt>
      <trkpt lat="42.505221" lon="0.866365">
        <ele>1779.342</ele>
        <time>2018-11-24T11:02:39Z</time>
      </trkpt>
      <trkpt lat="42.505160" lon="0.866282">
        <ele>1779.522</ele>
        <time>2018-11-24T11:02:40Z</time>
      </trkpt>
      <trkpt lat="42.505096" lon="0.866203">
        <ele>1779.514</ele>
        <time>2018-11-24T11:02:41Z</time>
      </trkpt>
      <trkpt lat="42.505025" lon="0.866130">
        <ele>1779.508</ele>
        <time>2018-11-24T11:02:42Z</time>
      </trkpt>
      <trkpt lat="42.504942" lon="0.866057">
        <ele>1779.467</ele>
        <time>2018-11-24T11:02:43Z</time>
      </trkpt>
      <trkpt lat="42.504849" lon="0.865982">
        <ele>1779.254</ele>
        <time>2018-11-24T11:02:44Z</time>
      </trkpt>
      <trkpt lat="42.504750" lon="0.865913">
        <ele>1778.771</ele>
        <time>2018-11-24T11:02:45Z</time>
      </trkpt>
      <trkpt lat="42.504651" lon="0.865851">
        <ele>1778.051</ele>
        <time>2018-11-24T11:02:46Z</time>
      </trkpt>
      <trkpt lat="42.504557" lon="0.865795">
        <ele>1777.552</ele>
        <time>2018-11-24T11:02:47Z</time>
      </trkpt>
      <trkpt lat="42.504464" lon="0.865745">
        <ele>1776.721</ele>
        <time>2018-11-24T11:02:48Z</time>
      </trkpt>
      <trkpt lat="42.504371" lon="0.865705">
        <ele>1776.411</ele>
        <time>2018-11-24T11:02:49Z</time>
      </trkpt>
      <trkpt lat="42.504279" lon="0.865674">
        <ele>1776.056</ele>
        <time>2018-11-24T11:02:50Z</time>
      </trkpt>
      <trkpt lat="42.504192" lon="0.865659">
        <ele>1775.426</ele>
        <time>2018-11-24T11:02:51Z</time>
      </trkpt>
      <trkpt lat="42.504109" lon="0.865665">
        <ele>1775.047</ele>
        <time>2018-11-24T11:02:52Z</time>
      </trkpt>
      <trkpt lat="42.504018" lon="0.865670">
        <ele>1774.611</ele>
        <time>2018-11-24T11:02:53Z</time>
      </trkpt>
      <trkpt lat="42.503922" lon="0.865714">
        <ele>1774.308</ele>
        <time>2018-11-24T11:02:54Z</time>
      </trkpt>
      <trkpt lat="42.503843" lon="0.865807">
        <ele>1774.185</ele>
        <time>2018-11-24T11:02:55Z</time>
      </trkpt>
      <trkpt lat="42.503759" lon="0.865899">
        <ele>1773.922</ele>
        <time>2018-11-24T11:02:56Z</time>
      </trkpt>
      <trkpt lat="42.503704" lon="0.866047">
        <ele>1773.449</ele>
        <time>2018-11-24T11:02:57Z</time>
      </trkpt>
      <trkpt lat="42.503644" lon="0.866154">
        <ele>1772.759</ele>
        <time>2018-11-24T11:02:58Z</time>
      </trkpt>
      <trkpt lat="42.503584" lon="0.866242">
        <ele>1772.250</ele>
        <time>2018-11-24T11:02:59Z</time>
      </trkpt>
      <trkpt lat="42.503497" lon="0.866314">
        <ele>1771.819</ele>
        <time>2018-11-24T11:03:00Z</time>
      </trkpt>
      <trkpt lat="42.503402" lon="0.866353">
        <ele>1771.399</ele>
        <time>2018-11-24T11:03:01Z</time>
      </trkpt>
      <trkpt lat="42.503296" lon="0.866342">
        <ele>1770.934</ele>
        <time>2018-11-24T11:03:02Z</time>
      </trkpt>
      <trkpt lat="42.503180" lon="0.866293">
        <ele>1770.644</ele>
        <time>2018-11-24T11:03:03Z</time>
      </trkpt>
      <trkpt lat="42.503063" lon="0.866216">
        <ele>1770.305</ele>
        <time>2018-11-24T11:03:04Z</time>
      </trkpt>
      <trkpt lat="42.502944" lon="0.866129">
        <ele>1769.515</ele>
        <time>2018-11-24T11:03:05Z</time>
      </trkpt>
      <trkpt lat="42.502828" lon="0.866045">
        <ele>1769.008</ele>
        <time>2018-11-24T11:03:06Z</time>
      </trkpt>
      <trkpt lat="42.502707" lon="0.865967">
        <ele>1768.227</ele>
        <time>2018-11-24T11:03:07Z</time>
      </trkpt>
      <trkpt lat="42.502592" lon="0.865901">
        <ele>1767.624</ele>
        <time>2018-11-24T11:03:08Z</time>
      </trkpt>
      <trkpt lat="42.502475" lon="0.865836">
        <ele>1767.121</ele>
        <time>2018-11-24T11:03:09Z</time>
      </trkpt>
      <trkpt lat="42.502349" lon="0.865794">
        <ele>1766.531</ele>
        <time>2018-11-24T11:03:10Z</time>
      </trkpt>
      <trkpt lat="42.502221" lon="0.865753">
        <ele>1765.942</ele>
        <time>2018-11-24T11:03:11Z</time>
      </trkpt>
      <trkpt lat="42.502095" lon="0.865712">
        <ele>1765.391</ele>
        <time>2018-11-24T11:03:12Z</time>
      </trkpt>
      <trkpt lat="42.501980" lon="0.865674">
        <ele>1764.361</ele>
        <time>2018-11-24T11:03:13Z</time>
      </trkpt>
      <trkpt lat="42.501875" lon="0.865631">
        <ele>1763.626</ele>
        <time>2018-11-24T11:03:14Z</time>
      </trkpt>
      <trkpt lat="42.501768" lon="0.865580">
        <ele>1762.914</ele>
        <time>2018-11-24T11:03:15Z</time>
      </trkpt>
      <trkpt lat="42.501691" lon="0.865493">
        <ele>1762.454</ele>
        <time>2018-11-24T11:03:16Z</time>
      </trkpt>
      <trkpt lat="42.501634" lon="0.865382">
        <ele>1762.209</ele>
        <time>2018-11-24T11:03:17Z</time>
      </trkpt>
      <trkpt lat="42.501579" lon="0.865244">
        <ele>1762.008</ele>
        <time>2018-11-24T11:03:18Z</time>
      </trkpt>
      <trkpt lat="42.501556" lon="0.865067">
        <ele>1761.974</ele>
        <time>2018-11-24T11:03:19Z</time>
      </trkpt>
      <trkpt lat="42.501542" lon="0.864879">
        <ele>1761.811</ele>
        <time>2018-11-24T11:03:20Z</time>
      </trkpt>
      <trkpt lat="42.501518" lon="0.864691">
        <ele>1762.098</ele>
        <time>2018-11-24T11:03:21Z</time>
      </trkpt>
      <trkpt lat="42.501540" lon="0.864496">
        <ele>1762.718</ele>
        <time>2018-11-24T11:03:22Z</time>
      </trkpt>
      <trkpt lat="42.501578" lon="0.864297">
        <ele>1763.459</ele>
        <time>2018-11-24T11:03:23Z</time>
      </trkpt>
      <trkpt lat="42.501622" lon="0.864111">
        <ele>1764.398</ele>
        <time>2018-11-24T11:03:24Z</time>
      </trkpt>
      <trkpt lat="42.501706" lon="0.863937">
        <ele>1765.188</ele>
        <time>2018-11-24T11:03:25Z</time>
      </trkpt>
      <trkpt lat="42.501798" lon="0.863756">
        <ele>1766.053</ele>
        <time>2018-11-24T11:03:26Z</time>
      </trkpt>
      <trkpt lat="42.501887" lon="0.863573">
        <ele>1766.918</ele>
        <time>2018-11-24T11:03:27Z</time>
      </trkpt>
      <trkpt lat="42.501964" lon="0.863395">
        <ele>1767.798</ele>
        <time>2018-11-24T11:03:28Z</time>
      </trkpt>
      <trkpt lat="42.502043" lon="0.863216">
        <ele>1768.517</ele>
        <time>2018-11-24T11:03:29Z</time>
      </trkpt>
      <trkpt lat="42.502124" lon="0.863042">
        <ele>1769.208</ele>
        <time>2018-11-24T11:03:30Z</time>
      </trkpt>
      <trkpt lat="42.502202" lon="0.862871">
        <ele>1769.864</ele>
        <time>2018-11-24T11:03:31Z</time>
      </trkpt>
      <trkpt lat="42.502278" lon="0.862706">
        <ele>1770.331</ele>
        <time>2018-11-24T11:03:32Z</time>
      </trkpt>
      <trkpt lat="42.502339" lon="0.862543">
        <ele>1770.948</ele>
        <time>2018-11-24T11:03:33Z</time>
      </trkpt>
      <trkpt lat="42.502383" lon="0.862371">
        <ele>1771.628</ele>
        <time>2018-11-24T11:03:34Z</time>
      </trkpt>
      <trkpt lat="42.502415" lon="0.862187">
        <ele>1772.519</ele>
        <time>2018-11-24T11:03:35Z</time>
      </trkpt>
      <trkpt lat="42.502427" lon="0.861994">
        <ele>1773.278</ele>
        <time>2018-11-24T11:03:36Z</time>
      </trkpt>
      <trkpt lat="42.502426" lon="0.861800">
        <ele>1774.128</ele>
        <time>2018-11-24T11:03:37Z</time>
      </trkpt>
      <trkpt lat="42.502419" lon="0.861615">
        <ele>1774.833</ele>
        <time>2018-11-24T11:03:38Z</time>
      </trkpt>
      <trkpt lat="42.502416" lon="0.861444">
        <ele>1775.262</ele>
        <time>2018-11-24T11:03:39Z</time>
      </trkpt>
      <trkpt lat="42.502412" lon="0.861278">
        <ele>1775.683</ele>
        <time>2018-11-24T11:03:40Z</time>
      </trkpt>
      <trkpt lat="42.502428" lon="0.861113">
        <ele>1776.311</ele>
        <time>2018-11-24T11:03:41Z</time>
      </trkpt>
      <trkpt lat="42.502484" lon="0.860962">
        <ele>1777.108</ele>
        <time>2018-11-24T11:03:42Z</time>
      </trkpt>
      <trkpt lat="42.502559" lon="0.860821">
        <ele>1777.829</ele>
        <time>2018-11-24T11:03:43Z</time>
      </trkpt>
      <trkpt lat="42.502657" lon="0.860682">
        <ele>1778.456</ele>
        <time>2018-11-24T11:03:44Z</time>
      </trkpt>
      <trkpt lat="42.502768" lon="0.860555">
        <ele>1779.263</ele>
        <time>2018-11-24T11:03:45Z</time>
      </trkpt>
      <trkpt lat="42.502889" lon="0.860435">
        <ele>1780.153</ele>
        <time>2018-11-24T11:03:46Z</time>
      </trkpt>
      <trkpt lat="42.503004" lon="0.860318">
        <ele>1781.194</ele>
        <time>2018-11-24T11:03:47Z</time>
      </trkpt>
      <trkpt lat="42.503114" lon="0.860209">
        <ele>1781.553</ele>
        <time>2018-11-24T11:03:48Z</time>
      </trkpt>
      <trkpt lat="42.503213" lon="0.860100">
        <ele>1782.233</ele>
        <time>2018-11-24T11:03:49Z</time>
      </trkpt>
      <trkpt lat="42.503309" lon="0.859982">
        <ele>1782.968</ele>
        <time>2018-11-24T11:03:50Z</time>
      </trkpt>
      <trkpt lat="42.503394" lon="0.859859">
        <ele>1783.853</ele>
        <time>2018-11-24T11:03:51Z</time>
      </trkpt>
      <trkpt lat="42.503475" lon="0.859737">
        <ele>1784.304</ele>
        <time>2018-11-24T11:03:52Z</time>
      </trkpt>
      <trkpt lat="42.503540" lon="0.859594">
        <ele>1785.114</ele>
        <time>2018-11-24T11:03:53Z</time>
      </trkpt>
      <trkpt lat="42.503575" lon="0.859429">
        <ele>1785.708</ele>
        <time>2018-11-24T11:03:54Z</time>
      </trkpt>
      <trkpt lat="42.503602" lon="0.859243">
        <ele>1786.518</ele>
        <time>2018-11-24T11:03:55Z</time>
      </trkpt>
      <trkpt lat="42.503594" lon="0.859039">
        <ele>1787.345</ele>
        <time>2018-11-24T11:03:56Z</time>
      </trkpt>
      <trkpt lat="42.503570" lon="0.858854">
        <ele>1787.962</ele>
        <time>2018-11-24T11:03:57Z</time>
      </trkpt>
      <trkpt lat="42.503545" lon="0.858669">
        <ele>1788.452</ele>
        <time>2018-11-24T11:03:58Z</time>
      </trkpt>
      <trkpt lat="42.503504" lon="0.858495">
        <ele>1788.943</ele>
        <time>2018-11-24T11:03:59Z</time>
      </trkpt>
      <trkpt lat="42.503447" lon="0.858334">
        <ele>1789.142</ele>
        <time>2018-11-24T11:04:00Z</time>
      </trkpt>
      <trkpt lat="42.503383" lon="0.858175">
        <ele>1789.532</ele>
        <time>2018-11-24T11:04:01Z</time>
      </trkpt>
      <trkpt lat="42.503309" lon="0.858024">
        <ele>1789.667</ele>
        <time>2018-11-24T11:04:02Z</time>
      </trkpt>
      <trkpt lat="42.503228" lon="0.857890">
        <ele>1789.688</ele>
        <time>2018-11-24T11:04:03Z</time>
      </trkpt>
      <trkpt lat="42.503138" lon="0.857777">
        <ele>1789.724</ele>
        <time>2018-11-24T11:04:04Z</time>
      </trkpt>
      <trkpt lat="42.503043" lon="0.857685">
        <ele>1789.926</ele>
        <time>2018-11-24T11:04:05Z</time>
      </trkpt>
      <trkpt lat="42.502942" lon="0.857607">
        <ele>1790.008</ele>
        <time>2018-11-24T11:04:06Z</time>
      </trkpt>
      <trkpt lat="42.502835" lon="0.857546">
        <ele>1790.111</ele>
        <time>2018-11-24T11:04:07Z</time>
      </trkpt>
      <trkpt lat="42.502725" lon="0.857496">
        <ele>1790.358</ele>
        <time>2018-11-24T11:04:08Z</time>
      </trkpt>
      <trkpt lat="42.502612" lon="0.857455">
        <ele>1790.635</ele>
        <time>2018-11-24T11:04:09Z</time>
      </trkpt>
      <trkpt lat="42.502505" lon="0.857420">
        <ele>1790.645</ele>
        <time>2018-11-24T11:04:10Z</time>
      </trkpt>
      <trkpt lat="42.502397" lon="0.857407">
        <ele>1790.716</ele>
        <time>2018-11-24T11:04:11Z</time>
      </trkpt>
      <trkpt lat="42.502293" lon="0.857399">
        <ele>1790.975</ele>
        <time>2018-11-24T11:04:12Z</time>
      </trkpt>
      <trkpt lat="42.502196" lon="0.857411">
        <ele>1791.025</ele>
        <time>2018-11-24T11:04:13Z</time>
      </trkpt>
      <trkpt lat="42.502100" lon="0.857454">
        <ele>1791.290</ele>
        <time>2018-11-24T11:04:14Z</time>
      </trkpt>
      <trkpt lat="42.502005" lon="0.857503">
        <ele>1791.626</ele>
        <time>2018-11-24T11:04:15Z</time>
      </trkpt>
      <trkpt lat="42.501919" lon="0.857576">
        <ele>1792.147</ele>
        <time>2018-11-24T11:04:16Z</time>
      </trkpt>
      <trkpt lat="42.501844" lon="0.857671">
        <ele>1792.711</ele>
        <time>2018-11-24T11:04:17Z</time>
      </trkpt>
      <trkpt lat="42.501775" lon="0.857766">
        <ele>1793.508</ele>
        <time>2018-11-24T11:04:18Z</time>
      </trkpt>
      <trkpt lat="42.501735" lon="0.857890">
        <ele>1793.965</ele>
        <time>2018-11-24T11:04:19Z</time>
      </trkpt>
      <trkpt lat="42.501701" lon="0.858003">
        <ele>1794.472</ele>
        <time>2018-11-24T11:04:20Z</time>
      </trkpt>
      <trkpt lat="42.501672" lon="0.858106">
        <ele>1794.829</ele>
        <time>2018-11-24T11:04:21Z</time>
      </trkpt>
      <trkpt lat="42.501650" lon="0.858197">
        <ele>1795.329</ele>
        <time>2018-11-24T11:04:22Z</time>
      </trkpt>
      <trkpt lat="42.501639" lon="0.858293">
        <ele>1795.870</ele>
        <time>2018-11-24T11:04:23Z</time>
      </trkpt>
      <trkpt lat="42.501622" lon="0.858375">
        <ele>1796.229</ele>
        <time>2018-11-24T11:04:24Z</time>
      </trkpt>
      <trkpt lat="42.501609" lon="0.858455">
        <ele>1796.859</ele>
        <time>2018-11-24T11:04:25Z</time>
      </trkpt>
      <trkpt lat="42.501589" lon="0.858536">
        <ele>1797.394</ele>
        <time>2018-11-24T11:04:26Z</time>
      </trkpt>
      <trkpt lat="42.501568" lon="0.858615">
        <ele>1797.995</ele>
        <time>2018-11-24T11:04:27Z</time>
      </trkpt>
      <trkpt lat="42.501540" lon="0.858684">
        <ele>1798.249</ele>
        <time>2018-11-24T11:04:28Z</time>
      </trkpt>
      <trkpt lat="42.501518" lon="0.858763">
        <ele>1798.823</ele>
        <time>2018-11-24T11:04:29Z</time>
      </trkpt>
      <trkpt lat="42.501496" lon="0.858849">
        <ele>1799.308</ele>
        <time>2018-11-24T11:04:30Z</time>
      </trkpt>
      <trkpt lat="42.501468" lon="0.858930">
        <ele>1799.982</ele>
        <time>2018-11-24T11:04:31Z</time>
      </trkpt>
      <trkpt lat="42.501430" lon="0.859017">
        <ele>1800.549</ele>
        <time>2018-11-24T11:04:32Z</time>
      </trkpt>
      <trkpt lat="42.501381" lon="0.859108">
        <ele>1801.366</ele>
        <time>2018-11-24T11:04:33Z</time>
      </trkpt>
      <trkpt lat="42.501331" lon="0.859200">
        <ele>1801.946</ele>
        <time>2018-11-24T11:04:34Z</time>
      </trkpt>
      <trkpt lat="42.501281" lon="0.859292">
        <ele>1802.537</ele>
        <time>2018-11-24T11:04:35Z</time>
      </trkpt>
      <trkpt lat="42.501227" lon="0.859384">
        <ele>1803.196</ele>
        <time>2018-11-24T11:04:36Z</time>
      </trkpt>
      <trkpt lat="42.501176" lon="0.859465">
        <ele>1803.726</ele>
        <time>2018-11-24T11:04:37Z</time>
      </trkpt>
      <trkpt lat="42.501131" lon="0.859551">
        <ele>1804.321</ele>
        <time>2018-11-24T11:04:38Z</time>
      </trkpt>
      <trkpt lat="42.501088" lon="0.859646">
        <ele>1805.091</ele>
        <time>2018-11-24T11:04:39Z</time>
      </trkpt>
      <trkpt lat="42.501046" lon="0.859745">
        <ele>1805.581</ele>
        <time>2018-11-24T11:04:40Z</time>
      </trkpt>
      <trkpt lat="42.501004" lon="0.859848">
        <ele>1806.319</ele>
        <time>2018-11-24T11:04:41Z</time>
      </trkpt>
      <trkpt lat="42.500964" lon="0.859956">
        <ele>1806.908</ele>
        <time>2018-11-24T11:04:42Z</time>
      </trkpt>
      <trkpt lat="42.500927" lon="0.860070">
        <ele>1807.682</ele>
        <time>2018-11-24T11:04:43Z</time>
      </trkpt>
      <trkpt lat="42.500890" lon="0.860184">
        <ele>1808.559</ele>
        <time>2018-11-24T11:04:44Z</time>
      </trkpt>
      <trkpt lat="42.500854" lon="0.860301">
        <ele>1809.266</ele>
        <time>2018-11-24T11:04:45Z</time>
      </trkpt>
      <trkpt lat="42.500818" lon="0.860416">
        <ele>1809.776</ele>
        <time>2018-11-24T11:04:46Z</time>
      </trkpt>
      <trkpt lat="42.500784" lon="0.860529">
        <ele>1810.437</ele>
        <time>2018-11-24T11:04:47Z</time>
      </trkpt>
      <trkpt lat="42.500749" lon="0.860639">
        <ele>1811.266</ele>
        <time>2018-11-24T11:04:48Z</time>
      </trkpt>
      <trkpt lat="42.500714" lon="0.860747">
        <ele>1811.826</ele>
        <time>2018-11-24T11:04:49Z</time>
      </trkpt>
      <trkpt lat="42.500677" lon="0.860852">
        <ele>1812.481</ele>
        <time>2018-11-24T11:04:50Z</time>
      </trkpt>
      <trkpt lat="42.500639" lon="0.860944">
        <ele>1812.789</ele>
        <time>2018-11-24T11:04:51Z</time>
      </trkpt>
      <trkpt lat="42.500596" lon="0.861035">
        <ele>1813.406</ele>
        <time>2018-11-24T11:04:52Z</time>
      </trkpt>
      <trkpt lat="42.500542" lon="0.861129">
        <ele>1814.026</ele>
        <time>2018-11-24T11:04:53Z</time>
      </trkpt>
      <trkpt lat="42.500475" lon="0.861220">
        <ele>1814.908</ele>
        <time>2018-11-24T11:04:54Z</time>
      </trkpt>
      <trkpt lat="42.500400" lon="0.861301">
        <ele>1815.781</ele>
        <time>2018-11-24T11:04:55Z</time>
      </trkpt>
      <trkpt lat="42.500326" lon="0.861366">
        <ele>1816.328</ele>
        <time>2018-11-24T11:04:56Z</time>
      </trkpt>
      <trkpt lat="42.500243" lon="0.861414">
        <ele>1816.925</ele>
        <time>2018-11-24T11:04:57Z</time>
      </trkpt>
      <trkpt lat="42.500168" lon="0.861471">
        <ele>1817.715</ele>
        <time>2018-11-24T11:04:58Z</time>
      </trkpt>
      <trkpt lat="42.500084" lon="0.861529">
        <ele>1818.486</ele>
        <time>2018-11-24T11:04:59Z</time>
      </trkpt>
      <trkpt lat="42.499997" lon="0.861587">
        <ele>1819.285</ele>
        <time>2018-11-24T11:05:00Z</time>
      </trkpt>
      <trkpt lat="42.499913" lon="0.861651">
        <ele>1820.095</ele>
        <time>2018-11-24T11:05:01Z</time>
      </trkpt>
      <trkpt lat="42.499839" lon="0.861712">
        <ele>1820.520</ele>
        <time>2018-11-24T11:05:02Z</time>
      </trkpt>
      <trkpt lat="42.499768" lon="0.861769">
        <ele>1821.323</ele>
        <time>2018-11-24T11:05:03Z</time>
      </trkpt>
      <trkpt lat="42.499701" lon="0.861834">
        <ele>1821.983</ele>
        <time>2018-11-24T11:05:04Z</time>
      </trkpt>
      <trkpt lat="42.499632" lon="0.861901">
        <ele>1822.511</ele>
        <time>2018-11-24T11:05:05Z</time>
      </trkpt>
      <trkpt lat="42.499558" lon="0.861970">
        <ele>1823.308</ele>
        <time>2018-11-24T11:05:06Z</time>
      </trkpt>
      <trkpt lat="42.499479" lon="0.862039">
        <ele>1824.225</ele>
        <time>2018-11-24T11:05:07Z</time>
      </trkpt>
      <trkpt lat="42.499394" lon="0.862100">
        <ele>1824.892</ele>
        <time>2018-11-24T11:05:08Z</time>
      </trkpt>
      <trkpt lat="42.499305" lon="0.862165">
        <ele>1825.649</ele>
        <time>2018-11-24T11:05:09Z</time>
      </trkpt>
      <trkpt lat="42.499203" lon="0.862193">
        <ele>1826.459</ele>
        <time>2018-11-24T11:05:10Z</time>
      </trkpt>
      <trkpt lat="42.499106" lon="0.862217">
        <ele>1827.170</ele>
        <time>2018-11-24T11:05:11Z</time>
      </trkpt>
      <trkpt lat="42.499010" lon="0.862236">
        <ele>1827.829</ele>
        <time>2018-11-24T11:05:12Z</time>
      </trkpt>
      <trkpt lat="42.498914" lon="0.862265">
        <ele>1828.759</ele>
        <time>2018-11-24T11:05:13Z</time>
      </trkpt>
      <trkpt lat="42.498812" lon="0.862287">
        <ele>1829.514</ele>
        <time>2018-11-24T11:05:14Z</time>
      </trkpt>
      <trkpt lat="42.498710" lon="0.862327">
        <ele>1830.397</ele>
        <time>2018-11-24T11:05:15Z</time>
      </trkpt>
      <trkpt lat="42.498608" lon="0.862369">
        <ele>1831.123</ele>
        <time>2018-11-24T11:05:16Z</time>
      </trkpt>
      <trkpt lat="42.498509" lon="0.862420">
        <ele>1832.025</ele>
        <time>2018-11-24T11:05:17Z</time>
      </trkpt>
      <trkpt lat="42.498410" lon="0.862472">
        <ele>1832.708</ele>
        <time>2018-11-24T11:05:18Z</time>
      </trkpt>
      <trkpt lat="42.498316" lon="0.862529">
        <ele>1833.642</ele>
        <time>2018-11-24T11:05:19Z</time>
      </trkpt>
      <trkpt lat="42.498233" lon="0.862586">
        <ele>1834.279</ele>
        <time>2018-11-24T11:05:20Z</time>
      </trkpt>
      <trkpt lat="42.498150" lon="0.862639">
        <ele>1835.146</ele>
        <time>2018-11-24T11:05:21Z</time>
      </trkpt>
      <trkpt lat="42.498069" lon="0.862697">
        <ele>1835.666</ele>
        <time>2018-11-24T11:05:22Z</time>
      </trkpt>
      <trkpt lat="42.497990" lon="0.862756">
        <ele>1836.327</ele>
        <time>2018-11-24T11:05:23Z</time>
      </trkpt>
      <trkpt lat="42.497916" lon="0.862819">
        <ele>1836.956</ele>
        <time>2018-11-24T11:05:24Z</time>
      </trkpt>
      <trkpt lat="42.497845" lon="0.862888">
        <ele>1837.586</ele>
        <time>2018-11-24T11:05:25Z</time>
      </trkpt>
      <trkpt lat="42.497780" lon="0.862966">
        <ele>1838.111</ele>
        <time>2018-11-24T11:05:26Z</time>
      </trkpt>
      <trkpt lat="42.497719" lon="0.863056">
        <ele>1838.818</ele>
        <time>2018-11-24T11:05:27Z</time>
      </trkpt>
      <trkpt lat="42.497659" lon="0.863147">
        <ele>1839.498</ele>
        <time>2018-11-24T11:05:28Z</time>
      </trkpt>
      <trkpt lat="42.497597" lon="0.863235">
        <ele>1840.417</ele>
        <time>2018-11-24T11:05:29Z</time>
      </trkpt>
      <trkpt lat="42.497534" lon="0.863323">
        <ele>1841.008</ele>
        <time>2018-11-24T11:05:30Z</time>
      </trkpt>
      <trkpt lat="42.497456" lon="0.863394">
        <ele>1841.874</ele>
        <time>2018-11-24T11:05:31Z</time>
      </trkpt>
      <trkpt lat="42.497370" lon="0.863451">
        <ele>1842.621</ele>
        <time>2018-11-24T11:05:32Z</time>
      </trkpt>
      <trkpt lat="42.497279" lon="0.863511">
        <ele>1843.538</ele>
        <time>2018-11-24T11:05:33Z</time>
      </trkpt>
      <trkpt lat="42.497172" lon="0.863556">
        <ele>1844.348</ele>
        <time>2018-11-24T11:05:34Z</time>
      </trkpt>
      <trkpt lat="42.497066" lon="0.863599">
        <ele>1845.239</ele>
        <time>2018-11-24T11:05:35Z</time>
      </trkpt>
      <trkpt lat="42.496961" lon="0.863641">
        <ele>1845.848</ele>
        <time>2018-11-24T11:05:36Z</time>
      </trkpt>
      <trkpt lat="42.496853" lon="0.863677">
        <ele>1846.728</ele>
        <time>2018-11-24T11:05:37Z</time>
      </trkpt>
      <trkpt lat="42.496742" lon="0.863708">
        <ele>1847.583</ele>
        <time>2018-11-24T11:05:38Z</time>
      </trkpt>
      <trkpt lat="42.496628" lon="0.863733">
        <ele>1848.483</ele>
        <time>2018-11-24T11:05:39Z</time>
      </trkpt>
      <trkpt lat="42.496511" lon="0.863757">
        <ele>1849.325</ele>
        <time>2018-11-24T11:05:40Z</time>
      </trkpt>
      <trkpt lat="42.496390" lon="0.863774">
        <ele>1850.417</ele>
        <time>2018-11-24T11:05:41Z</time>
      </trkpt>
      <trkpt lat="42.496274" lon="0.863781">
        <ele>1851.208</ele>
        <time>2018-11-24T11:05:42Z</time>
      </trkpt>
      <trkpt lat="42.496160" lon="0.863786">
        <ele>1851.951</ele>
        <time>2018-11-24T11:05:43Z</time>
      </trkpt>
      <trkpt lat="42.496051" lon="0.863784">
        <ele>1852.818</ele>
        <time>2018-11-24T11:05:44Z</time>
      </trkpt>
      <trkpt lat="42.495942" lon="0.863782">
        <ele>1853.725</ele>
        <time>2018-11-24T11:05:45Z</time>
      </trkpt>
      <trkpt lat="42.495833" lon="0.863775">
        <ele>1854.455</ele>
        <time>2018-11-24T11:05:46Z</time>
      </trkpt>
      <trkpt lat="42.495721" lon="0.863769">
        <ele>1855.316</ele>
        <time>2018-11-24T11:05:47Z</time>
      </trkpt>
      <trkpt lat="42.495608" lon="0.863763">
        <ele>1856.145</ele>
        <time>2018-11-24T11:05:48Z</time>
      </trkpt>
      <trkpt lat="42.495494" lon="0.863757">
        <ele>1857.065</ele>
        <time>2018-11-24T11:05:49Z</time>
      </trkpt>
      <trkpt lat="42.495376" lon="0.863771">
        <ele>1857.730</ele>
        <time>2018-11-24T11:05:50Z</time>
      </trkpt>
      <trkpt lat="42.495258" lon="0.863798">
        <ele>1858.734</ele>
        <time>2018-11-24T11:05:51Z</time>
      </trkpt>
      <trkpt lat="42.495141" lon="0.863836">
        <ele>1859.555</ele>
        <time>2018-11-24T11:05:52Z</time>
      </trkpt>
      <trkpt lat="42.495024" lon="0.863880">
        <ele>1860.510</ele>
        <time>2018-11-24T11:05:53Z</time>
      </trkpt>
      <trkpt lat="42.494908" lon="0.863924">
        <ele>1861.408</ele>
        <time>2018-11-24T11:05:54Z</time>
      </trkpt>
      <trkpt lat="42.494790" lon="0.863964">
        <ele>1862.286</ele>
        <time>2018-11-24T11:05:55Z</time>
      </trkpt>
      <trkpt lat="42.494671" lon="0.863994">
        <ele>1863.133</ele>
        <time>2018-11-24T11:05:56Z</time>
      </trkpt>
      <trkpt lat="42.494550" lon="0.864020">
        <ele>1864.080</ele>
        <time>2018-11-24T11:05:57Z</time>
      </trkpt>
      <trkpt lat="42.494429" lon="0.864039">
        <ele>1864.930</ele>
        <time>2018-11-24T11:05:58Z</time>
      </trkpt>
      <trkpt lat="42.494306" lon="0.864049">
        <ele>1865.861</ele>
        <time>2018-11-24T11:05:59Z</time>
      </trkpt>
      <trkpt lat="42.494183" lon="0.864052">
        <ele>1866.760</ele>
        <time>2018-11-24T11:06:00Z</time>
      </trkpt>
      <trkpt lat="42.494060" lon="0.864052">
        <ele>1867.460</ele>
        <time>2018-11-24T11:06:01Z</time>
      </trkpt>
      <trkpt lat="42.493937" lon="0.864047">
        <ele>1868.465</ele>
        <time>2018-11-24T11:06:02Z</time>
      </trkpt>
      <trkpt lat="42.493816" lon="0.864041">
        <ele>1869.279</ele>
        <time>2018-11-24T11:06:03Z</time>
      </trkpt>
      <trkpt lat="42.493696" lon="0.864038">
        <ele>1870.105</ele>
        <time>2018-11-24T11:06:04Z</time>
      </trkpt>
      <trkpt lat="42.493575" lon="0.864038">
        <ele>1871.025</ele>
        <time>2018-11-24T11:06:05Z</time>
      </trkpt>
      <trkpt lat="42.493454" lon="0.864042">
        <ele>1871.708</ele>
        <time>2018-11-24T11:06:06Z</time>
      </trkpt>
      <trkpt lat="42.493333" lon="0.864051">
        <ele>1872.720</ele>
        <time>2018-11-24T11:06:07Z</time>
      </trkpt>
      <trkpt lat="42.493212" lon="0.864064">
        <ele>1873.417</ele>
        <time>2018-11-24T11:06:08Z</time>
      </trkpt>
      <trkpt lat="42.493091" lon="0.864081">
        <ele>1874.374</ele>
        <time>2018-11-24T11:06:09Z</time>
      </trkpt>
      <trkpt lat="42.492970" lon="0.864096">
        <ele>1875.124</ele>
        <time>2018-11-24T11:06:10Z</time>
      </trkpt>
      <trkpt lat="42.492848" lon="0.864104">
        <ele>1876.055</ele>
        <time>2018-11-24T11:06:11Z</time>
      </trkpt>
      <trkpt lat="42.492725" lon="0.864103">
        <ele>1876.974</ele>
        <time>2018-11-24T11:06:12Z</time>
      </trkpt>
      <trkpt lat="42.492601" lon="0.864096">
        <ele>1878.014</ele>
        <time>2018-11-24T11:06:13Z</time>
      </trkpt>
      <trkpt lat="42.492479" lon="0.864088">
        <ele>1878.979</ele>
        <time>2018-11-24T11:06:14Z</time>
      </trkpt>
      <trkpt lat="42.492358" lon="0.864079">
        <ele>1880.062</ele>
        <time>2018-11-24T11:06:15Z</time>
      </trkpt>
      <trkpt lat="42.492241" lon="0.864066">
        <ele>1880.783</ele>
        <time>2018-11-24T11:06:16Z</time>
      </trkpt>
      <trkpt lat="42.492132" lon="0.864050">
        <ele>1881.511</ele>
        <time>2018-11-24T11:06:17Z</time>
      </trkpt>
      <trkpt lat="42.492028" lon="0.864034">
        <ele>1882.108</ele>
        <time>2018-11-24T11:06:18Z</time>
      </trkpt>
      <trkpt lat="42.491933" lon="0.864016">
        <ele>1882.899</ele>
        <time>2018-11-24T11:06:19Z</time>
      </trkpt>
      <trkpt lat="42.491842" lon="0.863992">
        <ele>1883.556</ele>
        <time>2018-11-24T11:06:20Z</time>
      </trkpt>
      <trkpt lat="42.491756" lon="0.863968">
        <ele>1884.263</ele>
        <time>2018-11-24T11:06:21Z</time>
      </trkpt>
      <trkpt lat="42.491677" lon="0.863947">
        <ele>1885.023</ele>
        <time>2018-11-24T11:06:22Z</time>
      </trkpt>
      <trkpt lat="42.491601" lon="0.863935">
        <ele>1885.684</ele>
        <time>2018-11-24T11:06:23Z</time>
      </trkpt>
      <trkpt lat="42.491526" lon="0.863946">
        <ele>1886.193</ele>
        <time>2018-11-24T11:06:24Z</time>
      </trkpt>
      <trkpt lat="42.491454" lon="0.863973">
        <ele>1886.613</ele>
        <time>2018-11-24T11:06:25Z</time>
      </trkpt>
      <trkpt lat="42.491385" lon="0.864016">
        <ele>1887.168</ele>
        <time>2018-11-24T11:06:26Z</time>
      </trkpt>
      <trkpt lat="42.491316" lon="0.864066">
        <ele>1887.731</ele>
        <time>2018-11-24T11:06:27Z</time>
      </trkpt>
      <trkpt lat="42.491246" lon="0.864123">
        <ele>1888.461</ele>
        <time>2018-11-24T11:06:28Z</time>
      </trkpt>
      <trkpt lat="42.491172" lon="0.864180">
        <ele>1889.307</ele>
        <time>2018-11-24T11:06:29Z</time>
      </trkpt>
      <trkpt lat="42.491091" lon="0.864234">
        <ele>1890.008</ele>
        <time>2018-11-24T11:06:30Z</time>
      </trkpt>
      <trkpt lat="42.491001" lon="0.864276">
        <ele>1890.866</ele>
        <time>2018-11-24T11:06:31Z</time>
      </trkpt>
      <trkpt lat="42.490903" lon="0.864315">
        <ele>1891.753</ele>
        <time>2018-11-24T11:06:32Z</time>
      </trkpt>
      <trkpt lat="42.490803" lon="0.864350">
        <ele>1892.450</ele>
        <time>2018-11-24T11:06:33Z</time>
      </trkpt>
      <trkpt lat="42.490697" lon="0.864369">
        <ele>1893.440</ele>
        <time>2018-11-24T11:06:34Z</time>
      </trkpt>
      <trkpt lat="42.490588" lon="0.864386">
        <ele>1894.431</ele>
        <time>2018-11-24T11:06:35Z</time>
      </trkpt>
      <trkpt lat="42.490474" lon="0.864405">
        <ele>1895.550</ele>
        <time>2018-11-24T11:06:36Z</time>
      </trkpt>
      <trkpt lat="42.490357" lon="0.864419">
        <ele>1896.620</ele>
        <time>2018-11-24T11:06:37Z</time>
      </trkpt>
      <trkpt lat="42.490236" lon="0.864440">
        <ele>1897.545</ele>
        <time>2018-11-24T11:06:38Z</time>
      </trkpt>
      <trkpt lat="42.490115" lon="0.864464">
        <ele>1898.529</ele>
        <time>2018-11-24T11:06:39Z</time>
      </trkpt>
      <trkpt lat="42.489998" lon="0.864494">
        <ele>1899.400</ele>
        <time>2018-11-24T11:06:40Z</time>
      </trkpt>
      <trkpt lat="42.489888" lon="0.864530">
        <ele>1900.220</ele>
        <time>2018-11-24T11:06:41Z</time>
      </trkpt>
      <trkpt lat="42.489779" lon="0.864567">
        <ele>1901.108</ele>
        <time>2018-11-24T11:06:42Z</time>
      </trkpt>
      <trkpt lat="42.489673" lon="0.864610">
        <ele>1902.175</ele>
        <time>2018-11-24T11:06:43Z</time>
      </trkpt>
      <trkpt lat="42.489569" lon="0.864650">
        <ele>1902.922</ele>
        <time>2018-11-24T11:06:44Z</time>
      </trkpt>
      <trkpt lat="42.489466" lon="0.864691">
        <ele>1903.989</ele>
        <time>2018-11-24T11:06:45Z</time>
      </trkpt>
      <trkpt lat="42.489362" lon="0.864726">
        <ele>1904.829</ele>
        <time>2018-11-24T11:06:46Z</time>
      </trkpt>
      <trkpt lat="42.489257" lon="0.864752">
        <ele>1905.780</ele>
        <time>2018-11-24T11:06:47Z</time>
      </trkpt>
      <trkpt lat="42.489148" lon="0.864777">
        <ele>1906.659</ele>
        <time>2018-11-24T11:06:48Z</time>
      </trkpt>
      <trkpt lat="42.489034" lon="0.864779">
        <ele>1907.689</ele>
        <time>2018-11-24T11:06:49Z</time>
      </trkpt>
      <trkpt lat="42.488922" lon="0.864761">
        <ele>1908.464</ele>
        <time>2018-11-24T11:06:50Z</time>
      </trkpt>
      <trkpt lat="42.488813" lon="0.864746">
        <ele>1909.482</ele>
        <time>2018-11-24T11:06:51Z</time>
      </trkpt>
      <trkpt lat="42.488705" lon="0.864720">
        <ele>1910.343</ele>
        <time>2018-11-24T11:06:52Z</time>
      </trkpt>
      <trkpt lat="42.488600" lon="0.864691">
        <ele>1911.017</ele>
        <time>2018-11-24T11:06:53Z</time>
      </trkpt>
      <trkpt lat="42.488497" lon="0.864654">
        <ele>1911.908</ele>
        <time>2018-11-24T11:06:54Z</time>
      </trkpt>
      <trkpt lat="42.488395" lon="0.864619">
        <ele>1912.511</ele>
        <time>2018-11-24T11:06:55Z</time>
      </trkpt>
      <trkpt lat="42.488295" lon="0.864585">
        <ele>1913.248</ele>
        <time>2018-11-24T11:06:56Z</time>
      </trkpt>
      <trkpt lat="42.488191" lon="0.864547">
        <ele>1914.115</ele>
        <time>2018-11-24T11:06:57Z</time>
      </trkpt>
      <trkpt lat="42.488083" lon="0.864525">
        <ele>1914.875</ele>
        <time>2018-11-24T11:06:58Z</time>
      </trkpt>
      <trkpt lat="42.487973" lon="0.864506">
        <ele>1915.736</ele>
        <time>2018-11-24T11:06:59Z</time>
      </trkpt>
      <trkpt lat="42.487861" lon="0.864535">
        <ele>1916.525</ele>
        <time>2018-11-24T11:07:00Z</time>
      </trkpt>
      <trkpt lat="42.487754" lon="0.864581">
        <ele>1917.535</ele>
        <time>2018-11-24T11:07:01Z</time>
      </trkpt>
      <trkpt lat="42.487648" lon="0.864626">
        <ele>1918.660</ele>
        <time>2018-11-24T11:07:02Z</time>
      </trkpt>
      <trkpt lat="42.487548" lon="0.864685">
        <ele>1919.621</ele>
        <time>2018-11-24T11:07:03Z</time>
      </trkpt>
      <trkpt lat="42.487450" lon="0.864742">
        <ele>1920.641</ele>
        <time>2018-11-24T11:07:04Z</time>
      </trkpt>
      <trkpt lat="42.487353" lon="0.864795">
        <ele>1921.405</ele>
        <time>2018-11-24T11:07:05Z</time>
      </trkpt>
      <trkpt lat="42.487259" lon="0.864842">
        <ele>1922.308</ele>
        <time>2018-11-24T11:07:06Z</time>
      </trkpt>
      <trkpt lat="42.487163" lon="0.864881">
        <ele>1923.075</ele>
        <time>2018-11-24T11:07:07Z</time>
      </trkpt>
      <trkpt lat="42.487064" lon="0.864914">
        <ele>1923.882</ele>
        <time>2018-11-24T11:07:08Z</time>
      </trkpt>
      <trkpt lat="42.486960" lon="0.864937">
        <ele>1924.739</ele>
        <time>2018-11-24T11:07:09Z</time>
      </trkpt>
      <trkpt lat="42.486854" lon="0.864952">
        <ele>1925.539</ele>
        <time>2018-11-24T11:07:10Z</time>
      </trkpt>
      <trkpt lat="42.486749" lon="0.864960">
        <ele>1926.220</ele>
        <time>2018-11-24T11:07:11Z</time>
      </trkpt>
      <trkpt lat="42.486644" lon="0.864956">
        <ele>1926.849</ele>
        <time>2018-11-24T11:07:12Z</time>
      </trkpt>
      <trkpt lat="42.486539" lon="0.864952">
        <ele>1927.679</ele>
        <time>2018-11-24T11:07:13Z</time>
      </trkpt>
      <trkpt lat="42.486437" lon="0.864932">
        <ele>1928.434</ele>
        <time>2018-11-24T11:07:14Z</time>
      </trkpt>
      <trkpt lat="42.486341" lon="0.864898">
        <ele>1929.178</ele>
        <time>2018-11-24T11:07:15Z</time>
      </trkpt>
      <trkpt lat="42.486249" lon="0.864862">
        <ele>1929.833</ele>
        <time>2018-11-24T11:07:16Z</time>
      </trkpt>
      <trkpt lat="42.486166" lon="0.864826">
        <ele>1930.326</ele>
        <time>2018-11-24T11:07:17Z</time>
      </trkpt>
      <trkpt lat="42.486096" lon="0.864781">
        <ele>1930.808</ele>
        <time>2018-11-24T11:07:18Z</time>
      </trkpt>
      <trkpt lat="42.486033" lon="0.864736">
        <ele>1931.360</ele>
        <time>2018-11-24T11:07:19Z</time>
      </trkpt>
      <trkpt lat="42.485996" lon="0.864664">
        <ele>1931.897</ele>
        <time>2018-11-24T11:07:20Z</time>
      </trkpt>
      <trkpt lat="42.485965" lon="0.864579">
        <ele>1932.584</ele>
        <time>2018-11-24T11:07:21Z</time>
      </trkpt>
      <trkpt lat="42.485966" lon="0.864475">
        <ele>1933.044</ele>
        <time>2018-11-24T11:07:22Z</time>
      </trkpt>
      <trkpt lat="42.486007" lon="0.864375">
        <ele>1933.725</ele>
        <time>2018-11-24T11:07:23Z</time>
      </trkpt>
      <trkpt lat="42.486072" lon="0.864293">
        <ele>1934.314</ele>
        <time>2018-11-24T11:07:24Z</time>
      </trkpt>
      <trkpt lat="42.486138" lon="0.864219">
        <ele>1935.034</ele>
        <time>2018-11-24T11:07:25Z</time>
      </trkpt>
      <trkpt lat="42.486231" lon="0.864192">
        <ele>1935.619</ele>
        <time>2018-11-24T11:07:26Z</time>
      </trkpt>
      <trkpt lat="42.486332" lon="0.864164">
        <ele>1936.335</ele>
        <time>2018-11-24T11:07:27Z</time>
      </trkpt>
      <trkpt lat="42.486442" lon="0.864134">
        <ele>1937.186</ele>
        <time>2018-11-24T11:07:28Z</time>
      </trkpt>
      <trkpt lat="42.486554" lon="0.864102">
        <ele>1937.914</ele>
        <time>2018-11-24T11:07:29Z</time>
      </trkpt>
      <trkpt lat="42.486664" lon="0.864072">
        <ele>1938.808</ele>
        <time>2018-11-24T11:07:30Z</time>
      </trkpt>
      <trkpt lat="42.486774" lon="0.864043">
        <ele>1939.796</ele>
        <time>2018-11-24T11:07:31Z</time>
      </trkpt>
      <trkpt lat="42.486878" lon="0.864015">
        <ele>1940.413</ele>
        <time>2018-11-24T11:07:32Z</time>
      </trkpt>
      <trkpt lat="42.486977" lon="0.863999">
        <ele>1941.450</ele>
        <time>2018-11-24T11:07:33Z</time>
      </trkpt>
      <trkpt lat="42.487074" lon="0.863974">
        <ele>1942.270</ele>
        <time>2018-11-24T11:07:34Z</time>
      </trkpt>
      <trkpt lat="42.487163" lon="0.863952">
        <ele>1942.981</ele>
        <time>2018-11-24T11:07:35Z</time>
      </trkpt>
      <trkpt lat="42.487243" lon="0.863920">
        <ele>1943.550</ele>
        <time>2018-11-24T11:07:36Z</time>
      </trkpt>
      <trkpt lat="42.487322" lon="0.863879">
        <ele>1944.160</ele>
        <time>2018-11-24T11:07:37Z</time>
      </trkpt>
      <trkpt lat="42.487385" lon="0.863809">
        <ele>1944.955</ele>
        <time>2018-11-24T11:07:38Z</time>
      </trkpt>
      <trkpt lat="42.487427" lon="0.863716">
        <ele>1945.421</ele>
        <time>2018-11-24T11:07:39Z</time>
      </trkpt>
      <trkpt lat="42.487459" lon="0.863615">
        <ele>1946.041</ele>
        <time>2018-11-24T11:07:40Z</time>
      </trkpt>
      <trkpt lat="42.487433" lon="0.863505">
        <ele>1946.605</ele>
        <time>2018-11-24T11:07:41Z</time>
      </trkpt>
      <trkpt lat="42.487374" lon="0.863413">
        <ele>1947.308</ele>
        <time>2018-11-24T11:07:42Z</time>
      </trkpt>
      <trkpt lat="42.487299" lon="0.863360">
        <ele>1947.965</ele>
        <time>2018-11-24T11:07:43Z</time>
      </trkpt>
      <trkpt lat="42.487210" lon="0.863343">
        <ele>1948.642</ele>
        <time>2018-11-24T11:07:44Z</time>
      </trkpt>
      <trkpt lat="42.487115" lon="0.863347">
        <ele>1949.179</ele>
        <time>2018-11-24T11:07:45Z</time>
      </trkpt>
      <trkpt lat="42.487019" lon="0.863355">
        <ele>1949.899</ele>
        <time>2018-11-24T11:07:46Z</time>
      </trkpt>
      <trkpt lat="42.486919" lon="0.863368">
        <ele>1950.490</ele>
        <time>2018-11-24T11:07:47Z</time>
      </trkpt>
      <trkpt lat="42.486815" lon="0.863386">
        <ele>1951.169</ele>
        <time>2018-11-24T11:07:48Z</time>
      </trkpt>
      <trkpt lat="42.486707" lon="0.863407">
        <ele>1951.919</ele>
        <time>2018-11-24T11:07:49Z</time>
      </trkpt>
      <trkpt lat="42.486600" lon="0.863432">
        <ele>1952.824</ele>
        <time>2018-11-24T11:07:50Z</time>
      </trkpt>
      <trkpt lat="42.486488" lon="0.863457">
        <ele>1953.616</ele>
        <time>2018-11-24T11:07:51Z</time>
      </trkpt>
      <trkpt lat="42.486370" lon="0.863483">
        <ele>1954.676</ele>
        <time>2018-11-24T11:07:52Z</time>
      </trkpt>
      <trkpt lat="42.486247" lon="0.863511">
        <ele>1955.513</ele>
        <time>2018-11-24T11:07:53Z</time>
      </trkpt>
      <trkpt lat="42.486121" lon="0.863540">
        <ele>1956.308</ele>
        <time>2018-11-24T11:07:54Z</time>
      </trkpt>
      <trkpt lat="42.485995" lon="0.863569">
        <ele>1956.994</ele>
        <time>2018-11-24T11:07:55Z</time>
      </trkpt>
      <trkpt lat="42.485871" lon="0.863598">
        <ele>1958.221</ele>
        <time>2018-11-24T11:07:56Z</time>
      </trkpt>
      <trkpt lat="42.485747" lon="0.863625">
        <ele>1959.118</ele>
        <time>2018-11-24T11:07:57Z</time>
      </trkpt>
      <trkpt lat="42.485625" lon="0.863655">
        <ele>1960.028</ele>
        <time>2018-11-24T11:07:58Z</time>
      </trkpt>
      <trkpt lat="42.485503" lon="0.863686">
        <ele>1960.839</ele>
        <time>2018-11-24T11:07:59Z</time>
      </trkpt>
      <trkpt lat="42.485382" lon="0.863719">
        <ele>1961.598</ele>
        <time>2018-11-24T11:08:00Z</time>
      </trkpt>
      <trkpt lat="42.485266" lon="0.863751">
        <ele>1962.138</ele>
        <time>2018-11-24T11:08:01Z</time>
      </trkpt>
      <trkpt lat="42.485159" lon="0.863780">
        <ele>1962.793</ele>
        <time>2018-11-24T11:08:02Z</time>
      </trkpt>
      <trkpt lat="42.485060" lon="0.863808">
        <ele>1963.426</ele>
        <time>2018-11-24T11:08:03Z</time>
      </trkpt>
      <trkpt lat="42.484968" lon="0.863834">
        <ele>1963.847</ele>
        <time>2018-11-24T11:08:04Z</time>
      </trkpt>
      <trkpt lat="42.484881" lon="0.863858">
        <ele>1964.311</ele>
        <time>2018-11-24T11:08:05Z</time>
      </trkpt>
      <trkpt lat="42.484799" lon="0.863885">
        <ele>1964.808</ele>
        <time>2018-11-24T11:08:06Z</time>
      </trkpt>
      <trkpt lat="42.484718" lon="0.863919">
        <ele>1965.435</ele>
        <time>2018-11-24T11:08:07Z</time>
      </trkpt>
      <trkpt lat="42.484639" lon="0.863964">
        <ele>1966.092</ele>
        <time>2018-11-24T11:08:08Z</time>
      </trkpt>
      <trkpt lat="42.484560" lon="0.864009">
        <ele>1966.669</ele>
        <time>2018-11-24T11:08:09Z</time>
      </trkpt>
      <trkpt lat="42.484491" lon="0.864083">
        <ele>1967.129</ele>
        <time>2018-11-24T11:08:10Z</time>
      </trkpt>
      <trkpt lat="42.484442" lon="0.864189">
        <ele>1967.840</ele>
        <time>2018-11-24T11:08:11Z</time>
      </trkpt>
      <trkpt lat="42.484404" lon="0.864301">
        <ele>1968.359</ele>
        <time>2018-11-24T11:08:12Z</time>
      </trkpt>
      <trkpt lat="42.484371" lon="0.864417">
        <ele>1969.069</ele>
        <time>2018-11-24T11:08:13Z</time>
      </trkpt>
      <trkpt lat="42.484335" lon="0.864529">
        <ele>1969.634</ele>
        <time>2018-11-24T11:08:14Z</time>
      </trkpt>
      <trkpt lat="42.484291" lon="0.864641">
        <ele>1970.421</ele>
        <time>2018-11-24T11:08:15Z</time>
      </trkpt>
      <trkpt lat="42.484232" lon="0.864745">
        <ele>1971.141</ele>
        <time>2018-11-24T11:08:16Z</time>
      </trkpt>
      <trkpt lat="42.484162" lon="0.864849">
        <ele>1972.005</ele>
        <time>2018-11-24T11:08:17Z</time>
      </trkpt>
      <trkpt lat="42.484086" lon="0.864955">
        <ele>1972.808</ele>
        <time>2018-11-24T11:08:18Z</time>
      </trkpt>
      <trkpt lat="42.484008" lon="0.865067">
        <ele>1973.525</ele>
        <time>2018-11-24T11:08:19Z</time>
      </trkpt>
      <trkpt lat="42.483932" lon="0.865179">
        <ele>1974.252</ele>
        <time>2018-11-24T11:08:20Z</time>
      </trkpt>
      <trkpt lat="42.483860" lon="0.865292">
        <ele>1975.059</ele>
        <time>2018-11-24T11:08:21Z</time>
      </trkpt>
      <trkpt lat="42.483793" lon="0.865396">
        <ele>1975.419</ele>
        <time>2018-11-24T11:08:22Z</time>
      </trkpt>
      <trkpt lat="42.483726" lon="0.865491">
        <ele>1976.160</ele>
        <time>2018-11-24T11:08:23Z</time>
      </trkpt>
      <trkpt lat="42.483659" lon="0.865582">
        <ele>1976.919</ele>
        <time>2018-11-24T11:08:24Z</time>
      </trkpt>
      <trkpt lat="42.483592" lon="0.865659">
        <ele>1977.429</ele>
        <time>2018-11-24T11:08:25Z</time>
      </trkpt>
      <trkpt lat="42.483518" lon="0.865710">
        <ele>1977.964</ele>
        <time>2018-11-24T11:08:26Z</time>
      </trkpt>
      <trkpt lat="42.483441" lon="0.865741">
        <ele>1978.181</ele>
        <time>2018-11-24T11:08:27Z</time>
      </trkpt>
      <trkpt lat="42.483366" lon="0.865746">
        <ele>1978.261</ele>
        <time>2018-11-24T11:08:28Z</time>
      </trkpt>
      <trkpt lat="42.483298" lon="0.865722">
        <ele>1978.817</ele>
        <time>2018-11-24T11:08:29Z</time>
      </trkpt>
      <trkpt lat="42.483230" lon="0.865691">
        <ele>1979.308</ele>
        <time>2018-11-24T11:08:30Z</time>
      </trkpt>
      <trkpt lat="42.483186" lon="0.865618">
        <ele>1979.651</ele>
        <time>2018-11-24T11:08:31Z</time>
      </trkpt>
      <trkpt lat="42.483160" lon="0.865530">
        <ele>1980.078</ele>
        <time>2018-11-24T11:08:32Z</time>
      </trkpt>
      <trkpt lat="42.483162" lon="0.865427">
        <ele>1980.335</ele>
        <time>2018-11-24T11:08:33Z</time>
      </trkpt>
      <trkpt lat="42.483161" lon="0.865326">
        <ele>1980.645</ele>
        <time>2018-11-24T11:08:34Z</time>
      </trkpt>
      <trkpt lat="42.483196" lon="0.865227">
        <ele>1981.136</ele>
        <time>2018-11-24T11:08:35Z</time>
      </trkpt>
      <trkpt lat="42.483251" lon="0.865137">
        <ele>1981.645</ele>
        <time>2018-11-24T11:08:36Z</time>
      </trkpt>
      <trkpt lat="42.483323" lon="0.865064">
        <ele>1982.125</ele>
        <time>2018-11-24T11:08:37Z</time>
      </trkpt>
      <trkpt lat="42.483394" lon="0.865001">
        <ele>1982.670</ele>
        <time>2018-11-24T11:08:38Z</time>
      </trkpt>
      <trkpt lat="42.483465" lon="0.864934">
        <ele>1983.267</ele>
        <time>2018-11-24T11:08:39Z</time>
      </trkpt>
      <trkpt lat="42.483537" lon="0.864860">
        <ele>1983.881</ele>
        <time>2018-11-24T11:08:40Z</time>
      </trkpt>
      <trkpt lat="42.483605" lon="0.864784">
        <ele>1984.419</ele>
        <time>2018-11-24T11:08:41Z</time>
      </trkpt>
      <trkpt lat="42.483661" lon="0.864703">
        <ele>1985.008</ele>
        <time>2018-11-24T11:08:42Z</time>
      </trkpt>
      <trkpt lat="42.483716" lon="0.864614">
        <ele>1985.869</ele>
        <time>2018-11-24T11:08:43Z</time>
      </trkpt>
      <trkpt lat="42.483769" lon="0.864518">
        <ele>1986.436</ele>
        <time>2018-11-24T11:08:44Z</time>
      </trkpt>
      <trkpt lat="42.483815" lon="0.864403">
        <ele>1987.183</ele>
        <time>2018-11-24T11:08:45Z</time>
      </trkpt>
      <trkpt lat="42.483861" lon="0.864280">
        <ele>1987.863</ele>
        <time>2018-11-24T11:08:46Z</time>
      </trkpt>
      <trkpt lat="42.483903" lon="0.864145">
        <ele>1988.864</ele>
        <time>2018-11-24T11:08:47Z</time>
      </trkpt>
      <trkpt lat="42.483946" lon="0.864008">
        <ele>1989.753</ele>
        <time>2018-11-24T11:08:48Z</time>
      </trkpt>
      <trkpt lat="42.483986" lon="0.863867">
        <ele>1990.743</ele>
        <time>2018-11-24T11:08:49Z</time>
      </trkpt>
      <trkpt lat="42.484025" lon="0.863728">
        <ele>1991.328</ele>
        <time>2018-11-24T11:08:50Z</time>
      </trkpt>
      <trkpt lat="42.484068" lon="0.863596">
        <ele>1992.035</ele>
        <time>2018-11-24T11:08:51Z</time>
      </trkpt>
      <trkpt lat="42.484119" lon="0.863474">
        <ele>1992.786</ele>
        <time>2018-11-24T11:08:52Z</time>
      </trkpt>
      <trkpt lat="42.484178" lon="0.863358">
        <ele>1993.714</ele>
        <time>2018-11-24T11:08:53Z</time>
      </trkpt>
      <trkpt lat="42.484247" lon="0.863250">
        <ele>1994.408</ele>
        <time>2018-11-24T11:08:54Z</time>
      </trkpt>
      <trkpt lat="42.484319" lon="0.863148">
        <ele>1995.326</ele>
        <time>2018-11-24T11:08:55Z</time>
      </trkpt>
      <trkpt lat="42.484393" lon="0.863055">
        <ele>1995.983</ele>
        <time>2018-11-24T11:08:56Z</time>
      </trkpt>
      <trkpt lat="42.484470" lon="0.862965">
        <ele>1996.780</ele>
        <time>2018-11-24T11:08:57Z</time>
      </trkpt>
      <trkpt lat="42.484550" lon="0.862879">
        <ele>1997.390</ele>
        <time>2018-11-24T11:08:58Z</time>
      </trkpt>
      <trkpt lat="42.484629" lon="0.862803">
        <ele>1998.081</ele>
        <time>2018-11-24T11:08:59Z</time>
      </trkpt>
      <trkpt lat="42.484711" lon="0.862741">
        <ele>1998.620</ele>
        <time>2018-11-24T11:09:00Z</time>
      </trkpt>
      <trkpt lat="42.484793" lon="0.862695">
        <ele>1999.380</ele>
        <time>2018-11-24T11:09:01Z</time>
      </trkpt>
      <trkpt lat="42.484877" lon="0.862666">
        <ele>1999.955</ele>
        <time>2018-11-24T11:09:02Z</time>
      </trkpt>
      <trkpt lat="42.484959" lon="0.862638">
        <ele>2000.521</ele>
        <time>2018-11-24T11:09:03Z</time>
      </trkpt>
      <trkpt lat="42.485037" lon="0.862651">
        <ele>2001.141</ele>
        <time>2018-11-24T11:09:04Z</time>
      </trkpt>
      <trkpt lat="42.485106" lon="0.862684">
        <ele>2001.705</ele>
        <time>2018-11-24T11:09:05Z</time>
      </trkpt>
      <trkpt lat="42.485177" lon="0.862708">
        <ele>2002.408</ele>
        <time>2018-11-24T11:09:06Z</time>
      </trkpt>
      <trkpt lat="42.485253" lon="0.862715">
        <ele>2003.255</ele>
        <time>2018-11-24T11:09:07Z</time>
      </trkpt>
      <trkpt lat="42.485331" lon="0.862718">
        <ele>2003.932</ele>
        <time>2018-11-24T11:09:08Z</time>
      </trkpt>
      <trkpt lat="42.485409" lon="0.862679">
        <ele>2004.429</ele>
        <time>2018-11-24T11:09:09Z</time>
      </trkpt>
      <trkpt lat="42.485479" lon="0.862608">
        <ele>2005.339</ele>
        <time>2018-11-24T11:09:10Z</time>
      </trkpt>
      <trkpt lat="42.485523" lon="0.862499">
        <ele>2005.810</ele>
        <time>2018-11-24T11:09:11Z</time>
      </trkpt>
      <trkpt lat="42.485542" lon="0.862378">
        <ele>2006.149</ele>
        <time>2018-11-24T11:09:12Z</time>
      </trkpt>
      <trkpt lat="42.485519" lon="0.862145">
        <ele>2006.829</ele>
        <time>2018-11-24T11:09:13Z</time>
      </trkpt>
      <trkpt lat="42.485461" lon="0.862056">
        <ele>2007.294</ele>
        <time>2018-11-24T11:09:14Z</time>
      </trkpt>
      <trkpt lat="42.485368" lon="0.862009">
        <ele>2007.793</ele>
        <time>2018-11-24T11:09:15Z</time>
      </trkpt>
      <trkpt lat="42.485272" lon="0.861983">
        <ele>2008.265</ele>
        <time>2018-11-24T11:09:16Z</time>
      </trkpt>
      <trkpt lat="42.485171" lon="0.861971">
        <ele>2008.921</ele>
        <time>2018-11-24T11:09:17Z</time>
      </trkpt>
      <trkpt lat="42.485074" lon="0.861966">
        <ele>2009.408</ele>
        <time>2018-11-24T11:09:18Z</time>
      </trkpt>
      <trkpt lat="42.484976" lon="0.861969">
        <ele>2010.142</ele>
        <time>2018-11-24T11:09:19Z</time>
      </trkpt>
      <trkpt lat="42.484873" lon="0.861981">
        <ele>2010.899</ele>
        <time>2018-11-24T11:09:20Z</time>
      </trkpt>
      <trkpt lat="42.484767" lon="0.862004">
        <ele>2011.756</ele>
        <time>2018-11-24T11:09:21Z</time>
      </trkpt>
      <trkpt lat="42.484661" lon="0.862040">
        <ele>2012.536</ele>
        <time>2018-11-24T11:09:22Z</time>
      </trkpt>
      <trkpt lat="42.484559" lon="0.862084">
        <ele>2013.397</ele>
        <time>2018-11-24T11:09:23Z</time>
      </trkpt>
      <trkpt lat="42.484467" lon="0.862129">
        <ele>2013.956</ele>
        <time>2018-11-24T11:09:24Z</time>
      </trkpt>
      <trkpt lat="42.484381" lon="0.862173">
        <ele>2014.666</ele>
        <time>2018-11-24T11:09:25Z</time>
      </trkpt>
      <trkpt lat="42.484296" lon="0.862219">
        <ele>2015.451</ele>
        <time>2018-11-24T11:09:26Z</time>
      </trkpt>
      <trkpt lat="42.484212" lon="0.862271">
        <ele>2016.279</ele>
        <time>2018-11-24T11:09:27Z</time>
      </trkpt>
      <trkpt lat="42.484126" lon="0.862325">
        <ele>2017.105</ele>
        <time>2018-11-24T11:09:28Z</time>
      </trkpt>
      <trkpt lat="42.484037" lon="0.862377">
        <ele>2018.025</ele>
        <time>2018-11-24T11:09:29Z</time>
      </trkpt>
      <trkpt lat="42.483945" lon="0.862431">
        <ele>2018.808</ele>
        <time>2018-11-24T11:09:30Z</time>
      </trkpt>
      <trkpt lat="42.483855" lon="0.862487">
        <ele>2019.860</ele>
        <time>2018-11-24T11:09:31Z</time>
      </trkpt>
      <trkpt lat="42.483767" lon="0.862542">
        <ele>2020.517</ele>
        <time>2018-11-24T11:09:32Z</time>
      </trkpt>
      <trkpt lat="42.483680" lon="0.862594">
        <ele>2021.234</ele>
        <time>2018-11-24T11:09:33Z</time>
      </trkpt>
      <trkpt lat="42.483595" lon="0.862646">
        <ele>2021.954</ele>
        <time>2018-11-24T11:09:34Z</time>
      </trkpt>
      <trkpt lat="42.483512" lon="0.862697">
        <ele>2022.625</ele>
        <time>2018-11-24T11:09:35Z</time>
      </trkpt>
      <trkpt lat="42.483428" lon="0.862747">
        <ele>2023.234</ele>
        <time>2018-11-24T11:09:36Z</time>
      </trkpt>
      <trkpt lat="42.483346" lon="0.862795">
        <ele>2023.964</ele>
        <time>2018-11-24T11:09:37Z</time>
      </trkpt>
      <trkpt lat="42.483263" lon="0.862842">
        <ele>2024.699</ele>
        <time>2018-11-24T11:09:38Z</time>
      </trkpt>
      <trkpt lat="42.483179" lon="0.862889">
        <ele>2025.559</ele>
        <time>2018-11-24T11:09:39Z</time>
      </trkpt>
      <trkpt lat="42.483094" lon="0.862938">
        <ele>2026.303</ele>
        <time>2018-11-24T11:09:40Z</time>
      </trkpt>
      <trkpt lat="42.483009" lon="0.862988">
        <ele>2027.023</ele>
        <time>2018-11-24T11:09:41Z</time>
      </trkpt>
      <trkpt lat="42.482926" lon="0.863041">
        <ele>2027.808</ele>
        <time>2018-11-24T11:09:42Z</time>
      </trkpt>
      <trkpt lat="42.482844" lon="0.863095">
        <ele>2028.498</ele>
        <time>2018-11-24T11:09:43Z</time>
      </trkpt>
      <trkpt lat="42.482762" lon="0.863152">
        <ele>2029.175</ele>
        <time>2018-11-24T11:09:44Z</time>
      </trkpt>
      <trkpt lat="42.482677" lon="0.863213">
        <ele>2030.192</ele>
        <time>2018-11-24T11:09:45Z</time>
      </trkpt>
      <trkpt lat="42.482590" lon="0.863278">
        <ele>2030.852</ele>
        <time>2018-11-24T11:09:46Z</time>
      </trkpt>
      <trkpt lat="42.482506" lon="0.863348">
        <ele>2031.653</ele>
        <time>2018-11-24T11:09:47Z</time>
      </trkpt>
      <trkpt lat="42.482427" lon="0.863418">
        <ele>2032.472</ele>
        <time>2018-11-24T11:09:48Z</time>
      </trkpt>
      <trkpt lat="42.482357" lon="0.863484">
        <ele>2033.082</ele>
        <time>2018-11-24T11:09:49Z</time>
      </trkpt>
      <trkpt lat="42.482292" lon="0.863549">
        <ele>2033.737</ele>
        <time>2018-11-24T11:09:50Z</time>
      </trkpt>
      <trkpt lat="42.482228" lon="0.863613">
        <ele>2034.348</ele>
        <time>2018-11-24T11:09:51Z</time>
      </trkpt>
      <trkpt lat="42.482172" lon="0.863671">
        <ele>2034.661</ele>
        <time>2018-11-24T11:09:52Z</time>
      </trkpt>
      <trkpt lat="42.482123" lon="0.863723">
        <ele>2035.217</ele>
        <time>2018-11-24T11:09:53Z</time>
      </trkpt>
      <trkpt lat="42.482078" lon="0.863773">
        <ele>2035.808</ele>
        <time>2018-11-24T11:09:54Z</time>
      </trkpt>
      <trkpt lat="42.482034" lon="0.863823">
        <ele>2036.377</ele>
        <time>2018-11-24T11:09:55Z</time>
      </trkpt>
      <trkpt lat="42.481994" lon="0.863869">
        <ele>2036.614</ele>
        <time>2018-11-24T11:09:56Z</time>
      </trkpt>
      <trkpt lat="42.481955" lon="0.863917">
        <ele>2037.051</ele>
        <time>2018-11-24T11:09:57Z</time>
      </trkpt>
      <trkpt lat="42.481914" lon="0.863969">
        <ele>2037.631</ele>
        <time>2018-11-24T11:09:58Z</time>
      </trkpt>
      <trkpt lat="42.481871" lon="0.864030">
        <ele>2038.152</ele>
        <time>2018-11-24T11:09:59Z</time>
      </trkpt>
      <trkpt lat="42.481823" lon="0.864090">
        <ele>2038.871</ele>
        <time>2018-11-24T11:10:00Z</time>
      </trkpt>
      <trkpt lat="42.481775" lon="0.864149">
        <ele>2039.381</ele>
        <time>2018-11-24T11:10:01Z</time>
      </trkpt>
      <trkpt lat="42.481729" lon="0.864202">
        <ele>2039.816</ele>
        <time>2018-11-24T11:10:02Z</time>
      </trkpt>
      <trkpt lat="42.481688" lon="0.864240">
        <ele>2040.138</ele>
        <time>2018-11-24T11:10:03Z</time>
      </trkpt>
      <trkpt lat="42.481643" lon="0.864276">
        <ele>2040.770</ele>
        <time>2018-11-24T11:10:06Z</time>
      </trkpt>
      <trkpt lat="42.481599" lon="0.864299">
        <ele>2041.317</ele>
        <time>2018-11-24T11:10:14Z</time>
      </trkpt>
      <trkpt lat="42.481561" lon="0.864406">
        <ele>2014.553</ele>
        <time>2018-11-24T11:35:35Z</time>
      </trkpt>
      <trkpt lat="42.481614" lon="0.864359">
        <ele>2014.504</ele>
        <time>2018-11-24T11:36:35Z</time>
      </trkpt>
      <trkpt lat="42.481658" lon="0.864313">
        <ele>2014.514</ele>
        <time>2018-11-24T11:36:37Z</time>
      </trkpt>
      <trkpt lat="42.481717" lon="0.864243">
        <ele>2014.508</ele>
        <time>2018-11-24T11:36:39Z</time>
      </trkpt>
      <trkpt lat="42.481751" lon="0.864202">
        <ele>2014.588</ele>
        <time>2018-11-24T11:36:40Z</time>
      </trkpt>
      <trkpt lat="42.481789" lon="0.864158">
        <ele>2014.585</ele>
        <time>2018-11-24T11:36:41Z</time>
      </trkpt>
      <trkpt lat="42.481829" lon="0.864112">
        <ele>2014.522</ele>
        <time>2018-11-24T11:36:42Z</time>
      </trkpt>
      <trkpt lat="42.481871" lon="0.864064">
        <ele>2014.592</ele>
        <time>2018-11-24T11:36:43Z</time>
      </trkpt>
      <trkpt lat="42.481930" lon="0.863992">
        <ele>2014.574</ele>
        <time>2018-11-24T11:36:44Z</time>
      </trkpt>
      <trkpt lat="42.481991" lon="0.863918">
        <ele>2014.594</ele>
        <time>2018-11-24T11:36:46Z</time>
      </trkpt>
      <trkpt lat="42.482028" lon="0.863877">
        <ele>2014.536</ele>
        <time>2018-11-24T11:36:47Z</time>
      </trkpt>
      <trkpt lat="42.482068" lon="0.863834">
        <ele>2014.554</ele>
        <time>2018-11-24T11:36:48Z</time>
      </trkpt>
      <trkpt lat="42.482108" lon="0.863791">
        <ele>2014.587</ele>
        <time>2018-11-24T11:36:49Z</time>
      </trkpt>
      <trkpt lat="42.482148" lon="0.863748">
        <ele>2014.542</ele>
        <time>2018-11-24T11:36:50Z</time>
      </trkpt>
      <trkpt lat="42.482188" lon="0.863704">
        <ele>2014.526</ele>
        <time>2018-11-24T11:36:51Z</time>
      </trkpt>
      <trkpt lat="42.482226" lon="0.863662">
        <ele>2014.108</ele>
        <time>2018-11-24T11:36:52Z</time>
      </trkpt>
      <trkpt lat="42.482263" lon="0.863625">
        <ele>2013.971</ele>
        <time>2018-11-24T11:36:53Z</time>
      </trkpt>
      <trkpt lat="42.482304" lon="0.863581">
        <ele>2015.048</ele>
        <time>2018-11-24T11:36:54Z</time>
      </trkpt>
      <trkpt lat="42.482344" lon="0.863543">
        <ele>2015.775</ele>
        <time>2018-11-24T11:36:55Z</time>
      </trkpt>
      <trkpt lat="42.482384" lon="0.863504">
        <ele>2015.985</ele>
        <time>2018-11-24T11:36:56Z</time>
      </trkpt>
      <trkpt lat="42.482426" lon="0.863464">
        <ele>2015.667</ele>
        <time>2018-11-24T11:36:57Z</time>
      </trkpt>
      <trkpt lat="42.482470" lon="0.863424">
        <ele>2015.147</ele>
        <time>2018-11-24T11:36:58Z</time>
      </trkpt>
      <trkpt lat="42.482516" lon="0.863382">
        <ele>2014.759</ele>
        <time>2018-11-24T11:36:59Z</time>
      </trkpt>
      <trkpt lat="42.482567" lon="0.863336">
        <ele>2014.177</ele>
        <time>2018-11-24T11:37:00Z</time>
      </trkpt>
      <trkpt lat="42.482619" lon="0.863289">
        <ele>2013.725</ele>
        <time>2018-11-24T11:37:01Z</time>
      </trkpt>
      <trkpt lat="42.482676" lon="0.863243">
        <ele>2013.226</ele>
        <time>2018-11-24T11:37:02Z</time>
      </trkpt>
      <trkpt lat="42.482736" lon="0.863197">
        <ele>2012.708</ele>
        <time>2018-11-24T11:37:03Z</time>
      </trkpt>
      <trkpt lat="42.482801" lon="0.863149">
        <ele>2012.208</ele>
        <time>2018-11-24T11:37:04Z</time>
      </trkpt>
      <trkpt lat="42.482871" lon="0.863103">
        <ele>2011.685</ele>
        <time>2018-11-24T11:37:05Z</time>
      </trkpt>
      <trkpt lat="42.482945" lon="0.863055">
        <ele>2011.062</ele>
        <time>2018-11-24T11:37:06Z</time>
      </trkpt>
      <trkpt lat="42.483022" lon="0.863005">
        <ele>2010.349</ele>
        <time>2018-11-24T11:37:07Z</time>
      </trkpt>
      <trkpt lat="42.483102" lon="0.862954">
        <ele>2009.769</ele>
        <time>2018-11-24T11:37:08Z</time>
      </trkpt>
      <trkpt lat="42.483183" lon="0.862902">
        <ele>2008.911</ele>
        <time>2018-11-24T11:37:09Z</time>
      </trkpt>
      <trkpt lat="42.483268" lon="0.862849">
        <ele>2008.311</ele>
        <time>2018-11-24T11:37:10Z</time>
      </trkpt>
      <trkpt lat="42.483354" lon="0.862795">
        <ele>2007.443</ele>
        <time>2018-11-24T11:37:11Z</time>
      </trkpt>
      <trkpt lat="42.483441" lon="0.862738">
        <ele>2006.851</ele>
        <time>2018-11-24T11:37:12Z</time>
      </trkpt>
      <trkpt lat="42.483531" lon="0.862682">
        <ele>2005.951</ele>
        <time>2018-11-24T11:37:13Z</time>
      </trkpt>
      <trkpt lat="42.483622" lon="0.862627">
        <ele>2005.101</ele>
        <time>2018-11-24T11:37:14Z</time>
      </trkpt>
      <trkpt lat="42.483715" lon="0.862572">
        <ele>2004.111</ele>
        <time>2018-11-24T11:37:15Z</time>
      </trkpt>
      <trkpt lat="42.483809" lon="0.862516">
        <ele>2003.408</ele>
        <time>2018-11-24T11:37:16Z</time>
      </trkpt>
      <trkpt lat="42.483901" lon="0.862459">
        <ele>2002.428</ele>
        <time>2018-11-24T11:37:17Z</time>
      </trkpt>
      <trkpt lat="42.483993" lon="0.862402">
        <ele>2001.695</ele>
        <time>2018-11-24T11:37:18Z</time>
      </trkpt>
      <trkpt lat="42.484085" lon="0.862345">
        <ele>2000.882</ele>
        <time>2018-11-24T11:37:19Z</time>
      </trkpt>
      <trkpt lat="42.484178" lon="0.862290">
        <ele>2000.162</ele>
        <time>2018-11-24T11:37:20Z</time>
      </trkpt>
      <trkpt lat="42.484271" lon="0.862235">
        <ele>1999.394</ele>
        <time>2018-11-24T11:37:21Z</time>
      </trkpt>
      <trkpt lat="42.484366" lon="0.862180">
        <ele>1998.584</ele>
        <time>2018-11-24T11:37:22Z</time>
      </trkpt>
      <trkpt lat="42.484460" lon="0.862126">
        <ele>1997.516</ele>
        <time>2018-11-24T11:37:23Z</time>
      </trkpt>
      <trkpt lat="42.484553" lon="0.862076">
        <ele>1996.624</ele>
        <time>2018-11-24T11:37:24Z</time>
      </trkpt>
      <trkpt lat="42.484648" lon="0.862033">
        <ele>1995.758</ele>
        <time>2018-11-24T11:37:25Z</time>
      </trkpt>
      <trkpt lat="42.484744" lon="0.861990">
        <ele>1995.052</ele>
        <time>2018-11-24T11:37:26Z</time>
      </trkpt>
      <trkpt lat="42.484844" lon="0.861968">
        <ele>1994.317</ele>
        <time>2018-11-24T11:37:27Z</time>
      </trkpt>
      <trkpt lat="42.484947" lon="0.861963">
        <ele>1993.408</ele>
        <time>2018-11-24T11:37:28Z</time>
      </trkpt>
      <trkpt lat="42.485044" lon="0.861967">
        <ele>1992.538</ele>
        <time>2018-11-24T11:37:29Z</time>
      </trkpt>
      <trkpt lat="42.485135" lon="0.861973">
        <ele>1991.635</ele>
        <time>2018-11-24T11:37:30Z</time>
      </trkpt>
      <trkpt lat="42.485222" lon="0.861982">
        <ele>1990.952</ele>
        <time>2018-11-24T11:37:31Z</time>
      </trkpt>
      <trkpt lat="42.485302" lon="0.861998">
        <ele>1990.012</ele>
        <time>2018-11-24T11:37:32Z</time>
      </trkpt>
      <trkpt lat="42.485375" lon="0.862030">
        <ele>1989.494</ele>
        <time>2018-11-24T11:37:33Z</time>
      </trkpt>
      <trkpt lat="42.485438" lon="0.862080">
        <ele>1989.014</ele>
        <time>2018-11-24T11:37:34Z</time>
      </trkpt>
      <trkpt lat="42.485500" lon="0.862134">
        <ele>1988.826</ele>
        <time>2018-11-24T11:37:35Z</time>
      </trkpt>
      <trkpt lat="42.485537" lon="0.862223">
        <ele>1988.444</ele>
        <time>2018-11-24T11:37:36Z</time>
      </trkpt>
      <trkpt lat="42.485545" lon="0.862328">
        <ele>1988.175</ele>
        <time>2018-11-24T11:37:37Z</time>
      </trkpt>
      <trkpt lat="42.485531" lon="0.862428">
        <ele>1987.928</ele>
        <time>2018-11-24T11:37:38Z</time>
      </trkpt>
      <trkpt lat="42.485497" lon="0.862516">
        <ele>1987.620</ele>
        <time>2018-11-24T11:37:39Z</time>
      </trkpt>
      <trkpt lat="42.485461" lon="0.862604">
        <ele>1987.308</ele>
        <time>2018-11-24T11:37:40Z</time>
      </trkpt>
      <trkpt lat="42.485403" lon="0.862665">
        <ele>1986.950</ele>
        <time>2018-11-24T11:37:41Z</time>
      </trkpt>
      <trkpt lat="42.485334" lon="0.862701">
        <ele>1986.567</ele>
        <time>2018-11-24T11:37:42Z</time>
      </trkpt>
      <trkpt lat="42.485257" lon="0.862711">
        <ele>1986.144</ele>
        <time>2018-11-24T11:37:43Z</time>
      </trkpt>
      <trkpt lat="42.485179" lon="0.862693">
        <ele>1985.834</ele>
        <time>2018-11-24T11:37:44Z</time>
      </trkpt>
      <trkpt lat="42.485096" lon="0.862660">
        <ele>1985.236</ele>
        <time>2018-11-24T11:37:45Z</time>
      </trkpt>
      <trkpt lat="42.485006" lon="0.862638">
        <ele>1984.356</ele>
        <time>2018-11-24T11:37:46Z</time>
      </trkpt>
      <trkpt lat="42.484912" lon="0.862639">
        <ele>1983.838</ele>
        <time>2018-11-24T11:37:47Z</time>
      </trkpt>
      <trkpt lat="42.484815" lon="0.862666">
        <ele>1983.216</ele>
        <time>2018-11-24T11:37:48Z</time>
      </trkpt>
      <trkpt lat="42.484726" lon="0.862719">
        <ele>1982.476</ele>
        <time>2018-11-24T11:37:49Z</time>
      </trkpt>
      <trkpt lat="42.484641" lon="0.862787">
        <ele>1981.790</ele>
        <time>2018-11-24T11:37:50Z</time>
      </trkpt>
      <trkpt lat="42.484559" lon="0.862868">
        <ele>1981.019</ele>
        <time>2018-11-24T11:37:51Z</time>
      </trkpt>
      <trkpt lat="42.484478" lon="0.862951">
        <ele>1980.208</ele>
        <time>2018-11-24T11:37:52Z</time>
      </trkpt>
      <trkpt lat="42.484397" lon="0.863040">
        <ele>1979.680</ele>
        <time>2018-11-24T11:37:53Z</time>
      </trkpt>
      <trkpt lat="42.484318" lon="0.863133">
        <ele>1978.897</ele>
        <time>2018-11-24T11:37:54Z</time>
      </trkpt>
      <trkpt lat="42.484246" lon="0.863232">
        <ele>1978.094</ele>
        <time>2018-11-24T11:37:55Z</time>
      </trkpt>
      <trkpt lat="42.484181" lon="0.863336">
        <ele>1976.844</ele>
        <time>2018-11-24T11:37:56Z</time>
      </trkpt>
      <trkpt lat="42.484123" lon="0.863444">
        <ele>1976.086</ele>
        <time>2018-11-24T11:37:57Z</time>
      </trkpt>
      <trkpt lat="42.484074" lon="0.863559">
        <ele>1975.226</ele>
        <time>2018-11-24T11:37:58Z</time>
      </trkpt>
      <trkpt lat="42.484032" lon="0.863682">
        <ele>1974.728</ele>
        <time>2018-11-24T11:37:59Z</time>
      </trkpt>
      <trkpt lat="42.483992" lon="0.863810">
        <ele>1974.056</ele>
        <time>2018-11-24T11:38:00Z</time>
      </trkpt>
      <trkpt lat="42.483950" lon="0.863942">
        <ele>1974.959</ele>
        <time>2018-11-24T11:38:01Z</time>
      </trkpt>
      <trkpt lat="42.483911" lon="0.864081">
        <ele>1972.603</ele>
        <time>2018-11-24T11:38:02Z</time>
      </trkpt>
      <trkpt lat="42.483871" lon="0.864220">
        <ele>1971.623</ele>
        <time>2018-11-24T11:38:03Z</time>
      </trkpt>
      <trkpt lat="42.483827" lon="0.864357">
        <ele>1970.908</ele>
        <time>2018-11-24T11:38:04Z</time>
      </trkpt>
      <trkpt lat="42.483777" lon="0.864491">
        <ele>1970.268</ele>
        <time>2018-11-24T11:38:05Z</time>
      </trkpt>
      <trkpt lat="42.483717" lon="0.864615">
        <ele>1969.525</ele>
        <time>2018-11-24T11:38:06Z</time>
      </trkpt>
      <trkpt lat="42.483655" lon="0.864736">
        <ele>1968.832</ele>
        <time>2018-11-24T11:38:07Z</time>
      </trkpt>
      <trkpt lat="42.483575" lon="0.864830">
        <ele>1967.872</ele>
        <time>2018-11-24T11:38:08Z</time>
      </trkpt>
      <trkpt lat="42.483491" lon="0.864905">
        <ele>1966.944</ele>
        <time>2018-11-24T11:38:09Z</time>
      </trkpt>
      <trkpt lat="42.483414" lon="0.864974">
        <ele>1966.044</ele>
        <time>2018-11-24T11:38:10Z</time>
      </trkpt>
      <trkpt lat="42.483347" lon="0.865044">
        <ele>1965.366</ele>
        <time>2018-11-24T11:38:11Z</time>
      </trkpt>
      <trkpt lat="42.483292" lon="0.865113">
        <ele>1964.454</ele>
        <time>2018-11-24T11:38:12Z</time>
      </trkpt>
      <trkpt lat="42.483244" lon="0.865184">
        <ele>1963.931</ele>
        <time>2018-11-24T11:38:13Z</time>
      </trkpt>
      <trkpt lat="42.483207" lon="0.865266">
        <ele>1963.361</ele>
        <time>2018-11-24T11:38:14Z</time>
      </trkpt>
      <trkpt lat="42.483187" lon="0.865354">
        <ele>1962.907</ele>
        <time>2018-11-24T11:38:15Z</time>
      </trkpt>
      <trkpt lat="42.483167" lon="0.865445">
        <ele>1962.508</ele>
        <time>2018-11-24T11:38:16Z</time>
      </trkpt>
      <trkpt lat="42.483178" lon="0.865540">
        <ele>1962.236</ele>
        <time>2018-11-24T11:38:17Z</time>
      </trkpt>
      <trkpt lat="42.483208" lon="0.865629">
        <ele>1961.763</ele>
        <time>2018-11-24T11:38:18Z</time>
      </trkpt>
      <trkpt lat="42.483242" lon="0.865716">
        <ele>1961.460</ele>
        <time>2018-11-24T11:38:19Z</time>
      </trkpt>
      <trkpt lat="42.483311" lon="0.865759">
        <ele>1960.950</ele>
        <time>2018-11-24T11:38:20Z</time>
      </trkpt>
      <trkpt lat="42.483396" lon="0.865770">
        <ele>1960.632</ele>
        <time>2018-11-24T11:38:21Z</time>
      </trkpt>
      <trkpt lat="42.483484" lon="0.865771">
        <ele>1960.242</ele>
        <time>2018-11-24T11:38:22Z</time>
      </trkpt>
      <trkpt lat="42.483571" lon="0.865710">
        <ele>1959.754</ele>
        <time>2018-11-24T11:38:23Z</time>
      </trkpt>
      <trkpt lat="42.483651" lon="0.865626">
        <ele>1959.192</ele>
        <time>2018-11-24T11:38:24Z</time>
      </trkpt>
      <trkpt lat="42.483730" lon="0.865530">
        <ele>1958.622</ele>
        <time>2018-11-24T11:38:25Z</time>
      </trkpt>
      <trkpt lat="42.483809" lon="0.865424">
        <ele>1957.962</ele>
        <time>2018-11-24T11:38:26Z</time>
      </trkpt>
      <trkpt lat="42.483892" lon="0.865306">
        <ele>1957.408</ele>
        <time>2018-11-24T11:38:27Z</time>
      </trkpt>
      <trkpt lat="42.483979" lon="0.865183">
        <ele>1956.908</ele>
        <time>2018-11-24T11:38:28Z</time>
      </trkpt>
      <trkpt lat="42.484070" lon="0.865056">
        <ele>1956.125</ele>
        <time>2018-11-24T11:38:29Z</time>
      </trkpt>
      <trkpt lat="42.484163" lon="0.864930">
        <ele>1955.312</ele>
        <time>2018-11-24T11:38:30Z</time>
      </trkpt>
      <trkpt lat="42.484250" lon="0.864806">
        <ele>1954.499</ele>
        <time>2018-11-24T11:38:31Z</time>
      </trkpt>
      <trkpt lat="42.484332" lon="0.864684">
        <ele>1953.659</ele>
        <time>2018-11-24T11:38:32Z</time>
      </trkpt>
      <trkpt lat="42.484385" lon="0.864546">
        <ele>1952.641</ele>
        <time>2018-11-24T11:38:33Z</time>
      </trkpt>
      <trkpt lat="42.484436" lon="0.864410">
        <ele>1951.971</ele>
        <time>2018-11-24T11:38:34Z</time>
      </trkpt>
      <trkpt lat="42.484469" lon="0.864273">
        <ele>1950.953</ele>
        <time>2018-11-24T11:38:35Z</time>
      </trkpt>
      <trkpt lat="42.484503" lon="0.864140">
        <ele>1950.061</ele>
        <time>2018-11-24T11:38:36Z</time>
      </trkpt>
      <trkpt lat="42.484570" lon="0.864038">
        <ele>1949.237</ele>
        <time>2018-11-24T11:38:37Z</time>
      </trkpt>
      <trkpt lat="42.484642" lon="0.863933">
        <ele>1948.849</ele>
        <time>2018-11-24T11:38:38Z</time>
      </trkpt>
      <trkpt lat="42.484750" lon="0.863872">
        <ele>1948.113</ele>
        <time>2018-11-24T11:38:39Z</time>
      </trkpt>
      <trkpt lat="42.484868" lon="0.863838">
        <ele>1947.408</ele>
        <time>2018-11-24T11:38:40Z</time>
      </trkpt>
      <trkpt lat="42.484987" lon="0.863805">
        <ele>1946.196</ele>
        <time>2018-11-24T11:38:41Z</time>
      </trkpt>
      <trkpt lat="42.485106" lon="0.863771">
        <ele>1945.443</ele>
        <time>2018-11-24T11:38:42Z</time>
      </trkpt>
      <trkpt lat="42.485221" lon="0.863740">
        <ele>1945.060</ele>
        <time>2018-11-24T11:38:43Z</time>
      </trkpt>
      <trkpt lat="42.485337" lon="0.863708">
        <ele>1944.420</ele>
        <time>2018-11-24T11:38:44Z</time>
      </trkpt>
      <trkpt lat="42.485451" lon="0.863676">
        <ele>1943.422</ele>
        <time>2018-11-24T11:38:45Z</time>
      </trkpt>
      <trkpt lat="42.485565" lon="0.863652">
        <ele>1942.812</ele>
        <time>2018-11-24T11:38:46Z</time>
      </trkpt>
      <trkpt lat="42.485676" lon="0.863621">
        <ele>1941.854</ele>
        <time>2018-11-24T11:38:47Z</time>
      </trkpt>
      <trkpt lat="42.485787" lon="0.863595">
        <ele>1940.992</ele>
        <time>2018-11-24T11:38:48Z</time>
      </trkpt>
      <trkpt lat="42.485893" lon="0.863568">
        <ele>1940.172</ele>
        <time>2018-11-24T11:38:49Z</time>
      </trkpt>
      <trkpt lat="42.485999" lon="0.863548">
        <ele>1939.213</ele>
        <time>2018-11-24T11:38:50Z</time>
      </trkpt>
      <trkpt lat="42.486104" lon="0.863526">
        <ele>1938.414</ele>
        <time>2018-11-24T11:38:51Z</time>
      </trkpt>
      <trkpt lat="42.486213" lon="0.863505">
        <ele>1937.708</ele>
        <time>2018-11-24T11:38:52Z</time>
      </trkpt>
      <trkpt lat="42.486330" lon="0.863483">
        <ele>1937.060</ele>
        <time>2018-11-24T11:38:53Z</time>
      </trkpt>
      <trkpt lat="42.486449" lon="0.863458">
        <ele>1936.477</ele>
        <time>2018-11-24T11:38:54Z</time>
      </trkpt>
      <trkpt lat="42.486569" lon="0.863435">
        <ele>1935.714</ele>
        <time>2018-11-24T11:38:55Z</time>
      </trkpt>
      <trkpt lat="42.486689" lon="0.863411">
        <ele>1934.854</ele>
        <time>2018-11-24T11:38:56Z</time>
      </trkpt>
      <trkpt lat="42.486808" lon="0.863385">
        <ele>1933.716</ele>
        <time>2018-11-24T11:38:57Z</time>
      </trkpt>
      <trkpt lat="42.486917" lon="0.863364">
        <ele>1932.876</ele>
        <time>2018-11-24T11:38:58Z</time>
      </trkpt>
      <trkpt lat="42.487020" lon="0.863344">
        <ele>1932.038</ele>
        <time>2018-11-24T11:38:59Z</time>
      </trkpt>
      <trkpt lat="42.487117" lon="0.863328">
        <ele>1931.326</ele>
        <time>2018-11-24T11:39:00Z</time>
      </trkpt>
      <trkpt lat="42.487209" lon="0.863325">
        <ele>1930.559</ele>
        <time>2018-11-24T11:39:01Z</time>
      </trkpt>
      <trkpt lat="42.487298" lon="0.863326">
        <ele>1929.903</ele>
        <time>2018-11-24T11:39:02Z</time>
      </trkpt>
      <trkpt lat="42.487378" lon="0.863358">
        <ele>1929.023</ele>
        <time>2018-11-24T11:39:03Z</time>
      </trkpt>
      <trkpt lat="42.487432" lon="0.863439">
        <ele>1928.408</ele>
        <time>2018-11-24T11:39:04Z</time>
      </trkpt>
      <trkpt lat="42.487455" lon="0.863548">
        <ele>1927.848</ele>
        <time>2018-11-24T11:39:05Z</time>
      </trkpt>
      <trkpt lat="42.487470" lon="0.863648">
        <ele>1927.325</ele>
        <time>2018-11-24T11:39:06Z</time>
      </trkpt>
      <trkpt lat="42.487431" lon="0.863745">
        <ele>1926.962</ele>
        <time>2018-11-24T11:39:07Z</time>
      </trkpt>
      <trkpt lat="42.487363" lon="0.863820">
        <ele>1926.752</ele>
        <time>2018-11-24T11:39:08Z</time>
      </trkpt>
      <trkpt lat="42.487287" lon="0.863894">
        <ele>1926.384</ele>
        <time>2018-11-24T11:39:09Z</time>
      </trkpt>
      <trkpt lat="42.487188" lon="0.863926">
        <ele>1925.524</ele>
        <time>2018-11-24T11:39:10Z</time>
      </trkpt>
      <trkpt lat="42.487081" lon="0.863953">
        <ele>1924.796</ele>
        <time>2018-11-24T11:39:11Z</time>
      </trkpt>
      <trkpt lat="42.486970" lon="0.863980">
        <ele>1924.274</ele>
        <time>2018-11-24T11:39:12Z</time>
      </trkpt>
      <trkpt lat="42.486853" lon="0.864011">
        <ele>1923.539</ele>
        <time>2018-11-24T11:39:13Z</time>
      </trkpt>
      <trkpt lat="42.486737" lon="0.864044">
        <ele>1922.401</ele>
        <time>2018-11-24T11:39:14Z</time>
      </trkpt>
      <trkpt lat="42.486619" lon="0.864074">
        <ele>1921.621</ele>
        <time>2018-11-24T11:39:15Z</time>
      </trkpt>
      <trkpt lat="42.486502" lon="0.864108">
        <ele>1920.708</ele>
        <time>2018-11-24T11:39:16Z</time>
      </trkpt>
      <trkpt lat="42.486388" lon="0.864139">
        <ele>1919.836</ele>
        <time>2018-11-24T11:39:17Z</time>
      </trkpt>
      <trkpt lat="42.486288" lon="0.864170">
        <ele>1918.723</ele>
        <time>2018-11-24T11:39:18Z</time>
      </trkpt>
      <trkpt lat="42.486196" lon="0.864201">
        <ele>1917.820</ele>
        <time>2018-11-24T11:39:19Z</time>
      </trkpt>
      <trkpt lat="42.486119" lon="0.864241">
        <ele>1917.080</ele>
        <time>2018-11-24T11:39:20Z</time>
      </trkpt>
      <trkpt lat="42.486057" lon="0.864302">
        <ele>1916.462</ele>
        <time>2018-11-24T11:39:21Z</time>
      </trkpt>
      <trkpt lat="42.486001" lon="0.864368">
        <ele>1915.782</ele>
        <time>2018-11-24T11:39:22Z</time>
      </trkpt>
      <trkpt lat="42.485980" lon="0.864469">
        <ele>1915.354</ele>
        <time>2018-11-24T11:39:23Z</time>
      </trkpt>
      <trkpt lat="42.486001" lon="0.864579">
        <ele>1914.812</ele>
        <time>2018-11-24T11:39:24Z</time>
      </trkpt>
      <trkpt lat="42.486027" lon="0.864692">
        <ele>1914.116</ele>
        <time>2018-11-24T11:39:25Z</time>
      </trkpt>
      <trkpt lat="42.486107" lon="0.864766">
        <ele>1913.476</ele>
        <time>2018-11-24T11:39:26Z</time>
      </trkpt>
      <trkpt lat="42.486197" lon="0.864815">
        <ele>1912.713</ele>
        <time>2018-11-24T11:39:27Z</time>
      </trkpt>
      <trkpt lat="42.486296" lon="0.864859">
        <ele>1911.908</ele>
        <time>2018-11-24T11:39:28Z</time>
      </trkpt>
      <trkpt lat="42.486403" lon="0.864895">
        <ele>1911.444</ele>
        <time>2018-11-24T11:39:29Z</time>
      </trkpt>
      <trkpt lat="42.486519" lon="0.864929">
        <ele>1910.681</ele>
        <time>2018-11-24T11:39:30Z</time>
      </trkpt>
      <trkpt lat="42.486638" lon="0.864952">
        <ele>1909.838</ele>
        <time>2018-11-24T11:39:31Z</time>
      </trkpt>
      <trkpt lat="42.486756" lon="0.864972">
        <ele>1908.958</ele>
        <time>2018-11-24T11:39:32Z</time>
      </trkpt>
      <trkpt lat="42.486875" lon="0.864962">
        <ele>1908.190</ele>
        <time>2018-11-24T11:39:33Z</time>
      </trkpt>
      <trkpt lat="42.486994" lon="0.864940">
        <ele>1907.220</ele>
        <time>2018-11-24T11:39:34Z</time>
      </trkpt>
      <trkpt lat="42.487111" lon="0.864910">
        <ele>1906.342</ele>
        <time>2018-11-24T11:39:35Z</time>
      </trkpt>
      <trkpt lat="42.487228" lon="0.864865">
        <ele>1905.410</ele>
        <time>2018-11-24T11:39:36Z</time>
      </trkpt>
      <trkpt lat="42.487344" lon="0.864811">
        <ele>1904.521</ele>
        <time>2018-11-24T11:39:37Z</time>
      </trkpt>
      <trkpt lat="42.487459" lon="0.864749">
        <ele>1903.641</ele>
        <time>2018-11-24T11:39:38Z</time>
      </trkpt>
      <trkpt lat="42.487574" lon="0.864688">
        <ele>1902.805</ele>
        <time>2018-11-24T11:39:39Z</time>
      </trkpt>
      <trkpt lat="42.487681" lon="0.864630">
        <ele>1901.608</ele>
        <time>2018-11-24T11:39:40Z</time>
      </trkpt>
      <trkpt lat="42.487783" lon="0.864581">
        <ele>1900.465</ele>
        <time>2018-11-24T11:39:41Z</time>
      </trkpt>
      <trkpt lat="42.487889" lon="0.864542">
        <ele>1899.392</ele>
        <time>2018-11-24T11:39:42Z</time>
      </trkpt>
      <trkpt lat="42.487998" lon="0.864524">
        <ele>1898.419</ele>
        <time>2018-11-24T11:39:43Z</time>
      </trkpt>
      <trkpt lat="42.488113" lon="0.864534">
        <ele>1897.619</ele>
        <time>2018-11-24T11:39:44Z</time>
      </trkpt>
      <trkpt lat="42.488234" lon="0.864572">
        <ele>1896.831</ele>
        <time>2018-11-24T11:39:45Z</time>
      </trkpt>
      <trkpt lat="42.488356" lon="0.864622">
        <ele>1895.951</ele>
        <time>2018-11-24T11:39:46Z</time>
      </trkpt>
      <trkpt lat="42.488479" lon="0.864672">
        <ele>1895.093</ele>
        <time>2018-11-24T11:39:47Z</time>
      </trkpt>
      <trkpt lat="42.488606" lon="0.864711">
        <ele>1894.141</ele>
        <time>2018-11-24T11:39:48Z</time>
      </trkpt>
      <trkpt lat="42.488735" lon="0.864739">
        <ele>1893.222</ele>
        <time>2018-11-24T11:39:49Z</time>
      </trkpt>
      <trkpt lat="42.488865" lon="0.864761">
        <ele>1891.962</ele>
        <time>2018-11-24T11:39:50Z</time>
      </trkpt>
      <trkpt lat="42.488997" lon="0.864772">
        <ele>1891.008</ele>
        <time>2018-11-24T11:39:51Z</time>
      </trkpt>
      <trkpt lat="42.489129" lon="0.864767">
        <ele>1890.008</ele>
        <time>2018-11-24T11:39:52Z</time>
      </trkpt>
      <trkpt lat="42.489261" lon="0.864747">
        <ele>1889.285</ele>
        <time>2018-11-24T11:39:53Z</time>
      </trkpt>
      <trkpt lat="42.489392" lon="0.864714">
        <ele>1888.162</ele>
        <time>2018-11-24T11:39:54Z</time>
      </trkpt>
      <trkpt lat="42.489528" lon="0.864669">
        <ele>1887.359</ele>
        <time>2018-11-24T11:39:55Z</time>
      </trkpt>
      <trkpt lat="42.489667" lon="0.864619">
        <ele>1886.399</ele>
        <time>2018-11-24T11:39:56Z</time>
      </trkpt>
      <trkpt lat="42.489808" lon="0.864567">
        <ele>1885.371</ele>
        <time>2018-11-24T11:39:57Z</time>
      </trkpt>
      <trkpt lat="42.489951" lon="0.864518">
        <ele>1884.161</ele>
        <time>2018-11-24T11:39:58Z</time>
      </trkpt>
      <trkpt lat="42.490097" lon="0.864478">
        <ele>1883.223</ele>
        <time>2018-11-24T11:39:59Z</time>
      </trkpt>
      <trkpt lat="42.490244" lon="0.864447">
        <ele>1881.761</ele>
        <time>2018-11-24T11:40:00Z</time>
      </trkpt>
      <trkpt lat="42.490387" lon="0.864424">
        <ele>1880.133</ele>
        <time>2018-11-24T11:40:01Z</time>
      </trkpt>
      <trkpt lat="42.490527" lon="0.864403">
        <ele>1879.723</ele>
        <time>2018-11-24T11:40:02Z</time>
      </trkpt>
      <trkpt lat="42.490662" lon="0.864382">
        <ele>1877.615</ele>
        <time>2018-11-24T11:40:03Z</time>
      </trkpt>
      <trkpt lat="42.490791" lon="0.864359">
        <ele>1876.508</ele>
        <time>2018-11-24T11:40:04Z</time>
      </trkpt>
      <trkpt lat="42.490920" lon="0.864325">
        <ele>1875.396</ele>
        <time>2018-11-24T11:40:05Z</time>
      </trkpt>
      <trkpt lat="42.491040" lon="0.864271">
        <ele>1874.343</ele>
        <time>2018-11-24T11:40:06Z</time>
      </trkpt>
      <trkpt lat="42.491148" lon="0.864200">
        <ele>1873.190</ele>
        <time>2018-11-24T11:40:07Z</time>
      </trkpt>
      <trkpt lat="42.491246" lon="0.864120">
        <ele>1872.070</ele>
        <time>2018-11-24T11:40:08Z</time>
      </trkpt>
      <trkpt lat="42.491338" lon="0.864041">
        <ele>1870.822</ele>
        <time>2018-11-24T11:40:09Z</time>
      </trkpt>
      <trkpt lat="42.491422" lon="0.863979">
        <ele>1869.912</ele>
        <time>2018-11-24T11:40:10Z</time>
      </trkpt>
      <trkpt lat="42.491510" lon="0.863939">
        <ele>1869.214</ele>
        <time>2018-11-24T11:40:11Z</time>
      </trkpt>
      <trkpt lat="42.491600" lon="0.863928">
        <ele>1868.582</ele>
        <time>2018-11-24T11:40:12Z</time>
      </trkpt>
      <trkpt lat="42.491690" lon="0.863945">
        <ele>1867.721</ele>
        <time>2018-11-24T11:40:13Z</time>
      </trkpt>
      <trkpt lat="42.491789" lon="0.863976">
        <ele>1867.341</ele>
        <time>2018-11-24T11:40:14Z</time>
      </trkpt>
      <trkpt lat="42.491896" lon="0.864007">
        <ele>1866.305</ele>
        <time>2018-11-24T11:40:15Z</time>
      </trkpt>
      <trkpt lat="42.492008" lon="0.864033">
        <ele>1865.608</ele>
        <time>2018-11-24T11:40:16Z</time>
      </trkpt>
      <trkpt lat="42.492125" lon="0.864054">
        <ele>1864.765</ele>
        <time>2018-11-24T11:40:17Z</time>
      </trkpt>
      <trkpt lat="42.492248" lon="0.864069">
        <ele>1863.952</ele>
        <time>2018-11-24T11:40:18Z</time>
      </trkpt>
      <trkpt lat="42.492378" lon="0.864084">
        <ele>1863.019</ele>
        <time>2018-11-24T11:40:19Z</time>
      </trkpt>
      <trkpt lat="42.492516" lon="0.864100">
        <ele>1862.349</ele>
        <time>2018-11-24T11:40:20Z</time>
      </trkpt>
      <trkpt lat="42.492660" lon="0.864111">
        <ele>1861.461</ele>
        <time>2018-11-24T11:40:21Z</time>
      </trkpt>
      <trkpt lat="42.492807" lon="0.864115">
        <ele>1860.531</ele>
        <time>2018-11-24T11:40:22Z</time>
      </trkpt>
      <trkpt lat="42.492956" lon="0.864109">
        <ele>1859.533</ele>
        <time>2018-11-24T11:40:23Z</time>
      </trkpt>
      <trkpt lat="42.493110" lon="0.864090">
        <ele>1858.731</ele>
        <time>2018-11-24T11:40:24Z</time>
      </trkpt>
      <trkpt lat="42.493266" lon="0.864066">
        <ele>1857.886</ele>
        <time>2018-11-24T11:40:25Z</time>
      </trkpt>
      <trkpt lat="42.493424" lon="0.864048">
        <ele>1856.860</ele>
        <time>2018-11-24T11:40:26Z</time>
      </trkpt>
      <trkpt lat="42.493583" lon="0.864041">
        <ele>1855.526</ele>
        <time>2018-11-24T11:40:27Z</time>
      </trkpt>
      <trkpt lat="42.493741" lon="0.864047">
        <ele>1854.508</ele>
        <time>2018-11-24T11:40:28Z</time>
      </trkpt>
      <trkpt lat="42.493893" lon="0.864056">
        <ele>1853.261</ele>
        <time>2018-11-24T11:40:29Z</time>
      </trkpt>
      <trkpt lat="42.494045" lon="0.864061">
        <ele>1852.328</ele>
        <time>2018-11-24T11:40:30Z</time>
      </trkpt>
      <trkpt lat="42.494198" lon="0.864059">
        <ele>1851.125</ele>
        <time>2018-11-24T11:40:31Z</time>
      </trkpt>
      <trkpt lat="42.494352" lon="0.864050">
        <ele>1850.185</ele>
        <time>2018-11-24T11:40:32Z</time>
      </trkpt>
      <trkpt lat="42.494506" lon="0.864032">
        <ele>1849.037</ele>
        <time>2018-11-24T11:40:33Z</time>
      </trkpt>
      <trkpt lat="42.494660" lon="0.864003">
        <ele>1848.187</ele>
        <time>2018-11-24T11:40:34Z</time>
      </trkpt>
      <trkpt lat="42.494813" lon="0.863961">
        <ele>1847.089</ele>
        <time>2018-11-24T11:40:35Z</time>
      </trkpt>
      <trkpt lat="42.494964" lon="0.863914">
        <ele>1845.747</ele>
        <time>2018-11-24T11:40:36Z</time>
      </trkpt>
      <trkpt lat="42.495104" lon="0.863854">
        <ele>1844.631</ele>
        <time>2018-11-24T11:40:37Z</time>
      </trkpt>
      <trkpt lat="42.495240" lon="0.863800">
        <ele>1843.561</ele>
        <time>2018-11-24T11:40:38Z</time>
      </trkpt>
      <trkpt lat="42.495372" lon="0.863762">
        <ele>1842.407</ele>
        <time>2018-11-24T11:40:39Z</time>
      </trkpt>
      <trkpt lat="42.495518" lon="0.863750">
        <ele>1841.508</ele>
        <time>2018-11-24T11:40:40Z</time>
      </trkpt>
      <trkpt lat="42.495664" lon="0.863757">
        <ele>1840.626</ele>
        <time>2018-11-24T11:40:41Z</time>
      </trkpt>
      <trkpt lat="42.495812" lon="0.863766">
        <ele>1839.583</ele>
        <time>2018-11-24T11:40:42Z</time>
      </trkpt>
      <trkpt lat="42.495960" lon="0.863775">
        <ele>1838.660</ele>
        <time>2018-11-24T11:40:43Z</time>
      </trkpt>
      <trkpt lat="42.496105" lon="0.863780">
        <ele>1837.630</ele>
        <time>2018-11-24T11:40:44Z</time>
      </trkpt>
      <trkpt lat="42.496252" lon="0.863781">
        <ele>1836.262</ele>
        <time>2018-11-24T11:40:45Z</time>
      </trkpt>
      <trkpt lat="42.496398" lon="0.863771">
        <ele>1835.382</ele>
        <time>2018-11-24T11:40:46Z</time>
      </trkpt>
      <trkpt lat="42.496546" lon="0.863753">
        <ele>1834.174</ele>
        <time>2018-11-24T11:40:47Z</time>
      </trkpt>
      <trkpt lat="42.496694" lon="0.863726">
        <ele>1833.192</ele>
        <time>2018-11-24T11:40:48Z</time>
      </trkpt>
      <trkpt lat="42.496840" lon="0.863690">
        <ele>1831.823</ele>
        <time>2018-11-24T11:40:49Z</time>
      </trkpt>
      <trkpt lat="42.496987" lon="0.863651">
        <ele>1830.683</ele>
        <time>2018-11-24T11:40:50Z</time>
      </trkpt>
      <trkpt lat="42.497127" lon="0.863605">
        <ele>1829.311</ele>
        <time>2018-11-24T11:40:51Z</time>
      </trkpt>
      <trkpt lat="42.497256" lon="0.863556">
        <ele>1828.208</ele>
        <time>2018-11-24T11:40:52Z</time>
      </trkpt>
      <trkpt lat="42.497377" lon="0.863496">
        <ele>1827.165</ele>
        <time>2018-11-24T11:40:53Z</time>
      </trkpt>
      <trkpt lat="42.497493" lon="0.863414">
        <ele>1826.222</ele>
        <time>2018-11-24T11:40:54Z</time>
      </trkpt>
      <trkpt lat="42.497597" lon="0.863307">
        <ele>1825.329</ele>
        <time>2018-11-24T11:40:55Z</time>
      </trkpt>
      <trkpt lat="42.497693" lon="0.863182">
        <ele>1824.249</ele>
        <time>2018-11-24T11:40:56Z</time>
      </trkpt>
      <trkpt lat="42.497787" lon="0.863054">
        <ele>1823.251</ele>
        <time>2018-11-24T11:40:57Z</time>
      </trkpt>
      <trkpt lat="42.497883" lon="0.862935">
        <ele>1822.231</ele>
        <time>2018-11-24T11:40:58Z</time>
      </trkpt>
      <trkpt lat="42.497990" lon="0.862825">
        <ele>1821.163</ele>
        <time>2018-11-24T11:40:59Z</time>
      </trkpt>
      <trkpt lat="42.498110" lon="0.862720">
        <ele>1820.231</ele>
        <time>2018-11-24T11:41:00Z</time>
      </trkpt>
      <trkpt lat="42.498238" lon="0.862621">
        <ele>1819.378</ele>
        <time>2018-11-24T11:41:01Z</time>
      </trkpt>
      <trkpt lat="42.498369" lon="0.862525">
        <ele>1818.433</ele>
        <time>2018-11-24T11:41:02Z</time>
      </trkpt>
      <trkpt lat="42.498504" lon="0.862438">
        <ele>1817.226</ele>
        <time>2018-11-24T11:41:03Z</time>
      </trkpt>
      <trkpt lat="42.498636" lon="0.862365">
        <ele>1816.008</ele>
        <time>2018-11-24T11:41:04Z</time>
      </trkpt>
      <trkpt lat="42.498760" lon="0.862316">
        <ele>1814.340</ele>
        <time>2018-11-24T11:41:05Z</time>
      </trkpt>
      <trkpt lat="42.498887" lon="0.862291">
        <ele>1813.257</ele>
        <time>2018-11-24T11:41:06Z</time>
      </trkpt>
      <trkpt lat="42.499005" lon="0.862273">
        <ele>1811.924</ele>
        <time>2018-11-24T11:41:07Z</time>
      </trkpt>
      <trkpt lat="42.499126" lon="0.862250">
        <ele>1811.174</ele>
        <time>2018-11-24T11:41:08Z</time>
      </trkpt>
      <trkpt lat="42.499242" lon="0.862216">
        <ele>1810.176</ele>
        <time>2018-11-24T11:41:09Z</time>
      </trkpt>
      <trkpt lat="42.499365" lon="0.862171">
        <ele>1809.356</ele>
        <time>2018-11-24T11:41:10Z</time>
      </trkpt>
      <trkpt lat="42.499487" lon="0.862099">
        <ele>1808.478</ele>
        <time>2018-11-24T11:41:11Z</time>
      </trkpt>
      <trkpt lat="42.499606" lon="0.862007">
        <ele>1807.576</ele>
        <time>2018-11-24T11:41:12Z</time>
      </trkpt>
      <trkpt lat="42.499723" lon="0.861896">
        <ele>1806.787</ele>
        <time>2018-11-24T11:41:13Z</time>
      </trkpt>
      <trkpt lat="42.499838" lon="0.861786">
        <ele>1805.642</ele>
        <time>2018-11-24T11:41:14Z</time>
      </trkpt>
      <trkpt lat="42.499956" lon="0.861686">
        <ele>1804.526</ele>
        <time>2018-11-24T11:41:15Z</time>
      </trkpt>
      <trkpt lat="42.500071" lon="0.861596">
        <ele>1803.408</ele>
        <time>2018-11-24T11:41:16Z</time>
      </trkpt>
      <trkpt lat="42.500182" lon="0.861511">
        <ele>1802.311</ele>
        <time>2018-11-24T11:41:17Z</time>
      </trkpt>
      <trkpt lat="42.500291" lon="0.861422">
        <ele>1801.058</ele>
        <time>2018-11-24T11:41:18Z</time>
      </trkpt>
      <trkpt lat="42.500403" lon="0.861336">
        <ele>1800.295</ele>
        <time>2018-11-24T11:41:19Z</time>
      </trkpt>
      <trkpt lat="42.500501" lon="0.861238">
        <ele>1799.255</ele>
        <time>2018-11-24T11:41:20Z</time>
      </trkpt>
      <trkpt lat="42.500587" lon="0.861122">
        <ele>1798.447</ele>
        <time>2018-11-24T11:41:21Z</time>
      </trkpt>
      <trkpt lat="42.500661" lon="0.860996">
        <ele>1797.327</ele>
        <time>2018-11-24T11:41:22Z</time>
      </trkpt>
      <trkpt lat="42.500722" lon="0.860862">
        <ele>1796.379</ele>
        <time>2018-11-24T11:41:23Z</time>
      </trkpt>
      <trkpt lat="42.500761" lon="0.860731">
        <ele>1795.577</ele>
        <time>2018-11-24T11:41:24Z</time>
      </trkpt>
      <trkpt lat="42.500798" lon="0.860592">
        <ele>1794.678</ele>
        <time>2018-11-24T11:41:25Z</time>
      </trkpt>
      <trkpt lat="42.500842" lon="0.860452">
        <ele>1793.933</ele>
        <time>2018-11-24T11:41:26Z</time>
      </trkpt>
      <trkpt lat="42.500888" lon="0.860296">
        <ele>1793.526</ele>
        <time>2018-11-24T11:41:27Z</time>
      </trkpt>
      <trkpt lat="42.500934" lon="0.860134">
        <ele>1792.708</ele>
        <time>2018-11-24T11:41:28Z</time>
      </trkpt>
      <trkpt lat="42.500987" lon="0.859965">
        <ele>1791.770</ele>
        <time>2018-11-24T11:41:29Z</time>
      </trkpt>
      <trkpt lat="42.501050" lon="0.859798">
        <ele>1790.467</ele>
        <time>2018-11-24T11:41:30Z</time>
      </trkpt>
      <trkpt lat="42.501120" lon="0.859638">
        <ele>1789.424</ele>
        <time>2018-11-24T11:41:31Z</time>
      </trkpt>
      <trkpt lat="42.501198" lon="0.859490">
        <ele>1788.174</ele>
        <time>2018-11-24T11:41:32Z</time>
      </trkpt>
      <trkpt lat="42.501275" lon="0.859347">
        <ele>1787.216</ele>
        <time>2018-11-24T11:41:33Z</time>
      </trkpt>
      <trkpt lat="42.501349" lon="0.859207">
        <ele>1786.136</ele>
        <time>2018-11-24T11:41:34Z</time>
      </trkpt>
      <trkpt lat="42.501417" lon="0.859071">
        <ele>1785.238</ele>
        <time>2018-11-24T11:41:35Z</time>
      </trkpt>
      <trkpt lat="42.501484" lon="0.858934">
        <ele>1784.256</ele>
        <time>2018-11-24T11:41:36Z</time>
      </trkpt>
      <trkpt lat="42.501544" lon="0.858786">
        <ele>1783.422</ele>
        <time>2018-11-24T11:41:37Z</time>
      </trkpt>
      <trkpt lat="42.501600" lon="0.858635">
        <ele>1782.462</ele>
        <time>2018-11-24T11:41:38Z</time>
      </trkpt>
      <trkpt lat="42.501642" lon="0.858469">
        <ele>1781.508</ele>
        <time>2018-11-24T11:41:39Z</time>
      </trkpt>
      <trkpt lat="42.501682" lon="0.858300">
        <ele>1780.508</ele>
        <time>2018-11-24T11:41:40Z</time>
      </trkpt>
      <trkpt lat="42.501705" lon="0.858132">
        <ele>1779.245</ele>
        <time>2018-11-24T11:41:41Z</time>
      </trkpt>
      <trkpt lat="42.501738" lon="0.857972">
        <ele>1778.062</ele>
        <time>2018-11-24T11:41:42Z</time>
      </trkpt>
      <trkpt lat="42.501782" lon="0.857827">
        <ele>1777.279</ele>
        <time>2018-11-24T11:41:43Z</time>
      </trkpt>
      <trkpt lat="42.501848" lon="0.857686">
        <ele>1776.269</ele>
        <time>2018-11-24T11:41:44Z</time>
      </trkpt>
      <trkpt lat="42.501939" lon="0.857566">
        <ele>1775.451</ele>
        <time>2018-11-24T11:41:45Z</time>
      </trkpt>
      <trkpt lat="42.502032" lon="0.857453">
        <ele>1774.761</ele>
        <time>2018-11-24T11:41:46Z</time>
      </trkpt>
      <trkpt lat="42.502159" lon="0.857390">
        <ele>1774.283</ele>
        <time>2018-11-24T11:41:47Z</time>
      </trkpt>
      <trkpt lat="42.502293" lon="0.857373">
        <ele>1773.561</ele>
        <time>2018-11-24T11:41:48Z</time>
      </trkpt>
      <trkpt lat="42.502427" lon="0.857386">
        <ele>1773.194</ele>
        <time>2018-11-24T11:41:49Z</time>
      </trkpt>
      <trkpt lat="42.502562" lon="0.857413">
        <ele>1772.957</ele>
        <time>2018-11-24T11:41:50Z</time>
      </trkpt>
      <trkpt lat="42.502695" lon="0.857471">
        <ele>1772.722</ele>
        <time>2018-11-24T11:41:51Z</time>
      </trkpt>
      <trkpt lat="42.502829" lon="0.857528">
        <ele>1772.408</ele>
        <time>2018-11-24T11:41:52Z</time>
      </trkpt>
      <trkpt lat="42.502956" lon="0.857614">
        <ele>1772.092</ele>
        <time>2018-11-24T11:41:53Z</time>
      </trkpt>
      <trkpt lat="42.503074" lon="0.857723">
        <ele>1771.779</ele>
        <time>2018-11-24T11:41:54Z</time>
      </trkpt>
      <trkpt lat="42.503177" lon="0.857851">
        <ele>1771.576</ele>
        <time>2018-11-24T11:41:55Z</time>
      </trkpt>
      <trkpt lat="42.503273" lon="0.858010">
        <ele>1771.426</ele>
        <time>2018-11-24T11:41:56Z</time>
      </trkpt>
      <trkpt lat="42.503358" lon="0.858176">
        <ele>1771.378</ele>
        <time>2018-11-24T11:41:57Z</time>
      </trkpt>
      <trkpt lat="42.503445" lon="0.858342">
        <ele>1771.038</ele>
        <time>2018-11-24T11:41:58Z</time>
      </trkpt>
      <trkpt lat="42.503509" lon="0.858520">
        <ele>1770.710</ele>
        <time>2018-11-24T11:41:59Z</time>
      </trkpt>
      <trkpt lat="42.503559" lon="0.858691">
        <ele>1770.398</ele>
        <time>2018-11-24T11:42:00Z</time>
      </trkpt>
      <trkpt lat="42.503593" lon="0.858865">
        <ele>1770.287</ele>
        <time>2018-11-24T11:42:01Z</time>
      </trkpt>
      <trkpt lat="42.503603" lon="0.859040">
        <ele>1769.742</ele>
        <time>2018-11-24T11:42:02Z</time>
      </trkpt>
      <trkpt lat="42.503606" lon="0.859216">
        <ele>1769.326</ele>
        <time>2018-11-24T11:42:03Z</time>
      </trkpt>
      <trkpt lat="42.503581" lon="0.859395">
        <ele>1768.608</ele>
        <time>2018-11-24T11:42:04Z</time>
      </trkpt>
      <trkpt lat="42.503542" lon="0.859564">
        <ele>1767.971</ele>
        <time>2018-11-24T11:42:05Z</time>
      </trkpt>
      <trkpt lat="42.503479" lon="0.859721">
        <ele>1767.178</ele>
        <time>2018-11-24T11:42:06Z</time>
      </trkpt>
      <trkpt lat="42.503402" lon="0.859863">
        <ele>1766.735</ele>
        <time>2018-11-24T11:42:07Z</time>
      </trkpt>
      <trkpt lat="42.503309" lon="0.859993">
        <ele>1766.015</ele>
        <time>2018-11-24T11:42:08Z</time>
      </trkpt>
      <trkpt lat="42.503206" lon="0.860111">
        <ele>1765.497</ele>
        <time>2018-11-24T11:42:09Z</time>
      </trkpt>
      <trkpt lat="42.503093" lon="0.860222">
        <ele>1764.637</ele>
        <time>2018-11-24T11:42:10Z</time>
      </trkpt>
      <trkpt lat="42.502980" lon="0.860330">
        <ele>1763.969</ele>
        <time>2018-11-24T11:42:11Z</time>
      </trkpt>
      <trkpt lat="42.502867" lon="0.860437">
        <ele>1763.087</ele>
        <time>2018-11-24T11:42:12Z</time>
      </trkpt>
      <trkpt lat="42.502754" lon="0.860538">
        <ele>1762.377</ele>
        <time>2018-11-24T11:42:13Z</time>
      </trkpt>
      <trkpt lat="42.502654" lon="0.860649">
        <ele>1761.461</ele>
        <time>2018-11-24T11:42:14Z</time>
      </trkpt>
      <trkpt lat="42.502571" lon="0.860775">
        <ele>1760.727</ele>
        <time>2018-11-24T11:42:15Z</time>
      </trkpt>
      <trkpt lat="42.502495" lon="0.860909">
        <ele>1759.708</ele>
        <time>2018-11-24T11:42:16Z</time>
      </trkpt>
      <trkpt lat="42.502454" lon="0.861059">
        <ele>1758.990</ele>
        <time>2018-11-24T11:42:17Z</time>
      </trkpt>
      <trkpt lat="42.502416" lon="0.861210">
        <ele>1758.387</ele>
        <time>2018-11-24T11:42:18Z</time>
      </trkpt>
      <trkpt lat="42.502411" lon="0.861367">
        <ele>1757.834</ele>
        <time>2018-11-24T11:42:19Z</time>
      </trkpt>
      <trkpt lat="42.502410" lon="0.861521">
        <ele>1757.074</ele>
        <time>2018-11-24T11:42:20Z</time>
      </trkpt>
      <trkpt lat="42.502413" lon="0.861672">
        <ele>1756.496</ele>
        <time>2018-11-24T11:42:21Z</time>
      </trkpt>
      <trkpt lat="42.502418" lon="0.861827">
        <ele>1755.856</ele>
        <time>2018-11-24T11:42:22Z</time>
      </trkpt>
      <trkpt lat="42.502418" lon="0.861977">
        <ele>1755.268</ele>
        <time>2018-11-24T11:42:23Z</time>
      </trkpt>
      <trkpt lat="42.502423" lon="0.862130">
        <ele>1754.826</ele>
        <time>2018-11-24T11:42:24Z</time>
      </trkpt>
      <trkpt lat="42.502399" lon="0.862280">
        <ele>1754.453</ele>
        <time>2018-11-24T11:42:25Z</time>
      </trkpt>
      <trkpt lat="42.502362" lon="0.862442">
        <ele>1754.104</ele>
        <time>2018-11-24T11:42:26Z</time>
      </trkpt>
      <trkpt lat="42.502301" lon="0.862600">
        <ele>1753.714</ele>
        <time>2018-11-24T11:42:27Z</time>
      </trkpt>
      <trkpt lat="42.502237" lon="0.862765">
        <ele>1753.108</ele>
        <time>2018-11-24T11:42:28Z</time>
      </trkpt>
      <trkpt lat="42.502166" lon="0.862926">
        <ele>1752.538</ele>
        <time>2018-11-24T11:42:29Z</time>
      </trkpt>
      <trkpt lat="42.502093" lon="0.863093">
        <ele>1751.915</ele>
        <time>2018-11-24T11:42:30Z</time>
      </trkpt>
      <trkpt lat="42.502015" lon="0.863261">
        <ele>1751.512</ele>
        <time>2018-11-24T11:42:31Z</time>
      </trkpt>
      <trkpt lat="42.501939" lon="0.863435">
        <ele>1750.722</ele>
        <time>2018-11-24T11:42:32Z</time>
      </trkpt>
      <trkpt lat="42.501874" lon="0.863600">
        <ele>1750.014</ele>
        <time>2018-11-24T11:42:33Z</time>
      </trkpt>
      <trkpt lat="42.501802" lon="0.863751">
        <ele>1749.054</ele>
        <time>2018-11-24T11:42:34Z</time>
      </trkpt>
      <trkpt lat="42.501739" lon="0.863898">
        <ele>1748.276</ele>
        <time>2018-11-24T11:42:35Z</time>
      </trkpt>
      <trkpt lat="42.501678" lon="0.864033">
        <ele>1747.444</ele>
        <time>2018-11-24T11:42:36Z</time>
      </trkpt>
      <trkpt lat="42.501624" lon="0.864166">
        <ele>1747.052</ele>
        <time>2018-11-24T11:42:37Z</time>
      </trkpt>
      <trkpt lat="42.501579" lon="0.864306">
        <ele>1746.453</ele>
        <time>2018-11-24T11:42:38Z</time>
      </trkpt>
      <trkpt lat="42.501553" lon="0.864459">
        <ele>1745.608</ele>
        <time>2018-11-24T11:42:39Z</time>
      </trkpt>
      <trkpt lat="42.501549" lon="0.864624">
        <ele>1744.908</ele>
        <time>2018-11-24T11:42:40Z</time>
      </trkpt>
      <trkpt lat="42.501546" lon="0.864790">
        <ele>1744.248</ele>
        <time>2018-11-24T11:42:41Z</time>
      </trkpt>
      <trkpt lat="42.501548" lon="0.864958">
        <ele>1743.695</ele>
        <time>2018-11-24T11:42:42Z</time>
      </trkpt>
      <trkpt lat="42.501570" lon="0.865122">
        <ele>1743.452</ele>
        <time>2018-11-24T11:42:43Z</time>
      </trkpt>
      <trkpt lat="42.501607" lon="0.865272">
        <ele>1743.282</ele>
        <time>2018-11-24T11:42:44Z</time>
      </trkpt>
      <trkpt lat="42.501650" lon="0.865412">
        <ele>1743.254</ele>
        <time>2018-11-24T11:42:45Z</time>
      </trkpt>
      <trkpt lat="42.501719" lon="0.865528">
        <ele>1743.454</ele>
        <time>2018-11-24T11:42:46Z</time>
      </trkpt>
      <trkpt lat="42.501821" lon="0.865611">
        <ele>1743.876</ele>
        <time>2018-11-24T11:42:47Z</time>
      </trkpt>
      <trkpt lat="42.501904" lon="0.865673">
        <ele>1744.324</ele>
        <time>2018-11-24T11:42:48Z</time>
      </trkpt>
      <trkpt lat="42.502022" lon="0.865717">
        <ele>1744.842</ele>
        <time>2018-11-24T11:42:49Z</time>
      </trkpt>
      <trkpt lat="42.502142" lon="0.865754">
        <ele>1745.422</ele>
        <time>2018-11-24T11:42:50Z</time>
      </trkpt>
      <trkpt lat="42.502271" lon="0.865790">
        <ele>1746.014</ele>
        <time>2018-11-24T11:42:51Z</time>
      </trkpt>
      <trkpt lat="42.502400" lon="0.865830">
        <ele>1746.908</ele>
        <time>2018-11-24T11:42:52Z</time>
      </trkpt>
      <trkpt lat="42.502525" lon="0.865886">
        <ele>1747.627</ele>
        <time>2018-11-24T11:42:53Z</time>
      </trkpt>
      <trkpt lat="42.502643" lon="0.865951">
        <ele>1748.144</ele>
        <time>2018-11-24T11:42:54Z</time>
      </trkpt>
      <trkpt lat="42.502759" lon="0.866026">
        <ele>1748.731</ele>
        <time>2018-11-24T11:42:55Z</time>
      </trkpt>
      <trkpt lat="42.502874" lon="0.866109">
        <ele>1749.451</ele>
        <time>2018-11-24T11:42:56Z</time>
      </trkpt>
      <trkpt lat="42.502989" lon="0.866198">
        <ele>1749.983</ele>
        <time>2018-11-24T11:42:57Z</time>
      </trkpt>
      <trkpt lat="42.503098" lon="0.866278">
        <ele>1750.643</ele>
        <time>2018-11-24T11:42:58Z</time>
      </trkpt>
      <trkpt lat="42.503203" lon="0.866351">
        <ele>1751.025</ele>
        <time>2018-11-24T11:42:59Z</time>
      </trkpt>
      <trkpt lat="42.503308" lon="0.866389">
        <ele>1751.493</ele>
        <time>2018-11-24T11:43:00Z</time>
      </trkpt>
      <trkpt lat="42.503416" lon="0.866394">
        <ele>1751.915</ele>
        <time>2018-11-24T11:43:01Z</time>
      </trkpt>
      <trkpt lat="42.503520" lon="0.866364">
        <ele>1752.465</ele>
        <time>2018-11-24T11:43:02Z</time>
      </trkpt>
      <trkpt lat="42.503625" lon="0.866326">
        <ele>1752.911</ele>
        <time>2018-11-24T11:43:03Z</time>
      </trkpt>
      <trkpt lat="42.503711" lon="0.866226">
        <ele>1753.508</ele>
        <time>2018-11-24T11:43:04Z</time>
      </trkpt>
      <trkpt lat="42.503780" lon="0.866099">
        <ele>1754.084</ele>
        <time>2018-11-24T11:43:05Z</time>
      </trkpt>
      <trkpt lat="42.503849" lon="0.865972">
        <ele>1754.461</ele>
        <time>2018-11-24T11:43:06Z</time>
      </trkpt>
      <trkpt lat="42.503928" lon="0.865860">
        <ele>1754.968</ele>
        <time>2018-11-24T11:43:07Z</time>
      </trkpt>
      <trkpt lat="42.504028" lon="0.865786">
        <ele>1755.458</ele>
        <time>2018-11-24T11:43:08Z</time>
      </trkpt>
      <trkpt lat="42.504131" lon="0.865721">
        <ele>1756.080</ele>
        <time>2018-11-24T11:43:09Z</time>
      </trkpt>
      <trkpt lat="42.504248" lon="0.865716">
        <ele>1756.880</ele>
        <time>2018-11-24T11:43:10Z</time>
      </trkpt>
      <trkpt lat="42.504365" lon="0.865746">
        <ele>1757.542</ele>
        <time>2018-11-24T11:43:11Z</time>
      </trkpt>
      <trkpt lat="42.504488" lon="0.865788">
        <ele>1758.150</ele>
        <time>2018-11-24T11:43:12Z</time>
      </trkpt>
      <trkpt lat="42.504606" lon="0.865856">
        <ele>1758.698</ele>
        <time>2018-11-24T11:43:13Z</time>
      </trkpt>
      <trkpt lat="42.504719" lon="0.865935">
        <ele>1759.015</ele>
        <time>2018-11-24T11:43:14Z</time>
      </trkpt>
      <trkpt lat="42.504819" lon="0.866010">
        <ele>1759.426</ele>
        <time>2018-11-24T11:43:15Z</time>
      </trkpt>
      <trkpt lat="42.504911" lon="0.866087">
        <ele>1759.908</ele>
        <time>2018-11-24T11:43:16Z</time>
      </trkpt>
      <trkpt lat="42.504993" lon="0.866164">
        <ele>1760.432</ele>
        <time>2018-11-24T11:43:17Z</time>
      </trkpt>
      <trkpt lat="42.505066" lon="0.866245">
        <ele>1760.969</ele>
        <time>2018-11-24T11:43:18Z</time>
      </trkpt>
      <trkpt lat="42.505129" lon="0.866325">
        <ele>1761.136</ele>
        <time>2018-11-24T11:43:19Z</time>
      </trkpt>
      <trkpt lat="42.505189" lon="0.866409">
        <ele>1761.426</ele>
        <time>2018-11-24T11:43:20Z</time>
      </trkpt>
      <trkpt lat="42.505251" lon="0.866508">
        <ele>1761.518</ele>
        <time>2018-11-24T11:43:21Z</time>
      </trkpt>
      <trkpt lat="42.505318" lon="0.866619">
        <ele>1761.438</ele>
        <time>2018-11-24T11:43:22Z</time>
      </trkpt>
      <trkpt lat="42.505383" lon="0.866739">
        <ele>1761.130</ele>
        <time>2018-11-24T11:43:23Z</time>
      </trkpt>
      <trkpt lat="42.505451" lon="0.866870">
        <ele>1760.518</ele>
        <time>2018-11-24T11:43:24Z</time>
      </trkpt>
      <trkpt lat="42.505518" lon="0.867001">
        <ele>1759.692</ele>
        <time>2018-11-24T11:43:25Z</time>
      </trkpt>
      <trkpt lat="42.505585" lon="0.867131">
        <ele>1758.773</ele>
        <time>2018-11-24T11:43:26Z</time>
      </trkpt>
      <trkpt lat="42.505650" lon="0.867259">
        <ele>1757.520</ele>
        <time>2018-11-24T11:43:27Z</time>
      </trkpt>
      <trkpt lat="42.505713" lon="0.867389">
        <ele>1756.508</ele>
        <time>2018-11-24T11:43:28Z</time>
      </trkpt>
      <trkpt lat="42.505775" lon="0.867520">
        <ele>1755.842</ele>
        <time>2018-11-24T11:43:29Z</time>
      </trkpt>
      <trkpt lat="42.505837" lon="0.867653">
        <ele>1754.849</ele>
        <time>2018-11-24T11:43:30Z</time>
      </trkpt>
      <trkpt lat="42.505900" lon="0.867786">
        <ele>1753.776</ele>
        <time>2018-11-24T11:43:31Z</time>
      </trkpt>
      <trkpt lat="42.505962" lon="0.867923">
        <ele>1752.536</ele>
        <time>2018-11-24T11:43:32Z</time>
      </trkpt>
      <trkpt lat="42.506024" lon="0.868061">
        <ele>1751.668</ele>
        <time>2018-11-24T11:43:33Z</time>
      </trkpt>
      <trkpt lat="42.506086" lon="0.868200">
        <ele>1750.428</ele>
        <time>2018-11-24T11:43:34Z</time>
      </trkpt>
      <trkpt lat="42.506144" lon="0.868335">
        <ele>1749.540</ele>
        <time>2018-11-24T11:43:35Z</time>
      </trkpt>
      <trkpt lat="42.506199" lon="0.868463">
        <ele>1748.428</ele>
        <time>2018-11-24T11:43:36Z</time>
      </trkpt>
      <trkpt lat="42.506254" lon="0.868591">
        <ele>1747.594</ele>
        <time>2018-11-24T11:43:37Z</time>
      </trkpt>
      <trkpt lat="42.506307" lon="0.868722">
        <ele>1746.457</ele>
        <time>2018-11-24T11:43:38Z</time>
      </trkpt>
      <trkpt lat="42.506357" lon="0.868857">
        <ele>1745.622</ele>
        <time>2018-11-24T11:43:39Z</time>
      </trkpt>
      <trkpt lat="42.506402" lon="0.869000">
        <ele>1744.708</ele>
        <time>2018-11-24T11:43:40Z</time>
      </trkpt>
      <trkpt lat="42.506443" lon="0.869150">
        <ele>1743.842</ele>
        <time>2018-11-24T11:43:41Z</time>
      </trkpt>
      <trkpt lat="42.506482" lon="0.869302">
        <ele>1742.899</ele>
        <time>2018-11-24T11:43:42Z</time>
      </trkpt>
      <trkpt lat="42.506522" lon="0.869456">
        <ele>1742.066</ele>
        <time>2018-11-24T11:43:43Z</time>
      </trkpt>
      <trkpt lat="42.506561" lon="0.869610">
        <ele>1740.856</ele>
        <time>2018-11-24T11:43:44Z</time>
      </trkpt>
      <trkpt lat="42.506601" lon="0.869766">
        <ele>1740.038</ele>
        <time>2018-11-24T11:43:45Z</time>
      </trkpt>
      <trkpt lat="42.506642" lon="0.869921">
        <ele>1738.998</ele>
        <time>2018-11-24T11:43:46Z</time>
      </trkpt>
      <trkpt lat="42.506683" lon="0.870077">
        <ele>1738.140</ele>
        <time>2018-11-24T11:43:47Z</time>
      </trkpt>
      <trkpt lat="42.506725" lon="0.870233">
        <ele>1737.138</ele>
        <time>2018-11-24T11:43:48Z</time>
      </trkpt>
      <trkpt lat="42.506767" lon="0.870390">
        <ele>1736.282</ele>
        <time>2018-11-24T11:43:49Z</time>
      </trkpt>
      <trkpt lat="42.506810" lon="0.870548">
        <ele>1735.243</ele>
        <time>2018-11-24T11:43:50Z</time>
      </trkpt>
      <trkpt lat="42.506853" lon="0.870706">
        <ele>1734.317</ele>
        <time>2018-11-24T11:43:51Z</time>
      </trkpt>
      <trkpt lat="42.506895" lon="0.870865">
        <ele>1733.508</ele>
        <time>2018-11-24T11:43:52Z</time>
      </trkpt>
      <trkpt lat="42.506935" lon="0.871025">
        <ele>1732.531</ele>
        <time>2018-11-24T11:43:53Z</time>
      </trkpt>
      <trkpt lat="42.506967" lon="0.871187">
        <ele>1731.558</ele>
        <time>2018-11-24T11:43:54Z</time>
      </trkpt>
      <trkpt lat="42.506995" lon="0.871352">
        <ele>1730.735</ele>
        <time>2018-11-24T11:43:55Z</time>
      </trkpt>
      <trkpt lat="42.507019" lon="0.871517">
        <ele>1729.815</ele>
        <time>2018-11-24T11:43:56Z</time>
      </trkpt>
      <trkpt lat="42.507042" lon="0.871680">
        <ele>1728.947</ele>
        <time>2018-11-24T11:43:57Z</time>
      </trkpt>
      <trkpt lat="42.507065" lon="0.871841">
        <ele>1727.957</ele>
        <time>2018-11-24T11:43:58Z</time>
      </trkpt>
      <trkpt lat="42.507088" lon="0.871998">
        <ele>1727.059</ele>
        <time>2018-11-24T11:43:59Z</time>
      </trkpt>
      <trkpt lat="42.507111" lon="0.872149">
        <ele>1726.197</ele>
        <time>2018-11-24T11:44:00Z</time>
      </trkpt>
      <trkpt lat="42.507135" lon="0.872298">
        <ele>1725.578</ele>
        <time>2018-11-24T11:44:01Z</time>
      </trkpt>
      <trkpt lat="42.507163" lon="0.872448">
        <ele>1724.633</ele>
        <time>2018-11-24T11:44:02Z</time>
      </trkpt>
      <trkpt lat="42.507190" lon="0.872598">
        <ele>1723.826</ele>
        <time>2018-11-24T11:44:03Z</time>
      </trkpt>
      <trkpt lat="42.507228" lon="0.872744">
        <ele>1723.008</ele>
        <time>2018-11-24T11:44:04Z</time>
      </trkpt>
      <trkpt lat="42.507274" lon="0.872887">
        <ele>1722.260</ele>
        <time>2018-11-24T11:44:05Z</time>
      </trkpt>
      <trkpt lat="42.507330" lon="0.873026">
        <ele>1721.477</ele>
        <time>2018-11-24T11:44:06Z</time>
      </trkpt>
      <trkpt lat="42.507392" lon="0.873160">
        <ele>1720.654</ele>
        <time>2018-11-24T11:44:07Z</time>
      </trkpt>
      <trkpt lat="42.507458" lon="0.873291">
        <ele>1719.744</ele>
        <time>2018-11-24T11:44:08Z</time>
      </trkpt>
      <trkpt lat="42.507534" lon="0.873419">
        <ele>1718.916</ele>
        <time>2018-11-24T11:44:09Z</time>
      </trkpt>
      <trkpt lat="42.507615" lon="0.873545">
        <ele>1717.966</ele>
        <time>2018-11-24T11:44:10Z</time>
      </trkpt>
      <trkpt lat="42.507700" lon="0.873667">
        <ele>1717.168</ele>
        <time>2018-11-24T11:44:11Z</time>
      </trkpt>
      <trkpt lat="42.507787" lon="0.873784">
        <ele>1716.276</ele>
        <time>2018-11-24T11:44:12Z</time>
      </trkpt>
      <trkpt lat="42.507871" lon="0.873898">
        <ele>1715.365</ele>
        <time>2018-11-24T11:44:13Z</time>
      </trkpt>
      <trkpt lat="42.507951" lon="0.874012">
        <ele>1714.568</ele>
        <time>2018-11-24T11:44:14Z</time>
      </trkpt>
      <trkpt lat="42.508033" lon="0.874133">
        <ele>1713.814</ele>
        <time>2018-11-24T11:44:15Z</time>
      </trkpt>
      <trkpt lat="42.508115" lon="0.874260">
        <ele>1713.008</ele>
        <time>2018-11-24T11:44:16Z</time>
      </trkpt>
      <trkpt lat="42.508187" lon="0.874405">
        <ele>1712.229</ele>
        <time>2018-11-24T11:44:17Z</time>
      </trkpt>
      <trkpt lat="42.508255" lon="0.874558">
        <ele>1711.326</ele>
        <time>2018-11-24T11:44:18Z</time>
      </trkpt>
      <trkpt lat="42.508307" lon="0.874722">
        <ele>1710.363</ele>
        <time>2018-11-24T11:44:19Z</time>
      </trkpt>
      <trkpt lat="42.508350" lon="0.874892">
        <ele>1709.243</ele>
        <time>2018-11-24T11:44:20Z</time>
      </trkpt>
      <trkpt lat="42.508383" lon="0.875066">
        <ele>1708.315</ele>
        <time>2018-11-24T11:44:21Z</time>
      </trkpt>
      <trkpt lat="42.508414" lon="0.875242">
        <ele>1707.135</ele>
        <time>2018-11-24T11:44:22Z</time>
      </trkpt>
      <trkpt lat="42.508431" lon="0.875418">
        <ele>1706.397</ele>
        <time>2018-11-24T11:44:23Z</time>
      </trkpt>
      <trkpt lat="42.508445" lon="0.875577">
        <ele>1704.965</ele>
        <time>2018-11-24T11:44:24Z</time>
      </trkpt>
      <trkpt lat="42.508457" lon="0.875711">
        <ele>1703.798</ele>
        <time>2018-11-24T11:44:25Z</time>
      </trkpt>
      <trkpt lat="42.508468" lon="0.875835">
        <ele>1702.715</ele>
        <time>2018-11-24T11:44:26Z</time>
      </trkpt>
      <trkpt lat="42.508479" lon="0.875948">
        <ele>1702.026</ele>
        <time>2018-11-24T11:44:27Z</time>
      </trkpt>
      <trkpt lat="42.508487" lon="0.876056">
        <ele>1701.408</ele>
        <time>2018-11-24T11:44:28Z</time>
      </trkpt>
      <trkpt lat="42.508497" lon="0.876149">
        <ele>1700.712</ele>
        <time>2018-11-24T11:44:29Z</time>
      </trkpt>
      <trkpt lat="42.508527" lon="0.876227">
        <ele>1700.449</ele>
        <time>2018-11-24T11:44:30Z</time>
      </trkpt>
      <trkpt lat="42.508570" lon="0.876292">
        <ele>1700.226</ele>
        <time>2018-11-24T11:44:31Z</time>
      </trkpt>
      <trkpt lat="42.508619" lon="0.876356">
        <ele>1700.056</ele>
        <time>2018-11-24T11:44:32Z</time>
      </trkpt>
      <trkpt lat="42.508692" lon="0.876369">
        <ele>1699.978</ele>
        <time>2018-11-24T11:44:33Z</time>
      </trkpt>
      <trkpt lat="42.508776" lon="0.876345">
        <ele>1699.838</ele>
        <time>2018-11-24T11:44:34Z</time>
      </trkpt>
      <trkpt lat="42.508864" lon="0.876298">
        <ele>1699.750</ele>
        <time>2018-11-24T11:44:35Z</time>
      </trkpt>
      <trkpt lat="42.508945" lon="0.876230">
        <ele>1699.348</ele>
        <time>2018-11-24T11:44:36Z</time>
      </trkpt>
      <trkpt lat="42.509021" lon="0.876141">
        <ele>1698.979</ele>
        <time>2018-11-24T11:44:37Z</time>
      </trkpt>
      <trkpt lat="42.509089" lon="0.876021">
        <ele>1698.705</ele>
        <time>2018-11-24T11:44:38Z</time>
      </trkpt>
      <trkpt lat="42.509141" lon="0.875878">
        <ele>1698.625</ele>
        <time>2018-11-24T11:44:39Z</time>
      </trkpt>
      <trkpt lat="42.509189" lon="0.875716">
        <ele>1698.708</ele>
        <time>2018-11-24T11:44:40Z</time>
      </trkpt>
      <trkpt lat="42.509236" lon="0.875544">
        <ele>1698.790</ele>
        <time>2018-11-24T11:44:41Z</time>
      </trkpt>
      <trkpt lat="42.509277" lon="0.875371">
        <ele>1699.177</ele>
        <time>2018-11-24T11:44:42Z</time>
      </trkpt>
      <trkpt lat="42.509308" lon="0.875197">
        <ele>1699.124</ele>
        <time>2018-11-24T11:44:43Z</time>
      </trkpt>
      <trkpt lat="42.509332" lon="0.875023">
        <ele>1699.034</ele>
        <time>2018-11-24T11:44:44Z</time>
      </trkpt>
      <trkpt lat="42.509351" lon="0.874846">
        <ele>1698.996</ele>
        <time>2018-11-24T11:44:45Z</time>
      </trkpt>
      <trkpt lat="42.509365" lon="0.874659">
        <ele>1699.076</ele>
        <time>2018-11-24T11:44:46Z</time>
      </trkpt>
      <trkpt lat="42.509378" lon="0.874462">
        <ele>1699.088</ele>
        <time>2018-11-24T11:44:47Z</time>
      </trkpt>
      <trkpt lat="42.509393" lon="0.874255">
        <ele>1699.226</ele>
        <time>2018-11-24T11:44:48Z</time>
      </trkpt>
      <trkpt lat="42.509410" lon="0.874042">
        <ele>1699.237</ele>
        <time>2018-11-24T11:44:49Z</time>
      </trkpt>
      <trkpt lat="42.509433" lon="0.873825">
        <ele>1699.249</ele>
        <time>2018-11-24T11:44:50Z</time>
      </trkpt>
      <trkpt lat="42.509455" lon="0.873614">
        <ele>1698.913</ele>
        <time>2018-11-24T11:44:51Z</time>
      </trkpt>
      <trkpt lat="42.509480" lon="0.873407">
        <ele>1698.808</ele>
        <time>2018-11-24T11:44:52Z</time>
      </trkpt>
      <trkpt lat="42.509504" lon="0.873198">
        <ele>1698.956</ele>
        <time>2018-11-24T11:44:53Z</time>
      </trkpt>
      <trkpt lat="42.509527" lon="0.872976">
        <ele>1698.723</ele>
        <time>2018-11-24T11:44:54Z</time>
      </trkpt>
      <trkpt lat="42.509550" lon="0.872737">
        <ele>1698.240</ele>
        <time>2018-11-24T11:44:55Z</time>
      </trkpt>
      <trkpt lat="42.509572" lon="0.872482">
        <ele>1697.550</ele>
        <time>2018-11-24T11:44:56Z</time>
      </trkpt>
      <trkpt lat="42.509597" lon="0.872215">
        <ele>1696.572</ele>
        <time>2018-11-24T11:44:57Z</time>
      </trkpt>
      <trkpt lat="42.509620" lon="0.871946">
        <ele>1695.252</ele>
        <time>2018-11-24T11:44:58Z</time>
      </trkpt>
      <trkpt lat="42.509641" lon="0.871679">
        <ele>1693.874</ele>
        <time>2018-11-24T11:44:59Z</time>
      </trkpt>
      <trkpt lat="42.509667" lon="0.871421">
        <ele>1692.612</ele>
        <time>2018-11-24T11:45:00Z</time>
      </trkpt>
      <trkpt lat="42.509696" lon="0.871165">
        <ele>1691.319</ele>
        <time>2018-11-24T11:45:01Z</time>
      </trkpt>
      <trkpt lat="42.509733" lon="0.870911">
        <ele>1690.009</ele>
        <time>2018-11-24T11:45:02Z</time>
      </trkpt>
      <trkpt lat="42.509784" lon="0.870660">
        <ele>1688.819</ele>
        <time>2018-11-24T11:45:03Z</time>
      </trkpt>
      <trkpt lat="42.509851" lon="0.870410">
        <ele>1687.508</ele>
        <time>2018-11-24T11:45:04Z</time>
      </trkpt>
      <trkpt lat="42.509929" lon="0.870163">
        <ele>1686.144</ele>
        <time>2018-11-24T11:45:05Z</time>
      </trkpt>
      <trkpt lat="42.510013" lon="0.869919">
        <ele>1684.951</ele>
        <time>2018-11-24T11:45:06Z</time>
      </trkpt>
      <trkpt lat="42.510093" lon="0.869667">
        <ele>1683.528</ele>
        <time>2018-11-24T11:45:07Z</time>
      </trkpt>
      <trkpt lat="42.510158" lon="0.869401">
        <ele>1682.678</ele>
        <time>2018-11-24T11:45:08Z</time>
      </trkpt>
      <trkpt lat="42.510206" lon="0.869122">
        <ele>1681.770</ele>
        <time>2018-11-24T11:45:09Z</time>
      </trkpt>
      <trkpt lat="42.510241" lon="0.868834">
        <ele>1681.270</ele>
        <time>2018-11-24T11:45:10Z</time>
      </trkpt>
      <trkpt lat="42.510264" lon="0.868547">
        <ele>1680.522</ele>
        <time>2018-11-24T11:45:11Z</time>
      </trkpt>
      <trkpt lat="42.510277" lon="0.868267">
        <ele>1679.580</ele>
        <time>2018-11-24T11:45:12Z</time>
      </trkpt>
      <trkpt lat="42.510284" lon="0.868006">
        <ele>1678.524</ele>
        <time>2018-11-24T11:45:13Z</time>
      </trkpt>
      <trkpt lat="42.510282" lon="0.867755">
        <ele>1677.904</ele>
        <time>2018-11-24T11:45:14Z</time>
      </trkpt>
      <trkpt lat="42.510271" lon="0.867506">
        <ele>1677.414</ele>
        <time>2018-11-24T11:45:15Z</time>
      </trkpt>
      <trkpt lat="42.510248" lon="0.867255">
        <ele>1676.708</ele>
        <time>2018-11-24T11:45:16Z</time>
      </trkpt>
      <trkpt lat="42.510216" lon="0.867001">
        <ele>1676.155</ele>
        <time>2018-11-24T11:45:17Z</time>
      </trkpt>
      <trkpt lat="42.510174" lon="0.866745">
        <ele>1675.362</ele>
        <time>2018-11-24T11:45:18Z</time>
      </trkpt>
      <trkpt lat="42.510133" lon="0.866489">
        <ele>1674.399</ele>
        <time>2018-11-24T11:45:19Z</time>
      </trkpt>
      <trkpt lat="42.510107" lon="0.866229">
        <ele>1673.039</ele>
        <time>2018-11-24T11:45:20Z</time>
      </trkpt>
      <trkpt lat="42.510099" lon="0.865966">
        <ele>1671.641</ele>
        <time>2018-11-24T11:45:21Z</time>
      </trkpt>
      <trkpt lat="42.510113" lon="0.865702">
        <ele>1670.281</ele>
        <time>2018-11-24T11:45:22Z</time>
      </trkpt>
      <trkpt lat="42.510149" lon="0.865447">
        <ele>1668.953</ele>
        <time>2018-11-24T11:45:23Z</time>
      </trkpt>
      <trkpt lat="42.510213" lon="0.865200">
        <ele>1667.651</ele>
        <time>2018-11-24T11:45:24Z</time>
      </trkpt>
      <trkpt lat="42.510298" lon="0.864953">
        <ele>1666.689</ele>
        <time>2018-11-24T11:45:25Z</time>
      </trkpt>
      <trkpt lat="42.510399" lon="0.864708">
        <ele>1665.906</ele>
        <time>2018-11-24T11:45:26Z</time>
      </trkpt>
      <trkpt lat="42.510512" lon="0.864466">
        <ele>1664.826</ele>
        <time>2018-11-24T11:45:27Z</time>
      </trkpt>
      <trkpt lat="42.510630" lon="0.864228">
        <ele>1663.508</ele>
        <time>2018-11-24T11:45:28Z</time>
      </trkpt>
      <trkpt lat="42.510743" lon="0.863988">
        <ele>1662.441</ele>
        <time>2018-11-24T11:45:29Z</time>
      </trkpt>
      <trkpt lat="42.510845" lon="0.863747">
        <ele>1661.698</ele>
        <time>2018-11-24T11:45:30Z</time>
      </trkpt>
      <trkpt lat="42.510939" lon="0.863503">
        <ele>1661.015</ele>
        <time>2018-11-24T11:45:31Z</time>
      </trkpt>
      <trkpt lat="42.511028" lon="0.863260">
        <ele>1660.765</ele>
        <time>2018-11-24T11:45:32Z</time>
      </trkpt>
      <trkpt lat="42.511115" lon="0.863018">
        <ele>1660.237</ele>
        <time>2018-11-24T11:45:33Z</time>
      </trkpt>
      <trkpt lat="42.511206" lon="0.862783">
        <ele>1659.797</ele>
        <time>2018-11-24T11:45:34Z</time>
      </trkpt>
      <trkpt lat="42.511307" lon="0.862562">
        <ele>1658.579</ele>
        <time>2018-11-24T11:45:35Z</time>
      </trkpt>
      <trkpt lat="42.511430" lon="0.862356">
        <ele>1658.077</ele>
        <time>2018-11-24T11:45:36Z</time>
      </trkpt>
      <trkpt lat="42.511576" lon="0.862168">
        <ele>1657.363</ele>
        <time>2018-11-24T11:45:37Z</time>
      </trkpt>
      <trkpt lat="42.511734" lon="0.861984">
        <ele>1656.944</ele>
        <time>2018-11-24T11:45:38Z</time>
      </trkpt>
      <trkpt lat="42.511900" lon="0.861795">
        <ele>1656.318</ele>
        <time>2018-11-24T11:45:39Z</time>
      </trkpt>
      <trkpt lat="42.512071" lon="0.861602">
        <ele>1655.708</ele>
        <time>2018-11-24T11:45:40Z</time>
      </trkpt>
      <trkpt lat="42.512241" lon="0.861407">
        <ele>1654.989</ele>
        <time>2018-11-24T11:45:41Z</time>
      </trkpt>
      <trkpt lat="42.512409" lon="0.861210">
        <ele>1653.766</ele>
        <time>2018-11-24T11:45:42Z</time>
      </trkpt>
      <trkpt lat="42.512577" lon="0.861011">
        <ele>1652.113</ele>
        <time>2018-11-24T11:45:43Z</time>
      </trkpt>
      <trkpt lat="42.512743" lon="0.860808">
        <ele>1650.673</ele>
        <time>2018-11-24T11:45:44Z</time>
      </trkpt>
      <trkpt lat="42.512906" lon="0.860606">
        <ele>1648.995</ele>
        <time>2018-11-24T11:45:45Z</time>
      </trkpt>
      <trkpt lat="42.513062" lon="0.860416">
        <ele>1647.015</ele>
        <time>2018-11-24T11:45:46Z</time>
      </trkpt>
      <trkpt lat="42.513221" lon="0.860232">
        <ele>1645.117</ele>
        <time>2018-11-24T11:45:47Z</time>
      </trkpt>
      <trkpt lat="42.513391" lon="0.860062">
        <ele>1643.895</ele>
        <time>2018-11-24T11:45:48Z</time>
      </trkpt>
      <trkpt lat="42.513572" lon="0.859913">
        <ele>1642.287</ele>
        <time>2018-11-24T11:45:49Z</time>
      </trkpt>
      <trkpt lat="42.513762" lon="0.859765">
        <ele>1640.942</ele>
        <time>2018-11-24T11:45:50Z</time>
      </trkpt>
      <trkpt lat="42.513960" lon="0.859625">
        <ele>1639.326</ele>
        <time>2018-11-24T11:45:51Z</time>
      </trkpt>
      <trkpt lat="42.514156" lon="0.859483">
        <ele>1637.908</ele>
        <time>2018-11-24T11:45:52Z</time>
      </trkpt>
      <trkpt lat="42.514347" lon="0.859346">
        <ele>1635.941</ele>
        <time>2018-11-24T11:45:53Z</time>
      </trkpt>
      <trkpt lat="42.514519" lon="0.859219">
        <ele>1634.318</ele>
        <time>2018-11-24T11:45:54Z</time>
      </trkpt>
      <trkpt lat="42.514682" lon="0.859101">
        <ele>1632.875</ele>
        <time>2018-11-24T11:45:55Z</time>
      </trkpt>
      <trkpt lat="42.514833" lon="0.858955">
        <ele>1632.255</ele>
        <time>2018-11-24T11:45:56Z</time>
      </trkpt>
      <trkpt lat="42.514979" lon="0.858791">
        <ele>1632.287</ele>
        <time>2018-11-24T11:45:57Z</time>
      </trkpt>
      <trkpt lat="42.515098" lon="0.858583">
        <ele>1632.247</ele>
        <time>2018-11-24T11:45:58Z</time>
      </trkpt>
      <trkpt lat="42.515211" lon="0.858372">
        <ele>1632.349</ele>
        <time>2018-11-24T11:45:59Z</time>
      </trkpt>
      <trkpt lat="42.515321" lon="0.858158">
        <ele>1632.227</ele>
        <time>2018-11-24T11:46:00Z</time>
      </trkpt>
      <trkpt lat="42.515442" lon="0.857951">
        <ele>1632.165</ele>
        <time>2018-11-24T11:46:01Z</time>
      </trkpt>
      <trkpt lat="42.515578" lon="0.857765">
        <ele>1632.268</ele>
        <time>2018-11-24T11:46:02Z</time>
      </trkpt>
      <trkpt lat="42.515698" lon="0.857571">
        <ele>1632.114</ele>
        <time>2018-11-24T11:46:03Z</time>
      </trkpt>
      <trkpt lat="42.515835" lon="0.857406">
        <ele>1632.108</ele>
        <time>2018-11-24T11:46:04Z</time>
      </trkpt>
      <trkpt lat="42.515959" lon="0.857242">
        <ele>1632.049</ele>
        <time>2018-11-24T11:46:05Z</time>
      </trkpt>
      <trkpt lat="42.516085" lon="0.857100">
        <ele>1632.176</ele>
        <time>2018-11-24T11:46:06Z</time>
      </trkpt>
      <trkpt lat="42.516211" lon="0.856951">
        <ele>1632.453</ele>
        <time>2018-11-24T11:46:07Z</time>
      </trkpt>
      <trkpt lat="42.516338" lon="0.856805">
        <ele>1632.533</ele>
        <time>2018-11-24T11:46:08Z</time>
      </trkpt>
      <trkpt lat="42.516466" lon="0.856667">
        <ele>1632.425</ele>
        <time>2018-11-24T11:46:09Z</time>
      </trkpt>
      <trkpt lat="42.516594" lon="0.856530">
        <ele>1632.335</ele>
        <time>2018-11-24T11:46:10Z</time>
      </trkpt>
      <trkpt lat="42.516723" lon="0.856395">
        <ele>1632.127</ele>
        <time>2018-11-24T11:46:11Z</time>
      </trkpt>
      <trkpt lat="42.516857" lon="0.856256">
        <ele>1631.825</ele>
        <time>2018-11-24T11:46:12Z</time>
      </trkpt>
      <trkpt lat="42.516994" lon="0.856119">
        <ele>1631.435</ele>
        <time>2018-11-24T11:46:13Z</time>
      </trkpt>
      <trkpt lat="42.517132" lon="0.855984">
        <ele>1630.786</ele>
        <time>2018-11-24T11:46:14Z</time>
      </trkpt>
      <trkpt lat="42.517277" lon="0.855859">
        <ele>1629.814</ele>
        <time>2018-11-24T11:46:15Z</time>
      </trkpt>
      <trkpt lat="42.517424" lon="0.855742">
        <ele>1628.808</ele>
        <time>2018-11-24T11:46:16Z</time>
      </trkpt>
      <trkpt lat="42.517567" lon="0.855630">
        <ele>1627.946</ele>
        <time>2018-11-24T11:46:17Z</time>
      </trkpt>
      <trkpt lat="42.517680" lon="0.855526">
        <ele>1626.453</ele>
        <time>2018-11-24T11:46:18Z</time>
      </trkpt>
      <trkpt lat="42.517790" lon="0.855432">
        <ele>1625.560</ele>
        <time>2018-11-24T11:46:19Z</time>
      </trkpt>
      <trkpt lat="42.517907" lon="0.855359">
        <ele>1624.820</ele>
        <time>2018-11-24T11:46:20Z</time>
      </trkpt>
      <trkpt lat="42.518034" lon="0.855298">
        <ele>1624.342</ele>
        <time>2018-11-24T11:46:21Z</time>
      </trkpt>
      <trkpt lat="42.518171" lon="0.855291">
        <ele>1623.962</ele>
        <time>2018-11-24T11:46:22Z</time>
      </trkpt>
      <trkpt lat="42.518320" lon="0.855299">
        <ele>1623.424</ele>
        <time>2018-11-24T11:46:23Z</time>
      </trkpt>
      <trkpt lat="42.518461" lon="0.855302">
        <ele>1622.842</ele>
        <time>2018-11-24T11:46:24Z</time>
      </trkpt>
      <trkpt lat="42.518599" lon="0.855287">
        <ele>1622.495</ele>
        <time>2018-11-24T11:46:25Z</time>
      </trkpt>
      <trkpt lat="42.518744" lon="0.855257">
        <ele>1621.649</ele>
        <time>2018-11-24T11:46:26Z</time>
      </trkpt>
      <trkpt lat="42.518886" lon="0.855180">
        <ele>1620.623</ele>
        <time>2018-11-24T11:46:27Z</time>
      </trkpt>
      <trkpt lat="42.519027" lon="0.855070">
        <ele>1619.408</ele>
        <time>2018-11-24T11:46:28Z</time>
      </trkpt>
      <trkpt lat="42.519171" lon="0.854959">
        <ele>1618.182</ele>
        <time>2018-11-24T11:46:29Z</time>
      </trkpt>
      <trkpt lat="42.519314" lon="0.854851">
        <ele>1616.749</ele>
        <time>2018-11-24T11:46:30Z</time>
      </trkpt>
      <trkpt lat="42.519452" lon="0.854748">
        <ele>1615.196</ele>
        <time>2018-11-24T11:46:31Z</time>
      </trkpt>
      <trkpt lat="42.519573" lon="0.854650">
        <ele>1613.396</ele>
        <time>2018-11-24T11:46:32Z</time>
      </trkpt>
      <trkpt lat="42.519683" lon="0.854542">
        <ele>1611.958</ele>
        <time>2018-11-24T11:46:33Z</time>
      </trkpt>
      <trkpt lat="42.519778" lon="0.854405">
        <ele>1610.338</ele>
        <time>2018-11-24T11:46:34Z</time>
      </trkpt>
      <trkpt lat="42.519849" lon="0.854236">
        <ele>1609.370</ele>
        <time>2018-11-24T11:46:35Z</time>
      </trkpt>
      <trkpt lat="42.519896" lon="0.854032">
        <ele>1608.148</ele>
        <time>2018-11-24T11:46:36Z</time>
      </trkpt>
      <trkpt lat="42.519917" lon="0.853806">
        <ele>1607.339</ele>
        <time>2018-11-24T11:46:37Z</time>
      </trkpt>
      <trkpt lat="42.519934" lon="0.853568">
        <ele>1606.001</ele>
        <time>2018-11-24T11:46:38Z</time>
      </trkpt>
      <trkpt lat="42.519959" lon="0.853328">
        <ele>1604.521</ele>
        <time>2018-11-24T11:46:39Z</time>
      </trkpt>
      <trkpt lat="42.519986" lon="0.853089">
        <ele>1602.808</ele>
        <time>2018-11-24T11:46:40Z</time>
      </trkpt>
      <trkpt lat="42.520006" lon="0.852876">
        <ele>1600.936</ele>
        <time>2018-11-24T11:46:41Z</time>
      </trkpt>
      <trkpt lat="42.520021" lon="0.852699">
        <ele>1598.483</ele>
        <time>2018-11-24T11:46:42Z</time>
      </trkpt>
      <trkpt lat="42.520041" lon="0.852538">
        <ele>1596.980</ele>
        <time>2018-11-24T11:46:43Z</time>
      </trkpt>
      <trkpt lat="42.520062" lon="0.852373">
        <ele>1595.370</ele>
        <time>2018-11-24T11:46:44Z</time>
      </trkpt>
      <trkpt lat="42.520121" lon="0.852213">
        <ele>1593.882</ele>
        <time>2018-11-24T11:46:45Z</time>
      </trkpt>
      <trkpt lat="42.520210" lon="0.852054">
        <ele>1592.512</ele>
        <time>2018-11-24T11:46:46Z</time>
      </trkpt>
      <trkpt lat="42.520308" lon="0.851908">
        <ele>1591.214</ele>
        <time>2018-11-24T11:46:47Z</time>
      </trkpt>
      <trkpt lat="42.520391" lon="0.851738">
        <ele>1590.372</ele>
        <time>2018-11-24T11:46:48Z</time>
      </trkpt>
      <trkpt lat="42.520465" lon="0.851572">
        <ele>1589.044</ele>
        <time>2018-11-24T11:46:49Z</time>
      </trkpt>
      <trkpt lat="42.520523" lon="0.851375">
        <ele>1587.805</ele>
        <time>2018-11-24T11:46:50Z</time>
      </trkpt>
      <trkpt lat="42.520556" lon="0.851159">
        <ele>1586.515</ele>
        <time>2018-11-24T11:46:51Z</time>
      </trkpt>
      <trkpt lat="42.520580" lon="0.850934">
        <ele>1584.708</ele>
        <time>2018-11-24T11:46:52Z</time>
      </trkpt>
      <trkpt lat="42.520601" lon="0.850705">
        <ele>1583.377</ele>
        <time>2018-11-24T11:46:53Z</time>
      </trkpt>
      <trkpt lat="42.520627" lon="0.850478">
        <ele>1581.474</ele>
        <time>2018-11-24T11:46:54Z</time>
      </trkpt>
      <trkpt lat="42.520666" lon="0.850255">
        <ele>1579.861</ele>
        <time>2018-11-24T11:46:55Z</time>
      </trkpt>
      <trkpt lat="42.520722" lon="0.850033">
        <ele>1577.891</ele>
        <time>2018-11-24T11:46:56Z</time>
      </trkpt>
      <trkpt lat="42.520791" lon="0.849813">
        <ele>1576.163</ele>
        <time>2018-11-24T11:46:57Z</time>
      </trkpt>
      <trkpt lat="42.520862" lon="0.849595">
        <ele>1574.313</ele>
        <time>2018-11-24T11:46:58Z</time>
      </trkpt>
      <trkpt lat="42.520958" lon="0.849386">
        <ele>1573.065</ele>
        <time>2018-11-24T11:46:59Z</time>
      </trkpt>
      <trkpt lat="42.521056" lon="0.849174">
        <ele>1571.283</ele>
        <time>2018-11-24T11:47:00Z</time>
      </trkpt>
      <trkpt lat="42.521143" lon="0.848948">
        <ele>1569.473</ele>
        <time>2018-11-24T11:47:01Z</time>
      </trkpt>
      <trkpt lat="42.521224" lon="0.848715">
        <ele>1567.485</ele>
        <time>2018-11-24T11:47:02Z</time>
      </trkpt>
      <trkpt lat="42.521301" lon="0.848484">
        <ele>1565.713</ele>
        <time>2018-11-24T11:47:03Z</time>
      </trkpt>
      <trkpt lat="42.521374" lon="0.848273">
        <ele>1563.208</ele>
        <time>2018-11-24T11:47:04Z</time>
      </trkpt>
      <trkpt lat="42.521455" lon="0.848094">
        <ele>1561.110</ele>
        <time>2018-11-24T11:47:05Z</time>
      </trkpt>
      <trkpt lat="42.521523" lon="0.847933">
        <ele>1558.977</ele>
        <time>2018-11-24T11:47:06Z</time>
      </trkpt>
      <trkpt lat="42.521596" lon="0.847783">
        <ele>1557.124</ele>
        <time>2018-11-24T11:47:07Z</time>
      </trkpt>
      <trkpt lat="42.521663" lon="0.847644">
        <ele>1555.634</ele>
        <time>2018-11-24T11:47:08Z</time>
      </trkpt>
      <trkpt lat="42.521724" lon="0.847522">
        <ele>1554.166</ele>
        <time>2018-11-24T11:47:09Z</time>
      </trkpt>
      <trkpt lat="42.521770" lon="0.847411">
        <ele>1552.336</ele>
        <time>2018-11-24T11:47:10Z</time>
      </trkpt>
      <trkpt lat="42.521806" lon="0.847316">
        <ele>1551.258</ele>
        <time>2018-11-24T11:47:11Z</time>
      </trkpt>
      <trkpt lat="42.521799" lon="0.847230">
        <ele>1550.566</ele>
        <time>2018-11-24T11:47:12Z</time>
      </trkpt>
      <trkpt lat="42.521778" lon="0.847164">
        <ele>1550.126</ele>
        <time>2018-11-24T11:47:13Z</time>
      </trkpt>
      <trkpt lat="42.521698" lon="0.847146">
        <ele>1549.647</ele>
        <time>2018-11-24T11:47:14Z</time>
      </trkpt>
      <trkpt lat="42.521601" lon="0.847220">
        <ele>1549.111</ele>
        <time>2018-11-24T11:47:15Z</time>
      </trkpt>
      <trkpt lat="42.521522" lon="0.847315">
        <ele>1548.508</ele>
        <time>2018-11-24T11:47:16Z</time>
      </trkpt>
      <trkpt lat="42.521462" lon="0.847431">
        <ele>1547.525</ele>
        <time>2018-11-24T11:47:17Z</time>
      </trkpt>
      <trkpt lat="42.521392" lon="0.847549">
        <ele>1546.642</ele>
        <time>2018-11-24T11:47:18Z</time>
      </trkpt>
      <trkpt lat="42.521323" lon="0.847674">
        <ele>1545.719</ele>
        <time>2018-11-24T11:47:19Z</time>
      </trkpt>
      <trkpt lat="42.521242" lon="0.847810">
        <ele>1544.979</ele>
        <time>2018-11-24T11:47:20Z</time>
      </trkpt>
      <trkpt lat="42.521158" lon="0.847944">
        <ele>1543.911</ele>
        <time>2018-11-24T11:47:21Z</time>
      </trkpt>
      <trkpt lat="42.521076" lon="0.848076">
        <ele>1542.861</ele>
        <time>2018-11-24T11:47:22Z</time>
      </trkpt>
      <trkpt lat="42.520987" lon="0.848210">
        <ele>1542.153</ele>
        <time>2018-11-24T11:47:23Z</time>
      </trkpt>
      <trkpt lat="42.520896" lon="0.848335">
        <ele>1541.581</ele>
        <time>2018-11-24T11:47:24Z</time>
      </trkpt>
      <trkpt lat="42.520806" lon="0.848462">
        <ele>1540.918</ele>
        <time>2018-11-24T11:47:25Z</time>
      </trkpt>
      <trkpt lat="42.520719" lon="0.848590">
        <ele>1540.498</ele>
        <time>2018-11-24T11:47:26Z</time>
      </trkpt>
      <trkpt lat="42.520621" lon="0.848710">
        <ele>1539.917</ele>
        <time>2018-11-24T11:47:27Z</time>
      </trkpt>
      <trkpt lat="42.520511" lon="0.848837">
        <ele>1539.408</ele>
        <time>2018-11-24T11:47:28Z</time>
      </trkpt>
      <trkpt lat="42.520392" lon="0.848971">
        <ele>1538.884</ele>
        <time>2018-11-24T11:47:29Z</time>
      </trkpt>
      <trkpt lat="42.520272" lon="0.849109">
        <ele>1538.291</ele>
        <time>2018-11-24T11:47:30Z</time>
      </trkpt>
      <trkpt lat="42.520154" lon="0.849251">
        <ele>1537.358</ele>
        <time>2018-11-24T11:47:31Z</time>
      </trkpt>
      <trkpt lat="42.520035" lon="0.849392">
        <ele>1536.348</ele>
        <time>2018-11-24T11:47:32Z</time>
      </trkpt>
      <trkpt lat="42.519912" lon="0.849533">
        <ele>1534.780</ele>
        <time>2018-11-24T11:47:33Z</time>
      </trkpt>
      <trkpt lat="42.519791" lon="0.849671">
        <ele>1533.310</ele>
        <time>2018-11-24T11:47:34Z</time>
      </trkpt>
      <trkpt lat="42.519674" lon="0.849804">
        <ele>1531.952</ele>
        <time>2018-11-24T11:47:35Z</time>
      </trkpt>
      <trkpt lat="42.519559" lon="0.849937">
        <ele>1530.390</ele>
        <time>2018-11-24T11:47:36Z</time>
      </trkpt>
      <trkpt lat="42.519442" lon="0.850072">
        <ele>1528.861</ele>
        <time>2018-11-24T11:47:37Z</time>
      </trkpt>
      <trkpt lat="42.519320" lon="0.850202">
        <ele>1527.821</ele>
        <time>2018-11-24T11:47:38Z</time>
      </trkpt>
      <trkpt lat="42.519195" lon="0.850325">
        <ele>1526.713</ele>
        <time>2018-11-24T11:47:39Z</time>
      </trkpt>
      <trkpt lat="42.519050" lon="0.850414">
        <ele>1525.408</ele>
        <time>2018-11-24T11:47:40Z</time>
      </trkpt>
      <trkpt lat="42.518901" lon="0.850496">
        <ele>1524.299</ele>
        <time>2018-11-24T11:47:41Z</time>
      </trkpt>
      <trkpt lat="42.518743" lon="0.850556">
        <ele>1523.146</ele>
        <time>2018-11-24T11:47:42Z</time>
      </trkpt>
      <trkpt lat="42.518585" lon="0.850603">
        <ele>1521.783</ele>
        <time>2018-11-24T11:47:43Z</time>
      </trkpt>
      <trkpt lat="42.518446" lon="0.850641">
        <ele>1520.013</ele>
        <time>2018-11-24T11:47:44Z</time>
      </trkpt>
      <trkpt lat="42.518320" lon="0.850671">
        <ele>1518.415</ele>
        <time>2018-11-24T11:47:45Z</time>
      </trkpt>
      <trkpt lat="42.518199" lon="0.850703">
        <ele>1517.495</ele>
        <time>2018-11-24T11:47:46Z</time>
      </trkpt>
      <trkpt lat="42.518078" lon="0.850745">
        <ele>1516.047</ele>
        <time>2018-11-24T11:47:47Z</time>
      </trkpt>
      <trkpt lat="42.517959" lon="0.850788">
        <ele>1514.995</ele>
        <time>2018-11-24T11:47:48Z</time>
      </trkpt>
      <trkpt lat="42.517841" lon="0.850826">
        <ele>1513.599</ele>
        <time>2018-11-24T11:47:49Z</time>
      </trkpt>
      <trkpt lat="42.517724" lon="0.850858">
        <ele>1512.407</ele>
        <time>2018-11-24T11:47:50Z</time>
      </trkpt>
      <trkpt lat="42.517609" lon="0.850887">
        <ele>1511.227</ele>
        <time>2018-11-24T11:47:51Z</time>
      </trkpt>
      <trkpt lat="42.517493" lon="0.850908">
        <ele>1510.208</ele>
        <time>2018-11-24T11:47:52Z</time>
      </trkpt>
      <trkpt lat="42.517375" lon="0.850918">
        <ele>1509.192</ele>
        <time>2018-11-24T11:47:53Z</time>
      </trkpt>
      <trkpt lat="42.517256" lon="0.850907">
        <ele>1508.249</ele>
        <time>2018-11-24T11:47:54Z</time>
      </trkpt>
      <trkpt lat="42.517132" lon="0.850882">
        <ele>1507.126</ele>
        <time>2018-11-24T11:47:55Z</time>
      </trkpt>
      <trkpt lat="42.517006" lon="0.850831">
        <ele>1506.326</ele>
        <time>2018-11-24T11:47:56Z</time>
      </trkpt>
      <trkpt lat="42.516880" lon="0.850776">
        <ele>1505.378</ele>
        <time>2018-11-24T11:47:57Z</time>
      </trkpt>
      <trkpt lat="42.516756" lon="0.850726">
        <ele>1504.498</ele>
        <time>2018-11-24T11:47:58Z</time>
      </trkpt>
      <trkpt lat="42.516647" lon="0.850675">
        <ele>1503.230</ele>
        <time>2018-11-24T11:47:59Z</time>
      </trkpt>
      <trkpt lat="42.516557" lon="0.850640">
        <ele>1502.328</ele>
        <time>2018-11-24T11:48:00Z</time>
      </trkpt>
      <trkpt lat="42.516475" lon="0.850598">
        <ele>1501.363</ele>
        <time>2018-11-24T11:48:01Z</time>
      </trkpt>
      <trkpt lat="42.516408" lon="0.850541">
        <ele>1500.444</ele>
        <time>2018-11-24T11:48:02Z</time>
      </trkpt>
      <trkpt lat="42.516349" lon="0.850468">
        <ele>1499.718</ele>
        <time>2018-11-24T11:48:03Z</time>
      </trkpt>
      <trkpt lat="42.516303" lon="0.850380">
        <ele>1499.008</ele>
        <time>2018-11-24T11:48:04Z</time>
      </trkpt>
      <trkpt lat="42.516277" lon="0.850280">
        <ele>1498.459</ele>
        <time>2018-11-24T11:48:05Z</time>
      </trkpt>
      <trkpt lat="42.516263" lon="0.850169">
        <ele>1497.746</ele>
        <time>2018-11-24T11:48:06Z</time>
      </trkpt>
      <trkpt lat="42.516292" lon="0.850054">
        <ele>1496.943</ele>
        <time>2018-11-24T11:48:07Z</time>
      </trkpt>
      <trkpt lat="42.516344" lon="0.849943">
        <ele>1496.293</ele>
        <time>2018-11-24T11:48:08Z</time>
      </trkpt>
      <trkpt lat="42.516408" lon="0.849840">
        <ele>1495.365</ele>
        <time>2018-11-24T11:48:09Z</time>
      </trkpt>
      <trkpt lat="42.516481" lon="0.849742">
        <ele>1494.765</ele>
        <time>2018-11-24T11:48:10Z</time>
      </trkpt>
      <trkpt lat="42.516553" lon="0.849635">
        <ele>1494.017</ele>
        <time>2018-11-24T11:48:11Z</time>
      </trkpt>
      <trkpt lat="42.516621" lon="0.849532">
        <ele>1493.265</ele>
        <time>2018-11-24T11:48:12Z</time>
      </trkpt>
      <trkpt lat="42.516691" lon="0.849438">
        <ele>1492.368</ele>
        <time>2018-11-24T11:48:13Z</time>
      </trkpt>
      <trkpt lat="42.516755" lon="0.849348">
        <ele>1491.542</ele>
        <time>2018-11-24T11:48:14Z</time>
      </trkpt>
      <trkpt lat="42.516813" lon="0.849258">
        <ele>1490.826</ele>
        <time>2018-11-24T11:48:15Z</time>
      </trkpt>
      <trkpt lat="42.516862" lon="0.849168">
        <ele>1490.008</ele>
        <time>2018-11-24T11:48:16Z</time>
      </trkpt>
      <trkpt lat="42.516905" lon="0.849087">
        <ele>1489.439</ele>
        <time>2018-11-24T11:48:17Z</time>
      </trkpt>
      <trkpt lat="42.516951" lon="0.849014">
        <ele>1488.836</ele>
        <time>2018-11-24T11:48:18Z</time>
      </trkpt>
      <trkpt lat="42.517013" lon="0.848971">
        <ele>1488.573</ele>
        <time>2018-11-24T11:48:19Z</time>
      </trkpt>
      <trkpt lat="42.517085" lon="0.848959">
        <ele>1488.013</ele>
        <time>2018-11-24T11:48:20Z</time>
      </trkpt>
      <trkpt lat="42.517152" lon="0.848967">
        <ele>1487.715</ele>
        <time>2018-11-24T11:48:21Z</time>
      </trkpt>
      <trkpt lat="42.517218" lon="0.848996">
        <ele>1487.675</ele>
        <time>2018-11-24T11:48:22Z</time>
      </trkpt>
      <trkpt lat="42.517278" lon="0.849025">
        <ele>1487.787</ele>
        <time>2018-11-24T11:48:23Z</time>
      </trkpt>
      <trkpt lat="42.517332" lon="0.849057">
        <ele>1487.975</ele>
        <time>2018-11-24T11:48:24Z</time>
      </trkpt>
      <trkpt lat="42.517383" lon="0.849084">
        <ele>1488.194</ele>
        <time>2018-11-24T11:48:25Z</time>
      </trkpt>
      <trkpt lat="42.517433" lon="0.849124">
        <ele>1488.457</ele>
        <time>2018-11-24T11:48:26Z</time>
      </trkpt>
      <trkpt lat="42.517477" lon="0.849137">
        <ele>1488.722</ele>
        <time>2018-11-24T11:48:27Z</time>
      </trkpt>
      <trkpt lat="42.517522" lon="0.849155">
        <ele>1489.008</ele>
        <time>2018-11-24T11:48:28Z</time>
      </trkpt>
      <trkpt lat="42.517604" lon="0.849178">
        <ele>1489.872</ele>
        <time>2018-11-24T11:48:30Z</time>
      </trkpt>
      <trkpt lat="42.517648" lon="0.849196">
        <ele>1490.189</ele>
        <time>2018-11-24T11:48:32Z</time>
      </trkpt>
      <trkpt lat="42.517813" lon="0.849161">
        <ele>1491.046</ele>
        <time>2018-11-24T11:48:55Z</time>
      </trkpt>
      <trkpt lat="42.517879" lon="0.849159">
        <ele>1491.496</ele>
        <time>2018-11-24T11:48:57Z</time>
      </trkpt>
      <trkpt lat="42.517966" lon="0.849147">
        <ele>1491.628</ele>
        <time>2018-11-24T11:49:00Z</time>
      </trkpt>
      <trkpt lat="42.518023" lon="0.849128">
        <ele>1492.058</ele>
        <time>2018-11-24T11:49:03Z</time>
      </trkpt>
      <trkpt lat="42.518105" lon="0.849106">
        <ele>1492.160</ele>
        <time>2018-11-24T11:49:04Z</time>
      </trkpt>
      <trkpt lat="42.518169" lon="0.849107">
        <ele>1492.578</ele>
        <time>2018-11-24T11:49:07Z</time>
      </trkpt>
      <trkpt lat="42.518218" lon="0.849109">
        <ele>1492.615</ele>
        <time>2018-11-24T11:49:08Z</time>
      </trkpt>
      <trkpt lat="42.518276" lon="0.849113">
        <ele>1492.665</ele>
        <time>2018-11-24T11:49:11Z</time>
      </trkpt>
      <trkpt lat="42.518358" lon="0.849122">
        <ele>1493.011</ele>
        <time>2018-11-24T11:49:15Z</time>
      </trkpt>
      <trkpt lat="42.518418" lon="0.849133">
        <ele>1493.108</ele>
        <time>2018-11-24T11:49:17Z</time>
      </trkpt>
      <trkpt lat="42.518489" lon="0.849139">
        <ele>1493.314</ele>
        <time>2018-11-24T11:49:20Z</time>
      </trkpt>
      <trkpt lat="42.518548" lon="0.849139">
        <ele>1493.661</ele>
        <time>2018-11-24T11:49:22Z</time>
      </trkpt>
      <trkpt lat="42.518682" lon="0.849134">
        <ele>1494.128</ele>
        <time>2018-11-24T11:49:24Z</time>
      </trkpt>
      <trkpt lat="42.518765" lon="0.849136">
        <ele>1494.318</ele>
        <time>2018-11-24T11:49:26Z</time>
      </trkpt>
      <trkpt lat="42.518839" lon="0.849133">
        <ele>1494.910</ele>
        <time>2018-11-24T11:49:28Z</time>
      </trkpt>
      <trkpt lat="42.518883" lon="0.849116">
        <ele>1495.290</ele>
        <time>2018-11-24T11:49:29Z</time>
      </trkpt>
      <trkpt lat="42.518929" lon="0.849090">
        <ele>1495.362</ele>
        <time>2018-11-24T11:49:30Z</time>
      </trkpt>
      <trkpt lat="42.518976" lon="0.849070">
        <ele>1495.640</ele>
        <time>2018-11-24T11:49:31Z</time>
      </trkpt>
      <trkpt lat="42.519038" lon="0.849044">
        <ele>1496.119</ele>
        <time>2018-11-24T11:49:33Z</time>
      </trkpt>
      <trkpt lat="42.519093" lon="0.849044">
        <ele>1497.009</ele>
        <time>2018-11-24T11:49:46Z</time>
      </trkpt>
      <trkpt lat="42.519064" lon="0.849095">
        <ele>1496.719</ele>
        <time>2018-11-24T11:49:55Z</time>
      </trkpt>
      <trkpt lat="42.518992" lon="0.849143">
        <ele>1492.187</ele>
        <time>2018-11-24T12:02:50Z</time>
      </trkpt>
      <trkpt lat="42.518971" lon="0.849085">
        <ele>1492.142</ele>
        <time>2018-11-24T12:03:17Z</time>
      </trkpt>
      <trkpt lat="42.518909" lon="0.849085">
        <ele>1492.126</ele>
        <time>2018-11-24T12:03:20Z</time>
      </trkpt>
      <trkpt lat="42.518846" lon="0.849104">
        <ele>1492.108</ele>
        <time>2018-11-24T12:03:22Z</time>
      </trkpt>
      <trkpt lat="42.518771" lon="0.849120">
        <ele>1492.111</ele>
        <time>2018-11-24T12:03:24Z</time>
      </trkpt>
      <trkpt lat="42.518721" lon="0.849125">
        <ele>1492.158</ele>
        <time>2018-11-24T12:03:25Z</time>
      </trkpt>
      <trkpt lat="42.518676" lon="0.849129">
        <ele>1492.155</ele>
        <time>2018-11-24T12:03:26Z</time>
      </trkpt>
      <trkpt lat="42.518596" lon="0.849130">
        <ele>1492.116</ele>
        <time>2018-11-24T12:03:28Z</time>
      </trkpt>
      <trkpt lat="42.518527" lon="0.849129">
        <ele>1492.144</ele>
        <time>2018-11-24T12:03:30Z</time>
      </trkpt>
      <trkpt lat="42.518457" lon="0.849129">
        <ele>1492.146</ele>
        <time>2018-11-24T12:03:32Z</time>
      </trkpt>
      <trkpt lat="42.518410" lon="0.849130">
        <ele>1492.199</ele>
        <time>2018-11-24T12:03:33Z</time>
      </trkpt>
      <trkpt lat="42.518347" lon="0.849130">
        <ele>1492.163</ele>
        <time>2018-11-24T12:03:35Z</time>
      </trkpt>
      <trkpt lat="42.518277" lon="0.849131">
        <ele>1492.177</ele>
        <time>2018-11-24T12:03:37Z</time>
      </trkpt>
      <trkpt lat="42.518158" lon="0.849137">
        <ele>1492.161</ele>
        <time>2018-11-24T12:03:39Z</time>
      </trkpt>
      <trkpt lat="42.518077" lon="0.849138">
        <ele>1492.127</ele>
        <time>2018-11-24T12:03:41Z</time>
      </trkpt>
      <trkpt lat="42.517997" lon="0.849143">
        <ele>1491.908</ele>
        <time>2018-11-24T12:03:43Z</time>
      </trkpt>
      <trkpt lat="42.517916" lon="0.849151">
        <ele>1491.330</ele>
        <time>2018-11-24T12:03:45Z</time>
      </trkpt>
      <trkpt lat="42.517835" lon="0.849148">
        <ele>1491.367</ele>
        <time>2018-11-24T12:03:47Z</time>
      </trkpt>
      <trkpt lat="42.517758" lon="0.849139">
        <ele>1490.994</ele>
        <time>2018-11-24T12:03:49Z</time>
      </trkpt>
      <trkpt lat="42.517679" lon="0.849141">
        <ele>1490.715</ele>
        <time>2018-11-24T12:03:51Z</time>
      </trkpt>
      <trkpt lat="42.517596" lon="0.849137">
        <ele>1490.383</ele>
        <time>2018-11-24T12:03:53Z</time>
      </trkpt>
      <trkpt lat="42.517508" lon="0.849118">
        <ele>1489.615</ele>
        <time>2018-11-24T12:03:55Z</time>
      </trkpt>
      <trkpt lat="42.517465" lon="0.849099">
        <ele>1489.378</ele>
        <time>2018-11-24T12:03:56Z</time>
      </trkpt>
      <trkpt lat="42.517422" lon="0.849074">
        <ele>1489.072</ele>
        <time>2018-11-24T12:03:57Z</time>
      </trkpt>
      <trkpt lat="42.517378" lon="0.849045">
        <ele>1488.587</ele>
        <time>2018-11-24T12:03:58Z</time>
      </trkpt>
      <trkpt lat="42.517332" lon="0.849016">
        <ele>1488.142</ele>
        <time>2018-11-24T12:03:59Z</time>
      </trkpt>
      <trkpt lat="42.517286" lon="0.848988">
        <ele>1487.826</ele>
        <time>2018-11-24T12:04:00Z</time>
      </trkpt>
      <trkpt lat="42.517239" lon="0.848962">
        <ele>1487.508</ele>
        <time>2018-11-24T12:04:01Z</time>
      </trkpt>
      <trkpt lat="42.517193" lon="0.848934">
        <ele>1487.241</ele>
        <time>2018-11-24T12:04:02Z</time>
      </trkpt>
      <trkpt lat="42.517121" lon="0.848878">
        <ele>1486.818</ele>
        <time>2018-11-24T12:04:04Z</time>
      </trkpt>
      <trkpt lat="42.517085" lon="0.848830">
        <ele>1486.515</ele>
        <time>2018-11-24T12:04:07Z</time>
      </trkpt>
      <trkpt lat="42.517073" lon="0.848762">
        <ele>1486.666</ele>
        <time>2018-11-24T12:04:17Z</time>
      </trkpt>
      <trkpt lat="42.517118" lon="0.848635">
        <ele>1486.334</ele>
        <time>2018-11-24T12:04:19Z</time>
      </trkpt>
      <trkpt lat="42.517150" lon="0.848575">
        <ele>1486.116</ele>
        <time>2018-11-24T12:04:20Z</time>
      </trkpt>
      <trkpt lat="42.517189" lon="0.848512">
        <ele>1485.759</ele>
        <time>2018-11-24T12:04:21Z</time>
      </trkpt>
      <trkpt lat="42.517229" lon="0.848445">
        <ele>1485.243</ele>
        <time>2018-11-24T12:04:22Z</time>
      </trkpt>
      <trkpt lat="42.517277" lon="0.848382">
        <ele>1484.723</ele>
        <time>2018-11-24T12:04:23Z</time>
      </trkpt>
      <trkpt lat="42.517331" lon="0.848315">
        <ele>1484.583</ele>
        <time>2018-11-24T12:04:24Z</time>
      </trkpt>
      <trkpt lat="42.517408" lon="0.848276">
        <ele>1484.211</ele>
        <time>2018-11-24T12:04:25Z</time>
      </trkpt>
      <trkpt lat="42.517495" lon="0.848264">
        <ele>1483.808</ele>
        <time>2018-11-24T12:04:26Z</time>
      </trkpt>
      <trkpt lat="42.517587" lon="0.848259">
        <ele>1483.535</ele>
        <time>2018-11-24T12:04:27Z</time>
      </trkpt>
      <trkpt lat="42.517678" lon="0.848256">
        <ele>1483.062</ele>
        <time>2018-11-24T12:04:28Z</time>
      </trkpt>
      <trkpt lat="42.517769" lon="0.848250">
        <ele>1482.639</ele>
        <time>2018-11-24T12:04:29Z</time>
      </trkpt>
      <trkpt lat="42.517863" lon="0.848242">
        <ele>1482.080</ele>
        <time>2018-11-24T12:04:30Z</time>
      </trkpt>
      <trkpt lat="42.517959" lon="0.848230">
        <ele>1481.328</ele>
        <time>2018-11-24T12:04:31Z</time>
      </trkpt>
      <trkpt lat="42.518057" lon="0.848189">
        <ele>1480.670</ele>
        <time>2018-11-24T12:04:32Z</time>
      </trkpt>
      <trkpt lat="42.518157" lon="0.848145">
        <ele>1479.863</ele>
        <time>2018-11-24T12:04:33Z</time>
      </trkpt>
      <trkpt lat="42.518252" lon="0.848073">
        <ele>1478.957</ele>
        <time>2018-11-24T12:04:34Z</time>
      </trkpt>
      <trkpt lat="42.518344" lon="0.847991">
        <ele>1478.031</ele>
        <time>2018-11-24T12:04:35Z</time>
      </trkpt>
      <trkpt lat="42.518433" lon="0.847899">
        <ele>1477.061</ele>
        <time>2018-11-24T12:04:36Z</time>
      </trkpt>
      <trkpt lat="42.518526" lon="0.847799">
        <ele>1476.407</ele>
        <time>2018-11-24T12:04:37Z</time>
      </trkpt>
      <trkpt lat="42.518624" lon="0.847690">
        <ele>1475.308</ele>
        <time>2018-11-24T12:04:38Z</time>
      </trkpt>
      <trkpt lat="42.518722" lon="0.847575">
        <ele>1474.456</ele>
        <time>2018-11-24T12:04:39Z</time>
      </trkpt>
      <trkpt lat="42.518821" lon="0.847458">
        <ele>1473.443</ele>
        <time>2018-11-24T12:04:40Z</time>
      </trkpt>
      <trkpt lat="42.518918" lon="0.847337">
        <ele>1472.370</ele>
        <time>2018-11-24T12:04:41Z</time>
      </trkpt>
      <trkpt lat="42.519016" lon="0.847213">
        <ele>1471.421</ele>
        <time>2018-11-24T12:04:42Z</time>
      </trkpt>
      <trkpt lat="42.519114" lon="0.847086">
        <ele>1470.499</ele>
        <time>2018-11-24T12:04:43Z</time>
      </trkpt>
      <trkpt lat="42.519206" lon="0.846947">
        <ele>1469.551</ele>
        <time>2018-11-24T12:04:44Z</time>
      </trkpt>
      <trkpt lat="42.519289" lon="0.846797">
        <ele>1468.324</ele>
        <time>2018-11-24T12:04:45Z</time>
      </trkpt>
      <trkpt lat="42.519365" lon="0.846636">
        <ele>1467.118</ele>
        <time>2018-11-24T12:04:46Z</time>
      </trkpt>
      <trkpt lat="42.519439" lon="0.846468">
        <ele>1465.811</ele>
        <time>2018-11-24T12:04:47Z</time>
      </trkpt>
      <trkpt lat="42.519514" lon="0.846294">
        <ele>1464.521</ele>
        <time>2018-11-24T12:04:48Z</time>
      </trkpt>
      <trkpt lat="42.519590" lon="0.846117">
        <ele>1463.203</ele>
        <time>2018-11-24T12:04:49Z</time>
      </trkpt>
      <trkpt lat="42.519676" lon="0.845940">
        <ele>1461.608</ele>
        <time>2018-11-24T12:04:50Z</time>
      </trkpt>
      <trkpt lat="42.519762" lon="0.845761">
        <ele>1460.184</ele>
        <time>2018-11-24T12:04:51Z</time>
      </trkpt>
      <trkpt lat="42.519854" lon="0.845582">
        <ele>1458.661</ele>
        <time>2018-11-24T12:04:52Z</time>
      </trkpt>
      <trkpt lat="42.519959" lon="0.845411">
        <ele>1457.178</ele>
        <time>2018-11-24T12:04:53Z</time>
      </trkpt>
      <trkpt lat="42.520079" lon="0.845254">
        <ele>1455.379</ele>
        <time>2018-11-24T12:04:54Z</time>
      </trkpt>
      <trkpt lat="42.520208" lon="0.845101">
        <ele>1453.967</ele>
        <time>2018-11-24T12:04:55Z</time>
      </trkpt>
      <trkpt lat="42.520325" lon="0.844928">
        <ele>1452.269</ele>
        <time>2018-11-24T12:04:56Z</time>
      </trkpt>
      <trkpt lat="42.520425" lon="0.844738">
        <ele>1450.952</ele>
        <time>2018-11-24T12:04:57Z</time>
      </trkpt>
      <trkpt lat="42.520523" lon="0.844542">
        <ele>1449.476</ele>
        <time>2018-11-24T12:04:58Z</time>
      </trkpt>
      <trkpt lat="42.520628" lon="0.844350">
        <ele>1448.139</ele>
        <time>2018-11-24T12:04:59Z</time>
      </trkpt>
      <trkpt lat="42.520743" lon="0.844166">
        <ele>1446.301</ele>
        <time>2018-11-24T12:05:00Z</time>
      </trkpt>
      <trkpt lat="42.520864" lon="0.843988">
        <ele>1445.021</ele>
        <time>2018-11-24T12:05:01Z</time>
      </trkpt>
      <trkpt lat="42.520989" lon="0.843813">
        <ele>1443.708</ele>
        <time>2018-11-24T12:05:02Z</time>
      </trkpt>
      <trkpt lat="42.521111" lon="0.843636">
        <ele>1442.526</ele>
        <time>2018-11-24T12:05:03Z</time>
      </trkpt>
      <trkpt lat="42.521226" lon="0.843439">
        <ele>1441.243</ele>
        <time>2018-11-24T12:05:04Z</time>
      </trkpt>
      <trkpt lat="42.521340" lon="0.843241">
        <ele>1439.790</ele>
        <time>2018-11-24T12:05:05Z</time>
      </trkpt>
      <trkpt lat="42.521445" lon="0.843043">
        <ele>1438.391</ele>
        <time>2018-11-24T12:05:06Z</time>
      </trkpt>
      <trkpt lat="42.521543" lon="0.842837">
        <ele>1436.919</ele>
        <time>2018-11-24T12:05:07Z</time>
      </trkpt>
      <trkpt lat="42.521641" lon="0.842628">
        <ele>1435.311</ele>
        <time>2018-11-24T12:05:08Z</time>
      </trkpt>
      <trkpt lat="42.521746" lon="0.842423">
        <ele>1433.844</ele>
        <time>2018-11-24T12:05:09Z</time>
      </trkpt>
      <trkpt lat="42.521858" lon="0.842226">
        <ele>1432.618</ele>
        <time>2018-11-24T12:05:10Z</time>
      </trkpt>
      <trkpt lat="42.521970" lon="0.842044">
        <ele>1430.968</ele>
        <time>2018-11-24T12:05:11Z</time>
      </trkpt>
      <trkpt lat="42.522068" lon="0.841900">
        <ele>1429.042</ele>
        <time>2018-11-24T12:05:12Z</time>
      </trkpt>
      <trkpt lat="42.522153" lon="0.841792">
        <ele>1426.626</ele>
        <time>2018-11-24T12:05:13Z</time>
      </trkpt>
      <trkpt lat="42.522228" lon="0.841703">
        <ele>1425.208</ele>
        <time>2018-11-24T12:05:14Z</time>
      </trkpt>
      <trkpt lat="42.522280" lon="0.841614">
        <ele>1424.169</ele>
        <time>2018-11-24T12:05:15Z</time>
      </trkpt>
      <trkpt lat="42.522300" lon="0.841504">
        <ele>1423.016</ele>
        <time>2018-11-24T12:05:16Z</time>
      </trkpt>
      <trkpt lat="42.522267" lon="0.841400">
        <ele>1422.173</ele>
        <time>2018-11-24T12:05:17Z</time>
      </trkpt>
      <trkpt lat="42.522200" lon="0.841340">
        <ele>1421.434</ele>
        <time>2018-11-24T12:05:18Z</time>
      </trkpt>
      <trkpt lat="42.522119" lon="0.841313">
        <ele>1420.382</ele>
        <time>2018-11-24T12:05:19Z</time>
      </trkpt>
      <trkpt lat="42.522051" lon="0.841430">
        <ele>1419.594</ele>
        <time>2018-11-24T12:05:20Z</time>
      </trkpt>
      <trkpt lat="42.521971" lon="0.841549">
        <ele>1418.767</ele>
        <time>2018-11-24T12:05:21Z</time>
      </trkpt>
      <trkpt lat="42.521877" lon="0.841668">
        <ele>1417.991</ele>
        <time>2018-11-24T12:05:22Z</time>
      </trkpt>
      <trkpt lat="42.521769" lon="0.841792">
        <ele>1416.689</ele>
        <time>2018-11-24T12:05:23Z</time>
      </trkpt>
      <trkpt lat="42.521653" lon="0.841915">
        <ele>1415.406</ele>
        <time>2018-11-24T12:05:24Z</time>
      </trkpt>
      <trkpt lat="42.521532" lon="0.842036">
        <ele>1413.826</ele>
        <time>2018-11-24T12:05:25Z</time>
      </trkpt>
      <trkpt lat="42.521411" lon="0.842166">
        <ele>1412.308</ele>
        <time>2018-11-24T12:05:26Z</time>
      </trkpt>
      <trkpt lat="42.521286" lon="0.842292">
        <ele>1410.591</ele>
        <time>2018-11-24T12:05:27Z</time>
      </trkpt>
      <trkpt lat="42.521158" lon="0.842427">
        <ele>1409.298</ele>
        <time>2018-11-24T12:05:28Z</time>
      </trkpt>
      <trkpt lat="42.521014" lon="0.842544">
        <ele>1407.615</ele>
        <time>2018-11-24T12:05:29Z</time>
      </trkpt>
      <trkpt lat="42.520862" lon="0.842637">
        <ele>1406.336</ele>
        <time>2018-11-24T12:05:30Z</time>
      </trkpt>
      <trkpt lat="42.520699" lon="0.842705">
        <ele>1404.354</ele>
        <time>2018-11-24T12:05:31Z</time>
      </trkpt>
      <trkpt lat="42.520535" lon="0.842766">
        <ele>1402.956</ele>
        <time>2018-11-24T12:05:32Z</time>
      </trkpt>
      <trkpt lat="42.520385" lon="0.842825">
        <ele>1400.889</ele>
        <time>2018-11-24T12:05:33Z</time>
      </trkpt>
      <trkpt lat="42.520260" lon="0.842872">
        <ele>1399.083</ele>
        <time>2018-11-24T12:05:34Z</time>
      </trkpt>
      <trkpt lat="42.520157" lon="0.842906">
        <ele>1397.174</ele>
        <time>2018-11-24T12:05:35Z</time>
      </trkpt>
      <trkpt lat="42.520072" lon="0.842922">
        <ele>1396.056</ele>
        <time>2018-11-24T12:05:36Z</time>
      </trkpt>
      <trkpt lat="42.519993" lon="0.842886">
        <ele>1395.221</ele>
        <time>2018-11-24T12:05:37Z</time>
      </trkpt>
      <trkpt lat="42.519931" lon="0.842793">
        <ele>1394.408</ele>
        <time>2018-11-24T12:05:38Z</time>
      </trkpt>
      <trkpt lat="42.519916" lon="0.842671">
        <ele>1393.690</ele>
        <time>2018-11-24T12:05:39Z</time>
      </trkpt>
      <trkpt lat="42.519993" lon="0.842572">
        <ele>1392.917</ele>
        <time>2018-11-24T12:05:40Z</time>
      </trkpt>
      <trkpt lat="42.520097" lon="0.842570">
        <ele>1392.324</ele>
        <time>2018-11-24T12:05:41Z</time>
      </trkpt>
      <trkpt lat="42.520180" lon="0.842561">
        <ele>1391.495</ele>
        <time>2018-11-24T12:05:42Z</time>
      </trkpt>
      <trkpt lat="42.520263" lon="0.842516">
        <ele>1390.813</ele>
        <time>2018-11-24T12:05:43Z</time>
      </trkpt>
      <trkpt lat="42.520356" lon="0.842425">
        <ele>1390.065</ele>
        <time>2018-11-24T12:05:44Z</time>
      </trkpt>
      <trkpt lat="42.520447" lon="0.842359">
        <ele>1389.468</ele>
        <time>2018-11-24T12:05:45Z</time>
      </trkpt>
      <trkpt lat="42.520530" lon="0.842271">
        <ele>1388.862</ele>
        <time>2018-11-24T12:05:46Z</time>
      </trkpt>
      <trkpt lat="42.520609" lon="0.842164">
        <ele>1388.212</ele>
        <time>2018-11-24T12:05:47Z</time>
      </trkpt>
      <trkpt lat="42.520689" lon="0.842052">
        <ele>1387.532</ele>
        <time>2018-11-24T12:05:48Z</time>
      </trkpt>
      <trkpt lat="42.520774" lon="0.841927">
        <ele>1386.605</ele>
        <time>2018-11-24T12:05:49Z</time>
      </trkpt>
      <trkpt lat="42.520857" lon="0.841787">
        <ele>1385.408</ele>
        <time>2018-11-24T12:05:50Z</time>
      </trkpt>
      <trkpt lat="42.520936" lon="0.841635">
        <ele>1384.454</ele>
        <time>2018-11-24T12:05:51Z</time>
      </trkpt>
      <trkpt lat="42.521014" lon="0.841486">
        <ele>1383.211</ele>
        <time>2018-11-24T12:05:52Z</time>
      </trkpt>
      <trkpt lat="42.521093" lon="0.841334">
        <ele>1382.258</ele>
        <time>2018-11-24T12:05:53Z</time>
      </trkpt>
      <trkpt lat="42.521169" lon="0.841176">
        <ele>1381.069</ele>
        <time>2018-11-24T12:05:54Z</time>
      </trkpt>
      <trkpt lat="42.521249" lon="0.841010">
        <ele>1380.037</ele>
        <time>2018-11-24T12:05:55Z</time>
      </trkpt>
      <trkpt lat="42.521334" lon="0.840841">
        <ele>1378.799</ele>
        <time>2018-11-24T12:05:56Z</time>
      </trkpt>
      <trkpt lat="42.521426" lon="0.840680">
        <ele>1377.682</ele>
        <time>2018-11-24T12:05:57Z</time>
      </trkpt>
      <trkpt lat="42.521536" lon="0.840547">
        <ele>1376.226</ele>
        <time>2018-11-24T12:05:58Z</time>
      </trkpt>
      <trkpt lat="42.521640" lon="0.840447">
        <ele>1374.951</ele>
        <time>2018-11-24T12:05:59Z</time>
      </trkpt>
      <trkpt lat="42.521747" lon="0.840389">
        <ele>1373.101</ele>
        <time>2018-11-24T12:06:00Z</time>
      </trkpt>
      <trkpt lat="42.521829" lon="0.840354">
        <ele>1371.711</ele>
        <time>2018-11-24T12:06:01Z</time>
      </trkpt>
      <trkpt lat="42.521896" lon="0.840311">
        <ele>1371.008</ele>
        <time>2018-11-24T12:06:02Z</time>
      </trkpt>
      <trkpt lat="42.521958" lon="0.840261">
        <ele>1370.398</ele>
        <time>2018-11-24T12:06:03Z</time>
      </trkpt>
      <trkpt lat="42.521964" lon="0.840152">
        <ele>1369.785</ele>
        <time>2018-11-24T12:06:04Z</time>
      </trkpt>
      <trkpt lat="42.521922" lon="0.840064">
        <ele>1368.952</ele>
        <time>2018-11-24T12:06:05Z</time>
      </trkpt>
      <trkpt lat="42.521828" lon="0.840038">
        <ele>1368.153</ele>
        <time>2018-11-24T12:06:06Z</time>
      </trkpt>
      <trkpt lat="42.521740" lon="0.840041">
        <ele>1367.411</ele>
        <time>2018-11-24T12:06:07Z</time>
      </trkpt>
      <trkpt lat="42.521661" lon="0.840076">
        <ele>1366.783</ele>
        <time>2018-11-24T12:06:08Z</time>
      </trkpt>
      <trkpt lat="42.521591" lon="0.840131">
        <ele>1366.196</ele>
        <time>2018-11-24T12:06:09Z</time>
      </trkpt>
      <trkpt lat="42.521521" lon="0.840197">
        <ele>1365.440</ele>
        <time>2018-11-24T12:06:10Z</time>
      </trkpt>
      <trkpt lat="42.521442" lon="0.840267">
        <ele>1364.588</ele>
        <time>2018-11-24T12:06:11Z</time>
      </trkpt>
      <trkpt lat="42.521358" lon="0.840337">
        <ele>1363.824</ele>
        <time>2018-11-24T12:06:12Z</time>
      </trkpt>
      <trkpt lat="42.521267" lon="0.840420">
        <ele>1363.126</ele>
        <time>2018-11-24T12:06:13Z</time>
      </trkpt>
      <trkpt lat="42.521164" lon="0.840505">
        <ele>1362.208</ele>
        <time>2018-11-24T12:06:14Z</time>
      </trkpt>
      <trkpt lat="42.521056" lon="0.840590">
        <ele>1361.211</ele>
        <time>2018-11-24T12:06:15Z</time>
      </trkpt>
      <trkpt lat="42.520943" lon="0.840658">
        <ele>1360.238</ele>
        <time>2018-11-24T12:06:16Z</time>
      </trkpt>
      <trkpt lat="42.520824" lon="0.840698">
        <ele>1359.195</ele>
        <time>2018-11-24T12:06:17Z</time>
      </trkpt>
      <trkpt lat="42.520700" lon="0.840715">
        <ele>1357.696</ele>
        <time>2018-11-24T12:06:18Z</time>
      </trkpt>
      <trkpt lat="42.520580" lon="0.840639">
        <ele>1356.464</ele>
        <time>2018-11-24T12:06:19Z</time>
      </trkpt>
      <trkpt lat="42.520474" lon="0.840540">
        <ele>1355.426</ele>
        <time>2018-11-24T12:06:20Z</time>
      </trkpt>
      <trkpt lat="42.520373" lon="0.840442">
        <ele>1354.599</ele>
        <time>2018-11-24T12:06:21Z</time>
      </trkpt>
      <trkpt lat="42.520267" lon="0.840343">
        <ele>1353.223</ele>
        <time>2018-11-24T12:06:22Z</time>
      </trkpt>
      <trkpt lat="42.520174" lon="0.840250">
        <ele>1351.573</ele>
        <time>2018-11-24T12:06:23Z</time>
      </trkpt>
      <trkpt lat="42.520090" lon="0.840166">
        <ele>1350.285</ele>
        <time>2018-11-24T12:06:24Z</time>
      </trkpt>
      <trkpt lat="42.520022" lon="0.840070">
        <ele>1348.813</ele>
        <time>2018-11-24T12:06:25Z</time>
      </trkpt>
      <trkpt lat="42.519962" lon="0.839984">
        <ele>1348.108</ele>
        <time>2018-11-24T12:06:26Z</time>
      </trkpt>
      <trkpt lat="42.519936" lon="0.839873">
        <ele>1347.440</ele>
        <time>2018-11-24T12:06:27Z</time>
      </trkpt>
      <trkpt lat="42.519974" lon="0.839761">
        <ele>1346.317</ele>
        <time>2018-11-24T12:06:28Z</time>
      </trkpt>
      <trkpt lat="42.520051" lon="0.839658">
        <ele>1345.424</ele>
        <time>2018-11-24T12:06:29Z</time>
      </trkpt>
      <trkpt lat="42.520169" lon="0.839604">
        <ele>1344.855</ele>
        <time>2018-11-24T12:06:30Z</time>
      </trkpt>
      <trkpt lat="42.520271" lon="0.839569">
        <ele>1343.913</ele>
        <time>2018-11-24T12:06:31Z</time>
      </trkpt>
      <trkpt lat="42.520372" lon="0.839525">
        <ele>1343.085</ele>
        <time>2018-11-24T12:06:32Z</time>
      </trkpt>
      <trkpt lat="42.520482" lon="0.839459">
        <ele>1341.928</ele>
        <time>2018-11-24T12:06:33Z</time>
      </trkpt>
      <trkpt lat="42.520589" lon="0.839369">
        <ele>1340.852</ele>
        <time>2018-11-24T12:06:34Z</time>
      </trkpt>
      <trkpt lat="42.520693" lon="0.839261">
        <ele>1339.943</ele>
        <time>2018-11-24T12:06:35Z</time>
      </trkpt>
      <trkpt lat="42.520787" lon="0.839131">
        <ele>1338.664</ele>
        <time>2018-11-24T12:06:36Z</time>
      </trkpt>
      <trkpt lat="42.520883" lon="0.838994">
        <ele>1337.310</ele>
        <time>2018-11-24T12:06:37Z</time>
      </trkpt>
      <trkpt lat="42.520969" lon="0.838847">
        <ele>1335.908</ele>
        <time>2018-11-24T12:06:38Z</time>
      </trkpt>
      <trkpt lat="42.521057" lon="0.838696">
        <ele>1334.937</ele>
        <time>2018-11-24T12:06:39Z</time>
      </trkpt>
      <trkpt lat="42.521144" lon="0.838544">
        <ele>1333.384</ele>
        <time>2018-11-24T12:06:40Z</time>
      </trkpt>
      <trkpt lat="42.521236" lon="0.838397">
        <ele>1331.771</ele>
        <time>2018-11-24T12:06:41Z</time>
      </trkpt>
      <trkpt lat="42.521329" lon="0.838244">
        <ele>1330.332</ele>
        <time>2018-11-24T12:06:42Z</time>
      </trkpt>
      <trkpt lat="42.521421" lon="0.838092">
        <ele>1328.620</ele>
        <time>2018-11-24T12:06:43Z</time>
      </trkpt>
      <trkpt lat="42.521528" lon="0.837955">
        <ele>1327.572</ele>
        <time>2018-11-24T12:06:44Z</time>
      </trkpt>
      <trkpt lat="42.521628" lon="0.837838">
        <ele>1325.935</ele>
        <time>2018-11-24T12:06:45Z</time>
      </trkpt>
      <trkpt lat="42.521722" lon="0.837739">
        <ele>1324.139</ele>
        <time>2018-11-24T12:06:46Z</time>
      </trkpt>
      <trkpt lat="42.521821" lon="0.837656">
        <ele>1322.676</ele>
        <time>2018-11-24T12:06:47Z</time>
      </trkpt>
      <trkpt lat="42.521933" lon="0.837585">
        <ele>1322.290</ele>
        <time>2018-11-24T12:06:48Z</time>
      </trkpt>
      <trkpt lat="42.522047" lon="0.837524">
        <ele>1321.919</ele>
        <time>2018-11-24T12:06:49Z</time>
      </trkpt>
      <trkpt lat="42.522173" lon="0.837469">
        <ele>1321.008</ele>
        <time>2018-11-24T12:06:50Z</time>
      </trkpt>
      <trkpt lat="42.522309" lon="0.837410">
        <ele>1320.150</ele>
        <time>2018-11-24T12:06:51Z</time>
      </trkpt>
      <trkpt lat="42.522447" lon="0.837336">
        <ele>1318.897</ele>
        <time>2018-11-24T12:06:52Z</time>
      </trkpt>
      <trkpt lat="42.522592" lon="0.837251">
        <ele>1317.634</ele>
        <time>2018-11-24T12:06:53Z</time>
      </trkpt>
      <trkpt lat="42.522735" lon="0.837155">
        <ele>1316.255</ele>
        <time>2018-11-24T12:06:54Z</time>
      </trkpt>
      <trkpt lat="42.522868" lon="0.837027">
        <ele>1315.113</ele>
        <time>2018-11-24T12:06:55Z</time>
      </trkpt>
      <trkpt lat="42.522996" lon="0.836881">
        <ele>1313.715</ele>
        <time>2018-11-24T12:06:56Z</time>
      </trkpt>
      <trkpt lat="42.523118" lon="0.836740">
        <ele>1312.248</ele>
        <time>2018-11-24T12:06:57Z</time>
      </trkpt>
      <trkpt lat="42.523240" lon="0.836617">
        <ele>1310.572</ele>
        <time>2018-11-24T12:06:58Z</time>
      </trkpt>
      <trkpt lat="42.523364" lon="0.836512">
        <ele>1309.152</ele>
        <time>2018-11-24T12:06:59Z</time>
      </trkpt>
      <trkpt lat="42.523483" lon="0.836418">
        <ele>1307.353</ele>
        <time>2018-11-24T12:07:00Z</time>
      </trkpt>
      <trkpt lat="42.523582" lon="0.836319">
        <ele>1305.808</ele>
        <time>2018-11-24T12:07:01Z</time>
      </trkpt>
      <trkpt lat="42.523661" lon="0.836226">
        <ele>1304.608</ele>
        <time>2018-11-24T12:07:02Z</time>
      </trkpt>
      <trkpt lat="42.523716" lon="0.836099">
        <ele>1303.478</ele>
        <time>2018-11-24T12:07:03Z</time>
      </trkpt>
      <trkpt lat="42.523730" lon="0.835977">
        <ele>1302.475</ele>
        <time>2018-11-24T12:07:04Z</time>
      </trkpt>
      <trkpt lat="42.523702" lon="0.835857">
        <ele>1301.522</ele>
        <time>2018-11-24T12:07:05Z</time>
      </trkpt>
      <trkpt lat="42.523644" lon="0.835764">
        <ele>1300.433</ele>
        <time>2018-11-24T12:07:06Z</time>
      </trkpt>
      <trkpt lat="42.523553" lon="0.835706">
        <ele>1299.741</ele>
        <time>2018-11-24T12:07:07Z</time>
      </trkpt>
      <trkpt lat="42.523441" lon="0.835688">
        <ele>1299.083</ele>
        <time>2018-11-24T12:07:08Z</time>
      </trkpt>
      <trkpt lat="42.523316" lon="0.835696">
        <ele>1298.226</ele>
        <time>2018-11-24T12:07:09Z</time>
      </trkpt>
      <trkpt lat="42.523170" lon="0.835715">
        <ele>1297.210</ele>
        <time>2018-11-24T12:07:10Z</time>
      </trkpt>
      <trkpt lat="42.523011" lon="0.835731">
        <ele>1296.265</ele>
        <time>2018-11-24T12:07:11Z</time>
      </trkpt>
      <trkpt lat="42.522848" lon="0.835725">
        <ele>1294.668</ele>
        <time>2018-11-24T12:07:12Z</time>
      </trkpt>
      <trkpt lat="42.522684" lon="0.835689">
        <ele>1293.214</ele>
        <time>2018-11-24T12:07:13Z</time>
      </trkpt>
      <trkpt lat="42.522525" lon="0.835637">
        <ele>1291.708</ele>
        <time>2018-11-24T12:07:14Z</time>
      </trkpt>
      <trkpt lat="42.522379" lon="0.835584">
        <ele>1290.329</ele>
        <time>2018-11-24T12:07:15Z</time>
      </trkpt>
      <trkpt lat="42.522251" lon="0.835534">
        <ele>1288.616</ele>
        <time>2018-11-24T12:07:16Z</time>
      </trkpt>
      <trkpt lat="42.522134" lon="0.835492">
        <ele>1287.193</ele>
        <time>2018-11-24T12:07:17Z</time>
      </trkpt>
      <trkpt lat="42.522025" lon="0.835458">
        <ele>1286.084</ele>
        <time>2018-11-24T12:07:18Z</time>
      </trkpt>
      <trkpt lat="42.521922" lon="0.835432">
        <ele>1285.012</ele>
        <time>2018-11-24T12:07:19Z</time>
      </trkpt>
      <trkpt lat="42.521828" lon="0.835408">
        <ele>1284.124</ele>
        <time>2018-11-24T12:07:20Z</time>
      </trkpt>
      <trkpt lat="42.521752" lon="0.835374">
        <ele>1283.087</ele>
        <time>2018-11-24T12:07:21Z</time>
      </trkpt>
      <trkpt lat="42.521695" lon="0.835344">
        <ele>1282.121</ele>
        <time>2018-11-24T12:07:22Z</time>
      </trkpt>
      <trkpt lat="42.521652" lon="0.835284">
        <ele>1281.067</ele>
        <time>2018-11-24T12:07:23Z</time>
      </trkpt>
      <trkpt lat="42.521629" lon="0.835212">
        <ele>1280.481</ele>
        <time>2018-11-24T12:07:24Z</time>
      </trkpt>
      <trkpt lat="42.521650" lon="0.835134">
        <ele>1280.019</ele>
        <time>2018-11-24T12:07:25Z</time>
      </trkpt>
      <trkpt lat="42.521684" lon="0.835065">
        <ele>1279.408</ele>
        <time>2018-11-24T12:07:26Z</time>
      </trkpt>
      <trkpt lat="42.521744" lon="0.835021">
        <ele>1278.849</ele>
        <time>2018-11-24T12:07:27Z</time>
      </trkpt>
      <trkpt lat="42.521816" lon="0.834965">
        <ele>1277.996</ele>
        <time>2018-11-24T12:07:28Z</time>
      </trkpt>
      <trkpt lat="42.521884" lon="0.834893">
        <ele>1277.073</ele>
        <time>2018-11-24T12:07:29Z</time>
      </trkpt>
      <trkpt lat="42.521966" lon="0.834808">
        <ele>1276.244</ele>
        <time>2018-11-24T12:07:30Z</time>
      </trkpt>
      <trkpt lat="42.522047" lon="0.834720">
        <ele>1275.312</ele>
        <time>2018-11-24T12:07:31Z</time>
      </trkpt>
      <trkpt lat="42.522124" lon="0.834619">
        <ele>1274.064</ele>
        <time>2018-11-24T12:07:32Z</time>
      </trkpt>
      <trkpt lat="42.522209" lon="0.834514">
        <ele>1272.817</ele>
        <time>2018-11-24T12:07:33Z</time>
      </trkpt>
      <trkpt lat="42.522299" lon="0.834426">
        <ele>1271.481</ele>
        <time>2018-11-24T12:07:34Z</time>
      </trkpt>
      <trkpt lat="42.522407" lon="0.834363">
        <ele>1270.163</ele>
        <time>2018-11-24T12:07:35Z</time>
      </trkpt>
      <trkpt lat="42.522521" lon="0.834309">
        <ele>1269.044</ele>
        <time>2018-11-24T12:07:36Z</time>
      </trkpt>
      <trkpt lat="42.522636" lon="0.834251">
        <ele>1267.518</ele>
        <time>2018-11-24T12:07:37Z</time>
      </trkpt>
      <trkpt lat="42.522764" lon="0.834225">
        <ele>1266.308</ele>
        <time>2018-11-24T12:07:38Z</time>
      </trkpt>
      <trkpt lat="42.522893" lon="0.834188">
        <ele>1264.919</ele>
        <time>2018-11-24T12:07:39Z</time>
      </trkpt>
      <trkpt lat="42.523019" lon="0.834152">
        <ele>1263.896</ele>
        <time>2018-11-24T12:07:40Z</time>
      </trkpt>
      <trkpt lat="42.523144" lon="0.834119">
        <ele>1262.743</ele>
        <time>2018-11-24T12:07:41Z</time>
      </trkpt>
      <trkpt lat="42.523270" lon="0.834085">
        <ele>1261.884</ele>
        <time>2018-11-24T12:07:42Z</time>
      </trkpt>
      <trkpt lat="42.523394" lon="0.834062">
        <ele>1261.272</ele>
        <time>2018-11-24T12:07:43Z</time>
      </trkpt>
      <trkpt lat="42.523514" lon="0.834031">
        <ele>1260.644</ele>
        <time>2018-11-24T12:07:44Z</time>
      </trkpt>
      <trkpt lat="42.523636" lon="0.833990">
        <ele>1259.937</ele>
        <time>2018-11-24T12:07:45Z</time>
      </trkpt>
      <trkpt lat="42.523756" lon="0.833963">
        <ele>1259.321</ele>
        <time>2018-11-24T12:07:46Z</time>
      </trkpt>
      <trkpt lat="42.523894" lon="0.833952">
        <ele>1259.029</ele>
        <time>2018-11-24T12:07:47Z</time>
      </trkpt>
      <trkpt lat="42.524040" lon="0.833959">
        <ele>1258.800</ele>
        <time>2018-11-24T12:07:48Z</time>
      </trkpt>
      <trkpt lat="42.524197" lon="0.833960">
        <ele>1258.620</ele>
        <time>2018-11-24T12:07:49Z</time>
      </trkpt>
      <trkpt lat="42.524361" lon="0.833955">
        <ele>1258.108</ele>
        <time>2018-11-24T12:07:50Z</time>
      </trkpt>
      <trkpt lat="42.524519" lon="0.833952">
        <ele>1257.665</ele>
        <time>2018-11-24T12:07:51Z</time>
      </trkpt>
      <trkpt lat="42.524680" lon="0.833935">
        <ele>1257.112</ele>
        <time>2018-11-24T12:07:52Z</time>
      </trkpt>
      <trkpt lat="42.524851" lon="0.833890">
        <ele>1256.599</ele>
        <time>2018-11-24T12:07:53Z</time>
      </trkpt>
      <trkpt lat="42.525022" lon="0.833843">
        <ele>1256.040</ele>
        <time>2018-11-24T12:07:54Z</time>
      </trkpt>
      <trkpt lat="42.525192" lon="0.833747">
        <ele>1255.678</ele>
        <time>2018-11-24T12:07:55Z</time>
      </trkpt>
      <trkpt lat="42.525359" lon="0.833643">
        <ele>1254.890</ele>
        <time>2018-11-24T12:07:56Z</time>
      </trkpt>
      <trkpt lat="42.525535" lon="0.833548">
        <ele>1254.163</ele>
        <time>2018-11-24T12:07:57Z</time>
      </trkpt>
      <trkpt lat="42.525714" lon="0.833472">
        <ele>1253.347</ele>
        <time>2018-11-24T12:07:58Z</time>
      </trkpt>
      <trkpt lat="42.525889" lon="0.833407">
        <ele>1252.131</ele>
        <time>2018-11-24T12:07:59Z</time>
      </trkpt>
      <trkpt lat="42.526070" lon="0.833368">
        <ele>1250.861</ele>
        <time>2018-11-24T12:08:00Z</time>
      </trkpt>
      <trkpt lat="42.526252" lon="0.833347">
        <ele>1250.807</ele>
        <time>2018-11-24T12:08:01Z</time>
      </trkpt>
      <trkpt lat="42.526424" lon="0.833348">
        <ele>1250.708</ele>
        <time>2018-11-24T12:08:02Z</time>
      </trkpt>
      <trkpt lat="42.526600" lon="0.833366">
        <ele>1250.576</ele>
        <time>2018-11-24T12:08:03Z</time>
      </trkpt>
      <trkpt lat="42.526779" lon="0.833430">
        <ele>1250.473</ele>
        <time>2018-11-24T12:08:04Z</time>
      </trkpt>
      <trkpt lat="42.526967" lon="0.833500">
        <ele>1251.520</ele>
        <time>2018-11-24T12:08:05Z</time>
      </trkpt>
      <trkpt lat="42.527158" lon="0.833552">
        <ele>1251.921</ele>
        <time>2018-11-24T12:08:06Z</time>
      </trkpt>
      <trkpt lat="42.527338" lon="0.833613">
        <ele>1251.849</ele>
        <time>2018-11-24T12:08:07Z</time>
      </trkpt>
      <trkpt lat="42.527513" lon="0.833669">
        <ele>1251.371</ele>
        <time>2018-11-24T12:08:08Z</time>
      </trkpt>
      <trkpt lat="42.527683" lon="0.833726">
        <ele>1250.934</ele>
        <time>2018-11-24T12:08:09Z</time>
      </trkpt>
      <trkpt lat="42.527849" lon="0.833779">
        <ele>1250.758</ele>
        <time>2018-11-24T12:08:10Z</time>
      </trkpt>
      <trkpt lat="42.528020" lon="0.833798">
        <ele>1250.611</ele>
        <time>2018-11-24T12:08:11Z</time>
      </trkpt>
      <trkpt lat="42.528205" lon="0.833785">
        <ele>1250.821</ele>
        <time>2018-11-24T12:08:12Z</time>
      </trkpt>
      <trkpt lat="42.528384" lon="0.833764">
        <ele>1250.703</ele>
        <time>2018-11-24T12:08:13Z</time>
      </trkpt>
      <trkpt lat="42.528566" lon="0.833778">
        <ele>1250.508</ele>
        <time>2018-11-24T12:08:14Z</time>
      </trkpt>
      <trkpt lat="42.528747" lon="0.833825">
        <ele>1249.944</ele>
        <time>2018-11-24T12:08:15Z</time>
      </trkpt>
      <trkpt lat="42.528899" lon="0.833888">
        <ele>1248.411</ele>
        <time>2018-11-24T12:08:16Z</time>
      </trkpt>
      <trkpt lat="42.529030" lon="0.833946">
        <ele>1246.888</ele>
        <time>2018-11-24T12:08:17Z</time>
      </trkpt>
      <trkpt lat="42.529146" lon="0.834004">
        <ele>1245.739</ele>
        <time>2018-11-24T12:08:18Z</time>
      </trkpt>
      <trkpt lat="42.529270" lon="0.834043">
        <ele>1244.557</ele>
        <time>2018-11-24T12:08:19Z</time>
      </trkpt>
      <trkpt lat="42.529385" lon="0.834060">
        <ele>1243.679</ele>
        <time>2018-11-24T12:08:20Z</time>
      </trkpt>
      <trkpt lat="42.529511" lon="0.834033">
        <ele>1242.632</ele>
        <time>2018-11-24T12:08:21Z</time>
      </trkpt>
      <trkpt lat="42.529636" lon="0.833970">
        <ele>1241.976</ele>
        <time>2018-11-24T12:08:22Z</time>
      </trkpt>
      <trkpt lat="42.529766" lon="0.833884">
        <ele>1241.274</ele>
        <time>2018-11-24T12:08:23Z</time>
      </trkpt>
      <trkpt lat="42.529904" lon="0.833789">
        <ele>1240.456</ele>
        <time>2018-11-24T12:08:24Z</time>
      </trkpt>
      <trkpt lat="42.530045" lon="0.833697">
        <ele>1239.121</ele>
        <time>2018-11-24T12:08:25Z</time>
      </trkpt>
      <trkpt lat="42.530183" lon="0.833602">
        <ele>1238.208</ele>
        <time>2018-11-24T12:08:26Z</time>
      </trkpt>
      <trkpt lat="42.530324" lon="0.833502">
        <ele>1237.030</ele>
        <time>2018-11-24T12:08:27Z</time>
      </trkpt>
      <trkpt lat="42.530461" lon="0.833409">
        <ele>1235.937</ele>
        <time>2018-11-24T12:08:28Z</time>
      </trkpt>
      <trkpt lat="42.530586" lon="0.833327">
        <ele>1234.614</ele>
        <time>2018-11-24T12:08:29Z</time>
      </trkpt>
      <trkpt lat="42.530696" lon="0.833257">
        <ele>1233.415</ele>
        <time>2018-11-24T12:08:30Z</time>
      </trkpt>
      <trkpt lat="42.530797" lon="0.833197">
        <ele>1232.153</ele>
        <time>2018-11-24T12:08:31Z</time>
      </trkpt>
      <trkpt lat="42.530898" lon="0.833174">
        <ele>1231.475</ele>
        <time>2018-11-24T12:08:32Z</time>
      </trkpt>
      <trkpt lat="42.531009" lon="0.833206">
        <ele>1230.688</ele>
        <time>2018-11-24T12:08:33Z</time>
      </trkpt>
      <trkpt lat="42.531115" lon="0.833248">
        <ele>1229.722</ele>
        <time>2018-11-24T12:08:34Z</time>
      </trkpt>
      <trkpt lat="42.531207" lon="0.833277">
        <ele>1228.877</ele>
        <time>2018-11-24T12:08:35Z</time>
      </trkpt>
      <trkpt lat="42.531273" lon="0.833297">
        <ele>1228.061</ele>
        <time>2018-11-24T12:08:36Z</time>
      </trkpt>
      <trkpt lat="42.531324" lon="0.833304">
        <ele>1227.627</ele>
        <time>2018-11-24T12:08:37Z</time>
      </trkpt>
      <trkpt lat="42.531382" lon="0.833303">
        <ele>1227.108</ele>
        <time>2018-11-24T12:08:39Z</time>
      </trkpt>
      <trkpt lat="42.531441" lon="0.833235">
        <ele>1227.330</ele>
        <time>2018-11-24T12:08:44Z</time>
      </trkpt>
      <trkpt lat="42.531462" lon="0.833172">
        <ele>1227.177</ele>
        <time>2018-11-24T12:08:45Z</time>
      </trkpt>
      <trkpt lat="42.531460" lon="0.833096">
        <ele>1227.094</ele>
        <time>2018-11-24T12:08:46Z</time>
      </trkpt>
      <trkpt lat="42.531447" lon="0.833024">
        <ele>1226.915</ele>
        <time>2018-11-24T12:08:47Z</time>
      </trkpt>
      <trkpt lat="42.531422" lon="0.832946">
        <ele>1226.853</ele>
        <time>2018-11-24T12:08:48Z</time>
      </trkpt>
      <trkpt lat="42.531398" lon="0.832856">
        <ele>1226.975</ele>
        <time>2018-11-24T12:08:49Z</time>
      </trkpt>
      <trkpt lat="42.531370" lon="0.832749">
        <ele>1227.048</ele>
        <time>2018-11-24T12:08:50Z</time>
      </trkpt>
      <trkpt lat="42.531339" lon="0.832630">
        <ele>1227.052</ele>
        <time>2018-11-24T12:08:51Z</time>
      </trkpt>
      <trkpt lat="42.531307" lon="0.832496">
        <ele>1226.978</ele>
        <time>2018-11-24T12:08:52Z</time>
      </trkpt>
      <trkpt lat="42.531257" lon="0.832373">
        <ele>1226.733</ele>
        <time>2018-11-24T12:08:53Z</time>
      </trkpt>
      <trkpt lat="42.531183" lon="0.832268">
        <ele>1226.726</ele>
        <time>2018-11-24T12:08:54Z</time>
      </trkpt>
      <trkpt lat="42.531096" lon="0.832169">
        <ele>1226.508</ele>
        <time>2018-11-24T12:08:55Z</time>
      </trkpt>
      <trkpt lat="42.530995" lon="0.832070">
        <ele>1226.540</ele>
        <time>2018-11-24T12:08:56Z</time>
      </trkpt>
      <trkpt lat="42.530858" lon="0.832007">
        <ele>1226.667</ele>
        <time>2018-11-24T12:08:57Z</time>
      </trkpt>
      <trkpt lat="42.530697" lon="0.831946">
        <ele>1227.014</ele>
        <time>2018-11-24T12:08:58Z</time>
      </trkpt>
      <trkpt lat="42.530528" lon="0.831868">
        <ele>1227.215</ele>
        <time>2018-11-24T12:08:59Z</time>
      </trkpt>
      <trkpt lat="42.530341" lon="0.831785">
        <ele>1227.053</ele>
        <time>2018-11-24T12:09:00Z</time>
      </trkpt>
      <trkpt lat="42.530145" lon="0.831707">
        <ele>1226.685</ele>
        <time>2018-11-24T12:09:01Z</time>
      </trkpt>
      <trkpt lat="42.529943" lon="0.831626">
        <ele>1226.388</ele>
        <time>2018-11-24T12:09:02Z</time>
      </trkpt>
      <trkpt lat="42.529739" lon="0.831546">
        <ele>1226.542</ele>
        <time>2018-11-24T12:09:03Z</time>
      </trkpt>
      <trkpt lat="42.529533" lon="0.831456">
        <ele>1226.421</ele>
        <time>2018-11-24T12:09:04Z</time>
      </trkpt>
      <trkpt lat="42.529325" lon="0.831365">
        <ele>1226.041</ele>
        <time>2018-11-24T12:09:05Z</time>
      </trkpt>
      <trkpt lat="42.529120" lon="0.831278">
        <ele>1225.605</ele>
        <time>2018-11-24T12:09:06Z</time>
      </trkpt>
      <trkpt lat="42.528920" lon="0.831186">
        <ele>1225.008</ele>
        <time>2018-11-24T12:09:07Z</time>
      </trkpt>
      <trkpt lat="42.528720" lon="0.831086">
        <ele>1224.515</ele>
        <time>2018-11-24T12:09:08Z</time>
      </trkpt>
      <trkpt lat="42.528527" lon="0.830971">
        <ele>1224.042</ele>
        <time>2018-11-24T12:09:09Z</time>
      </trkpt>
      <trkpt lat="42.528337" lon="0.830842">
        <ele>1223.319</ele>
        <time>2018-11-24T12:09:10Z</time>
      </trkpt>
      <trkpt lat="42.528151" lon="0.830692">
        <ele>1222.920</ele>
        <time>2018-11-24T12:09:11Z</time>
      </trkpt>
      <trkpt lat="42.527971" lon="0.830525">
        <ele>1222.528</ele>
        <time>2018-11-24T12:09:12Z</time>
      </trkpt>
      <trkpt lat="42.527797" lon="0.830345">
        <ele>1222.350</ele>
        <time>2018-11-24T12:09:13Z</time>
      </trkpt>
      <trkpt lat="42.527633" lon="0.830151">
        <ele>1221.863</ele>
        <time>2018-11-24T12:09:14Z</time>
      </trkpt>
      <trkpt lat="42.527473" lon="0.829948">
        <ele>1221.447</ele>
        <time>2018-11-24T12:09:15Z</time>
      </trkpt>
      <trkpt lat="42.527323" lon="0.829742">
        <ele>1220.876</ele>
        <time>2018-11-24T12:09:16Z</time>
      </trkpt>
      <trkpt lat="42.527176" lon="0.829537">
        <ele>1220.490</ele>
        <time>2018-11-24T12:09:17Z</time>
      </trkpt>
      <trkpt lat="42.527027" lon="0.829342">
        <ele>1219.819</ele>
        <time>2018-11-24T12:09:18Z</time>
      </trkpt>
      <trkpt lat="42.526873" lon="0.829160">
        <ele>1219.408</ele>
        <time>2018-11-24T12:09:19Z</time>
      </trkpt>
      <trkpt lat="42.526708" lon="0.828997">
        <ele>1219.320</ele>
        <time>2018-11-24T12:09:20Z</time>
      </trkpt>
      <trkpt lat="42.526529" lon="0.828854">
        <ele>1219.167</ele>
        <time>2018-11-24T12:09:21Z</time>
      </trkpt>
      <trkpt lat="42.526338" lon="0.828734">
        <ele>1218.554</ele>
        <time>2018-11-24T12:09:22Z</time>
      </trkpt>
      <trkpt lat="42.526138" lon="0.828640">
        <ele>1217.815</ele>
        <time>2018-11-24T12:09:23Z</time>
      </trkpt>
      <trkpt lat="42.525929" lon="0.828575">
        <ele>1216.893</ele>
        <time>2018-11-24T12:09:24Z</time>
      </trkpt>
      <trkpt lat="42.525713" lon="0.828542">
        <ele>1216.155</ele>
        <time>2018-11-24T12:09:25Z</time>
      </trkpt>
      <trkpt lat="42.525491" lon="0.828539">
        <ele>1215.048</ele>
        <time>2018-11-24T12:09:26Z</time>
      </trkpt>
      <trkpt lat="42.525268" lon="0.828554">
        <ele>1214.282</ele>
        <time>2018-11-24T12:09:27Z</time>
      </trkpt>
      <trkpt lat="42.525054" lon="0.828575">
        <ele>1212.745</ele>
        <time>2018-11-24T12:09:28Z</time>
      </trkpt>
      <trkpt lat="42.524847" lon="0.828596">
        <ele>1211.247</ele>
        <time>2018-11-24T12:09:29Z</time>
      </trkpt>
      <trkpt lat="42.524643" lon="0.828607">
        <ele>1210.111</ele>
        <time>2018-11-24T12:09:30Z</time>
      </trkpt>
      <trkpt lat="42.524441" lon="0.828602">
        <ele>1208.408</ele>
        <time>2018-11-24T12:09:31Z</time>
      </trkpt>
      <trkpt lat="42.524241" lon="0.828570">
        <ele>1207.157</ele>
        <time>2018-11-24T12:09:32Z</time>
      </trkpt>
      <trkpt lat="42.524039" lon="0.828510">
        <ele>1205.714</ele>
        <time>2018-11-24T12:09:33Z</time>
      </trkpt>
      <trkpt lat="42.523842" lon="0.828420">
        <ele>1204.061</ele>
        <time>2018-11-24T12:09:34Z</time>
      </trkpt>
      <trkpt lat="42.523643" lon="0.828326">
        <ele>1202.272</ele>
        <time>2018-11-24T12:09:35Z</time>
      </trkpt>
      <trkpt lat="42.523451" lon="0.828178">
        <ele>1200.530</ele>
        <time>2018-11-24T12:09:36Z</time>
      </trkpt>
      <trkpt lat="42.523279" lon="0.827972">
        <ele>1198.932</ele>
        <time>2018-11-24T12:09:37Z</time>
      </trkpt>
      <trkpt lat="42.523112" lon="0.827757">
        <ele>1197.055</ele>
        <time>2018-11-24T12:09:38Z</time>
      </trkpt>
      <trkpt lat="42.522957" lon="0.827504">
        <ele>1195.129</ele>
        <time>2018-11-24T12:09:39Z</time>
      </trkpt>
      <trkpt lat="42.522799" lon="0.827235">
        <ele>1192.756</ele>
        <time>2018-11-24T12:09:40Z</time>
      </trkpt>
      <trkpt lat="42.522643" lon="0.826962">
        <ele>1190.659</ele>
        <time>2018-11-24T12:09:41Z</time>
      </trkpt>
      <trkpt lat="42.522487" lon="0.826685">
        <ele>1188.314</ele>
        <time>2018-11-24T12:09:42Z</time>
      </trkpt>
      <trkpt lat="42.522326" lon="0.826415">
        <ele>1186.508</ele>
        <time>2018-11-24T12:09:43Z</time>
      </trkpt>
      <trkpt lat="42.522165" lon="0.826148">
        <ele>1185.498</ele>
        <time>2018-11-24T12:09:44Z</time>
      </trkpt>
      <trkpt lat="42.522008" lon="0.825876">
        <ele>1183.915</ele>
        <time>2018-11-24T12:09:45Z</time>
      </trkpt>
      <trkpt lat="42.521854" lon="0.825601">
        <ele>1182.212</ele>
        <time>2018-11-24T12:09:46Z</time>
      </trkpt>
      <trkpt lat="42.521706" lon="0.825324">
        <ele>1181.623</ele>
        <time>2018-11-24T12:09:47Z</time>
      </trkpt>
      <trkpt lat="42.521562" lon="0.825038">
        <ele>1178.991</ele>
        <time>2018-11-24T12:09:48Z</time>
      </trkpt>
      <trkpt lat="42.521424" lon="0.824747">
        <ele>1176.583</ele>
        <time>2018-11-24T12:09:49Z</time>
      </trkpt>
      <trkpt lat="42.521286" lon="0.824451">
        <ele>1174.356</ele>
        <time>2018-11-24T12:09:50Z</time>
      </trkpt>
      <trkpt lat="42.521149" lon="0.824152">
        <ele>1171.740</ele>
        <time>2018-11-24T12:09:51Z</time>
      </trkpt>
      <trkpt lat="42.521018" lon="0.823852">
        <ele>1169.499</ele>
        <time>2018-11-24T12:09:52Z</time>
      </trkpt>
      <trkpt lat="42.520893" lon="0.823566">
        <ele>1166.307</ele>
        <time>2018-11-24T12:09:53Z</time>
      </trkpt>
      <trkpt lat="42.520772" lon="0.823295">
        <ele>1163.927</ele>
        <time>2018-11-24T12:09:54Z</time>
      </trkpt>
      <trkpt lat="42.520649" lon="0.823026">
        <ele>1162.008</ele>
        <time>2018-11-24T12:09:55Z</time>
      </trkpt>
      <trkpt lat="42.520523" lon="0.822755">
        <ele>1159.872</ele>
        <time>2018-11-24T12:09:56Z</time>
      </trkpt>
      <trkpt lat="42.520388" lon="0.822482">
        <ele>1157.979</ele>
        <time>2018-11-24T12:09:57Z</time>
      </trkpt>
      <trkpt lat="42.520239" lon="0.822210">
        <ele>1155.976</ele>
        <time>2018-11-24T12:09:58Z</time>
      </trkpt>
      <trkpt lat="42.520081" lon="0.821941">
        <ele>1154.287</ele>
        <time>2018-11-24T12:09:59Z</time>
      </trkpt>
      <trkpt lat="42.519911" lon="0.821683">
        <ele>1151.855</ele>
        <time>2018-11-24T12:10:00Z</time>
      </trkpt>
      <trkpt lat="42.519742" lon="0.821428">
        <ele>1150.087</ele>
        <time>2018-11-24T12:10:01Z</time>
      </trkpt>
      <trkpt lat="42.519552" lon="0.821201">
        <ele>1147.930</ele>
        <time>2018-11-24T12:10:02Z</time>
      </trkpt>
      <trkpt lat="42.519359" lon="0.820985">
        <ele>1145.564</ele>
        <time>2018-11-24T12:10:03Z</time>
      </trkpt>
      <trkpt lat="42.519146" lon="0.820795">
        <ele>1143.826</ele>
        <time>2018-11-24T12:10:04Z</time>
      </trkpt>
      <trkpt lat="42.518927" lon="0.820618">
        <ele>1141.847</ele>
        <time>2018-11-24T12:10:05Z</time>
      </trkpt>
      <trkpt lat="42.518691" lon="0.820455">
        <ele>1140.111</ele>
        <time>2018-11-24T12:10:06Z</time>
      </trkpt>
      <trkpt lat="42.518451" lon="0.820299">
        <ele>1138.008</ele>
        <time>2018-11-24T12:10:07Z</time>
      </trkpt>
      <trkpt lat="42.518212" lon="0.820146">
        <ele>1136.435</ele>
        <time>2018-11-24T12:10:08Z</time>
      </trkpt>
      <trkpt lat="42.517972" lon="0.819996">
        <ele>1134.672</ele>
        <time>2018-11-24T12:10:09Z</time>
      </trkpt>
      <trkpt lat="42.517734" lon="0.819848">
        <ele>1132.889</ele>
        <time>2018-11-24T12:10:10Z</time>
      </trkpt>
      <trkpt lat="42.517494" lon="0.819701">
        <ele>1131.040</ele>
        <time>2018-11-24T12:10:11Z</time>
      </trkpt>
      <trkpt lat="42.517257" lon="0.819551">
        <ele>1129.238</ele>
        <time>2018-11-24T12:10:12Z</time>
      </trkpt>
      <trkpt lat="42.517018" lon="0.819394">
        <ele>1128.270</ele>
        <time>2018-11-24T12:10:13Z</time>
      </trkpt>
      <trkpt lat="42.516781" lon="0.819224">
        <ele>1126.893</ele>
        <time>2018-11-24T12:10:14Z</time>
      </trkpt>
      <trkpt lat="42.516552" lon="0.819039">
        <ele>1125.477</ele>
        <time>2018-11-24T12:10:15Z</time>
      </trkpt>
      <trkpt lat="42.516329" lon="0.818839">
        <ele>1124.016</ele>
        <time>2018-11-24T12:10:16Z</time>
      </trkpt>
      <trkpt lat="42.516112" lon="0.818627">
        <ele>1122.776</ele>
        <time>2018-11-24T12:10:17Z</time>
      </trkpt>
      <trkpt lat="42.515906" lon="0.818398">
        <ele>1121.513</ele>
        <time>2018-11-24T12:10:18Z</time>
      </trkpt>
      <trkpt lat="42.515708" lon="0.818160">
        <ele>1120.408</ele>
        <time>2018-11-24T12:10:19Z</time>
      </trkpt>
      <trkpt lat="42.515517" lon="0.817916">
        <ele>1119.734</ele>
        <time>2018-11-24T12:10:20Z</time>
      </trkpt>
      <trkpt lat="42.515333" lon="0.817670">
        <ele>1118.961</ele>
        <time>2018-11-24T12:10:21Z</time>
      </trkpt>
      <trkpt lat="42.515151" lon="0.817425">
        <ele>1118.268</ele>
        <time>2018-11-24T12:10:22Z</time>
      </trkpt>
      <trkpt lat="42.514971" lon="0.817185">
        <ele>1117.419</ele>
        <time>2018-11-24T12:10:23Z</time>
      </trkpt>
      <trkpt lat="42.514796" lon="0.816944">
        <ele>1116.897</ele>
        <time>2018-11-24T12:10:24Z</time>
      </trkpt>
      <trkpt lat="42.514626" lon="0.816696">
        <ele>1116.369</ele>
        <time>2018-11-24T12:10:25Z</time>
      </trkpt>
      <trkpt lat="42.514465" lon="0.816436">
        <ele>1115.692</ele>
        <time>2018-11-24T12:10:26Z</time>
      </trkpt>
      <trkpt lat="42.514314" lon="0.816164">
        <ele>1115.116</ele>
        <time>2018-11-24T12:10:27Z</time>
      </trkpt>
      <trkpt lat="42.514174" lon="0.815880">
        <ele>1114.633</ele>
        <time>2018-11-24T12:10:28Z</time>
      </trkpt>
      <trkpt lat="42.514039" lon="0.815590">
        <ele>1114.023</ele>
        <time>2018-11-24T12:10:29Z</time>
      </trkpt>
      <trkpt lat="42.513903" lon="0.815299">
        <ele>1113.415</ele>
        <time>2018-11-24T12:10:30Z</time>
      </trkpt>
      <trkpt lat="42.513764" lon="0.815014">
        <ele>1113.208</ele>
        <time>2018-11-24T12:10:31Z</time>
      </trkpt>
      <trkpt lat="42.513620" lon="0.814720">
        <ele>1112.976</ele>
        <time>2018-11-24T12:10:32Z</time>
      </trkpt>
      <trkpt lat="42.513461" lon="0.814429">
        <ele>1112.673</ele>
        <time>2018-11-24T12:10:33Z</time>
      </trkpt>
      <trkpt lat="42.513288" lon="0.814148">
        <ele>1112.310</ele>
        <time>2018-11-24T12:10:34Z</time>
      </trkpt>
      <trkpt lat="42.513109" lon="0.813868">
        <ele>1111.851</ele>
        <time>2018-11-24T12:10:35Z</time>
      </trkpt>
      <trkpt lat="42.512931" lon="0.813593">
        <ele>1111.259</ele>
        <time>2018-11-24T12:10:36Z</time>
      </trkpt>
      <trkpt lat="42.512749" lon="0.813327">
        <ele>1110.571</ele>
        <time>2018-11-24T12:10:37Z</time>
      </trkpt>
      <trkpt lat="42.512564" lon="0.813067">
        <ele>1109.894</ele>
        <time>2018-11-24T12:10:38Z</time>
      </trkpt>
      <trkpt lat="42.512373" lon="0.812816">
        <ele>1109.478</ele>
        <time>2018-11-24T12:10:39Z</time>
      </trkpt>
      <trkpt lat="42.512176" lon="0.812573">
        <ele>1109.097</ele>
        <time>2018-11-24T12:10:40Z</time>
      </trkpt>
      <trkpt lat="42.511970" lon="0.812344">
        <ele>1108.723</ele>
        <time>2018-11-24T12:10:41Z</time>
      </trkpt>
      <trkpt lat="42.511760" lon="0.812121">
        <ele>1108.425</ele>
        <time>2018-11-24T12:10:42Z</time>
      </trkpt>
      <trkpt lat="42.511546" lon="0.811905">
        <ele>1108.208</ele>
        <time>2018-11-24T12:10:43Z</time>
      </trkpt>
      <trkpt lat="42.511325" lon="0.811689">
        <ele>1108.162</ele>
        <time>2018-11-24T12:10:44Z</time>
      </trkpt>
      <trkpt lat="42.511102" lon="0.811472">
        <ele>1107.979</ele>
        <time>2018-11-24T12:10:45Z</time>
      </trkpt>
      <trkpt lat="42.510886" lon="0.811260">
        <ele>1107.296</ele>
        <time>2018-11-24T12:10:46Z</time>
      </trkpt>
      <trkpt lat="42.510686" lon="0.811061">
        <ele>1106.377</ele>
        <time>2018-11-24T12:10:47Z</time>
      </trkpt>
      <trkpt lat="42.510501" lon="0.810851">
        <ele>1105.695</ele>
        <time>2018-11-24T12:10:48Z</time>
      </trkpt>
      <trkpt lat="42.510318" lon="0.810633">
        <ele>1105.367</ele>
        <time>2018-11-24T12:10:49Z</time>
      </trkpt>
      <trkpt lat="42.510179" lon="0.810351">
        <ele>1105.240</ele>
        <time>2018-11-24T12:10:50Z</time>
      </trkpt>
      <trkpt lat="42.510051" lon="0.810042">
        <ele>1105.054</ele>
        <time>2018-11-24T12:10:51Z</time>
      </trkpt>
      <trkpt lat="42.509928" lon="0.809734">
        <ele>1105.095</ele>
        <time>2018-11-24T12:10:52Z</time>
      </trkpt>
      <trkpt lat="42.509807" lon="0.809427">
        <ele>1104.849</ele>
        <time>2018-11-24T12:10:53Z</time>
      </trkpt>
      <trkpt lat="42.509666" lon="0.809130">
        <ele>1104.823</ele>
        <time>2018-11-24T12:10:54Z</time>
      </trkpt>
      <trkpt lat="42.509510" lon="0.808847">
        <ele>1104.908</ele>
        <time>2018-11-24T12:10:55Z</time>
      </trkpt>
      <trkpt lat="42.509327" lon="0.808592">
        <ele>1105.182</ele>
        <time>2018-11-24T12:10:56Z</time>
      </trkpt>
      <trkpt lat="42.509138" lon="0.808347">
        <ele>1105.979</ele>
        <time>2018-11-24T12:10:57Z</time>
      </trkpt>
      <trkpt lat="42.508939" lon="0.808110">
        <ele>1106.236</ele>
        <time>2018-11-24T12:10:58Z</time>
      </trkpt>
      <trkpt lat="42.508738" lon="0.807877">
        <ele>1106.627</ele>
        <time>2018-11-24T12:10:59Z</time>
      </trkpt>
      <trkpt lat="42.508537" lon="0.807655">
        <ele>1107.165</ele>
        <time>2018-11-24T12:11:00Z</time>
      </trkpt>
      <trkpt lat="42.508336" lon="0.807441">
        <ele>1107.697</ele>
        <time>2018-11-24T12:11:01Z</time>
      </trkpt>
      <trkpt lat="42.508139" lon="0.807232">
        <ele>1108.160</ele>
        <time>2018-11-24T12:11:02Z</time>
      </trkpt>
      <trkpt lat="42.507932" lon="0.807042">
        <ele>1108.744</ele>
        <time>2018-11-24T12:11:03Z</time>
      </trkpt>
      <trkpt lat="42.507716" lon="0.806870">
        <ele>1109.224</ele>
        <time>2018-11-24T12:11:04Z</time>
      </trkpt>
      <trkpt lat="42.507494" lon="0.806708">
        <ele>1109.704</ele>
        <time>2018-11-24T12:11:05Z</time>
      </trkpt>
      <trkpt lat="42.507269" lon="0.806552">
        <ele>1110.314</ele>
        <time>2018-11-24T12:11:06Z</time>
      </trkpt>
      <trkpt lat="42.507042" lon="0.806396">
        <ele>1110.808</ele>
        <time>2018-11-24T12:11:07Z</time>
      </trkpt>
      <trkpt lat="42.506820" lon="0.806242">
        <ele>1111.145</ele>
        <time>2018-11-24T12:11:08Z</time>
      </trkpt>
      <trkpt lat="42.506606" lon="0.806093">
        <ele>1111.432</ele>
        <time>2018-11-24T12:11:09Z</time>
      </trkpt>
      <trkpt lat="42.506405" lon="0.805936">
        <ele>1111.379</ele>
        <time>2018-11-24T12:11:10Z</time>
      </trkpt>
      <trkpt lat="42.506228" lon="0.805779">
        <ele>1110.340</ele>
        <time>2018-11-24T12:11:11Z</time>
      </trkpt>
      <trkpt lat="42.506081" lon="0.805630">
        <ele>1109.458</ele>
        <time>2018-11-24T12:11:12Z</time>
      </trkpt>
      <trkpt lat="42.505955" lon="0.805490">
        <ele>1108.440</ele>
        <time>2018-11-24T12:11:13Z</time>
      </trkpt>
      <trkpt lat="42.505848" lon="0.805364">
        <ele>1107.683</ele>
        <time>2018-11-24T12:11:14Z</time>
      </trkpt>
      <trkpt lat="42.505754" lon="0.805249">
        <ele>1106.767</ele>
        <time>2018-11-24T12:11:15Z</time>
      </trkpt>
      <trkpt lat="42.505669" lon="0.805145">
        <ele>1106.247</ele>
        <time>2018-11-24T12:11:16Z</time>
      </trkpt>
      <trkpt lat="42.505588" lon="0.805045">
        <ele>1105.629</ele>
        <time>2018-11-24T12:11:17Z</time>
      </trkpt>
      <trkpt lat="42.505508" lon="0.804948">
        <ele>1105.221</ele>
        <time>2018-11-24T12:11:18Z</time>
      </trkpt>
      <trkpt lat="42.505430" lon="0.804855">
        <ele>1104.808</ele>
        <time>2018-11-24T12:11:19Z</time>
      </trkpt>
      <trkpt lat="42.505354" lon="0.804762">
        <ele>1104.497</ele>
        <time>2018-11-24T12:11:20Z</time>
      </trkpt>
      <trkpt lat="42.505278" lon="0.804670">
        <ele>1104.094</ele>
        <time>2018-11-24T12:11:21Z</time>
      </trkpt>
      <trkpt lat="42.505202" lon="0.804577">
        <ele>1103.781</ele>
        <time>2018-11-24T12:11:22Z</time>
      </trkpt>
      <trkpt lat="42.505130" lon="0.804480">
        <ele>1103.272</ele>
        <time>2018-11-24T12:11:23Z</time>
      </trkpt>
      <trkpt lat="42.505061" lon="0.804375">
        <ele>1102.980</ele>
        <time>2018-11-24T12:11:24Z</time>
      </trkpt>
      <trkpt lat="42.504999" lon="0.804261">
        <ele>1102.282</ele>
        <time>2018-11-24T12:11:25Z</time>
      </trkpt>
      <trkpt lat="42.504945" lon="0.804140">
        <ele>1101.925</ele>
        <time>2018-11-24T12:11:26Z</time>
      </trkpt>
      <trkpt lat="42.504898" lon="0.804013">
        <ele>1101.819</ele>
        <time>2018-11-24T12:11:27Z</time>
      </trkpt>
      <trkpt lat="42.504858" lon="0.803881">
        <ele>1101.522</ele>
        <time>2018-11-24T12:11:28Z</time>
      </trkpt>
      <trkpt lat="42.504826" lon="0.803746">
        <ele>1101.262</ele>
        <time>2018-11-24T12:11:29Z</time>
      </trkpt>
      <trkpt lat="42.504797" lon="0.803610">
        <ele>1101.008</ele>
        <time>2018-11-24T12:11:30Z</time>
      </trkpt>
      <trkpt lat="42.504769" lon="0.803473">
        <ele>1100.808</ele>
        <time>2018-11-24T12:11:31Z</time>
      </trkpt>
      <trkpt lat="42.504741" lon="0.803336">
        <ele>1100.735</ele>
        <time>2018-11-24T12:11:32Z</time>
      </trkpt>
      <trkpt lat="42.504715" lon="0.803199">
        <ele>1100.592</ele>
        <time>2018-11-24T12:11:33Z</time>
      </trkpt>
      <trkpt lat="42.504688" lon="0.803062">
        <ele>1100.359</ele>
        <time>2018-11-24T12:11:34Z</time>
      </trkpt>
      <trkpt lat="42.504663" lon="0.802924">
        <ele>1100.160</ele>
        <time>2018-11-24T12:11:35Z</time>
      </trkpt>
      <trkpt lat="42.504637" lon="0.802785">
        <ele>1100.178</ele>
        <time>2018-11-24T12:11:36Z</time>
      </trkpt>
      <trkpt lat="42.504610" lon="0.802647">
        <ele>1099.950</ele>
        <time>2018-11-24T12:11:37Z</time>
      </trkpt>
      <trkpt lat="42.504584" lon="0.802508">
        <ele>1099.683</ele>
        <time>2018-11-24T12:11:38Z</time>
      </trkpt>
      <trkpt lat="42.504558" lon="0.802369">
        <ele>1099.437</ele>
        <time>2018-11-24T12:11:39Z</time>
      </trkpt>
      <trkpt lat="42.504533" lon="0.802231">
        <ele>1099.112</ele>
        <time>2018-11-24T12:11:40Z</time>
      </trkpt>
      <trkpt lat="42.504507" lon="0.802093">
        <ele>1098.932</ele>
        <time>2018-11-24T12:11:41Z</time>
      </trkpt>
      <trkpt lat="42.504480" lon="0.801955">
        <ele>1098.905</ele>
        <time>2018-11-24T12:11:42Z</time>
      </trkpt>
      <trkpt lat="42.504452" lon="0.801818">
        <ele>1098.908</ele>
        <time>2018-11-24T12:11:43Z</time>
      </trkpt>
      <trkpt lat="42.504424" lon="0.801680">
        <ele>1098.884</ele>
        <time>2018-11-24T12:11:44Z</time>
      </trkpt>
      <trkpt lat="42.504397" lon="0.801542">
        <ele>1098.761</ele>
        <time>2018-11-24T12:11:45Z</time>
      </trkpt>
      <trkpt lat="42.504372" lon="0.801403">
        <ele>1098.438</ele>
        <time>2018-11-24T12:11:46Z</time>
      </trkpt>
      <trkpt lat="42.504349" lon="0.801264">
        <ele>1098.129</ele>
        <time>2018-11-24T12:11:47Z</time>
      </trkpt>
      <trkpt lat="42.504331" lon="0.801125">
        <ele>1098.197</ele>
        <time>2018-11-24T12:11:48Z</time>
      </trkpt>
      <trkpt lat="42.504321" lon="0.800980">
        <ele>1098.199</ele>
        <time>2018-11-24T12:11:49Z</time>
      </trkpt>
      <trkpt lat="42.504325" lon="0.800839">
        <ele>1097.912</ele>
        <time>2018-11-24T12:11:50Z</time>
      </trkpt>
      <trkpt lat="42.504325" lon="0.800699">
        <ele>1097.816</ele>
        <time>2018-11-24T12:11:51Z</time>
      </trkpt>
      <trkpt lat="42.504340" lon="0.800565">
        <ele>1097.672</ele>
        <time>2018-11-24T12:11:52Z</time>
      </trkpt>
      <trkpt lat="42.504356" lon="0.800421">
        <ele>1097.313</ele>
        <time>2018-11-24T12:11:53Z</time>
      </trkpt>
      <trkpt lat="42.504386" lon="0.800277">
        <ele>1097.014</ele>
        <time>2018-11-24T12:11:54Z</time>
      </trkpt>
      <trkpt lat="42.504407" lon="0.800147">
        <ele>1096.708</ele>
        <time>2018-11-24T12:11:55Z</time>
      </trkpt>
      <trkpt lat="42.504431" lon="0.800006">
        <ele>1096.320</ele>
        <time>2018-11-24T12:11:56Z</time>
      </trkpt>
      <trkpt lat="42.504448" lon="0.799859">
        <ele>1096.157</ele>
        <time>2018-11-24T12:11:57Z</time>
      </trkpt>
      <trkpt lat="42.504465" lon="0.799716">
        <ele>1095.934</ele>
        <time>2018-11-24T12:11:58Z</time>
      </trkpt>
      <trkpt lat="42.504469" lon="0.799575">
        <ele>1095.735</ele>
        <time>2018-11-24T12:11:59Z</time>
      </trkpt>
      <trkpt lat="42.504464" lon="0.799429">
        <ele>1095.693</ele>
        <time>2018-11-24T12:12:00Z</time>
      </trkpt>
      <trkpt lat="42.504448" lon="0.799285">
        <ele>1095.465</ele>
        <time>2018-11-24T12:12:01Z</time>
      </trkpt>
      <trkpt lat="42.504424" lon="0.799141">
        <ele>1095.248</ele>
        <time>2018-11-24T12:12:02Z</time>
      </trkpt>
      <trkpt lat="42.504409" lon="0.799001">
        <ele>1094.912</ele>
        <time>2018-11-24T12:12:03Z</time>
      </trkpt>
      <trkpt lat="42.504381" lon="0.798867">
        <ele>1094.637</ele>
        <time>2018-11-24T12:12:04Z</time>
      </trkpt>
      <trkpt lat="42.504336" lon="0.798732">
        <ele>1094.549</ele>
        <time>2018-11-24T12:12:05Z</time>
      </trkpt>
      <trkpt lat="42.504278" lon="0.798582">
        <ele>1094.713</ele>
        <time>2018-11-24T12:12:06Z</time>
      </trkpt>
      <trkpt lat="42.504207" lon="0.798412">
        <ele>1095.108</ele>
        <time>2018-11-24T12:12:07Z</time>
      </trkpt>
      <trkpt lat="42.504124" lon="0.798214">
        <ele>1095.576</ele>
        <time>2018-11-24T12:12:08Z</time>
      </trkpt>
      <trkpt lat="42.504036" lon="0.798005">
        <ele>1095.333</ele>
        <time>2018-11-24T12:12:09Z</time>
      </trkpt>
      <trkpt lat="42.503940" lon="0.797792">
        <ele>1095.110</ele>
        <time>2018-11-24T12:12:10Z</time>
      </trkpt>
      <trkpt lat="42.503824" lon="0.797575">
        <ele>1094.921</ele>
        <time>2018-11-24T12:12:11Z</time>
      </trkpt>
      <trkpt lat="42.503681" lon="0.797367">
        <ele>1095.259</ele>
        <time>2018-11-24T12:12:12Z</time>
      </trkpt>
      <trkpt lat="42.503513" lon="0.797163">
        <ele>1095.611</ele>
        <time>2018-11-24T12:12:13Z</time>
      </trkpt>
      <trkpt lat="42.503333" lon="0.796965">
        <ele>1095.644</ele>
        <time>2018-11-24T12:12:14Z</time>
      </trkpt>
      <trkpt lat="42.503152" lon="0.796769">
        <ele>1095.378</ele>
        <time>2018-11-24T12:12:15Z</time>
      </trkpt>
      <trkpt lat="42.502971" lon="0.796571">
        <ele>1095.468</ele>
        <time>2018-11-24T12:12:16Z</time>
      </trkpt>
      <trkpt lat="42.502787" lon="0.796372">
        <ele>1095.342</ele>
        <time>2018-11-24T12:12:17Z</time>
      </trkpt>
      <trkpt lat="42.502602" lon="0.796171">
        <ele>1095.126</ele>
        <time>2018-11-24T12:12:18Z</time>
      </trkpt>
      <trkpt lat="42.502418" lon="0.795968">
        <ele>1094.908</ele>
        <time>2018-11-24T12:12:19Z</time>
      </trkpt>
      <trkpt lat="42.502237" lon="0.795757">
        <ele>1094.859</ele>
        <time>2018-11-24T12:12:20Z</time>
      </trkpt>
      <trkpt lat="42.502061" lon="0.795532">
        <ele>1094.516</ele>
        <time>2018-11-24T12:12:21Z</time>
      </trkpt>
      <trkpt lat="42.501896" lon="0.795288">
        <ele>1094.363</ele>
        <time>2018-11-24T12:12:22Z</time>
      </trkpt>
      <trkpt lat="42.501741" lon="0.795026">
        <ele>1094.594</ele>
        <time>2018-11-24T12:12:23Z</time>
      </trkpt>
      <trkpt lat="42.501597" lon="0.794746">
        <ele>1094.462</ele>
        <time>2018-11-24T12:12:24Z</time>
      </trkpt>
      <trkpt lat="42.501464" lon="0.794451">
        <ele>1094.564</ele>
        <time>2018-11-24T12:12:25Z</time>
      </trkpt>
      <trkpt lat="42.501340" lon="0.794144">
        <ele>1094.317</ele>
        <time>2018-11-24T12:12:26Z</time>
      </trkpt>
      <trkpt lat="42.501218" lon="0.793832">
        <ele>1094.361</ele>
        <time>2018-11-24T12:12:27Z</time>
      </trkpt>
      <trkpt lat="42.501097" lon="0.793524">
        <ele>1094.147</ele>
        <time>2018-11-24T12:12:28Z</time>
      </trkpt>
      <trkpt lat="42.500973" lon="0.793218">
        <ele>1093.829</ele>
        <time>2018-11-24T12:12:29Z</time>
      </trkpt>
      <trkpt lat="42.500839" lon="0.792915">
        <ele>1093.621</ele>
        <time>2018-11-24T12:12:30Z</time>
      </trkpt>
      <trkpt lat="42.500693" lon="0.792618">
        <ele>1093.808</ele>
        <time>2018-11-24T12:12:31Z</time>
      </trkpt>
      <trkpt lat="42.500536" lon="0.792326">
        <ele>1093.667</ele>
        <time>2018-11-24T12:12:32Z</time>
      </trkpt>
      <trkpt lat="42.500369" lon="0.792038">
        <ele>1093.674</ele>
        <time>2018-11-24T12:12:33Z</time>
      </trkpt>
      <trkpt lat="42.500194" lon="0.791752">
        <ele>1093.751</ele>
        <time>2018-11-24T12:12:34Z</time>
      </trkpt>
      <trkpt lat="42.500014" lon="0.791464">
        <ele>1093.372</ele>
        <time>2018-11-24T12:12:35Z</time>
      </trkpt>
      <trkpt lat="42.499833" lon="0.791174">
        <ele>1093.380</ele>
        <time>2018-11-24T12:12:36Z</time>
      </trkpt>
      <trkpt lat="42.499653" lon="0.790882">
        <ele>1093.262</ele>
        <time>2018-11-24T12:12:37Z</time>
      </trkpt>
      <trkpt lat="42.499471" lon="0.790592">
        <ele>1092.955</ele>
        <time>2018-11-24T12:12:38Z</time>
      </trkpt>
      <trkpt lat="42.499288" lon="0.790305">
        <ele>1092.839</ele>
        <time>2018-11-24T12:12:39Z</time>
      </trkpt>
      <trkpt lat="42.499106" lon="0.790018">
        <ele>1092.836</ele>
        <time>2018-11-24T12:12:40Z</time>
      </trkpt>
      <trkpt lat="42.498926" lon="0.789732">
        <ele>1093.017</ele>
        <time>2018-11-24T12:12:41Z</time>
      </trkpt>
      <trkpt lat="42.498744" lon="0.789451">
        <ele>1093.418</ele>
        <time>2018-11-24T12:12:42Z</time>
      </trkpt>
      <trkpt lat="42.498564" lon="0.789178">
        <ele>1093.508</ele>
        <time>2018-11-24T12:12:43Z</time>
      </trkpt>
      <trkpt lat="42.498387" lon="0.788914">
        <ele>1093.876</ele>
        <time>2018-11-24T12:12:44Z</time>
      </trkpt>
      <trkpt lat="42.498213" lon="0.788657">
        <ele>1094.073</ele>
        <time>2018-11-24T12:12:45Z</time>
      </trkpt>
      <trkpt lat="42.498034" lon="0.788416">
        <ele>1094.490</ele>
        <time>2018-11-24T12:12:46Z</time>
      </trkpt>
      <trkpt lat="42.497867" lon="0.788167">
        <ele>1094.891</ele>
        <time>2018-11-24T12:12:47Z</time>
      </trkpt>
      <trkpt lat="42.497703" lon="0.787922">
        <ele>1095.149</ele>
        <time>2018-11-24T12:12:48Z</time>
      </trkpt>
      <trkpt lat="42.497543" lon="0.787690">
        <ele>1095.121</ele>
        <time>2018-11-24T12:12:49Z</time>
      </trkpt>
      <trkpt lat="42.497396" lon="0.787481">
        <ele>1094.694</ele>
        <time>2018-11-24T12:12:50Z</time>
      </trkpt>
      <trkpt lat="42.497253" lon="0.787284">
        <ele>1093.818</ele>
        <time>2018-11-24T12:12:51Z</time>
      </trkpt>
      <trkpt lat="42.497114" lon="0.787100">
        <ele>1093.268</ele>
        <time>2018-11-24T12:12:52Z</time>
      </trkpt>
      <trkpt lat="42.496973" lon="0.786936">
        <ele>1092.942</ele>
        <time>2018-11-24T12:12:53Z</time>
      </trkpt>
      <trkpt lat="42.496813" lon="0.786797">
        <ele>1092.426</ele>
        <time>2018-11-24T12:12:54Z</time>
      </trkpt>
      <trkpt lat="42.496627" lon="0.786698">
        <ele>1092.108</ele>
        <time>2018-11-24T12:12:55Z</time>
      </trkpt>
      <trkpt lat="42.496432" lon="0.786627">
        <ele>1091.679</ele>
        <time>2018-11-24T12:12:56Z</time>
      </trkpt>
      <trkpt lat="42.496240" lon="0.786564">
        <ele>1091.036</ele>
        <time>2018-11-24T12:12:57Z</time>
      </trkpt>
      <trkpt lat="42.496053" lon="0.786500">
        <ele>1089.993</ele>
        <time>2018-11-24T12:12:58Z</time>
      </trkpt>
      <trkpt lat="42.495880" lon="0.786415">
        <ele>1089.214</ele>
        <time>2018-11-24T12:12:59Z</time>
      </trkpt>
      <trkpt lat="42.495731" lon="0.786280">
        <ele>1088.522</ele>
        <time>2018-11-24T12:13:00Z</time>
      </trkpt>
      <trkpt lat="42.495576" lon="0.786143">
        <ele>1087.924</ele>
        <time>2018-11-24T12:13:01Z</time>
      </trkpt>
      <trkpt lat="42.495462" lon="0.785946">
        <ele>1087.547</ele>
        <time>2018-11-24T12:13:02Z</time>
      </trkpt>
      <trkpt lat="42.495376" lon="0.785711">
        <ele>1087.261</ele>
        <time>2018-11-24T12:13:03Z</time>
      </trkpt>
      <trkpt lat="42.495299" lon="0.785457">
        <ele>1086.994</ele>
        <time>2018-11-24T12:13:04Z</time>
      </trkpt>
      <trkpt lat="42.495230" lon="0.785191">
        <ele>1086.557</ele>
        <time>2018-11-24T12:13:05Z</time>
      </trkpt>
      <trkpt lat="42.495160" lon="0.784918">
        <ele>1085.722</ele>
        <time>2018-11-24T12:13:06Z</time>
      </trkpt>
      <trkpt lat="42.495091" lon="0.784642">
        <ele>1084.908</ele>
        <time>2018-11-24T12:13:07Z</time>
      </trkpt>
      <trkpt lat="42.495018" lon="0.784376">
        <ele>1083.412</ele>
        <time>2018-11-24T12:13:08Z</time>
      </trkpt>
      <trkpt lat="42.494944" lon="0.784112">
        <ele>1082.019</ele>
        <time>2018-11-24T12:13:09Z</time>
      </trkpt>
      <trkpt lat="42.494850" lon="0.783862">
        <ele>1080.856</ele>
        <time>2018-11-24T12:13:10Z</time>
      </trkpt>
      <trkpt lat="42.494733" lon="0.783629">
        <ele>1079.887</ele>
        <time>2018-11-24T12:13:11Z</time>
      </trkpt>
      <trkpt lat="42.494614" lon="0.783397">
        <ele>1078.535</ele>
        <time>2018-11-24T12:13:12Z</time>
      </trkpt>
      <trkpt lat="42.494459" lon="0.783203">
        <ele>1077.497</ele>
        <time>2018-11-24T12:13:13Z</time>
      </trkpt>
      <trkpt lat="42.494278" lon="0.783039">
        <ele>1076.670</ele>
        <time>2018-11-24T12:13:14Z</time>
      </trkpt>
      <trkpt lat="42.494076" lon="0.782902">
        <ele>1075.764</ele>
        <time>2018-11-24T12:13:15Z</time>
      </trkpt>
      <trkpt lat="42.493867" lon="0.782770">
        <ele>1075.092</ele>
        <time>2018-11-24T12:13:16Z</time>
      </trkpt>
      <trkpt lat="42.493642" lon="0.782673">
        <ele>1074.273</ele>
        <time>2018-11-24T12:13:17Z</time>
      </trkpt>
      <trkpt lat="42.493412" lon="0.782581">
        <ele>1073.420</ele>
        <time>2018-11-24T12:13:18Z</time>
      </trkpt>
      <trkpt lat="42.493186" lon="0.782487">
        <ele>1072.208</ele>
        <time>2018-11-24T12:13:19Z</time>
      </trkpt>
      <trkpt lat="42.492965" lon="0.782389">
        <ele>1071.022</ele>
        <time>2018-11-24T12:13:20Z</time>
      </trkpt>
      <trkpt lat="42.492743" lon="0.782275">
        <ele>1070.099</ele>
        <time>2018-11-24T12:13:21Z</time>
      </trkpt>
      <trkpt lat="42.492529" lon="0.782120">
        <ele>1069.196</ele>
        <time>2018-11-24T12:13:22Z</time>
      </trkpt>
      <trkpt lat="42.492310" lon="0.781965">
        <ele>1068.517</ele>
        <time>2018-11-24T12:13:23Z</time>
      </trkpt>
      <trkpt lat="42.492102" lon="0.781765">
        <ele>1067.925</ele>
        <time>2018-11-24T12:13:24Z</time>
      </trkpt>
      <trkpt lat="42.491889" lon="0.781568">
        <ele>1067.127</ele>
        <time>2018-11-24T12:13:25Z</time>
      </trkpt>
      <trkpt lat="42.491675" lon="0.781381">
        <ele>1066.190</ele>
        <time>2018-11-24T12:13:26Z</time>
      </trkpt>
      <trkpt lat="42.491463" lon="0.781201">
        <ele>1065.054</ele>
        <time>2018-11-24T12:13:27Z</time>
      </trkpt>
      <trkpt lat="42.491256" lon="0.781026">
        <ele>1064.139</ele>
        <time>2018-11-24T12:13:28Z</time>
      </trkpt>
      <trkpt lat="42.491064" lon="0.780878">
        <ele>1062.101</ele>
        <time>2018-11-24T12:13:29Z</time>
      </trkpt>
      <trkpt lat="42.490885" lon="0.780751">
        <ele>1060.721</ele>
        <time>2018-11-24T12:13:30Z</time>
      </trkpt>
      <trkpt lat="42.490692" lon="0.780649">
        <ele>1059.508</ele>
        <time>2018-11-24T12:13:31Z</time>
      </trkpt>
      <trkpt lat="42.490489" lon="0.780581">
        <ele>1058.616</ele>
        <time>2018-11-24T12:13:32Z</time>
      </trkpt>
      <trkpt lat="42.490271" lon="0.780557">
        <ele>1057.873</ele>
        <time>2018-11-24T12:13:33Z</time>
      </trkpt>
      <trkpt lat="42.490040" lon="0.780538">
        <ele>1056.770</ele>
        <time>2018-11-24T12:13:34Z</time>
      </trkpt>
      <trkpt lat="42.489793" lon="0.780532">
        <ele>1055.921</ele>
        <time>2018-11-24T12:13:35Z</time>
      </trkpt>
      <trkpt lat="42.489535" lon="0.780512">
        <ele>1055.299</ele>
        <time>2018-11-24T12:13:36Z</time>
      </trkpt>
      <trkpt lat="42.489269" lon="0.780490">
        <ele>1054.061</ele>
        <time>2018-11-24T12:13:37Z</time>
      </trkpt>
      <trkpt lat="42.488994" lon="0.780466">
        <ele>1052.994</ele>
        <time>2018-11-24T12:13:38Z</time>
      </trkpt>
      <trkpt lat="42.488717" lon="0.780440">
        <ele>1051.718</ele>
        <time>2018-11-24T12:13:39Z</time>
      </trkpt>
      <trkpt lat="42.488441" lon="0.780404">
        <ele>1050.371</ele>
        <time>2018-11-24T12:13:40Z</time>
      </trkpt>
      <trkpt lat="42.488166" lon="0.780358">
        <ele>1049.441</ele>
        <time>2018-11-24T12:13:41Z</time>
      </trkpt>
      <trkpt lat="42.487885" lon="0.780301">
        <ele>1048.615</ele>
        <time>2018-11-24T12:13:42Z</time>
      </trkpt>
      <trkpt lat="42.487604" lon="0.780239">
        <ele>1047.808</ele>
        <time>2018-11-24T12:13:43Z</time>
      </trkpt>
      <trkpt lat="42.487335" lon="0.780173">
        <ele>1046.770</ele>
        <time>2018-11-24T12:13:44Z</time>
      </trkpt>
      <trkpt lat="42.487086" lon="0.780090">
        <ele>1045.327</ele>
        <time>2018-11-24T12:13:45Z</time>
      </trkpt>
      <trkpt lat="42.486844" lon="0.779991">
        <ele>1044.064</ele>
        <time>2018-11-24T12:13:46Z</time>
      </trkpt>
      <trkpt lat="42.486613" lon="0.779877">
        <ele>1043.045</ele>
        <time>2018-11-24T12:13:47Z</time>
      </trkpt>
      <trkpt lat="42.486387" lon="0.779727">
        <ele>1042.343</ele>
        <time>2018-11-24T12:13:48Z</time>
      </trkpt>
      <trkpt lat="42.486175" lon="0.779534">
        <ele>1041.855</ele>
        <time>2018-11-24T12:13:49Z</time>
      </trkpt>
      <trkpt lat="42.485984" lon="0.779322">
        <ele>1041.238</ele>
        <time>2018-11-24T12:13:50Z</time>
      </trkpt>
      <trkpt lat="42.485808" lon="0.779134">
        <ele>1042.152</ele>
        <time>2018-11-24T12:13:51Z</time>
      </trkpt>
      <trkpt lat="42.485638" lon="0.778964">
        <ele>1039.422</ele>
        <time>2018-11-24T12:13:52Z</time>
      </trkpt>
      <trkpt lat="42.485453" lon="0.778815">
        <ele>1038.862</ele>
        <time>2018-11-24T12:13:53Z</time>
      </trkpt>
      <trkpt lat="42.485251" lon="0.778702">
        <ele>1038.308</ele>
        <time>2018-11-24T12:13:54Z</time>
      </trkpt>
      <trkpt lat="42.485045" lon="0.778605">
        <ele>1038.208</ele>
        <time>2018-11-24T12:13:55Z</time>
      </trkpt>
      <trkpt lat="42.484808" lon="0.778588">
        <ele>1038.145</ele>
        <time>2018-11-24T12:13:56Z</time>
      </trkpt>
      <trkpt lat="42.484566" lon="0.778597">
        <ele>1037.992</ele>
        <time>2018-11-24T12:13:57Z</time>
      </trkpt>
      <trkpt lat="42.484325" lon="0.778607">
        <ele>1037.829</ele>
        <time>2018-11-24T12:13:58Z</time>
      </trkpt>
      <trkpt lat="42.484076" lon="0.778624">
        <ele>1037.450</ele>
        <time>2018-11-24T12:13:59Z</time>
      </trkpt>
      <trkpt lat="42.483820" lon="0.778638">
        <ele>1036.988</ele>
        <time>2018-11-24T12:14:00Z</time>
      </trkpt>
      <trkpt lat="42.483562" lon="0.778657">
        <ele>1036.640</ele>
        <time>2018-11-24T12:14:01Z</time>
      </trkpt>
      <trkpt lat="42.483295" lon="0.778675">
        <ele>1036.443</ele>
        <time>2018-11-24T12:14:02Z</time>
      </trkpt>
      <trkpt lat="42.483025" lon="0.778693">
        <ele>1035.627</ele>
        <time>2018-11-24T12:14:03Z</time>
      </trkpt>
      <trkpt lat="42.482747" lon="0.778708">
        <ele>1034.882</ele>
        <time>2018-11-24T12:14:04Z</time>
      </trkpt>
      <trkpt lat="42.482466" lon="0.778726">
        <ele>1033.743</ele>
        <time>2018-11-24T12:14:05Z</time>
      </trkpt>
      <trkpt lat="42.482185" lon="0.778742">
        <ele>1032.117</ele>
        <time>2018-11-24T12:14:06Z</time>
      </trkpt>
      <trkpt lat="42.481907" lon="0.778758">
        <ele>1030.808</ele>
        <time>2018-11-24T12:14:07Z</time>
      </trkpt>
      <trkpt lat="42.481629" lon="0.778770">
        <ele>1028.981</ele>
        <time>2018-11-24T12:14:08Z</time>
      </trkpt>
      <trkpt lat="42.481356" lon="0.778784">
        <ele>1027.588</ele>
        <time>2018-11-24T12:14:09Z</time>
      </trkpt>
      <trkpt lat="42.481084" lon="0.778803">
        <ele>1025.995</ele>
        <time>2018-11-24T12:14:10Z</time>
      </trkpt>
      <trkpt lat="42.480814" lon="0.778822">
        <ele>1024.126</ele>
        <time>2018-11-24T12:14:11Z</time>
      </trkpt>
      <trkpt lat="42.480544" lon="0.778840">
        <ele>1022.924</ele>
        <time>2018-11-24T12:14:12Z</time>
      </trkpt>
      <trkpt lat="42.480277" lon="0.778860">
        <ele>1021.716</ele>
        <time>2018-11-24T12:14:13Z</time>
      </trkpt>
      <trkpt lat="42.480027" lon="0.778878">
        <ele>1020.139</ele>
        <time>2018-11-24T12:14:14Z</time>
      </trkpt>
      <trkpt lat="42.479797" lon="0.778885">
        <ele>1018.753</ele>
        <time>2018-11-24T12:14:15Z</time>
      </trkpt>
      <trkpt lat="42.479577" lon="0.778901">
        <ele>1018.135</ele>
        <time>2018-11-24T12:14:16Z</time>
      </trkpt>
      <trkpt lat="42.479352" lon="0.778905">
        <ele>1017.686</ele>
        <time>2018-11-24T12:14:17Z</time>
      </trkpt>
      <trkpt lat="42.479127" lon="0.778924">
        <ele>1017.214</ele>
        <time>2018-11-24T12:14:18Z</time>
      </trkpt>
      <trkpt lat="42.478899" lon="0.778912">
        <ele>1017.108</ele>
        <time>2018-11-24T12:14:19Z</time>
      </trkpt>
      <trkpt lat="42.478665" lon="0.778879">
        <ele>1016.666</ele>
        <time>2018-11-24T12:14:20Z</time>
      </trkpt>
      <trkpt lat="42.478435" lon="0.778815">
        <ele>1016.363</ele>
        <time>2018-11-24T12:14:21Z</time>
      </trkpt>
      <trkpt lat="42.478200" lon="0.778716">
        <ele>1016.280</ele>
        <time>2018-11-24T12:14:22Z</time>
      </trkpt>
      <trkpt lat="42.477973" lon="0.778605">
        <ele>1015.911</ele>
        <time>2018-11-24T12:14:23Z</time>
      </trkpt>
      <trkpt lat="42.477748" lon="0.778470">
        <ele>1015.789</ele>
        <time>2018-11-24T12:14:24Z</time>
      </trkpt>
      <trkpt lat="42.477515" lon="0.778340">
        <ele>1015.311</ele>
        <time>2018-11-24T12:14:25Z</time>
      </trkpt>
      <trkpt lat="42.477278" lon="0.778206">
        <ele>1015.024</ele>
        <time>2018-11-24T12:14:26Z</time>
      </trkpt>
      <trkpt lat="42.477038" lon="0.778073">
        <ele>1014.718</ele>
        <time>2018-11-24T12:14:27Z</time>
      </trkpt>
      <trkpt lat="42.476792" lon="0.777955">
        <ele>1014.621</ele>
        <time>2018-11-24T12:14:28Z</time>
      </trkpt>
      <trkpt lat="42.476531" lon="0.777861">
        <ele>1014.641</ele>
        <time>2018-11-24T12:14:29Z</time>
      </trkpt>
      <trkpt lat="42.476270" lon="0.777772">
        <ele>1014.405</ele>
        <time>2018-11-24T12:14:30Z</time>
      </trkpt>
      <trkpt lat="42.476024" lon="0.777666">
        <ele>1013.608</ele>
        <time>2018-11-24T12:14:31Z</time>
      </trkpt>
      <trkpt lat="42.475782" lon="0.777569">
        <ele>1012.955</ele>
        <time>2018-11-24T12:14:32Z</time>
      </trkpt>
      <trkpt lat="42.475555" lon="0.777477">
        <ele>1011.492</ele>
        <time>2018-11-24T12:14:33Z</time>
      </trkpt>
      <trkpt lat="42.475335" lon="0.777407">
        <ele>1010.239</ele>
        <time>2018-11-24T12:14:34Z</time>
      </trkpt>
      <trkpt lat="42.475120" lon="0.777330">
        <ele>1009.270</ele>
        <time>2018-11-24T12:14:35Z</time>
      </trkpt>
      <trkpt lat="42.474910" lon="0.777255">
        <ele>1008.458</ele>
        <time>2018-11-24T12:14:36Z</time>
      </trkpt>
      <trkpt lat="42.474698" lon="0.777181">
        <ele>1007.750</ele>
        <time>2018-11-24T12:14:37Z</time>
      </trkpt>
      <trkpt lat="42.474491" lon="0.777111">
        <ele>1006.873</ele>
        <time>2018-11-24T12:14:38Z</time>
      </trkpt>
      <trkpt lat="42.474286" lon="0.777035">
        <ele>1006.597</ele>
        <time>2018-11-24T12:14:39Z</time>
      </trkpt>
      <trkpt lat="42.474081" lon="0.776970">
        <ele>1006.018</ele>
        <time>2018-11-24T12:14:40Z</time>
      </trkpt>
      <trkpt lat="42.473872" lon="0.776927">
        <ele>1005.698</ele>
        <time>2018-11-24T12:14:41Z</time>
      </trkpt>
      <trkpt lat="42.473658" lon="0.776909">
        <ele>1005.117</ele>
        <time>2018-11-24T12:14:42Z</time>
      </trkpt>
      <trkpt lat="42.473438" lon="0.776933">
        <ele>1004.708</ele>
        <time>2018-11-24T12:14:43Z</time>
      </trkpt>
      <trkpt lat="42.473213" lon="0.776996">
        <ele>1004.164</ele>
        <time>2018-11-24T12:14:44Z</time>
      </trkpt>
      <trkpt lat="42.472984" lon="0.777092">
        <ele>1003.551</ele>
        <time>2018-11-24T12:14:45Z</time>
      </trkpt>
      <trkpt lat="42.472754" lon="0.777222">
        <ele>1002.898</ele>
        <time>2018-11-24T12:14:46Z</time>
      </trkpt>
      <trkpt lat="42.472529" lon="0.777366">
        <ele>1002.249</ele>
        <time>2018-11-24T12:14:47Z</time>
      </trkpt>
      <trkpt lat="42.472310" lon="0.777508">
        <ele>1001.357</ele>
        <time>2018-11-24T12:14:48Z</time>
      </trkpt>
      <trkpt lat="42.472099" lon="0.777640">
        <ele>1000.089</ele>
        <time>2018-11-24T12:14:49Z</time>
      </trkpt>
      <trkpt lat="42.471890" lon="0.777767">
        <ele>999.222</ele>
        <time>2018-11-24T12:14:50Z</time>
      </trkpt>
      <trkpt lat="42.471669" lon="0.777875">
        <ele>998.546</ele>
        <time>2018-11-24T12:14:51Z</time>
      </trkpt>
      <trkpt lat="42.471437" lon="0.777953">
        <ele>998.028</ele>
        <time>2018-11-24T12:14:52Z</time>
      </trkpt>
      <trkpt lat="42.471198" lon="0.778000">
        <ele>997.289</ele>
        <time>2018-11-24T12:14:53Z</time>
      </trkpt>
      <trkpt lat="42.470948" lon="0.778029">
        <ele>996.617</ele>
        <time>2018-11-24T12:14:54Z</time>
      </trkpt>
      <trkpt lat="42.470688" lon="0.777993">
        <ele>996.108</ele>
        <time>2018-11-24T12:14:55Z</time>
      </trkpt>
      <trkpt lat="42.470421" lon="0.777948">
        <ele>995.635</ele>
        <time>2018-11-24T12:14:56Z</time>
      </trkpt>
      <trkpt lat="42.470152" lon="0.777896">
        <ele>995.012</ele>
        <time>2018-11-24T12:14:57Z</time>
      </trkpt>
      <trkpt lat="42.469876" lon="0.777845">
        <ele>994.249</ele>
        <time>2018-11-24T12:14:58Z</time>
      </trkpt>
      <trkpt lat="42.469602" lon="0.777798">
        <ele>993.420</ele>
        <time>2018-11-24T12:14:59Z</time>
      </trkpt>
      <trkpt lat="42.469328" lon="0.777751">
        <ele>992.258</ele>
        <time>2018-11-24T12:15:00Z</time>
      </trkpt>
      <trkpt lat="42.469072" lon="0.777704">
        <ele>991.140</ele>
        <time>2018-11-24T12:15:01Z</time>
      </trkpt>
      <trkpt lat="42.468826" lon="0.777663">
        <ele>989.383</ele>
        <time>2018-11-24T12:15:02Z</time>
      </trkpt>
      <trkpt lat="42.468601" lon="0.777634">
        <ele>987.757</ele>
        <time>2018-11-24T12:15:03Z</time>
      </trkpt>
      <trkpt lat="42.468397" lon="0.777593">
        <ele>986.465</ele>
        <time>2018-11-24T12:15:04Z</time>
      </trkpt>
      <trkpt lat="42.468199" lon="0.777509">
        <ele>985.668</ele>
        <time>2018-11-24T12:15:05Z</time>
      </trkpt>
      <trkpt lat="42.468016" lon="0.777377">
        <ele>985.214</ele>
        <time>2018-11-24T12:15:06Z</time>
      </trkpt>
      <trkpt lat="42.467878" lon="0.777134">
        <ele>985.408</ele>
        <time>2018-11-24T12:15:07Z</time>
      </trkpt>
      <trkpt lat="42.467763" lon="0.776847">
        <ele>985.479</ele>
        <time>2018-11-24T12:15:08Z</time>
      </trkpt>
      <trkpt lat="42.467681" lon="0.776549">
        <ele>985.686</ele>
        <time>2018-11-24T12:15:09Z</time>
      </trkpt>
      <trkpt lat="42.467605" lon="0.776237">
        <ele>985.963</ele>
        <time>2018-11-24T12:15:10Z</time>
      </trkpt>
      <trkpt lat="42.467508" lon="0.775936">
        <ele>986.264</ele>
        <time>2018-11-24T12:15:11Z</time>
      </trkpt>
      <trkpt lat="42.467401" lon="0.775630">
        <ele>986.692</ele>
        <time>2018-11-24T12:15:12Z</time>
      </trkpt>
      <trkpt lat="42.467299" lon="0.775313">
        <ele>986.854</ele>
        <time>2018-11-24T12:15:13Z</time>
      </trkpt>
      <trkpt lat="42.467186" lon="0.774989">
        <ele>987.127</ele>
        <time>2018-11-24T12:15:14Z</time>
      </trkpt>
      <trkpt lat="42.467066" lon="0.774657">
        <ele>987.251</ele>
        <time>2018-11-24T12:15:15Z</time>
      </trkpt>
      <trkpt lat="42.466942" lon="0.774317">
        <ele>987.366</ele>
        <time>2018-11-24T12:15:16Z</time>
      </trkpt>
      <trkpt lat="42.466817" lon="0.773979">
        <ele>987.029</ele>
        <time>2018-11-24T12:15:17Z</time>
      </trkpt>
      <trkpt lat="42.466691" lon="0.773652">
        <ele>986.521</ele>
        <time>2018-11-24T12:15:18Z</time>
      </trkpt>
      <trkpt lat="42.466572" lon="0.773334">
        <ele>986.008</ele>
        <time>2018-11-24T12:15:19Z</time>
      </trkpt>
      <trkpt lat="42.466462" lon="0.773019">
        <ele>985.259</ele>
        <time>2018-11-24T12:15:20Z</time>
      </trkpt>
      <trkpt lat="42.466358" lon="0.772731">
        <ele>984.296</ele>
        <time>2018-11-24T12:15:21Z</time>
      </trkpt>
      <trkpt lat="42.466262" lon="0.772463">
        <ele>983.633</ele>
        <time>2018-11-24T12:15:22Z</time>
      </trkpt>
      <trkpt lat="42.466158" lon="0.772192">
        <ele>982.954</ele>
        <time>2018-11-24T12:15:23Z</time>
      </trkpt>
      <trkpt lat="42.466035" lon="0.771935">
        <ele>982.822</ele>
        <time>2018-11-24T12:15:24Z</time>
      </trkpt>
      <trkpt lat="42.465875" lon="0.771705">
        <ele>982.824</ele>
        <time>2018-11-24T12:15:25Z</time>
      </trkpt>
      <trkpt lat="42.465698" lon="0.771487">
        <ele>982.647</ele>
        <time>2018-11-24T12:15:26Z</time>
      </trkpt>
      <trkpt lat="42.465519" lon="0.771288">
        <ele>982.181</ele>
        <time>2018-11-24T12:15:27Z</time>
      </trkpt>
      <trkpt lat="42.465344" lon="0.771107">
        <ele>981.338</ele>
        <time>2018-11-24T12:15:28Z</time>
      </trkpt>
      <trkpt lat="42.465150" lon="0.770959">
        <ele>981.070</ele>
        <time>2018-11-24T12:15:29Z</time>
      </trkpt>
      <trkpt lat="42.464939" lon="0.770846">
        <ele>980.617</ele>
        <time>2018-11-24T12:15:30Z</time>
      </trkpt>
      <trkpt lat="42.464711" lon="0.770760">
        <ele>979.808</ele>
        <time>2018-11-24T12:15:31Z</time>
      </trkpt>
      <trkpt lat="42.464490" lon="0.770676">
        <ele>978.496</ele>
        <time>2018-11-24T12:15:32Z</time>
      </trkpt>
      <trkpt lat="42.464279" lon="0.770577">
        <ele>976.993</ele>
        <time>2018-11-24T12:15:33Z</time>
      </trkpt>
      <trkpt lat="42.464068" lon="0.770458">
        <ele>975.290</ele>
        <time>2018-11-24T12:15:34Z</time>
      </trkpt>
      <trkpt lat="42.463883" lon="0.770290">
        <ele>973.781</ele>
        <time>2018-11-24T12:15:35Z</time>
      </trkpt>
      <trkpt lat="42.463713" lon="0.770097">
        <ele>972.119</ele>
        <time>2018-11-24T12:15:36Z</time>
      </trkpt>
      <trkpt lat="42.463550" lon="0.769904">
        <ele>970.431</ele>
        <time>2018-11-24T12:15:37Z</time>
      </trkpt>
      <trkpt lat="42.463402" lon="0.769731">
        <ele>968.554</ele>
        <time>2018-11-24T12:15:38Z</time>
      </trkpt>
      <trkpt lat="42.463244" lon="0.769579">
        <ele>967.048</ele>
        <time>2018-11-24T12:15:39Z</time>
      </trkpt>
      <trkpt lat="42.463068" lon="0.769474">
        <ele>965.692</ele>
        <time>2018-11-24T12:15:40Z</time>
      </trkpt>
      <trkpt lat="42.462870" lon="0.769411">
        <ele>964.473</ele>
        <time>2018-11-24T12:15:41Z</time>
      </trkpt>
      <trkpt lat="42.462660" lon="0.769395">
        <ele>963.420</ele>
        <time>2018-11-24T12:15:42Z</time>
      </trkpt>
      <trkpt lat="42.462446" lon="0.769414">
        <ele>962.408</ele>
        <time>2018-11-24T12:15:43Z</time>
      </trkpt>
      <trkpt lat="42.462253" lon="0.769442">
        <ele>960.912</ele>
        <time>2018-11-24T12:15:44Z</time>
      </trkpt>
      <trkpt lat="42.462093" lon="0.769473">
        <ele>959.379</ele>
        <time>2018-11-24T12:15:45Z</time>
      </trkpt>
      <trkpt lat="42.461934" lon="0.769498">
        <ele>958.136</ele>
        <time>2018-11-24T12:15:46Z</time>
      </trkpt>
      <trkpt lat="42.461797" lon="0.769475">
        <ele>957.537</ele>
        <time>2018-11-24T12:15:47Z</time>
      </trkpt>
      <trkpt lat="42.461664" lon="0.769426">
        <ele>956.935</ele>
        <time>2018-11-24T12:15:48Z</time>
      </trkpt>
      <trkpt lat="42.461549" lon="0.769319">
        <ele>956.427</ele>
        <time>2018-11-24T12:15:49Z</time>
      </trkpt>
      <trkpt lat="42.461433" lon="0.769197">
        <ele>956.270</ele>
        <time>2018-11-24T12:15:50Z</time>
      </trkpt>
      <trkpt lat="42.461383" lon="0.768972">
        <ele>956.174</ele>
        <time>2018-11-24T12:15:51Z</time>
      </trkpt>
      <trkpt lat="42.461329" lon="0.768745">
        <ele>956.121</ele>
        <time>2018-11-24T12:15:52Z</time>
      </trkpt>
      <trkpt lat="42.461265" lon="0.768503">
        <ele>956.041</ele>
        <time>2018-11-24T12:15:53Z</time>
      </trkpt>
      <trkpt lat="42.461194" lon="0.768236">
        <ele>956.105</ele>
        <time>2018-11-24T12:15:54Z</time>
      </trkpt>
      <trkpt lat="42.461119" lon="0.767955">
        <ele>956.208</ele>
        <time>2018-11-24T12:15:55Z</time>
      </trkpt>
      <trkpt lat="42.461045" lon="0.767677">
        <ele>955.965</ele>
        <time>2018-11-24T12:15:56Z</time>
      </trkpt>
      <trkpt lat="42.460974" lon="0.767414">
        <ele>955.542</ele>
        <time>2018-11-24T12:15:57Z</time>
      </trkpt>
      <trkpt lat="42.460888" lon="0.767183">
        <ele>954.499</ele>
        <time>2018-11-24T12:15:58Z</time>
      </trkpt>
      <trkpt lat="42.460804" lon="0.766956">
        <ele>953.670</ele>
        <time>2018-11-24T12:15:59Z</time>
      </trkpt>
      <trkpt lat="42.460701" lon="0.766761">
        <ele>952.958</ele>
        <time>2018-11-24T12:16:00Z</time>
      </trkpt>
      <trkpt lat="42.460600" lon="0.766581">
        <ele>952.310</ele>
        <time>2018-11-24T12:16:01Z</time>
      </trkpt>
      <trkpt lat="42.460527" lon="0.766369">
        <ele>952.073</ele>
        <time>2018-11-24T12:16:02Z</time>
      </trkpt>
      <trkpt lat="42.460478" lon="0.766138">
        <ele>951.757</ele>
        <time>2018-11-24T12:16:03Z</time>
      </trkpt>
      <trkpt lat="42.460451" lon="0.765891">
        <ele>951.668</ele>
        <time>2018-11-24T12:16:04Z</time>
      </trkpt>
      <trkpt lat="42.460433" lon="0.765635">
        <ele>951.442</ele>
        <time>2018-11-24T12:16:05Z</time>
      </trkpt>
      <trkpt lat="42.460411" lon="0.765372">
        <ele>951.226</ele>
        <time>2018-11-24T12:16:06Z</time>
      </trkpt>
      <trkpt lat="42.460386" lon="0.765110">
        <ele>950.908</ele>
        <time>2018-11-24T12:16:07Z</time>
      </trkpt>
      <trkpt lat="42.460348" lon="0.764843">
        <ele>950.839</ele>
        <time>2018-11-24T12:16:08Z</time>
      </trkpt>
      <trkpt lat="42.460291" lon="0.764578">
        <ele>950.646</ele>
        <time>2018-11-24T12:16:09Z</time>
      </trkpt>
      <trkpt lat="42.460214" lon="0.764317">
        <ele>950.543</ele>
        <time>2018-11-24T12:16:10Z</time>
      </trkpt>
      <trkpt lat="42.460125" lon="0.764076">
        <ele>950.284</ele>
        <time>2018-11-24T12:16:11Z</time>
      </trkpt>
      <trkpt lat="42.460046" lon="0.763853">
        <ele>949.132</ele>
        <time>2018-11-24T12:16:12Z</time>
      </trkpt>
      <trkpt lat="42.459968" lon="0.763660">
        <ele>948.714</ele>
        <time>2018-11-24T12:16:13Z</time>
      </trkpt>
      <trkpt lat="42.459844" lon="0.763502">
        <ele>948.527</ele>
        <time>2018-11-24T12:16:14Z</time>
      </trkpt>
      <trkpt lat="42.459724" lon="0.763344">
        <ele>948.321</ele>
        <time>2018-11-24T12:16:15Z</time>
      </trkpt>
      <trkpt lat="42.459550" lon="0.763258">
        <ele>948.412</ele>
        <time>2018-11-24T12:16:16Z</time>
      </trkpt>
      <trkpt lat="42.459358" lon="0.763191">
        <ele>948.332</ele>
        <time>2018-11-24T12:16:17Z</time>
      </trkpt>
      <trkpt lat="42.459159" lon="0.763138">
        <ele>948.205</ele>
        <time>2018-11-24T12:16:18Z</time>
      </trkpt>
      <trkpt lat="42.458964" lon="0.763067">
        <ele>948.308</ele>
        <time>2018-11-24T12:16:19Z</time>
      </trkpt>
      <trkpt lat="42.458757" lon="0.762977">
        <ele>948.294</ele>
        <time>2018-11-24T12:16:20Z</time>
      </trkpt>
      <trkpt lat="42.458554" lon="0.762859">
        <ele>948.171</ele>
        <time>2018-11-24T12:16:21Z</time>
      </trkpt>
      <trkpt lat="42.458358" lon="0.762699">
        <ele>948.088</ele>
        <time>2018-11-24T12:16:22Z</time>
      </trkpt>
      <trkpt lat="42.458154" lon="0.762540">
        <ele>948.059</ele>
        <time>2018-11-24T12:16:23Z</time>
      </trkpt>
      <trkpt lat="42.457989" lon="0.762293">
        <ele>948.337</ele>
        <time>2018-11-24T12:16:24Z</time>
      </trkpt>
      <trkpt lat="42.457853" lon="0.762021">
        <ele>949.059</ele>
        <time>2018-11-24T12:16:25Z</time>
      </trkpt>
      <trkpt lat="42.457737" lon="0.761752">
        <ele>949.592</ele>
        <time>2018-11-24T12:16:26Z</time>
      </trkpt>
      <trkpt lat="42.457664" lon="0.761491">
        <ele>950.026</ele>
        <time>2018-11-24T12:16:27Z</time>
      </trkpt>
      <trkpt lat="42.457611" lon="0.761249">
        <ele>950.615</ele>
        <time>2018-11-24T12:16:28Z</time>
      </trkpt>
      <trkpt lat="42.457548" lon="0.761027">
        <ele>951.265</ele>
        <time>2018-11-24T12:16:29Z</time>
      </trkpt>
      <trkpt lat="42.457459" lon="0.760839">
        <ele>952.111</ele>
        <time>2018-11-24T12:16:30Z</time>
      </trkpt>
      <trkpt lat="42.457336" lon="0.760684">
        <ele>952.908</ele>
        <time>2018-11-24T12:16:31Z</time>
      </trkpt>
      <trkpt lat="42.457195" lon="0.760562">
        <ele>953.764</ele>
        <time>2018-11-24T12:16:32Z</time>
      </trkpt>
      <trkpt lat="42.457030" lon="0.760488">
        <ele>954.891</ele>
        <time>2018-11-24T12:16:33Z</time>
      </trkpt>
      <trkpt lat="42.456858" lon="0.760450">
        <ele>955.738</ele>
        <time>2018-11-24T12:16:34Z</time>
      </trkpt>
      <trkpt lat="42.456679" lon="0.760416">
        <ele>956.759</ele>
        <time>2018-11-24T12:16:35Z</time>
      </trkpt>
      <trkpt lat="42.456498" lon="0.760365">
        <ele>957.397</ele>
        <time>2018-11-24T12:16:36Z</time>
      </trkpt>
      <trkpt lat="42.456320" lon="0.760268">
        <ele>957.989</ele>
        <time>2018-11-24T12:16:37Z</time>
      </trkpt>
      <trkpt lat="42.456154" lon="0.760133">
        <ele>958.232</ele>
        <time>2018-11-24T12:16:38Z</time>
      </trkpt>
      <trkpt lat="42.455993" lon="0.759971">
        <ele>959.116</ele>
        <time>2018-11-24T12:16:39Z</time>
      </trkpt>
      <trkpt lat="42.455835" lon="0.759786">
        <ele>959.442</ele>
        <time>2018-11-24T12:16:40Z</time>
      </trkpt>
      <trkpt lat="42.455671" lon="0.759589">
        <ele>959.422</ele>
        <time>2018-11-24T12:16:41Z</time>
      </trkpt>
      <trkpt lat="42.455496" lon="0.759385">
        <ele>959.214</ele>
        <time>2018-11-24T12:16:42Z</time>
      </trkpt>
      <trkpt lat="42.455327" lon="0.759165">
        <ele>958.908</ele>
        <time>2018-11-24T12:16:43Z</time>
      </trkpt>
      <trkpt lat="42.455148" lon="0.758937">
        <ele>958.527</ele>
        <time>2018-11-24T12:16:44Z</time>
      </trkpt>
      <trkpt lat="42.454973" lon="0.758679">
        <ele>957.914</ele>
        <time>2018-11-24T12:16:45Z</time>
      </trkpt>
      <trkpt lat="42.454837" lon="0.758394">
        <ele>957.111</ele>
        <time>2018-11-24T12:16:46Z</time>
      </trkpt>
      <trkpt lat="42.454679" lon="0.758117">
        <ele>956.262</ele>
        <time>2018-11-24T12:16:47Z</time>
      </trkpt>
      <trkpt lat="42.454567" lon="0.757816">
        <ele>955.050</ele>
        <time>2018-11-24T12:16:48Z</time>
      </trkpt>
      <trkpt lat="42.454437" lon="0.757523">
        <ele>954.332</ele>
        <time>2018-11-24T12:16:49Z</time>
      </trkpt>
      <trkpt lat="42.454319" lon="0.757220">
        <ele>953.145</ele>
        <time>2018-11-24T12:16:50Z</time>
      </trkpt>
      <trkpt lat="42.454191" lon="0.756921">
        <ele>952.699</ele>
        <time>2018-11-24T12:16:51Z</time>
      </trkpt>
      <trkpt lat="42.454055" lon="0.756620">
        <ele>951.554</ele>
        <time>2018-11-24T12:16:52Z</time>
      </trkpt>
      <trkpt lat="42.453924" lon="0.756312">
        <ele>950.756</ele>
        <time>2018-11-24T12:16:53Z</time>
      </trkpt>
      <trkpt lat="42.453787" lon="0.756008">
        <ele>949.411</ele>
        <time>2018-11-24T12:16:54Z</time>
      </trkpt>
      <trkpt lat="42.453658" lon="0.755710">
        <ele>947.708</ele>
        <time>2018-11-24T12:16:55Z</time>
      </trkpt>
      <trkpt lat="42.453533" lon="0.755424">
        <ele>946.378</ele>
        <time>2018-11-24T12:16:56Z</time>
      </trkpt>
      <trkpt lat="42.453410" lon="0.755150">
        <ele>944.585</ele>
        <time>2018-11-24T12:16:57Z</time>
      </trkpt>
      <trkpt lat="42.453289" lon="0.754876">
        <ele>943.152</ele>
        <time>2018-11-24T12:16:58Z</time>
      </trkpt>
      <trkpt lat="42.453161" lon="0.754595">
        <ele>941.533</ele>
        <time>2018-11-24T12:16:59Z</time>
      </trkpt>
      <trkpt lat="42.453019" lon="0.754320">
        <ele>940.271</ele>
        <time>2018-11-24T12:17:00Z</time>
      </trkpt>
      <trkpt lat="42.452850" lon="0.754063">
        <ele>939.143</ele>
        <time>2018-11-24T12:17:01Z</time>
      </trkpt>
      <trkpt lat="42.452658" lon="0.753828">
        <ele>938.476</ele>
        <time>2018-11-24T12:17:02Z</time>
      </trkpt>
      <trkpt lat="42.452459" lon="0.753597">
        <ele>938.220</ele>
        <time>2018-11-24T12:17:03Z</time>
      </trkpt>
      <trkpt lat="42.452241" lon="0.753389">
        <ele>937.855</ele>
        <time>2018-11-24T12:17:04Z</time>
      </trkpt>
      <trkpt lat="42.452023" lon="0.753167">
        <ele>937.407</ele>
        <time>2018-11-24T12:17:05Z</time>
      </trkpt>
      <trkpt lat="42.451799" lon="0.752952">
        <ele>936.817</ele>
        <time>2018-11-24T12:17:06Z</time>
      </trkpt>
      <trkpt lat="42.451570" lon="0.752747">
        <ele>936.408</ele>
        <time>2018-11-24T12:17:07Z</time>
      </trkpt>
      <trkpt lat="42.451338" lon="0.752557">
        <ele>936.038</ele>
        <time>2018-11-24T12:17:08Z</time>
      </trkpt>
      <trkpt lat="42.451111" lon="0.752387">
        <ele>935.285</ele>
        <time>2018-11-24T12:17:09Z</time>
      </trkpt>
      <trkpt lat="42.450894" lon="0.752230">
        <ele>934.572</ele>
        <time>2018-11-24T12:17:10Z</time>
      </trkpt>
      <trkpt lat="42.450683" lon="0.752079">
        <ele>934.373</ele>
        <time>2018-11-24T12:17:11Z</time>
      </trkpt>
      <trkpt lat="42.450478" lon="0.751933">
        <ele>933.931</ele>
        <time>2018-11-24T12:17:12Z</time>
      </trkpt>
      <trkpt lat="42.450284" lon="0.751791">
        <ele>933.323</ele>
        <time>2018-11-24T12:17:13Z</time>
      </trkpt>
      <trkpt lat="42.450099" lon="0.751670">
        <ele>932.636</ele>
        <time>2018-11-24T12:17:14Z</time>
      </trkpt>
      <trkpt lat="42.449912" lon="0.751570">
        <ele>932.390</ele>
        <time>2018-11-24T12:17:15Z</time>
      </trkpt>
      <trkpt lat="42.449721" lon="0.751497">
        <ele>932.058</ele>
        <time>2018-11-24T12:17:16Z</time>
      </trkpt>
      <trkpt lat="42.449521" lon="0.751462">
        <ele>931.952</ele>
        <time>2018-11-24T12:17:17Z</time>
      </trkpt>
      <trkpt lat="42.449308" lon="0.751459">
        <ele>931.617</ele>
        <time>2018-11-24T12:17:18Z</time>
      </trkpt>
      <trkpt lat="42.449088" lon="0.751486">
        <ele>931.208</ele>
        <time>2018-11-24T12:17:19Z</time>
      </trkpt>
      <trkpt lat="42.448872" lon="0.751562">
        <ele>930.518</ele>
        <time>2018-11-24T12:17:20Z</time>
      </trkpt>
      <trkpt lat="42.448654" lon="0.751648">
        <ele>929.945</ele>
        <time>2018-11-24T12:17:21Z</time>
      </trkpt>
      <trkpt lat="42.448448" lon="0.751737">
        <ele>928.862</ele>
        <time>2018-11-24T12:17:22Z</time>
      </trkpt>
      <trkpt lat="42.448257" lon="0.751821">
        <ele>927.633</ele>
        <time>2018-11-24T12:17:23Z</time>
      </trkpt>
      <trkpt lat="42.448071" lon="0.751889">
        <ele>926.441</ele>
        <time>2018-11-24T12:17:24Z</time>
      </trkpt>
      <trkpt lat="42.447879" lon="0.751919">
        <ele>925.723</ele>
        <time>2018-11-24T12:17:25Z</time>
      </trkpt>
      <trkpt lat="42.447686" lon="0.751902">
        <ele>925.326</ele>
        <time>2018-11-24T12:17:26Z</time>
      </trkpt>
      <trkpt lat="42.447483" lon="0.751846">
        <ele>925.070</ele>
        <time>2018-11-24T12:17:27Z</time>
      </trkpt>
      <trkpt lat="42.447275" lon="0.751786">
        <ele>924.576</ele>
        <time>2018-11-24T12:17:28Z</time>
      </trkpt>
      <trkpt lat="42.447068" lon="0.751728">
        <ele>923.790</ele>
        <time>2018-11-24T12:17:29Z</time>
      </trkpt>
      <trkpt lat="42.446871" lon="0.751659">
        <ele>922.919</ele>
        <time>2018-11-24T12:17:30Z</time>
      </trkpt>
      <trkpt lat="42.446681" lon="0.751564">
        <ele>921.708</ele>
        <time>2018-11-24T12:17:31Z</time>
      </trkpt>
      <trkpt lat="42.446508" lon="0.751411">
        <ele>920.980</ele>
        <time>2018-11-24T12:17:32Z</time>
      </trkpt>
      <trkpt lat="42.446350" lon="0.751220">
        <ele>920.427</ele>
        <time>2018-11-24T12:17:33Z</time>
      </trkpt>
      <trkpt lat="42.446202" lon="0.751008">
        <ele>919.994</ele>
        <time>2018-11-24T12:17:34Z</time>
      </trkpt>
      <trkpt lat="42.446055" lon="0.750797">
        <ele>919.375</ele>
        <time>2018-11-24T12:17:35Z</time>
      </trkpt>
      <trkpt lat="42.445897" lon="0.750608">
        <ele>918.683</ele>
        <time>2018-11-24T12:17:36Z</time>
      </trkpt>
      <trkpt lat="42.445714" lon="0.750457">
        <ele>918.275</ele>
        <time>2018-11-24T12:17:37Z</time>
      </trkpt>
      <trkpt lat="42.445511" lon="0.750349">
        <ele>917.618</ele>
        <time>2018-11-24T12:17:38Z</time>
      </trkpt>
      <trkpt lat="42.445296" lon="0.750265">
        <ele>917.422</ele>
        <time>2018-11-24T12:17:39Z</time>
      </trkpt>
      <trkpt lat="42.445080" lon="0.750176">
        <ele>917.226</ele>
        <time>2018-11-24T12:17:40Z</time>
      </trkpt>
      <trkpt lat="42.444863" lon="0.750056">
        <ele>916.747</ele>
        <time>2018-11-24T12:17:41Z</time>
      </trkpt>
      <trkpt lat="42.444653" lon="0.749895">
        <ele>916.111</ele>
        <time>2018-11-24T12:17:42Z</time>
      </trkpt>
      <trkpt lat="42.444445" lon="0.749708">
        <ele>915.908</ele>
        <time>2018-11-24T12:17:43Z</time>
      </trkpt>
      <trkpt lat="42.444231" lon="0.749515">
        <ele>915.685</ele>
        <time>2018-11-24T12:17:44Z</time>
      </trkpt>
      <trkpt lat="42.444009" lon="0.749317">
        <ele>915.382</ele>
        <time>2018-11-24T12:17:45Z</time>
      </trkpt>
      <trkpt lat="42.443781" lon="0.749109">
        <ele>914.969</ele>
        <time>2018-11-24T12:17:46Z</time>
      </trkpt>
      <trkpt lat="42.443548" lon="0.748898">
        <ele>914.480</ele>
        <time>2018-11-24T12:17:47Z</time>
      </trkpt>
      <trkpt lat="42.443315" lon="0.748690">
        <ele>913.778</ele>
        <time>2018-11-24T12:17:48Z</time>
      </trkpt>
      <trkpt lat="42.443083" lon="0.748484">
        <ele>912.940</ele>
        <time>2018-11-24T12:17:49Z</time>
      </trkpt>
      <trkpt lat="42.442854" lon="0.748279">
        <ele>912.363</ele>
        <time>2018-11-24T12:17:50Z</time>
      </trkpt>
      <trkpt lat="42.442623" lon="0.748071">
        <ele>911.557</ele>
        <time>2018-11-24T12:17:51Z</time>
      </trkpt>
      <trkpt lat="42.442388" lon="0.747859">
        <ele>910.827</ele>
        <time>2018-11-24T12:17:52Z</time>
      </trkpt>
      <trkpt lat="42.442154" lon="0.747649">
        <ele>909.768</ele>
        <time>2018-11-24T12:17:53Z</time>
      </trkpt>
      <trkpt lat="42.441927" lon="0.747447">
        <ele>909.014</ele>
        <time>2018-11-24T12:17:54Z</time>
      </trkpt>
      <trkpt lat="42.441708" lon="0.747254">
        <ele>907.008</ele>
        <time>2018-11-24T12:17:55Z</time>
      </trkpt>
      <trkpt lat="42.441495" lon="0.747062">
        <ele>905.535</ele>
        <time>2018-11-24T12:17:56Z</time>
      </trkpt>
      <trkpt lat="42.441293" lon="0.746861">
        <ele>904.142</ele>
        <time>2018-11-24T12:17:57Z</time>
      </trkpt>
      <trkpt lat="42.441101" lon="0.746643">
        <ele>902.969</ele>
        <time>2018-11-24T12:17:58Z</time>
      </trkpt>
      <trkpt lat="42.440913" lon="0.746428">
        <ele>902.090</ele>
        <time>2018-11-24T12:17:59Z</time>
      </trkpt>
      <trkpt lat="42.440748" lon="0.746205">
        <ele>900.358</ele>
        <time>2018-11-24T12:18:00Z</time>
      </trkpt>
      <trkpt lat="42.440571" lon="0.746023">
        <ele>898.960</ele>
        <time>2018-11-24T12:18:01Z</time>
      </trkpt>
      <trkpt lat="42.440397" lon="0.745867">
        <ele>897.553</ele>
        <time>2018-11-24T12:18:02Z</time>
      </trkpt>
      <trkpt lat="42.440225" lon="0.745723">
        <ele>896.747</ele>
        <time>2018-11-24T12:18:03Z</time>
      </trkpt>
      <trkpt lat="42.440034" lon="0.745656">
        <ele>896.299</ele>
        <time>2018-11-24T12:18:04Z</time>
      </trkpt>
      <trkpt lat="42.439837" lon="0.745609">
        <ele>895.907</ele>
        <time>2018-11-24T12:18:05Z</time>
      </trkpt>
      <trkpt lat="42.439633" lon="0.745646">
        <ele>895.827</ele>
        <time>2018-11-24T12:18:06Z</time>
      </trkpt>
      <trkpt lat="42.439422" lon="0.745700">
        <ele>895.608</ele>
        <time>2018-11-24T12:18:07Z</time>
      </trkpt>
      <trkpt lat="42.439226" lon="0.745844">
        <ele>895.662</ele>
        <time>2018-11-24T12:18:08Z</time>
      </trkpt>
      <trkpt lat="42.439043" lon="0.746037">
        <ele>895.689</ele>
        <time>2018-11-24T12:18:09Z</time>
      </trkpt>
      <trkpt lat="42.438878" lon="0.746218">
        <ele>894.876</ele>
        <time>2018-11-24T12:18:10Z</time>
      </trkpt>
      <trkpt lat="42.438728" lon="0.746375">
        <ele>894.077</ele>
        <time>2018-11-24T12:18:11Z</time>
      </trkpt>
      <trkpt lat="42.438585" lon="0.746521">
        <ele>893.475</ele>
        <time>2018-11-24T12:18:12Z</time>
      </trkpt>
      <trkpt lat="42.438419" lon="0.746583">
        <ele>893.487</ele>
        <time>2018-11-24T12:18:13Z</time>
      </trkpt>
      <trkpt lat="42.438233" lon="0.746585">
        <ele>893.310</ele>
        <time>2018-11-24T12:18:14Z</time>
      </trkpt>
      <trkpt lat="42.438037" lon="0.746537">
        <ele>893.174</ele>
        <time>2018-11-24T12:18:15Z</time>
      </trkpt>
      <trkpt lat="42.437863" lon="0.746416">
        <ele>892.743</ele>
        <time>2018-11-24T12:18:16Z</time>
      </trkpt>
      <trkpt lat="42.437709" lon="0.746234">
        <ele>892.664</ele>
        <time>2018-11-24T12:18:17Z</time>
      </trkpt>
      <trkpt lat="42.437551" lon="0.746033">
        <ele>892.810</ele>
        <time>2018-11-24T12:18:18Z</time>
      </trkpt>
      <trkpt lat="42.437389" lon="0.745820">
        <ele>892.708</ele>
        <time>2018-11-24T12:18:19Z</time>
      </trkpt>
      <trkpt lat="42.437222" lon="0.745602">
        <ele>892.697</ele>
        <time>2018-11-24T12:18:20Z</time>
      </trkpt>
      <trkpt lat="42.437050" lon="0.745370">
        <ele>892.674</ele>
        <time>2018-11-24T12:18:21Z</time>
      </trkpt>
      <trkpt lat="42.436875" lon="0.745132">
        <ele>892.391</ele>
        <time>2018-11-24T12:18:22Z</time>
      </trkpt>
      <trkpt lat="42.436701" lon="0.744889">
        <ele>891.872</ele>
        <time>2018-11-24T12:18:23Z</time>
      </trkpt>
      <trkpt lat="42.436525" lon="0.744650">
        <ele>891.340</ele>
        <time>2018-11-24T12:18:24Z</time>
      </trkpt>
      <trkpt lat="42.436350" lon="0.744408">
        <ele>890.532</ele>
        <time>2018-11-24T12:18:25Z</time>
      </trkpt>
      <trkpt lat="42.436182" lon="0.744172">
        <ele>889.595</ele>
        <time>2018-11-24T12:18:26Z</time>
      </trkpt>
      <trkpt lat="42.436017" lon="0.743952">
        <ele>888.259</ele>
        <time>2018-11-24T12:18:27Z</time>
      </trkpt>
      <trkpt lat="42.435851" lon="0.743744">
        <ele>887.563</ele>
        <time>2018-11-24T12:18:28Z</time>
      </trkpt>
      <trkpt lat="42.435668" lon="0.743557">
        <ele>886.944</ele>
        <time>2018-11-24T12:18:29Z</time>
      </trkpt>
      <trkpt lat="42.435463" lon="0.743399">
        <ele>886.518</ele>
        <time>2018-11-24T12:18:30Z</time>
      </trkpt>
      <trkpt lat="42.435247" lon="0.743244">
        <ele>886.008</ele>
        <time>2018-11-24T12:18:31Z</time>
      </trkpt>
      <trkpt lat="42.435009" lon="0.743147">
        <ele>885.439</ele>
        <time>2018-11-24T12:18:32Z</time>
      </trkpt>
      <trkpt lat="42.434769" lon="0.743031">
        <ele>885.026</ele>
        <time>2018-11-24T12:18:33Z</time>
      </trkpt>
      <trkpt lat="42.434523" lon="0.742916">
        <ele>884.733</ele>
        <time>2018-11-24T12:18:34Z</time>
      </trkpt>
      <trkpt lat="42.434284" lon="0.742807">
        <ele>884.684</ele>
        <time>2018-11-24T12:18:35Z</time>
      </trkpt>
      <trkpt lat="42.434065" lon="0.742702">
        <ele>883.752</ele>
        <time>2018-11-24T12:18:36Z</time>
      </trkpt>
      <trkpt lat="42.433868" lon="0.742609">
        <ele>882.844</ele>
        <time>2018-11-24T12:18:37Z</time>
      </trkpt>
      <trkpt lat="42.433680" lon="0.742525">
        <ele>882.577</ele>
        <time>2018-11-24T12:18:38Z</time>
      </trkpt>
      <trkpt lat="42.433501" lon="0.742425">
        <ele>882.751</ele>
        <time>2018-11-24T12:18:39Z</time>
      </trkpt>
      <trkpt lat="42.433332" lon="0.742291">
        <ele>882.975</ele>
        <time>2018-11-24T12:18:40Z</time>
      </trkpt>
      <trkpt lat="42.433177" lon="0.742117">
        <ele>883.228</ele>
        <time>2018-11-24T12:18:41Z</time>
      </trkpt>
      <trkpt lat="42.433039" lon="0.741909">
        <ele>883.420</ele>
        <time>2018-11-24T12:18:42Z</time>
      </trkpt>
      <trkpt lat="42.432914" lon="0.741672">
        <ele>883.608</ele>
        <time>2018-11-24T12:18:43Z</time>
      </trkpt>
      <trkpt lat="42.432791" lon="0.741421">
        <ele>884.020</ele>
        <time>2018-11-24T12:18:44Z</time>
      </trkpt>
      <trkpt lat="42.432663" lon="0.741159">
        <ele>884.457</ele>
        <time>2018-11-24T12:18:45Z</time>
      </trkpt>
      <trkpt lat="42.432532" lon="0.740890">
        <ele>884.884</ele>
        <time>2018-11-24T12:18:46Z</time>
      </trkpt>
      <trkpt lat="42.432397" lon="0.740616">
        <ele>884.935</ele>
        <time>2018-11-24T12:18:47Z</time>
      </trkpt>
      <trkpt lat="42.432258" lon="0.740334">
        <ele>885.093</ele>
        <time>2018-11-24T12:18:48Z</time>
      </trkpt>
      <trkpt lat="42.432122" lon="0.740055">
        <ele>884.945</ele>
        <time>2018-11-24T12:18:49Z</time>
      </trkpt>
      <trkpt lat="42.431996" lon="0.739793">
        <ele>884.438</ele>
        <time>2018-11-24T12:18:50Z</time>
      </trkpt>
      <trkpt lat="42.431875" lon="0.739546">
        <ele>883.942</ele>
        <time>2018-11-24T12:18:51Z</time>
      </trkpt>
      <trkpt lat="42.431748" lon="0.739310">
        <ele>883.795</ele>
        <time>2018-11-24T12:18:52Z</time>
      </trkpt>
      <trkpt lat="42.431604" lon="0.739090">
        <ele>883.549</ele>
        <time>2018-11-24T12:18:53Z</time>
      </trkpt>
      <trkpt lat="42.431442" lon="0.738884">
        <ele>883.823</ele>
        <time>2018-11-24T12:18:54Z</time>
      </trkpt>
      <trkpt lat="42.431270" lon="0.738686">
        <ele>884.008</ele>
        <time>2018-11-24T12:18:55Z</time>
      </trkpt>
      <trkpt lat="42.431064" lon="0.738521">
        <ele>884.242</ele>
        <time>2018-11-24T12:18:56Z</time>
      </trkpt>
      <trkpt lat="42.430842" lon="0.738374">
        <ele>884.599</ele>
        <time>2018-11-24T12:18:57Z</time>
      </trkpt>
      <trkpt lat="42.430614" lon="0.738233">
        <ele>884.996</ele>
        <time>2018-11-24T12:18:58Z</time>
      </trkpt>
      <trkpt lat="42.430392" lon="0.738085">
        <ele>884.737</ele>
        <time>2018-11-24T12:18:59Z</time>
      </trkpt>
      <trkpt lat="42.430174" lon="0.737942">
        <ele>884.575</ele>
        <time>2018-11-24T12:19:00Z</time>
      </trkpt>
      <trkpt lat="42.429957" lon="0.737793">
        <ele>884.427</ele>
        <time>2018-11-24T12:19:01Z</time>
      </trkpt>
      <trkpt lat="42.429742" lon="0.737629">
        <ele>884.370</ele>
        <time>2018-11-24T12:19:02Z</time>
      </trkpt>
      <trkpt lat="42.429531" lon="0.737446">
        <ele>884.554</ele>
        <time>2018-11-24T12:19:03Z</time>
      </trkpt>
      <trkpt lat="42.429323" lon="0.737241">
        <ele>884.144</ele>
        <time>2018-11-24T12:19:04Z</time>
      </trkpt>
      <trkpt lat="42.429115" lon="0.737026">
        <ele>883.905</ele>
        <time>2018-11-24T12:19:05Z</time>
      </trkpt>
      <trkpt lat="42.428906" lon="0.736801">
        <ele>883.615</ele>
        <time>2018-11-24T12:19:06Z</time>
      </trkpt>
      <trkpt lat="42.428692" lon="0.736573">
        <ele>883.608</ele>
        <time>2018-11-24T12:19:07Z</time>
      </trkpt>
      <trkpt lat="42.428474" lon="0.736340">
        <ele>883.527</ele>
        <time>2018-11-24T12:19:08Z</time>
      </trkpt>
      <trkpt lat="42.428256" lon="0.736101">
        <ele>883.164</ele>
        <time>2018-11-24T12:19:09Z</time>
      </trkpt>
      <trkpt lat="42.428035" lon="0.735860">
        <ele>882.651</ele>
        <time>2018-11-24T12:19:10Z</time>
      </trkpt>
      <trkpt lat="42.427810" lon="0.735618">
        <ele>882.352</ele>
        <time>2018-11-24T12:19:11Z</time>
      </trkpt>
      <trkpt lat="42.427586" lon="0.735375">
        <ele>881.860</ele>
        <time>2018-11-24T12:19:12Z</time>
      </trkpt>
      <trkpt lat="42.427366" lon="0.735136">
        <ele>881.272</ele>
        <time>2018-11-24T12:19:13Z</time>
      </trkpt>
      <trkpt lat="42.427159" lon="0.734913">
        <ele>880.225</ele>
        <time>2018-11-24T12:19:14Z</time>
      </trkpt>
      <trkpt lat="42.426979" lon="0.734721">
        <ele>878.659</ele>
        <time>2018-11-24T12:19:15Z</time>
      </trkpt>
      <trkpt lat="42.426818" lon="0.734551">
        <ele>877.076</ele>
        <time>2018-11-24T12:19:16Z</time>
      </trkpt>
      <trkpt lat="42.426666" lon="0.734388">
        <ele>876.190</ele>
        <time>2018-11-24T12:19:17Z</time>
      </trkpt>
      <trkpt lat="42.426519" lon="0.734229">
        <ele>875.719</ele>
        <time>2018-11-24T12:19:18Z</time>
      </trkpt>
      <trkpt lat="42.426377" lon="0.734078">
        <ele>874.508</ele>
        <time>2018-11-24T12:19:19Z</time>
      </trkpt>
      <trkpt lat="42.426242" lon="0.733933">
        <ele>873.550</ele>
        <time>2018-11-24T12:19:20Z</time>
      </trkpt>
      <trkpt lat="42.426110" lon="0.733783">
        <ele>872.637</ele>
        <time>2018-11-24T12:19:21Z</time>
      </trkpt>
      <trkpt lat="42.425983" lon="0.733623">
        <ele>871.734</ele>
        <time>2018-11-24T12:19:22Z</time>
      </trkpt>
      <trkpt lat="42.425865" lon="0.733450">
        <ele>870.415</ele>
        <time>2018-11-24T12:19:23Z</time>
      </trkpt>
      <trkpt lat="42.425761" lon="0.733271">
        <ele>869.233</ele>
        <time>2018-11-24T12:19:24Z</time>
      </trkpt>
      <trkpt lat="42.425663" lon="0.733104">
        <ele>868.095</ele>
        <time>2018-11-24T12:19:25Z</time>
      </trkpt>
      <trkpt lat="42.425605" lon="0.732928">
        <ele>866.678</ele>
        <time>2018-11-24T12:19:26Z</time>
      </trkpt>
      <trkpt lat="42.425560" lon="0.732799">
        <ele>865.352</ele>
        <time>2018-11-24T12:19:27Z</time>
      </trkpt>
      <trkpt lat="42.425526" lon="0.732700">
        <ele>864.044</ele>
        <time>2018-11-24T12:19:28Z</time>
      </trkpt>
      <trkpt lat="42.425507" lon="0.732633">
        <ele>863.105</ele>
        <time>2018-11-24T12:19:29Z</time>
      </trkpt>
      <trkpt lat="42.425488" lon="0.732564">
        <ele>862.315</ele>
        <time>2018-11-24T12:19:43Z</time>
      </trkpt>
      <trkpt lat="42.425471" lon="0.732462">
        <ele>862.108</ele>
        <time>2018-11-24T12:19:44Z</time>
      </trkpt>
      <trkpt lat="42.425444" lon="0.732353">
        <ele>861.637</ele>
        <time>2018-11-24T12:19:46Z</time>
      </trkpt>
      <trkpt lat="42.425375" lon="0.732210">
        <ele>860.784</ele>
        <time>2018-11-24T12:19:51Z</time>
      </trkpt>
      <trkpt lat="42.425328" lon="0.732207">
        <ele>860.761</ele>
        <time>2018-11-24T12:19:52Z</time>
      </trkpt>
      <trkpt lat="42.425266" lon="0.732203">
        <ele>860.682</ele>
        <time>2018-11-24T12:19:53Z</time>
      </trkpt>
      <trkpt lat="42.425201" lon="0.732238">
        <ele>860.560</ele>
        <time>2018-11-24T12:19:54Z</time>
      </trkpt>
      <trkpt lat="42.425136" lon="0.732265">
        <ele>860.572</ele>
        <time>2018-11-24T12:19:55Z</time>
      </trkpt>
      <trkpt lat="42.425059" lon="0.732294">
        <ele>860.565</ele>
        <time>2018-11-24T12:19:56Z</time>
      </trkpt>
      <trkpt lat="42.424963" lon="0.732329">
        <ele>860.879</ele>
        <time>2018-11-24T12:19:57Z</time>
      </trkpt>
      <trkpt lat="42.424853" lon="0.732368">
        <ele>861.241</ele>
        <time>2018-11-24T12:19:58Z</time>
      </trkpt>
      <trkpt lat="42.424740" lon="0.732406">
        <ele>861.081</ele>
        <time>2018-11-24T12:19:59Z</time>
      </trkpt>
      <trkpt lat="42.424622" lon="0.732444">
        <ele>861.009</ele>
        <time>2018-11-24T12:20:00Z</time>
      </trkpt>
      <trkpt lat="42.424495" lon="0.732487">
        <ele>861.308</ele>
        <time>2018-11-24T12:20:01Z</time>
      </trkpt>
      <trkpt lat="42.424351" lon="0.732536">
        <ele>861.537</ele>
        <time>2018-11-24T12:20:02Z</time>
      </trkpt>
      <trkpt lat="42.424195" lon="0.732592">
        <ele>861.574</ele>
        <time>2018-11-24T12:20:03Z</time>
      </trkpt>
      <trkpt lat="42.424030" lon="0.732675">
        <ele>861.061</ele>
        <time>2018-11-24T12:20:04Z</time>
      </trkpt>
      <trkpt lat="42.423864" lon="0.732763">
        <ele>860.232</ele>
        <time>2018-11-24T12:20:05Z</time>
      </trkpt>
      <trkpt lat="42.423698" lon="0.732855">
        <ele>859.360</ele>
        <time>2018-11-24T12:20:06Z</time>
      </trkpt>
      <trkpt lat="42.423520" lon="0.732960">
        <ele>858.592</ele>
        <time>2018-11-24T12:20:07Z</time>
      </trkpt>
      <trkpt lat="42.423338" lon="0.733065">
        <ele>857.945</ele>
        <time>2018-11-24T12:20:08Z</time>
      </trkpt>
      <trkpt lat="42.423148" lon="0.733179">
        <ele>857.449</ele>
        <time>2018-11-24T12:20:09Z</time>
      </trkpt>
      <trkpt lat="42.422956" lon="0.733302">
        <ele>857.177</ele>
        <time>2018-11-24T12:20:10Z</time>
      </trkpt>
      <trkpt lat="42.422755" lon="0.733445">
        <ele>857.161</ele>
        <time>2018-11-24T12:20:11Z</time>
      </trkpt>
      <trkpt lat="42.422562" lon="0.733604">
        <ele>857.027</ele>
        <time>2018-11-24T12:20:12Z</time>
      </trkpt>
      <trkpt lat="42.422368" lon="0.733767">
        <ele>856.508</ele>
        <time>2018-11-24T12:20:13Z</time>
      </trkpt>
      <trkpt lat="42.422164" lon="0.733919">
        <ele>856.280</ele>
        <time>2018-11-24T12:20:14Z</time>
      </trkpt>
      <trkpt lat="42.421946" lon="0.734053">
        <ele>856.037</ele>
        <time>2018-11-24T12:20:15Z</time>
      </trkpt>
      <trkpt lat="42.421720" lon="0.734181">
        <ele>856.124</ele>
        <time>2018-11-24T12:20:16Z</time>
      </trkpt>
      <trkpt lat="42.421486" lon="0.734314">
        <ele>856.375</ele>
        <time>2018-11-24T12:20:17Z</time>
      </trkpt>
      <trkpt lat="42.421248" lon="0.734449">
        <ele>856.043</ele>
        <time>2018-11-24T12:20:18Z</time>
      </trkpt>
      <trkpt lat="42.421002" lon="0.734587">
        <ele>855.745</ele>
        <time>2018-11-24T12:20:19Z</time>
      </trkpt>
      <trkpt lat="42.420755" lon="0.734726">
        <ele>855.368</ele>
        <time>2018-11-24T12:20:20Z</time>
      </trkpt>
      <trkpt lat="42.420509" lon="0.734856">
        <ele>854.812</ele>
        <time>2018-11-24T12:20:21Z</time>
      </trkpt>
      <trkpt lat="42.420012" lon="0.735100">
        <ele>853.768</ele>
        <time>2018-11-24T12:20:22Z</time>
      </trkpt>
      <trkpt lat="42.419765" lon="0.735217">
        <ele>853.742</ele>
        <time>2018-11-24T12:20:23Z</time>
      </trkpt>
      <trkpt lat="42.419529" lon="0.735329">
        <ele>853.926</ele>
        <time>2018-11-24T12:20:24Z</time>
      </trkpt>
      <trkpt lat="42.419316" lon="0.735428">
        <ele>854.008</ele>
        <time>2018-11-24T12:20:25Z</time>
      </trkpt>
      <trkpt lat="42.419119" lon="0.735520">
        <ele>854.389</ele>
        <time>2018-11-24T12:20:26Z</time>
      </trkpt>
      <trkpt lat="42.418942" lon="0.735601">
        <ele>854.336</ele>
        <time>2018-11-24T12:20:27Z</time>
      </trkpt>
      <trkpt lat="42.418775" lon="0.735659">
        <ele>854.013</ele>
        <time>2018-11-24T12:20:28Z</time>
      </trkpt>
      <trkpt lat="42.418607" lon="0.735663">
        <ele>854.044</ele>
        <time>2018-11-24T12:20:29Z</time>
      </trkpt>
      <trkpt lat="42.418448" lon="0.735665">
        <ele>854.422</ele>
        <time>2018-11-24T12:20:30Z</time>
      </trkpt>
      <trkpt lat="42.418291" lon="0.735626">
        <ele>854.734</ele>
        <time>2018-11-24T12:20:31Z</time>
      </trkpt>
      <trkpt lat="42.418132" lon="0.735595">
        <ele>855.377</ele>
        <time>2018-11-24T12:20:32Z</time>
      </trkpt>
      <trkpt lat="42.417972" lon="0.735578">
        <ele>855.671</ele>
        <time>2018-11-24T12:20:33Z</time>
      </trkpt>
      <trkpt lat="42.417807" lon="0.735598">
        <ele>856.128</ele>
        <time>2018-11-24T12:20:34Z</time>
      </trkpt>
      <trkpt lat="42.417631" lon="0.735662">
        <ele>856.789</ele>
        <time>2018-11-24T12:20:35Z</time>
      </trkpt>
      <trkpt lat="42.417452" lon="0.735759">
        <ele>857.617</ele>
        <time>2018-11-24T12:20:36Z</time>
      </trkpt>
      <trkpt lat="42.417266" lon="0.735866">
        <ele>858.208</ele>
        <time>2018-11-24T12:20:37Z</time>
      </trkpt>
      <trkpt lat="42.417077" lon="0.735976">
        <ele>859.155</ele>
        <time>2018-11-24T12:20:38Z</time>
      </trkpt>
      <trkpt lat="42.416867" lon="0.736105">
        <ele>859.992</ele>
        <time>2018-11-24T12:20:39Z</time>
      </trkpt>
      <trkpt lat="42.416656" lon="0.736232">
        <ele>860.629</ele>
        <time>2018-11-24T12:20:40Z</time>
      </trkpt>
      <trkpt lat="42.416438" lon="0.736362">
        <ele>860.650</ele>
        <time>2018-11-24T12:20:41Z</time>
      </trkpt>
      <trkpt lat="42.416226" lon="0.736485">
        <ele>860.418</ele>
        <time>2018-11-24T12:20:42Z</time>
      </trkpt>
      <trkpt lat="42.416011" lon="0.736618">
        <ele>860.540</ele>
        <time>2018-11-24T12:20:43Z</time>
      </trkpt>
      <trkpt lat="42.415791" lon="0.736771">
        <ele>860.893</ele>
        <time>2018-11-24T12:20:44Z</time>
      </trkpt>
      <trkpt lat="42.415573" lon="0.736938">
        <ele>861.027</ele>
        <time>2018-11-24T12:20:45Z</time>
      </trkpt>
      <trkpt lat="42.415359" lon="0.737109">
        <ele>860.898</ele>
        <time>2018-11-24T12:20:46Z</time>
      </trkpt>
      <trkpt lat="42.415150" lon="0.737273">
        <ele>860.315</ele>
        <time>2018-11-24T12:20:47Z</time>
      </trkpt>
      <trkpt lat="42.414938" lon="0.737416">
        <ele>859.926</ele>
        <time>2018-11-24T12:20:48Z</time>
      </trkpt>
      <trkpt lat="42.414721" lon="0.737521">
        <ele>859.308</ele>
        <time>2018-11-24T12:20:49Z</time>
      </trkpt>
      <trkpt lat="42.414497" lon="0.737592">
        <ele>858.632</ele>
        <time>2018-11-24T12:20:50Z</time>
      </trkpt>
      <trkpt lat="42.414275" lon="0.737659">
        <ele>858.379</ele>
        <time>2018-11-24T12:20:51Z</time>
      </trkpt>
      <trkpt lat="42.414073" lon="0.737728">
        <ele>857.626</ele>
        <time>2018-11-24T12:20:52Z</time>
      </trkpt>
      <trkpt lat="42.413884" lon="0.737810">
        <ele>856.937</ele>
        <time>2018-11-24T12:20:53Z</time>
      </trkpt>
      <trkpt lat="42.413698" lon="0.737932">
        <ele>856.875</ele>
        <time>2018-11-24T12:20:54Z</time>
      </trkpt>
      <trkpt lat="42.413523" lon="0.738098">
        <ele>856.787</ele>
        <time>2018-11-24T12:20:55Z</time>
      </trkpt>
      <trkpt lat="42.413368" lon="0.738257">
        <ele>856.250</ele>
        <time>2018-11-24T12:20:56Z</time>
      </trkpt>
      <trkpt lat="42.413245" lon="0.738415">
        <ele>855.434</ele>
        <time>2018-11-24T12:20:57Z</time>
      </trkpt>
      <trkpt lat="42.413143" lon="0.738575">
        <ele>854.915</ele>
        <time>2018-11-24T12:20:58Z</time>
      </trkpt>
      <trkpt lat="42.413067" lon="0.738758">
        <ele>854.665</ele>
        <time>2018-11-24T12:20:59Z</time>
      </trkpt>
      <trkpt lat="42.413016" lon="0.738936">
        <ele>854.511</ele>
        <time>2018-11-24T12:21:00Z</time>
      </trkpt>
      <trkpt lat="42.412995" lon="0.739124">
        <ele>854.608</ele>
        <time>2018-11-24T12:21:01Z</time>
      </trkpt>
      <trkpt lat="42.412973" lon="0.739311">
        <ele>854.484</ele>
        <time>2018-11-24T12:21:02Z</time>
      </trkpt>
      <trkpt lat="42.412957" lon="0.739486">
        <ele>854.111</ele>
        <time>2018-11-24T12:21:03Z</time>
      </trkpt>
      <trkpt lat="42.412910" lon="0.739645">
        <ele>854.038</ele>
        <time>2018-11-24T12:21:04Z</time>
      </trkpt>
      <trkpt lat="42.412838" lon="0.739778">
        <ele>853.919</ele>
        <time>2018-11-24T12:21:05Z</time>
      </trkpt>
      <trkpt lat="42.412745" lon="0.739882">
        <ele>854.137</ele>
        <time>2018-11-24T12:21:06Z</time>
      </trkpt>
      <trkpt lat="42.412639" lon="0.739958">
        <ele>854.369</ele>
        <time>2018-11-24T12:21:07Z</time>
      </trkpt>
      <trkpt lat="42.412518" lon="0.740002">
        <ele>854.622</ele>
        <time>2018-11-24T12:21:08Z</time>
      </trkpt>
      <trkpt lat="42.412389" lon="0.740035">
        <ele>855.296</ele>
        <time>2018-11-24T12:21:09Z</time>
      </trkpt>
      <trkpt lat="42.412260" lon="0.740061">
        <ele>855.318</ele>
        <time>2018-11-24T12:21:10Z</time>
      </trkpt>
      <trkpt lat="42.412132" lon="0.740090">
        <ele>855.498</ele>
        <time>2018-11-24T12:21:11Z</time>
      </trkpt>
      <trkpt lat="42.412006" lon="0.740116">
        <ele>855.417</ele>
        <time>2018-11-24T12:21:12Z</time>
      </trkpt>
      <trkpt lat="42.411892" lon="0.740144">
        <ele>855.308</ele>
        <time>2018-11-24T12:21:13Z</time>
      </trkpt>
      <trkpt lat="42.411777" lon="0.740163">
        <ele>855.244</ele>
        <time>2018-11-24T12:21:14Z</time>
      </trkpt>
      <trkpt lat="42.411661" lon="0.740185">
        <ele>855.071</ele>
        <time>2018-11-24T12:21:15Z</time>
      </trkpt>
      <trkpt lat="42.411549" lon="0.740211">
        <ele>854.818</ele>
        <time>2018-11-24T12:21:16Z</time>
      </trkpt>
      <trkpt lat="42.411429" lon="0.740231">
        <ele>854.489</ele>
        <time>2018-11-24T12:21:17Z</time>
      </trkpt>
      <trkpt lat="42.411313" lon="0.740245">
        <ele>853.967</ele>
        <time>2018-11-24T12:21:18Z</time>
      </trkpt>
      <trkpt lat="42.411195" lon="0.740260">
        <ele>853.399</ele>
        <time>2018-11-24T12:21:19Z</time>
      </trkpt>
      <trkpt lat="42.411086" lon="0.740284">
        <ele>852.962</ele>
        <time>2018-11-24T12:21:20Z</time>
      </trkpt>
      <trkpt lat="42.410980" lon="0.740310">
        <ele>852.316</ele>
        <time>2018-11-24T12:21:21Z</time>
      </trkpt>
      <trkpt lat="42.410884" lon="0.740327">
        <ele>852.041</ele>
        <time>2018-11-24T12:21:22Z</time>
      </trkpt>
      <trkpt lat="42.410790" lon="0.740349">
        <ele>851.481</ele>
        <time>2018-11-24T12:21:23Z</time>
      </trkpt>
      <trkpt lat="42.410693" lon="0.740364">
        <ele>851.109</ele>
        <time>2018-11-24T12:21:24Z</time>
      </trkpt>
      <trkpt lat="42.410609" lon="0.740374">
        <ele>851.008</ele>
        <time>2018-11-24T12:21:25Z</time>
      </trkpt>
      <trkpt lat="42.410526" lon="0.740378">
        <ele>850.797</ele>
        <time>2018-11-24T12:21:26Z</time>
      </trkpt>
      <trkpt lat="42.410441" lon="0.740392">
        <ele>850.574</ele>
        <time>2018-11-24T12:21:27Z</time>
      </trkpt>
      <trkpt lat="42.410355" lon="0.740408">
        <ele>850.471</ele>
        <time>2018-11-24T12:21:28Z</time>
      </trkpt>
      <trkpt lat="42.410274" lon="0.740423">
        <ele>850.232</ele>
        <time>2018-11-24T12:21:29Z</time>
      </trkpt>
      <trkpt lat="42.410191" lon="0.740437">
        <ele>850.130</ele>
        <time>2018-11-24T12:21:30Z</time>
      </trkpt>
      <trkpt lat="42.410114" lon="0.740456">
        <ele>849.862</ele>
        <time>2018-11-24T12:21:31Z</time>
      </trkpt>
      <trkpt lat="42.410027" lon="0.740479">
        <ele>849.815</ele>
        <time>2018-11-24T12:21:32Z</time>
      </trkpt>
      <trkpt lat="42.409946" lon="0.740507">
        <ele>849.769</ele>
        <time>2018-11-24T12:21:33Z</time>
      </trkpt>
      <trkpt lat="42.409865" lon="0.740532">
        <ele>849.897</ele>
        <time>2018-11-24T12:21:34Z</time>
      </trkpt>
      <trkpt lat="42.409778" lon="0.740566">
        <ele>849.823</ele>
        <time>2018-11-24T12:21:35Z</time>
      </trkpt>
      <trkpt lat="42.409683" lon="0.740619">
        <ele>849.725</ele>
        <time>2018-11-24T12:21:36Z</time>
      </trkpt>
      <trkpt lat="42.409593" lon="0.740687">
        <ele>849.508</ele>
        <time>2018-11-24T12:21:37Z</time>
      </trkpt>
      <trkpt lat="42.409502" lon="0.740762">
        <ele>849.542</ele>
        <time>2018-11-24T12:21:38Z</time>
      </trkpt>
      <trkpt lat="42.409419" lon="0.740835">
        <ele>849.229</ele>
        <time>2018-11-24T12:21:39Z</time>
      </trkpt>
      <trkpt lat="42.409337" lon="0.740908">
        <ele>849.186</ele>
        <time>2018-11-24T12:21:40Z</time>
      </trkpt>
      <trkpt lat="42.409256" lon="0.740979">
        <ele>848.957</ele>
        <time>2018-11-24T12:21:41Z</time>
      </trkpt>
      <trkpt lat="42.409175" lon="0.741047">
        <ele>848.875</ele>
        <time>2018-11-24T12:21:42Z</time>
      </trkpt>
      <trkpt lat="42.409103" lon="0.741121">
        <ele>848.597</ele>
        <time>2018-11-24T12:21:43Z</time>
      </trkpt>
      <trkpt lat="42.409038" lon="0.741180">
        <ele>848.420</ele>
        <time>2018-11-24T12:21:44Z</time>
      </trkpt>
      <trkpt lat="42.408971" lon="0.741237">
        <ele>848.224</ele>
        <time>2018-11-24T12:21:45Z</time>
      </trkpt>
      <trkpt lat="42.408913" lon="0.741306">
        <ele>848.141</ele>
        <time>2018-11-24T12:21:46Z</time>
      </trkpt>
      <trkpt lat="42.408854" lon="0.741363">
        <ele>848.081</ele>
        <time>2018-11-24T12:21:47Z</time>
      </trkpt>
      <trkpt lat="42.408796" lon="0.741419">
        <ele>847.909</ele>
        <time>2018-11-24T12:21:48Z</time>
      </trkpt>
      <trkpt lat="42.408739" lon="0.741466">
        <ele>847.708</ele>
        <time>2018-11-24T12:21:49Z</time>
      </trkpt>
      <trkpt lat="42.408690" lon="0.741515">
        <ele>847.517</ele>
        <time>2018-11-24T12:21:50Z</time>
      </trkpt>
      <trkpt lat="42.408656" lon="0.741557">
        <ele>847.284</ele>
        <time>2018-11-24T12:21:51Z</time>
      </trkpt>
      <trkpt lat="42.408579" lon="0.741578">
        <ele>847.251</ele>
        <time>2018-11-24T12:22:08Z</time>
      </trkpt>
      <trkpt lat="42.408527" lon="0.741627">
        <ele>847.392</ele>
        <time>2018-11-24T12:22:09Z</time>
      </trkpt>
      <trkpt lat="42.408456" lon="0.741715">
        <ele>847.020</ele>
        <time>2018-11-24T12:22:11Z</time>
      </trkpt>
      <trkpt lat="42.408402" lon="0.741763">
        <ele>846.712</ele>
        <time>2018-11-24T12:22:12Z</time>
      </trkpt>
      <trkpt lat="42.408348" lon="0.741822">
        <ele>846.485</ele>
        <time>2018-11-24T12:22:13Z</time>
      </trkpt>
      <trkpt lat="42.408287" lon="0.741891">
        <ele>846.029</ele>
        <time>2018-11-24T12:22:14Z</time>
      </trkpt>
      <trkpt lat="42.408225" lon="0.741954">
        <ele>845.371</ele>
        <time>2018-11-24T12:22:15Z</time>
      </trkpt>
      <trkpt lat="42.408160" lon="0.742015">
        <ele>844.741</ele>
        <time>2018-11-24T12:22:16Z</time>
      </trkpt>
      <trkpt lat="42.408100" lon="0.742085">
        <ele>844.115</ele>
        <time>2018-11-24T12:22:17Z</time>
      </trkpt>
      <trkpt lat="42.408046" lon="0.742163">
        <ele>843.508</ele>
        <time>2018-11-24T12:22:18Z</time>
      </trkpt>
      <trkpt lat="42.407989" lon="0.742236">
        <ele>843.070</ele>
        <time>2018-11-24T12:22:19Z</time>
      </trkpt>
      <trkpt lat="42.407936" lon="0.742303">
        <ele>842.357</ele>
        <time>2018-11-24T12:22:20Z</time>
      </trkpt>
      <trkpt lat="42.407857" lon="0.742367">
        <ele>841.844</ele>
        <time>2018-11-24T12:22:21Z</time>
      </trkpt>
      <trkpt lat="42.407793" lon="0.742431">
        <ele>841.585</ele>
        <time>2018-11-24T12:22:22Z</time>
      </trkpt>
      <trkpt lat="42.407722" lon="0.742486">
        <ele>841.163</ele>
        <time>2018-11-24T12:22:23Z</time>
      </trkpt>
      <trkpt lat="42.407636" lon="0.742560">
        <ele>840.855</ele>
        <time>2018-11-24T12:22:24Z</time>
      </trkpt>
      <trkpt lat="42.407555" lon="0.742622">
        <ele>840.588</ele>
        <time>2018-11-24T12:22:25Z</time>
      </trkpt>
      <trkpt lat="42.407475" lon="0.742683">
        <ele>840.312</ele>
        <time>2018-11-24T12:22:26Z</time>
      </trkpt>
      <trkpt lat="42.407365" lon="0.742699">
        <ele>840.475</ele>
        <time>2018-11-24T12:22:27Z</time>
      </trkpt>
      <trkpt lat="42.407251" lon="0.742686">
        <ele>840.628</ele>
        <time>2018-11-24T12:22:28Z</time>
      </trkpt>
      <trkpt lat="42.407139" lon="0.742654">
        <ele>840.720</ele>
        <time>2018-11-24T12:22:29Z</time>
      </trkpt>
      <trkpt lat="42.407029" lon="0.742607">
        <ele>840.908</ele>
        <time>2018-11-24T12:22:30Z</time>
      </trkpt>
      <trkpt lat="42.406914" lon="0.742561">
        <ele>841.060</ele>
        <time>2018-11-24T12:22:31Z</time>
      </trkpt>
      <trkpt lat="42.406801" lon="0.742516">
        <ele>841.047</ele>
        <time>2018-11-24T12:22:32Z</time>
      </trkpt>
      <trkpt lat="42.406701" lon="0.742468">
        <ele>840.884</ele>
        <time>2018-11-24T12:22:33Z</time>
      </trkpt>
      <trkpt lat="42.406612" lon="0.742428">
        <ele>840.435</ele>
        <time>2018-11-24T12:22:34Z</time>
      </trkpt>
      <trkpt lat="42.406540" lon="0.742406">
        <ele>839.913</ele>
        <time>2018-11-24T12:22:35Z</time>
      </trkpt>
      <trkpt lat="42.406504" lon="0.742319">
        <ele>839.875</ele>
        <time>2018-11-24T12:23:01Z</time>
      </trkpt>
      <trkpt lat="42.406462" lon="0.742275">
        <ele>840.048</ele>
        <time>2018-11-24T12:23:02Z</time>
      </trkpt>
      <trkpt lat="42.406412" lon="0.742241">
        <ele>840.212</ele>
        <time>2018-11-24T12:23:03Z</time>
      </trkpt>
      <trkpt lat="42.406346" lon="0.742216">
        <ele>840.218</ele>
        <time>2018-11-24T12:23:04Z</time>
      </trkpt>
      <trkpt lat="42.406270" lon="0.742181">
        <ele>840.398</ele>
        <time>2018-11-24T12:23:05Z</time>
      </trkpt>
      <trkpt lat="42.406175" lon="0.742143">
        <ele>840.717</ele>
        <time>2018-11-24T12:23:06Z</time>
      </trkpt>
      <trkpt lat="42.406065" lon="0.742118">
        <ele>840.708</ele>
        <time>2018-11-24T12:23:07Z</time>
      </trkpt>
      <trkpt lat="42.405950" lon="0.742114">
        <ele>840.624</ele>
        <time>2018-11-24T12:23:08Z</time>
      </trkpt>
      <trkpt lat="42.405827" lon="0.742118">
        <ele>840.451</ele>
        <time>2018-11-24T12:23:09Z</time>
      </trkpt>
      <trkpt lat="42.405689" lon="0.742150">
        <ele>840.228</ele>
        <time>2018-11-24T12:23:10Z</time>
      </trkpt>
      <trkpt lat="42.405539" lon="0.742191">
        <ele>840.129</ele>
        <time>2018-11-24T12:23:11Z</time>
      </trkpt>
      <trkpt lat="42.405380" lon="0.742234">
        <ele>839.857</ele>
        <time>2018-11-24T12:23:12Z</time>
      </trkpt>
      <trkpt lat="42.405225" lon="0.742276">
        <ele>839.259</ele>
        <time>2018-11-24T12:23:13Z</time>
      </trkpt>
      <trkpt lat="42.405067" lon="0.742318">
        <ele>838.842</ele>
        <time>2018-11-24T12:23:14Z</time>
      </trkpt>
      <trkpt lat="42.404906" lon="0.742345">
        <ele>838.386</ele>
        <time>2018-11-24T12:23:15Z</time>
      </trkpt>
      <trkpt lat="42.404746" lon="0.742332">
        <ele>838.094</ele>
        <time>2018-11-24T12:23:16Z</time>
      </trkpt>
      <trkpt lat="42.404580" lon="0.742291">
        <ele>837.957</ele>
        <time>2018-11-24T12:23:17Z</time>
      </trkpt>
      <trkpt lat="42.404410" lon="0.742238">
        <ele>838.122</ele>
        <time>2018-11-24T12:23:18Z</time>
      </trkpt>
      <trkpt lat="42.404235" lon="0.742182">
        <ele>838.208</ele>
        <time>2018-11-24T12:23:19Z</time>
      </trkpt>
      <trkpt lat="42.404059" lon="0.742133">
        <ele>838.552</ele>
        <time>2018-11-24T12:23:20Z</time>
      </trkpt>
      <trkpt lat="42.403879" lon="0.742106">
        <ele>838.669</ele>
        <time>2018-11-24T12:23:21Z</time>
      </trkpt>
      <trkpt lat="42.403697" lon="0.742103">
        <ele>838.626</ele>
        <time>2018-11-24T12:23:22Z</time>
      </trkpt>
      <trkpt lat="42.403508" lon="0.742113">
        <ele>838.837</ele>
        <time>2018-11-24T12:23:23Z</time>
      </trkpt>
      <trkpt lat="42.403310" lon="0.742132">
        <ele>839.145</ele>
        <time>2018-11-24T12:23:24Z</time>
      </trkpt>
      <trkpt lat="42.403104" lon="0.742153">
        <ele>839.427</ele>
        <time>2018-11-24T12:23:25Z</time>
      </trkpt>
      <trkpt lat="42.402895" lon="0.742177">
        <ele>839.390</ele>
        <time>2018-11-24T12:23:26Z</time>
      </trkpt>
      <trkpt lat="42.402686" lon="0.742201">
        <ele>838.724</ele>
        <time>2018-11-24T12:23:27Z</time>
      </trkpt>
      <trkpt lat="42.402475" lon="0.742224">
        <ele>838.138</ele>
        <time>2018-11-24T12:23:28Z</time>
      </trkpt>
      <trkpt lat="42.402259" lon="0.742245">
        <ele>837.170</ele>
        <time>2018-11-24T12:23:29Z</time>
      </trkpt>
      <trkpt lat="42.402046" lon="0.742268">
        <ele>836.017</ele>
        <time>2018-11-24T12:23:30Z</time>
      </trkpt>
      <trkpt lat="42.401849" lon="0.742286">
        <ele>834.308</ele>
        <time>2018-11-24T12:23:31Z</time>
      </trkpt>
      <trkpt lat="42.401669" lon="0.742293">
        <ele>832.616</ele>
        <time>2018-11-24T12:23:32Z</time>
      </trkpt>
      <trkpt lat="42.401490" lon="0.742305">
        <ele>831.233</ele>
        <time>2018-11-24T12:23:33Z</time>
      </trkpt>
      <trkpt lat="42.401316" lon="0.742262">
        <ele>830.670</ele>
        <time>2018-11-24T12:23:34Z</time>
      </trkpt>
      <trkpt lat="42.401173" lon="0.742131">
        <ele>830.231</ele>
        <time>2018-11-24T12:23:35Z</time>
      </trkpt>
      <trkpt lat="42.401043" lon="0.741961">
        <ele>830.369</ele>
        <time>2018-11-24T12:23:36Z</time>
      </trkpt>
      <trkpt lat="42.400933" lon="0.741748">
        <ele>830.581</ele>
        <time>2018-11-24T12:23:37Z</time>
      </trkpt>
      <trkpt lat="42.400820" lon="0.741517">
        <ele>830.694</ele>
        <time>2018-11-24T12:23:38Z</time>
      </trkpt>
      <trkpt lat="42.400709" lon="0.741284">
        <ele>831.118</ele>
        <time>2018-11-24T12:23:39Z</time>
      </trkpt>
      <trkpt lat="42.400595" lon="0.741054">
        <ele>831.147</ele>
        <time>2018-11-24T12:23:40Z</time>
      </trkpt>
      <trkpt lat="42.400491" lon="0.740840">
        <ele>830.829</ele>
        <time>2018-11-24T12:23:41Z</time>
      </trkpt>
      <trkpt lat="42.400401" lon="0.740657">
        <ele>830.121</ele>
        <time>2018-11-24T12:23:42Z</time>
      </trkpt>
      <trkpt lat="42.400318" lon="0.740498">
        <ele>829.408</ele>
        <time>2018-11-24T12:23:43Z</time>
      </trkpt>
      <trkpt lat="42.400219" lon="0.740370">
        <ele>829.457</ele>
        <time>2018-11-24T12:23:44Z</time>
      </trkpt>
      <trkpt lat="42.400088" lon="0.740289">
        <ele>829.854</ele>
        <time>2018-11-24T12:23:45Z</time>
      </trkpt>
      <trkpt lat="42.399939" lon="0.740261">
        <ele>830.161</ele>
        <time>2018-11-24T12:23:46Z</time>
      </trkpt>
      <trkpt lat="42.399784" lon="0.740241">
        <ele>830.652</ele>
        <time>2018-11-24T12:23:47Z</time>
      </trkpt>
      <trkpt lat="42.399611" lon="0.740279">
        <ele>831.120</ele>
        <time>2018-11-24T12:23:48Z</time>
      </trkpt>
      <trkpt lat="42.399421" lon="0.740315">
        <ele>831.462</ele>
        <time>2018-11-24T12:23:49Z</time>
      </trkpt>
      <trkpt lat="42.399211" lon="0.740336">
        <ele>831.785</ele>
        <time>2018-11-24T12:23:50Z</time>
      </trkpt>
      <trkpt lat="42.398992" lon="0.740373">
        <ele>831.659</ele>
        <time>2018-11-24T12:23:51Z</time>
      </trkpt>
      <trkpt lat="42.398781" lon="0.740410">
        <ele>831.235</ele>
        <time>2018-11-24T12:23:52Z</time>
      </trkpt>
      <trkpt lat="42.398582" lon="0.740442">
        <ele>830.886</ele>
        <time>2018-11-24T12:23:53Z</time>
      </trkpt>
      <trkpt lat="42.398381" lon="0.740485">
        <ele>830.314</ele>
        <time>2018-11-24T12:23:54Z</time>
      </trkpt>
      <trkpt lat="42.398189" lon="0.740568">
        <ele>830.008</ele>
        <time>2018-11-24T12:23:55Z</time>
      </trkpt>
      <trkpt lat="42.398011" lon="0.740705">
        <ele>829.796</ele>
        <time>2018-11-24T12:23:56Z</time>
      </trkpt>
      <trkpt lat="42.397835" lon="0.740874">
        <ele>829.713</ele>
        <time>2018-11-24T12:23:57Z</time>
      </trkpt>
      <trkpt lat="42.397673" lon="0.741085">
        <ele>829.940</ele>
        <time>2018-11-24T12:23:58Z</time>
      </trkpt>
      <trkpt lat="42.397519" lon="0.741281">
        <ele>829.791</ele>
        <time>2018-11-24T12:23:59Z</time>
      </trkpt>
      <trkpt lat="42.397391" lon="0.741439">
        <ele>829.079</ele>
        <time>2018-11-24T12:24:00Z</time>
      </trkpt>
      <trkpt lat="42.397260" lon="0.741593">
        <ele>828.571</ele>
        <time>2018-11-24T12:24:01Z</time>
      </trkpt>
      <trkpt lat="42.397121" lon="0.741727">
        <ele>828.524</ele>
        <time>2018-11-24T12:24:02Z</time>
      </trkpt>
      <trkpt lat="42.396958" lon="0.741835">
        <ele>829.158</ele>
        <time>2018-11-24T12:24:03Z</time>
      </trkpt>
      <trkpt lat="42.396752" lon="0.741860">
        <ele>829.833</ele>
        <time>2018-11-24T12:24:04Z</time>
      </trkpt>
      <trkpt lat="42.396532" lon="0.741828">
        <ele>830.523</ele>
        <time>2018-11-24T12:24:05Z</time>
      </trkpt>
      <trkpt lat="42.396338" lon="0.741744">
        <ele>831.315</ele>
        <time>2018-11-24T12:24:06Z</time>
      </trkpt>
      <trkpt lat="42.396141" lon="0.741643">
        <ele>832.308</ele>
        <time>2018-11-24T12:24:07Z</time>
      </trkpt>
      <trkpt lat="42.395926" lon="0.741549">
        <ele>833.166</ele>
        <time>2018-11-24T12:24:08Z</time>
      </trkpt>
      <trkpt lat="42.395707" lon="0.741452">
        <ele>833.853</ele>
        <time>2018-11-24T12:24:09Z</time>
      </trkpt>
      <trkpt lat="42.395499" lon="0.741337">
        <ele>834.930</ele>
        <time>2018-11-24T12:24:10Z</time>
      </trkpt>
      <trkpt lat="42.395289" lon="0.741189">
        <ele>835.631</ele>
        <time>2018-11-24T12:24:11Z</time>
      </trkpt>
      <trkpt lat="42.395082" lon="0.741030">
        <ele>835.679</ele>
        <time>2018-11-24T12:24:12Z</time>
      </trkpt>
      <trkpt lat="42.394881" lon="0.740882">
        <ele>835.531</ele>
        <time>2018-11-24T12:24:13Z</time>
      </trkpt>
      <trkpt lat="42.394689" lon="0.740740">
        <ele>835.174</ele>
        <time>2018-11-24T12:24:14Z</time>
      </trkpt>
      <trkpt lat="42.394491" lon="0.740634">
        <ele>834.928</ele>
        <time>2018-11-24T12:24:15Z</time>
      </trkpt>
      <trkpt lat="42.394265" lon="0.740603">
        <ele>834.875</ele>
        <time>2018-11-24T12:24:16Z</time>
      </trkpt>
      <trkpt lat="42.394045" lon="0.740624">
        <ele>834.928</ele>
        <time>2018-11-24T12:24:17Z</time>
      </trkpt>
      <trkpt lat="42.393822" lon="0.740671">
        <ele>834.820</ele>
        <time>2018-11-24T12:24:18Z</time>
      </trkpt>
      <trkpt lat="42.393606" lon="0.740783">
        <ele>834.508</ele>
        <time>2018-11-24T12:24:19Z</time>
      </trkpt>
      <trkpt lat="42.393409" lon="0.740969">
        <ele>834.430</ele>
        <time>2018-11-24T12:24:20Z</time>
      </trkpt>
      <trkpt lat="42.393203" lon="0.741145">
        <ele>834.477</ele>
        <time>2018-11-24T12:24:21Z</time>
      </trkpt>
      <trkpt lat="42.393003" lon="0.741307">
        <ele>834.044</ele>
        <time>2018-11-24T12:24:22Z</time>
      </trkpt>
      <trkpt lat="42.392791" lon="0.741435">
        <ele>833.575</ele>
        <time>2018-11-24T12:24:23Z</time>
      </trkpt>
      <trkpt lat="42.392573" lon="0.741554">
        <ele>833.233</ele>
        <time>2018-11-24T12:24:24Z</time>
      </trkpt>
      <trkpt lat="42.392331" lon="0.741622">
        <ele>833.165</ele>
        <time>2018-11-24T12:24:25Z</time>
      </trkpt>
      <trkpt lat="42.392077" lon="0.741655">
        <ele>832.548</ele>
        <time>2018-11-24T12:24:26Z</time>
      </trkpt>
      <trkpt lat="42.391812" lon="0.741695">
        <ele>832.212</ele>
        <time>2018-11-24T12:24:27Z</time>
      </trkpt>
      <trkpt lat="42.391531" lon="0.741750">
        <ele>832.193</ele>
        <time>2018-11-24T12:24:28Z</time>
      </trkpt>
      <trkpt lat="42.391247" lon="0.741802">
        <ele>831.865</ele>
        <time>2018-11-24T12:24:29Z</time>
      </trkpt>
      <trkpt lat="42.390951" lon="0.741854">
        <ele>831.721</ele>
        <time>2018-11-24T12:24:30Z</time>
      </trkpt>
      <trkpt lat="42.390669" lon="0.741901">
        <ele>831.108</ele>
        <time>2018-11-24T12:24:31Z</time>
      </trkpt>
      <trkpt lat="42.390425" lon="0.741956">
        <ele>829.562</ele>
        <time>2018-11-24T12:24:32Z</time>
      </trkpt>
      <trkpt lat="42.390222" lon="0.741985">
        <ele>828.169</ele>
        <time>2018-11-24T12:24:33Z</time>
      </trkpt>
      <trkpt lat="42.390047" lon="0.742012">
        <ele>826.726</ele>
        <time>2018-11-24T12:24:34Z</time>
      </trkpt>
      <trkpt lat="42.389874" lon="0.742010">
        <ele>826.377</ele>
        <time>2018-11-24T12:24:35Z</time>
      </trkpt>
      <trkpt lat="42.389712" lon="0.741979">
        <ele>826.315</ele>
        <time>2018-11-24T12:24:36Z</time>
      </trkpt>
      <trkpt lat="42.389558" lon="0.741848">
        <ele>826.487</ele>
        <time>2018-11-24T12:24:37Z</time>
      </trkpt>
      <trkpt lat="42.389449" lon="0.741601">
        <ele>826.820</ele>
        <time>2018-11-24T12:24:38Z</time>
      </trkpt>
      <trkpt lat="42.389328" lon="0.741346">
        <ele>827.114</ele>
        <time>2018-11-24T12:24:39Z</time>
      </trkpt>
      <trkpt lat="42.389193" lon="0.741104">
        <ele>827.822</ele>
        <time>2018-11-24T12:24:40Z</time>
      </trkpt>
      <trkpt lat="42.389061" lon="0.740882">
        <ele>828.662</ele>
        <time>2018-11-24T12:24:41Z</time>
      </trkpt>
      <trkpt lat="42.388899" lon="0.740678">
        <ele>829.708</ele>
        <time>2018-11-24T12:24:42Z</time>
      </trkpt>
      <trkpt lat="42.388721" lon="0.740505">
        <ele>830.908</ele>
        <time>2018-11-24T12:24:43Z</time>
      </trkpt>
      <trkpt lat="42.388519" lon="0.740375">
        <ele>832.275</ele>
        <time>2018-11-24T12:24:44Z</time>
      </trkpt>
      <trkpt lat="42.388322" lon="0.740253">
        <ele>832.932</ele>
        <time>2018-11-24T12:24:45Z</time>
      </trkpt>
      <trkpt lat="42.388126" lon="0.740140">
        <ele>833.679</ele>
        <time>2018-11-24T12:24:46Z</time>
      </trkpt>
      <trkpt lat="42.387929" lon="0.740087">
        <ele>834.290</ele>
        <time>2018-11-24T12:24:47Z</time>
      </trkpt>
      <trkpt lat="42.387727" lon="0.740127">
        <ele>835.098</ele>
        <time>2018-11-24T12:24:48Z</time>
      </trkpt>
      <trkpt lat="42.387532" lon="0.740204">
        <ele>835.890</ele>
        <time>2018-11-24T12:24:49Z</time>
      </trkpt>
      <trkpt lat="42.387343" lon="0.740347">
        <ele>837.373</ele>
        <time>2018-11-24T12:24:50Z</time>
      </trkpt>
      <trkpt lat="42.387142" lon="0.740491">
        <ele>839.087</ele>
        <time>2018-11-24T12:24:51Z</time>
      </trkpt>
      <trkpt lat="42.386953" lon="0.740632">
        <ele>840.211</ele>
        <time>2018-11-24T12:24:52Z</time>
      </trkpt>
      <trkpt lat="42.386778" lon="0.740775">
        <ele>841.121</ele>
        <time>2018-11-24T12:24:53Z</time>
      </trkpt>
      <trkpt lat="42.386597" lon="0.740927">
        <ele>842.003</ele>
        <time>2018-11-24T12:24:54Z</time>
      </trkpt>
      <trkpt lat="42.386412" lon="0.741114">
        <ele>842.908</ele>
        <time>2018-11-24T12:24:55Z</time>
      </trkpt>
      <trkpt lat="42.386208" lon="0.741331">
        <ele>843.444</ele>
        <time>2018-11-24T12:24:56Z</time>
      </trkpt>
      <trkpt lat="42.386050" lon="0.741543">
        <ele>843.291</ele>
        <time>2018-11-24T12:24:57Z</time>
      </trkpt>
      <trkpt lat="42.385896" lon="0.741773">
        <ele>842.918</ele>
        <time>2018-11-24T12:24:58Z</time>
      </trkpt>
      <trkpt lat="42.385770" lon="0.742011">
        <ele>842.399</ele>
        <time>2018-11-24T12:24:59Z</time>
      </trkpt>
      <trkpt lat="42.385653" lon="0.742235">
        <ele>841.237</ele>
        <time>2018-11-24T12:25:00Z</time>
      </trkpt>
      <trkpt lat="42.385501" lon="0.742410">
        <ele>840.419</ele>
        <time>2018-11-24T12:25:01Z</time>
      </trkpt>
      <trkpt lat="42.385329" lon="0.742552">
        <ele>839.312</ele>
        <time>2018-11-24T12:25:02Z</time>
      </trkpt>
      <trkpt lat="42.385139" lon="0.742620">
        <ele>838.796</ele>
        <time>2018-11-24T12:25:03Z</time>
      </trkpt>
      <trkpt lat="42.384914" lon="0.742650">
        <ele>838.311</ele>
        <time>2018-11-24T12:25:04Z</time>
      </trkpt>
      <trkpt lat="42.384670" lon="0.742649">
        <ele>837.921</ele>
        <time>2018-11-24T12:25:05Z</time>
      </trkpt>
      <trkpt lat="42.384429" lon="0.742646">
        <ele>836.903</ele>
        <time>2018-11-24T12:25:06Z</time>
      </trkpt>
      <trkpt lat="42.384186" lon="0.742630">
        <ele>835.408</ele>
        <time>2018-11-24T12:25:07Z</time>
      </trkpt>
      <trkpt lat="42.383939" lon="0.742573">
        <ele>834.444</ele>
        <time>2018-11-24T12:25:08Z</time>
      </trkpt>
      <trkpt lat="42.383711" lon="0.742504">
        <ele>832.851</ele>
        <time>2018-11-24T12:25:09Z</time>
      </trkpt>
      <trkpt lat="42.383491" lon="0.742419">
        <ele>830.018</ele>
        <time>2018-11-24T12:25:10Z</time>
      </trkpt>
      <trkpt lat="42.383285" lon="0.742337">
        <ele>828.269</ele>
        <time>2018-11-24T12:25:11Z</time>
      </trkpt>
      <trkpt lat="42.383093" lon="0.742271">
        <ele>826.767</ele>
        <time>2018-11-24T12:25:12Z</time>
      </trkpt>
      <trkpt lat="42.382882" lon="0.742247">
        <ele>825.499</ele>
        <time>2018-11-24T12:25:13Z</time>
      </trkpt>
      <trkpt lat="42.382668" lon="0.742263">
        <ele>824.662</ele>
        <time>2018-11-24T12:25:14Z</time>
      </trkpt>
      <trkpt lat="42.382466" lon="0.742346">
        <ele>823.346</ele>
        <time>2018-11-24T12:25:15Z</time>
      </trkpt>
      <trkpt lat="42.382296" lon="0.742419">
        <ele>822.235</ele>
        <time>2018-11-24T12:25:16Z</time>
      </trkpt>
      <trkpt lat="42.382143" lon="0.742480">
        <ele>821.486</ele>
        <time>2018-11-24T12:25:17Z</time>
      </trkpt>
      <trkpt lat="42.381989" lon="0.742491">
        <ele>821.414</ele>
        <time>2018-11-24T12:25:18Z</time>
      </trkpt>
      <trkpt lat="42.381838" lon="0.742395">
        <ele>821.908</ele>
        <time>2018-11-24T12:25:19Z</time>
      </trkpt>
      <trkpt lat="42.381702" lon="0.742232">
        <ele>822.476</ele>
        <time>2018-11-24T12:25:20Z</time>
      </trkpt>
      <trkpt lat="42.381542" lon="0.742036">
        <ele>823.043</ele>
        <time>2018-11-24T12:25:21Z</time>
      </trkpt>
      <trkpt lat="42.381359" lon="0.741884">
        <ele>824.240</ele>
        <time>2018-11-24T12:25:22Z</time>
      </trkpt>
      <trkpt lat="42.381157" lon="0.741773">
        <ele>825.581</ele>
        <time>2018-11-24T12:25:23Z</time>
      </trkpt>
      <trkpt lat="42.380925" lon="0.741686">
        <ele>827.239</ele>
        <time>2018-11-24T12:25:24Z</time>
      </trkpt>
      <trkpt lat="42.380694" lon="0.741592">
        <ele>828.981</ele>
        <time>2018-11-24T12:25:25Z</time>
      </trkpt>
      <trkpt lat="42.380443" lon="0.741497">
        <ele>831.094</ele>
        <time>2018-11-24T12:25:26Z</time>
      </trkpt>
      <trkpt lat="42.380199" lon="0.741419">
        <ele>832.578</ele>
        <time>2018-11-24T12:25:27Z</time>
      </trkpt>
      <trkpt lat="42.379951" lon="0.741337">
        <ele>834.417</ele>
        <time>2018-11-24T12:25:28Z</time>
      </trkpt>
      <trkpt lat="42.379709" lon="0.741268">
        <ele>835.987</ele>
        <time>2018-11-24T12:25:29Z</time>
      </trkpt>
      <trkpt lat="42.379498" lon="0.741177">
        <ele>837.115</ele>
        <time>2018-11-24T12:25:30Z</time>
      </trkpt>
      <trkpt lat="42.379285" lon="0.741101">
        <ele>838.808</ele>
        <time>2018-11-24T12:25:31Z</time>
      </trkpt>
      <trkpt lat="42.379069" lon="0.741039">
        <ele>840.174</ele>
        <time>2018-11-24T12:25:32Z</time>
      </trkpt>
      <trkpt lat="42.378856" lon="0.740977">
        <ele>842.181</ele>
        <time>2018-11-24T12:25:33Z</time>
      </trkpt>
      <trkpt lat="42.378647" lon="0.741010">
        <ele>843.888</ele>
        <time>2018-11-24T12:25:34Z</time>
      </trkpt>
      <trkpt lat="42.378436" lon="0.741089">
        <ele>845.589</ele>
        <time>2018-11-24T12:25:35Z</time>
      </trkpt>
      <trkpt lat="42.378240" lon="0.741240">
        <ele>847.087</ele>
        <time>2018-11-24T12:25:36Z</time>
      </trkpt>
      <trkpt lat="42.378047" lon="0.741387">
        <ele>848.899</ele>
        <time>2018-11-24T12:25:37Z</time>
      </trkpt>
      <trkpt lat="42.377845" lon="0.741518">
        <ele>850.382</ele>
        <time>2018-11-24T12:25:38Z</time>
      </trkpt>
      <trkpt lat="42.377632" lon="0.741599">
        <ele>852.466</ele>
        <time>2018-11-24T12:25:39Z</time>
      </trkpt>
      <trkpt lat="42.377412" lon="0.741659">
        <ele>854.458</ele>
        <time>2018-11-24T12:25:40Z</time>
      </trkpt>
      <trkpt lat="42.377184" lon="0.741728">
        <ele>856.252</ele>
        <time>2018-11-24T12:25:41Z</time>
      </trkpt>
      <trkpt lat="42.376986" lon="0.741791">
        <ele>857.717</ele>
        <time>2018-11-24T12:25:42Z</time>
      </trkpt>
      <trkpt lat="42.376816" lon="0.741841">
        <ele>858.508</ele>
        <time>2018-11-24T12:25:43Z</time>
      </trkpt>
      <trkpt lat="42.376636" lon="0.741866">
        <ele>859.238</ele>
        <time>2018-11-24T12:25:44Z</time>
      </trkpt>
      <trkpt lat="42.376475" lon="0.741843">
        <ele>860.125</ele>
        <time>2018-11-24T12:25:45Z</time>
      </trkpt>
      <trkpt lat="42.376321" lon="0.741774">
        <ele>861.792</ele>
        <time>2018-11-24T12:25:46Z</time>
      </trkpt>
      <trkpt lat="42.376161" lon="0.741618">
        <ele>863.053</ele>
        <time>2018-11-24T12:25:47Z</time>
      </trkpt>
      <trkpt lat="42.376001" lon="0.741448">
        <ele>864.361</ele>
        <time>2018-11-24T12:25:48Z</time>
      </trkpt>
      <trkpt lat="42.375828" lon="0.741303">
        <ele>865.773</ele>
        <time>2018-11-24T12:25:49Z</time>
      </trkpt>
      <trkpt lat="42.375644" lon="0.741149">
        <ele>867.036</ele>
        <time>2018-11-24T12:25:50Z</time>
      </trkpt>
      <trkpt lat="42.375430" lon="0.741030">
        <ele>868.880</ele>
        <time>2018-11-24T12:25:51Z</time>
      </trkpt>
      <trkpt lat="42.375215" lon="0.740938">
        <ele>870.337</ele>
        <time>2018-11-24T12:25:52Z</time>
      </trkpt>
      <trkpt lat="42.375000" lon="0.740854">
        <ele>871.049</ele>
        <time>2018-11-24T12:25:53Z</time>
      </trkpt>
      <trkpt lat="42.374820" lon="0.740800">
        <ele>870.913</ele>
        <time>2018-11-24T12:25:54Z</time>
      </trkpt>
      <trkpt lat="42.374645" lon="0.740762">
        <ele>870.108</ele>
        <time>2018-11-24T12:25:55Z</time>
      </trkpt>
      <trkpt lat="42.374468" lon="0.740791">
        <ele>872.566</ele>
        <time>2018-11-24T12:25:56Z</time>
      </trkpt>
      <trkpt lat="42.374275" lon="0.740831">
        <ele>874.083</ele>
        <time>2018-11-24T12:25:57Z</time>
      </trkpt>
      <trkpt lat="42.374078" lon="0.740914">
        <ele>875.540</ele>
        <time>2018-11-24T12:25:58Z</time>
      </trkpt>
      <trkpt lat="42.373872" lon="0.741019">
        <ele>876.911</ele>
        <time>2018-11-24T12:25:59Z</time>
      </trkpt>
      <trkpt lat="42.373654" lon="0.741107">
        <ele>877.639</ele>
        <time>2018-11-24T12:26:00Z</time>
      </trkpt>
      <trkpt lat="42.373430" lon="0.741126">
        <ele>878.151</ele>
        <time>2018-11-24T12:26:01Z</time>
      </trkpt>
      <trkpt lat="42.373203" lon="0.741140">
        <ele>878.574</ele>
        <time>2018-11-24T12:26:02Z</time>
      </trkpt>
      <trkpt lat="42.372986" lon="0.741135">
        <ele>878.258</ele>
        <time>2018-11-24T12:26:03Z</time>
      </trkpt>
      <trkpt lat="42.372780" lon="0.741102">
        <ele>877.358</ele>
        <time>2018-11-24T12:26:04Z</time>
      </trkpt>
      <trkpt lat="42.372587" lon="0.741078">
        <ele>877.052</ele>
        <time>2018-11-24T12:26:05Z</time>
      </trkpt>
      <trkpt lat="42.372394" lon="0.740980">
        <ele>877.317</ele>
        <time>2018-11-24T12:26:06Z</time>
      </trkpt>
      <trkpt lat="42.372200" lon="0.740837">
        <ele>877.808</ele>
        <time>2018-11-24T12:26:07Z</time>
      </trkpt>
      <trkpt lat="42.372013" lon="0.740692">
        <ele>878.248</ele>
        <time>2018-11-24T12:26:08Z</time>
      </trkpt>
      <trkpt lat="42.371829" lon="0.740502">
        <ele>878.395</ele>
        <time>2018-11-24T12:26:09Z</time>
      </trkpt>
      <trkpt lat="42.371642" lon="0.740340">
        <ele>878.662</ele>
        <time>2018-11-24T12:26:10Z</time>
      </trkpt>
      <trkpt lat="42.371435" lon="0.740200">
        <ele>878.873</ele>
        <time>2018-11-24T12:26:11Z</time>
      </trkpt>
      <trkpt lat="42.371194" lon="0.740124">
        <ele>879.081</ele>
        <time>2018-11-24T12:26:12Z</time>
      </trkpt>
      <trkpt lat="42.370972" lon="0.740087">
        <ele>878.733</ele>
        <time>2018-11-24T12:26:13Z</time>
      </trkpt>
      <trkpt lat="42.370759" lon="0.740075">
        <ele>878.256</ele>
        <time>2018-11-24T12:26:14Z</time>
      </trkpt>
      <trkpt lat="42.370562" lon="0.740066">
        <ele>878.670</ele>
        <time>2018-11-24T12:26:15Z</time>
      </trkpt>
      <trkpt lat="42.370377" lon="0.740007">
        <ele>880.195</ele>
        <time>2018-11-24T12:26:16Z</time>
      </trkpt>
      <trkpt lat="42.370191" lon="0.739935">
        <ele>881.649</ele>
        <time>2018-11-24T12:26:17Z</time>
      </trkpt>
      <trkpt lat="42.370023" lon="0.739785">
        <ele>883.423</ele>
        <time>2018-11-24T12:26:18Z</time>
      </trkpt>
      <trkpt lat="42.369858" lon="0.739595">
        <ele>885.008</ele>
        <time>2018-11-24T12:26:19Z</time>
      </trkpt>
      <trkpt lat="42.369693" lon="0.739365">
        <ele>886.682</ele>
        <time>2018-11-24T12:26:20Z</time>
      </trkpt>
      <trkpt lat="42.369535" lon="0.739159">
        <ele>887.629</ele>
        <time>2018-11-24T12:26:21Z</time>
      </trkpt>
      <trkpt lat="42.369355" lon="0.739000">
        <ele>888.886</ele>
        <time>2018-11-24T12:26:22Z</time>
      </trkpt>
      <trkpt lat="42.369176" lon="0.738838">
        <ele>889.767</ele>
        <time>2018-11-24T12:26:23Z</time>
      </trkpt>
      <trkpt lat="42.368989" lon="0.738672">
        <ele>890.745</ele>
        <time>2018-11-24T12:26:24Z</time>
      </trkpt>
      <trkpt lat="42.368790" lon="0.738522">
        <ele>891.827</ele>
        <time>2018-11-24T12:26:25Z</time>
      </trkpt>
      <trkpt lat="42.368595" lon="0.738382">
        <ele>892.150</ele>
        <time>2018-11-24T12:26:26Z</time>
      </trkpt>
      <trkpt lat="42.368404" lon="0.738253">
        <ele>892.564</ele>
        <time>2018-11-24T12:26:27Z</time>
      </trkpt>
      <trkpt lat="42.368243" lon="0.738135">
        <ele>892.596</ele>
        <time>2018-11-24T12:26:28Z</time>
      </trkpt>
      <trkpt lat="42.368101" lon="0.738003">
        <ele>892.431</ele>
        <time>2018-11-24T12:26:29Z</time>
      </trkpt>
      <trkpt lat="42.367950" lon="0.737866">
        <ele>892.724</ele>
        <time>2018-11-24T12:26:30Z</time>
      </trkpt>
      <trkpt lat="42.367834" lon="0.737647">
        <ele>893.808</ele>
        <time>2018-11-24T12:26:31Z</time>
      </trkpt>
      <trkpt lat="42.367766" lon="0.737381">
        <ele>894.612</ele>
        <time>2018-11-24T12:26:32Z</time>
      </trkpt>
      <trkpt lat="42.367697" lon="0.737102">
        <ele>895.329</ele>
        <time>2018-11-24T12:26:33Z</time>
      </trkpt>
      <trkpt lat="42.367629" lon="0.736833">
        <ele>895.886</ele>
        <time>2018-11-24T12:26:34Z</time>
      </trkpt>
      <trkpt lat="42.367565" lon="0.736568">
        <ele>896.237</ele>
        <time>2018-11-24T12:26:35Z</time>
      </trkpt>
      <trkpt lat="42.367509" lon="0.736326">
        <ele>896.445</ele>
        <time>2018-11-24T12:26:36Z</time>
      </trkpt>
      <trkpt lat="42.367485" lon="0.736110">
        <ele>896.537</ele>
        <time>2018-11-24T12:26:37Z</time>
      </trkpt>
      <trkpt lat="42.367506" lon="0.735884">
        <ele>897.210</ele>
        <time>2018-11-24T12:26:38Z</time>
      </trkpt>
      <trkpt lat="42.367563" lon="0.735648">
        <ele>897.774</ele>
        <time>2018-11-24T12:26:39Z</time>
      </trkpt>
      <trkpt lat="42.367651" lon="0.735414">
        <ele>898.186</ele>
        <time>2018-11-24T12:26:40Z</time>
      </trkpt>
      <trkpt lat="42.367743" lon="0.735189">
        <ele>896.960</ele>
        <time>2018-11-24T12:26:41Z</time>
      </trkpt>
      <trkpt lat="42.367824" lon="0.734972">
        <ele>895.526</ele>
        <time>2018-11-24T12:26:42Z</time>
      </trkpt>
      <trkpt lat="42.367866" lon="0.734743">
        <ele>894.508</ele>
        <time>2018-11-24T12:26:43Z</time>
      </trkpt>
      <trkpt lat="42.367830" lon="0.734491">
        <ele>893.211</ele>
        <time>2018-11-24T12:26:44Z</time>
      </trkpt>
      <trkpt lat="42.367787" lon="0.734250">
        <ele>891.628</ele>
        <time>2018-11-24T12:26:45Z</time>
      </trkpt>
      <trkpt lat="42.367752" lon="0.734011">
        <ele>890.395</ele>
        <time>2018-11-24T12:26:46Z</time>
      </trkpt>
      <trkpt lat="42.367722" lon="0.733759">
        <ele>888.966</ele>
        <time>2018-11-24T12:26:47Z</time>
      </trkpt>
      <trkpt lat="42.367768" lon="0.733480">
        <ele>887.934</ele>
        <time>2018-11-24T12:26:48Z</time>
      </trkpt>
      <trkpt lat="42.367836" lon="0.733225">
        <ele>886.276</ele>
        <time>2018-11-24T12:26:49Z</time>
      </trkpt>
      <trkpt lat="42.367953" lon="0.733001">
        <ele>884.889</ele>
        <time>2018-11-24T12:26:50Z</time>
      </trkpt>
      <trkpt lat="42.368066" lon="0.732775">
        <ele>883.413</ele>
        <time>2018-11-24T12:26:51Z</time>
      </trkpt>
      <trkpt lat="42.368162" lon="0.732565">
        <ele>881.463</ele>
        <time>2018-11-24T12:26:52Z</time>
      </trkpt>
      <trkpt lat="42.368247" lon="0.732362">
        <ele>880.044</ele>
        <time>2018-11-24T12:26:53Z</time>
      </trkpt>
      <trkpt lat="42.368282" lon="0.732169">
        <ele>878.518</ele>
        <time>2018-11-24T12:26:54Z</time>
      </trkpt>
      <trkpt lat="42.368291" lon="0.731962">
        <ele>877.708</ele>
        <time>2018-11-24T12:26:55Z</time>
      </trkpt>
      <trkpt lat="42.368286" lon="0.731767">
        <ele>877.069</ele>
        <time>2018-11-24T12:26:56Z</time>
      </trkpt>
      <trkpt lat="42.368168" lon="0.731624">
        <ele>876.616</ele>
        <time>2018-11-24T12:26:57Z</time>
      </trkpt>
      <trkpt lat="42.368020" lon="0.731553">
        <ele>876.513</ele>
        <time>2018-11-24T12:26:58Z</time>
      </trkpt>
      <trkpt lat="42.367881" lon="0.731561">
        <ele>876.784</ele>
        <time>2018-11-24T12:26:59Z</time>
      </trkpt>
      <trkpt lat="42.367730" lon="0.731645">
        <ele>876.812</ele>
        <time>2018-11-24T12:27:00Z</time>
      </trkpt>
      <trkpt lat="42.367599" lon="0.731787">
        <ele>877.024</ele>
        <time>2018-11-24T12:27:01Z</time>
      </trkpt>
      <trkpt lat="42.367485" lon="0.731983">
        <ele>877.347</ele>
        <time>2018-11-24T12:27:02Z</time>
      </trkpt>
      <trkpt lat="42.367337" lon="0.732180">
        <ele>877.831</ele>
        <time>2018-11-24T12:27:03Z</time>
      </trkpt>
      <trkpt lat="42.367157" lon="0.732360">
        <ele>878.423</ele>
        <time>2018-11-24T12:27:04Z</time>
      </trkpt>
      <trkpt lat="42.366995" lon="0.732562">
        <ele>879.383</ele>
        <time>2018-11-24T12:27:05Z</time>
      </trkpt>
      <trkpt lat="42.366839" lon="0.732766">
        <ele>879.711</ele>
        <time>2018-11-24T12:27:06Z</time>
      </trkpt>
      <trkpt lat="42.366676" lon="0.732966">
        <ele>879.908</ele>
        <time>2018-11-24T12:27:07Z</time>
      </trkpt>
      <trkpt lat="42.366515" lon="0.733152">
        <ele>879.795</ele>
        <time>2018-11-24T12:27:08Z</time>
      </trkpt>
      <trkpt lat="42.366351" lon="0.733286">
        <ele>879.462</ele>
        <time>2018-11-24T12:27:09Z</time>
      </trkpt>
      <trkpt lat="42.366152" lon="0.733341">
        <ele>879.799</ele>
        <time>2018-11-24T12:27:10Z</time>
      </trkpt>
      <trkpt lat="42.365971" lon="0.733351">
        <ele>879.950</ele>
        <time>2018-11-24T12:27:11Z</time>
      </trkpt>
      <trkpt lat="42.365802" lon="0.733355">
        <ele>879.738</ele>
        <time>2018-11-24T12:27:12Z</time>
      </trkpt>
      <trkpt lat="42.365669" lon="0.733366">
        <ele>879.320</ele>
        <time>2018-11-24T12:27:13Z</time>
      </trkpt>
      <trkpt lat="42.365545" lon="0.733411">
        <ele>879.153</ele>
        <time>2018-11-24T12:27:14Z</time>
      </trkpt>
      <trkpt lat="42.365443" lon="0.733517">
        <ele>879.017</ele>
        <time>2018-11-24T12:27:15Z</time>
      </trkpt>
      <trkpt lat="42.365343" lon="0.733732">
        <ele>879.228</ele>
        <time>2018-11-24T12:27:16Z</time>
      </trkpt>
      <trkpt lat="42.365361" lon="0.733927">
        <ele>879.689</ele>
        <time>2018-11-24T12:27:17Z</time>
      </trkpt>
      <trkpt lat="42.365350" lon="0.734135">
        <ele>879.917</ele>
        <time>2018-11-24T12:27:18Z</time>
      </trkpt>
      <trkpt lat="42.365332" lon="0.734380">
        <ele>879.908</ele>
        <time>2018-11-24T12:27:19Z</time>
      </trkpt>
      <trkpt lat="42.365304" lon="0.734623">
        <ele>879.975</ele>
        <time>2018-11-24T12:27:20Z</time>
      </trkpt>
      <trkpt lat="42.365230" lon="0.734848">
        <ele>879.812</ele>
        <time>2018-11-24T12:27:21Z</time>
      </trkpt>
      <trkpt lat="42.365121" lon="0.735051">
        <ele>879.889</ele>
        <time>2018-11-24T12:27:22Z</time>
      </trkpt>
      <trkpt lat="42.364997" lon="0.735255">
        <ele>880.020</ele>
        <time>2018-11-24T12:27:23Z</time>
      </trkpt>
      <trkpt lat="42.364821" lon="0.735420">
        <ele>880.398</ele>
        <time>2018-11-24T12:27:24Z</time>
      </trkpt>
      <trkpt lat="42.364599" lon="0.735578">
        <ele>880.330</ele>
        <time>2018-11-24T12:27:25Z</time>
      </trkpt>
      <trkpt lat="42.364378" lon="0.735703">
        <ele>879.673</ele>
        <time>2018-11-24T12:27:26Z</time>
      </trkpt>
      <trkpt lat="42.364187" lon="0.735825">
        <ele>878.637</ele>
        <time>2018-11-24T12:27:27Z</time>
      </trkpt>
      <trkpt lat="42.364025" lon="0.735952">
        <ele>877.493</ele>
        <time>2018-11-24T12:27:28Z</time>
      </trkpt>
      <trkpt lat="42.363865" lon="0.736091">
        <ele>876.865</ele>
        <time>2018-11-24T12:27:29Z</time>
      </trkpt>
      <trkpt lat="42.363764" lon="0.736333">
        <ele>876.521</ele>
        <time>2018-11-24T12:27:30Z</time>
      </trkpt>
      <trkpt lat="42.363711" lon="0.736587">
        <ele>876.208</ele>
        <time>2018-11-24T12:27:31Z</time>
      </trkpt>
      <trkpt lat="42.363706" lon="0.736868">
        <ele>876.342</ele>
        <time>2018-11-24T12:27:32Z</time>
      </trkpt>
      <trkpt lat="42.363717" lon="0.737174">
        <ele>876.369</ele>
        <time>2018-11-24T12:27:33Z</time>
      </trkpt>
      <trkpt lat="42.363722" lon="0.737469">
        <ele>875.526</ele>
        <time>2018-11-24T12:27:34Z</time>
      </trkpt>
      <trkpt lat="42.363698" lon="0.737737">
        <ele>874.437</ele>
        <time>2018-11-24T12:27:35Z</time>
      </trkpt>
      <trkpt lat="42.363676" lon="0.737995">
        <ele>873.645</ele>
        <time>2018-11-24T12:27:36Z</time>
      </trkpt>
      <trkpt lat="42.363580" lon="0.738231">
        <ele>873.427</ele>
        <time>2018-11-24T12:27:37Z</time>
      </trkpt>
      <trkpt lat="42.363436" lon="0.738434">
        <ele>873.670</ele>
        <time>2018-11-24T12:27:38Z</time>
      </trkpt>
      <trkpt lat="42.363262" lon="0.738630">
        <ele>873.934</ele>
        <time>2018-11-24T12:27:39Z</time>
      </trkpt>
      <trkpt lat="42.363069" lon="0.738826">
        <ele>873.677</ele>
        <time>2018-11-24T12:27:40Z</time>
      </trkpt>
      <trkpt lat="42.362872" lon="0.739015">
        <ele>873.361</ele>
        <time>2018-11-24T12:27:41Z</time>
      </trkpt>
      <trkpt lat="42.362679" lon="0.739221">
        <ele>873.027</ele>
        <time>2018-11-24T12:27:42Z</time>
      </trkpt>
      <trkpt lat="42.362513" lon="0.739436">
        <ele>873.008</ele>
        <time>2018-11-24T12:27:43Z</time>
      </trkpt>
      <trkpt lat="42.362344" lon="0.739664">
        <ele>873.150</ele>
        <time>2018-11-24T12:27:44Z</time>
      </trkpt>
      <trkpt lat="42.362207" lon="0.739942">
        <ele>873.337</ele>
        <time>2018-11-24T12:27:45Z</time>
      </trkpt>
      <trkpt lat="42.362076" lon="0.740244">
        <ele>873.984</ele>
        <time>2018-11-24T12:27:46Z</time>
      </trkpt>
      <trkpt lat="42.361997" lon="0.740578">
        <ele>873.875</ele>
        <time>2018-11-24T12:27:47Z</time>
      </trkpt>
      <trkpt lat="42.361922" lon="0.740880">
        <ele>873.383</ele>
        <time>2018-11-24T12:27:48Z</time>
      </trkpt>
      <trkpt lat="42.361864" lon="0.741149">
        <ele>872.455</ele>
        <time>2018-11-24T12:27:49Z</time>
      </trkpt>
      <trkpt lat="42.361805" lon="0.741392">
        <ele>872.078</ele>
        <time>2018-11-24T12:27:50Z</time>
      </trkpt>
      <trkpt lat="42.361672" lon="0.741593">
        <ele>871.922</ele>
        <time>2018-11-24T12:27:51Z</time>
      </trkpt>
      <trkpt lat="42.361508" lon="0.741752">
        <ele>872.378</ele>
        <time>2018-11-24T12:27:52Z</time>
      </trkpt>
      <trkpt lat="42.361327" lon="0.741843">
        <ele>872.933</ele>
        <time>2018-11-24T12:27:53Z</time>
      </trkpt>
      <trkpt lat="42.361140" lon="0.741907">
        <ele>873.526</ele>
        <time>2018-11-24T12:27:54Z</time>
      </trkpt>
      <trkpt lat="42.360954" lon="0.741971">
        <ele>873.308</ele>
        <time>2018-11-24T12:27:55Z</time>
      </trkpt>
      <trkpt lat="42.360796" lon="0.742037">
        <ele>873.260</ele>
        <time>2018-11-24T12:27:56Z</time>
      </trkpt>
      <trkpt lat="42.360650" lon="0.742096">
        <ele>873.097</ele>
        <time>2018-11-24T12:27:57Z</time>
      </trkpt>
      <trkpt lat="42.360514" lon="0.742153">
        <ele>873.174</ele>
        <time>2018-11-24T12:27:58Z</time>
      </trkpt>
      <trkpt lat="42.360382" lon="0.742209">
        <ele>873.365</ele>
        <time>2018-11-24T12:27:59Z</time>
      </trkpt>
      <trkpt lat="42.360245" lon="0.742256">
        <ele>873.843</ele>
        <time>2018-11-24T12:28:00Z</time>
      </trkpt>
      <trkpt lat="42.360110" lon="0.742269">
        <ele>874.215</ele>
        <time>2018-11-24T12:28:01Z</time>
      </trkpt>
      <trkpt lat="42.359969" lon="0.742256">
        <ele>874.588</ele>
        <time>2018-11-24T12:28:02Z</time>
      </trkpt>
      <trkpt lat="42.359834" lon="0.742174">
        <ele>875.262</ele>
        <time>2018-11-24T12:28:03Z</time>
      </trkpt>
      <trkpt lat="42.359696" lon="0.742063">
        <ele>875.885</ele>
        <time>2018-11-24T12:28:04Z</time>
      </trkpt>
      <trkpt lat="42.359598" lon="0.741868">
        <ele>876.689</ele>
        <time>2018-11-24T12:28:05Z</time>
      </trkpt>
      <trkpt lat="42.359524" lon="0.741656">
        <ele>877.017</ele>
        <time>2018-11-24T12:28:06Z</time>
      </trkpt>
      <trkpt lat="42.359451" lon="0.741451">
        <ele>877.508</ele>
        <time>2018-11-24T12:28:07Z</time>
      </trkpt>
      <trkpt lat="42.359379" lon="0.741251">
        <ele>877.561</ele>
        <time>2018-11-24T12:28:08Z</time>
      </trkpt>
      <trkpt lat="42.359313" lon="0.741055">
        <ele>877.618</ele>
        <time>2018-11-24T12:28:09Z</time>
      </trkpt>
      <trkpt lat="42.359246" lon="0.740884">
        <ele>877.495</ele>
        <time>2018-11-24T12:28:10Z</time>
      </trkpt>
      <trkpt lat="42.359150" lon="0.740750">
        <ele>877.336</ele>
        <time>2018-11-24T12:28:11Z</time>
      </trkpt>
      <trkpt lat="42.359024" lon="0.740649">
        <ele>877.484</ele>
        <time>2018-11-24T12:28:12Z</time>
      </trkpt>
      <trkpt lat="42.358887" lon="0.740595">
        <ele>877.396</ele>
        <time>2018-11-24T12:28:13Z</time>
      </trkpt>
      <trkpt lat="42.358751" lon="0.740569">
        <ele>877.369</ele>
        <time>2018-11-24T12:28:14Z</time>
      </trkpt>
      <trkpt lat="42.358604" lon="0.740642">
        <ele>877.393</ele>
        <time>2018-11-24T12:28:15Z</time>
      </trkpt>
      <trkpt lat="42.358492" lon="0.740782">
        <ele>877.421</ele>
        <time>2018-11-24T12:28:16Z</time>
      </trkpt>
      <trkpt lat="42.358379" lon="0.740945">
        <ele>877.841</ele>
        <time>2018-11-24T12:28:17Z</time>
      </trkpt>
      <trkpt lat="42.358299" lon="0.741151">
        <ele>878.105</ele>
        <time>2018-11-24T12:28:18Z</time>
      </trkpt>
      <trkpt lat="42.358308" lon="0.741398">
        <ele>878.408</ele>
        <time>2018-11-24T12:28:19Z</time>
      </trkpt>
      <trkpt lat="42.358311" lon="0.741627">
        <ele>878.535</ele>
        <time>2018-11-24T12:28:20Z</time>
      </trkpt>
      <trkpt lat="42.358321" lon="0.741853">
        <ele>878.672</ele>
        <time>2018-11-24T12:28:21Z</time>
      </trkpt>
      <trkpt lat="42.358338" lon="0.742076">
        <ele>878.539</ele>
        <time>2018-11-24T12:28:22Z</time>
      </trkpt>
      <trkpt lat="42.358350" lon="0.742273">
        <ele>878.450</ele>
        <time>2018-11-24T12:28:23Z</time>
      </trkpt>
      <trkpt lat="42.358342" lon="0.742459">
        <ele>878.338</ele>
        <time>2018-11-24T12:28:24Z</time>
      </trkpt>
      <trkpt lat="42.358307" lon="0.742640">
        <ele>878.260</ele>
        <time>2018-11-24T12:28:25Z</time>
      </trkpt>
      <trkpt lat="42.358274" lon="0.742806">
        <ele>878.263</ele>
        <time>2018-11-24T12:28:26Z</time>
      </trkpt>
      <trkpt lat="42.358178" lon="0.742917">
        <ele>878.347</ele>
        <time>2018-11-24T12:28:27Z</time>
      </trkpt>
      <trkpt lat="42.358055" lon="0.742987">
        <ele>878.626</ele>
        <time>2018-11-24T12:28:28Z</time>
      </trkpt>
      <trkpt lat="42.357895" lon="0.743002">
        <ele>878.947</ele>
        <time>2018-11-24T12:28:29Z</time>
      </trkpt>
      <trkpt lat="42.357743" lon="0.743011">
        <ele>879.011</ele>
        <time>2018-11-24T12:28:30Z</time>
      </trkpt>
      <trkpt lat="42.357596" lon="0.743030">
        <ele>879.208</ele>
        <time>2018-11-24T12:28:31Z</time>
      </trkpt>
      <trkpt lat="42.357454" lon="0.743045">
        <ele>879.465</ele>
        <time>2018-11-24T12:28:32Z</time>
      </trkpt>
      <trkpt lat="42.357345" lon="0.743139">
        <ele>879.622</ele>
        <time>2018-11-24T12:28:33Z</time>
      </trkpt>
      <trkpt lat="42.357261" lon="0.743284">
        <ele>879.899</ele>
        <time>2018-11-24T12:28:34Z</time>
      </trkpt>
      <trkpt lat="42.357192" lon="0.743450">
        <ele>880.050</ele>
        <time>2018-11-24T12:28:35Z</time>
      </trkpt>
      <trkpt lat="42.357142" lon="0.743668">
        <ele>880.568</ele>
        <time>2018-11-24T12:28:36Z</time>
      </trkpt>
      <trkpt lat="42.357091" lon="0.743900">
        <ele>881.120</ele>
        <time>2018-11-24T12:28:37Z</time>
      </trkpt>
      <trkpt lat="42.357027" lon="0.744129">
        <ele>881.313</ele>
        <time>2018-11-24T12:28:38Z</time>
      </trkpt>
      <trkpt lat="42.356950" lon="0.744341">
        <ele>881.617</ele>
        <time>2018-11-24T12:28:39Z</time>
      </trkpt>
      <trkpt lat="42.356856" lon="0.744538">
        <ele>881.924</ele>
        <time>2018-11-24T12:28:40Z</time>
      </trkpt>
      <trkpt lat="42.356749" lon="0.744728">
        <ele>882.404</ele>
        <time>2018-11-24T12:28:41Z</time>
      </trkpt>
      <trkpt lat="42.356631" lon="0.744899">
        <ele>883.114</ele>
        <time>2018-11-24T12:28:42Z</time>
      </trkpt>
      <trkpt lat="42.356513" lon="0.745059">
        <ele>883.808</ele>
        <time>2018-11-24T12:28:43Z</time>
      </trkpt>
      <trkpt lat="42.356391" lon="0.745212">
        <ele>884.555</ele>
        <time>2018-11-24T12:28:44Z</time>
      </trkpt>
      <trkpt lat="42.356260" lon="0.745352">
        <ele>885.042</ele>
        <time>2018-11-24T12:28:45Z</time>
      </trkpt>
      <trkpt lat="42.356119" lon="0.745476">
        <ele>885.629</ele>
        <time>2018-11-24T12:28:46Z</time>
      </trkpt>
      <trkpt lat="42.355966" lon="0.745583">
        <ele>886.050</ele>
        <time>2018-11-24T12:28:47Z</time>
      </trkpt>
      <trkpt lat="42.355804" lon="0.745687">
        <ele>886.668</ele>
        <time>2018-11-24T12:28:48Z</time>
      </trkpt>
      <trkpt lat="42.353986" lon="0.746512">
        <ele>883.080</ele>
        <time>2018-11-24T12:28:59Z</time>
      </trkpt>
      <trkpt lat="42.353849" lon="0.746674">
        <ele>883.723</ele>
        <time>2018-11-24T12:29:00Z</time>
      </trkpt>
      <trkpt lat="42.353706" lon="0.746817">
        <ele>884.677</ele>
        <time>2018-11-24T12:29:01Z</time>
      </trkpt>
      <trkpt lat="42.353562" lon="0.746974">
        <ele>885.412</ele>
        <time>2018-11-24T12:29:02Z</time>
      </trkpt>
      <trkpt lat="42.353418" lon="0.747064">
        <ele>886.432</ele>
        <time>2018-11-24T12:29:03Z</time>
      </trkpt>
      <trkpt lat="42.353276" lon="0.747086">
        <ele>887.505</ele>
        <time>2018-11-24T12:29:04Z</time>
      </trkpt>
      <trkpt lat="42.353117" lon="0.747038">
        <ele>888.808</ele>
        <time>2018-11-24T12:29:05Z</time>
      </trkpt>
      <trkpt lat="42.352987" lon="0.746909">
        <ele>890.194</ele>
        <time>2018-11-24T12:29:06Z</time>
      </trkpt>
      <trkpt lat="42.352884" lon="0.746720">
        <ele>891.251</ele>
        <time>2018-11-24T12:29:07Z</time>
      </trkpt>
      <trkpt lat="42.352784" lon="0.746578">
        <ele>892.188</ele>
        <time>2018-11-24T12:29:08Z</time>
      </trkpt>
      <trkpt lat="42.352662" lon="0.746466">
        <ele>892.829</ele>
        <time>2018-11-24T12:29:09Z</time>
      </trkpt>
      <trkpt lat="42.352530" lon="0.746396">
        <ele>893.727</ele>
        <time>2018-11-24T12:29:10Z</time>
      </trkpt>
      <trkpt lat="42.352419" lon="0.746388">
        <ele>894.529</ele>
        <time>2018-11-24T12:29:11Z</time>
      </trkpt>
      <trkpt lat="42.352281" lon="0.746451">
        <ele>895.542</ele>
        <time>2018-11-24T12:29:12Z</time>
      </trkpt>
      <trkpt lat="42.352126" lon="0.746596">
        <ele>896.666</ele>
        <time>2018-11-24T12:29:13Z</time>
      </trkpt>
      <trkpt lat="42.351986" lon="0.746715">
        <ele>897.443</ele>
        <time>2018-11-24T12:29:14Z</time>
      </trkpt>
      <trkpt lat="42.351847" lon="0.746792">
        <ele>898.464</ele>
        <time>2018-11-24T12:29:15Z</time>
      </trkpt>
      <trkpt lat="42.351687" lon="0.746860">
        <ele>899.010</ele>
        <time>2018-11-24T12:29:16Z</time>
      </trkpt>
      <trkpt lat="42.351542" lon="0.746869">
        <ele>899.708</ele>
        <time>2018-11-24T12:29:17Z</time>
      </trkpt>
      <trkpt lat="42.351384" lon="0.746871">
        <ele>900.197</ele>
        <time>2018-11-24T12:29:18Z</time>
      </trkpt>
      <trkpt lat="42.351229" lon="0.746811">
        <ele>900.314</ele>
        <time>2018-11-24T12:29:19Z</time>
      </trkpt>
      <trkpt lat="42.351076" lon="0.746745">
        <ele>900.791</ele>
        <time>2018-11-24T12:29:20Z</time>
      </trkpt>
      <trkpt lat="42.350899" lon="0.746674">
        <ele>900.652</ele>
        <time>2018-11-24T12:29:21Z</time>
      </trkpt>
      <trkpt lat="42.350753" lon="0.746576">
        <ele>900.480</ele>
        <time>2018-11-24T12:29:22Z</time>
      </trkpt>
      <trkpt lat="42.350590" lon="0.746499">
        <ele>900.182</ele>
        <time>2018-11-24T12:29:23Z</time>
      </trkpt>
      <trkpt lat="42.350429" lon="0.746444">
        <ele>899.645</ele>
        <time>2018-11-24T12:29:24Z</time>
      </trkpt>
      <trkpt lat="42.350298" lon="0.746409">
        <ele>899.169</ele>
        <time>2018-11-24T12:29:25Z</time>
      </trkpt>
      <trkpt lat="42.350166" lon="0.746452">
        <ele>898.852</ele>
        <time>2018-11-24T12:29:26Z</time>
      </trkpt>
      <trkpt lat="42.350025" lon="0.746536">
        <ele>898.453</ele>
        <time>2018-11-24T12:29:27Z</time>
      </trkpt>
      <trkpt lat="42.349869" lon="0.746618">
        <ele>897.808</ele>
        <time>2018-11-24T12:29:28Z</time>
      </trkpt>
      <trkpt lat="42.349716" lon="0.746659">
        <ele>897.408</ele>
        <time>2018-11-24T12:29:29Z</time>
      </trkpt>
      <trkpt lat="42.349548" lon="0.746680">
        <ele>897.168</ele>
        <time>2018-11-24T12:29:30Z</time>
      </trkpt>
      <trkpt lat="42.349385" lon="0.746638">
        <ele>897.095</ele>
        <time>2018-11-24T12:29:31Z</time>
      </trkpt>
      <trkpt lat="42.349213" lon="0.746577">
        <ele>896.792</ele>
        <time>2018-11-24T12:29:32Z</time>
      </trkpt>
      <trkpt lat="42.349056" lon="0.746513">
        <ele>896.193</ele>
        <time>2018-11-24T12:29:33Z</time>
      </trkpt>
      <trkpt lat="42.348437" lon="0.746258">
        <ele>894.971</ele>
        <time>2018-11-24T12:29:37Z</time>
      </trkpt>
      <trkpt lat="42.348250" lon="0.746137">
        <ele>894.243</ele>
        <time>2018-11-24T12:29:38Z</time>
      </trkpt>
      <trkpt lat="42.348137" lon="0.745076">
        <ele>892.546</ele>
        <time>2018-11-24T12:29:42Z</time>
      </trkpt>
      <trkpt lat="42.348050" lon="0.744877">
        <ele>892.130</ele>
        <time>2018-11-24T12:29:43Z</time>
      </trkpt>
      <trkpt lat="42.348022" lon="0.744630">
        <ele>892.015</ele>
        <time>2018-11-24T12:29:44Z</time>
      </trkpt>
      <trkpt lat="42.347959" lon="0.744403">
        <ele>892.065</ele>
        <time>2018-11-24T12:29:45Z</time>
      </trkpt>
      <trkpt lat="42.347813" lon="0.744272">
        <ele>891.511</ele>
        <time>2018-11-24T12:29:46Z</time>
      </trkpt>
      <trkpt lat="42.347677" lon="0.744119">
        <ele>891.008</ele>
        <time>2018-11-24T12:29:47Z</time>
      </trkpt>
      <trkpt lat="42.347558" lon="0.743975">
        <ele>890.544</ele>
        <time>2018-11-24T12:29:48Z</time>
      </trkpt>
      <trkpt lat="42.347450" lon="0.743807">
        <ele>889.821</ele>
        <time>2018-11-24T12:29:49Z</time>
      </trkpt>
      <trkpt lat="42.347368" lon="0.743616">
        <ele>889.398</ele>
        <time>2018-11-24T12:29:50Z</time>
      </trkpt>
      <trkpt lat="42.347322" lon="0.743406">
        <ele>888.869</ele>
        <time>2018-11-24T12:29:51Z</time>
      </trkpt>
      <trkpt lat="42.347314" lon="0.743178">
        <ele>888.297</ele>
        <time>2018-11-24T12:29:52Z</time>
      </trkpt>
      <trkpt lat="42.347343" lon="0.742951">
        <ele>887.539</ele>
        <time>2018-11-24T12:29:53Z</time>
      </trkpt>
      <trkpt lat="42.347409" lon="0.742719">
        <ele>886.552</ele>
        <time>2018-11-24T12:29:54Z</time>
      </trkpt>
      <trkpt lat="42.347485" lon="0.742477">
        <ele>885.796</ele>
        <time>2018-11-24T12:29:55Z</time>
      </trkpt>
      <trkpt lat="42.347567" lon="0.742232">
        <ele>884.897</ele>
        <time>2018-11-24T12:29:56Z</time>
      </trkpt>
      <trkpt lat="42.347647" lon="0.741984">
        <ele>883.423</ele>
        <time>2018-11-24T12:29:57Z</time>
      </trkpt>
      <trkpt lat="42.347705" lon="0.741717">
        <ele>882.425</ele>
        <time>2018-11-24T12:29:58Z</time>
      </trkpt>
      <trkpt lat="42.347725" lon="0.741457">
        <ele>881.108</ele>
        <time>2018-11-24T12:29:59Z</time>
      </trkpt>
      <trkpt lat="42.347747" lon="0.741194">
        <ele>880.042</ele>
        <time>2018-11-24T12:30:00Z</time>
      </trkpt>
      <trkpt lat="42.347704" lon="0.740931">
        <ele>878.519</ele>
        <time>2018-11-24T12:30:01Z</time>
      </trkpt>
      <trkpt lat="42.347647" lon="0.740680">
        <ele>877.256</ele>
        <time>2018-11-24T12:30:02Z</time>
      </trkpt>
      <trkpt lat="42.347551" lon="0.740459">
        <ele>875.687</ele>
        <time>2018-11-24T12:30:03Z</time>
      </trkpt>
      <trkpt lat="42.347455" lon="0.740246">
        <ele>875.335</ele>
        <time>2018-11-24T12:30:04Z</time>
      </trkpt>
      <trkpt lat="42.347382" lon="0.740051">
        <ele>872.637</ele>
        <time>2018-11-24T12:30:05Z</time>
      </trkpt>
      <trkpt lat="42.347338" lon="0.739841">
        <ele>871.320</ele>
        <time>2018-11-24T12:30:06Z</time>
      </trkpt>
      <trkpt lat="42.347339" lon="0.739622">
        <ele>870.254</ele>
        <time>2018-11-24T12:30:07Z</time>
      </trkpt>
      <trkpt lat="42.347367" lon="0.739402">
        <ele>869.144</ele>
        <time>2018-11-24T12:30:08Z</time>
      </trkpt>
      <trkpt lat="42.347394" lon="0.739183">
        <ele>867.905</ele>
        <time>2018-11-24T12:30:09Z</time>
      </trkpt>
      <trkpt lat="42.347408" lon="0.738969">
        <ele>867.015</ele>
        <time>2018-11-24T12:30:10Z</time>
      </trkpt>
      <trkpt lat="42.347387" lon="0.738748">
        <ele>866.008</ele>
        <time>2018-11-24T12:30:11Z</time>
      </trkpt>
      <trkpt lat="42.347330" lon="0.738533">
        <ele>864.937</ele>
        <time>2018-11-24T12:30:12Z</time>
      </trkpt>
      <trkpt lat="42.347282" lon="0.738298">
        <ele>864.194</ele>
        <time>2018-11-24T12:30:13Z</time>
      </trkpt>
      <trkpt lat="42.347185" lon="0.738073">
        <ele>863.231</ele>
        <time>2018-11-24T12:30:14Z</time>
      </trkpt>
      <trkpt lat="42.347084" lon="0.737846">
        <ele>861.782</ele>
        <time>2018-11-24T12:30:15Z</time>
      </trkpt>
      <trkpt lat="42.346988" lon="0.737622">
        <ele>860.460</ele>
        <time>2018-11-24T12:30:16Z</time>
      </trkpt>
      <trkpt lat="42.346889" lon="0.737406">
        <ele>858.952</ele>
        <time>2018-11-24T12:30:17Z</time>
      </trkpt>
      <trkpt lat="42.346798" lon="0.737182">
        <ele>857.655</ele>
        <time>2018-11-24T12:30:18Z</time>
      </trkpt>
      <trkpt lat="42.346719" lon="0.736934">
        <ele>856.449</ele>
        <time>2018-11-24T12:30:19Z</time>
      </trkpt>
      <trkpt lat="42.346669" lon="0.736659">
        <ele>855.466</ele>
        <time>2018-11-24T12:30:20Z</time>
      </trkpt>
      <trkpt lat="42.346637" lon="0.736381">
        <ele>854.429</ele>
        <time>2018-11-24T12:30:21Z</time>
      </trkpt>
      <trkpt lat="42.346615" lon="0.736102">
        <ele>853.421</ele>
        <time>2018-11-24T12:30:22Z</time>
      </trkpt>
      <trkpt lat="42.346576" lon="0.735836">
        <ele>852.808</ele>
        <time>2018-11-24T12:30:23Z</time>
      </trkpt>
      <trkpt lat="42.346533" lon="0.735582">
        <ele>852.369</ele>
        <time>2018-11-24T12:30:24Z</time>
      </trkpt>
      <trkpt lat="42.346478" lon="0.735358">
        <ele>851.776</ele>
        <time>2018-11-24T12:30:25Z</time>
      </trkpt>
      <trkpt lat="42.346417" lon="0.735148">
        <ele>851.283</ele>
        <time>2018-11-24T12:30:26Z</time>
      </trkpt>
      <trkpt lat="42.346333" lon="0.734954">
        <ele>851.144</ele>
        <time>2018-11-24T12:30:27Z</time>
      </trkpt>
      <trkpt lat="42.346211" lon="0.734800">
        <ele>851.142</ele>
        <time>2018-11-24T12:30:28Z</time>
      </trkpt>
      <trkpt lat="42.346067" lon="0.734670">
        <ele>851.264</ele>
        <time>2018-11-24T12:30:29Z</time>
      </trkpt>
      <trkpt lat="42.345903" lon="0.734581">
        <ele>851.637</ele>
        <time>2018-11-24T12:30:30Z</time>
      </trkpt>
      <trkpt lat="42.345734" lon="0.734526">
        <ele>852.291</ele>
        <time>2018-11-24T12:30:31Z</time>
      </trkpt>
      <trkpt lat="42.345570" lon="0.734479">
        <ele>853.345</ele>
        <time>2018-11-24T12:30:32Z</time>
      </trkpt>
      <trkpt lat="42.345410" lon="0.734408">
        <ele>853.947</ele>
        <time>2018-11-24T12:30:33Z</time>
      </trkpt>
      <trkpt lat="42.345261" lon="0.734296">
        <ele>854.911</ele>
        <time>2018-11-24T12:30:34Z</time>
      </trkpt>
      <trkpt lat="42.345123" lon="0.734166">
        <ele>855.908</ele>
        <time>2018-11-24T12:30:35Z</time>
      </trkpt>
      <trkpt lat="42.344998" lon="0.734010">
        <ele>856.627</ele>
        <time>2018-11-24T12:30:36Z</time>
      </trkpt>
      <trkpt lat="42.344883" lon="0.733870">
        <ele>857.294</ele>
        <time>2018-11-24T12:30:37Z</time>
      </trkpt>
      <trkpt lat="42.344757" lon="0.733771">
        <ele>857.541</ele>
        <time>2018-11-24T12:30:38Z</time>
      </trkpt>
      <trkpt lat="42.344623" lon="0.733695">
        <ele>857.632</ele>
        <time>2018-11-24T12:30:39Z</time>
      </trkpt>
      <trkpt lat="42.344443" lon="0.733715">
        <ele>857.920</ele>
        <time>2018-11-24T12:30:40Z</time>
      </trkpt>
      <trkpt lat="42.344278" lon="0.733791">
        <ele>858.182</ele>
        <time>2018-11-24T12:30:41Z</time>
      </trkpt>
      <trkpt lat="42.344148" lon="0.733914">
        <ele>858.275</ele>
        <time>2018-11-24T12:30:42Z</time>
      </trkpt>
      <trkpt lat="42.344053" lon="0.734082">
        <ele>857.939</ele>
        <time>2018-11-24T12:30:43Z</time>
      </trkpt>
      <trkpt lat="42.343959" lon="0.734254">
        <ele>857.366</ele>
        <time>2018-11-24T12:30:44Z</time>
      </trkpt>
      <trkpt lat="42.343855" lon="0.734366">
        <ele>856.429</ele>
        <time>2018-11-24T12:30:45Z</time>
      </trkpt>
      <trkpt lat="42.343727" lon="0.734422">
        <ele>855.721</ele>
        <time>2018-11-24T12:30:46Z</time>
      </trkpt>
      <trkpt lat="42.343603" lon="0.734430">
        <ele>855.308</ele>
        <time>2018-11-24T12:30:47Z</time>
      </trkpt>
      <trkpt lat="42.343481" lon="0.734371">
        <ele>854.889</ele>
        <time>2018-11-24T12:30:48Z</time>
      </trkpt>
      <trkpt lat="42.343373" lon="0.734271">
        <ele>854.236</ele>
        <time>2018-11-24T12:30:49Z</time>
      </trkpt>
      <trkpt lat="42.343288" lon="0.734106">
        <ele>853.783</ele>
        <time>2018-11-24T12:30:50Z</time>
      </trkpt>
      <trkpt lat="42.343204" lon="0.733920">
        <ele>853.384</ele>
        <time>2018-11-24T12:30:51Z</time>
      </trkpt>
      <trkpt lat="42.343121" lon="0.733739">
        <ele>852.692</ele>
        <time>2018-11-24T12:30:52Z</time>
      </trkpt>
      <trkpt lat="42.343041" lon="0.733537">
        <ele>852.134</ele>
        <time>2018-11-24T12:30:53Z</time>
      </trkpt>
      <trkpt lat="42.342961" lon="0.733326">
        <ele>851.617</ele>
        <time>2018-11-24T12:30:54Z</time>
      </trkpt>
      <trkpt lat="42.342896" lon="0.733098">
        <ele>850.781</ele>
        <time>2018-11-24T12:30:55Z</time>
      </trkpt>
      <trkpt lat="42.342840" lon="0.732865">
        <ele>849.946</ele>
        <time>2018-11-24T12:30:56Z</time>
      </trkpt>
      <trkpt lat="42.342782" lon="0.732630">
        <ele>848.988</ele>
        <time>2018-11-24T12:30:57Z</time>
      </trkpt>
      <trkpt lat="42.342723" lon="0.732389">
        <ele>848.016</ele>
        <time>2018-11-24T12:30:58Z</time>
      </trkpt>
      <trkpt lat="42.342664" lon="0.732152">
        <ele>846.708</ele>
        <time>2018-11-24T12:30:59Z</time>
      </trkpt>
      <trkpt lat="42.342590" lon="0.731940">
        <ele>845.487</ele>
        <time>2018-11-24T12:31:00Z</time>
      </trkpt>
      <trkpt lat="42.342488" lon="0.731754">
        <ele>844.264</ele>
        <time>2018-11-24T12:31:01Z</time>
      </trkpt>
      <trkpt lat="42.342357" lon="0.731590">
        <ele>843.311</ele>
        <time>2018-11-24T12:31:02Z</time>
      </trkpt>
      <trkpt lat="42.342194" lon="0.731465">
        <ele>842.312</ele>
        <time>2018-11-24T12:31:03Z</time>
      </trkpt>
      <trkpt lat="42.342015" lon="0.731374">
        <ele>841.490</ele>
        <time>2018-11-24T12:31:04Z</time>
      </trkpt>
      <trkpt lat="42.341835" lon="0.731284">
        <ele>840.122</ele>
        <time>2018-11-24T12:31:05Z</time>
      </trkpt>
      <trkpt lat="42.341651" lon="0.731195">
        <ele>839.075</ele>
        <time>2018-11-24T12:31:06Z</time>
      </trkpt>
      <trkpt lat="42.341499" lon="0.731052">
        <ele>837.639</ele>
        <time>2018-11-24T12:31:07Z</time>
      </trkpt>
      <trkpt lat="42.341408" lon="0.730819">
        <ele>836.486</ele>
        <time>2018-11-24T12:31:08Z</time>
      </trkpt>
      <trkpt lat="42.341317" lon="0.730587">
        <ele>835.460</ele>
        <time>2018-11-24T12:31:09Z</time>
      </trkpt>
      <trkpt lat="42.341217" lon="0.730376">
        <ele>834.426</ele>
        <time>2018-11-24T12:31:10Z</time>
      </trkpt>
      <trkpt lat="42.341104" lon="0.730171">
        <ele>833.308</ele>
        <time>2018-11-24T12:31:11Z</time>
      </trkpt>
      <trkpt lat="42.340938" lon="0.730034">
        <ele>832.581</ele>
        <time>2018-11-24T12:31:12Z</time>
      </trkpt>
      <trkpt lat="42.340756" lon="0.729946">
        <ele>831.668</ele>
        <time>2018-11-24T12:31:13Z</time>
      </trkpt>
      <trkpt lat="42.340573" lon="0.729877">
        <ele>830.945</ele>
        <time>2018-11-24T12:31:14Z</time>
      </trkpt>
      <trkpt lat="42.340385" lon="0.729823">
        <ele>829.886</ele>
        <time>2018-11-24T12:31:15Z</time>
      </trkpt>
      <trkpt lat="42.340207" lon="0.729774">
        <ele>828.714</ele>
        <time>2018-11-24T12:31:16Z</time>
      </trkpt>
      <trkpt lat="42.340050" lon="0.729731">
        <ele>827.226</ele>
        <time>2018-11-24T12:31:17Z</time>
      </trkpt>
      <trkpt lat="42.339892" lon="0.729699">
        <ele>826.279</ele>
        <time>2018-11-24T12:31:18Z</time>
      </trkpt>
      <trkpt lat="42.339732" lon="0.729733">
        <ele>825.513</ele>
        <time>2018-11-24T12:31:19Z</time>
      </trkpt>
      <trkpt lat="42.339576" lon="0.729777">
        <ele>825.011</ele>
        <time>2018-11-24T12:31:20Z</time>
      </trkpt>
      <trkpt lat="42.339444" lon="0.729918">
        <ele>824.921</ele>
        <time>2018-11-24T12:31:21Z</time>
      </trkpt>
      <trkpt lat="42.339327" lon="0.730135">
        <ele>824.803</ele>
        <time>2018-11-24T12:31:22Z</time>
      </trkpt>
      <trkpt lat="42.339282" lon="0.730373">
        <ele>824.808</ele>
        <time>2018-11-24T12:31:23Z</time>
      </trkpt>
      <trkpt lat="42.339273" lon="0.730612">
        <ele>825.044</ele>
        <time>2018-11-24T12:31:24Z</time>
      </trkpt>
      <trkpt lat="42.339308" lon="0.730851">
        <ele>825.831</ele>
        <time>2018-11-24T12:31:25Z</time>
      </trkpt>
      <trkpt lat="42.339367" lon="0.731092">
        <ele>826.858</ele>
        <time>2018-11-24T12:31:26Z</time>
      </trkpt>
      <trkpt lat="42.339428" lon="0.731334">
        <ele>827.899</ele>
        <time>2018-11-24T12:31:27Z</time>
      </trkpt>
      <trkpt lat="42.339504" lon="0.731551">
        <ele>828.547</ele>
        <time>2018-11-24T12:31:28Z</time>
      </trkpt>
      <trkpt lat="42.339580" lon="0.731757">
        <ele>829.129</ele>
        <time>2018-11-24T12:31:29Z</time>
      </trkpt>
      <trkpt lat="42.339709" lon="0.731913">
        <ele>829.882</ele>
        <time>2018-11-24T12:31:30Z</time>
      </trkpt>
      <trkpt lat="42.339853" lon="0.732027">
        <ele>830.636</ele>
        <time>2018-11-24T12:31:31Z</time>
      </trkpt>
      <trkpt lat="42.339974" lon="0.732143">
        <ele>831.186</ele>
        <time>2018-11-24T12:31:32Z</time>
      </trkpt>
      <trkpt lat="42.340085" lon="0.732261">
        <ele>831.560</ele>
        <time>2018-11-24T12:31:33Z</time>
      </trkpt>
      <trkpt lat="42.340185" lon="0.732388">
        <ele>832.126</ele>
        <time>2018-11-24T12:31:34Z</time>
      </trkpt>
      <trkpt lat="42.340255" lon="0.732542">
        <ele>832.508</ele>
        <time>2018-11-24T12:31:35Z</time>
      </trkpt>
      <trkpt lat="42.340274" lon="0.732716">
        <ele>833.251</ele>
        <time>2018-11-24T12:31:36Z</time>
      </trkpt>
      <trkpt lat="42.340280" lon="0.732875">
        <ele>833.928</ele>
        <time>2018-11-24T12:31:37Z</time>
      </trkpt>
      <trkpt lat="42.340261" lon="0.733056">
        <ele>834.755</ele>
        <time>2018-11-24T12:31:38Z</time>
      </trkpt>
      <trkpt lat="42.340240" lon="0.733244">
        <ele>835.676</ele>
        <time>2018-11-24T12:31:39Z</time>
      </trkpt>
      <trkpt lat="42.340221" lon="0.733438">
        <ele>836.464</ele>
        <time>2018-11-24T12:31:40Z</time>
      </trkpt>
      <trkpt lat="42.340219" lon="0.733649">
        <ele>837.566</ele>
        <time>2018-11-24T12:31:41Z</time>
      </trkpt>
      <trkpt lat="42.340214" lon="0.733871">
        <ele>838.849</ele>
        <time>2018-11-24T12:31:42Z</time>
      </trkpt>
      <trkpt lat="42.340251" lon="0.734112">
        <ele>839.813</ele>
        <time>2018-11-24T12:31:43Z</time>
      </trkpt>
      <trkpt lat="42.340323" lon="0.734343">
        <ele>840.936</ele>
        <time>2018-11-24T12:31:44Z</time>
      </trkpt>
      <trkpt lat="42.340403" lon="0.734570">
        <ele>841.817</ele>
        <time>2018-11-24T12:31:45Z</time>
      </trkpt>
      <trkpt lat="42.340464" lon="0.734799">
        <ele>842.618</ele>
        <time>2018-11-24T12:31:46Z</time>
      </trkpt>
      <trkpt lat="42.340523" lon="0.735037">
        <ele>843.608</ele>
        <time>2018-11-24T12:31:47Z</time>
      </trkpt>
      <trkpt lat="42.340572" lon="0.735283">
        <ele>844.556</ele>
        <time>2018-11-24T12:31:48Z</time>
      </trkpt>
      <trkpt lat="42.340561" lon="0.735541">
        <ele>845.673</ele>
        <time>2018-11-24T12:31:49Z</time>
      </trkpt>
      <trkpt lat="42.340525" lon="0.735792">
        <ele>846.550</ele>
        <time>2018-11-24T12:31:50Z</time>
      </trkpt>
      <trkpt lat="42.340460" lon="0.736047">
        <ele>847.641</ele>
        <time>2018-11-24T12:31:51Z</time>
      </trkpt>
      <trkpt lat="42.340366" lon="0.736291">
        <ele>848.869</ele>
        <time>2018-11-24T12:31:52Z</time>
      </trkpt>
      <trkpt lat="42.340230" lon="0.736517">
        <ele>850.031</ele>
        <time>2018-11-24T12:31:53Z</time>
      </trkpt>
      <trkpt lat="42.340082" lon="0.736717">
        <ele>850.684</ele>
        <time>2018-11-24T12:31:54Z</time>
      </trkpt>
      <trkpt lat="42.339932" lon="0.736913">
        <ele>851.578</ele>
        <time>2018-11-24T12:31:55Z</time>
      </trkpt>
      <trkpt lat="42.339774" lon="0.737106">
        <ele>852.579</ele>
        <time>2018-11-24T12:31:56Z</time>
      </trkpt>
      <trkpt lat="42.339602" lon="0.737280">
        <ele>853.105</ele>
        <time>2018-11-24T12:31:57Z</time>
      </trkpt>
      <trkpt lat="42.339421" lon="0.737442">
        <ele>853.225</ele>
        <time>2018-11-24T12:31:58Z</time>
      </trkpt>
      <trkpt lat="42.339215" lon="0.737553">
        <ele>853.008</ele>
        <time>2018-11-24T12:31:59Z</time>
      </trkpt>
      <trkpt lat="42.339000" lon="0.737641">
        <ele>852.450</ele>
        <time>2018-11-24T12:32:00Z</time>
      </trkpt>
      <trkpt lat="42.338786" lon="0.737705">
        <ele>851.587</ele>
        <time>2018-11-24T12:32:01Z</time>
      </trkpt>
      <trkpt lat="42.338565" lon="0.737778">
        <ele>850.724</ele>
        <time>2018-11-24T12:32:02Z</time>
      </trkpt>
      <trkpt lat="42.338348" lon="0.737862">
        <ele>849.615</ele>
        <time>2018-11-24T12:32:03Z</time>
      </trkpt>
      <trkpt lat="42.338147" lon="0.737935">
        <ele>847.933</ele>
        <time>2018-11-24T12:32:04Z</time>
      </trkpt>
      <trkpt lat="42.337975" lon="0.738003">
        <ele>846.655</ele>
        <time>2018-11-24T12:32:05Z</time>
      </trkpt>
      <trkpt lat="42.337815" lon="0.738064">
        <ele>844.858</ele>
        <time>2018-11-24T12:32:06Z</time>
      </trkpt>
      <trkpt lat="42.337657" lon="0.738108">
        <ele>843.852</ele>
        <time>2018-11-24T12:32:07Z</time>
      </trkpt>
      <trkpt lat="42.337499" lon="0.738114">
        <ele>843.168</ele>
        <time>2018-11-24T12:32:08Z</time>
      </trkpt>
      <trkpt lat="42.337340" lon="0.738108">
        <ele>842.442</ele>
        <time>2018-11-24T12:32:09Z</time>
      </trkpt>
      <trkpt lat="42.337190" lon="0.737962">
        <ele>841.626</ele>
        <time>2018-11-24T12:32:10Z</time>
      </trkpt>
      <trkpt lat="42.337064" lon="0.737779">
        <ele>841.108</ele>
        <time>2018-11-24T12:32:11Z</time>
      </trkpt>
      <trkpt lat="42.337007" lon="0.737524">
        <ele>840.519</ele>
        <time>2018-11-24T12:32:12Z</time>
      </trkpt>
      <trkpt lat="42.336952" lon="0.737286">
        <ele>839.816</ele>
        <time>2018-11-24T12:32:13Z</time>
      </trkpt>
      <trkpt lat="42.336879" lon="0.737073">
        <ele>839.023</ele>
        <time>2018-11-24T12:32:14Z</time>
      </trkpt>
      <trkpt lat="42.336786" lon="0.736878">
        <ele>838.364</ele>
        <time>2018-11-24T12:32:15Z</time>
      </trkpt>
      <trkpt lat="42.336686" lon="0.736699">
        <ele>837.742</ele>
        <time>2018-11-24T12:32:16Z</time>
      </trkpt>
      <trkpt lat="42.336534" lon="0.736603">
        <ele>837.664</ele>
        <time>2018-11-24T12:32:17Z</time>
      </trkpt>
      <trkpt lat="42.336389" lon="0.736564">
        <ele>837.787</ele>
        <time>2018-11-24T12:32:18Z</time>
      </trkpt>
      <trkpt lat="42.336217" lon="0.736534">
        <ele>838.041</ele>
        <time>2018-11-24T12:32:19Z</time>
      </trkpt>
      <trkpt lat="42.336044" lon="0.736456">
        <ele>838.676</ele>
        <time>2018-11-24T12:32:20Z</time>
      </trkpt>
      <trkpt lat="42.335869" lon="0.736341">
        <ele>839.490</ele>
        <time>2018-11-24T12:32:21Z</time>
      </trkpt>
      <trkpt lat="42.335709" lon="0.736171">
        <ele>840.919</ele>
        <time>2018-11-24T12:32:22Z</time>
      </trkpt>
      <trkpt lat="42.335514" lon="0.736036">
        <ele>842.508</ele>
        <time>2018-11-24T12:32:23Z</time>
      </trkpt>
      <trkpt lat="42.335300" lon="0.735954">
        <ele>843.560</ele>
        <time>2018-11-24T12:32:24Z</time>
      </trkpt>
      <trkpt lat="42.335076" lon="0.735923">
        <ele>844.967</ele>
        <time>2018-11-24T12:32:25Z</time>
      </trkpt>
      <trkpt lat="42.334843" lon="0.735899">
        <ele>846.844</ele>
        <time>2018-11-24T12:32:26Z</time>
      </trkpt>
      <trkpt lat="42.334620" lon="0.735867">
        <ele>848.655</ele>
        <time>2018-11-24T12:32:27Z</time>
      </trkpt>
      <trkpt lat="42.334406" lon="0.735828">
        <ele>850.143</ele>
        <time>2018-11-24T12:32:28Z</time>
      </trkpt>
      <trkpt lat="42.334193" lon="0.735789">
        <ele>851.895</ele>
        <time>2018-11-24T12:32:29Z</time>
      </trkpt>
      <trkpt lat="42.333982" lon="0.735746">
        <ele>853.378</ele>
        <time>2018-11-24T12:32:30Z</time>
      </trkpt>
      <trkpt lat="42.333760" lon="0.735701">
        <ele>855.212</ele>
        <time>2018-11-24T12:32:31Z</time>
      </trkpt>
      <trkpt lat="42.333538" lon="0.735656">
        <ele>856.894</ele>
        <time>2018-11-24T12:32:32Z</time>
      </trkpt>
      <trkpt lat="42.333318" lon="0.735605">
        <ele>858.657</ele>
        <time>2018-11-24T12:32:33Z</time>
      </trkpt>
      <trkpt lat="42.333103" lon="0.735555">
        <ele>859.422</ele>
        <time>2018-11-24T12:32:34Z</time>
      </trkpt>
      <trkpt lat="42.332901" lon="0.735512">
        <ele>859.708</ele>
        <time>2018-11-24T12:32:35Z</time>
      </trkpt>
      <trkpt lat="42.332701" lon="0.735481">
        <ele>859.612</ele>
        <time>2018-11-24T12:32:36Z</time>
      </trkpt>
      <trkpt lat="42.332503" lon="0.735458">
        <ele>859.389</ele>
        <time>2018-11-24T12:32:37Z</time>
      </trkpt>
      <trkpt lat="42.332304" lon="0.735502">
        <ele>859.046</ele>
        <time>2018-11-24T12:32:38Z</time>
      </trkpt>
      <trkpt lat="42.332107" lon="0.735572">
        <ele>858.437</ele>
        <time>2018-11-24T12:32:39Z</time>
      </trkpt>
      <trkpt lat="42.331939" lon="0.735671">
        <ele>857.445</ele>
        <time>2018-11-24T12:32:40Z</time>
      </trkpt>
      <trkpt lat="42.331773" lon="0.735763">
        <ele>856.567</ele>
        <time>2018-11-24T12:32:41Z</time>
      </trkpt>
      <trkpt lat="42.331625" lon="0.735867">
        <ele>855.530</ele>
        <time>2018-11-24T12:32:42Z</time>
      </trkpt>
      <trkpt lat="42.331494" lon="0.735984">
        <ele>855.124</ele>
        <time>2018-11-24T12:32:43Z</time>
      </trkpt>
      <trkpt lat="42.331402" lon="0.736155">
        <ele>854.845</ele>
        <time>2018-11-24T12:32:44Z</time>
      </trkpt>
      <trkpt lat="42.331339" lon="0.736361">
        <ele>854.647</ele>
        <time>2018-11-24T12:32:45Z</time>
      </trkpt>
      <trkpt lat="42.331301" lon="0.736581">
        <ele>854.311</ele>
        <time>2018-11-24T12:32:46Z</time>
      </trkpt>
      <trkpt lat="42.331311" lon="0.736770">
        <ele>853.708</ele>
        <time>2018-11-24T12:32:47Z</time>
      </trkpt>
      <trkpt lat="42.331207" lon="0.737467">
        <ele>851.837</ele>
        <time>2018-11-24T12:32:51Z</time>
      </trkpt>
      <trkpt lat="42.331091" lon="0.737590">
        <ele>851.384</ele>
        <time>2018-11-24T12:32:52Z</time>
      </trkpt>
      <trkpt lat="42.330983" lon="0.737707">
        <ele>850.911</ele>
        <time>2018-11-24T12:32:53Z</time>
      </trkpt>
      <trkpt lat="42.330899" lon="0.737771">
        <ele>850.312</ele>
        <time>2018-11-24T12:32:54Z</time>
      </trkpt>
      <trkpt lat="42.330804" lon="0.737898">
        <ele>849.750</ele>
        <time>2018-11-24T12:32:55Z</time>
      </trkpt>
      <trkpt lat="42.330754" lon="0.738074">
        <ele>848.832</ele>
        <time>2018-11-24T12:32:56Z</time>
      </trkpt>
      <trkpt lat="42.330735" lon="0.738287">
        <ele>847.925</ele>
        <time>2018-11-24T12:32:57Z</time>
      </trkpt>
      <trkpt lat="42.330701" lon="0.738486">
        <ele>846.639</ele>
        <time>2018-11-24T12:32:58Z</time>
      </trkpt>
      <trkpt lat="42.330634" lon="0.738671">
        <ele>845.496</ele>
        <time>2018-11-24T12:32:59Z</time>
      </trkpt>
      <trkpt lat="42.330561" lon="0.738813">
        <ele>844.331</ele>
        <time>2018-11-24T12:33:00Z</time>
      </trkpt>
      <trkpt lat="42.330483" lon="0.738965">
        <ele>843.724</ele>
        <time>2018-11-24T12:33:01Z</time>
      </trkpt>
      <trkpt lat="42.329922" lon="0.739486">
        <ele>840.708</ele>
        <time>2018-11-24T12:33:05Z</time>
      </trkpt>
      <trkpt lat="42.329742" lon="0.739599">
        <ele>839.162</ele>
        <time>2018-11-24T12:33:06Z</time>
      </trkpt>
      <trkpt lat="42.329559" lon="0.739728">
        <ele>837.919</ele>
        <time>2018-11-24T12:33:07Z</time>
      </trkpt>
      <trkpt lat="42.329366" lon="0.739856">
        <ele>836.546</ele>
        <time>2018-11-24T12:33:08Z</time>
      </trkpt>
      <trkpt lat="42.329201" lon="0.739985">
        <ele>835.157</ele>
        <time>2018-11-24T12:33:09Z</time>
      </trkpt>
      <trkpt lat="42.329060" lon="0.740108">
        <ele>833.155</ele>
        <time>2018-11-24T12:33:10Z</time>
      </trkpt>
      <trkpt lat="42.328911" lon="0.740208">
        <ele>831.737</ele>
        <time>2018-11-24T12:33:11Z</time>
      </trkpt>
      <trkpt lat="42.328759" lon="0.740297">
        <ele>830.330</ele>
        <time>2018-11-24T12:33:12Z</time>
      </trkpt>
      <trkpt lat="42.328591" lon="0.740338">
        <ele>829.264</ele>
        <time>2018-11-24T12:33:13Z</time>
      </trkpt>
      <trkpt lat="42.328417" lon="0.740309">
        <ele>828.142</ele>
        <time>2018-11-24T12:33:14Z</time>
      </trkpt>
      <trkpt lat="42.328255" lon="0.740267">
        <ele>827.322</ele>
        <time>2018-11-24T12:33:15Z</time>
      </trkpt>
      <trkpt lat="42.328089" lon="0.740236">
        <ele>826.014</ele>
        <time>2018-11-24T12:33:16Z</time>
      </trkpt>
      <trkpt lat="42.327934" lon="0.740259">
        <ele>824.908</ele>
        <time>2018-11-24T12:33:17Z</time>
      </trkpt>
      <trkpt lat="42.327743" lon="0.740347">
        <ele>823.947</ele>
        <time>2018-11-24T12:33:18Z</time>
      </trkpt>
      <trkpt lat="42.327622" lon="0.740494">
        <ele>823.344</ele>
        <time>2018-11-24T12:33:19Z</time>
      </trkpt>
      <trkpt lat="42.327523" lon="0.740678">
        <ele>822.461</ele>
        <time>2018-11-24T12:33:20Z</time>
      </trkpt>
      <trkpt lat="42.327428" lon="0.740810">
        <ele>821.882</ele>
        <time>2018-11-24T12:33:21Z</time>
      </trkpt>
      <trkpt lat="42.327312" lon="0.740917">
        <ele>821.320</ele>
        <time>2018-11-24T12:33:22Z</time>
      </trkpt>
      <trkpt lat="42.327175" lon="0.741000">
        <ele>821.292</ele>
        <time>2018-11-24T12:33:23Z</time>
      </trkpt>
      <trkpt lat="42.327016" lon="0.741047">
        <ele>821.255</ele>
        <time>2018-11-24T12:33:24Z</time>
      </trkpt>
      <trkpt lat="42.326852" lon="0.741082">
        <ele>821.199</ele>
        <time>2018-11-24T12:33:25Z</time>
      </trkpt>
      <trkpt lat="42.326682" lon="0.741117">
        <ele>820.686</ele>
        <time>2018-11-24T12:33:26Z</time>
      </trkpt>
      <trkpt lat="42.326511" lon="0.741151">
        <ele>820.160</ele>
        <time>2018-11-24T12:33:27Z</time>
      </trkpt>
      <trkpt lat="42.326364" lon="0.741207">
        <ele>819.526</ele>
        <time>2018-11-24T12:33:28Z</time>
      </trkpt>
      <trkpt lat="42.326240" lon="0.741303">
        <ele>819.108</ele>
        <time>2018-11-24T12:33:29Z</time>
      </trkpt>
      <trkpt lat="42.325485" lon="0.742304">
        <ele>816.781</ele>
        <time>2018-11-24T12:33:37Z</time>
      </trkpt>
      <trkpt lat="42.325319" lon="0.742510">
        <ele>816.428</ele>
        <time>2018-11-24T12:33:38Z</time>
      </trkpt>
      <trkpt lat="42.325166" lon="0.742622">
        <ele>816.175</ele>
        <time>2018-11-24T12:33:39Z</time>
      </trkpt>
      <trkpt lat="42.325005" lon="0.742633">
        <ele>815.956</ele>
        <time>2018-11-24T12:33:40Z</time>
      </trkpt>
      <trkpt lat="42.324732" lon="0.742605">
        <ele>815.274</ele>
        <time>2018-11-24T12:33:42Z</time>
      </trkpt>
      <trkpt lat="42.324585" lon="0.742566">
        <ele>814.016</ele>
        <time>2018-11-24T12:33:43Z</time>
      </trkpt>
      <trkpt lat="42.324420" lon="0.742517">
        <ele>813.329</ele>
        <time>2018-11-24T12:33:44Z</time>
      </trkpt>
      <trkpt lat="42.324082" lon="0.742426">
        <ele>811.943</ele>
        <time>2018-11-24T12:33:46Z</time>
      </trkpt>
      <trkpt lat="42.323759" lon="0.742275">
        <ele>810.153</ele>
        <time>2018-11-24T12:33:48Z</time>
      </trkpt>
      <trkpt lat="42.323597" lon="0.742170">
        <ele>808.604</ele>
        <time>2018-11-24T12:33:49Z</time>
      </trkpt>
      <trkpt lat="42.323403" lon="0.742033">
        <ele>807.614</ele>
        <time>2018-11-24T12:33:50Z</time>
      </trkpt>
      <trkpt lat="42.323031" lon="0.741782">
        <ele>805.808</ele>
        <time>2018-11-24T12:33:52Z</time>
      </trkpt>
      <trkpt lat="42.322850" lon="0.741688">
        <ele>804.728</ele>
        <time>2018-11-24T12:33:53Z</time>
      </trkpt>
      <trkpt lat="42.322317" lon="0.741534">
        <ele>801.915</ele>
        <time>2018-11-24T12:33:56Z</time>
      </trkpt>
      <trkpt lat="42.322127" lon="0.741576">
        <ele>801.142</ele>
        <time>2018-11-24T12:33:57Z</time>
      </trkpt>
      <trkpt lat="42.321930" lon="0.741641">
        <ele>799.423</ele>
        <time>2018-11-24T12:33:58Z</time>
      </trkpt>
      <trkpt lat="42.321744" lon="0.741735">
        <ele>797.941</ele>
        <time>2018-11-24T12:33:59Z</time>
      </trkpt>
      <trkpt lat="42.321584" lon="0.741819">
        <ele>797.083</ele>
        <time>2018-11-24T12:34:00Z</time>
      </trkpt>
      <trkpt lat="42.321439" lon="0.741907">
        <ele>796.096</ele>
        <time>2018-11-24T12:34:01Z</time>
      </trkpt>
      <trkpt lat="42.321290" lon="0.742032">
        <ele>795.120</ele>
        <time>2018-11-24T12:34:02Z</time>
      </trkpt>
      <trkpt lat="42.321155" lon="0.742188">
        <ele>794.121</ele>
        <time>2018-11-24T12:34:03Z</time>
      </trkpt>
      <trkpt lat="42.321027" lon="0.742394">
        <ele>792.741</ele>
        <time>2018-11-24T12:34:04Z</time>
      </trkpt>
      <trkpt lat="42.320934" lon="0.742630">
        <ele>791.705</ele>
        <time>2018-11-24T12:34:05Z</time>
      </trkpt>
      <trkpt lat="42.320862" lon="0.742872">
        <ele>790.108</ele>
        <time>2018-11-24T12:34:06Z</time>
      </trkpt>
      <trkpt lat="42.320799" lon="0.743091">
        <ele>788.415</ele>
        <time>2018-11-24T12:34:07Z</time>
      </trkpt>
      <trkpt lat="42.320718" lon="0.743312">
        <ele>786.612</ele>
        <time>2018-11-24T12:34:08Z</time>
      </trkpt>
      <trkpt lat="42.320630" lon="0.743539">
        <ele>785.379</ele>
        <time>2018-11-24T12:34:09Z</time>
      </trkpt>
      <trkpt lat="42.320539" lon="0.743762">
        <ele>783.920</ele>
        <time>2018-11-24T12:34:10Z</time>
      </trkpt>
      <trkpt lat="42.320462" lon="0.743981">
        <ele>782.268</ele>
        <time>2018-11-24T12:34:11Z</time>
      </trkpt>
      <trkpt lat="42.320373" lon="0.744208">
        <ele>781.140</ele>
        <time>2018-11-24T12:34:12Z</time>
      </trkpt>
      <trkpt lat="42.320272" lon="0.744435">
        <ele>779.883</ele>
        <time>2018-11-24T12:34:13Z</time>
      </trkpt>
      <trkpt lat="42.320171" lon="0.744665">
        <ele>778.027</ele>
        <time>2018-11-24T12:34:14Z</time>
      </trkpt>
      <trkpt lat="42.320058" lon="0.744902">
        <ele>776.692</ele>
        <time>2018-11-24T12:34:15Z</time>
      </trkpt>
      <trkpt lat="42.319932" lon="0.745155">
        <ele>774.973</ele>
        <time>2018-11-24T12:34:16Z</time>
      </trkpt>
      <trkpt lat="42.319808" lon="0.745397">
        <ele>773.320</ele>
        <time>2018-11-24T12:34:17Z</time>
      </trkpt>
      <trkpt lat="42.319683" lon="0.745607">
        <ele>771.208</ele>
        <time>2018-11-24T12:34:18Z</time>
      </trkpt>
      <trkpt lat="42.319571" lon="0.745812">
        <ele>769.632</ele>
        <time>2018-11-24T12:34:19Z</time>
      </trkpt>
      <trkpt lat="42.319459" lon="0.745999">
        <ele>767.879</ele>
        <time>2018-11-24T12:34:20Z</time>
      </trkpt>
      <trkpt lat="42.319343" lon="0.746179">
        <ele>766.586</ele>
        <time>2018-11-24T12:34:21Z</time>
      </trkpt>
      <trkpt lat="42.319222" lon="0.746355">
        <ele>764.987</ele>
        <time>2018-11-24T12:34:22Z</time>
      </trkpt>
      <trkpt lat="42.319096" lon="0.746502">
        <ele>763.855</ele>
        <time>2018-11-24T12:34:23Z</time>
      </trkpt>
      <trkpt lat="42.318927" lon="0.746614">
        <ele>762.747</ele>
        <time>2018-11-24T12:34:24Z</time>
      </trkpt>
      <trkpt lat="42.318728" lon="0.746683">
        <ele>761.630</ele>
        <time>2018-11-24T12:34:25Z</time>
      </trkpt>
      <trkpt lat="42.318513" lon="0.746709">
        <ele>759.844</ele>
        <time>2018-11-24T12:34:26Z</time>
      </trkpt>
      <trkpt lat="42.318312" lon="0.746659">
        <ele>758.327</ele>
        <time>2018-11-24T12:34:27Z</time>
      </trkpt>
      <trkpt lat="42.318107" lon="0.746597">
        <ele>756.768</ele>
        <time>2018-11-24T12:34:28Z</time>
      </trkpt>
      <trkpt lat="42.317932" lon="0.746452">
        <ele>755.314</ele>
        <time>2018-11-24T12:34:29Z</time>
      </trkpt>
      <trkpt lat="42.317778" lon="0.746279">
        <ele>753.708</ele>
        <time>2018-11-24T12:34:30Z</time>
      </trkpt>
      <trkpt lat="42.317651" lon="0.746066">
        <ele>752.485</ele>
        <time>2018-11-24T12:34:31Z</time>
      </trkpt>
      <trkpt lat="42.317554" lon="0.745829">
        <ele>750.792</ele>
        <time>2018-11-24T12:34:32Z</time>
      </trkpt>
      <trkpt lat="42.317468" lon="0.745593">
        <ele>749.099</ele>
        <time>2018-11-24T12:34:33Z</time>
      </trkpt>
      <trkpt lat="42.317384" lon="0.745372">
        <ele>747.010</ele>
        <time>2018-11-24T12:34:34Z</time>
      </trkpt>
      <trkpt lat="42.317313" lon="0.745197">
        <ele>745.138</ele>
        <time>2018-11-24T12:34:35Z</time>
      </trkpt>
      <trkpt lat="42.317235" lon="0.745031">
        <ele>743.760</ele>
        <time>2018-11-24T12:34:36Z</time>
      </trkpt>
      <trkpt lat="42.317151" lon="0.744880">
        <ele>742.553</ele>
        <time>2018-11-24T12:34:37Z</time>
      </trkpt>
      <trkpt lat="42.317015" lon="0.744777">
        <ele>741.627</ele>
        <time>2018-11-24T12:34:38Z</time>
      </trkpt>
      <trkpt lat="42.316851" lon="0.744742">
        <ele>740.775</ele>
        <time>2018-11-24T12:34:39Z</time>
      </trkpt>
      <trkpt lat="42.316673" lon="0.744774">
        <ele>739.628</ele>
        <time>2018-11-24T12:34:40Z</time>
      </trkpt>
      <trkpt lat="42.316488" lon="0.744812">
        <ele>738.120</ele>
        <time>2018-11-24T12:34:41Z</time>
      </trkpt>
      <trkpt lat="42.316310" lon="0.744845">
        <ele>736.708</ele>
        <time>2018-11-24T12:34:42Z</time>
      </trkpt>
      <trkpt lat="42.316142" lon="0.744871">
        <ele>735.220</ele>
        <time>2018-11-24T12:34:43Z</time>
      </trkpt>
      <trkpt lat="42.315969" lon="0.744891">
        <ele>734.377</ele>
        <time>2018-11-24T12:34:44Z</time>
      </trkpt>
      <trkpt lat="42.315792" lon="0.744903">
        <ele>733.574</ele>
        <time>2018-11-24T12:34:45Z</time>
      </trkpt>
      <trkpt lat="42.315612" lon="0.744902">
        <ele>732.725</ele>
        <time>2018-11-24T12:34:46Z</time>
      </trkpt>
      <trkpt lat="42.315425" lon="0.744902">
        <ele>731.753</ele>
        <time>2018-11-24T12:34:47Z</time>
      </trkpt>
      <trkpt lat="42.315244" lon="0.744860">
        <ele>730.985</ele>
        <time>2018-11-24T12:34:48Z</time>
      </trkpt>
      <trkpt lat="42.315070" lon="0.744816">
        <ele>730.298</ele>
        <time>2018-11-24T12:34:49Z</time>
      </trkpt>
      <trkpt lat="42.314895" lon="0.744771">
        <ele>729.142</ele>
        <time>2018-11-24T12:34:50Z</time>
      </trkpt>
      <trkpt lat="42.314726" lon="0.744729">
        <ele>727.899</ele>
        <time>2018-11-24T12:34:51Z</time>
      </trkpt>
      <trkpt lat="42.314561" lon="0.744692">
        <ele>726.707</ele>
        <time>2018-11-24T12:34:52Z</time>
      </trkpt>
      <trkpt lat="42.314402" lon="0.744650">
        <ele>725.627</ele>
        <time>2018-11-24T12:34:53Z</time>
      </trkpt>
      <trkpt lat="42.314243" lon="0.744589">
        <ele>724.808</ele>
        <time>2018-11-24T12:34:54Z</time>
      </trkpt>
      <trkpt lat="42.314094" lon="0.744522">
        <ele>724.032</ele>
        <time>2018-11-24T12:34:55Z</time>
      </trkpt>
      <trkpt lat="42.313952" lon="0.744409">
        <ele>723.669</ele>
        <time>2018-11-24T12:34:56Z</time>
      </trkpt>
      <trkpt lat="42.313831" lon="0.744257">
        <ele>722.896</ele>
        <time>2018-11-24T12:34:57Z</time>
      </trkpt>
      <trkpt lat="42.313721" lon="0.744103">
        <ele>722.047</ele>
        <time>2018-11-24T12:34:58Z</time>
      </trkpt>
      <trkpt lat="42.313624" lon="0.743917">
        <ele>721.065</ele>
        <time>2018-11-24T12:34:59Z</time>
      </trkpt>
      <trkpt lat="42.313517" lon="0.743721">
        <ele>720.377</ele>
        <time>2018-11-24T12:35:00Z</time>
      </trkpt>
      <trkpt lat="42.313461" lon="0.743488">
        <ele>719.480</ele>
        <time>2018-11-24T12:35:01Z</time>
      </trkpt>
      <trkpt lat="42.313421" lon="0.743255">
        <ele>718.794</ele>
        <time>2018-11-24T12:35:02Z</time>
      </trkpt>
      <trkpt lat="42.313412" lon="0.743018">
        <ele>717.729</ele>
        <time>2018-11-24T12:35:03Z</time>
      </trkpt>
      <trkpt lat="42.313400" lon="0.742787">
        <ele>716.400</ele>
        <time>2018-11-24T12:35:04Z</time>
      </trkpt>
      <trkpt lat="42.313386" lon="0.742556">
        <ele>715.420</ele>
        <time>2018-11-24T12:35:05Z</time>
      </trkpt>
      <trkpt lat="42.313323" lon="0.742344">
        <ele>714.608</ele>
        <time>2018-11-24T12:35:06Z</time>
      </trkpt>
      <trkpt lat="42.313236" lon="0.742131">
        <ele>714.165</ele>
        <time>2018-11-24T12:35:07Z</time>
      </trkpt>
      <trkpt lat="42.313112" lon="0.741959">
        <ele>713.692</ele>
        <time>2018-11-24T12:35:08Z</time>
      </trkpt>
      <trkpt lat="42.312963" lon="0.741807">
        <ele>712.739</ele>
        <time>2018-11-24T12:35:09Z</time>
      </trkpt>
      <trkpt lat="42.312806" lon="0.741653">
        <ele>711.740</ele>
        <time>2018-11-24T12:35:10Z</time>
      </trkpt>
      <trkpt lat="42.312639" lon="0.741472">
        <ele>710.658</ele>
        <time>2018-11-24T12:35:11Z</time>
      </trkpt>
      <trkpt lat="42.312488" lon="0.741289">
        <ele>709.950</ele>
        <time>2018-11-24T12:35:12Z</time>
      </trkpt>
      <trkpt lat="42.312325" lon="0.741109">
        <ele>708.933</ele>
        <time>2018-11-24T12:35:13Z</time>
      </trkpt>
      <trkpt lat="42.312134" lon="0.740916">
        <ele>708.267</ele>
        <time>2018-11-24T12:35:14Z</time>
      </trkpt>
      <trkpt lat="42.311933" lon="0.740723">
        <ele>707.471</ele>
        <time>2018-11-24T12:35:15Z</time>
      </trkpt>
      <trkpt lat="42.311734" lon="0.740514">
        <ele>706.641</ele>
        <time>2018-11-24T12:35:16Z</time>
      </trkpt>
      <trkpt lat="42.311520" lon="0.740291">
        <ele>705.715</ele>
        <time>2018-11-24T12:35:17Z</time>
      </trkpt>
      <trkpt lat="42.311287" lon="0.740064">
        <ele>705.008</ele>
        <time>2018-11-24T12:35:18Z</time>
      </trkpt>
      <trkpt lat="42.311043" lon="0.739834">
        <ele>704.270</ele>
        <time>2018-11-24T12:35:19Z</time>
      </trkpt>
      <trkpt lat="42.310763" lon="0.739655">
        <ele>703.187</ele>
        <time>2018-11-24T12:35:20Z</time>
      </trkpt>
      <trkpt lat="42.310463" lon="0.739475">
        <ele>702.084</ele>
        <time>2018-11-24T12:35:21Z</time>
      </trkpt>
      <trkpt lat="42.310157" lon="0.739285">
        <ele>700.845</ele>
        <time>2018-11-24T12:35:22Z</time>
      </trkpt>
      <trkpt lat="42.309851" lon="0.739089">
        <ele>700.863</ele>
        <time>2018-11-24T12:35:23Z</time>
      </trkpt>
      <trkpt lat="42.309538" lon="0.738884">
        <ele>699.625</ele>
        <time>2018-11-24T12:35:24Z</time>
      </trkpt>
      <trkpt lat="42.309218" lon="0.738667">
        <ele>699.278</ele>
        <time>2018-11-24T12:35:25Z</time>
      </trkpt>
      <trkpt lat="42.308884" lon="0.738448">
        <ele>698.682</ele>
        <time>2018-11-24T12:35:26Z</time>
      </trkpt>
      <trkpt lat="42.308540" lon="0.738227">
        <ele>698.013</ele>
        <time>2018-11-24T12:35:27Z</time>
      </trkpt>
      <trkpt lat="42.308189" lon="0.738000">
        <ele>697.843</ele>
        <time>2018-11-24T12:35:28Z</time>
      </trkpt>
      <trkpt lat="42.307834" lon="0.737771">
        <ele>697.507</ele>
        <time>2018-11-24T12:35:29Z</time>
      </trkpt>
      <trkpt lat="42.307473" lon="0.737526">
        <ele>696.908</ele>
        <time>2018-11-24T12:35:30Z</time>
      </trkpt>
      <trkpt lat="42.307106" lon="0.737279">
        <ele>696.274</ele>
        <time>2018-11-24T12:35:31Z</time>
      </trkpt>
      <trkpt lat="42.306741" lon="0.737029">
        <ele>695.141</ele>
        <time>2018-11-24T12:35:32Z</time>
      </trkpt>
      <trkpt lat="42.306373" lon="0.736791">
        <ele>692.928</ele>
        <time>2018-11-24T12:35:33Z</time>
      </trkpt>
      <trkpt lat="42.306009" lon="0.736551">
        <ele>691.219</ele>
        <time>2018-11-24T12:35:34Z</time>
      </trkpt>
      <trkpt lat="42.305651" lon="0.736318">
        <ele>689.837</ele>
        <time>2018-11-24T12:35:35Z</time>
      </trkpt>
      <trkpt lat="42.305303" lon="0.736088">
        <ele>688.569</ele>
        <time>2018-11-24T12:35:36Z</time>
      </trkpt>
      <trkpt lat="42.304964" lon="0.735862">
        <ele>687.022</ele>
        <time>2018-11-24T12:35:37Z</time>
      </trkpt>
      <trkpt lat="42.304629" lon="0.735644">
        <ele>686.046</ele>
        <time>2018-11-24T12:35:38Z</time>
      </trkpt>
      <trkpt lat="42.304305" lon="0.735433">
        <ele>684.895</ele>
        <time>2018-11-24T12:35:39Z</time>
      </trkpt>
      <trkpt lat="42.303992" lon="0.735226">
        <ele>683.649</ele>
        <time>2018-11-24T12:35:40Z</time>
      </trkpt>
      <trkpt lat="42.303687" lon="0.735024">
        <ele>682.823</ele>
        <time>2018-11-24T12:35:41Z</time>
      </trkpt>
      <trkpt lat="42.303386" lon="0.734824">
        <ele>681.708</ele>
        <time>2018-11-24T12:35:42Z</time>
      </trkpt>
      <trkpt lat="42.303089" lon="0.734627">
        <ele>681.072</ele>
        <time>2018-11-24T12:35:43Z</time>
      </trkpt>
      <trkpt lat="42.302792" lon="0.734431">
        <ele>682.189</ele>
        <time>2018-11-24T12:35:44Z</time>
      </trkpt>
      <trkpt lat="42.302499" lon="0.734241">
        <ele>680.536</ele>
        <time>2018-11-24T12:35:45Z</time>
      </trkpt>
      <trkpt lat="42.302209" lon="0.734055">
        <ele>679.347</ele>
        <time>2018-11-24T12:35:46Z</time>
      </trkpt>
      <trkpt lat="42.301926" lon="0.733871">
        <ele>678.615</ele>
        <time>2018-11-24T12:35:47Z</time>
      </trkpt>
      <trkpt lat="42.301655" lon="0.733692">
        <ele>677.647</ele>
        <time>2018-11-24T12:35:48Z</time>
      </trkpt>
      <trkpt lat="42.301401" lon="0.733523">
        <ele>676.450</ele>
        <time>2018-11-24T12:35:49Z</time>
      </trkpt>
      <trkpt lat="42.301164" lon="0.733368">
        <ele>675.544</ele>
        <time>2018-11-24T12:35:50Z</time>
      </trkpt>
      <trkpt lat="42.300930" lon="0.733225">
        <ele>675.042</ele>
        <time>2018-11-24T12:35:51Z</time>
      </trkpt>
      <trkpt lat="42.300690" lon="0.733088">
        <ele>675.322</ele>
        <time>2018-11-24T12:35:52Z</time>
      </trkpt>
      <trkpt lat="42.300423" lon="0.733038">
        <ele>676.214</ele>
        <time>2018-11-24T12:35:53Z</time>
      </trkpt>
      <trkpt lat="42.300144" lon="0.732995">
        <ele>677.208</ele>
        <time>2018-11-24T12:35:54Z</time>
      </trkpt>
      <trkpt lat="42.299865" lon="0.732954">
        <ele>678.237</ele>
        <time>2018-11-24T12:35:55Z</time>
      </trkpt>
      <trkpt lat="42.299591" lon="0.732919">
        <ele>678.424</ele>
        <time>2018-11-24T12:35:56Z</time>
      </trkpt>
      <trkpt lat="42.299314" lon="0.732918">
        <ele>679.031</ele>
        <time>2018-11-24T12:35:57Z</time>
      </trkpt>
      <trkpt lat="42.299028" lon="0.732954">
        <ele>680.012</ele>
        <time>2018-11-24T12:35:58Z</time>
      </trkpt>
      <trkpt lat="42.298735" lon="0.733016">
        <ele>680.770</ele>
        <time>2018-11-24T12:35:59Z</time>
      </trkpt>
      <trkpt lat="42.298436" lon="0.733080">
        <ele>681.762</ele>
        <time>2018-11-24T12:36:00Z</time>
      </trkpt>
      <trkpt lat="42.298127" lon="0.733146">
        <ele>682.175</ele>
        <time>2018-11-24T12:36:01Z</time>
      </trkpt>
      <trkpt lat="42.297818" lon="0.733213">
        <ele>682.619</ele>
        <time>2018-11-24T12:36:02Z</time>
      </trkpt>
      <trkpt lat="42.297529" lon="0.733265">
        <ele>682.272</ele>
        <time>2018-11-24T12:36:03Z</time>
      </trkpt>
      <trkpt lat="42.297251" lon="0.733319">
        <ele>681.813</ele>
        <time>2018-11-24T12:36:04Z</time>
      </trkpt>
      <trkpt lat="42.296970" lon="0.733380">
        <ele>681.714</ele>
        <time>2018-11-24T12:36:05Z</time>
      </trkpt>
      <trkpt lat="42.296692" lon="0.733461">
        <ele>681.508</ele>
        <time>2018-11-24T12:36:06Z</time>
      </trkpt>
      <trkpt lat="42.296421" lon="0.733571">
        <ele>680.920</ele>
        <time>2018-11-24T12:36:07Z</time>
      </trkpt>
      <trkpt lat="42.296154" lon="0.733726">
        <ele>680.667</ele>
        <time>2018-11-24T12:36:08Z</time>
      </trkpt>
      <trkpt lat="42.295892" lon="0.733928">
        <ele>680.414</ele>
        <time>2018-11-24T12:36:09Z</time>
      </trkpt>
      <trkpt lat="42.295632" lon="0.734160">
        <ele>680.435</ele>
        <time>2018-11-24T12:36:10Z</time>
      </trkpt>
      <trkpt lat="42.295372" lon="0.734393">
        <ele>679.693</ele>
        <time>2018-11-24T12:36:11Z</time>
      </trkpt>
      <trkpt lat="42.295118" lon="0.734623">
        <ele>678.765</ele>
        <time>2018-11-24T12:36:12Z</time>
      </trkpt>
      <trkpt lat="42.294867" lon="0.734853">
        <ele>677.898</ele>
        <time>2018-11-24T12:36:13Z</time>
      </trkpt>
      <trkpt lat="42.294619" lon="0.735085">
        <ele>677.552</ele>
        <time>2018-11-24T12:36:14Z</time>
      </trkpt>
      <trkpt lat="42.294367" lon="0.735310">
        <ele>677.056</ele>
        <time>2018-11-24T12:36:15Z</time>
      </trkpt>
      <trkpt lat="42.294117" lon="0.735535">
        <ele>676.559</ele>
        <time>2018-11-24T12:36:16Z</time>
      </trkpt>
      <trkpt lat="42.293874" lon="0.735754">
        <ele>676.214</ele>
        <time>2018-11-24T12:36:17Z</time>
      </trkpt>
      <trkpt lat="42.293643" lon="0.735952">
        <ele>675.408</ele>
        <time>2018-11-24T12:36:18Z</time>
      </trkpt>
      <trkpt lat="42.293405" lon="0.736128">
        <ele>675.298</ele>
        <time>2018-11-24T12:36:19Z</time>
      </trkpt>
      <trkpt lat="42.293166" lon="0.736302">
        <ele>675.285</ele>
        <time>2018-11-24T12:36:20Z</time>
      </trkpt>
      <trkpt lat="42.292883" lon="0.736407">
        <ele>675.462</ele>
        <time>2018-11-24T12:36:21Z</time>
      </trkpt>
      <trkpt lat="42.292589" lon="0.736474">
        <ele>675.633</ele>
        <time>2018-11-24T12:36:22Z</time>
      </trkpt>
      <trkpt lat="42.292300" lon="0.736509">
        <ele>675.481</ele>
        <time>2018-11-24T12:36:23Z</time>
      </trkpt>
      <trkpt lat="42.292006" lon="0.736537">
        <ele>675.313</ele>
        <time>2018-11-24T12:36:24Z</time>
      </trkpt>
      <trkpt lat="42.291710" lon="0.736455">
        <ele>675.586</ele>
        <time>2018-11-24T12:36:25Z</time>
      </trkpt>
      <trkpt lat="42.291412" lon="0.736369">
        <ele>675.870</ele>
        <time>2018-11-24T12:36:26Z</time>
      </trkpt>
      <trkpt lat="42.291105" lon="0.736275">
        <ele>675.923</ele>
        <time>2018-11-24T12:36:27Z</time>
      </trkpt>
      <trkpt lat="42.290789" lon="0.736185">
        <ele>676.183</ele>
        <time>2018-11-24T12:36:28Z</time>
      </trkpt>
      <trkpt lat="42.290468" lon="0.736093">
        <ele>676.411</ele>
        <time>2018-11-24T12:36:29Z</time>
      </trkpt>
      <trkpt lat="42.290137" lon="0.735995">
        <ele>676.908</ele>
        <time>2018-11-24T12:36:30Z</time>
      </trkpt>
      <trkpt lat="42.289801" lon="0.735894">
        <ele>677.165</ele>
        <time>2018-11-24T12:36:31Z</time>
      </trkpt>
      <trkpt lat="42.289461" lon="0.735795">
        <ele>677.062</ele>
        <time>2018-11-24T12:36:32Z</time>
      </trkpt>
      <trkpt lat="42.289127" lon="0.735695">
        <ele>676.949</ele>
        <time>2018-11-24T12:36:33Z</time>
      </trkpt>
      <trkpt lat="42.288797" lon="0.735602">
        <ele>676.530</ele>
        <time>2018-11-24T12:36:34Z</time>
      </trkpt>
      <trkpt lat="42.288473" lon="0.735507">
        <ele>676.178</ele>
        <time>2018-11-24T12:36:35Z</time>
      </trkpt>
      <trkpt lat="42.288146" lon="0.735411">
        <ele>675.670</ele>
        <time>2018-11-24T12:36:36Z</time>
      </trkpt>
      <trkpt lat="42.287819" lon="0.735315">
        <ele>675.773</ele>
        <time>2018-11-24T12:36:37Z</time>
      </trkpt>
      <trkpt lat="42.287499" lon="0.735220">
        <ele>675.427</ele>
        <time>2018-11-24T12:36:38Z</time>
      </trkpt>
      <trkpt lat="42.287195" lon="0.735124">
        <ele>674.558</ele>
        <time>2018-11-24T12:36:39Z</time>
      </trkpt>
      <trkpt lat="42.286904" lon="0.735033">
        <ele>673.152</ele>
        <time>2018-11-24T12:36:40Z</time>
      </trkpt>
      <trkpt lat="42.286627" lon="0.734954">
        <ele>671.817</ele>
        <time>2018-11-24T12:36:41Z</time>
      </trkpt>
      <trkpt lat="42.286367" lon="0.734898">
        <ele>670.808</ele>
        <time>2018-11-24T12:36:42Z</time>
      </trkpt>
      <trkpt lat="42.286101" lon="0.734882">
        <ele>670.518</ele>
        <time>2018-11-24T12:36:43Z</time>
      </trkpt>
      <trkpt lat="42.285830" lon="0.734910">
        <ele>670.855</ele>
        <time>2018-11-24T12:36:44Z</time>
      </trkpt>
      <trkpt lat="42.285551" lon="0.734951">
        <ele>671.542</ele>
        <time>2018-11-24T12:36:45Z</time>
      </trkpt>
      <trkpt lat="42.285262" lon="0.735024">
        <ele>672.223</ele>
        <time>2018-11-24T12:36:46Z</time>
      </trkpt>
      <trkpt lat="42.284962" lon="0.735077">
        <ele>673.191</ele>
        <time>2018-11-24T12:36:47Z</time>
      </trkpt>
      <trkpt lat="42.284660" lon="0.735139">
        <ele>673.933</ele>
        <time>2018-11-24T12:36:48Z</time>
      </trkpt>
      <trkpt lat="42.284359" lon="0.735205">
        <ele>674.516</ele>
        <time>2018-11-24T12:36:49Z</time>
      </trkpt>
      <trkpt lat="42.284056" lon="0.735271">
        <ele>675.090</ele>
        <time>2018-11-24T12:36:50Z</time>
      </trkpt>
      <trkpt lat="42.283753" lon="0.735333">
        <ele>675.728</ele>
        <time>2018-11-24T12:36:51Z</time>
      </trkpt>
      <trkpt lat="42.283470" lon="0.735385">
        <ele>675.589</ele>
        <time>2018-11-24T12:36:52Z</time>
      </trkpt>
      <trkpt lat="42.283203" lon="0.735439">
        <ele>675.117</ele>
        <time>2018-11-24T12:36:53Z</time>
      </trkpt>
      <trkpt lat="42.282933" lon="0.735503">
        <ele>675.108</ele>
        <time>2018-11-24T12:36:54Z</time>
      </trkpt>
      <trkpt lat="42.282665" lon="0.735606">
        <ele>675.435</ele>
        <time>2018-11-24T12:36:55Z</time>
      </trkpt>
      <trkpt lat="42.282399" lon="0.735767">
        <ele>675.842</ele>
        <time>2018-11-24T12:36:56Z</time>
      </trkpt>
      <trkpt lat="42.282136" lon="0.735956">
        <ele>676.429</ele>
        <time>2018-11-24T12:36:57Z</time>
      </trkpt>
      <trkpt lat="42.281870" lon="0.736149">
        <ele>677.280</ele>
        <time>2018-11-24T12:36:58Z</time>
      </trkpt>
      <trkpt lat="42.281600" lon="0.736340">
        <ele>678.498</ele>
        <time>2018-11-24T12:36:59Z</time>
      </trkpt>
      <trkpt lat="42.281340" lon="0.736533">
        <ele>679.730</ele>
        <time>2018-11-24T12:37:00Z</time>
      </trkpt>
      <trkpt lat="42.281087" lon="0.736720">
        <ele>681.073</ele>
        <time>2018-11-24T12:37:01Z</time>
      </trkpt>
      <trkpt lat="42.280847" lon="0.736892">
        <ele>681.617</ele>
        <time>2018-11-24T12:37:02Z</time>
      </trkpt>
      <trkpt lat="42.280624" lon="0.737052">
        <ele>682.089</ele>
        <time>2018-11-24T12:37:03Z</time>
      </trkpt>
      <trkpt lat="42.280422" lon="0.737192">
        <ele>681.906</ele>
        <time>2018-11-24T12:37:04Z</time>
      </trkpt>
      <trkpt lat="42.280232" lon="0.737315">
        <ele>681.926</ele>
        <time>2018-11-24T12:37:05Z</time>
      </trkpt>
      <trkpt lat="42.280048" lon="0.737409">
        <ele>682.008</ele>
        <time>2018-11-24T12:37:06Z</time>
      </trkpt>
      <trkpt lat="42.279844" lon="0.737484">
        <ele>682.211</ele>
        <time>2018-11-24T12:37:07Z</time>
      </trkpt>
      <trkpt lat="42.279628" lon="0.737477">
        <ele>682.738</ele>
        <time>2018-11-24T12:37:08Z</time>
      </trkpt>
      <trkpt lat="42.279400" lon="0.737426">
        <ele>683.075</ele>
        <time>2018-11-24T12:37:09Z</time>
      </trkpt>
      <trkpt lat="42.279148" lon="0.737352">
        <ele>683.356</ele>
        <time>2018-11-24T12:37:10Z</time>
      </trkpt>
      <trkpt lat="42.278878" lon="0.737267">
        <ele>683.454</ele>
        <time>2018-11-24T12:37:11Z</time>
      </trkpt>
      <trkpt lat="42.278603" lon="0.737187">
        <ele>683.666</ele>
        <time>2018-11-24T12:37:12Z</time>
      </trkpt>
      <trkpt lat="42.278320" lon="0.737115">
        <ele>683.419</ele>
        <time>2018-11-24T12:37:13Z</time>
      </trkpt>
      <trkpt lat="42.278034" lon="0.737045">
        <ele>683.053</ele>
        <time>2018-11-24T12:37:14Z</time>
      </trkpt>
      <trkpt lat="42.277754" lon="0.736976">
        <ele>682.339</ele>
        <time>2018-11-24T12:37:15Z</time>
      </trkpt>
      <trkpt lat="42.277499" lon="0.736913">
        <ele>680.601</ele>
        <time>2018-11-24T12:37:16Z</time>
      </trkpt>
      <trkpt lat="42.277276" lon="0.736855">
        <ele>678.921</ele>
        <time>2018-11-24T12:37:17Z</time>
      </trkpt>
      <trkpt lat="42.277082" lon="0.736795">
        <ele>677.408</ele>
        <time>2018-11-24T12:37:18Z</time>
      </trkpt>
      <trkpt lat="42.276899" lon="0.736701">
        <ele>677.186</ele>
        <time>2018-11-24T12:37:19Z</time>
      </trkpt>
      <trkpt lat="42.276726" lon="0.736526">
        <ele>677.113</ele>
        <time>2018-11-24T12:37:20Z</time>
      </trkpt>
      <trkpt lat="42.276544" lon="0.736308">
        <ele>677.050</ele>
        <time>2018-11-24T12:37:21Z</time>
      </trkpt>
      <trkpt lat="42.276364" lon="0.736068">
        <ele>676.971</ele>
        <time>2018-11-24T12:37:22Z</time>
      </trkpt>
      <trkpt lat="42.276175" lon="0.735818">
        <ele>676.759</ele>
        <time>2018-11-24T12:37:23Z</time>
      </trkpt>
      <trkpt lat="42.275970" lon="0.735583">
        <ele>676.481</ele>
        <time>2018-11-24T12:37:24Z</time>
      </trkpt>
      <trkpt lat="42.275739" lon="0.735365">
        <ele>675.954</ele>
        <time>2018-11-24T12:37:25Z</time>
      </trkpt>
      <trkpt lat="42.275503" lon="0.735162">
        <ele>675.698</ele>
        <time>2018-11-24T12:37:26Z</time>
      </trkpt>
      <trkpt lat="42.275254" lon="0.734960">
        <ele>675.184</ele>
        <time>2018-11-24T12:37:27Z</time>
      </trkpt>
      <trkpt lat="42.275004" lon="0.734768">
        <ele>674.107</ele>
        <time>2018-11-24T12:37:28Z</time>
      </trkpt>
      <trkpt lat="42.274771" lon="0.734596">
        <ele>672.517</ele>
        <time>2018-11-24T12:37:29Z</time>
      </trkpt>
      <trkpt lat="42.274547" lon="0.734435">
        <ele>671.008</ele>
        <time>2018-11-24T12:37:30Z</time>
      </trkpt>
      <trkpt lat="42.274296" lon="0.734297">
        <ele>670.311</ele>
        <time>2018-11-24T12:37:31Z</time>
      </trkpt>
      <trkpt lat="42.274032" lon="0.734178">
        <ele>669.888</ele>
        <time>2018-11-24T12:37:32Z</time>
      </trkpt>
      <trkpt lat="42.273742" lon="0.734120">
        <ele>669.745</ele>
        <time>2018-11-24T12:37:33Z</time>
      </trkpt>
      <trkpt lat="42.273446" lon="0.734068">
        <ele>669.436</ele>
        <time>2018-11-24T12:37:34Z</time>
      </trkpt>
      <trkpt lat="42.273153" lon="0.733994">
        <ele>668.294</ele>
        <time>2018-11-24T12:37:35Z</time>
      </trkpt>
      <trkpt lat="42.272872" lon="0.733922">
        <ele>666.816</ele>
        <time>2018-11-24T12:37:36Z</time>
      </trkpt>
      <trkpt lat="42.272617" lon="0.733853">
        <ele>665.389</ele>
        <time>2018-11-24T12:37:37Z</time>
      </trkpt>
      <trkpt lat="42.272378" lon="0.733797">
        <ele>663.923</ele>
        <time>2018-11-24T12:37:38Z</time>
      </trkpt>
      <trkpt lat="42.272147" lon="0.733753">
        <ele>662.236</ele>
        <time>2018-11-24T12:37:39Z</time>
      </trkpt>
      <trkpt lat="42.271916" lon="0.733748">
        <ele>662.217</ele>
        <time>2018-11-24T12:37:40Z</time>
      </trkpt>
      <trkpt lat="42.271709" lon="0.733761">
        <ele>660.318</ele>
        <time>2018-11-24T12:37:41Z</time>
      </trkpt>
      <trkpt lat="42.271517" lon="0.733783">
        <ele>658.808</ele>
        <time>2018-11-24T12:37:42Z</time>
      </trkpt>
      <trkpt lat="42.271326" lon="0.733809">
        <ele>658.236</ele>
        <time>2018-11-24T12:37:43Z</time>
      </trkpt>
      <trkpt lat="42.271140" lon="0.733833">
        <ele>657.193</ele>
        <time>2018-11-24T12:37:44Z</time>
      </trkpt>
      <trkpt lat="42.270966" lon="0.733858">
        <ele>658.080</ele>
        <time>2018-11-24T12:37:45Z</time>
      </trkpt>
      <trkpt lat="42.270797" lon="0.733883">
        <ele>655.541</ele>
        <time>2018-11-24T12:37:46Z</time>
      </trkpt>
      <trkpt lat="42.270631" lon="0.733909">
        <ele>654.789</ele>
        <time>2018-11-24T12:37:47Z</time>
      </trkpt>
      <trkpt lat="42.270461" lon="0.733936">
        <ele>654.231</ele>
        <time>2018-11-24T12:37:48Z</time>
      </trkpt>
      <trkpt lat="42.270292" lon="0.733971">
        <ele>654.114</ele>
        <time>2018-11-24T12:37:49Z</time>
      </trkpt>
      <trkpt lat="42.270121" lon="0.734002">
        <ele>653.898</ele>
        <time>2018-11-24T12:37:50Z</time>
      </trkpt>
      <trkpt lat="42.269950" lon="0.734025">
        <ele>653.492</ele>
        <time>2018-11-24T12:37:51Z</time>
      </trkpt>
      <trkpt lat="42.269784" lon="0.734041">
        <ele>652.973</ele>
        <time>2018-11-24T12:37:52Z</time>
      </trkpt>
      <trkpt lat="42.269610" lon="0.734066">
        <ele>652.720</ele>
        <time>2018-11-24T12:37:53Z</time>
      </trkpt>
      <trkpt lat="42.269429" lon="0.734091">
        <ele>652.608</ele>
        <time>2018-11-24T12:37:54Z</time>
      </trkpt>
      <trkpt lat="42.269240" lon="0.734118">
        <ele>652.692</ele>
        <time>2018-11-24T12:37:55Z</time>
      </trkpt>
      <trkpt lat="42.269047" lon="0.734147">
        <ele>652.529</ele>
        <time>2018-11-24T12:37:56Z</time>
      </trkpt>
      <trkpt lat="42.268847" lon="0.734176">
        <ele>652.496</ele>
        <time>2018-11-24T12:37:57Z</time>
      </trkpt>
      <trkpt lat="42.268641" lon="0.734206">
        <ele>652.537</ele>
        <time>2018-11-24T12:37:58Z</time>
      </trkpt>
      <trkpt lat="42.268434" lon="0.734237">
        <ele>652.315</ele>
        <time>2018-11-24T12:37:59Z</time>
      </trkpt>
      <trkpt lat="42.268232" lon="0.734265">
        <ele>651.837</ele>
        <time>2018-11-24T12:38:00Z</time>
      </trkpt>
      <trkpt lat="42.268035" lon="0.734295">
        <ele>651.370</ele>
        <time>2018-11-24T12:38:01Z</time>
      </trkpt>
      <trkpt lat="42.267843" lon="0.734325">
        <ele>650.994</ele>
        <time>2018-11-24T12:38:02Z</time>
      </trkpt>
      <trkpt lat="42.267653" lon="0.734351">
        <ele>650.622</ele>
        <time>2018-11-24T12:38:03Z</time>
      </trkpt>
      <trkpt lat="42.267457" lon="0.734381">
        <ele>650.462</ele>
        <time>2018-11-24T12:38:04Z</time>
      </trkpt>
      <trkpt lat="42.267247" lon="0.734410">
        <ele>650.308</ele>
        <time>2018-11-24T12:38:05Z</time>
      </trkpt>
      <trkpt lat="42.267020" lon="0.734443">
        <ele>650.508</ele>
        <time>2018-11-24T12:38:06Z</time>
      </trkpt>
      <trkpt lat="42.266779" lon="0.734486">
        <ele>651.175</ele>
        <time>2018-11-24T12:38:07Z</time>
      </trkpt>
      <trkpt lat="42.266524" lon="0.734538">
        <ele>651.242</ele>
        <time>2018-11-24T12:38:08Z</time>
      </trkpt>
      <trkpt lat="42.266254" lon="0.734592">
        <ele>651.159</ele>
        <time>2018-11-24T12:38:09Z</time>
      </trkpt>
      <trkpt lat="42.265970" lon="0.734638">
        <ele>651.230</ele>
        <time>2018-11-24T12:38:10Z</time>
      </trkpt>
      <trkpt lat="42.265674" lon="0.734683">
        <ele>651.888</ele>
        <time>2018-11-24T12:38:11Z</time>
      </trkpt>
      <trkpt lat="42.265375" lon="0.734723">
        <ele>651.270</ele>
        <time>2018-11-24T12:38:12Z</time>
      </trkpt>
      <trkpt lat="42.265084" lon="0.734755">
        <ele>650.423</ele>
        <time>2018-11-24T12:38:13Z</time>
      </trkpt>
      <trkpt lat="42.264782" lon="0.734785">
        <ele>650.017</ele>
        <time>2018-11-24T12:38:14Z</time>
      </trkpt>
      <trkpt lat="42.264494" lon="0.734816">
        <ele>649.124</ele>
        <time>2018-11-24T12:38:15Z</time>
      </trkpt>
      <trkpt lat="42.264202" lon="0.734854">
        <ele>648.404</ele>
        <time>2018-11-24T12:38:16Z</time>
      </trkpt>
      <trkpt lat="42.263911" lon="0.734897">
        <ele>648.014</ele>
        <time>2018-11-24T12:38:17Z</time>
      </trkpt>
      <trkpt lat="42.263615" lon="0.734940">
        <ele>647.408</ele>
        <time>2018-11-24T12:38:18Z</time>
      </trkpt>
      <trkpt lat="42.263310" lon="0.734986">
        <ele>646.955</ele>
        <time>2018-11-24T12:38:19Z</time>
      </trkpt>
      <trkpt lat="42.263000" lon="0.735032">
        <ele>646.872</ele>
        <time>2018-11-24T12:38:20Z</time>
      </trkpt>
      <trkpt lat="42.262685" lon="0.735083">
        <ele>646.779</ele>
        <time>2018-11-24T12:38:21Z</time>
      </trkpt>
      <trkpt lat="42.262377" lon="0.735132">
        <ele>646.090</ele>
        <time>2018-11-24T12:38:22Z</time>
      </trkpt>
      <trkpt lat="42.262068" lon="0.735181">
        <ele>645.468</ele>
        <time>2018-11-24T12:38:23Z</time>
      </trkpt>
      <trkpt lat="42.261761" lon="0.735227">
        <ele>644.710</ele>
        <time>2018-11-24T12:38:24Z</time>
      </trkpt>
      <trkpt lat="42.261462" lon="0.735272">
        <ele>643.953</ele>
        <time>2018-11-24T12:38:25Z</time>
      </trkpt>
      <trkpt lat="42.261175" lon="0.735315">
        <ele>642.887</ele>
        <time>2018-11-24T12:38:26Z</time>
      </trkpt>
      <trkpt lat="42.260887" lon="0.735358">
        <ele>642.362</ele>
        <time>2018-11-24T12:38:27Z</time>
      </trkpt>
      <trkpt lat="42.260594" lon="0.735402">
        <ele>641.983</ele>
        <time>2018-11-24T12:38:28Z</time>
      </trkpt>
      <trkpt lat="42.260294" lon="0.735446">
        <ele>641.211</ele>
        <time>2018-11-24T12:38:29Z</time>
      </trkpt>
      <trkpt lat="42.259992" lon="0.735486">
        <ele>640.508</ele>
        <time>2018-11-24T12:38:30Z</time>
      </trkpt>
      <trkpt lat="42.259679" lon="0.735522">
        <ele>640.129</ele>
        <time>2018-11-24T12:38:31Z</time>
      </trkpt>
      <trkpt lat="42.259355" lon="0.735536">
        <ele>639.626</ele>
        <time>2018-11-24T12:38:32Z</time>
      </trkpt>
      <trkpt lat="42.259024" lon="0.735537">
        <ele>638.613</ele>
        <time>2018-11-24T12:38:33Z</time>
      </trkpt>
      <trkpt lat="42.258702" lon="0.735531">
        <ele>637.634</ele>
        <time>2018-11-24T12:38:34Z</time>
      </trkpt>
      <trkpt lat="42.258400" lon="0.735526">
        <ele>635.872</ele>
        <time>2018-11-24T12:38:35Z</time>
      </trkpt>
      <trkpt lat="42.258107" lon="0.735520">
        <ele>634.044</ele>
        <time>2018-11-24T12:38:36Z</time>
      </trkpt>
      <trkpt lat="42.257830" lon="0.735514">
        <ele>632.267</ele>
        <time>2018-11-24T12:38:37Z</time>
      </trkpt>
      <trkpt lat="42.257560" lon="0.735507">
        <ele>630.881</ele>
        <time>2018-11-24T12:38:38Z</time>
      </trkpt>
      <trkpt lat="42.257291" lon="0.735502">
        <ele>630.292</ele>
        <time>2018-11-24T12:38:39Z</time>
      </trkpt>
      <trkpt lat="42.257023" lon="0.735496">
        <ele>630.073</ele>
        <time>2018-11-24T12:38:40Z</time>
      </trkpt>
      <trkpt lat="42.256763" lon="0.735490">
        <ele>629.820</ele>
        <time>2018-11-24T12:38:41Z</time>
      </trkpt>
      <trkpt lat="42.256518" lon="0.735488">
        <ele>629.308</ele>
        <time>2018-11-24T12:38:42Z</time>
      </trkpt>
      <trkpt lat="42.256295" lon="0.735483">
        <ele>629.112</ele>
        <time>2018-11-24T12:38:43Z</time>
      </trkpt>
      <trkpt lat="42.256104" lon="0.735472">
        <ele>628.349</ele>
        <time>2018-11-24T12:38:44Z</time>
      </trkpt>
      <trkpt lat="42.255926" lon="0.735458">
        <ele>627.996</ele>
        <time>2018-11-24T12:38:45Z</time>
      </trkpt>
      <trkpt lat="42.255746" lon="0.735406">
        <ele>627.977</ele>
        <time>2018-11-24T12:38:46Z</time>
      </trkpt>
      <trkpt lat="42.255563" lon="0.735343">
        <ele>628.065</ele>
        <time>2018-11-24T12:38:47Z</time>
      </trkpt>
      <trkpt lat="42.255391" lon="0.735230">
        <ele>628.417</ele>
        <time>2018-11-24T12:38:48Z</time>
      </trkpt>
      <trkpt lat="42.255277" lon="0.735052">
        <ele>628.490</ele>
        <time>2018-11-24T12:38:49Z</time>
      </trkpt>
      <trkpt lat="42.255177" lon="0.734862">
        <ele>628.454</ele>
        <time>2018-11-24T12:38:50Z</time>
      </trkpt>
      <trkpt lat="42.255099" lon="0.734648">
        <ele>628.632</ele>
        <time>2018-11-24T12:38:51Z</time>
      </trkpt>
      <trkpt lat="42.255020" lon="0.734440">
        <ele>628.892</ele>
        <time>2018-11-24T12:38:52Z</time>
      </trkpt>
      <trkpt lat="42.254943" lon="0.734245">
        <ele>629.011</ele>
        <time>2018-11-24T12:38:53Z</time>
      </trkpt>
      <trkpt lat="42.254864" lon="0.734057">
        <ele>629.108</ele>
        <time>2018-11-24T12:38:54Z</time>
      </trkpt>
      <trkpt lat="42.254786" lon="0.733875">
        <ele>629.396</ele>
        <time>2018-11-24T12:38:55Z</time>
      </trkpt>
      <trkpt lat="42.254713" lon="0.733695">
        <ele>629.623</ele>
        <time>2018-11-24T12:38:56Z</time>
      </trkpt>
      <trkpt lat="42.254636" lon="0.733514">
        <ele>629.630</ele>
        <time>2018-11-24T12:38:57Z</time>
      </trkpt>
      <trkpt lat="42.254563" lon="0.733337">
        <ele>629.751</ele>
        <time>2018-11-24T12:38:58Z</time>
      </trkpt>
      <trkpt lat="42.254487" lon="0.733164">
        <ele>629.979</ele>
        <time>2018-11-24T12:38:59Z</time>
      </trkpt>
      <trkpt lat="42.254410" lon="0.732992">
        <ele>629.851</ele>
        <time>2018-11-24T12:39:00Z</time>
      </trkpt>
      <trkpt lat="42.254333" lon="0.732819">
        <ele>629.874</ele>
        <time>2018-11-24T12:39:01Z</time>
      </trkpt>
      <trkpt lat="42.254257" lon="0.732650">
        <ele>629.828</ele>
        <time>2018-11-24T12:39:02Z</time>
      </trkpt>
      <trkpt lat="42.254183" lon="0.732483">
        <ele>629.779</ele>
        <time>2018-11-24T12:39:03Z</time>
      </trkpt>
      <trkpt lat="42.254113" lon="0.732318">
        <ele>629.705</ele>
        <time>2018-11-24T12:39:04Z</time>
      </trkpt>
      <trkpt lat="42.254041" lon="0.732155">
        <ele>629.825</ele>
        <time>2018-11-24T12:39:05Z</time>
      </trkpt>
      <trkpt lat="42.253967" lon="0.731989">
        <ele>629.908</ele>
        <time>2018-11-24T12:39:06Z</time>
      </trkpt>
      <trkpt lat="42.253891" lon="0.731818">
        <ele>629.940</ele>
        <time>2018-11-24T12:39:07Z</time>
      </trkpt>
      <trkpt lat="42.253815" lon="0.731647">
        <ele>629.997</ele>
        <time>2018-11-24T12:39:08Z</time>
      </trkpt>
      <trkpt lat="42.253740" lon="0.731480">
        <ele>629.764</ele>
        <time>2018-11-24T12:39:09Z</time>
      </trkpt>
      <trkpt lat="42.253669" lon="0.731314">
        <ele>629.755</ele>
        <time>2018-11-24T12:39:10Z</time>
      </trkpt>
      <trkpt lat="42.253595" lon="0.731142">
        <ele>629.963</ele>
        <time>2018-11-24T12:39:11Z</time>
      </trkpt>
      <trkpt lat="42.253514" lon="0.730961">
        <ele>630.145</ele>
        <time>2018-11-24T12:39:12Z</time>
      </trkpt>
      <trkpt lat="42.253425" lon="0.730763">
        <ele>630.638</ele>
        <time>2018-11-24T12:39:13Z</time>
      </trkpt>
      <trkpt lat="42.253326" lon="0.730548">
        <ele>631.122</ele>
        <time>2018-11-24T12:39:14Z</time>
      </trkpt>
      <trkpt lat="42.253224" lon="0.730314">
        <ele>631.745</ele>
        <time>2018-11-24T12:39:15Z</time>
      </trkpt>
      <trkpt lat="42.253112" lon="0.730062">
        <ele>632.647</ele>
        <time>2018-11-24T12:39:16Z</time>
      </trkpt>
      <trkpt lat="42.253003" lon="0.729811">
        <ele>632.811</ele>
        <time>2018-11-24T12:39:17Z</time>
      </trkpt>
      <trkpt lat="42.252898" lon="0.729570">
        <ele>632.708</ele>
        <time>2018-11-24T12:39:18Z</time>
      </trkpt>
      <trkpt lat="42.252789" lon="0.729326">
        <ele>633.067</ele>
        <time>2018-11-24T12:39:19Z</time>
      </trkpt>
      <trkpt lat="42.252676" lon="0.729072">
        <ele>633.784</ele>
        <time>2018-11-24T12:39:20Z</time>
      </trkpt>
      <trkpt lat="42.252560" lon="0.728805">
        <ele>634.151</ele>
        <time>2018-11-24T12:39:21Z</time>
      </trkpt>
      <trkpt lat="42.252439" lon="0.728525">
        <ele>635.092</ele>
        <time>2018-11-24T12:39:22Z</time>
      </trkpt>
      <trkpt lat="42.252314" lon="0.728246">
        <ele>635.450</ele>
        <time>2018-11-24T12:39:23Z</time>
      </trkpt>
      <trkpt lat="42.252183" lon="0.727972">
        <ele>635.782</ele>
        <time>2018-11-24T12:39:24Z</time>
      </trkpt>
      <trkpt lat="42.252036" lon="0.727710">
        <ele>635.775</ele>
        <time>2018-11-24T12:39:25Z</time>
      </trkpt>
      <trkpt lat="42.251870" lon="0.727469">
        <ele>635.579</ele>
        <time>2018-11-24T12:39:26Z</time>
      </trkpt>
      <trkpt lat="42.251679" lon="0.727256">
        <ele>635.256</ele>
        <time>2018-11-24T12:39:27Z</time>
      </trkpt>
      <trkpt lat="42.251467" lon="0.727068">
        <ele>635.159</ele>
        <time>2018-11-24T12:39:28Z</time>
      </trkpt>
      <trkpt lat="42.251233" lon="0.726915">
        <ele>634.514</ele>
        <time>2018-11-24T12:39:29Z</time>
      </trkpt>
      <trkpt lat="42.250986" lon="0.726776">
        <ele>634.608</ele>
        <time>2018-11-24T12:39:30Z</time>
      </trkpt>
      <trkpt lat="42.250717" lon="0.726675">
        <ele>634.598</ele>
        <time>2018-11-24T12:39:31Z</time>
      </trkpt>
      <trkpt lat="42.250442" lon="0.726565">
        <ele>634.435</ele>
        <time>2018-11-24T12:39:32Z</time>
      </trkpt>
      <trkpt lat="42.250161" lon="0.726456">
        <ele>634.542</ele>
        <time>2018-11-24T12:39:33Z</time>
      </trkpt>
      <trkpt lat="42.249867" lon="0.726341">
        <ele>634.643</ele>
        <time>2018-11-24T12:39:34Z</time>
      </trkpt>
      <trkpt lat="42.249562" lon="0.726227">
        <ele>634.621</ele>
        <time>2018-11-24T12:39:35Z</time>
      </trkpt>
      <trkpt lat="42.249252" lon="0.726104">
        <ele>634.533</ele>
        <time>2018-11-24T12:39:36Z</time>
      </trkpt>
      <trkpt lat="42.248936" lon="0.725980">
        <ele>634.276</ele>
        <time>2018-11-24T12:39:37Z</time>
      </trkpt>
      <trkpt lat="42.248626" lon="0.725860">
        <ele>634.010</ele>
        <time>2018-11-24T12:39:38Z</time>
      </trkpt>
      <trkpt lat="42.248330" lon="0.725745">
        <ele>633.286</ele>
        <time>2018-11-24T12:39:39Z</time>
      </trkpt>
      <trkpt lat="42.248045" lon="0.725637">
        <ele>632.360</ele>
        <time>2018-11-24T12:39:40Z</time>
      </trkpt>
      <trkpt lat="42.247772" lon="0.725529">
        <ele>631.726</ele>
        <time>2018-11-24T12:39:41Z</time>
      </trkpt>
      <trkpt lat="42.247510" lon="0.725418">
        <ele>631.108</ele>
        <time>2018-11-24T12:39:42Z</time>
      </trkpt>
      <trkpt lat="42.247254" lon="0.725285">
        <ele>631.051</ele>
        <time>2018-11-24T12:39:43Z</time>
      </trkpt>
      <trkpt lat="42.247007" lon="0.725110">
        <ele>631.178</ele>
        <time>2018-11-24T12:39:44Z</time>
      </trkpt>
      <trkpt lat="42.246759" lon="0.724901">
        <ele>631.235</ele>
        <time>2018-11-24T12:39:45Z</time>
      </trkpt>
      <trkpt lat="42.246508" lon="0.724673">
        <ele>631.326</ele>
        <time>2018-11-24T12:39:46Z</time>
      </trkpt>
      <trkpt lat="42.246251" lon="0.724434">
        <ele>631.444</ele>
        <time>2018-11-24T12:39:47Z</time>
      </trkpt>
      <trkpt lat="42.245984" lon="0.724183">
        <ele>631.316</ele>
        <time>2018-11-24T12:39:48Z</time>
      </trkpt>
      <trkpt lat="42.245698" lon="0.723938">
        <ele>631.189</ele>
        <time>2018-11-24T12:39:49Z</time>
      </trkpt>
      <trkpt lat="42.245414" lon="0.723667">
        <ele>631.133</ele>
        <time>2018-11-24T12:39:50Z</time>
      </trkpt>
      <trkpt lat="42.245119" lon="0.723394">
        <ele>630.595</ele>
        <time>2018-11-24T12:39:51Z</time>
      </trkpt>
      <trkpt lat="42.244819" lon="0.723113">
        <ele>630.349</ele>
        <time>2018-11-24T12:39:52Z</time>
      </trkpt>
      <trkpt lat="42.244510" lon="0.722824">
        <ele>629.723</ele>
        <time>2018-11-24T12:39:53Z</time>
      </trkpt>
      <trkpt lat="42.244198" lon="0.722530">
        <ele>629.308</ele>
        <time>2018-11-24T12:39:54Z</time>
      </trkpt>
      <trkpt lat="42.243893" lon="0.722234">
        <ele>628.522</ele>
        <time>2018-11-24T12:39:55Z</time>
      </trkpt>
      <trkpt lat="42.243582" lon="0.721946">
        <ele>627.529</ele>
        <time>2018-11-24T12:39:56Z</time>
      </trkpt>
      <trkpt lat="42.243278" lon="0.721673">
        <ele>626.626</ele>
        <time>2018-11-24T12:39:57Z</time>
      </trkpt>
      <trkpt lat="42.242985" lon="0.721413">
        <ele>625.967</ele>
        <time>2018-11-24T12:39:58Z</time>
      </trkpt>
      <trkpt lat="42.242696" lon="0.721168">
        <ele>625.875</ele>
        <time>2018-11-24T12:39:59Z</time>
      </trkpt>
      <trkpt lat="42.242406" lon="0.720933">
        <ele>625.927</ele>
        <time>2018-11-24T12:40:00Z</time>
      </trkpt>
      <trkpt lat="42.242114" lon="0.720707">
        <ele>626.070</ele>
        <time>2018-11-24T12:40:01Z</time>
      </trkpt>
      <trkpt lat="42.241823" lon="0.720489">
        <ele>625.814</ele>
        <time>2018-11-24T12:40:02Z</time>
      </trkpt>
      <trkpt lat="42.241527" lon="0.720276">
        <ele>625.661</ele>
        <time>2018-11-24T12:40:03Z</time>
      </trkpt>
      <trkpt lat="42.241227" lon="0.720053">
        <ele>625.121</ele>
        <time>2018-11-24T12:40:04Z</time>
      </trkpt>
      <trkpt lat="42.240922" lon="0.719822">
        <ele>624.713</ele>
        <time>2018-11-24T12:40:05Z</time>
      </trkpt>
      <trkpt lat="42.240616" lon="0.719588">
        <ele>624.308</ele>
        <time>2018-11-24T12:40:06Z</time>
      </trkpt>
      <trkpt lat="42.240309" lon="0.719357">
        <ele>624.169</ele>
        <time>2018-11-24T12:40:07Z</time>
      </trkpt>
      <trkpt lat="42.240007" lon="0.719130">
        <ele>623.886</ele>
        <time>2018-11-24T12:40:08Z</time>
      </trkpt>
      <trkpt lat="42.239712" lon="0.718910">
        <ele>623.123</ele>
        <time>2018-11-24T12:40:09Z</time>
      </trkpt>
      <trkpt lat="42.239423" lon="0.718690">
        <ele>621.984</ele>
        <time>2018-11-24T12:40:10Z</time>
      </trkpt>
      <trkpt lat="42.239139" lon="0.718476">
        <ele>621.312</ele>
        <time>2018-11-24T12:40:11Z</time>
      </trkpt>
      <trkpt lat="42.238859" lon="0.718264">
        <ele>621.234</ele>
        <time>2018-11-24T12:40:12Z</time>
      </trkpt>
      <trkpt lat="42.238577" lon="0.718052">
        <ele>621.077</ele>
        <time>2018-11-24T12:40:13Z</time>
      </trkpt>
      <trkpt lat="42.238296" lon="0.717839">
        <ele>621.071</ele>
        <time>2018-11-24T12:40:14Z</time>
      </trkpt>
      <trkpt lat="42.238015" lon="0.717625">
        <ele>621.065</ele>
        <time>2018-11-24T12:40:15Z</time>
      </trkpt>
      <trkpt lat="42.237734" lon="0.717413">
        <ele>620.868</ele>
        <time>2018-11-24T12:40:16Z</time>
      </trkpt>
      <trkpt lat="42.237454" lon="0.717203">
        <ele>620.714</ele>
        <time>2018-11-24T12:40:17Z</time>
      </trkpt>
      <trkpt lat="42.237177" lon="0.716992">
        <ele>620.408</ele>
        <time>2018-11-24T12:40:18Z</time>
      </trkpt>
      <trkpt lat="42.236903" lon="0.716783">
        <ele>619.999</ele>
        <time>2018-11-24T12:40:19Z</time>
      </trkpt>
      <trkpt lat="42.236637" lon="0.716581">
        <ele>619.196</ele>
        <time>2018-11-24T12:40:20Z</time>
      </trkpt>
      <trkpt lat="42.236367" lon="0.716378">
        <ele>617.923</ele>
        <time>2018-11-24T12:40:21Z</time>
      </trkpt>
      <trkpt lat="42.236087" lon="0.716181">
        <ele>617.364</ele>
        <time>2018-11-24T12:40:22Z</time>
      </trkpt>
      <trkpt lat="42.235794" lon="0.715998">
        <ele>616.542</ele>
        <time>2018-11-24T12:40:23Z</time>
      </trkpt>
      <trkpt lat="42.235498" lon="0.715821">
        <ele>615.744</ele>
        <time>2018-11-24T12:40:24Z</time>
      </trkpt>
      <trkpt lat="42.235178" lon="0.715688">
        <ele>614.747</ele>
        <time>2018-11-24T12:40:25Z</time>
      </trkpt>
      <trkpt lat="42.234861" lon="0.715564">
        <ele>614.751</ele>
        <time>2018-11-24T12:40:26Z</time>
      </trkpt>
      <trkpt lat="42.234542" lon="0.715453">
        <ele>614.878</ele>
        <time>2018-11-24T12:40:27Z</time>
      </trkpt>
      <trkpt lat="42.234230" lon="0.715350">
        <ele>614.233</ele>
        <time>2018-11-24T12:40:28Z</time>
      </trkpt>
      <trkpt lat="42.233925" lon="0.715253">
        <ele>614.126</ele>
        <time>2018-11-24T12:40:29Z</time>
      </trkpt>
      <trkpt lat="42.233609" lon="0.715169">
        <ele>614.608</ele>
        <time>2018-11-24T12:40:30Z</time>
      </trkpt>
      <trkpt lat="42.233287" lon="0.715114">
        <ele>615.080</ele>
        <time>2018-11-24T12:40:31Z</time>
      </trkpt>
      <trkpt lat="42.232954" lon="0.715081">
        <ele>615.077</ele>
        <time>2018-11-24T12:40:32Z</time>
      </trkpt>
      <trkpt lat="42.232613" lon="0.715069">
        <ele>615.144</ele>
        <time>2018-11-24T12:40:33Z</time>
      </trkpt>
      <trkpt lat="42.232275" lon="0.715058">
        <ele>614.635</ele>
        <time>2018-11-24T12:40:34Z</time>
      </trkpt>
      <trkpt lat="42.231941" lon="0.715044">
        <ele>614.033</ele>
        <time>2018-11-24T12:40:35Z</time>
      </trkpt>
      <trkpt lat="42.231615" lon="0.715025">
        <ele>613.235</ele>
        <time>2018-11-24T12:40:36Z</time>
      </trkpt>
      <trkpt lat="42.231290" lon="0.715006">
        <ele>612.418</ele>
        <time>2018-11-24T12:40:37Z</time>
      </trkpt>
      <trkpt lat="42.230970" lon="0.714986">
        <ele>611.542</ele>
        <time>2018-11-24T12:40:38Z</time>
      </trkpt>
      <trkpt lat="42.230652" lon="0.714972">
        <ele>610.959</ele>
        <time>2018-11-24T12:40:39Z</time>
      </trkpt>
      <trkpt lat="42.230344" lon="0.714962">
        <ele>609.903</ele>
        <time>2018-11-24T12:40:40Z</time>
      </trkpt>
      <trkpt lat="42.230042" lon="0.714953">
        <ele>608.823</ele>
        <time>2018-11-24T12:40:41Z</time>
      </trkpt>
      <trkpt lat="42.229749" lon="0.714947">
        <ele>607.708</ele>
        <time>2018-11-24T12:40:42Z</time>
      </trkpt>
      <trkpt lat="42.229464" lon="0.714943">
        <ele>606.888</ele>
        <time>2018-11-24T12:40:43Z</time>
      </trkpt>
      <trkpt lat="42.229185" lon="0.714938">
        <ele>605.955</ele>
        <time>2018-11-24T12:40:44Z</time>
      </trkpt>
      <trkpt lat="42.228906" lon="0.714933">
        <ele>605.232</ele>
        <time>2018-11-24T12:40:45Z</time>
      </trkpt>
      <trkpt lat="42.228624" lon="0.714927">
        <ele>604.733</ele>
        <time>2018-11-24T12:40:46Z</time>
      </trkpt>
      <trkpt lat="42.228340" lon="0.714919">
        <ele>604.421</ele>
        <time>2018-11-24T12:40:47Z</time>
      </trkpt>
      <trkpt lat="42.228054" lon="0.714915">
        <ele>604.153</ele>
        <time>2018-11-24T12:40:48Z</time>
      </trkpt>
      <trkpt lat="42.227768" lon="0.714899">
        <ele>603.466</ele>
        <time>2018-11-24T12:40:49Z</time>
      </trkpt>
      <trkpt lat="42.227483" lon="0.714873">
        <ele>603.030</ele>
        <time>2018-11-24T12:40:50Z</time>
      </trkpt>
      <trkpt lat="42.227194" lon="0.714840">
        <ele>603.181</ele>
        <time>2018-11-24T12:40:51Z</time>
      </trkpt>
      <trkpt lat="42.226918" lon="0.714795">
        <ele>603.361</ele>
        <time>2018-11-24T12:40:52Z</time>
      </trkpt>
      <trkpt lat="42.226646" lon="0.714731">
        <ele>603.417</ele>
        <time>2018-11-24T12:40:53Z</time>
      </trkpt>
      <trkpt lat="42.226377" lon="0.714654">
        <ele>604.008</ele>
        <time>2018-11-24T12:40:54Z</time>
      </trkpt>
      <trkpt lat="42.226105" lon="0.714550">
        <ele>604.851</ele>
        <time>2018-11-24T12:40:55Z</time>
      </trkpt>
      <trkpt lat="42.225823" lon="0.714430">
        <ele>605.518</ele>
        <time>2018-11-24T12:40:56Z</time>
      </trkpt>
      <trkpt lat="42.225536" lon="0.714295">
        <ele>606.285</ele>
        <time>2018-11-24T12:40:57Z</time>
      </trkpt>
      <trkpt lat="42.225245" lon="0.714146">
        <ele>606.466</ele>
        <time>2018-11-24T12:40:58Z</time>
      </trkpt>
      <trkpt lat="42.224961" lon="0.713991">
        <ele>606.614</ele>
        <time>2018-11-24T12:40:59Z</time>
      </trkpt>
      <trkpt lat="42.224681" lon="0.713835">
        <ele>606.466</ele>
        <time>2018-11-24T12:41:00Z</time>
      </trkpt>
      <trkpt lat="42.224407" lon="0.713663">
        <ele>605.979</ele>
        <time>2018-11-24T12:41:01Z</time>
      </trkpt>
      <trkpt lat="42.224134" lon="0.713486">
        <ele>605.453</ele>
        <time>2018-11-24T12:41:02Z</time>
      </trkpt>
      <trkpt lat="42.223852" lon="0.713306">
        <ele>604.913</ele>
        <time>2018-11-24T12:41:03Z</time>
      </trkpt>
      <trkpt lat="42.223566" lon="0.713123">
        <ele>603.943</ele>
        <time>2018-11-24T12:41:04Z</time>
      </trkpt>
      <trkpt lat="42.223264" lon="0.712955">
        <ele>603.107</ele>
        <time>2018-11-24T12:41:05Z</time>
      </trkpt>
      <trkpt lat="42.222959" lon="0.712808">
        <ele>602.108</ele>
        <time>2018-11-24T12:41:06Z</time>
      </trkpt>
      <trkpt lat="42.222647" lon="0.712692">
        <ele>601.274</ele>
        <time>2018-11-24T12:41:07Z</time>
      </trkpt>
      <trkpt lat="42.222331" lon="0.712619">
        <ele>600.351</ele>
        <time>2018-11-24T12:41:08Z</time>
      </trkpt>
      <trkpt lat="42.222012" lon="0.712585">
        <ele>599.558</ele>
        <time>2018-11-24T12:41:09Z</time>
      </trkpt>
      <trkpt lat="42.221692" lon="0.712590">
        <ele>598.999</ele>
        <time>2018-11-24T12:41:10Z</time>
      </trkpt>
      <trkpt lat="42.221369" lon="0.712623">
        <ele>598.187</ele>
        <time>2018-11-24T12:41:11Z</time>
      </trkpt>
      <trkpt lat="42.221049" lon="0.712706">
        <ele>597.969</ele>
        <time>2018-11-24T12:41:12Z</time>
      </trkpt>
      <trkpt lat="42.220737" lon="0.712818">
        <ele>597.882</ele>
        <time>2018-11-24T12:41:13Z</time>
      </trkpt>
      <trkpt lat="42.220422" lon="0.712944">
        <ele>598.396</ele>
        <time>2018-11-24T12:41:14Z</time>
      </trkpt>
      <trkpt lat="42.220104" lon="0.713054">
        <ele>598.738</ele>
        <time>2018-11-24T12:41:15Z</time>
      </trkpt>
      <trkpt lat="42.219794" lon="0.713157">
        <ele>599.170</ele>
        <time>2018-11-24T12:41:16Z</time>
      </trkpt>
      <trkpt lat="42.219480" lon="0.713237">
        <ele>599.317</ele>
        <time>2018-11-24T12:41:17Z</time>
      </trkpt>
      <trkpt lat="42.219157" lon="0.713289">
        <ele>599.808</ele>
        <time>2018-11-24T12:41:18Z</time>
      </trkpt>
      <trkpt lat="42.218840" lon="0.713315">
        <ele>599.966</ele>
        <time>2018-11-24T12:41:19Z</time>
      </trkpt>
      <trkpt lat="42.218525" lon="0.713291">
        <ele>600.173</ele>
        <time>2018-11-24T12:41:20Z</time>
      </trkpt>
      <trkpt lat="42.218211" lon="0.713233">
        <ele>600.010</ele>
        <time>2018-11-24T12:41:21Z</time>
      </trkpt>
      <trkpt lat="42.217903" lon="0.713146">
        <ele>600.011</ele>
        <time>2018-11-24T12:41:22Z</time>
      </trkpt>
      <trkpt lat="42.217594" lon="0.713014">
        <ele>599.569</ele>
        <time>2018-11-24T12:41:23Z</time>
      </trkpt>
      <trkpt lat="42.217284" lon="0.712870">
        <ele>598.841</ele>
        <time>2018-11-24T12:41:24Z</time>
      </trkpt>
      <trkpt lat="42.216968" lon="0.712721">
        <ele>598.654</ele>
        <time>2018-11-24T12:41:25Z</time>
      </trkpt>
      <trkpt lat="42.216643" lon="0.712577">
        <ele>598.128</ele>
        <time>2018-11-24T12:41:26Z</time>
      </trkpt>
      <trkpt lat="42.216313" lon="0.712445">
        <ele>597.651</ele>
        <time>2018-11-24T12:41:27Z</time>
      </trkpt>
      <trkpt lat="42.215975" lon="0.712330">
        <ele>596.701</ele>
        <time>2018-11-24T12:41:28Z</time>
      </trkpt>
      <trkpt lat="42.215633" lon="0.712248">
        <ele>595.811</ele>
        <time>2018-11-24T12:41:29Z</time>
      </trkpt>
      <trkpt lat="42.215286" lon="0.712193">
        <ele>595.108</ele>
        <time>2018-11-24T12:41:30Z</time>
      </trkpt>
      <trkpt lat="42.214931" lon="0.712165">
        <ele>594.118</ele>
        <time>2018-11-24T12:41:31Z</time>
      </trkpt>
      <trkpt lat="42.214573" lon="0.712165">
        <ele>593.375</ele>
        <time>2018-11-24T12:41:32Z</time>
      </trkpt>
      <trkpt lat="42.214208" lon="0.712197">
        <ele>592.522</ele>
        <time>2018-11-24T12:41:33Z</time>
      </trkpt>
      <trkpt lat="42.213835" lon="0.712254">
        <ele>592.473</ele>
        <time>2018-11-24T12:41:34Z</time>
      </trkpt>
      <trkpt lat="42.213468" lon="0.712332">
        <ele>591.611</ele>
        <time>2018-11-24T12:41:35Z</time>
      </trkpt>
      <trkpt lat="42.213106" lon="0.712408">
        <ele>591.083</ele>
        <time>2018-11-24T12:41:36Z</time>
      </trkpt>
      <trkpt lat="42.212749" lon="0.712474">
        <ele>589.756</ele>
        <time>2018-11-24T12:41:37Z</time>
      </trkpt>
      <trkpt lat="42.212397" lon="0.712525">
        <ele>588.620</ele>
        <time>2018-11-24T12:41:38Z</time>
      </trkpt>
      <trkpt lat="42.212060" lon="0.712558">
        <ele>587.456</ele>
        <time>2018-11-24T12:41:39Z</time>
      </trkpt>
      <trkpt lat="42.211730" lon="0.712570">
        <ele>586.459</ele>
        <time>2018-11-24T12:41:40Z</time>
      </trkpt>
      <trkpt lat="42.211414" lon="0.712571">
        <ele>585.614</ele>
        <time>2018-11-24T12:41:41Z</time>
      </trkpt>
      <trkpt lat="42.211110" lon="0.712525">
        <ele>584.508</ele>
        <time>2018-11-24T12:41:42Z</time>
      </trkpt>
      <trkpt lat="42.210806" lon="0.712445">
        <ele>584.888</ele>
        <time>2018-11-24T12:41:43Z</time>
      </trkpt>
      <trkpt lat="42.210501" lon="0.712335">
        <ele>584.825</ele>
        <time>2018-11-24T12:41:44Z</time>
      </trkpt>
      <trkpt lat="42.210204" lon="0.712181">
        <ele>584.892</ele>
        <time>2018-11-24T12:41:45Z</time>
      </trkpt>
      <trkpt lat="42.209920" lon="0.711992">
        <ele>584.613</ele>
        <time>2018-11-24T12:41:46Z</time>
      </trkpt>
      <trkpt lat="42.209643" lon="0.711780">
        <ele>584.481</ele>
        <time>2018-11-24T12:41:47Z</time>
      </trkpt>
      <trkpt lat="42.209380" lon="0.711536">
        <ele>584.433</ele>
        <time>2018-11-24T12:41:48Z</time>
      </trkpt>
      <trkpt lat="42.209130" lon="0.711269">
        <ele>584.256</ele>
        <time>2018-11-24T12:41:49Z</time>
      </trkpt>
      <trkpt lat="42.208893" lon="0.710984">
        <ele>584.230</ele>
        <time>2018-11-24T12:41:50Z</time>
      </trkpt>
      <trkpt lat="42.208671" lon="0.710687">
        <ele>584.456</ele>
        <time>2018-11-24T12:41:51Z</time>
      </trkpt>
      <trkpt lat="42.208452" lon="0.710384">
        <ele>584.459</ele>
        <time>2018-11-24T12:41:52Z</time>
      </trkpt>
      <trkpt lat="42.208245" lon="0.710072">
        <ele>584.514</ele>
        <time>2018-11-24T12:41:53Z</time>
      </trkpt>
      <trkpt lat="42.208039" lon="0.709764">
        <ele>584.508</ele>
        <time>2018-11-24T12:41:54Z</time>
      </trkpt>
      <trkpt lat="42.207834" lon="0.709464">
        <ele>584.198</ele>
        <time>2018-11-24T12:41:55Z</time>
      </trkpt>
      <trkpt lat="42.207624" lon="0.709182">
        <ele>583.345</ele>
        <time>2018-11-24T12:41:56Z</time>
      </trkpt>
      <trkpt lat="42.207391" lon="0.708925">
        <ele>582.862</ele>
        <time>2018-11-24T12:41:57Z</time>
      </trkpt>
      <trkpt lat="42.207138" lon="0.708699">
        <ele>582.763</ele>
        <time>2018-11-24T12:41:58Z</time>
      </trkpt>
      <trkpt lat="42.206868" lon="0.708505">
        <ele>582.681</ele>
        <time>2018-11-24T12:41:59Z</time>
      </trkpt>
      <trkpt lat="42.206581" lon="0.708337">
        <ele>582.633</ele>
        <time>2018-11-24T12:42:00Z</time>
      </trkpt>
      <trkpt lat="42.206288" lon="0.708179">
        <ele>582.756</ele>
        <time>2018-11-24T12:42:01Z</time>
      </trkpt>
      <trkpt lat="42.206002" lon="0.708011">
        <ele>582.440</ele>
        <time>2018-11-24T12:42:02Z</time>
      </trkpt>
      <trkpt lat="42.205727" lon="0.707825">
        <ele>581.686</ele>
        <time>2018-11-24T12:42:03Z</time>
      </trkpt>
      <trkpt lat="42.205464" lon="0.707632">
        <ele>580.760</ele>
        <time>2018-11-24T12:42:04Z</time>
      </trkpt>
      <trkpt lat="42.205213" lon="0.707459">
        <ele>579.726</ele>
        <time>2018-11-24T12:42:05Z</time>
      </trkpt>
      <trkpt lat="42.204966" lon="0.707302">
        <ele>578.508</ele>
        <time>2018-11-24T12:42:06Z</time>
      </trkpt>
      <trkpt lat="42.204722" lon="0.707173">
        <ele>577.851</ele>
        <time>2018-11-24T12:42:07Z</time>
      </trkpt>
      <trkpt lat="42.204490" lon="0.707062">
        <ele>576.438</ele>
        <time>2018-11-24T12:42:08Z</time>
      </trkpt>
      <trkpt lat="42.204241" lon="0.706998">
        <ele>575.145</ele>
        <time>2018-11-24T12:42:09Z</time>
      </trkpt>
      <trkpt lat="42.203982" lon="0.706956">
        <ele>574.196</ele>
        <time>2018-11-24T12:42:10Z</time>
      </trkpt>
      <trkpt lat="42.203732" lon="0.706936">
        <ele>572.774</ele>
        <time>2018-11-24T12:42:11Z</time>
      </trkpt>
      <trkpt lat="42.203478" lon="0.706956">
        <ele>571.776</ele>
        <time>2018-11-24T12:42:12Z</time>
      </trkpt>
      <trkpt lat="42.203215" lon="0.707001">
        <ele>571.459</ele>
        <time>2018-11-24T12:42:13Z</time>
      </trkpt>
      <trkpt lat="42.202942" lon="0.707071">
        <ele>571.483</ele>
        <time>2018-11-24T12:42:14Z</time>
      </trkpt>
      <trkpt lat="42.202664" lon="0.707165">
        <ele>571.486</ele>
        <time>2018-11-24T12:42:15Z</time>
      </trkpt>
      <trkpt lat="42.202378" lon="0.707287">
        <ele>571.660</ele>
        <time>2018-11-24T12:42:16Z</time>
      </trkpt>
      <trkpt lat="42.202086" lon="0.707421">
        <ele>571.926</ele>
        <time>2018-11-24T12:42:17Z</time>
      </trkpt>
      <trkpt lat="42.201785" lon="0.707566">
        <ele>572.208</ele>
        <time>2018-11-24T12:42:18Z</time>
      </trkpt>
      <trkpt lat="42.201473" lon="0.707713">
        <ele>572.561</ele>
        <time>2018-11-24T12:42:19Z</time>
      </trkpt>
      <trkpt lat="42.201164" lon="0.707849">
        <ele>572.598</ele>
        <time>2018-11-24T12:42:20Z</time>
      </trkpt>
      <trkpt lat="42.200859" lon="0.707985">
        <ele>572.675</ele>
        <time>2018-11-24T12:42:21Z</time>
      </trkpt>
      <trkpt lat="42.200547" lon="0.708070">
        <ele>572.936</ele>
        <time>2018-11-24T12:42:22Z</time>
      </trkpt>
      <trkpt lat="42.200238" lon="0.708089">
        <ele>573.674</ele>
        <time>2018-11-24T12:42:23Z</time>
      </trkpt>
      <trkpt lat="42.199949" lon="0.708104">
        <ele>574.116</ele>
        <time>2018-11-24T12:42:24Z</time>
      </trkpt>
      <trkpt lat="42.199659" lon="0.708092">
        <ele>574.489</ele>
        <time>2018-11-24T12:42:25Z</time>
      </trkpt>
      <trkpt lat="42.199372" lon="0.708032">
        <ele>574.623</ele>
        <time>2018-11-24T12:42:26Z</time>
      </trkpt>
      <trkpt lat="42.199088" lon="0.707931">
        <ele>574.922</ele>
        <time>2018-11-24T12:42:27Z</time>
      </trkpt>
      <trkpt lat="42.198793" lon="0.707806">
        <ele>574.962</ele>
        <time>2018-11-24T12:42:28Z</time>
      </trkpt>
      <trkpt lat="42.198488" lon="0.707674">
        <ele>575.208</ele>
        <time>2018-11-24T12:42:29Z</time>
      </trkpt>
      <trkpt lat="42.198178" lon="0.707549">
        <ele>575.308</ele>
        <time>2018-11-24T12:42:30Z</time>
      </trkpt>
      <trkpt lat="42.197861" lon="0.707426">
        <ele>575.775</ele>
        <time>2018-11-24T12:42:31Z</time>
      </trkpt>
      <trkpt lat="42.197540" lon="0.707282">
        <ele>575.792</ele>
        <time>2018-11-24T12:42:32Z</time>
      </trkpt>
      <trkpt lat="42.197225" lon="0.707125">
        <ele>576.169</ele>
        <time>2018-11-24T12:42:33Z</time>
      </trkpt>
      <trkpt lat="42.196892" lon="0.706971">
        <ele>576.260</ele>
        <time>2018-11-24T12:42:34Z</time>
      </trkpt>
      <trkpt lat="42.196554" lon="0.706820">
        <ele>576.138</ele>
        <time>2018-11-24T12:42:35Z</time>
      </trkpt>
      <trkpt lat="42.196222" lon="0.706672">
        <ele>575.490</ele>
        <time>2018-11-24T12:42:36Z</time>
      </trkpt>
      <trkpt lat="42.195903" lon="0.706530">
        <ele>574.863</ele>
        <time>2018-11-24T12:42:37Z</time>
      </trkpt>
      <trkpt lat="42.195589" lon="0.706380">
        <ele>574.697</ele>
        <time>2018-11-24T12:42:38Z</time>
      </trkpt>
      <trkpt lat="42.195275" lon="0.706209">
        <ele>574.756</ele>
        <time>2018-11-24T12:42:39Z</time>
      </trkpt>
      <trkpt lat="42.194962" lon="0.706013">
        <ele>574.459</ele>
        <time>2018-11-24T12:42:40Z</time>
      </trkpt>
      <trkpt lat="42.194642" lon="0.705808">
        <ele>574.214</ele>
        <time>2018-11-24T12:42:41Z</time>
      </trkpt>
      <trkpt lat="42.194320" lon="0.705598">
        <ele>573.808</ele>
        <time>2018-11-24T12:42:42Z</time>
      </trkpt>
      <trkpt lat="42.194006" lon="0.705394">
        <ele>573.678</ele>
        <time>2018-11-24T12:42:43Z</time>
      </trkpt>
      <trkpt lat="42.193708" lon="0.705200">
        <ele>572.795</ele>
        <time>2018-11-24T12:42:44Z</time>
      </trkpt>
      <trkpt lat="42.193424" lon="0.705011">
        <ele>572.272</ele>
        <time>2018-11-24T12:42:45Z</time>
      </trkpt>
      <trkpt lat="42.193145" lon="0.704811">
        <ele>572.323</ele>
        <time>2018-11-24T12:42:46Z</time>
      </trkpt>
      <trkpt lat="42.192873" lon="0.704587">
        <ele>572.881</ele>
        <time>2018-11-24T12:42:47Z</time>
      </trkpt>
      <trkpt lat="42.192613" lon="0.704323">
        <ele>573.543</ele>
        <time>2018-11-24T12:42:48Z</time>
      </trkpt>
      <trkpt lat="42.192363" lon="0.704026">
        <ele>574.216</ele>
        <time>2018-11-24T12:42:49Z</time>
      </trkpt>
      <trkpt lat="42.192114" lon="0.703714">
        <ele>574.460</ele>
        <time>2018-11-24T12:42:50Z</time>
      </trkpt>
      <trkpt lat="42.191868" lon="0.703406">
        <ele>574.223</ele>
        <time>2018-11-24T12:42:51Z</time>
      </trkpt>
      <trkpt lat="42.191625" lon="0.703103">
        <ele>574.083</ele>
        <time>2018-11-24T12:42:52Z</time>
      </trkpt>
      <trkpt lat="42.191394" lon="0.702809">
        <ele>573.511</ele>
        <time>2018-11-24T12:42:53Z</time>
      </trkpt>
      <trkpt lat="42.191174" lon="0.702530">
        <ele>573.008</ele>
        <time>2018-11-24T12:42:54Z</time>
      </trkpt>
      <trkpt lat="42.190967" lon="0.702269">
        <ele>572.125</ele>
        <time>2018-11-24T12:42:55Z</time>
      </trkpt>
      <trkpt lat="42.190774" lon="0.702028">
        <ele>571.342</ele>
        <time>2018-11-24T12:42:56Z</time>
      </trkpt>
      <trkpt lat="42.190581" lon="0.701801">
        <ele>570.449</ele>
        <time>2018-11-24T12:42:57Z</time>
      </trkpt>
      <trkpt lat="42.190360" lon="0.701609">
        <ele>569.730</ele>
        <time>2018-11-24T12:42:58Z</time>
      </trkpt>
      <trkpt lat="42.190129" lon="0.701444">
        <ele>569.248</ele>
        <time>2018-11-24T12:42:59Z</time>
      </trkpt>
      <trkpt lat="42.189873" lon="0.701314">
        <ele>568.870</ele>
        <time>2018-11-24T12:43:00Z</time>
      </trkpt>
      <trkpt lat="42.189598" lon="0.701200">
        <ele>568.143</ele>
        <time>2018-11-24T12:43:01Z</time>
      </trkpt>
      <trkpt lat="42.189321" lon="0.701099">
        <ele>567.387</ele>
        <time>2018-11-24T12:43:02Z</time>
      </trkpt>
      <trkpt lat="42.189049" lon="0.701002">
        <ele>565.783</ele>
        <time>2018-11-24T12:43:03Z</time>
      </trkpt>
      <trkpt lat="42.188769" lon="0.700918">
        <ele>564.625</ele>
        <time>2018-11-24T12:43:04Z</time>
      </trkpt>
      <trkpt lat="42.188475" lon="0.700859">
        <ele>563.317</ele>
        <time>2018-11-24T12:43:05Z</time>
      </trkpt>
      <trkpt lat="42.188166" lon="0.700848">
        <ele>562.708</ele>
        <time>2018-11-24T12:43:06Z</time>
      </trkpt>
      <trkpt lat="42.187851" lon="0.700909">
        <ele>562.151</ele>
        <time>2018-11-24T12:43:07Z</time>
      </trkpt>
      <trkpt lat="42.187541" lon="0.700983">
        <ele>561.628</ele>
        <time>2018-11-24T12:43:08Z</time>
      </trkpt>
      <trkpt lat="42.187266" lon="0.701076">
        <ele>560.825</ele>
        <time>2018-11-24T12:43:09Z</time>
      </trkpt>
      <trkpt lat="42.187004" lon="0.701157">
        <ele>560.696</ele>
        <time>2018-11-24T12:43:10Z</time>
      </trkpt>
      <trkpt lat="42.186726" lon="0.701207">
        <ele>560.724</ele>
        <time>2018-11-24T12:43:11Z</time>
      </trkpt>
      <trkpt lat="42.186441" lon="0.701222">
        <ele>561.236</ele>
        <time>2018-11-24T12:43:12Z</time>
      </trkpt>
      <trkpt lat="42.186151" lon="0.701188">
        <ele>561.799</ele>
        <time>2018-11-24T12:43:13Z</time>
      </trkpt>
      <trkpt lat="42.185856" lon="0.701113">
        <ele>562.093</ele>
        <time>2018-11-24T12:43:14Z</time>
      </trkpt>
      <trkpt lat="42.185555" lon="0.701013">
        <ele>562.068</ele>
        <time>2018-11-24T12:43:15Z</time>
      </trkpt>
      <trkpt lat="42.185244" lon="0.700911">
        <ele>561.842</ele>
        <time>2018-11-24T12:43:16Z</time>
      </trkpt>
      <trkpt lat="42.184917" lon="0.700807">
        <ele>561.926</ele>
        <time>2018-11-24T12:43:17Z</time>
      </trkpt>
      <trkpt lat="42.184582" lon="0.700698">
        <ele>562.008</ele>
        <time>2018-11-24T12:43:18Z</time>
      </trkpt>
      <trkpt lat="42.184243" lon="0.700586">
        <ele>562.179</ele>
        <time>2018-11-24T12:43:19Z</time>
      </trkpt>
      <trkpt lat="42.183911" lon="0.700479">
        <ele>561.846</ele>
        <time>2018-11-24T12:43:20Z</time>
      </trkpt>
      <trkpt lat="42.183584" lon="0.700374">
        <ele>561.323</ele>
        <time>2018-11-24T12:43:21Z</time>
      </trkpt>
      <trkpt lat="42.183265" lon="0.700272">
        <ele>561.044</ele>
        <time>2018-11-24T12:43:22Z</time>
      </trkpt>
      <trkpt lat="42.182952" lon="0.700172">
        <ele>560.532</ele>
        <time>2018-11-24T12:43:23Z</time>
      </trkpt>
      <trkpt lat="42.182646" lon="0.700072">
        <ele>560.494</ele>
        <time>2018-11-24T12:43:24Z</time>
      </trkpt>
      <trkpt lat="42.182345" lon="0.699976">
        <ele>560.097</ele>
        <time>2018-11-24T12:43:25Z</time>
      </trkpt>
      <trkpt lat="42.182046" lon="0.699881">
        <ele>559.381</ele>
        <time>2018-11-24T12:43:26Z</time>
      </trkpt>
      <trkpt lat="42.181752" lon="0.699789">
        <ele>558.752</ele>
        <time>2018-11-24T12:43:27Z</time>
      </trkpt>
      <trkpt lat="42.181465" lon="0.699698">
        <ele>558.353</ele>
        <time>2018-11-24T12:43:28Z</time>
      </trkpt>
      <trkpt lat="42.181181" lon="0.699607">
        <ele>557.808</ele>
        <time>2018-11-24T12:43:29Z</time>
      </trkpt>
      <trkpt lat="42.180896" lon="0.699518">
        <ele>556.908</ele>
        <time>2018-11-24T12:43:30Z</time>
      </trkpt>
      <trkpt lat="42.180612" lon="0.699427">
        <ele>556.478</ele>
        <time>2018-11-24T12:43:31Z</time>
      </trkpt>
      <trkpt lat="42.180330" lon="0.699336">
        <ele>556.135</ele>
        <time>2018-11-24T12:43:32Z</time>
      </trkpt>
      <trkpt lat="42.180048" lon="0.699243">
        <ele>556.062</ele>
        <time>2018-11-24T12:43:33Z</time>
      </trkpt>
      <trkpt lat="42.179763" lon="0.699143">
        <ele>556.033</ele>
        <time>2018-11-24T12:43:34Z</time>
      </trkpt>
      <trkpt lat="42.179472" lon="0.699037">
        <ele>556.061</ele>
        <time>2018-11-24T12:43:35Z</time>
      </trkpt>
      <trkpt lat="42.179173" lon="0.698927">
        <ele>556.073</ele>
        <time>2018-11-24T12:43:36Z</time>
      </trkpt>
      <trkpt lat="42.178865" lon="0.698809">
        <ele>556.496</ele>
        <time>2018-11-24T12:43:37Z</time>
      </trkpt>
      <trkpt lat="42.178550" lon="0.698678">
        <ele>556.720</ele>
        <time>2018-11-24T12:43:38Z</time>
      </trkpt>
      <trkpt lat="42.178227" lon="0.698537">
        <ele>556.986</ele>
        <time>2018-11-24T12:43:39Z</time>
      </trkpt>
      <trkpt lat="42.177898" lon="0.698387">
        <ele>557.160</ele>
        <time>2018-11-24T12:43:40Z</time>
      </trkpt>
      <trkpt lat="42.177563" lon="0.698224">
        <ele>557.826</ele>
        <time>2018-11-24T12:43:41Z</time>
      </trkpt>
      <trkpt lat="42.177226" lon="0.698049">
        <ele>558.508</ele>
        <time>2018-11-24T12:43:42Z</time>
      </trkpt>
      <trkpt lat="42.176886" lon="0.697867">
        <ele>559.181</ele>
        <time>2018-11-24T12:43:43Z</time>
      </trkpt>
      <trkpt lat="42.176548" lon="0.697679">
        <ele>560.818</ele>
        <time>2018-11-24T12:43:44Z</time>
      </trkpt>
      <trkpt lat="42.176211" lon="0.697484">
        <ele>562.165</ele>
        <time>2018-11-24T12:43:45Z</time>
      </trkpt>
      <trkpt lat="42.175878" lon="0.697285">
        <ele>564.166</ele>
        <time>2018-11-24T12:43:46Z</time>
      </trkpt>
      <trkpt lat="42.175556" lon="0.697085">
        <ele>565.424</ele>
        <time>2018-11-24T12:43:47Z</time>
      </trkpt>
      <trkpt lat="42.175246" lon="0.696889">
        <ele>567.446</ele>
        <time>2018-11-24T12:43:48Z</time>
      </trkpt>
      <trkpt lat="42.174939" lon="0.696698">
        <ele>569.129</ele>
        <time>2018-11-24T12:43:49Z</time>
      </trkpt>
      <trkpt lat="42.174629" lon="0.696512">
        <ele>570.893</ele>
        <time>2018-11-24T12:43:50Z</time>
      </trkpt>
      <trkpt lat="42.174314" lon="0.696336">
        <ele>573.695</ele>
        <time>2018-11-24T12:43:51Z</time>
      </trkpt>
      <trkpt lat="42.173999" lon="0.696173">
        <ele>576.049</ele>
        <time>2018-11-24T12:43:52Z</time>
      </trkpt>
      <trkpt lat="42.173681" lon="0.696019">
        <ele>577.723</ele>
        <time>2018-11-24T12:43:53Z</time>
      </trkpt>
      <trkpt lat="42.173374" lon="0.695881">
        <ele>579.008</ele>
        <time>2018-11-24T12:43:54Z</time>
      </trkpt>
      <trkpt lat="42.173063" lon="0.695784">
        <ele>581.012</ele>
        <time>2018-11-24T12:43:55Z</time>
      </trkpt>
      <trkpt lat="42.172749" lon="0.695691">
        <ele>582.549</ele>
        <time>2018-11-24T12:43:56Z</time>
      </trkpt>
      <trkpt lat="42.172437" lon="0.695611">
        <ele>583.516</ele>
        <time>2018-11-24T12:43:57Z</time>
      </trkpt>
      <trkpt lat="42.172119" lon="0.695568">
        <ele>584.327</ele>
        <time>2018-11-24T12:43:58Z</time>
      </trkpt>
      <trkpt lat="42.171806" lon="0.695537">
        <ele>584.635</ele>
        <time>2018-11-24T12:43:59Z</time>
      </trkpt>
      <trkpt lat="42.171494" lon="0.695512">
        <ele>584.337</ele>
        <time>2018-11-24T12:44:00Z</time>
      </trkpt>
      <trkpt lat="42.171182" lon="0.695488">
        <ele>583.820</ele>
        <time>2018-11-24T12:44:01Z</time>
      </trkpt>
      <trkpt lat="42.170869" lon="0.695468">
        <ele>583.254</ele>
        <time>2018-11-24T12:44:02Z</time>
      </trkpt>
      <trkpt lat="42.170552" lon="0.695452">
        <ele>581.985</ele>
        <time>2018-11-24T12:44:03Z</time>
      </trkpt>
      <trkpt lat="42.170235" lon="0.695439">
        <ele>580.589</ele>
        <time>2018-11-24T12:44:04Z</time>
      </trkpt>
      <trkpt lat="42.169910" lon="0.695427">
        <ele>578.917</ele>
        <time>2018-11-24T12:44:05Z</time>
      </trkpt>
      <trkpt lat="42.169584" lon="0.695418">
        <ele>577.208</ele>
        <time>2018-11-24T12:44:06Z</time>
      </trkpt>
      <trkpt lat="42.169261" lon="0.695406">
        <ele>575.161</ele>
        <time>2018-11-24T12:44:07Z</time>
      </trkpt>
      <trkpt lat="42.168938" lon="0.695400">
        <ele>573.298</ele>
        <time>2018-11-24T12:44:08Z</time>
      </trkpt>
      <trkpt lat="42.168618" lon="0.695385">
        <ele>571.365</ele>
        <time>2018-11-24T12:44:09Z</time>
      </trkpt>
      <trkpt lat="42.168303" lon="0.695372">
        <ele>568.846</ele>
        <time>2018-11-24T12:44:10Z</time>
      </trkpt>
      <trkpt lat="42.167988" lon="0.695360">
        <ele>566.714</ele>
        <time>2018-11-24T12:44:11Z</time>
      </trkpt>
      <trkpt lat="42.167671" lon="0.695345">
        <ele>564.676</ele>
        <time>2018-11-24T12:44:12Z</time>
      </trkpt>
      <trkpt lat="42.167349" lon="0.695323">
        <ele>563.069</ele>
        <time>2018-11-24T12:44:13Z</time>
      </trkpt>
      <trkpt lat="42.167028" lon="0.695288">
        <ele>561.243</ele>
        <time>2018-11-24T12:44:14Z</time>
      </trkpt>
      <trkpt lat="42.166710" lon="0.695238">
        <ele>559.396</ele>
        <time>2018-11-24T12:44:15Z</time>
      </trkpt>
      <trkpt lat="42.166386" lon="0.695168">
        <ele>557.831</ele>
        <time>2018-11-24T12:44:16Z</time>
      </trkpt>
      <trkpt lat="42.166062" lon="0.695086">
        <ele>555.524</ele>
        <time>2018-11-24T12:44:17Z</time>
      </trkpt>
      <trkpt lat="42.165745" lon="0.694997">
        <ele>554.008</ele>
        <time>2018-11-24T12:44:18Z</time>
      </trkpt>
      <trkpt lat="42.165429" lon="0.694909">
        <ele>552.412</ele>
        <time>2018-11-24T12:44:19Z</time>
      </trkpt>
      <trkpt lat="42.165120" lon="0.694820">
        <ele>551.139</ele>
        <time>2018-11-24T12:44:20Z</time>
      </trkpt>
      <trkpt lat="42.164826" lon="0.694737">
        <ele>550.076</ele>
        <time>2018-11-24T12:44:21Z</time>
      </trkpt>
      <trkpt lat="42.164546" lon="0.694657">
        <ele>549.467</ele>
        <time>2018-11-24T12:44:22Z</time>
      </trkpt>
      <trkpt lat="42.164276" lon="0.694577">
        <ele>549.055</ele>
        <time>2018-11-24T12:44:23Z</time>
      </trkpt>
      <trkpt lat="42.164003" lon="0.694500">
        <ele>548.727</ele>
        <time>2018-11-24T12:44:24Z</time>
      </trkpt>
      <trkpt lat="42.163728" lon="0.694422">
        <ele>548.790</ele>
        <time>2018-11-24T12:44:25Z</time>
      </trkpt>
      <trkpt lat="42.163452" lon="0.694344">
        <ele>548.384</ele>
        <time>2018-11-24T12:44:26Z</time>
      </trkpt>
      <trkpt lat="42.163184" lon="0.694269">
        <ele>548.877</ele>
        <time>2018-11-24T12:44:27Z</time>
      </trkpt>
      <trkpt lat="42.162926" lon="0.694197">
        <ele>548.161</ele>
        <time>2018-11-24T12:44:28Z</time>
      </trkpt>
      <trkpt lat="42.162673" lon="0.694128">
        <ele>547.827</ele>
        <time>2018-11-24T12:44:29Z</time>
      </trkpt>
      <trkpt lat="42.162425" lon="0.694059">
        <ele>547.308</ele>
        <time>2018-11-24T12:44:30Z</time>
      </trkpt>
      <trkpt lat="42.162181" lon="0.693994">
        <ele>546.760</ele>
        <time>2018-11-24T12:44:31Z</time>
      </trkpt>
      <trkpt lat="42.161942" lon="0.693928">
        <ele>545.927</ele>
        <time>2018-11-24T12:44:32Z</time>
      </trkpt>
      <trkpt lat="42.161702" lon="0.693856">
        <ele>545.324</ele>
        <time>2018-11-24T12:44:33Z</time>
      </trkpt>
      <trkpt lat="42.161461" lon="0.693771">
        <ele>544.785</ele>
        <time>2018-11-24T12:44:34Z</time>
      </trkpt>
      <trkpt lat="42.161219" lon="0.693670">
        <ele>544.093</ele>
        <time>2018-11-24T12:44:35Z</time>
      </trkpt>
      <trkpt lat="42.160978" lon="0.693550">
        <ele>543.315</ele>
        <time>2018-11-24T12:44:36Z</time>
      </trkpt>
      <trkpt lat="42.160741" lon="0.693419">
        <ele>542.448</ele>
        <time>2018-11-24T12:44:37Z</time>
      </trkpt>
      <trkpt lat="42.160505" lon="0.693285">
        <ele>541.772</ele>
        <time>2018-11-24T12:44:38Z</time>
      </trkpt>
      <trkpt lat="42.160264" lon="0.693157">
        <ele>541.262</ele>
        <time>2018-11-24T12:44:39Z</time>
      </trkpt>
      <trkpt lat="42.160019" lon="0.693034">
        <ele>540.783</ele>
        <time>2018-11-24T12:44:40Z</time>
      </trkpt>
      <trkpt lat="42.159768" lon="0.692922">
        <ele>540.211</ele>
        <time>2018-11-24T12:44:41Z</time>
      </trkpt>
      <trkpt lat="42.159514" lon="0.692826">
        <ele>539.608</ele>
        <time>2018-11-24T12:44:42Z</time>
      </trkpt>
      <trkpt lat="42.159257" lon="0.692749">
        <ele>539.279</ele>
        <time>2018-11-24T12:44:43Z</time>
      </trkpt>
      <trkpt lat="42.158992" lon="0.692683">
        <ele>539.016</ele>
        <time>2018-11-24T12:44:44Z</time>
      </trkpt>
      <trkpt lat="42.158716" lon="0.692631">
        <ele>539.033</ele>
        <time>2018-11-24T12:44:45Z</time>
      </trkpt>
      <trkpt lat="42.158429" lon="0.692596">
        <ele>539.374</ele>
        <time>2018-11-24T12:44:46Z</time>
      </trkpt>
      <trkpt lat="42.158134" lon="0.692575">
        <ele>539.482</ele>
        <time>2018-11-24T12:44:47Z</time>
      </trkpt>
      <trkpt lat="42.157841" lon="0.692560">
        <ele>539.264</ele>
        <time>2018-11-24T12:44:48Z</time>
      </trkpt>
      <trkpt lat="42.157550" lon="0.692488">
        <ele>538.377</ele>
        <time>2018-11-24T12:44:49Z</time>
      </trkpt>
      <trkpt lat="42.157261" lon="0.692374">
        <ele>537.741</ele>
        <time>2018-11-24T12:44:50Z</time>
      </trkpt>
      <trkpt lat="42.156987" lon="0.692223">
        <ele>536.938</ele>
        <time>2018-11-24T12:44:51Z</time>
      </trkpt>
      <trkpt lat="42.156719" lon="0.692072">
        <ele>536.470</ele>
        <time>2018-11-24T12:44:52Z</time>
      </trkpt>
      <trkpt lat="42.156445" lon="0.691938">
        <ele>535.517</ele>
        <time>2018-11-24T12:44:53Z</time>
      </trkpt>
      <trkpt lat="42.156156" lon="0.691845">
        <ele>535.308</ele>
        <time>2018-11-24T12:44:54Z</time>
      </trkpt>
      <trkpt lat="42.155863" lon="0.691791">
        <ele>535.266</ele>
        <time>2018-11-24T12:44:55Z</time>
      </trkpt>
      <trkpt lat="42.155569" lon="0.691788">
        <ele>535.283</ele>
        <time>2018-11-24T12:44:56Z</time>
      </trkpt>
      <trkpt lat="42.155279" lon="0.691837">
        <ele>535.340</ele>
        <time>2018-11-24T12:44:57Z</time>
      </trkpt>
      <trkpt lat="42.154998" lon="0.691922">
        <ele>535.611</ele>
        <time>2018-11-24T12:44:58Z</time>
      </trkpt>
      <trkpt lat="42.154724" lon="0.692017">
        <ele>535.979</ele>
        <time>2018-11-24T12:44:59Z</time>
      </trkpt>
      <trkpt lat="42.154461" lon="0.692103">
        <ele>535.311</ele>
        <time>2018-11-24T12:45:00Z</time>
      </trkpt>
      <trkpt lat="42.154205" lon="0.692164">
        <ele>534.614</ele>
        <time>2018-11-24T12:45:01Z</time>
      </trkpt>
      <trkpt lat="42.153949" lon="0.692215">
        <ele>533.948</ele>
        <time>2018-11-24T12:45:02Z</time>
      </trkpt>
      <trkpt lat="42.153711" lon="0.692220">
        <ele>532.769</ele>
        <time>2018-11-24T12:45:03Z</time>
      </trkpt>
      <trkpt lat="42.153509" lon="0.692228">
        <ele>531.004</ele>
        <time>2018-11-24T12:45:04Z</time>
      </trkpt>
      <trkpt lat="42.153320" lon="0.692217">
        <ele>529.924</ele>
        <time>2018-11-24T12:45:05Z</time>
      </trkpt>
      <trkpt lat="42.153130" lon="0.692206">
        <ele>529.508</ele>
        <time>2018-11-24T12:45:06Z</time>
      </trkpt>
      <trkpt lat="42.152948" lon="0.692230">
        <ele>529.159</ele>
        <time>2018-11-24T12:45:07Z</time>
      </trkpt>
      <trkpt lat="42.152775" lon="0.692276">
        <ele>528.996</ele>
        <time>2018-11-24T12:45:08Z</time>
      </trkpt>
      <trkpt lat="42.152620" lon="0.692321">
        <ele>528.253</ele>
        <time>2018-11-24T12:45:09Z</time>
      </trkpt>
      <trkpt lat="42.152472" lon="0.692369">
        <ele>527.644</ele>
        <time>2018-11-24T12:45:10Z</time>
      </trkpt>
      <trkpt lat="42.152325" lon="0.692408">
        <ele>527.432</ele>
        <time>2018-11-24T12:45:11Z</time>
      </trkpt>
      <trkpt lat="42.152184" lon="0.692444">
        <ele>527.194</ele>
        <time>2018-11-24T12:45:12Z</time>
      </trkpt>
      <trkpt lat="42.152038" lon="0.692457">
        <ele>526.887</ele>
        <time>2018-11-24T12:45:13Z</time>
      </trkpt>
      <trkpt lat="42.151899" lon="0.692460">
        <ele>526.491</ele>
        <time>2018-11-24T12:45:14Z</time>
      </trkpt>
      <trkpt lat="42.151761" lon="0.692462">
        <ele>526.216</ele>
        <time>2018-11-24T12:45:15Z</time>
      </trkpt>
      <trkpt lat="42.151623" lon="0.692468">
        <ele>525.976</ele>
        <time>2018-11-24T12:45:16Z</time>
      </trkpt>
      <trkpt lat="42.151486" lon="0.692475">
        <ele>525.613</ele>
        <time>2018-11-24T12:45:17Z</time>
      </trkpt>
      <trkpt lat="42.151348" lon="0.692485">
        <ele>525.308</ele>
        <time>2018-11-24T12:45:18Z</time>
      </trkpt>
      <trkpt lat="42.151212" lon="0.692509">
        <ele>525.144</ele>
        <time>2018-11-24T12:45:19Z</time>
      </trkpt>
      <trkpt lat="42.151081" lon="0.692551">
        <ele>524.911</ele>
        <time>2018-11-24T12:45:20Z</time>
      </trkpt>
      <trkpt lat="42.150959" lon="0.692627">
        <ele>524.868</ele>
        <time>2018-11-24T12:45:21Z</time>
      </trkpt>
      <trkpt lat="42.150850" lon="0.692742">
        <ele>524.759</ele>
        <time>2018-11-24T12:45:22Z</time>
      </trkpt>
      <trkpt lat="42.150741" lon="0.692849">
        <ele>524.777</ele>
        <time>2018-11-24T12:45:23Z</time>
      </trkpt>
      <trkpt lat="42.150637" lon="0.692960">
        <ele>524.679</ele>
        <time>2018-11-24T12:45:24Z</time>
      </trkpt>
      <trkpt lat="42.150535" lon="0.693071">
        <ele>524.532</ele>
        <time>2018-11-24T12:45:25Z</time>
      </trkpt>
      <trkpt lat="42.150431" lon="0.693175">
        <ele>524.486</ele>
        <time>2018-11-24T12:45:26Z</time>
      </trkpt>
      <trkpt lat="42.150325" lon="0.693276">
        <ele>524.145</ele>
        <time>2018-11-24T12:45:27Z</time>
      </trkpt>
      <trkpt lat="42.150223" lon="0.693376">
        <ele>524.047</ele>
        <time>2018-11-24T12:45:28Z</time>
      </trkpt>
      <trkpt lat="42.150121" lon="0.693476">
        <ele>523.911</ele>
        <time>2018-11-24T12:45:29Z</time>
      </trkpt>
      <trkpt lat="42.150020" lon="0.693585">
        <ele>523.808</ele>
        <time>2018-11-24T12:45:30Z</time>
      </trkpt>
      <trkpt lat="42.149914" lon="0.693690">
        <ele>523.717</ele>
        <time>2018-11-24T12:45:31Z</time>
      </trkpt>
      <trkpt lat="42.149807" lon="0.693798">
        <ele>523.744</ele>
        <time>2018-11-24T12:45:32Z</time>
      </trkpt>
      <trkpt lat="42.149701" lon="0.693907">
        <ele>523.681</ele>
        <time>2018-11-24T12:45:33Z</time>
      </trkpt>
      <trkpt lat="42.149590" lon="0.694019">
        <ele>523.712</ele>
        <time>2018-11-24T12:45:34Z</time>
      </trkpt>
      <trkpt lat="42.149474" lon="0.694136">
        <ele>523.950</ele>
        <time>2018-11-24T12:45:35Z</time>
      </trkpt>
      <trkpt lat="42.149358" lon="0.694262">
        <ele>523.942</ele>
        <time>2018-11-24T12:45:36Z</time>
      </trkpt>
      <trkpt lat="42.149230" lon="0.694389">
        <ele>523.735</ele>
        <time>2018-11-24T12:45:37Z</time>
      </trkpt>
      <trkpt lat="42.149099" lon="0.694507">
        <ele>523.589</ele>
        <time>2018-11-24T12:45:38Z</time>
      </trkpt>
      <trkpt lat="42.148962" lon="0.694603">
        <ele>523.327</ele>
        <time>2018-11-24T12:45:39Z</time>
      </trkpt>
      <trkpt lat="42.148816" lon="0.694691">
        <ele>522.968</ele>
        <time>2018-11-24T12:45:40Z</time>
      </trkpt>
      <trkpt lat="42.148662" lon="0.694755">
        <ele>522.514</ele>
        <time>2018-11-24T12:45:41Z</time>
      </trkpt>
      <trkpt lat="42.148502" lon="0.694779">
        <ele>522.208</ele>
        <time>2018-11-24T12:45:42Z</time>
      </trkpt>
      <trkpt lat="42.148337" lon="0.694774">
        <ele>522.245</ele>
        <time>2018-11-24T12:45:43Z</time>
      </trkpt>
      <trkpt lat="42.148169" lon="0.694756">
        <ele>522.582</ele>
        <time>2018-11-24T12:45:44Z</time>
      </trkpt>
      <trkpt lat="42.147996" lon="0.694730">
        <ele>522.789</ele>
        <time>2018-11-24T12:45:45Z</time>
      </trkpt>
      <trkpt lat="42.147827" lon="0.694700">
        <ele>522.770</ele>
        <time>2018-11-24T12:45:46Z</time>
      </trkpt>
      <trkpt lat="42.147664" lon="0.694672">
        <ele>522.848</ele>
        <time>2018-11-24T12:45:47Z</time>
      </trkpt>
      <trkpt lat="42.147501" lon="0.694644">
        <ele>522.970</ele>
        <time>2018-11-24T12:45:48Z</time>
      </trkpt>
      <trkpt lat="42.147332" lon="0.694614">
        <ele>523.313</ele>
        <time>2018-11-24T12:45:49Z</time>
      </trkpt>
      <trkpt lat="42.147161" lon="0.694584">
        <ele>523.467</ele>
        <time>2018-11-24T12:45:50Z</time>
      </trkpt>
      <trkpt lat="42.146994" lon="0.694553">
        <ele>523.481</ele>
        <time>2018-11-24T12:45:51Z</time>
      </trkpt>
      <trkpt lat="42.146820" lon="0.694524">
        <ele>523.861</ele>
        <time>2018-11-24T12:45:52Z</time>
      </trkpt>
      <trkpt lat="42.146634" lon="0.694494">
        <ele>524.317</ele>
        <time>2018-11-24T12:45:53Z</time>
      </trkpt>
      <trkpt lat="42.146438" lon="0.694468">
        <ele>524.908</ele>
        <time>2018-11-24T12:45:54Z</time>
      </trkpt>
      <trkpt lat="42.146231" lon="0.694445">
        <ele>525.421</ele>
        <time>2018-11-24T12:45:55Z</time>
      </trkpt>
      <trkpt lat="42.146016" lon="0.694424">
        <ele>525.888</ele>
        <time>2018-11-24T12:45:56Z</time>
      </trkpt>
      <trkpt lat="42.145792" lon="0.694405">
        <ele>526.055</ele>
        <time>2018-11-24T12:45:57Z</time>
      </trkpt>
      <trkpt lat="42.145554" lon="0.694388">
        <ele>526.586</ele>
        <time>2018-11-24T12:45:58Z</time>
      </trkpt>
      <trkpt lat="42.145301" lon="0.694372">
        <ele>527.284</ele>
        <time>2018-11-24T12:45:59Z</time>
      </trkpt>
      <trkpt lat="42.145034" lon="0.694357">
        <ele>527.786</ele>
        <time>2018-11-24T12:46:00Z</time>
      </trkpt>
      <trkpt lat="42.144757" lon="0.694342">
        <ele>528.429</ele>
        <time>2018-11-24T12:46:01Z</time>
      </trkpt>
      <trkpt lat="42.144485" lon="0.694326">
        <ele>529.333</ele>
        <time>2018-11-24T12:46:02Z</time>
      </trkpt>
      <trkpt lat="42.144218" lon="0.694309">
        <ele>530.299</ele>
        <time>2018-11-24T12:46:03Z</time>
      </trkpt>
      <trkpt lat="42.143960" lon="0.694294">
        <ele>531.907</ele>
        <time>2018-11-24T12:46:04Z</time>
      </trkpt>
      <trkpt lat="42.143704" lon="0.694281">
        <ele>533.727</ele>
        <time>2018-11-24T12:46:05Z</time>
      </trkpt>
      <trkpt lat="42.143443" lon="0.694270">
        <ele>535.408</ele>
        <time>2018-11-24T12:46:06Z</time>
      </trkpt>
      <trkpt lat="42.143178" lon="0.694254">
        <ele>537.752</ele>
        <time>2018-11-24T12:46:07Z</time>
      </trkpt>
      <trkpt lat="42.142911" lon="0.694224">
        <ele>540.019</ele>
        <time>2018-11-24T12:46:08Z</time>
      </trkpt>
      <trkpt lat="42.142641" lon="0.694165">
        <ele>541.976</ele>
        <time>2018-11-24T12:46:09Z</time>
      </trkpt>
      <trkpt lat="42.142358" lon="0.694092">
        <ele>543.687</ele>
        <time>2018-11-24T12:46:10Z</time>
      </trkpt>
      <trkpt lat="42.142090" lon="0.693952">
        <ele>545.195</ele>
        <time>2018-11-24T12:46:11Z</time>
      </trkpt>
      <trkpt lat="42.141825" lon="0.693779">
        <ele>546.347</ele>
        <time>2018-11-24T12:46:12Z</time>
      </trkpt>
      <trkpt lat="42.141560" lon="0.693618">
        <ele>547.320</ele>
        <time>2018-11-24T12:46:13Z</time>
      </trkpt>
      <trkpt lat="42.141290" lon="0.693478">
        <ele>548.074</ele>
        <time>2018-11-24T12:46:14Z</time>
      </trkpt>
      <trkpt lat="42.141015" lon="0.693393">
        <ele>548.949</ele>
        <time>2018-11-24T12:46:15Z</time>
      </trkpt>
      <trkpt lat="42.140747" lon="0.693344">
        <ele>549.902</ele>
        <time>2018-11-24T12:46:16Z</time>
      </trkpt>
      <trkpt lat="42.140468" lon="0.693321">
        <ele>550.922</ele>
        <time>2018-11-24T12:46:17Z</time>
      </trkpt>
      <trkpt lat="42.140183" lon="0.693306">
        <ele>552.108</ele>
        <time>2018-11-24T12:46:18Z</time>
      </trkpt>
      <trkpt lat="42.139897" lon="0.693297">
        <ele>552.967</ele>
        <time>2018-11-24T12:46:19Z</time>
      </trkpt>
      <trkpt lat="42.139624" lon="0.693288">
        <ele>553.714</ele>
        <time>2018-11-24T12:46:20Z</time>
      </trkpt>
      <trkpt lat="42.139355" lon="0.693281">
        <ele>554.421</ele>
        <time>2018-11-24T12:46:21Z</time>
      </trkpt>
      <trkpt lat="42.139085" lon="0.693286">
        <ele>555.742</ele>
        <time>2018-11-24T12:46:22Z</time>
      </trkpt>
      <trkpt lat="42.138806" lon="0.693319">
        <ele>556.950</ele>
        <time>2018-11-24T12:46:23Z</time>
      </trkpt>
      <trkpt lat="42.138520" lon="0.693399">
        <ele>558.262</ele>
        <time>2018-11-24T12:46:24Z</time>
      </trkpt>
      <trkpt lat="42.138237" lon="0.693520">
        <ele>559.275</ele>
        <time>2018-11-24T12:46:25Z</time>
      </trkpt>
      <trkpt lat="42.137956" lon="0.693670">
        <ele>560.879</ele>
        <time>2018-11-24T12:46:26Z</time>
      </trkpt>
      <trkpt lat="42.137682" lon="0.693818">
        <ele>561.794</ele>
        <time>2018-11-24T12:46:27Z</time>
      </trkpt>
      <trkpt lat="42.137408" lon="0.693950">
        <ele>562.557</ele>
        <time>2018-11-24T12:46:28Z</time>
      </trkpt>
      <trkpt lat="42.137127" lon="0.694053">
        <ele>563.422</ele>
        <time>2018-11-24T12:46:29Z</time>
      </trkpt>
      <trkpt lat="42.136837" lon="0.694151">
        <ele>564.408</ele>
        <time>2018-11-24T12:46:30Z</time>
      </trkpt>
      <trkpt lat="42.136534" lon="0.694169">
        <ele>565.562</ele>
        <time>2018-11-24T12:46:31Z</time>
      </trkpt>
      <trkpt lat="42.136236" lon="0.694101">
        <ele>566.599</ele>
        <time>2018-11-24T12:46:32Z</time>
      </trkpt>
      <trkpt lat="42.135946" lon="0.693998">
        <ele>567.556</ele>
        <time>2018-11-24T12:46:33Z</time>
      </trkpt>
      <trkpt lat="42.135652" lon="0.693853">
        <ele>568.657</ele>
        <time>2018-11-24T12:46:34Z</time>
      </trkpt>
      <trkpt lat="42.135392" lon="0.693635">
        <ele>569.985</ele>
        <time>2018-11-24T12:46:35Z</time>
      </trkpt>
      <trkpt lat="42.135148" lon="0.693394">
        <ele>570.877</ele>
        <time>2018-11-24T12:46:36Z</time>
      </trkpt>
      <trkpt lat="42.134958" lon="0.693102">
        <ele>571.220</ele>
        <time>2018-11-24T12:46:37Z</time>
      </trkpt>
      <trkpt lat="42.134794" lon="0.692790">
        <ele>571.444</ele>
        <time>2018-11-24T12:46:38Z</time>
      </trkpt>
      <trkpt lat="42.134665" lon="0.692464">
        <ele>571.462</ele>
        <time>2018-11-24T12:46:39Z</time>
      </trkpt>
      <trkpt lat="42.134552" lon="0.692131">
        <ele>570.883</ele>
        <time>2018-11-24T12:46:40Z</time>
      </trkpt>
      <trkpt lat="42.134458" lon="0.691782">
        <ele>570.011</ele>
        <time>2018-11-24T12:46:41Z</time>
      </trkpt>
      <trkpt lat="42.134385" lon="0.691411">
        <ele>569.708</ele>
        <time>2018-11-24T12:46:42Z</time>
      </trkpt>
      <trkpt lat="42.134339" lon="0.691032">
        <ele>568.879</ele>
        <time>2018-11-24T12:46:43Z</time>
      </trkpt>
      <trkpt lat="42.134320" lon="0.690665">
        <ele>567.056</ele>
        <time>2018-11-24T12:46:44Z</time>
      </trkpt>
      <trkpt lat="42.134325" lon="0.690303">
        <ele>565.523</ele>
        <time>2018-11-24T12:46:45Z</time>
      </trkpt>
      <trkpt lat="42.134354" lon="0.689933">
        <ele>564.184</ele>
        <time>2018-11-24T12:46:46Z</time>
      </trkpt>
      <trkpt lat="42.134407" lon="0.689563">
        <ele>563.222</ele>
        <time>2018-11-24T12:46:47Z</time>
      </trkpt>
      <trkpt lat="42.134485" lon="0.689189">
        <ele>562.464</ele>
        <time>2018-11-24T12:46:48Z</time>
      </trkpt>
      <trkpt lat="42.134588" lon="0.688811">
        <ele>561.427</ele>
        <time>2018-11-24T12:46:49Z</time>
      </trkpt>
      <trkpt lat="42.134707" lon="0.688434">
        <ele>560.361</ele>
        <time>2018-11-24T12:46:50Z</time>
      </trkpt>
      <trkpt lat="42.134829" lon="0.688061">
        <ele>558.944</ele>
        <time>2018-11-24T12:46:51Z</time>
      </trkpt>
      <trkpt lat="42.134944" lon="0.687687">
        <ele>557.105</ele>
        <time>2018-11-24T12:46:52Z</time>
      </trkpt>
      <trkpt lat="42.135051" lon="0.687314">
        <ele>555.815</ele>
        <time>2018-11-24T12:46:53Z</time>
      </trkpt>
      <trkpt lat="42.135148" lon="0.686950">
        <ele>554.008</ele>
        <time>2018-11-24T12:46:54Z</time>
      </trkpt>
      <trkpt lat="42.135237" lon="0.686591">
        <ele>552.637</ele>
        <time>2018-11-24T12:46:55Z</time>
      </trkpt>
      <trkpt lat="42.135320" lon="0.686231">
        <ele>551.724</ele>
        <time>2018-11-24T12:46:56Z</time>
      </trkpt>
      <trkpt lat="42.135401" lon="0.685873">
        <ele>550.381</ele>
        <time>2018-11-24T12:46:57Z</time>
      </trkpt>
      <trkpt lat="42.135495" lon="0.685528">
        <ele>549.442</ele>
        <time>2018-11-24T12:46:58Z</time>
      </trkpt>
      <trkpt lat="42.135589" lon="0.685197">
        <ele>548.860</ele>
        <time>2018-11-24T12:46:59Z</time>
      </trkpt>
      <trkpt lat="42.135749" lon="0.684893">
        <ele>549.162</ele>
        <time>2018-11-24T12:47:00Z</time>
      </trkpt>
      <trkpt lat="42.135909" lon="0.684600">
        <ele>550.025</ele>
        <time>2018-11-24T12:47:01Z</time>
      </trkpt>
      <trkpt lat="42.136075" lon="0.684319">
        <ele>550.919</ele>
        <time>2018-11-24T12:47:02Z</time>
      </trkpt>
      <trkpt lat="42.136225" lon="0.684016">
        <ele>552.085</ele>
        <time>2018-11-24T12:47:03Z</time>
      </trkpt>
      <trkpt lat="42.136352" lon="0.683690">
        <ele>553.189</ele>
        <time>2018-11-24T12:47:04Z</time>
      </trkpt>
      <trkpt lat="42.136461" lon="0.683342">
        <ele>554.317</ele>
        <time>2018-11-24T12:47:05Z</time>
      </trkpt>
      <trkpt lat="42.136557" lon="0.682990">
        <ele>554.908</ele>
        <time>2018-11-24T12:47:06Z</time>
      </trkpt>
      <trkpt lat="42.136650" lon="0.682645">
        <ele>555.711</ele>
        <time>2018-11-24T12:47:07Z</time>
      </trkpt>
      <trkpt lat="42.136747" lon="0.682300">
        <ele>556.428</ele>
        <time>2018-11-24T12:47:08Z</time>
      </trkpt>
      <trkpt lat="42.136836" lon="0.681939">
        <ele>557.455</ele>
        <time>2018-11-24T12:47:09Z</time>
      </trkpt>
      <trkpt lat="42.136903" lon="0.681577">
        <ele>558.426</ele>
        <time>2018-11-24T12:47:10Z</time>
      </trkpt>
      <trkpt lat="42.136949" lon="0.681207">
        <ele>559.244</ele>
        <time>2018-11-24T12:47:11Z</time>
      </trkpt>
      <trkpt lat="42.136981" lon="0.680836">
        <ele>560.196</ele>
        <time>2018-11-24T12:47:12Z</time>
      </trkpt>
      <trkpt lat="42.137024" lon="0.680474">
        <ele>560.839</ele>
        <time>2018-11-24T12:47:13Z</time>
      </trkpt>
      <trkpt lat="42.137085" lon="0.680120">
        <ele>561.263</ele>
        <time>2018-11-24T12:47:14Z</time>
      </trkpt>
      <trkpt lat="42.137171" lon="0.679777">
        <ele>561.765</ele>
        <time>2018-11-24T12:47:15Z</time>
      </trkpt>
      <trkpt lat="42.137268" lon="0.679434">
        <ele>561.868</ele>
        <time>2018-11-24T12:47:16Z</time>
      </trkpt>
      <trkpt lat="42.137361" lon="0.679081">
        <ele>562.014</ele>
        <time>2018-11-24T12:47:17Z</time>
      </trkpt>
      <trkpt lat="42.137448" lon="0.678729">
        <ele>562.008</ele>
        <time>2018-11-24T12:47:18Z</time>
      </trkpt>
      <trkpt lat="42.137484" lon="0.678372">
        <ele>562.039</ele>
        <time>2018-11-24T12:47:19Z</time>
      </trkpt>
      <trkpt lat="42.137498" lon="0.678008">
        <ele>562.286</ele>
        <time>2018-11-24T12:47:20Z</time>
      </trkpt>
      <trkpt lat="42.137497" lon="0.677642">
        <ele>562.723</ele>
        <time>2018-11-24T12:47:21Z</time>
      </trkpt>
      <trkpt lat="42.137519" lon="0.677284">
        <ele>563.314</ele>
        <time>2018-11-24T12:47:22Z</time>
      </trkpt>
      <trkpt lat="42.137563" lon="0.676924">
        <ele>564.042</ele>
        <time>2018-11-24T12:47:23Z</time>
      </trkpt>
      <trkpt lat="42.137642" lon="0.676563">
        <ele>565.384</ele>
        <time>2018-11-24T12:47:24Z</time>
      </trkpt>
      <trkpt lat="42.137749" lon="0.676203">
        <ele>566.427</ele>
        <time>2018-11-24T12:47:25Z</time>
      </trkpt>
      <trkpt lat="42.137869" lon="0.675842">
        <ele>567.731</ele>
        <time>2018-11-24T12:47:26Z</time>
      </trkpt>
      <trkpt lat="42.137993" lon="0.675473">
        <ele>568.972</ele>
        <time>2018-11-24T12:47:27Z</time>
      </trkpt>
      <trkpt lat="42.138112" lon="0.675102">
        <ele>570.413</ele>
        <time>2018-11-24T12:47:28Z</time>
      </trkpt>
      <trkpt lat="42.138232" lon="0.674743">
        <ele>571.514</ele>
        <time>2018-11-24T12:47:29Z</time>
      </trkpt>
      <trkpt lat="42.138366" lon="0.674403">
        <ele>572.508</ele>
        <time>2018-11-24T12:47:30Z</time>
      </trkpt>
      <trkpt lat="42.138518" lon="0.674080">
        <ele>573.690</ele>
        <time>2018-11-24T12:47:31Z</time>
      </trkpt>
      <trkpt lat="42.138684" lon="0.673776">
        <ele>575.137</ele>
        <time>2018-11-24T12:47:32Z</time>
      </trkpt>
      <trkpt lat="42.138849" lon="0.673476">
        <ele>576.534</ele>
        <time>2018-11-24T12:47:33Z</time>
      </trkpt>
      <trkpt lat="42.139006" lon="0.673163">
        <ele>578.475</ele>
        <time>2018-11-24T12:47:34Z</time>
      </trkpt>
      <trkpt lat="42.139148" lon="0.672830">
        <ele>580.373</ele>
        <time>2018-11-24T12:47:35Z</time>
      </trkpt>
      <trkpt lat="42.139272" lon="0.672477">
        <ele>582.455</ele>
        <time>2018-11-24T12:47:36Z</time>
      </trkpt>
      <trkpt lat="42.139384" lon="0.672115">
        <ele>584.348</ele>
        <time>2018-11-24T12:47:37Z</time>
      </trkpt>
      <trkpt lat="42.139498" lon="0.671753">
        <ele>586.552</ele>
        <time>2018-11-24T12:47:38Z</time>
      </trkpt>
      <trkpt lat="42.139628" lon="0.671397">
        <ele>589.087</ele>
        <time>2018-11-24T12:47:39Z</time>
      </trkpt>
      <trkpt lat="42.139799" lon="0.671060">
        <ele>591.042</ele>
        <time>2018-11-24T12:47:40Z</time>
      </trkpt>
      <trkpt lat="42.139978" lon="0.670722">
        <ele>593.626</ele>
        <time>2018-11-24T12:47:41Z</time>
      </trkpt>
      <trkpt lat="42.140161" lon="0.670380">
        <ele>595.708</ele>
        <time>2018-11-24T12:47:42Z</time>
      </trkpt>
      <trkpt lat="42.140346" lon="0.670037">
        <ele>598.171</ele>
        <time>2018-11-24T12:47:43Z</time>
      </trkpt>
      <trkpt lat="42.140528" lon="0.669712">
        <ele>599.758</ele>
        <time>2018-11-24T12:47:44Z</time>
      </trkpt>
      <trkpt lat="42.140711" lon="0.669414">
        <ele>601.215</ele>
        <time>2018-11-24T12:47:45Z</time>
      </trkpt>
      <trkpt lat="42.140896" lon="0.669119">
        <ele>602.676</ele>
        <time>2018-11-24T12:47:46Z</time>
      </trkpt>
      <trkpt lat="42.141126" lon="0.668887">
        <ele>604.184</ele>
        <time>2018-11-24T12:47:47Z</time>
      </trkpt>
      <trkpt lat="42.141342" lon="0.668673">
        <ele>604.926</ele>
        <time>2018-11-24T12:47:48Z</time>
      </trkpt>
      <trkpt lat="42.141547" lon="0.668447">
        <ele>605.539</ele>
        <time>2018-11-24T12:47:49Z</time>
      </trkpt>
      <trkpt lat="42.141747" lon="0.668178">
        <ele>605.993</ele>
        <time>2018-11-24T12:47:50Z</time>
      </trkpt>
      <trkpt lat="42.141913" lon="0.667859">
        <ele>606.147</ele>
        <time>2018-11-24T12:47:51Z</time>
      </trkpt>
      <trkpt lat="42.142079" lon="0.667536">
        <ele>605.829</ele>
        <time>2018-11-24T12:47:52Z</time>
      </trkpt>
      <trkpt lat="42.142188" lon="0.667174">
        <ele>605.421</ele>
        <time>2018-11-24T12:47:53Z</time>
      </trkpt>
      <trkpt lat="42.142281" lon="0.666804">
        <ele>604.908</ele>
        <time>2018-11-24T12:47:54Z</time>
      </trkpt>
      <trkpt lat="42.142388" lon="0.666444">
        <ele>605.257</ele>
        <time>2018-11-24T12:47:55Z</time>
      </trkpt>
      <trkpt lat="42.142524" lon="0.666098">
        <ele>605.914</ele>
        <time>2018-11-24T12:47:56Z</time>
      </trkpt>
      <trkpt lat="42.142689" lon="0.665776">
        <ele>607.091</ele>
        <time>2018-11-24T12:47:57Z</time>
      </trkpt>
      <trkpt lat="42.142872" lon="0.665472">
        <ele>608.592</ele>
        <time>2018-11-24T12:47:58Z</time>
      </trkpt>
      <trkpt lat="42.143048" lon="0.665165">
        <ele>610.440</ele>
        <time>2018-11-24T12:47:59Z</time>
      </trkpt>
      <trkpt lat="42.143222" lon="0.664847">
        <ele>611.142</ele>
        <time>2018-11-24T12:48:00Z</time>
      </trkpt>
      <trkpt lat="42.143399" lon="0.664523">
        <ele>615.175</ele>
        <time>2018-11-24T12:48:01Z</time>
      </trkpt>
      <trkpt lat="42.143576" lon="0.664202">
        <ele>617.729</ele>
        <time>2018-11-24T12:48:02Z</time>
      </trkpt>
      <trkpt lat="42.143757" lon="0.663882">
        <ele>620.219</ele>
        <time>2018-11-24T12:48:03Z</time>
      </trkpt>
      <trkpt lat="42.143925" lon="0.663560">
        <ele>622.509</ele>
        <time>2018-11-24T12:48:04Z</time>
      </trkpt>
      <trkpt lat="42.144047" lon="0.663214">
        <ele>624.519</ele>
        <time>2018-11-24T12:48:05Z</time>
      </trkpt>
      <trkpt lat="42.144146" lon="0.662847">
        <ele>626.708</ele>
        <time>2018-11-24T12:48:06Z</time>
      </trkpt>
      <trkpt lat="42.144205" lon="0.662463">
        <ele>628.864</ele>
        <time>2018-11-24T12:48:07Z</time>
      </trkpt>
      <trkpt lat="42.144226" lon="0.662071">
        <ele>631.221</ele>
        <time>2018-11-24T12:48:08Z</time>
      </trkpt>
      <trkpt lat="42.144204" lon="0.661686">
        <ele>633.158</ele>
        <time>2018-11-24T12:48:09Z</time>
      </trkpt>
      <trkpt lat="42.144180" lon="0.661292">
        <ele>635.579</ele>
        <time>2018-11-24T12:48:10Z</time>
      </trkpt>
      <trkpt lat="42.144080" lon="0.660916">
        <ele>637.747</ele>
        <time>2018-11-24T12:48:11Z</time>
      </trkpt>
      <trkpt lat="42.143966" lon="0.660546">
        <ele>640.429</ele>
        <time>2018-11-24T12:48:12Z</time>
      </trkpt>
      <trkpt lat="42.143828" lon="0.660182">
        <ele>642.722</ele>
        <time>2018-11-24T12:48:13Z</time>
      </trkpt>
      <trkpt lat="42.143679" lon="0.659818">
        <ele>645.386</ele>
        <time>2018-11-24T12:48:14Z</time>
      </trkpt>
      <trkpt lat="42.143526" lon="0.659453">
        <ele>648.196</ele>
        <time>2018-11-24T12:48:15Z</time>
      </trkpt>
      <trkpt lat="42.143374" lon="0.659084">
        <ele>650.431</ele>
        <time>2018-11-24T12:48:16Z</time>
      </trkpt>
      <trkpt lat="42.143221" lon="0.658708">
        <ele>653.324</ele>
        <time>2018-11-24T12:48:17Z</time>
      </trkpt>
      <trkpt lat="42.143063" lon="0.658328">
        <ele>655.708</ele>
        <time>2018-11-24T12:48:18Z</time>
      </trkpt>
      <trkpt lat="42.142902" lon="0.657948">
        <ele>658.412</ele>
        <time>2018-11-24T12:48:19Z</time>
      </trkpt>
      <trkpt lat="42.142742" lon="0.657565">
        <ele>661.029</ele>
        <time>2018-11-24T12:48:20Z</time>
      </trkpt>
      <trkpt lat="42.142629" lon="0.657151">
        <ele>663.456</ele>
        <time>2018-11-24T12:48:21Z</time>
      </trkpt>
      <trkpt lat="42.142538" lon="0.656730">
        <ele>665.617</ele>
        <time>2018-11-24T12:48:22Z</time>
      </trkpt>
      <trkpt lat="42.142490" lon="0.656300">
        <ele>668.185</ele>
        <time>2018-11-24T12:48:23Z</time>
      </trkpt>
      <trkpt lat="42.142480" lon="0.655863">
        <ele>671.247</ele>
        <time>2018-11-24T12:48:24Z</time>
      </trkpt>
      <trkpt lat="42.142484" lon="0.655422">
        <ele>673.670</ele>
        <time>2018-11-24T12:48:25Z</time>
      </trkpt>
      <trkpt lat="42.142488" lon="0.654981">
        <ele>676.544</ele>
        <time>2018-11-24T12:48:26Z</time>
      </trkpt>
      <trkpt lat="42.142504" lon="0.654551">
        <ele>678.466</ele>
        <time>2018-11-24T12:48:27Z</time>
      </trkpt>
      <trkpt lat="42.142546" lon="0.654120">
        <ele>680.829</ele>
        <time>2018-11-24T12:48:28Z</time>
      </trkpt>
      <trkpt lat="42.142628" lon="0.653705">
        <ele>683.121</ele>
        <time>2018-11-24T12:48:29Z</time>
      </trkpt>
      <trkpt lat="42.142736" lon="0.653316">
        <ele>685.508</ele>
        <time>2018-11-24T12:48:30Z</time>
      </trkpt>
      <trkpt lat="42.142836" lon="0.652922">
        <ele>688.119</ele>
        <time>2018-11-24T12:48:31Z</time>
      </trkpt>
      <trkpt lat="42.142928" lon="0.652525">
        <ele>690.466</ele>
        <time>2018-11-24T12:48:32Z</time>
      </trkpt>
      <trkpt lat="42.142959" lon="0.652116">
        <ele>692.563</ele>
        <time>2018-11-24T12:48:33Z</time>
      </trkpt>
      <trkpt lat="42.142914" lon="0.651723">
        <ele>694.764</ele>
        <time>2018-11-24T12:48:34Z</time>
      </trkpt>
      <trkpt lat="42.142830" lon="0.651347">
        <ele>697.072</ele>
        <time>2018-11-24T12:48:35Z</time>
      </trkpt>
      <trkpt lat="42.142730" lon="0.650988">
        <ele>699.044</ele>
        <time>2018-11-24T12:48:36Z</time>
      </trkpt>
      <trkpt lat="42.142558" lon="0.650655">
        <ele>701.237</ele>
        <time>2018-11-24T12:48:37Z</time>
      </trkpt>
      <trkpt lat="42.142349" lon="0.650363">
        <ele>703.111</ele>
        <time>2018-11-24T12:48:38Z</time>
      </trkpt>
      <trkpt lat="42.142113" lon="0.650109">
        <ele>705.411</ele>
        <time>2018-11-24T12:48:39Z</time>
      </trkpt>
      <trkpt lat="42.141871" lon="0.649883">
        <ele>707.921</ele>
        <time>2018-11-24T12:48:40Z</time>
      </trkpt>
      <trkpt lat="42.141573" lon="0.649752">
        <ele>710.203</ele>
        <time>2018-11-24T12:48:41Z</time>
      </trkpt>
      <trkpt lat="42.141266" lon="0.649635">
        <ele>712.808</ele>
        <time>2018-11-24T12:48:42Z</time>
      </trkpt>
      <trkpt lat="42.140961" lon="0.649501">
        <ele>715.064</ele>
        <time>2018-11-24T12:48:43Z</time>
      </trkpt>
      <trkpt lat="42.140657" lon="0.649346">
        <ele>717.511</ele>
        <time>2018-11-24T12:48:44Z</time>
      </trkpt>
      <trkpt lat="42.140351" lon="0.649158">
        <ele>719.948</ele>
        <time>2018-11-24T12:48:45Z</time>
      </trkpt>
      <trkpt lat="42.140117" lon="0.648843">
        <ele>722.859</ele>
        <time>2018-11-24T12:48:46Z</time>
      </trkpt>
      <trkpt lat="42.139897" lon="0.648513">
        <ele>724.817</ele>
        <time>2018-11-24T12:48:47Z</time>
      </trkpt>
      <trkpt lat="42.139687" lon="0.648174">
        <ele>727.459</ele>
        <time>2018-11-24T12:48:48Z</time>
      </trkpt>
      <trkpt lat="42.139497" lon="0.647805">
        <ele>729.712</ele>
        <time>2018-11-24T12:48:49Z</time>
      </trkpt>
      <trkpt lat="42.139315" lon="0.647417">
        <ele>732.546</ele>
        <time>2018-11-24T12:48:50Z</time>
      </trkpt>
      <trkpt lat="42.139157" lon="0.647019">
        <ele>735.216</ele>
        <time>2018-11-24T12:48:51Z</time>
      </trkpt>
      <trkpt lat="42.139025" lon="0.646609">
        <ele>737.176</ele>
        <time>2018-11-24T12:48:52Z</time>
      </trkpt>
      <trkpt lat="42.138924" lon="0.646197">
        <ele>739.213</ele>
        <time>2018-11-24T12:48:53Z</time>
      </trkpt>
      <trkpt lat="42.138839" lon="0.645787">
        <ele>740.908</ele>
        <time>2018-11-24T12:48:54Z</time>
      </trkpt>
      <trkpt lat="42.138767" lon="0.645379">
        <ele>742.564</ele>
        <time>2018-11-24T12:48:55Z</time>
      </trkpt>
      <trkpt lat="42.138701" lon="0.644974">
        <ele>743.441</ele>
        <time>2018-11-24T12:48:56Z</time>
      </trkpt>
      <trkpt lat="42.138643" lon="0.644569">
        <ele>743.738</ele>
        <time>2018-11-24T12:48:57Z</time>
      </trkpt>
      <trkpt lat="42.138583" lon="0.644169">
        <ele>743.599</ele>
        <time>2018-11-24T12:48:58Z</time>
      </trkpt>
      <trkpt lat="42.138507" lon="0.643782">
        <ele>743.087</ele>
        <time>2018-11-24T12:48:59Z</time>
      </trkpt>
      <trkpt lat="42.138395" lon="0.643408">
        <ele>742.739</ele>
        <time>2018-11-24T12:49:00Z</time>
      </trkpt>
      <trkpt lat="42.138253" lon="0.643041">
        <ele>742.582</ele>
        <time>2018-11-24T12:49:01Z</time>
      </trkpt>
      <trkpt lat="42.138084" lon="0.642680">
        <ele>742.646</ele>
        <time>2018-11-24T12:49:02Z</time>
      </trkpt>
      <trkpt lat="42.137906" lon="0.642318">
        <ele>742.628</ele>
        <time>2018-11-24T12:49:03Z</time>
      </trkpt>
      <trkpt lat="42.137743" lon="0.641942">
        <ele>742.689</ele>
        <time>2018-11-24T12:49:04Z</time>
      </trkpt>
      <trkpt lat="42.137589" lon="0.641559">
        <ele>742.417</ele>
        <time>2018-11-24T12:49:05Z</time>
      </trkpt>
      <trkpt lat="42.137493" lon="0.641146">
        <ele>742.108</ele>
        <time>2018-11-24T12:49:06Z</time>
      </trkpt>
      <trkpt lat="42.137434" lon="0.640715">
        <ele>742.095</ele>
        <time>2018-11-24T12:49:07Z</time>
      </trkpt>
      <trkpt lat="42.137367" lon="0.640296">
        <ele>742.692</ele>
        <time>2018-11-24T12:49:08Z</time>
      </trkpt>
      <trkpt lat="42.137309" lon="0.639876">
        <ele>743.259</ele>
        <time>2018-11-24T12:49:09Z</time>
      </trkpt>
      <trkpt lat="42.137252" lon="0.639465">
        <ele>743.620</ele>
        <time>2018-11-24T12:49:10Z</time>
      </trkpt>
      <trkpt lat="42.137189" lon="0.639067">
        <ele>745.468</ele>
        <time>2018-11-24T12:49:11Z</time>
      </trkpt>
      <trkpt lat="42.137128" lon="0.638680">
        <ele>745.990</ele>
        <time>2018-11-24T12:49:12Z</time>
      </trkpt>
      <trkpt lat="42.137066" lon="0.638294">
        <ele>747.383</ele>
        <time>2018-11-24T12:49:13Z</time>
      </trkpt>
      <trkpt lat="42.137000" lon="0.637902">
        <ele>748.667</ele>
        <time>2018-11-24T12:49:14Z</time>
      </trkpt>
      <trkpt lat="42.136944" lon="0.637503">
        <ele>750.129</ele>
        <time>2018-11-24T12:49:15Z</time>
      </trkpt>
      <trkpt lat="42.136899" lon="0.637090">
        <ele>751.500</ele>
        <time>2018-11-24T12:49:16Z</time>
      </trkpt>
      <trkpt lat="42.136867" lon="0.636669">
        <ele>752.720</ele>
        <time>2018-11-24T12:49:17Z</time>
      </trkpt>
      <trkpt lat="42.136839" lon="0.636240">
        <ele>754.308</ele>
        <time>2018-11-24T12:49:18Z</time>
      </trkpt>
      <trkpt lat="42.136817" lon="0.635807">
        <ele>755.555</ele>
        <time>2018-11-24T12:49:19Z</time>
      </trkpt>
      <trkpt lat="42.136799" lon="0.635383">
        <ele>756.582</ele>
        <time>2018-11-24T12:49:20Z</time>
      </trkpt>
      <trkpt lat="42.136773" lon="0.634974">
        <ele>757.479</ele>
        <time>2018-11-24T12:49:21Z</time>
      </trkpt>
      <trkpt lat="42.136734" lon="0.634593">
        <ele>758.380</ele>
        <time>2018-11-24T12:49:22Z</time>
      </trkpt>
      <trkpt lat="42.136677" lon="0.634241">
        <ele>759.388</ele>
        <time>2018-11-24T12:49:23Z</time>
      </trkpt>
      <trkpt lat="42.136593" lon="0.633906">
        <ele>760.950</ele>
        <time>2018-11-24T12:49:24Z</time>
      </trkpt>
      <trkpt lat="42.136496" lon="0.633582">
        <ele>762.883</ele>
        <time>2018-11-24T12:49:25Z</time>
      </trkpt>
      <trkpt lat="42.136358" lon="0.633274">
        <ele>764.627</ele>
        <time>2018-11-24T12:49:26Z</time>
      </trkpt>
      <trkpt lat="42.136164" lon="0.633000">
        <ele>767.065</ele>
        <time>2018-11-24T12:49:27Z</time>
      </trkpt>
      <trkpt lat="42.135949" lon="0.632756">
        <ele>768.868</ele>
        <time>2018-11-24T12:49:28Z</time>
      </trkpt>
      <trkpt lat="42.135722" lon="0.632518">
        <ele>770.814</ele>
        <time>2018-11-24T12:49:29Z</time>
      </trkpt>
      <trkpt lat="42.135485" lon="0.632276">
        <ele>772.908</ele>
        <time>2018-11-24T12:49:30Z</time>
      </trkpt>
      <trkpt lat="42.135259" lon="0.632018">
        <ele>775.499</ele>
        <time>2018-11-24T12:49:31Z</time>
      </trkpt>
      <trkpt lat="42.135042" lon="0.631736">
        <ele>777.426</ele>
        <time>2018-11-24T12:49:32Z</time>
      </trkpt>
      <trkpt lat="42.134830" lon="0.631434">
        <ele>779.743</ele>
        <time>2018-11-24T12:49:33Z</time>
      </trkpt>
      <trkpt lat="42.134690" lon="0.631070">
        <ele>781.584</ele>
        <time>2018-11-24T12:49:34Z</time>
      </trkpt>
      <trkpt lat="42.134563" lon="0.630685">
        <ele>784.172</ele>
        <time>2018-11-24T12:49:35Z</time>
      </trkpt>
      <trkpt lat="42.134458" lon="0.630286">
        <ele>786.854</ele>
        <time>2018-11-24T12:49:36Z</time>
      </trkpt>
      <trkpt lat="42.134348" lon="0.629881">
        <ele>789.087</ele>
        <time>2018-11-24T12:49:37Z</time>
      </trkpt>
      <trkpt lat="42.134238" lon="0.629476">
        <ele>791.451</ele>
        <time>2018-11-24T12:49:38Z</time>
      </trkpt>
      <trkpt lat="42.134130" lon="0.629066">
        <ele>793.416</ele>
        <time>2018-11-24T12:49:39Z</time>
      </trkpt>
      <trkpt lat="42.134012" lon="0.628654">
        <ele>795.976</ele>
        <time>2018-11-24T12:49:40Z</time>
      </trkpt>
      <trkpt lat="42.133894" lon="0.628236">
        <ele>797.813</ele>
        <time>2018-11-24T12:49:41Z</time>
      </trkpt>
      <trkpt lat="42.133784" lon="0.627813">
        <ele>799.908</ele>
        <time>2018-11-24T12:49:42Z</time>
      </trkpt>
      <trkpt lat="42.133677" lon="0.627400">
        <ele>801.244</ele>
        <time>2018-11-24T12:49:43Z</time>
      </trkpt>
      <trkpt lat="42.133587" lon="0.626981">
        <ele>802.911</ele>
        <time>2018-11-24T12:49:44Z</time>
      </trkpt>
      <trkpt lat="42.133517" lon="0.626550">
        <ele>804.318</ele>
        <time>2018-11-24T12:49:45Z</time>
      </trkpt>
      <trkpt lat="42.133453" lon="0.626112">
        <ele>805.869</ele>
        <time>2018-11-24T12:49:46Z</time>
      </trkpt>
      <trkpt lat="42.133442" lon="0.625662">
        <ele>807.897</ele>
        <time>2018-11-24T12:49:47Z</time>
      </trkpt>
      <trkpt lat="42.133443" lon="0.625200">
        <ele>809.659</ele>
        <time>2018-11-24T12:49:48Z</time>
      </trkpt>
      <trkpt lat="42.133444" lon="0.624736">
        <ele>811.482</ele>
        <time>2018-11-24T12:49:49Z</time>
      </trkpt>
      <trkpt lat="42.133437" lon="0.624289">
        <ele>812.556</ele>
        <time>2018-11-24T12:49:50Z</time>
      </trkpt>
      <trkpt lat="42.133433" lon="0.623854">
        <ele>813.661</ele>
        <time>2018-11-24T12:49:51Z</time>
      </trkpt>
      <trkpt lat="42.133448" lon="0.623429">
        <ele>815.121</ele>
        <time>2018-11-24T12:49:52Z</time>
      </trkpt>
      <trkpt lat="42.133477" lon="0.623006">
        <ele>816.313</ele>
        <time>2018-11-24T12:49:53Z</time>
      </trkpt>
      <trkpt lat="42.133586" lon="0.622600">
        <ele>817.608</ele>
        <time>2018-11-24T12:49:54Z</time>
      </trkpt>
      <trkpt lat="42.133730" lon="0.622223">
        <ele>819.039</ele>
        <time>2018-11-24T12:49:55Z</time>
      </trkpt>
      <trkpt lat="42.133913" lon="0.621869">
        <ele>820.866</ele>
        <time>2018-11-24T12:49:56Z</time>
      </trkpt>
      <trkpt lat="42.134122" lon="0.621551">
        <ele>822.673</ele>
        <time>2018-11-24T12:49:57Z</time>
      </trkpt>
      <trkpt lat="42.134370" lon="0.621282">
        <ele>825.114</ele>
        <time>2018-11-24T12:49:58Z</time>
      </trkpt>
      <trkpt lat="42.134623" lon="0.621045">
        <ele>826.472</ele>
        <time>2018-11-24T12:49:59Z</time>
      </trkpt>
      <trkpt lat="42.134861" lon="0.620844">
        <ele>827.014</ele>
        <time>2018-11-24T12:50:00Z</time>
      </trkpt>
      <trkpt lat="42.135100" lon="0.620657">
        <ele>827.897</ele>
        <time>2018-11-24T12:50:01Z</time>
      </trkpt>
      <trkpt lat="42.135321" lon="0.620442">
        <ele>829.471</ele>
        <time>2018-11-24T12:50:02Z</time>
      </trkpt>
      <trkpt lat="42.135532" lon="0.620213">
        <ele>831.393</ele>
        <time>2018-11-24T12:50:03Z</time>
      </trkpt>
      <trkpt lat="42.135720" lon="0.619932">
        <ele>832.865</ele>
        <time>2018-11-24T12:50:04Z</time>
      </trkpt>
      <trkpt lat="42.135881" lon="0.619619">
        <ele>834.021</ele>
        <time>2018-11-24T12:50:05Z</time>
      </trkpt>
      <trkpt lat="42.136030" lon="0.619282">
        <ele>834.908</ele>
        <time>2018-11-24T12:50:06Z</time>
      </trkpt>
      <trkpt lat="42.136161" lon="0.618931">
        <ele>835.662</ele>
        <time>2018-11-24T12:50:07Z</time>
      </trkpt>
      <trkpt lat="42.136234" lon="0.618547">
        <ele>835.959</ele>
        <time>2018-11-24T12:50:08Z</time>
      </trkpt>
      <trkpt lat="42.136261" lon="0.618154">
        <ele>835.686</ele>
        <time>2018-11-24T12:50:09Z</time>
      </trkpt>
      <trkpt lat="42.136259" lon="0.617760">
        <ele>834.787</ele>
        <time>2018-11-24T12:50:10Z</time>
      </trkpt>
      <trkpt lat="42.136221" lon="0.617378">
        <ele>833.945</ele>
        <time>2018-11-24T12:50:11Z</time>
      </trkpt>
      <trkpt lat="42.136162" lon="0.617000">
        <ele>833.447</ele>
        <time>2018-11-24T12:50:12Z</time>
      </trkpt>
      <trkpt lat="42.136041" lon="0.616623">
        <ele>832.550</ele>
        <time>2018-11-24T12:50:13Z</time>
      </trkpt>
      <trkpt lat="42.135903" lon="0.616243">
        <ele>831.664</ele>
        <time>2018-11-24T12:50:14Z</time>
      </trkpt>
      <trkpt lat="42.135756" lon="0.615858">
        <ele>830.797</ele>
        <time>2018-11-24T12:50:15Z</time>
      </trkpt>
      <trkpt lat="42.135612" lon="0.615476">
        <ele>828.923</ele>
        <time>2018-11-24T12:50:16Z</time>
      </trkpt>
      <trkpt lat="42.135471" lon="0.615097">
        <ele>827.625</ele>
        <time>2018-11-24T12:50:17Z</time>
      </trkpt>
      <trkpt lat="42.135325" lon="0.614727">
        <ele>826.008</ele>
        <time>2018-11-24T12:50:18Z</time>
      </trkpt>
      <trkpt lat="42.135167" lon="0.614356">
        <ele>824.042</ele>
        <time>2018-11-24T12:50:19Z</time>
      </trkpt>
      <trkpt lat="42.135022" lon="0.613977">
        <ele>822.719</ele>
        <time>2018-11-24T12:50:20Z</time>
      </trkpt>
      <trkpt lat="42.134878" lon="0.613594">
        <ele>821.376</ele>
        <time>2018-11-24T12:50:21Z</time>
      </trkpt>
      <trkpt lat="42.134729" lon="0.613208">
        <ele>819.387</ele>
        <time>2018-11-24T12:50:22Z</time>
      </trkpt>
      <trkpt lat="42.134582" lon="0.612828">
        <ele>817.445</ele>
        <time>2018-11-24T12:50:23Z</time>
      </trkpt>
      <trkpt lat="42.134434" lon="0.612452">
        <ele>815.657</ele>
        <time>2018-11-24T12:50:24Z</time>
      </trkpt>
      <trkpt lat="42.134266" lon="0.612076">
        <ele>813.910</ele>
        <time>2018-11-24T12:50:25Z</time>
      </trkpt>
      <trkpt lat="42.134060" lon="0.611716">
        <ele>812.994</ele>
        <time>2018-11-24T12:50:26Z</time>
      </trkpt>
      <trkpt lat="42.133822" lon="0.611366">
        <ele>811.615</ele>
        <time>2018-11-24T12:50:27Z</time>
      </trkpt>
      <trkpt lat="42.133577" lon="0.611011">
        <ele>810.565</ele>
        <time>2018-11-24T12:50:28Z</time>
      </trkpt>
      <trkpt lat="42.133326" lon="0.610654">
        <ele>809.311</ele>
        <time>2018-11-24T12:50:29Z</time>
      </trkpt>
      <trkpt lat="42.133083" lon="0.610300">
        <ele>807.508</ele>
        <time>2018-11-24T12:50:30Z</time>
      </trkpt>
      <trkpt lat="42.132847" lon="0.609949">
        <ele>806.364</ele>
        <time>2018-11-24T12:50:31Z</time>
      </trkpt>
      <trkpt lat="42.132619" lon="0.609597">
        <ele>804.361</ele>
        <time>2018-11-24T12:50:32Z</time>
      </trkpt>
      <trkpt lat="42.132419" lon="0.609221">
        <ele>802.928</ele>
        <time>2018-11-24T12:50:33Z</time>
      </trkpt>
      <trkpt lat="42.132229" lon="0.608836">
        <ele>801.629</ele>
        <time>2018-11-24T12:50:34Z</time>
      </trkpt>
      <trkpt lat="42.132027" lon="0.608470">
        <ele>800.667</ele>
        <time>2018-11-24T12:50:35Z</time>
      </trkpt>
      <trkpt lat="42.131828" lon="0.608132">
        <ele>799.079</ele>
        <time>2018-11-24T12:50:36Z</time>
      </trkpt>
      <trkpt lat="42.131606" lon="0.607821">
        <ele>797.692</ele>
        <time>2018-11-24T12:50:37Z</time>
      </trkpt>
      <trkpt lat="42.131365" lon="0.607539">
        <ele>796.686</ele>
        <time>2018-11-24T12:50:38Z</time>
      </trkpt>
      <trkpt lat="42.131112" lon="0.607272">
        <ele>795.852</ele>
        <time>2018-11-24T12:50:39Z</time>
      </trkpt>
      <trkpt lat="42.130848" lon="0.607017">
        <ele>795.153</ele>
        <time>2018-11-24T12:50:40Z</time>
      </trkpt>
      <trkpt lat="42.130575" lon="0.606775">
        <ele>794.208</ele>
        <time>2018-11-24T12:50:41Z</time>
      </trkpt>
      <trkpt lat="42.130279" lon="0.606551">
        <ele>793.608</ele>
        <time>2018-11-24T12:50:42Z</time>
      </trkpt>
      <trkpt lat="42.129987" lon="0.606321">
        <ele>792.998</ele>
        <time>2018-11-24T12:50:43Z</time>
      </trkpt>
      <trkpt lat="42.129703" lon="0.606084">
        <ele>792.425</ele>
        <time>2018-11-24T12:50:44Z</time>
      </trkpt>
      <trkpt lat="42.129424" lon="0.605849">
        <ele>791.732</ele>
        <time>2018-11-24T12:50:45Z</time>
      </trkpt>
      <trkpt lat="42.129154" lon="0.605621">
        <ele>792.033</ele>
        <time>2018-11-24T12:50:46Z</time>
      </trkpt>
      <trkpt lat="42.128889" lon="0.605397">
        <ele>792.211</ele>
        <time>2018-11-24T12:50:47Z</time>
      </trkpt>
      <trkpt lat="42.128628" lon="0.605185">
        <ele>792.773</ele>
        <time>2018-11-24T12:50:48Z</time>
      </trkpt>
      <trkpt lat="42.128382" lon="0.604975">
        <ele>792.646</ele>
        <time>2018-11-24T12:50:49Z</time>
      </trkpt>
      <trkpt lat="42.128144" lon="0.604772">
        <ele>792.550</ele>
        <time>2018-11-24T12:50:50Z</time>
      </trkpt>
      <trkpt lat="42.127908" lon="0.604570">
        <ele>792.553</ele>
        <time>2018-11-24T12:50:51Z</time>
      </trkpt>
      <trkpt lat="42.127668" lon="0.604364">
        <ele>792.304</ele>
        <time>2018-11-24T12:50:52Z</time>
      </trkpt>
      <trkpt lat="42.127430" lon="0.604163">
        <ele>791.814</ele>
        <time>2018-11-24T12:50:53Z</time>
      </trkpt>
      <trkpt lat="42.127200" lon="0.603957">
        <ele>791.008</ele>
        <time>2018-11-24T12:50:54Z</time>
      </trkpt>
      <trkpt lat="42.126985" lon="0.603731">
        <ele>789.918</ele>
        <time>2018-11-24T12:50:55Z</time>
      </trkpt>
      <trkpt lat="42.126791" lon="0.603477">
        <ele>789.195</ele>
        <time>2018-11-24T12:50:56Z</time>
      </trkpt>
      <trkpt lat="42.126621" lon="0.603213">
        <ele>787.742</ele>
        <time>2018-11-24T12:50:57Z</time>
      </trkpt>
      <trkpt lat="42.126476" lon="0.602948">
        <ele>786.593</ele>
        <time>2018-11-24T12:50:58Z</time>
      </trkpt>
      <trkpt lat="42.126340" lon="0.602694">
        <ele>785.011</ele>
        <time>2018-11-24T12:50:59Z</time>
      </trkpt>
      <trkpt lat="42.126205" lon="0.602446">
        <ele>784.243</ele>
        <time>2018-11-24T12:51:00Z</time>
      </trkpt>
      <trkpt lat="42.126070" lon="0.602204">
        <ele>783.416</ele>
        <time>2018-11-24T12:51:01Z</time>
      </trkpt>
      <trkpt lat="42.125938" lon="0.601974">
        <ele>782.710</ele>
        <time>2018-11-24T12:51:02Z</time>
      </trkpt>
      <trkpt lat="42.125803" lon="0.601753">
        <ele>781.949</ele>
        <time>2018-11-24T12:51:03Z</time>
      </trkpt>
      <trkpt lat="42.125662" lon="0.601550">
        <ele>781.302</ele>
        <time>2018-11-24T12:51:04Z</time>
      </trkpt>
      <trkpt lat="42.125521" lon="0.601375">
        <ele>780.722</ele>
        <time>2018-11-24T12:51:05Z</time>
      </trkpt>
      <trkpt lat="42.125384" lon="0.601210">
        <ele>779.608</ele>
        <time>2018-11-24T12:51:06Z</time>
      </trkpt>
      <trkpt lat="42.125236" lon="0.601070">
        <ele>778.987</ele>
        <time>2018-11-24T12:51:07Z</time>
      </trkpt>
      <trkpt lat="42.125086" lon="0.600929">
        <ele>778.234</ele>
        <time>2018-11-24T12:51:08Z</time>
      </trkpt>
      <trkpt lat="42.124934" lon="0.600789">
        <ele>777.731</ele>
        <time>2018-11-24T12:51:09Z</time>
      </trkpt>
      <trkpt lat="42.124776" lon="0.600644">
        <ele>777.372</ele>
        <time>2018-11-24T12:51:10Z</time>
      </trkpt>
      <trkpt lat="42.124618" lon="0.600504">
        <ele>776.870</ele>
        <time>2018-11-24T12:51:11Z</time>
      </trkpt>
      <trkpt lat="42.124460" lon="0.600362">
        <ele>776.172</ele>
        <time>2018-11-24T12:51:12Z</time>
      </trkpt>
      <trkpt lat="42.124295" lon="0.600220">
        <ele>775.555</ele>
        <time>2018-11-24T12:51:13Z</time>
      </trkpt>
      <trkpt lat="42.124136" lon="0.600079">
        <ele>775.199</ele>
        <time>2018-11-24T12:51:14Z</time>
      </trkpt>
      <trkpt lat="42.123978" lon="0.599939">
        <ele>774.438</ele>
        <time>2018-11-24T12:51:15Z</time>
      </trkpt>
      <trkpt lat="42.123829" lon="0.599803">
        <ele>773.870</ele>
        <time>2018-11-24T12:51:16Z</time>
      </trkpt>
      <trkpt lat="42.123689" lon="0.599667">
        <ele>773.117</ele>
        <time>2018-11-24T12:51:17Z</time>
      </trkpt>
      <trkpt lat="42.123554" lon="0.599523">
        <ele>772.508</ele>
        <time>2018-11-24T12:51:18Z</time>
      </trkpt>
      <trkpt lat="42.123425" lon="0.599363">
        <ele>772.016</ele>
        <time>2018-11-24T12:51:19Z</time>
      </trkpt>
      <trkpt lat="42.123305" lon="0.599190">
        <ele>771.633</ele>
        <time>2018-11-24T12:51:20Z</time>
      </trkpt>
      <trkpt lat="42.123191" lon="0.599010">
        <ele>771.090</ele>
        <time>2018-11-24T12:51:21Z</time>
      </trkpt>
      <trkpt lat="42.123074" lon="0.598831">
        <ele>770.261</ele>
        <time>2018-11-24T12:51:22Z</time>
      </trkpt>
      <trkpt lat="42.122956" lon="0.598655">
        <ele>769.479</ele>
        <time>2018-11-24T12:51:23Z</time>
      </trkpt>
      <trkpt lat="42.122832" lon="0.598486">
        <ele>768.711</ele>
        <time>2018-11-24T12:51:24Z</time>
      </trkpt>
      <trkpt lat="42.122699" lon="0.598329">
        <ele>767.574</ele>
        <time>2018-11-24T12:51:25Z</time>
      </trkpt>
      <trkpt lat="42.122555" lon="0.598182">
        <ele>766.538</ele>
        <time>2018-11-24T12:51:26Z</time>
      </trkpt>
      <trkpt lat="42.122398" lon="0.598047">
        <ele>765.675</ele>
        <time>2018-11-24T12:51:27Z</time>
      </trkpt>
      <trkpt lat="42.122231" lon="0.597921">
        <ele>764.528</ele>
        <time>2018-11-24T12:51:28Z</time>
      </trkpt>
      <trkpt lat="42.122055" lon="0.597808">
        <ele>763.320</ele>
        <time>2018-11-24T12:51:29Z</time>
      </trkpt>
      <trkpt lat="42.121866" lon="0.597707">
        <ele>761.908</ele>
        <time>2018-11-24T12:51:30Z</time>
      </trkpt>
      <trkpt lat="42.121667" lon="0.597604">
        <ele>761.040</ele>
        <time>2018-11-24T12:51:31Z</time>
      </trkpt>
      <trkpt lat="42.121460" lon="0.597482">
        <ele>760.177</ele>
        <time>2018-11-24T12:51:32Z</time>
      </trkpt>
      <trkpt lat="42.121246" lon="0.597327">
        <ele>759.384</ele>
        <time>2018-11-24T12:51:33Z</time>
      </trkpt>
      <trkpt lat="42.121031" lon="0.597135">
        <ele>758.685</ele>
        <time>2018-11-24T12:51:34Z</time>
      </trkpt>
      <trkpt lat="42.120820" lon="0.596906">
        <ele>757.853</ele>
        <time>2018-11-24T12:51:35Z</time>
      </trkpt>
      <trkpt lat="42.120604" lon="0.596656">
        <ele>756.435</ele>
        <time>2018-11-24T12:51:36Z</time>
      </trkpt>
      <trkpt lat="42.120366" lon="0.596427">
        <ele>755.158</ele>
        <time>2018-11-24T12:51:37Z</time>
      </trkpt>
      <trkpt lat="42.120118" lon="0.596221">
        <ele>754.142</ele>
        <time>2018-11-24T12:51:38Z</time>
      </trkpt>
      <trkpt lat="42.119822" lon="0.596086">
        <ele>753.388</ele>
        <time>2018-11-24T12:51:39Z</time>
      </trkpt>
      <trkpt lat="42.119525" lon="0.595980">
        <ele>752.824</ele>
        <time>2018-11-24T12:51:40Z</time>
      </trkpt>
      <trkpt lat="42.119238" lon="0.595882">
        <ele>751.926</ele>
        <time>2018-11-24T12:51:41Z</time>
      </trkpt>
      <trkpt lat="42.118962" lon="0.595782">
        <ele>750.508</ele>
        <time>2018-11-24T12:51:42Z</time>
      </trkpt>
      <trkpt lat="42.118698" lon="0.595671">
        <ele>749.171</ele>
        <time>2018-11-24T12:51:43Z</time>
      </trkpt>
      <trkpt lat="42.118446" lon="0.595535">
        <ele>747.928</ele>
        <time>2018-11-24T12:51:44Z</time>
      </trkpt>
      <trkpt lat="42.118198" lon="0.595373">
        <ele>746.675</ele>
        <time>2018-11-24T12:51:45Z</time>
      </trkpt>
      <trkpt lat="42.117958" lon="0.595187">
        <ele>745.166</ele>
        <time>2018-11-24T12:51:46Z</time>
      </trkpt>
      <trkpt lat="42.117727" lon="0.594976">
        <ele>744.184</ele>
        <time>2018-11-24T12:51:47Z</time>
      </trkpt>
      <trkpt lat="42.117495" lon="0.594756">
        <ele>742.826</ele>
        <time>2018-11-24T12:51:48Z</time>
      </trkpt>
      <trkpt lat="42.117264" lon="0.594532">
        <ele>741.249</ele>
        <time>2018-11-24T12:51:49Z</time>
      </trkpt>
      <trkpt lat="42.117032" lon="0.594306">
        <ele>739.183</ele>
        <time>2018-11-24T12:51:50Z</time>
      </trkpt>
      <trkpt lat="42.116797" lon="0.594081">
        <ele>737.424</ele>
        <time>2018-11-24T12:51:51Z</time>
      </trkpt>
      <trkpt lat="42.116568" lon="0.593855">
        <ele>736.504</ele>
        <time>2018-11-24T12:51:52Z</time>
      </trkpt>
      <trkpt lat="42.116351" lon="0.593618">
        <ele>735.914</ele>
        <time>2018-11-24T12:51:53Z</time>
      </trkpt>
      <trkpt lat="42.116155" lon="0.593360">
        <ele>735.608</ele>
        <time>2018-11-24T12:51:54Z</time>
      </trkpt>
      <trkpt lat="42.115988" lon="0.593073">
        <ele>735.545</ele>
        <time>2018-11-24T12:51:55Z</time>
      </trkpt>
      <trkpt lat="42.115846" lon="0.592762">
        <ele>735.852</ele>
        <time>2018-11-24T12:51:56Z</time>
      </trkpt>
      <trkpt lat="42.115733" lon="0.592426">
        <ele>735.779</ele>
        <time>2018-11-24T12:51:57Z</time>
      </trkpt>
      <trkpt lat="42.115648" lon="0.592082">
        <ele>734.960</ele>
        <time>2018-11-24T12:51:58Z</time>
      </trkpt>
      <trkpt lat="42.115594" lon="0.591734">
        <ele>733.638</ele>
        <time>2018-11-24T12:51:59Z</time>
      </trkpt>
      <trkpt lat="42.115553" lon="0.591379">
        <ele>732.180</ele>
        <time>2018-11-24T12:52:00Z</time>
      </trkpt>
      <trkpt lat="42.115577" lon="0.591014">
        <ele>731.093</ele>
        <time>2018-11-24T12:52:01Z</time>
      </trkpt>
      <trkpt lat="42.115604" lon="0.590646">
        <ele>729.527</ele>
        <time>2018-11-24T12:52:02Z</time>
      </trkpt>
      <trkpt lat="42.115694" lon="0.590256">
        <ele>728.159</ele>
        <time>2018-11-24T12:52:03Z</time>
      </trkpt>
      <trkpt lat="42.115797" lon="0.589852">
        <ele>726.603</ele>
        <time>2018-11-24T12:52:04Z</time>
      </trkpt>
      <trkpt lat="42.115890" lon="0.589436">
        <ele>725.723</ele>
        <time>2018-11-24T12:52:05Z</time>
      </trkpt>
      <trkpt lat="42.115987" lon="0.588999">
        <ele>724.808</ele>
        <time>2018-11-24T12:52:06Z</time>
      </trkpt>
      <trkpt lat="42.116075" lon="0.588563">
        <ele>724.098</ele>
        <time>2018-11-24T12:52:07Z</time>
      </trkpt>
      <trkpt lat="42.116163" lon="0.588132">
        <ele>723.515</ele>
        <time>2018-11-24T12:52:08Z</time>
      </trkpt>
      <trkpt lat="42.116248" lon="0.587707">
        <ele>723.992</ele>
        <time>2018-11-24T12:52:09Z</time>
      </trkpt>
      <trkpt lat="42.116331" lon="0.587294">
        <ele>724.493</ele>
        <time>2018-11-24T12:52:10Z</time>
      </trkpt>
      <trkpt lat="42.116418" lon="0.586899">
        <ele>724.771</ele>
        <time>2018-11-24T12:52:11Z</time>
      </trkpt>
      <trkpt lat="42.116507" lon="0.586510">
        <ele>725.023</ele>
        <time>2018-11-24T12:52:12Z</time>
      </trkpt>
      <trkpt lat="42.116598" lon="0.586129">
        <ele>724.926</ele>
        <time>2018-11-24T12:52:13Z</time>
      </trkpt>
      <trkpt lat="42.116688" lon="0.585762">
        <ele>724.790</ele>
        <time>2018-11-24T12:52:14Z</time>
      </trkpt>
      <trkpt lat="42.116774" lon="0.585395">
        <ele>724.392</ele>
        <time>2018-11-24T12:52:15Z</time>
      </trkpt>
      <trkpt lat="42.116864" lon="0.585011">
        <ele>724.273</ele>
        <time>2018-11-24T12:52:16Z</time>
      </trkpt>
      <trkpt lat="42.116956" lon="0.584621">
        <ele>723.620</ele>
        <time>2018-11-24T12:52:17Z</time>
      </trkpt>
      <trkpt lat="42.117052" lon="0.584225">
        <ele>722.408</ele>
        <time>2018-11-24T12:52:18Z</time>
      </trkpt>
      <trkpt lat="42.117144" lon="0.583837">
        <ele>721.172</ele>
        <time>2018-11-24T12:52:19Z</time>
      </trkpt>
      <trkpt lat="42.117231" lon="0.583458">
        <ele>719.569</ele>
        <time>2018-11-24T12:52:20Z</time>
      </trkpt>
      <trkpt lat="42.117321" lon="0.583087">
        <ele>717.946</ele>
        <time>2018-11-24T12:52:21Z</time>
      </trkpt>
      <trkpt lat="42.117409" lon="0.582713">
        <ele>716.237</ele>
        <time>2018-11-24T12:52:22Z</time>
      </trkpt>
      <trkpt lat="42.117499" lon="0.582340">
        <ele>714.955</ele>
        <time>2018-11-24T12:52:23Z</time>
      </trkpt>
      <trkpt lat="42.117591" lon="0.581961">
        <ele>713.517</ele>
        <time>2018-11-24T12:52:24Z</time>
      </trkpt>
      <trkpt lat="42.117684" lon="0.581581">
        <ele>712.310</ele>
        <time>2018-11-24T12:52:25Z</time>
      </trkpt>
      <trkpt lat="42.117776" lon="0.581199">
        <ele>711.034</ele>
        <time>2018-11-24T12:52:26Z</time>
      </trkpt>
      <trkpt lat="42.117867" lon="0.580819">
        <ele>709.777</ele>
        <time>2018-11-24T12:52:27Z</time>
      </trkpt>
      <trkpt lat="42.117956" lon="0.580439">
        <ele>708.661</ele>
        <time>2018-11-24T12:52:28Z</time>
      </trkpt>
      <trkpt lat="42.118045" lon="0.580063">
        <ele>707.127</ele>
        <time>2018-11-24T12:52:29Z</time>
      </trkpt>
      <trkpt lat="42.118134" lon="0.579689">
        <ele>705.708</ele>
        <time>2018-11-24T12:52:30Z</time>
      </trkpt>
      <trkpt lat="42.118221" lon="0.579319">
        <ele>704.310</ele>
        <time>2018-11-24T12:52:31Z</time>
      </trkpt>
      <trkpt lat="42.118307" lon="0.578949">
        <ele>703.487</ele>
        <time>2018-11-24T12:52:32Z</time>
      </trkpt>
      <trkpt lat="42.118394" lon="0.578583">
        <ele>701.894</ele>
        <time>2018-11-24T12:52:33Z</time>
      </trkpt>
      <trkpt lat="42.118480" lon="0.578220">
        <ele>700.595</ele>
        <time>2018-11-24T12:52:34Z</time>
      </trkpt>
      <trkpt lat="42.118568" lon="0.577852">
        <ele>698.883</ele>
        <time>2018-11-24T12:52:35Z</time>
      </trkpt>
      <trkpt lat="42.118658" lon="0.577479">
        <ele>697.235</ele>
        <time>2018-11-24T12:52:36Z</time>
      </trkpt>
      <trkpt lat="42.118748" lon="0.577103">
        <ele>695.868</ele>
        <time>2018-11-24T12:52:37Z</time>
      </trkpt>
      <trkpt lat="42.118837" lon="0.576726">
        <ele>694.232</ele>
        <time>2018-11-24T12:52:38Z</time>
      </trkpt>
      <trkpt lat="42.118919" lon="0.576346">
        <ele>692.464</ele>
        <time>2018-11-24T12:52:39Z</time>
      </trkpt>
      <trkpt lat="42.118985" lon="0.575958">
        <ele>690.106</ele>
        <time>2018-11-24T12:52:40Z</time>
      </trkpt>
      <trkpt lat="42.119034" lon="0.575563">
        <ele>688.416</ele>
        <time>2018-11-24T12:52:41Z</time>
      </trkpt>
      <trkpt lat="42.119062" lon="0.575166">
        <ele>686.408</ele>
        <time>2018-11-24T12:52:42Z</time>
      </trkpt>
      <trkpt lat="42.119074" lon="0.574767">
        <ele>684.479</ele>
        <time>2018-11-24T12:52:43Z</time>
      </trkpt>
      <trkpt lat="42.119077" lon="0.574373">
        <ele>682.196</ele>
        <time>2018-11-24T12:52:44Z</time>
      </trkpt>
      <trkpt lat="42.119078" lon="0.573987">
        <ele>679.853</ele>
        <time>2018-11-24T12:52:45Z</time>
      </trkpt>
      <trkpt lat="42.119080" lon="0.573603">
        <ele>678.114</ele>
        <time>2018-11-24T12:52:46Z</time>
      </trkpt>
      <trkpt lat="42.119082" lon="0.573217">
        <ele>675.882</ele>
        <time>2018-11-24T12:52:47Z</time>
      </trkpt>
      <trkpt lat="42.119085" lon="0.572828">
        <ele>674.024</ele>
        <time>2018-11-24T12:52:48Z</time>
      </trkpt>
      <trkpt lat="42.119089" lon="0.572436">
        <ele>672.247</ele>
        <time>2018-11-24T12:52:49Z</time>
      </trkpt>
      <trkpt lat="42.119092" lon="0.572044">
        <ele>670.471</ele>
        <time>2018-11-24T12:52:50Z</time>
      </trkpt>
      <trkpt lat="42.119094" lon="0.571652">
        <ele>668.152</ele>
        <time>2018-11-24T12:52:51Z</time>
      </trkpt>
      <trkpt lat="42.119096" lon="0.571260">
        <ele>666.453</ele>
        <time>2018-11-24T12:52:52Z</time>
      </trkpt>
      <trkpt lat="42.119097" lon="0.570864">
        <ele>664.408</ele>
        <time>2018-11-24T12:52:53Z</time>
      </trkpt>
      <trkpt lat="42.119092" lon="0.570459">
        <ele>663.208</ele>
        <time>2018-11-24T12:52:54Z</time>
      </trkpt>
      <trkpt lat="42.119074" lon="0.570049">
        <ele>661.918</ele>
        <time>2018-11-24T12:52:55Z</time>
      </trkpt>
      <trkpt lat="42.119035" lon="0.569640">
        <ele>661.235</ele>
        <time>2018-11-24T12:52:56Z</time>
      </trkpt>
      <trkpt lat="42.118964" lon="0.569238">
        <ele>661.252</ele>
        <time>2018-11-24T12:52:57Z</time>
      </trkpt>
      <trkpt lat="42.118860" lon="0.568853">
        <ele>661.523</ele>
        <time>2018-11-24T12:52:58Z</time>
      </trkpt>
      <trkpt lat="42.118731" lon="0.568483">
        <ele>662.081</ele>
        <time>2018-11-24T12:52:59Z</time>
      </trkpt>
      <trkpt lat="42.118580" lon="0.568130">
        <ele>663.183</ele>
        <time>2018-11-24T12:53:00Z</time>
      </trkpt>
      <trkpt lat="42.118421" lon="0.567791">
        <ele>664.476</ele>
        <time>2018-11-24T12:53:01Z</time>
      </trkpt>
      <trkpt lat="42.118268" lon="0.567454">
        <ele>665.850</ele>
        <time>2018-11-24T12:53:02Z</time>
      </trkpt>
      <trkpt lat="42.118120" lon="0.567113">
        <ele>667.874</ele>
        <time>2018-11-24T12:53:03Z</time>
      </trkpt>
      <trkpt lat="42.117972" lon="0.566770">
        <ele>669.656</ele>
        <time>2018-11-24T12:53:04Z</time>
      </trkpt>
      <trkpt lat="42.117823" lon="0.566425">
        <ele>671.921</ele>
        <time>2018-11-24T12:53:05Z</time>
      </trkpt>
      <trkpt lat="42.117674" lon="0.566078">
        <ele>673.708</ele>
        <time>2018-11-24T12:53:06Z</time>
      </trkpt>
      <trkpt lat="42.117522" lon="0.565726">
        <ele>676.330</ele>
        <time>2018-11-24T12:53:07Z</time>
      </trkpt>
      <trkpt lat="42.117368" lon="0.565369">
        <ele>678.457</ele>
        <time>2018-11-24T12:53:08Z</time>
      </trkpt>
      <trkpt lat="42.117217" lon="0.565018">
        <ele>680.574</ele>
        <time>2018-11-24T12:53:09Z</time>
      </trkpt>
      <trkpt lat="42.117072" lon="0.564679">
        <ele>682.135</ele>
        <time>2018-11-24T12:53:10Z</time>
      </trkpt>
      <trkpt lat="42.116933" lon="0.564351">
        <ele>683.463</ele>
        <time>2018-11-24T12:53:11Z</time>
      </trkpt>
      <trkpt lat="42.116797" lon="0.564033">
        <ele>684.745</ele>
        <time>2018-11-24T12:53:12Z</time>
      </trkpt>
      <trkpt lat="42.116665" lon="0.563724">
        <ele>686.088</ele>
        <time>2018-11-24T12:53:13Z</time>
      </trkpt>
      <trkpt lat="42.116536" lon="0.563419">
        <ele>687.232</ele>
        <time>2018-11-24T12:53:14Z</time>
      </trkpt>
      <trkpt lat="42.116406" lon="0.563113">
        <ele>689.078</ele>
        <time>2018-11-24T12:53:15Z</time>
      </trkpt>
      <trkpt lat="42.116275" lon="0.562806">
        <ele>690.633</ele>
        <time>2018-11-24T12:53:16Z</time>
      </trkpt>
      <trkpt lat="42.116146" lon="0.562506">
        <ele>691.126</ele>
        <time>2018-11-24T12:53:17Z</time>
      </trkpt>
      <trkpt lat="42.116017" lon="0.562209">
        <ele>691.808</ele>
        <time>2018-11-24T12:53:18Z</time>
      </trkpt>
      <trkpt lat="42.115886" lon="0.561909">
        <ele>692.220</ele>
        <time>2018-11-24T12:53:19Z</time>
      </trkpt>
      <trkpt lat="42.115754" lon="0.561603">
        <ele>692.747</ele>
        <time>2018-11-24T12:53:20Z</time>
      </trkpt>
      <trkpt lat="42.115618" lon="0.561307">
        <ele>693.134</ele>
        <time>2018-11-24T12:53:21Z</time>
      </trkpt>
      <trkpt lat="42.115477" lon="0.560995">
        <ele>693.125</ele>
        <time>2018-11-24T12:53:22Z</time>
      </trkpt>
      <trkpt lat="42.115344" lon="0.560681">
        <ele>692.423</ele>
        <time>2018-11-24T12:53:23Z</time>
      </trkpt>
      <trkpt lat="42.115210" lon="0.560364">
        <ele>691.555</ele>
        <time>2018-11-24T12:53:24Z</time>
      </trkpt>
      <trkpt lat="42.115079" lon="0.560032">
        <ele>690.738</ele>
        <time>2018-11-24T12:53:25Z</time>
      </trkpt>
      <trkpt lat="42.114945" lon="0.559697">
        <ele>689.732</ele>
        <time>2018-11-24T12:53:26Z</time>
      </trkpt>
      <trkpt lat="42.114790" lon="0.559379">
        <ele>688.071</ele>
        <time>2018-11-24T12:53:27Z</time>
      </trkpt>
      <trkpt lat="42.114610" lon="0.559082">
        <ele>687.141</ele>
        <time>2018-11-24T12:53:28Z</time>
      </trkpt>
      <trkpt lat="42.114402" lon="0.558801">
        <ele>686.515</ele>
        <time>2018-11-24T12:53:29Z</time>
      </trkpt>
      <trkpt lat="42.114190" lon="0.558543">
        <ele>686.308</ele>
        <time>2018-11-24T12:53:30Z</time>
      </trkpt>
      <trkpt lat="42.113991" lon="0.558277">
        <ele>686.730</ele>
        <time>2018-11-24T12:53:31Z</time>
      </trkpt>
      <trkpt lat="42.113825" lon="0.557986">
        <ele>687.447</ele>
        <time>2018-11-24T12:53:32Z</time>
      </trkpt>
      <trkpt lat="42.113687" lon="0.557673">
        <ele>688.194</ele>
        <time>2018-11-24T12:53:33Z</time>
      </trkpt>
      <trkpt lat="42.113546" lon="0.557349">
        <ele>689.155</ele>
        <time>2018-11-24T12:53:34Z</time>
      </trkpt>
      <trkpt lat="42.113476" lon="0.556984">
        <ele>690.113</ele>
        <time>2018-11-24T12:53:35Z</time>
      </trkpt>
      <trkpt lat="42.113426" lon="0.556602">
        <ele>690.455</ele>
        <time>2018-11-24T12:53:36Z</time>
      </trkpt>
      <trkpt lat="42.113385" lon="0.556224">
        <ele>690.238</ele>
        <time>2018-11-24T12:53:37Z</time>
      </trkpt>
      <trkpt lat="42.113344" lon="0.555843">
        <ele>690.292</ele>
        <time>2018-11-24T12:53:38Z</time>
      </trkpt>
      <trkpt lat="42.113293" lon="0.555461">
        <ele>690.466</ele>
        <time>2018-11-24T12:53:39Z</time>
      </trkpt>
      <trkpt lat="42.113246" lon="0.555082">
        <ele>690.329</ele>
        <time>2018-11-24T12:53:40Z</time>
      </trkpt>
      <trkpt lat="42.113165" lon="0.554709">
        <ele>690.021</ele>
        <time>2018-11-24T12:53:41Z</time>
      </trkpt>
      <trkpt lat="42.113062" lon="0.554346">
        <ele>689.708</ele>
        <time>2018-11-24T12:53:42Z</time>
      </trkpt>
      <trkpt lat="42.112946" lon="0.554006">
        <ele>689.459</ele>
        <time>2018-11-24T12:53:43Z</time>
      </trkpt>
      <trkpt lat="42.112811" lon="0.553675">
        <ele>689.036</ele>
        <time>2018-11-24T12:53:44Z</time>
      </trkpt>
      <trkpt lat="42.112683" lon="0.553345">
        <ele>688.223</ele>
        <time>2018-11-24T12:53:45Z</time>
      </trkpt>
      <trkpt lat="42.112565" lon="0.553012">
        <ele>687.624</ele>
        <time>2018-11-24T12:53:46Z</time>
      </trkpt>
      <trkpt lat="42.112478" lon="0.552664">
        <ele>686.822</ele>
        <time>2018-11-24T12:53:47Z</time>
      </trkpt>
      <trkpt lat="42.112422" lon="0.552301">
        <ele>686.274</ele>
        <time>2018-11-24T12:53:48Z</time>
      </trkpt>
      <trkpt lat="42.112400" lon="0.551937">
        <ele>685.767</ele>
        <time>2018-11-24T12:53:49Z</time>
      </trkpt>
      <trkpt lat="42.112413" lon="0.551570">
        <ele>685.161</ele>
        <time>2018-11-24T12:53:50Z</time>
      </trkpt>
      <trkpt lat="42.112457" lon="0.551204">
        <ele>685.037</ele>
        <time>2018-11-24T12:53:51Z</time>
      </trkpt>
      <trkpt lat="42.112540" lon="0.550848">
        <ele>685.349</ele>
        <time>2018-11-24T12:53:52Z</time>
      </trkpt>
      <trkpt lat="42.112653" lon="0.550504">
        <ele>685.613</ele>
        <time>2018-11-24T12:53:53Z</time>
      </trkpt>
      <trkpt lat="42.112774" lon="0.550166">
        <ele>686.108</ele>
        <time>2018-11-24T12:53:54Z</time>
      </trkpt>
      <trkpt lat="42.112942" lon="0.549847">
        <ele>686.496</ele>
        <time>2018-11-24T12:53:55Z</time>
      </trkpt>
      <trkpt lat="42.113114" lon="0.549514">
        <ele>687.043</ele>
        <time>2018-11-24T12:53:56Z</time>
      </trkpt>
      <trkpt lat="42.113260" lon="0.549158">
        <ele>687.630</ele>
        <time>2018-11-24T12:53:57Z</time>
      </trkpt>
      <trkpt lat="42.113371" lon="0.548793">
        <ele>687.851</ele>
        <time>2018-11-24T12:53:58Z</time>
      </trkpt>
      <trkpt lat="42.113472" lon="0.548418">
        <ele>688.059</ele>
        <time>2018-11-24T12:53:59Z</time>
      </trkpt>
      <trkpt lat="42.113570" lon="0.548048">
        <ele>688.341</ele>
        <time>2018-11-24T12:54:00Z</time>
      </trkpt>
      <trkpt lat="42.113677" lon="0.547678">
        <ele>689.094</ele>
        <time>2018-11-24T12:54:01Z</time>
      </trkpt>
      <trkpt lat="42.113782" lon="0.547306">
        <ele>689.258</ele>
        <time>2018-11-24T12:54:02Z</time>
      </trkpt>
      <trkpt lat="42.113873" lon="0.546925">
        <ele>689.489</ele>
        <time>2018-11-24T12:54:03Z</time>
      </trkpt>
      <trkpt lat="42.113956" lon="0.546544">
        <ele>689.806</ele>
        <time>2018-11-24T12:54:04Z</time>
      </trkpt>
      <trkpt lat="42.114020" lon="0.546158">
        <ele>690.726</ele>
        <time>2018-11-24T12:54:05Z</time>
      </trkpt>
      <trkpt lat="42.114056" lon="0.545768">
        <ele>691.508</ele>
        <time>2018-11-24T12:54:06Z</time>
      </trkpt>
      <trkpt lat="42.114078" lon="0.545381">
        <ele>692.561</ele>
        <time>2018-11-24T12:54:07Z</time>
      </trkpt>
      <trkpt lat="42.114101" lon="0.544994">
        <ele>693.848</ele>
        <time>2018-11-24T12:54:08Z</time>
      </trkpt>
      <trkpt lat="42.114135" lon="0.544604">
        <ele>696.085</ele>
        <time>2018-11-24T12:54:09Z</time>
      </trkpt>
      <trkpt lat="42.114183" lon="0.544212">
        <ele>698.366</ele>
        <time>2018-11-24T12:54:10Z</time>
      </trkpt>
      <trkpt lat="42.114264" lon="0.543823">
        <ele>700.194</ele>
        <time>2018-11-24T12:54:11Z</time>
      </trkpt>
      <trkpt lat="42.114368" lon="0.543444">
        <ele>702.916</ele>
        <time>2018-11-24T12:54:12Z</time>
      </trkpt>
      <trkpt lat="42.114487" lon="0.543077">
        <ele>704.849</ele>
        <time>2018-11-24T12:54:13Z</time>
      </trkpt>
      <trkpt lat="42.114604" lon="0.542725">
        <ele>706.573</ele>
        <time>2018-11-24T12:54:14Z</time>
      </trkpt>
      <trkpt lat="42.114708" lon="0.542387">
        <ele>707.722</ele>
        <time>2018-11-24T12:54:15Z</time>
      </trkpt>
      <trkpt lat="42.114779" lon="0.542043">
        <ele>709.162</ele>
        <time>2018-11-24T12:54:16Z</time>
      </trkpt>
      <trkpt lat="42.114818" lon="0.541688">
        <ele>710.708</ele>
        <time>2018-11-24T12:54:17Z</time>
      </trkpt>
      <trkpt lat="42.114853" lon="0.541326">
        <ele>712.708</ele>
        <time>2018-11-24T12:54:18Z</time>
      </trkpt>
      <trkpt lat="42.114802" lon="0.540958">
        <ele>714.975</ele>
        <time>2018-11-24T12:54:19Z</time>
      </trkpt>
      <trkpt lat="42.114746" lon="0.540586">
        <ele>716.592</ele>
        <time>2018-11-24T12:54:20Z</time>
      </trkpt>
      <trkpt lat="42.114646" lon="0.540225">
        <ele>718.749</ele>
        <time>2018-11-24T12:54:21Z</time>
      </trkpt>
      <trkpt lat="42.114518" lon="0.539882">
        <ele>720.650</ele>
        <time>2018-11-24T12:54:22Z</time>
      </trkpt>
      <trkpt lat="42.114357" lon="0.539551">
        <ele>722.838</ele>
        <time>2018-11-24T12:54:23Z</time>
      </trkpt>
      <trkpt lat="42.114184" lon="0.539223">
        <ele>724.980</ele>
        <time>2018-11-24T12:54:24Z</time>
      </trkpt>
      <trkpt lat="42.114025" lon="0.538879">
        <ele>726.713</ele>
        <time>2018-11-24T12:54:25Z</time>
      </trkpt>
      <trkpt lat="42.113884" lon="0.538511">
        <ele>729.137</ele>
        <time>2018-11-24T12:54:26Z</time>
      </trkpt>
      <trkpt lat="42.113780" lon="0.538121">
        <ele>730.763</ele>
        <time>2018-11-24T12:54:27Z</time>
      </trkpt>
      <trkpt lat="42.113684" lon="0.537730">
        <ele>732.544</ele>
        <time>2018-11-24T12:54:28Z</time>
      </trkpt>
      <trkpt lat="42.113681" lon="0.537331">
        <ele>733.518</ele>
        <time>2018-11-24T12:54:29Z</time>
      </trkpt>
      <trkpt lat="42.113687" lon="0.536925">
        <ele>735.008</ele>
        <time>2018-11-24T12:54:30Z</time>
      </trkpt>
      <trkpt lat="42.113703" lon="0.536522">
        <ele>736.369</ele>
        <time>2018-11-24T12:54:31Z</time>
      </trkpt>
      <trkpt lat="42.113717" lon="0.536106">
        <ele>737.866</ele>
        <time>2018-11-24T12:54:32Z</time>
      </trkpt>
      <trkpt lat="42.113735" lon="0.535688">
        <ele>738.923</ele>
        <time>2018-11-24T12:54:33Z</time>
      </trkpt>
      <trkpt lat="42.113753" lon="0.535268">
        <ele>739.724</ele>
        <time>2018-11-24T12:54:34Z</time>
      </trkpt>
      <trkpt lat="42.113766" lon="0.534852">
        <ele>740.872</ele>
        <time>2018-11-24T12:54:35Z</time>
      </trkpt>
      <trkpt lat="42.113782" lon="0.534439">
        <ele>741.864</ele>
        <time>2018-11-24T12:54:36Z</time>
      </trkpt>
      <trkpt lat="42.113796" lon="0.534026">
        <ele>742.837</ele>
        <time>2018-11-24T12:54:37Z</time>
      </trkpt>
      <trkpt lat="42.113809" lon="0.533617">
        <ele>743.691</ele>
        <time>2018-11-24T12:54:38Z</time>
      </trkpt>
      <trkpt lat="42.113822" lon="0.533204">
        <ele>744.883</ele>
        <time>2018-11-24T12:54:39Z</time>
      </trkpt>
      <trkpt lat="42.113834" lon="0.532793">
        <ele>745.825</ele>
        <time>2018-11-24T12:54:40Z</time>
      </trkpt>
      <trkpt lat="42.113844" lon="0.532381">
        <ele>747.117</ele>
        <time>2018-11-24T12:54:41Z</time>
      </trkpt>
      <trkpt lat="42.113857" lon="0.531980">
        <ele>748.208</ele>
        <time>2018-11-24T12:54:42Z</time>
      </trkpt>
      <trkpt lat="42.113869" lon="0.531589">
        <ele>749.291</ele>
        <time>2018-11-24T12:54:43Z</time>
      </trkpt>
      <trkpt lat="42.113879" lon="0.531202">
        <ele>751.078</ele>
        <time>2018-11-24T12:54:44Z</time>
      </trkpt>
      <trkpt lat="42.113888" lon="0.530823">
        <ele>752.655</ele>
        <time>2018-11-24T12:54:45Z</time>
      </trkpt>
      <trkpt lat="42.113896" lon="0.530456">
        <ele>754.296</ele>
        <time>2018-11-24T12:54:46Z</time>
      </trkpt>
      <trkpt lat="42.113897" lon="0.530093">
        <ele>755.224</ele>
        <time>2018-11-24T12:54:47Z</time>
      </trkpt>
      <trkpt lat="42.113892" lon="0.529732">
        <ele>756.676</ele>
        <time>2018-11-24T12:54:48Z</time>
      </trkpt>
      <trkpt lat="42.113884" lon="0.529377">
        <ele>757.289</ele>
        <time>2018-11-24T12:54:49Z</time>
      </trkpt>
      <trkpt lat="42.113872" lon="0.529029">
        <ele>757.583</ele>
        <time>2018-11-24T12:54:50Z</time>
      </trkpt>
      <trkpt lat="42.113856" lon="0.528690">
        <ele>757.439</ele>
        <time>2018-11-24T12:54:51Z</time>
      </trkpt>
      <trkpt lat="42.113834" lon="0.528354">
        <ele>757.601</ele>
        <time>2018-11-24T12:54:52Z</time>
      </trkpt>
      <trkpt lat="42.113799" lon="0.528012">
        <ele>757.721</ele>
        <time>2018-11-24T12:54:53Z</time>
      </trkpt>
      <trkpt lat="42.113748" lon="0.527667">
        <ele>758.108</ele>
        <time>2018-11-24T12:54:54Z</time>
      </trkpt>
      <trkpt lat="42.113675" lon="0.527325">
        <ele>758.686</ele>
        <time>2018-11-24T12:54:55Z</time>
      </trkpt>
      <trkpt lat="42.113586" lon="0.526992">
        <ele>758.623</ele>
        <time>2018-11-24T12:54:56Z</time>
      </trkpt>
      <trkpt lat="42.113463" lon="0.526666">
        <ele>758.210</ele>
        <time>2018-11-24T12:54:57Z</time>
      </trkpt>
      <trkpt lat="42.113339" lon="0.526333">
        <ele>758.351</ele>
        <time>2018-11-24T12:54:58Z</time>
      </trkpt>
      <trkpt lat="42.113213" lon="0.525979">
        <ele>758.759</ele>
        <time>2018-11-24T12:54:59Z</time>
      </trkpt>
      <trkpt lat="42.113094" lon="0.525618">
        <ele>759.061</ele>
        <time>2018-11-24T12:55:00Z</time>
      </trkpt>
      <trkpt lat="42.112994" lon="0.525237">
        <ele>760.054</ele>
        <time>2018-11-24T12:55:01Z</time>
      </trkpt>
      <trkpt lat="42.112903" lon="0.524829">
        <ele>760.918</ele>
        <time>2018-11-24T12:55:02Z</time>
      </trkpt>
      <trkpt lat="42.112831" lon="0.524407">
        <ele>761.776</ele>
        <time>2018-11-24T12:55:03Z</time>
      </trkpt>
      <trkpt lat="42.112770" lon="0.523979">
        <ele>763.290</ele>
        <time>2018-11-24T12:55:04Z</time>
      </trkpt>
      <trkpt lat="42.112725" lon="0.523559">
        <ele>764.119</ele>
        <time>2018-11-24T12:55:05Z</time>
      </trkpt>
      <trkpt lat="42.112693" lon="0.523132">
        <ele>765.108</ele>
        <time>2018-11-24T12:55:06Z</time>
      </trkpt>
      <trkpt lat="42.112670" lon="0.522700">
        <ele>765.970</ele>
        <time>2018-11-24T12:55:07Z</time>
      </trkpt>
      <trkpt lat="42.112652" lon="0.522270">
        <ele>766.757</ele>
        <time>2018-11-24T12:55:08Z</time>
      </trkpt>
      <trkpt lat="42.112630" lon="0.521843">
        <ele>767.384</ele>
        <time>2018-11-24T12:55:09Z</time>
      </trkpt>
      <trkpt lat="42.112598" lon="0.521423">
        <ele>767.465</ele>
        <time>2018-11-24T12:55:10Z</time>
      </trkpt>
      <trkpt lat="42.112557" lon="0.521014">
        <ele>767.583</ele>
        <time>2018-11-24T12:55:11Z</time>
      </trkpt>
      <trkpt lat="42.112496" lon="0.520606">
        <ele>768.195</ele>
        <time>2018-11-24T12:55:12Z</time>
      </trkpt>
      <trkpt lat="42.112417" lon="0.520199">
        <ele>768.938</ele>
        <time>2018-11-24T12:55:13Z</time>
      </trkpt>
      <trkpt lat="42.112319" lon="0.519796">
        <ele>769.072</ele>
        <time>2018-11-24T12:55:14Z</time>
      </trkpt>
      <trkpt lat="42.112206" lon="0.519401">
        <ele>768.316</ele>
        <time>2018-11-24T12:55:15Z</time>
      </trkpt>
      <trkpt lat="42.112081" lon="0.519015">
        <ele>767.776</ele>
        <time>2018-11-24T12:55:16Z</time>
      </trkpt>
      <trkpt lat="42.111937" lon="0.518639">
        <ele>766.713</ele>
        <time>2018-11-24T12:55:17Z</time>
      </trkpt>
      <trkpt lat="42.111766" lon="0.518272">
        <ele>765.608</ele>
        <time>2018-11-24T12:55:18Z</time>
      </trkpt>
      <trkpt lat="42.111597" lon="0.517903">
        <ele>764.884</ele>
        <time>2018-11-24T12:55:19Z</time>
      </trkpt>
      <trkpt lat="42.111427" lon="0.517531">
        <ele>763.421</ele>
        <time>2018-11-24T12:55:20Z</time>
      </trkpt>
      <trkpt lat="42.111258" lon="0.517150">
        <ele>762.098</ele>
        <time>2018-11-24T12:55:21Z</time>
      </trkpt>
      <trkpt lat="42.111094" lon="0.516757">
        <ele>760.019</ele>
        <time>2018-11-24T12:55:22Z</time>
      </trkpt>
      <trkpt lat="42.110934" lon="0.516360">
        <ele>758.027</ele>
        <time>2018-11-24T12:55:23Z</time>
      </trkpt>
      <trkpt lat="42.110781" lon="0.515967">
        <ele>755.559</ele>
        <time>2018-11-24T12:55:24Z</time>
      </trkpt>
      <trkpt lat="42.110630" lon="0.515572">
        <ele>753.642</ele>
        <time>2018-11-24T12:55:25Z</time>
      </trkpt>
      <trkpt lat="42.110478" lon="0.515176">
        <ele>751.456</ele>
        <time>2018-11-24T12:55:26Z</time>
      </trkpt>
      <trkpt lat="42.110330" lon="0.514770">
        <ele>749.562</ele>
        <time>2018-11-24T12:55:27Z</time>
      </trkpt>
      <trkpt lat="42.110189" lon="0.514353">
        <ele>747.983</ele>
        <time>2018-11-24T12:55:28Z</time>
      </trkpt>
      <trkpt lat="42.110050" lon="0.513935">
        <ele>745.511</ele>
        <time>2018-11-24T12:55:29Z</time>
      </trkpt>
      <trkpt lat="42.109911" lon="0.513520">
        <ele>743.708</ele>
        <time>2018-11-24T12:55:30Z</time>
      </trkpt>
      <trkpt lat="42.109774" lon="0.513108">
        <ele>741.599</ele>
        <time>2018-11-24T12:55:31Z</time>
      </trkpt>
      <trkpt lat="42.109638" lon="0.512698">
        <ele>739.856</ele>
        <time>2018-11-24T12:55:32Z</time>
      </trkpt>
      <trkpt lat="42.109504" lon="0.512292">
        <ele>738.333</ele>
        <time>2018-11-24T12:55:33Z</time>
      </trkpt>
      <trkpt lat="42.109374" lon="0.511895">
        <ele>736.434</ele>
        <time>2018-11-24T12:55:34Z</time>
      </trkpt>
      <trkpt lat="42.109248" lon="0.511513">
        <ele>734.722</ele>
        <time>2018-11-24T12:55:35Z</time>
      </trkpt>
      <trkpt lat="42.109125" lon="0.511142">
        <ele>733.464</ele>
        <time>2018-11-24T12:55:36Z</time>
      </trkpt>
      <trkpt lat="42.109002" lon="0.510778">
        <ele>732.327</ele>
        <time>2018-11-24T12:55:37Z</time>
      </trkpt>
      <trkpt lat="42.108886" lon="0.510413">
        <ele>731.351</ele>
        <time>2018-11-24T12:55:38Z</time>
      </trkpt>
      <trkpt lat="42.108785" lon="0.510031">
        <ele>730.797</ele>
        <time>2018-11-24T12:55:39Z</time>
      </trkpt>
      <trkpt lat="42.108714" lon="0.509628">
        <ele>729.823</ele>
        <time>2018-11-24T12:55:40Z</time>
      </trkpt>
      <trkpt lat="42.108677" lon="0.509213">
        <ele>728.925</ele>
        <time>2018-11-24T12:55:41Z</time>
      </trkpt>
      <trkpt lat="42.108659" lon="0.508793">
        <ele>728.008</ele>
        <time>2018-11-24T12:55:42Z</time>
      </trkpt>
      <trkpt lat="42.108638" lon="0.508378">
        <ele>727.252</ele>
        <time>2018-11-24T12:55:43Z</time>
      </trkpt>
      <trkpt lat="42.108602" lon="0.507970">
        <ele>725.929</ele>
        <time>2018-11-24T12:55:44Z</time>
      </trkpt>
      <trkpt lat="42.108547" lon="0.507571">
        <ele>726.716</ele>
        <time>2018-11-24T12:55:45Z</time>
      </trkpt>
      <trkpt lat="42.108476" lon="0.507181">
        <ele>723.727</ele>
        <time>2018-11-24T12:55:46Z</time>
      </trkpt>
      <trkpt lat="42.108402" lon="0.506797">
        <ele>722.585</ele>
        <time>2018-11-24T12:55:47Z</time>
      </trkpt>
      <trkpt lat="42.108326" lon="0.506416">
        <ele>721.797</ele>
        <time>2018-11-24T12:55:48Z</time>
      </trkpt>
      <trkpt lat="42.108250" lon="0.506039">
        <ele>720.710</ele>
        <time>2018-11-24T12:55:49Z</time>
      </trkpt>
      <trkpt lat="42.108174" lon="0.505662">
        <ele>720.264</ele>
        <time>2018-11-24T12:55:50Z</time>
      </trkpt>
      <trkpt lat="42.108099" lon="0.505285">
        <ele>719.645</ele>
        <time>2018-11-24T12:55:51Z</time>
      </trkpt>
      <trkpt lat="42.108025" lon="0.504911">
        <ele>718.647</ele>
        <time>2018-11-24T12:55:52Z</time>
      </trkpt>
      <trkpt lat="42.107952" lon="0.504552">
        <ele>717.411</ele>
        <time>2018-11-24T12:55:53Z</time>
      </trkpt>
      <trkpt lat="42.107880" lon="0.504202">
        <ele>716.608</ele>
        <time>2018-11-24T12:55:54Z</time>
      </trkpt>
      <trkpt lat="42.107808" lon="0.503852">
        <ele>716.037</ele>
        <time>2018-11-24T12:55:55Z</time>
      </trkpt>
      <trkpt lat="42.107737" lon="0.503511">
        <ele>715.224</ele>
        <time>2018-11-24T12:55:56Z</time>
      </trkpt>
      <trkpt lat="42.107669" lon="0.503183">
        <ele>714.271</ele>
        <time>2018-11-24T12:55:57Z</time>
      </trkpt>
      <trkpt lat="42.107604" lon="0.502865">
        <ele>713.312</ele>
        <time>2018-11-24T12:55:58Z</time>
      </trkpt>
      <trkpt lat="42.107540" lon="0.502550">
        <ele>712.670</ele>
        <time>2018-11-24T12:55:59Z</time>
      </trkpt>
      <trkpt lat="42.107477" lon="0.502239">
        <ele>711.862</ele>
        <time>2018-11-24T12:56:00Z</time>
      </trkpt>
      <trkpt lat="42.107415" lon="0.501932">
        <ele>711.035</ele>
        <time>2018-11-24T12:56:01Z</time>
      </trkpt>
      <trkpt lat="42.107355" lon="0.501625">
        <ele>710.139</ele>
        <time>2018-11-24T12:56:02Z</time>
      </trkpt>
      <trkpt lat="42.107297" lon="0.501317">
        <ele>709.486</ele>
        <time>2018-11-24T12:56:03Z</time>
      </trkpt>
      <trkpt lat="42.107245" lon="0.501003">
        <ele>708.760</ele>
        <time>2018-11-24T12:56:04Z</time>
      </trkpt>
      <trkpt lat="42.107202" lon="0.500681">
        <ele>707.926</ele>
        <time>2018-11-24T12:56:05Z</time>
      </trkpt>
      <trkpt lat="42.107168" lon="0.500356">
        <ele>707.608</ele>
        <time>2018-11-24T12:56:06Z</time>
      </trkpt>
      <trkpt lat="42.107142" lon="0.500028">
        <ele>707.341</ele>
        <time>2018-11-24T12:56:07Z</time>
      </trkpt>
      <trkpt lat="42.107123" lon="0.499698">
        <ele>706.798</ele>
        <time>2018-11-24T12:56:08Z</time>
      </trkpt>
      <trkpt lat="42.107106" lon="0.499370">
        <ele>705.885</ele>
        <time>2018-11-24T12:56:09Z</time>
      </trkpt>
      <trkpt lat="42.107090" lon="0.499045">
        <ele>705.096</ele>
        <time>2018-11-24T12:56:10Z</time>
      </trkpt>
      <trkpt lat="42.107073" lon="0.498724">
        <ele>704.444</ele>
        <time>2018-11-24T12:56:11Z</time>
      </trkpt>
      <trkpt lat="42.107056" lon="0.498403">
        <ele>703.956</ele>
        <time>2018-11-24T12:56:12Z</time>
      </trkpt>
      <trkpt lat="42.107037" lon="0.498080">
        <ele>703.519</ele>
        <time>2018-11-24T12:56:13Z</time>
      </trkpt>
      <trkpt lat="42.107014" lon="0.497753">
        <ele>703.113</ele>
        <time>2018-11-24T12:56:14Z</time>
      </trkpt>
      <trkpt lat="42.106987" lon="0.497418">
        <ele>702.815</ele>
        <time>2018-11-24T12:56:15Z</time>
      </trkpt>
      <trkpt lat="42.106952" lon="0.497086">
        <ele>702.565</ele>
        <time>2018-11-24T12:56:16Z</time>
      </trkpt>
      <trkpt lat="42.106918" lon="0.496743">
        <ele>702.111</ele>
        <time>2018-11-24T12:56:17Z</time>
      </trkpt>
      <trkpt lat="42.106881" lon="0.496391">
        <ele>701.608</ele>
        <time>2018-11-24T12:56:18Z</time>
      </trkpt>
      <trkpt lat="42.106836" lon="0.496038">
        <ele>701.134</ele>
        <time>2018-11-24T12:56:19Z</time>
      </trkpt>
      <trkpt lat="42.106779" lon="0.495701">
        <ele>700.341</ele>
        <time>2018-11-24T12:56:20Z</time>
      </trkpt>
      <trkpt lat="42.106723" lon="0.495373">
        <ele>699.598</ele>
        <time>2018-11-24T12:56:21Z</time>
      </trkpt>
      <trkpt lat="42.106664" lon="0.495050">
        <ele>698.669</ele>
        <time>2018-11-24T12:56:22Z</time>
      </trkpt>
      <trkpt lat="42.106606" lon="0.494725">
        <ele>698.147</ele>
        <time>2018-11-24T12:56:23Z</time>
      </trkpt>
      <trkpt lat="42.106550" lon="0.494398">
        <ele>697.669</ele>
        <time>2018-11-24T12:56:24Z</time>
      </trkpt>
      <trkpt lat="42.106492" lon="0.494076">
        <ele>697.322</ele>
        <time>2018-11-24T12:56:25Z</time>
      </trkpt>
      <trkpt lat="42.106435" lon="0.493754">
        <ele>696.966</ele>
        <time>2018-11-24T12:56:26Z</time>
      </trkpt>
      <trkpt lat="42.106379" lon="0.493437">
        <ele>696.077</ele>
        <time>2018-11-24T12:56:27Z</time>
      </trkpt>
      <trkpt lat="42.106325" lon="0.493122">
        <ele>695.461</ele>
        <time>2018-11-24T12:56:28Z</time>
      </trkpt>
      <trkpt lat="42.106283" lon="0.492805">
        <ele>694.727</ele>
        <time>2018-11-24T12:56:29Z</time>
      </trkpt>
      <trkpt lat="42.106261" lon="0.492480">
        <ele>694.208</ele>
        <time>2018-11-24T12:56:30Z</time>
      </trkpt>
      <trkpt lat="42.106261" lon="0.492153">
        <ele>693.730</ele>
        <time>2018-11-24T12:56:31Z</time>
      </trkpt>
      <trkpt lat="42.106289" lon="0.491830">
        <ele>693.377</ele>
        <time>2018-11-24T12:56:32Z</time>
      </trkpt>
      <trkpt lat="42.106345" lon="0.491510">
        <ele>692.964</ele>
        <time>2018-11-24T12:56:33Z</time>
      </trkpt>
      <trkpt lat="42.106426" lon="0.491197">
        <ele>692.765</ele>
        <time>2018-11-24T12:56:34Z</time>
      </trkpt>
      <trkpt lat="42.106536" lon="0.490892">
        <ele>692.713</ele>
        <time>2018-11-24T12:56:35Z</time>
      </trkpt>
      <trkpt lat="42.106671" lon="0.490607">
        <ele>693.155</ele>
        <time>2018-11-24T12:56:36Z</time>
      </trkpt>
      <trkpt lat="42.106802" lon="0.490332">
        <ele>693.638</ele>
        <time>2018-11-24T12:56:37Z</time>
      </trkpt>
      <trkpt lat="42.106973" lon="0.490100">
        <ele>694.552</ele>
        <time>2018-11-24T12:56:38Z</time>
      </trkpt>
      <trkpt lat="42.107166" lon="0.489901">
        <ele>695.212</ele>
        <time>2018-11-24T12:56:39Z</time>
      </trkpt>
      <trkpt lat="42.107372" lon="0.489721">
        <ele>696.632</ele>
        <time>2018-11-24T12:56:40Z</time>
      </trkpt>
      <trkpt lat="42.107575" lon="0.489542">
        <ele>698.405</ele>
        <time>2018-11-24T12:56:41Z</time>
      </trkpt>
      <trkpt lat="42.107774" lon="0.489380">
        <ele>699.808</ele>
        <time>2018-11-24T12:56:42Z</time>
      </trkpt>
      <trkpt lat="42.107954" lon="0.489200">
        <ele>701.374</ele>
        <time>2018-11-24T12:56:43Z</time>
      </trkpt>
      <trkpt lat="42.108115" lon="0.488994">
        <ele>702.851</ele>
        <time>2018-11-24T12:56:44Z</time>
      </trkpt>
      <trkpt lat="42.108264" lon="0.488763">
        <ele>704.558</ele>
        <time>2018-11-24T12:56:45Z</time>
      </trkpt>
      <trkpt lat="42.108374" lon="0.488500">
        <ele>705.979</ele>
        <time>2018-11-24T12:56:46Z</time>
      </trkpt>
      <trkpt lat="42.108474" lon="0.488224">
        <ele>707.387</ele>
        <time>2018-11-24T12:56:47Z</time>
      </trkpt>
      <trkpt lat="42.108552" lon="0.487942">
        <ele>708.229</ele>
        <time>2018-11-24T12:56:48Z</time>
      </trkpt>
      <trkpt lat="42.108605" lon="0.487645">
        <ele>709.352</ele>
        <time>2018-11-24T12:56:49Z</time>
      </trkpt>
      <trkpt lat="42.108624" lon="0.487343">
        <ele>710.056</ele>
        <time>2018-11-24T12:56:50Z</time>
      </trkpt>
      <trkpt lat="42.108613" lon="0.487049">
        <ele>710.797</ele>
        <time>2018-11-24T12:56:51Z</time>
      </trkpt>
      <trkpt lat="42.108575" lon="0.486747">
        <ele>711.423</ele>
        <time>2018-11-24T12:56:52Z</time>
      </trkpt>
      <trkpt lat="42.108515" lon="0.486465">
        <ele>711.625</ele>
        <time>2018-11-24T12:56:53Z</time>
      </trkpt>
      <trkpt lat="42.108448" lon="0.486191">
        <ele>711.508</ele>
        <time>2018-11-24T12:56:54Z</time>
      </trkpt>
      <trkpt lat="42.108360" lon="0.485941">
        <ele>711.632</ele>
        <time>2018-11-24T12:56:55Z</time>
      </trkpt>
      <trkpt lat="42.108228" lon="0.485700">
        <ele>711.729</ele>
        <time>2018-11-24T12:56:56Z</time>
      </trkpt>
      <trkpt lat="42.108090" lon="0.485477">
        <ele>711.616</ele>
        <time>2018-11-24T12:56:57Z</time>
      </trkpt>
      <trkpt lat="42.107932" lon="0.485278">
        <ele>711.737</ele>
        <time>2018-11-24T12:56:58Z</time>
      </trkpt>
      <trkpt lat="42.107750" lon="0.485105">
        <ele>711.595</ele>
        <time>2018-11-24T12:56:59Z</time>
      </trkpt>
      <trkpt lat="42.107561" lon="0.484959">
        <ele>711.227</ele>
        <time>2018-11-24T12:57:00Z</time>
      </trkpt>
      <trkpt lat="42.107356" lon="0.484842">
        <ele>710.750</ele>
        <time>2018-11-24T12:57:01Z</time>
      </trkpt>
      <trkpt lat="42.107137" lon="0.484749">
        <ele>710.414</ele>
        <time>2018-11-24T12:57:02Z</time>
      </trkpt>
      <trkpt lat="42.106912" lon="0.484681">
        <ele>709.543</ele>
        <time>2018-11-24T12:57:03Z</time>
      </trkpt>
      <trkpt lat="42.106678" lon="0.484627">
        <ele>708.864</ele>
        <time>2018-11-24T12:57:04Z</time>
      </trkpt>
      <trkpt lat="42.106442" lon="0.484578">
        <ele>707.710</ele>
        <time>2018-11-24T12:57:05Z</time>
      </trkpt>
      <trkpt lat="42.106206" lon="0.484530">
        <ele>706.408</ele>
        <time>2018-11-24T12:57:06Z</time>
      </trkpt>
      <trkpt lat="42.105966" lon="0.484481">
        <ele>705.397</ele>
        <time>2018-11-24T12:57:07Z</time>
      </trkpt>
      <trkpt lat="42.105723" lon="0.484431">
        <ele>703.964</ele>
        <time>2018-11-24T12:57:08Z</time>
      </trkpt>
      <trkpt lat="42.105479" lon="0.484382">
        <ele>702.851</ele>
        <time>2018-11-24T12:57:09Z</time>
      </trkpt>
      <trkpt lat="42.105236" lon="0.484339">
        <ele>701.472</ele>
        <time>2018-11-24T12:57:10Z</time>
      </trkpt>
      <trkpt lat="42.104994" lon="0.484303">
        <ele>700.510</ele>
        <time>2018-11-24T12:57:11Z</time>
      </trkpt>
      <trkpt lat="42.104748" lon="0.484279">
        <ele>699.372</ele>
        <time>2018-11-24T12:57:12Z</time>
      </trkpt>
      <trkpt lat="42.104496" lon="0.484265">
        <ele>698.685</ele>
        <time>2018-11-24T12:57:13Z</time>
      </trkpt>
      <trkpt lat="42.104238" lon="0.484262">
        <ele>698.199</ele>
        <time>2018-11-24T12:57:14Z</time>
      </trkpt>
      <trkpt lat="42.103975" lon="0.484266">
        <ele>697.723</ele>
        <time>2018-11-24T12:57:15Z</time>
      </trkpt>
      <trkpt lat="42.103717" lon="0.484287">
        <ele>697.383</ele>
        <time>2018-11-24T12:57:16Z</time>
      </trkpt>
      <trkpt lat="42.103455" lon="0.484322">
        <ele>696.811</ele>
        <time>2018-11-24T12:57:17Z</time>
      </trkpt>
      <trkpt lat="42.103198" lon="0.484376">
        <ele>696.408</ele>
        <time>2018-11-24T12:57:18Z</time>
      </trkpt>
      <trkpt lat="42.102950" lon="0.484443">
        <ele>695.885</ele>
        <time>2018-11-24T12:57:19Z</time>
      </trkpt>
      <trkpt lat="42.102710" lon="0.484516">
        <ele>695.512</ele>
        <time>2018-11-24T12:57:20Z</time>
      </trkpt>
      <trkpt lat="42.102481" lon="0.484593">
        <ele>695.259</ele>
        <time>2018-11-24T12:57:21Z</time>
      </trkpt>
      <trkpt lat="42.102268" lon="0.484672">
        <ele>694.910</ele>
        <time>2018-11-24T12:57:22Z</time>
      </trkpt>
      <trkpt lat="42.102055" lon="0.484752">
        <ele>694.728</ele>
        <time>2018-11-24T12:57:23Z</time>
      </trkpt>
      <trkpt lat="42.101841" lon="0.484819">
        <ele>694.510</ele>
        <time>2018-11-24T12:57:24Z</time>
      </trkpt>
      <trkpt lat="42.101630" lon="0.484893">
        <ele>694.423</ele>
        <time>2018-11-24T12:57:25Z</time>
      </trkpt>
      <trkpt lat="42.101419" lon="0.484976">
        <ele>693.987</ele>
        <time>2018-11-24T12:57:26Z</time>
      </trkpt>
      <trkpt lat="42.101208" lon="0.485051">
        <ele>693.311</ele>
        <time>2018-11-24T12:57:27Z</time>
      </trkpt>
      <trkpt lat="42.101001" lon="0.485127">
        <ele>692.221</ele>
        <time>2018-11-24T12:57:28Z</time>
      </trkpt>
      <trkpt lat="42.100802" lon="0.485203">
        <ele>691.103</ele>
        <time>2018-11-24T12:57:29Z</time>
      </trkpt>
      <trkpt lat="42.100611" lon="0.485276">
        <ele>690.008</ele>
        <time>2018-11-24T12:57:30Z</time>
      </trkpt>
      <trkpt lat="42.100421" lon="0.485339">
        <ele>689.044</ele>
        <time>2018-11-24T12:57:31Z</time>
      </trkpt>
      <trkpt lat="42.100223" lon="0.485404">
        <ele>687.821</ele>
        <time>2018-11-24T12:57:32Z</time>
      </trkpt>
      <trkpt lat="42.100024" lon="0.485480">
        <ele>686.848</ele>
        <time>2018-11-24T12:57:33Z</time>
      </trkpt>
      <trkpt lat="42.099823" lon="0.485560">
        <ele>685.419</ele>
        <time>2018-11-24T12:57:34Z</time>
      </trkpt>
      <trkpt lat="42.099614" lon="0.485641">
        <ele>684.067</ele>
        <time>2018-11-24T12:57:35Z</time>
      </trkpt>
      <trkpt lat="42.099399" lon="0.485726">
        <ele>682.299</ele>
        <time>2018-11-24T12:57:36Z</time>
      </trkpt>
      <trkpt lat="42.099178" lon="0.485812">
        <ele>680.122</ele>
        <time>2018-11-24T12:57:37Z</time>
      </trkpt>
      <trkpt lat="42.098957" lon="0.485893">
        <ele>678.386</ele>
        <time>2018-11-24T12:57:38Z</time>
      </trkpt>
      <trkpt lat="42.098744" lon="0.485981">
        <ele>675.796</ele>
        <time>2018-11-24T12:57:39Z</time>
      </trkpt>
      <trkpt lat="42.098541" lon="0.486075">
        <ele>673.831</ele>
        <time>2018-11-24T12:57:40Z</time>
      </trkpt>
      <trkpt lat="42.098341" lon="0.486178">
        <ele>672.024</ele>
        <time>2018-11-24T12:57:41Z</time>
      </trkpt>
      <trkpt lat="42.098136" lon="0.486293">
        <ele>670.808</ele>
        <time>2018-11-24T12:57:42Z</time>
      </trkpt>
      <trkpt lat="42.097930" lon="0.486415">
        <ele>669.022</ele>
        <time>2018-11-24T12:57:43Z</time>
      </trkpt>
      <trkpt lat="42.097733" lon="0.486541">
        <ele>666.879</ele>
        <time>2018-11-24T12:57:44Z</time>
      </trkpt>
      <trkpt lat="42.097549" lon="0.486670">
        <ele>664.756</ele>
        <time>2018-11-24T12:57:45Z</time>
      </trkpt>
      <trkpt lat="42.097375" lon="0.486806">
        <ele>662.977</ele>
        <time>2018-11-24T12:57:46Z</time>
      </trkpt>
      <trkpt lat="42.097203" lon="0.486956">
        <ele>661.765</ele>
        <time>2018-11-24T12:57:47Z</time>
      </trkpt>
      <trkpt lat="42.097031" lon="0.487115">
        <ele>659.257</ele>
        <time>2018-11-24T12:57:48Z</time>
      </trkpt>
      <trkpt lat="42.096861" lon="0.487294">
        <ele>657.890</ele>
        <time>2018-11-24T12:57:49Z</time>
      </trkpt>
      <trkpt lat="42.096691" lon="0.487468">
        <ele>656.154</ele>
        <time>2018-11-24T12:57:50Z</time>
      </trkpt>
      <trkpt lat="42.096515" lon="0.487643">
        <ele>654.749</ele>
        <time>2018-11-24T12:57:51Z</time>
      </trkpt>
      <trkpt lat="42.096331" lon="0.487818">
        <ele>653.002</ele>
        <time>2018-11-24T12:57:52Z</time>
      </trkpt>
      <trkpt lat="42.096146" lon="0.487997">
        <ele>651.522</ele>
        <time>2018-11-24T12:57:53Z</time>
      </trkpt>
      <trkpt lat="42.095959" lon="0.488176">
        <ele>649.508</ele>
        <time>2018-11-24T12:57:54Z</time>
      </trkpt>
      <trkpt lat="42.095770" lon="0.488357">
        <ele>647.777</ele>
        <time>2018-11-24T12:57:55Z</time>
      </trkpt>
      <trkpt lat="42.095581" lon="0.488540">
        <ele>646.294</ele>
        <time>2018-11-24T12:57:56Z</time>
      </trkpt>
      <trkpt lat="42.095390" lon="0.488725">
        <ele>644.661</ele>
        <time>2018-11-24T12:57:57Z</time>
      </trkpt>
      <trkpt lat="42.095202" lon="0.488908">
        <ele>643.242</ele>
        <time>2018-11-24T12:57:58Z</time>
      </trkpt>
      <trkpt lat="42.095020" lon="0.489087">
        <ele>641.380</ele>
        <time>2018-11-24T12:57:59Z</time>
      </trkpt>
      <trkpt lat="42.094837" lon="0.489262">
        <ele>639.932</ele>
        <time>2018-11-24T12:58:00Z</time>
      </trkpt>
      <trkpt lat="42.094649" lon="0.489432">
        <ele>638.325</ele>
        <time>2018-11-24T12:58:01Z</time>
      </trkpt>
      <trkpt lat="42.094453" lon="0.489590">
        <ele>636.949</ele>
        <time>2018-11-24T12:58:02Z</time>
      </trkpt>
      <trkpt lat="42.094248" lon="0.489735">
        <ele>635.852</ele>
        <time>2018-11-24T12:58:03Z</time>
      </trkpt>
      <trkpt lat="42.094039" lon="0.489869">
        <ele>634.553</ele>
        <time>2018-11-24T12:58:04Z</time>
      </trkpt>
      <trkpt lat="42.093823" lon="0.489991">
        <ele>633.608</ele>
        <time>2018-11-24T12:58:05Z</time>
      </trkpt>
      <trkpt lat="42.093605" lon="0.490099">
        <ele>632.508</ele>
        <time>2018-11-24T12:58:06Z</time>
      </trkpt>
      <trkpt lat="42.093386" lon="0.490196">
        <ele>631.728</ele>
        <time>2018-11-24T12:58:07Z</time>
      </trkpt>
      <trkpt lat="42.093167" lon="0.490281">
        <ele>630.675</ele>
        <time>2018-11-24T12:58:08Z</time>
      </trkpt>
      <trkpt lat="42.092955" lon="0.490364">
        <ele>629.452</ele>
        <time>2018-11-24T12:58:09Z</time>
      </trkpt>
      <trkpt lat="42.092747" lon="0.490448">
        <ele>628.453</ele>
        <time>2018-11-24T12:58:10Z</time>
      </trkpt>
      <trkpt lat="42.092542" lon="0.490533">
        <ele>627.371</ele>
        <time>2018-11-24T12:58:11Z</time>
      </trkpt>
      <trkpt lat="42.092334" lon="0.490617">
        <ele>626.873</ele>
        <time>2018-11-24T12:58:12Z</time>
      </trkpt>
      <trkpt lat="42.092125" lon="0.490697">
        <ele>626.066</ele>
        <time>2018-11-24T12:58:13Z</time>
      </trkpt>
      <trkpt lat="42.091916" lon="0.490777">
        <ele>625.260</ele>
        <time>2018-11-24T12:58:14Z</time>
      </trkpt>
      <trkpt lat="42.091714" lon="0.490849">
        <ele>624.296</ele>
        <time>2018-11-24T12:58:15Z</time>
      </trkpt>
      <trkpt lat="42.091509" lon="0.490910">
        <ele>623.531</ele>
        <time>2018-11-24T12:58:16Z</time>
      </trkpt>
      <trkpt lat="42.091303" lon="0.490962">
        <ele>622.824</ele>
        <time>2018-11-24T12:58:17Z</time>
      </trkpt>
      <trkpt lat="42.091094" lon="0.491010">
        <ele>622.308</ele>
        <time>2018-11-24T12:58:18Z</time>
      </trkpt>
      <trkpt lat="42.090888" lon="0.491058">
        <ele>621.822</ele>
        <time>2018-11-24T12:58:19Z</time>
      </trkpt>
      <trkpt lat="42.090680" lon="0.491103">
        <ele>621.439</ele>
        <time>2018-11-24T12:58:20Z</time>
      </trkpt>
      <trkpt lat="42.090471" lon="0.491150">
        <ele>621.016</ele>
        <time>2018-11-24T12:58:21Z</time>
      </trkpt>
      <trkpt lat="42.090264" lon="0.491192">
        <ele>620.227</ele>
        <time>2018-11-24T12:58:22Z</time>
      </trkpt>
      <trkpt lat="42.090063" lon="0.491239">
        <ele>619.715</ele>
        <time>2018-11-24T12:58:23Z</time>
      </trkpt>
      <trkpt lat="42.089868" lon="0.491287">
        <ele>619.177</ele>
        <time>2018-11-24T12:58:24Z</time>
      </trkpt>
      <trkpt lat="42.089678" lon="0.491345">
        <ele>618.650</ele>
        <time>2018-11-24T12:58:25Z</time>
      </trkpt>
      <trkpt lat="42.089492" lon="0.491427">
        <ele>618.284</ele>
        <time>2018-11-24T12:58:26Z</time>
      </trkpt>
      <trkpt lat="42.089310" lon="0.491529">
        <ele>617.845</ele>
        <time>2018-11-24T12:58:27Z</time>
      </trkpt>
      <trkpt lat="42.089134" lon="0.491648">
        <ele>617.347</ele>
        <time>2018-11-24T12:58:28Z</time>
      </trkpt>
      <trkpt lat="42.088967" lon="0.491790">
        <ele>616.811</ele>
        <time>2018-11-24T12:58:29Z</time>
      </trkpt>
      <trkpt lat="42.088802" lon="0.491931">
        <ele>616.408</ele>
        <time>2018-11-24T12:58:30Z</time>
      </trkpt>
      <trkpt lat="42.088650" lon="0.492111">
        <ele>616.227</ele>
        <time>2018-11-24T12:58:31Z</time>
      </trkpt>
      <trkpt lat="42.088507" lon="0.492314">
        <ele>616.044</ele>
        <time>2018-11-24T12:58:32Z</time>
      </trkpt>
      <trkpt lat="42.088371" lon="0.492515">
        <ele>615.511</ele>
        <time>2018-11-24T12:58:33Z</time>
      </trkpt>
      <trkpt lat="42.088240" lon="0.492725">
        <ele>615.222</ele>
        <time>2018-11-24T12:58:34Z</time>
      </trkpt>
      <trkpt lat="42.088100" lon="0.492923">
        <ele>614.730</ele>
        <time>2018-11-24T12:58:35Z</time>
      </trkpt>
      <trkpt lat="42.087966" lon="0.493122">
        <ele>614.032</ele>
        <time>2018-11-24T12:58:36Z</time>
      </trkpt>
      <trkpt lat="42.087820" lon="0.493318">
        <ele>613.615</ele>
        <time>2018-11-24T12:58:37Z</time>
      </trkpt>
      <trkpt lat="42.087665" lon="0.493495">
        <ele>613.279</ele>
        <time>2018-11-24T12:58:38Z</time>
      </trkpt>
      <trkpt lat="42.087498" lon="0.493655">
        <ele>612.857</ele>
        <time>2018-11-24T12:58:39Z</time>
      </trkpt>
      <trkpt lat="42.087321" lon="0.493805">
        <ele>612.400</ele>
        <time>2018-11-24T12:58:40Z</time>
      </trkpt>
      <trkpt lat="42.087137" lon="0.493942">
        <ele>612.220</ele>
        <time>2018-11-24T12:58:41Z</time>
      </trkpt>
      <trkpt lat="42.086945" lon="0.494057">
        <ele>611.908</ele>
        <time>2018-11-24T12:58:42Z</time>
      </trkpt>
      <trkpt lat="42.086748" lon="0.494164">
        <ele>611.628</ele>
        <time>2018-11-24T12:58:43Z</time>
      </trkpt>
      <trkpt lat="42.086549" lon="0.494271">
        <ele>611.375</ele>
        <time>2018-11-24T12:58:44Z</time>
      </trkpt>
      <trkpt lat="42.086351" lon="0.494378">
        <ele>611.252</ele>
        <time>2018-11-24T12:58:45Z</time>
      </trkpt>
      <trkpt lat="42.086153" lon="0.494479">
        <ele>610.983</ele>
        <time>2018-11-24T12:58:46Z</time>
      </trkpt>
      <trkpt lat="42.085955" lon="0.494572">
        <ele>610.641</ele>
        <time>2018-11-24T12:58:47Z</time>
      </trkpt>
      <trkpt lat="42.085753" lon="0.494650">
        <ele>610.483</ele>
        <time>2018-11-24T12:58:48Z</time>
      </trkpt>
      <trkpt lat="42.085543" lon="0.494699">
        <ele>610.336</ele>
        <time>2018-11-24T12:58:49Z</time>
      </trkpt>
      <trkpt lat="42.085336" lon="0.494726">
        <ele>610.280</ele>
        <time>2018-11-24T12:58:50Z</time>
      </trkpt>
      <trkpt lat="42.085124" lon="0.494719">
        <ele>610.025</ele>
        <time>2018-11-24T12:58:51Z</time>
      </trkpt>
      <trkpt lat="42.084913" lon="0.494692">
        <ele>610.026</ele>
        <time>2018-11-24T12:58:52Z</time>
      </trkpt>
      <trkpt lat="42.084707" lon="0.494637">
        <ele>609.708</ele>
        <time>2018-11-24T12:58:53Z</time>
      </trkpt>
      <trkpt lat="42.084507" lon="0.494556">
        <ele>609.608</ele>
        <time>2018-11-24T12:58:54Z</time>
      </trkpt>
      <trkpt lat="42.084313" lon="0.494449">
        <ele>609.665</ele>
        <time>2018-11-24T12:58:55Z</time>
      </trkpt>
      <trkpt lat="42.084127" lon="0.494323">
        <ele>609.622</ele>
        <time>2018-11-24T12:58:56Z</time>
      </trkpt>
      <trkpt lat="42.083948" lon="0.494175">
        <ele>609.669</ele>
        <time>2018-11-24T12:58:57Z</time>
      </trkpt>
      <trkpt lat="42.083788" lon="0.494006">
        <ele>609.620</ele>
        <time>2018-11-24T12:58:58Z</time>
      </trkpt>
      <trkpt lat="42.083641" lon="0.493818">
        <ele>609.488</ele>
        <time>2018-11-24T12:58:59Z</time>
      </trkpt>
      <trkpt lat="42.083498" lon="0.493617">
        <ele>609.570</ele>
        <time>2018-11-24T12:59:00Z</time>
      </trkpt>
      <trkpt lat="42.083351" lon="0.493407">
        <ele>609.723</ele>
        <time>2018-11-24T12:59:01Z</time>
      </trkpt>
      <trkpt lat="42.083200" lon="0.493191">
        <ele>610.047</ele>
        <time>2018-11-24T12:59:02Z</time>
      </trkpt>
      <trkpt lat="42.083053" lon="0.492976">
        <ele>610.237</ele>
        <time>2018-11-24T12:59:03Z</time>
      </trkpt>
      <trkpt lat="42.082909" lon="0.492764">
        <ele>610.049</ele>
        <time>2018-11-24T12:59:04Z</time>
      </trkpt>
      <trkpt lat="42.082764" lon="0.492551">
        <ele>610.213</ele>
        <time>2018-11-24T12:59:05Z</time>
      </trkpt>
      <trkpt lat="42.082612" lon="0.492332">
        <ele>610.608</ele>
        <time>2018-11-24T12:59:06Z</time>
      </trkpt>
      <trkpt lat="42.082456" lon="0.492104">
        <ele>611.116</ele>
        <time>2018-11-24T12:59:07Z</time>
      </trkpt>
      <trkpt lat="42.082295" lon="0.491868">
        <ele>611.683</ele>
        <time>2018-11-24T12:59:08Z</time>
      </trkpt>
      <trkpt lat="42.082124" lon="0.491625">
        <ele>612.470</ele>
        <time>2018-11-24T12:59:09Z</time>
      </trkpt>
      <trkpt lat="42.081939" lon="0.491375">
        <ele>613.181</ele>
        <time>2018-11-24T12:59:10Z</time>
      </trkpt>
      <trkpt lat="42.081745" lon="0.491117">
        <ele>614.199</ele>
        <time>2018-11-24T12:59:11Z</time>
      </trkpt>
      <trkpt lat="42.081547" lon="0.490838">
        <ele>615.051</ele>
        <time>2018-11-24T12:59:12Z</time>
      </trkpt>
      <trkpt lat="42.081350" lon="0.490550">
        <ele>615.864</ele>
        <time>2018-11-24T12:59:13Z</time>
      </trkpt>
      <trkpt lat="42.081152" lon="0.490257">
        <ele>616.388</ele>
        <time>2018-11-24T12:59:14Z</time>
      </trkpt>
      <trkpt lat="42.080956" lon="0.489950">
        <ele>617.592</ele>
        <time>2018-11-24T12:59:15Z</time>
      </trkpt>
      <trkpt lat="42.080758" lon="0.489632">
        <ele>618.673</ele>
        <time>2018-11-24T12:59:16Z</time>
      </trkpt>
      <trkpt lat="42.080547" lon="0.489314">
        <ele>619.420</ele>
        <time>2018-11-24T12:59:17Z</time>
      </trkpt>
      <trkpt lat="42.080328" lon="0.488995">
        <ele>620.508</ele>
        <time>2018-11-24T12:59:18Z</time>
      </trkpt>
      <trkpt lat="42.080105" lon="0.488672">
        <ele>621.572</ele>
        <time>2018-11-24T12:59:19Z</time>
      </trkpt>
      <trkpt lat="42.079889" lon="0.488358">
        <ele>622.249</ele>
        <time>2018-11-24T12:59:20Z</time>
      </trkpt>
      <trkpt lat="42.079676" lon="0.488046">
        <ele>622.826</ele>
        <time>2018-11-24T12:59:21Z</time>
      </trkpt>
      <trkpt lat="42.079464" lon="0.487739">
        <ele>623.897</ele>
        <time>2018-11-24T12:59:22Z</time>
      </trkpt>
      <trkpt lat="42.079248" lon="0.487438">
        <ele>624.945</ele>
        <time>2018-11-24T12:59:23Z</time>
      </trkpt>
      <trkpt lat="42.079027" lon="0.487137">
        <ele>625.847</ele>
        <time>2018-11-24T12:59:24Z</time>
      </trkpt>
      <trkpt lat="42.078801" lon="0.486842">
        <ele>626.930</ele>
        <time>2018-11-24T12:59:25Z</time>
      </trkpt>
      <trkpt lat="42.078564" lon="0.486557">
        <ele>628.064</ele>
        <time>2018-11-24T12:59:26Z</time>
      </trkpt>
      <trkpt lat="42.078321" lon="0.486279">
        <ele>629.112</ele>
        <time>2018-11-24T12:59:27Z</time>
      </trkpt>
      <trkpt lat="42.078073" lon="0.486004">
        <ele>630.232</ele>
        <time>2018-11-24T12:59:28Z</time>
      </trkpt>
      <trkpt lat="42.077817" lon="0.485734">
        <ele>631.605</ele>
        <time>2018-11-24T12:59:29Z</time>
      </trkpt>
      <trkpt lat="42.077559" lon="0.485469">
        <ele>632.508</ele>
        <time>2018-11-24T12:59:30Z</time>
      </trkpt>
      <trkpt lat="42.077299" lon="0.485200">
        <ele>633.274</ele>
        <time>2018-11-24T12:59:31Z</time>
      </trkpt>
      <trkpt lat="42.077040" lon="0.484930">
        <ele>633.691</ele>
        <time>2018-11-24T12:59:32Z</time>
      </trkpt>
      <trkpt lat="42.076783" lon="0.484659">
        <ele>634.258</ele>
        <time>2018-11-24T12:59:33Z</time>
      </trkpt>
      <trkpt lat="42.076522" lon="0.484389">
        <ele>634.989</ele>
        <time>2018-11-24T12:59:34Z</time>
      </trkpt>
      <trkpt lat="42.076260" lon="0.484117">
        <ele>635.637</ele>
        <time>2018-11-24T12:59:35Z</time>
      </trkpt>
      <trkpt lat="42.075997" lon="0.483843">
        <ele>636.579</ele>
        <time>2018-11-24T12:59:36Z</time>
      </trkpt>
      <trkpt lat="42.075733" lon="0.483568">
        <ele>637.012</ele>
        <time>2018-11-24T12:59:37Z</time>
      </trkpt>
      <trkpt lat="42.075467" lon="0.483290">
        <ele>637.626</ele>
        <time>2018-11-24T12:59:38Z</time>
      </trkpt>
      <trkpt lat="42.075199" lon="0.483011">
        <ele>638.372</ele>
        <time>2018-11-24T12:59:39Z</time>
      </trkpt>
      <trkpt lat="42.074930" lon="0.482731">
        <ele>639.013</ele>
        <time>2018-11-24T12:59:40Z</time>
      </trkpt>
      <trkpt lat="42.074660" lon="0.482450">
        <ele>639.814</ele>
        <time>2018-11-24T12:59:41Z</time>
      </trkpt>
      <trkpt lat="42.074389" lon="0.482170">
        <ele>640.508</ele>
        <time>2018-11-24T12:59:42Z</time>
      </trkpt>
      <trkpt lat="42.074122" lon="0.481892">
        <ele>640.890</ele>
        <time>2018-11-24T12:59:43Z</time>
      </trkpt>
      <trkpt lat="42.073854" lon="0.481614">
        <ele>641.087</ele>
        <time>2018-11-24T12:59:44Z</time>
      </trkpt>
      <trkpt lat="42.073590" lon="0.481339">
        <ele>641.314</ele>
        <time>2018-11-24T12:59:45Z</time>
      </trkpt>
      <trkpt lat="42.073330" lon="0.481069">
        <ele>641.455</ele>
        <time>2018-11-24T12:59:46Z</time>
      </trkpt>
      <trkpt lat="42.073071" lon="0.480802">
        <ele>641.643</ele>
        <time>2018-11-24T12:59:47Z</time>
      </trkpt>
      <trkpt lat="42.072814" lon="0.480538">
        <ele>642.185</ele>
        <time>2018-11-24T12:59:48Z</time>
      </trkpt>
      <trkpt lat="42.072559" lon="0.480274">
        <ele>642.748</ele>
        <time>2018-11-24T12:59:49Z</time>
      </trkpt>
      <trkpt lat="42.072308" lon="0.480004">
        <ele>643.162</ele>
        <time>2018-11-24T12:59:50Z</time>
      </trkpt>
      <trkpt lat="42.072067" lon="0.479720">
        <ele>643.093</ele>
        <time>2018-11-24T12:59:51Z</time>
      </trkpt>
      <trkpt lat="42.071840" lon="0.479415">
        <ele>644.065</ele>
        <time>2018-11-24T12:59:52Z</time>
      </trkpt>
      <trkpt lat="42.071630" lon="0.479098">
        <ele>644.221</ele>
        <time>2018-11-24T12:59:53Z</time>
      </trkpt>
      <trkpt lat="42.071425" lon="0.478781">
        <ele>644.608</ele>
        <time>2018-11-24T12:59:54Z</time>
      </trkpt>
      <trkpt lat="42.071235" lon="0.478442">
        <ele>645.122</ele>
        <time>2018-11-24T12:59:55Z</time>
      </trkpt>
      <trkpt lat="42.071051" lon="0.478102">
        <ele>645.829</ele>
        <time>2018-11-24T12:59:56Z</time>
      </trkpt>
      <trkpt lat="42.070869" lon="0.477765">
        <ele>646.576</ele>
        <time>2018-11-24T12:59:57Z</time>
      </trkpt>
      <trkpt lat="42.070689" lon="0.477426">
        <ele>647.227</ele>
        <time>2018-11-24T12:59:58Z</time>
      </trkpt>
      <trkpt lat="42.070508" lon="0.477095">
        <ele>647.345</ele>
        <time>2018-11-24T12:59:59Z</time>
      </trkpt>
      <trkpt lat="42.070324" lon="0.476771">
        <ele>647.767</ele>
        <time>2018-11-24T13:00:00Z</time>
      </trkpt>
      <trkpt lat="42.070131" lon="0.476456">
        <ele>648.230</ele>
        <time>2018-11-24T13:00:01Z</time>
      </trkpt>
      <trkpt lat="42.069931" lon="0.476165">
        <ele>648.564</ele>
        <time>2018-11-24T13:00:02Z</time>
      </trkpt>
      <trkpt lat="42.069695" lon="0.475917">
        <ele>649.332</ele>
        <time>2018-11-24T13:00:03Z</time>
      </trkpt>
      <trkpt lat="42.069450" lon="0.475708">
        <ele>649.892</ele>
        <time>2018-11-24T13:00:04Z</time>
      </trkpt>
      <trkpt lat="42.069195" lon="0.475533">
        <ele>650.111</ele>
        <time>2018-11-24T13:00:05Z</time>
      </trkpt>
      <trkpt lat="42.068942" lon="0.475367">
        <ele>650.308</ele>
        <time>2018-11-24T13:00:06Z</time>
      </trkpt>
      <trkpt lat="42.068702" lon="0.475198">
        <ele>650.886</ele>
        <time>2018-11-24T13:00:07Z</time>
      </trkpt>
      <trkpt lat="42.068468" lon="0.475023">
        <ele>651.163</ele>
        <time>2018-11-24T13:00:08Z</time>
      </trkpt>
      <trkpt lat="42.068242" lon="0.474827">
        <ele>651.670</ele>
        <time>2018-11-24T13:00:09Z</time>
      </trkpt>
      <trkpt lat="42.068039" lon="0.474612">
        <ele>652.981</ele>
        <time>2018-11-24T13:00:10Z</time>
      </trkpt>
      <trkpt lat="42.067865" lon="0.474353">
        <ele>654.099</ele>
        <time>2018-11-24T13:00:11Z</time>
      </trkpt>
      <trkpt lat="42.067713" lon="0.474056">
        <ele>655.281</ele>
        <time>2018-11-24T13:00:12Z</time>
      </trkpt>
      <trkpt lat="42.067588" lon="0.473742">
        <ele>656.294</ele>
        <time>2018-11-24T13:00:13Z</time>
      </trkpt>
      <trkpt lat="42.067481" lon="0.473414">
        <ele>657.338</ele>
        <time>2018-11-24T13:00:14Z</time>
      </trkpt>
      <trkpt lat="42.067387" lon="0.473073">
        <ele>658.225</ele>
        <time>2018-11-24T13:00:15Z</time>
      </trkpt>
      <trkpt lat="42.067295" lon="0.472729">
        <ele>658.926</ele>
        <time>2018-11-24T13:00:16Z</time>
      </trkpt>
      <trkpt lat="42.067192" lon="0.472383">
        <ele>659.108</ele>
        <time>2018-11-24T13:00:17Z</time>
      </trkpt>
      <trkpt lat="42.067063" lon="0.472047">
        <ele>659.608</ele>
        <time>2018-11-24T13:00:18Z</time>
      </trkpt>
      <trkpt lat="42.066901" lon="0.471727">
        <ele>660.075</ele>
        <time>2018-11-24T13:00:19Z</time>
      </trkpt>
      <trkpt lat="42.066714" lon="0.471430">
        <ele>660.222</ele>
        <time>2018-11-24T13:00:20Z</time>
      </trkpt>
      <trkpt lat="42.066504" lon="0.471165">
        <ele>660.519</ele>
        <time>2018-11-24T13:00:21Z</time>
      </trkpt>
      <trkpt lat="42.066285" lon="0.470920">
        <ele>660.420</ele>
        <time>2018-11-24T13:00:22Z</time>
      </trkpt>
      <trkpt lat="42.066056" lon="0.470681">
        <ele>660.698</ele>
        <time>2018-11-24T13:00:23Z</time>
      </trkpt>
      <trkpt lat="42.065823" lon="0.470437">
        <ele>661.260</ele>
        <time>2018-11-24T13:00:24Z</time>
      </trkpt>
      <trkpt lat="42.065586" lon="0.470189">
        <ele>661.623</ele>
        <time>2018-11-24T13:00:25Z</time>
      </trkpt>
      <trkpt lat="42.065347" lon="0.469936">
        <ele>661.937</ele>
        <time>2018-11-24T13:00:26Z</time>
      </trkpt>
      <trkpt lat="42.065108" lon="0.469685">
        <ele>662.685</ele>
        <time>2018-11-24T13:00:27Z</time>
      </trkpt>
      <trkpt lat="42.064873" lon="0.469437">
        <ele>663.589</ele>
        <time>2018-11-24T13:00:28Z</time>
      </trkpt>
      <trkpt lat="42.064642" lon="0.469195">
        <ele>664.117</ele>
        <time>2018-11-24T13:00:29Z</time>
      </trkpt>
      <trkpt lat="42.064416" lon="0.468959">
        <ele>664.408</ele>
        <time>2018-11-24T13:00:30Z</time>
      </trkpt>
      <trkpt lat="42.064194" lon="0.468725">
        <ele>664.841</ele>
        <time>2018-11-24T13:00:31Z</time>
      </trkpt>
      <trkpt lat="42.063972" lon="0.468494">
        <ele>665.518</ele>
        <time>2018-11-24T13:00:32Z</time>
      </trkpt>
      <trkpt lat="42.063749" lon="0.468266">
        <ele>666.215</ele>
        <time>2018-11-24T13:00:33Z</time>
      </trkpt>
      <trkpt lat="42.063523" lon="0.468049">
        <ele>666.816</ele>
        <time>2018-11-24T13:00:34Z</time>
      </trkpt>
      <trkpt lat="42.063305" lon="0.467852">
        <ele>667.164</ele>
        <time>2018-11-24T13:00:35Z</time>
      </trkpt>
      <trkpt lat="42.063089" lon="0.467705">
        <ele>667.066</ele>
        <time>2018-11-24T13:00:36Z</time>
      </trkpt>
      <trkpt lat="42.062876" lon="0.467603">
        <ele>666.619</ele>
        <time>2018-11-24T13:00:37Z</time>
      </trkpt>
      <trkpt lat="42.062656" lon="0.467527">
        <ele>666.623</ele>
        <time>2018-11-24T13:00:38Z</time>
      </trkpt>
      <trkpt lat="42.062443" lon="0.467462">
        <ele>666.935</ele>
        <time>2018-11-24T13:00:39Z</time>
      </trkpt>
      <trkpt lat="42.062236" lon="0.467411">
        <ele>666.986</ele>
        <time>2018-11-24T13:00:40Z</time>
      </trkpt>
      <trkpt lat="42.062034" lon="0.467371">
        <ele>666.714</ele>
        <time>2018-11-24T13:00:41Z</time>
      </trkpt>
      <trkpt lat="42.061844" lon="0.467337">
        <ele>666.408</ele>
        <time>2018-11-24T13:00:42Z</time>
      </trkpt>
      <trkpt lat="42.061664" lon="0.467302">
        <ele>666.226</ele>
        <time>2018-11-24T13:00:43Z</time>
      </trkpt>
      <trkpt lat="42.061495" lon="0.467267">
        <ele>666.073</ele>
        <time>2018-11-24T13:00:44Z</time>
      </trkpt>
      <trkpt lat="42.061335" lon="0.467234">
        <ele>665.940</ele>
        <time>2018-11-24T13:00:45Z</time>
      </trkpt>
      <trkpt lat="42.061173" lon="0.467200">
        <ele>665.941</ele>
        <time>2018-11-24T13:00:46Z</time>
      </trkpt>
      <trkpt lat="42.061002" lon="0.467161">
        <ele>666.179</ele>
        <time>2018-11-24T13:00:47Z</time>
      </trkpt>
      <trkpt lat="42.060821" lon="0.467108">
        <ele>666.861</ele>
        <time>2018-11-24T13:00:48Z</time>
      </trkpt>
      <trkpt lat="42.060639" lon="0.467026">
        <ele>667.374</ele>
        <time>2018-11-24T13:00:49Z</time>
      </trkpt>
      <trkpt lat="42.060456" lon="0.466916">
        <ele>667.938</ele>
        <time>2018-11-24T13:00:50Z</time>
      </trkpt>
      <trkpt lat="42.060268" lon="0.466786">
        <ele>668.332</ele>
        <time>2018-11-24T13:00:51Z</time>
      </trkpt>
      <trkpt lat="42.060070" lon="0.466651">
        <ele>669.392</ele>
        <time>2018-11-24T13:00:52Z</time>
      </trkpt>
      <trkpt lat="42.059861" lon="0.466518">
        <ele>670.211</ele>
        <time>2018-11-24T13:00:53Z</time>
      </trkpt>
      <trkpt lat="42.059645" lon="0.466390">
        <ele>670.908</ele>
        <time>2018-11-24T13:00:54Z</time>
      </trkpt>
      <trkpt lat="42.059431" lon="0.466265">
        <ele>671.466</ele>
        <time>2018-11-24T13:00:55Z</time>
      </trkpt>
      <trkpt lat="42.059213" lon="0.466141">
        <ele>672.023</ele>
        <time>2018-11-24T13:00:56Z</time>
      </trkpt>
      <trkpt lat="42.058985" lon="0.466021">
        <ele>673.330</ele>
        <time>2018-11-24T13:00:57Z</time>
      </trkpt>
      <trkpt lat="42.058749" lon="0.465908">
        <ele>674.461</ele>
        <time>2018-11-24T13:00:58Z</time>
      </trkpt>
      <trkpt lat="42.058505" lon="0.465800">
        <ele>676.099</ele>
        <time>2018-11-24T13:00:59Z</time>
      </trkpt>
      <trkpt lat="42.058254" lon="0.465700">
        <ele>677.041</ele>
        <time>2018-11-24T13:01:00Z</time>
      </trkpt>
      <trkpt lat="42.058002" lon="0.465612">
        <ele>678.314</ele>
        <time>2018-11-24T13:01:01Z</time>
      </trkpt>
      <trkpt lat="42.057754" lon="0.465536">
        <ele>679.468</ele>
        <time>2018-11-24T13:01:02Z</time>
      </trkpt>
      <trkpt lat="42.057506" lon="0.465471">
        <ele>680.669</ele>
        <time>2018-11-24T13:01:03Z</time>
      </trkpt>
      <trkpt lat="42.057257" lon="0.465415">
        <ele>681.704</ele>
        <time>2018-11-24T13:01:04Z</time>
      </trkpt>
      <trkpt lat="42.057006" lon="0.465369">
        <ele>682.924</ele>
        <time>2018-11-24T13:01:05Z</time>
      </trkpt>
      <trkpt lat="42.056752" lon="0.465333">
        <ele>684.408</ele>
        <time>2018-11-24T13:01:06Z</time>
      </trkpt>
      <trkpt lat="42.056495" lon="0.465306">
        <ele>685.879</ele>
        <time>2018-11-24T13:01:07Z</time>
      </trkpt>
      <trkpt lat="42.056236" lon="0.465284">
        <ele>687.736</ele>
        <time>2018-11-24T13:01:08Z</time>
      </trkpt>
      <trkpt lat="42.055975" lon="0.465264">
        <ele>689.653</ele>
        <time>2018-11-24T13:01:09Z</time>
      </trkpt>
      <trkpt lat="42.055714" lon="0.465245">
        <ele>691.984</ele>
        <time>2018-11-24T13:01:10Z</time>
      </trkpt>
      <trkpt lat="42.055458" lon="0.465238">
        <ele>693.552</ele>
        <time>2018-11-24T13:01:11Z</time>
      </trkpt>
      <trkpt lat="42.055203" lon="0.465247">
        <ele>695.384</ele>
        <time>2018-11-24T13:01:12Z</time>
      </trkpt>
      <trkpt lat="42.054948" lon="0.465290">
        <ele>696.887</ele>
        <time>2018-11-24T13:01:13Z</time>
      </trkpt>
      <trkpt lat="42.054697" lon="0.465360">
        <ele>698.161</ele>
        <time>2018-11-24T13:01:14Z</time>
      </trkpt>
      <trkpt lat="42.054461" lon="0.465458">
        <ele>699.727</ele>
        <time>2018-11-24T13:01:15Z</time>
      </trkpt>
      <trkpt lat="42.054226" lon="0.465580">
        <ele>701.068</ele>
        <time>2018-11-24T13:01:16Z</time>
      </trkpt>
      <trkpt lat="42.053990" lon="0.465698">
        <ele>702.714</ele>
        <time>2018-11-24T13:01:17Z</time>
      </trkpt>
      <trkpt lat="42.053752" lon="0.465831">
        <ele>704.208</ele>
        <time>2018-11-24T13:01:18Z</time>
      </trkpt>
      <trkpt lat="42.053511" lon="0.465939">
        <ele>706.095</ele>
        <time>2018-11-24T13:01:19Z</time>
      </trkpt>
      <trkpt lat="42.053253" lon="0.466010">
        <ele>707.452</ele>
        <time>2018-11-24T13:01:20Z</time>
      </trkpt>
      <trkpt lat="42.052990" lon="0.466035">
        <ele>709.769</ele>
        <time>2018-11-24T13:01:21Z</time>
      </trkpt>
      <trkpt lat="42.052721" lon="0.466025">
        <ele>711.950</ele>
        <time>2018-11-24T13:01:22Z</time>
      </trkpt>
      <trkpt lat="42.052448" lon="0.465968">
        <ele>713.628</ele>
        <time>2018-11-24T13:01:23Z</time>
      </trkpt>
      <trkpt lat="42.052176" lon="0.465903">
        <ele>716.180</ele>
        <time>2018-11-24T13:01:24Z</time>
      </trkpt>
      <trkpt lat="42.051908" lon="0.465782">
        <ele>718.073</ele>
        <time>2018-11-24T13:01:25Z</time>
      </trkpt>
      <trkpt lat="42.051630" lon="0.465658">
        <ele>720.677</ele>
        <time>2018-11-24T13:01:26Z</time>
      </trkpt>
      <trkpt lat="42.051345" lon="0.465554">
        <ele>722.475</ele>
        <time>2018-11-24T13:01:27Z</time>
      </trkpt>
      <trkpt lat="42.051060" lon="0.465468">
        <ele>724.628</ele>
        <time>2018-11-24T13:01:28Z</time>
      </trkpt>
      <trkpt lat="42.050770" lon="0.465405">
        <ele>726.420</ele>
        <time>2018-11-24T13:01:29Z</time>
      </trkpt>
      <trkpt lat="42.050480" lon="0.465349">
        <ele>728.608</ele>
        <time>2018-11-24T13:01:30Z</time>
      </trkpt>
      <trkpt lat="42.050191" lon="0.465286">
        <ele>730.590</ele>
        <time>2018-11-24T13:01:31Z</time>
      </trkpt>
      <trkpt lat="42.049903" lon="0.465219">
        <ele>731.827</ele>
        <time>2018-11-24T13:01:32Z</time>
      </trkpt>
      <trkpt lat="42.049627" lon="0.465134">
        <ele>732.744</ele>
        <time>2018-11-24T13:01:33Z</time>
      </trkpt>
      <trkpt lat="42.049359" lon="0.465012">
        <ele>733.425</ele>
        <time>2018-11-24T13:01:34Z</time>
      </trkpt>
      <trkpt lat="42.049105" lon="0.464849">
        <ele>734.023</ele>
        <time>2018-11-24T13:01:35Z</time>
      </trkpt>
      <trkpt lat="42.048873" lon="0.464654">
        <ele>734.145</ele>
        <time>2018-11-24T13:01:36Z</time>
      </trkpt>
      <trkpt lat="42.048648" lon="0.464435">
        <ele>734.188</ele>
        <time>2018-11-24T13:01:37Z</time>
      </trkpt>
      <trkpt lat="42.048429" lon="0.464214">
        <ele>733.752</ele>
        <time>2018-11-24T13:01:38Z</time>
      </trkpt>
      <trkpt lat="42.048209" lon="0.464003">
        <ele>733.424</ele>
        <time>2018-11-24T13:01:39Z</time>
      </trkpt>
      <trkpt lat="42.047970" lon="0.463820">
        <ele>733.104</ele>
        <time>2018-11-24T13:01:40Z</time>
      </trkpt>
      <trkpt lat="42.047712" lon="0.463669">
        <ele>733.014</ele>
        <time>2018-11-24T13:01:41Z</time>
      </trkpt>
      <trkpt lat="42.047447" lon="0.463535">
        <ele>732.908</ele>
        <time>2018-11-24T13:01:42Z</time>
      </trkpt>
      <trkpt lat="42.047172" lon="0.463432">
        <ele>732.615</ele>
        <time>2018-11-24T13:01:43Z</time>
      </trkpt>
      <trkpt lat="42.046899" lon="0.463341">
        <ele>731.792</ele>
        <time>2018-11-24T13:01:44Z</time>
      </trkpt>
      <trkpt lat="42.046619" lon="0.463264">
        <ele>731.579</ele>
        <time>2018-11-24T13:01:45Z</time>
      </trkpt>
      <trkpt lat="42.046341" lon="0.463214">
        <ele>731.420</ele>
        <time>2018-11-24T13:01:46Z</time>
      </trkpt>
      <trkpt lat="42.046060" lon="0.463200">
        <ele>731.548</ele>
        <time>2018-11-24T13:01:47Z</time>
      </trkpt>
      <trkpt lat="42.045781" lon="0.463223">
        <ele>731.920</ele>
        <time>2018-11-24T13:01:48Z</time>
      </trkpt>
      <trkpt lat="42.045503" lon="0.463278">
        <ele>732.993</ele>
        <time>2018-11-24T13:01:49Z</time>
      </trkpt>
      <trkpt lat="42.045233" lon="0.463371">
        <ele>734.137</ele>
        <time>2018-11-24T13:01:50Z</time>
      </trkpt>
      <trkpt lat="42.044966" lon="0.463482">
        <ele>735.648</ele>
        <time>2018-11-24T13:01:51Z</time>
      </trkpt>
      <trkpt lat="42.044697" lon="0.463598">
        <ele>736.861</ele>
        <time>2018-11-24T13:01:52Z</time>
      </trkpt>
      <trkpt lat="42.044424" lon="0.463717">
        <ele>738.617</ele>
        <time>2018-11-24T13:01:53Z</time>
      </trkpt>
      <trkpt lat="42.044146" lon="0.463846">
        <ele>740.208</ele>
        <time>2018-11-24T13:01:54Z</time>
      </trkpt>
      <trkpt lat="42.043864" lon="0.463982">
        <ele>742.057</ele>
        <time>2018-11-24T13:01:55Z</time>
      </trkpt>
      <trkpt lat="42.043577" lon="0.464120">
        <ele>744.184</ele>
        <time>2018-11-24T13:01:56Z</time>
      </trkpt>
      <trkpt lat="42.043285" lon="0.464252">
        <ele>745.061</ele>
        <time>2018-11-24T13:01:57Z</time>
      </trkpt>
      <trkpt lat="42.042989" lon="0.464382">
        <ele>745.882</ele>
        <time>2018-11-24T13:01:58Z</time>
      </trkpt>
      <trkpt lat="42.042689" lon="0.464512">
        <ele>746.610</ele>
        <time>2018-11-24T13:01:59Z</time>
      </trkpt>
      <trkpt lat="42.042389" lon="0.464644">
        <ele>747.352</ele>
        <time>2018-11-24T13:02:00Z</time>
      </trkpt>
      <trkpt lat="42.042086" lon="0.464776">
        <ele>747.785</ele>
        <time>2018-11-24T13:02:01Z</time>
      </trkpt>
      <trkpt lat="42.041781" lon="0.464906">
        <ele>748.379</ele>
        <time>2018-11-24T13:02:02Z</time>
      </trkpt>
      <trkpt lat="42.041476" lon="0.465038">
        <ele>748.873</ele>
        <time>2018-11-24T13:02:03Z</time>
      </trkpt>
      <trkpt lat="42.041168" lon="0.465168">
        <ele>749.485</ele>
        <time>2018-11-24T13:02:04Z</time>
      </trkpt>
      <trkpt lat="42.040856" lon="0.465311">
        <ele>750.013</ele>
        <time>2018-11-24T13:02:05Z</time>
      </trkpt>
      <trkpt lat="42.040543" lon="0.465448">
        <ele>750.708</ele>
        <time>2018-11-24T13:02:06Z</time>
      </trkpt>
      <trkpt lat="42.040235" lon="0.465581">
        <ele>750.990</ele>
        <time>2018-11-24T13:02:07Z</time>
      </trkpt>
      <trkpt lat="42.039933" lon="0.465713">
        <ele>751.267</ele>
        <time>2018-11-24T13:02:08Z</time>
      </trkpt>
      <trkpt lat="42.039638" lon="0.465840">
        <ele>751.574</ele>
        <time>2018-11-24T13:02:09Z</time>
      </trkpt>
      <trkpt lat="42.039347" lon="0.465965">
        <ele>752.045</ele>
        <time>2018-11-24T13:02:10Z</time>
      </trkpt>
      <trkpt lat="42.039057" lon="0.466092">
        <ele>752.813</ele>
        <time>2018-11-24T13:02:11Z</time>
      </trkpt>
      <trkpt lat="42.038767" lon="0.466221">
        <ele>753.475</ele>
        <time>2018-11-24T13:02:12Z</time>
      </trkpt>
      <trkpt lat="42.038474" lon="0.466350">
        <ele>754.278</ele>
        <time>2018-11-24T13:02:13Z</time>
      </trkpt>
      <trkpt lat="42.038181" lon="0.466478">
        <ele>754.532</ele>
        <time>2018-11-24T13:02:14Z</time>
      </trkpt>
      <trkpt lat="42.037888" lon="0.466603">
        <ele>755.339</ele>
        <time>2018-11-24T13:02:15Z</time>
      </trkpt>
      <trkpt lat="42.037599" lon="0.466722">
        <ele>755.801</ele>
        <time>2018-11-24T13:02:16Z</time>
      </trkpt>
      <trkpt lat="42.037317" lon="0.466837">
        <ele>755.821</ele>
        <time>2018-11-24T13:02:17Z</time>
      </trkpt>
      <trkpt lat="42.037043" lon="0.466949">
        <ele>756.008</ele>
        <time>2018-11-24T13:02:18Z</time>
      </trkpt>
      <trkpt lat="42.036773" lon="0.467061">
        <ele>756.096</ele>
        <time>2018-11-24T13:02:19Z</time>
      </trkpt>
      <trkpt lat="42.036504" lon="0.467174">
        <ele>756.343</ele>
        <time>2018-11-24T13:02:20Z</time>
      </trkpt>
      <trkpt lat="42.036233" lon="0.467291">
        <ele>756.640</ele>
        <time>2018-11-24T13:02:21Z</time>
      </trkpt>
      <trkpt lat="42.035958" lon="0.467411">
        <ele>756.621</ele>
        <time>2018-11-24T13:02:22Z</time>
      </trkpt>
      <trkpt lat="42.035678" lon="0.467538">
        <ele>756.519</ele>
        <time>2018-11-24T13:02:23Z</time>
      </trkpt>
      <trkpt lat="42.035391" lon="0.467670">
        <ele>756.721</ele>
        <time>2018-11-24T13:02:24Z</time>
      </trkpt>
      <trkpt lat="42.035096" lon="0.467805">
        <ele>756.554</ele>
        <time>2018-11-24T13:02:25Z</time>
      </trkpt>
      <trkpt lat="42.034792" lon="0.467946">
        <ele>756.428</ele>
        <time>2018-11-24T13:02:26Z</time>
      </trkpt>
      <trkpt lat="42.034477" lon="0.468089">
        <ele>756.484</ele>
        <time>2018-11-24T13:02:27Z</time>
      </trkpt>
      <trkpt lat="42.034151" lon="0.468231">
        <ele>756.307</ele>
        <time>2018-11-24T13:02:28Z</time>
      </trkpt>
      <trkpt lat="42.033818" lon="0.468375">
        <ele>755.917</ele>
        <time>2018-11-24T13:02:29Z</time>
      </trkpt>
      <trkpt lat="42.033488" lon="0.468517">
        <ele>755.508</ele>
        <time>2018-11-24T13:02:30Z</time>
      </trkpt>
      <trkpt lat="42.033162" lon="0.468657">
        <ele>754.651</ele>
        <time>2018-11-24T13:02:31Z</time>
      </trkpt>
      <trkpt lat="42.032841" lon="0.468795">
        <ele>753.648</ele>
        <time>2018-11-24T13:02:32Z</time>
      </trkpt>
      <trkpt lat="42.032525" lon="0.468931">
        <ele>752.465</ele>
        <time>2018-11-24T13:02:33Z</time>
      </trkpt>
      <trkpt lat="42.032214" lon="0.469065">
        <ele>751.246</ele>
        <time>2018-11-24T13:02:34Z</time>
      </trkpt>
      <trkpt lat="42.031908" lon="0.469198">
        <ele>750.444</ele>
        <time>2018-11-24T13:02:35Z</time>
      </trkpt>
      <trkpt lat="42.031606" lon="0.469329">
        <ele>749.856</ele>
        <time>2018-11-24T13:02:36Z</time>
      </trkpt>
      <trkpt lat="42.031304" lon="0.469460">
        <ele>749.369</ele>
        <time>2018-11-24T13:02:37Z</time>
      </trkpt>
      <trkpt lat="42.031000" lon="0.469592">
        <ele>748.883</ele>
        <time>2018-11-24T13:02:38Z</time>
      </trkpt>
      <trkpt lat="42.030693" lon="0.469727">
        <ele>748.575</ele>
        <time>2018-11-24T13:02:39Z</time>
      </trkpt>
      <trkpt lat="42.030382" lon="0.469863">
        <ele>748.528</ele>
        <time>2018-11-24T13:02:40Z</time>
      </trkpt>
      <trkpt lat="42.030070" lon="0.470000">
        <ele>748.620</ele>
        <time>2018-11-24T13:02:41Z</time>
      </trkpt>
      <trkpt lat="42.029762" lon="0.470134">
        <ele>748.008</ele>
        <time>2018-11-24T13:02:42Z</time>
      </trkpt>
      <trkpt lat="42.029459" lon="0.470265">
        <ele>747.820</ele>
        <time>2018-11-24T13:02:43Z</time>
      </trkpt>
      <trkpt lat="42.029159" lon="0.470394">
        <ele>747.597</ele>
        <time>2018-11-24T13:02:44Z</time>
      </trkpt>
      <trkpt lat="42.028859" lon="0.470523">
        <ele>747.464</ele>
        <time>2018-11-24T13:02:45Z</time>
      </trkpt>
      <trkpt lat="42.028561" lon="0.470652">
        <ele>747.375</ele>
        <time>2018-11-24T13:02:46Z</time>
      </trkpt>
      <trkpt lat="42.028262" lon="0.470782">
        <ele>747.273</ele>
        <time>2018-11-24T13:02:47Z</time>
      </trkpt>
      <trkpt lat="42.027965" lon="0.470912">
        <ele>747.185</ele>
        <time>2018-11-24T13:02:48Z</time>
      </trkpt>
      <trkpt lat="42.027673" lon="0.471037">
        <ele>747.028</ele>
        <time>2018-11-24T13:02:49Z</time>
      </trkpt>
      <trkpt lat="42.027382" lon="0.471160">
        <ele>746.882</ele>
        <time>2018-11-24T13:02:50Z</time>
      </trkpt>
      <trkpt lat="42.027092" lon="0.471284">
        <ele>746.769</ele>
        <time>2018-11-24T13:02:51Z</time>
      </trkpt>
      <trkpt lat="42.026806" lon="0.471408">
        <ele>746.604</ele>
        <time>2018-11-24T13:02:52Z</time>
      </trkpt>
      <trkpt lat="42.026523" lon="0.471529">
        <ele>746.324</ele>
        <time>2018-11-24T13:02:53Z</time>
      </trkpt>
      <trkpt lat="42.026241" lon="0.471649">
        <ele>745.908</ele>
        <time>2018-11-24T13:02:54Z</time>
      </trkpt>
      <trkpt lat="42.025959" lon="0.471769">
        <ele>745.779</ele>
        <time>2018-11-24T13:02:55Z</time>
      </trkpt>
      <trkpt lat="42.025676" lon="0.471887">
        <ele>745.556</ele>
        <time>2018-11-24T13:02:56Z</time>
      </trkpt>
      <trkpt lat="42.025393" lon="0.472006">
        <ele>745.213</ele>
        <time>2018-11-24T13:02:57Z</time>
      </trkpt>
      <trkpt lat="42.025109" lon="0.472126">
        <ele>744.934</ele>
        <time>2018-11-24T13:02:58Z</time>
      </trkpt>
      <trkpt lat="42.024826" lon="0.472245">
        <ele>744.922</ele>
        <time>2018-11-24T13:02:59Z</time>
      </trkpt>
      <trkpt lat="42.024544" lon="0.472362">
        <ele>744.984</ele>
        <time>2018-11-24T13:03:00Z</time>
      </trkpt>
      <trkpt lat="42.024264" lon="0.472484">
        <ele>745.097</ele>
        <time>2018-11-24T13:03:01Z</time>
      </trkpt>
      <trkpt lat="42.023983" lon="0.472607">
        <ele>745.531</ele>
        <time>2018-11-24T13:03:02Z</time>
      </trkpt>
      <trkpt lat="42.023697" lon="0.472736">
        <ele>746.414</ele>
        <time>2018-11-24T13:03:03Z</time>
      </trkpt>
      <trkpt lat="42.023408" lon="0.472860">
        <ele>746.954</ele>
        <time>2018-11-24T13:03:04Z</time>
      </trkpt>
      <trkpt lat="42.023117" lon="0.472982">
        <ele>747.909</ele>
        <time>2018-11-24T13:03:05Z</time>
      </trkpt>
      <trkpt lat="42.022823" lon="0.473105">
        <ele>748.808</ele>
        <time>2018-11-24T13:03:06Z</time>
      </trkpt>
      <trkpt lat="42.022527" lon="0.473237">
        <ele>749.754</ele>
        <time>2018-11-24T13:03:07Z</time>
      </trkpt>
      <trkpt lat="42.022230" lon="0.473368">
        <ele>750.451</ele>
        <time>2018-11-24T13:03:08Z</time>
      </trkpt>
      <trkpt lat="42.021933" lon="0.473501">
        <ele>751.388</ele>
        <time>2018-11-24T13:03:09Z</time>
      </trkpt>
      <trkpt lat="42.021633" lon="0.473633">
        <ele>752.119</ele>
        <time>2018-11-24T13:03:10Z</time>
      </trkpt>
      <trkpt lat="42.021330" lon="0.473768">
        <ele>752.717</ele>
        <time>2018-11-24T13:03:11Z</time>
      </trkpt>
      <trkpt lat="42.021024" lon="0.473901">
        <ele>753.079</ele>
        <time>2018-11-24T13:03:12Z</time>
      </trkpt>
      <trkpt lat="42.020716" lon="0.474033">
        <ele>753.362</ele>
        <time>2018-11-24T13:03:13Z</time>
      </trkpt>
      <trkpt lat="42.020409" lon="0.474165">
        <ele>753.196</ele>
        <time>2018-11-24T13:03:14Z</time>
      </trkpt>
      <trkpt lat="42.020109" lon="0.474297">
        <ele>752.632</ele>
        <time>2018-11-24T13:03:15Z</time>
      </trkpt>
      <trkpt lat="42.019811" lon="0.474425">
        <ele>752.292</ele>
        <time>2018-11-24T13:03:16Z</time>
      </trkpt>
      <trkpt lat="42.019519" lon="0.474551">
        <ele>751.611</ele>
        <time>2018-11-24T13:03:17Z</time>
      </trkpt>
      <trkpt lat="42.019229" lon="0.474675">
        <ele>751.108</ele>
        <time>2018-11-24T13:03:18Z</time>
      </trkpt>
      <trkpt lat="42.018941" lon="0.474798">
        <ele>751.076</ele>
        <time>2018-11-24T13:03:19Z</time>
      </trkpt>
      <trkpt lat="42.018650" lon="0.474922">
        <ele>751.063</ele>
        <time>2018-11-24T13:03:20Z</time>
      </trkpt>
      <trkpt lat="42.018356" lon="0.475048">
        <ele>751.080</ele>
        <time>2018-11-24T13:03:21Z</time>
      </trkpt>
      <trkpt lat="42.018057" lon="0.475177">
        <ele>751.471</ele>
        <time>2018-11-24T13:03:22Z</time>
      </trkpt>
      <trkpt lat="42.017751" lon="0.475310">
        <ele>752.249</ele>
        <time>2018-11-24T13:03:23Z</time>
      </trkpt>
      <trkpt lat="42.017437" lon="0.475449">
        <ele>753.281</ele>
        <time>2018-11-24T13:03:24Z</time>
      </trkpt>
      <trkpt lat="42.017117" lon="0.475590">
        <ele>754.114</ele>
        <time>2018-11-24T13:03:25Z</time>
      </trkpt>
      <trkpt lat="42.016793" lon="0.475733">
        <ele>754.868</ele>
        <time>2018-11-24T13:03:26Z</time>
      </trkpt>
      <trkpt lat="42.016467" lon="0.475875">
        <ele>755.331</ele>
        <time>2018-11-24T13:03:27Z</time>
      </trkpt>
      <trkpt lat="42.016139" lon="0.476017">
        <ele>755.561</ele>
        <time>2018-11-24T13:03:28Z</time>
      </trkpt>
      <trkpt lat="42.015807" lon="0.476160">
        <ele>755.907</ele>
        <time>2018-11-24T13:03:29Z</time>
      </trkpt>
      <trkpt lat="42.015472" lon="0.476305">
        <ele>756.108</ele>
        <time>2018-11-24T13:03:30Z</time>
      </trkpt>
      <trkpt lat="42.015140" lon="0.476446">
        <ele>756.186</ele>
        <time>2018-11-24T13:03:31Z</time>
      </trkpt>
      <trkpt lat="42.014813" lon="0.476585">
        <ele>755.863</ele>
        <time>2018-11-24T13:03:32Z</time>
      </trkpt>
      <trkpt lat="42.014493" lon="0.476722">
        <ele>755.830</ele>
        <time>2018-11-24T13:03:33Z</time>
      </trkpt>
      <trkpt lat="42.014181" lon="0.476858">
        <ele>756.011</ele>
        <time>2018-11-24T13:03:34Z</time>
      </trkpt>
      <trkpt lat="42.013875" lon="0.476992">
        <ele>756.659</ele>
        <time>2018-11-24T13:03:35Z</time>
      </trkpt>
      <trkpt lat="42.013573" lon="0.477126">
        <ele>757.751</ele>
        <time>2018-11-24T13:03:36Z</time>
      </trkpt>
      <trkpt lat="42.013274" lon="0.477257">
        <ele>759.114</ele>
        <time>2018-11-24T13:03:37Z</time>
      </trkpt>
      <trkpt lat="42.012976" lon="0.477387">
        <ele>760.568</ele>
        <time>2018-11-24T13:03:38Z</time>
      </trkpt>
      <trkpt lat="42.012679" lon="0.477517">
        <ele>761.885</ele>
        <time>2018-11-24T13:03:39Z</time>
      </trkpt>
      <trkpt lat="42.012380" lon="0.477646">
        <ele>763.289</ele>
        <time>2018-11-24T13:03:40Z</time>
      </trkpt>
      <trkpt lat="42.012081" lon="0.477774">
        <ele>764.717</ele>
        <time>2018-11-24T13:03:41Z</time>
      </trkpt>
      <trkpt lat="42.011781" lon="0.477902">
        <ele>765.808</ele>
        <time>2018-11-24T13:03:42Z</time>
      </trkpt>
      <trkpt lat="42.011484" lon="0.478029">
        <ele>767.771</ele>
        <time>2018-11-24T13:03:43Z</time>
      </trkpt>
      <trkpt lat="42.011195" lon="0.478153">
        <ele>768.848</ele>
        <time>2018-11-24T13:03:44Z</time>
      </trkpt>
      <trkpt lat="42.010914" lon="0.478274">
        <ele>770.195</ele>
        <time>2018-11-24T13:03:45Z</time>
      </trkpt>
      <trkpt lat="42.010637" lon="0.478394">
        <ele>771.546</ele>
        <time>2018-11-24T13:03:46Z</time>
      </trkpt>
      <trkpt lat="42.010361" lon="0.478514">
        <ele>772.734</ele>
        <time>2018-11-24T13:03:47Z</time>
      </trkpt>
      <trkpt lat="42.010091" lon="0.478630">
        <ele>774.176</ele>
        <time>2018-11-24T13:03:48Z</time>
      </trkpt>
      <trkpt lat="42.009826" lon="0.478745">
        <ele>775.479</ele>
        <time>2018-11-24T13:03:49Z</time>
      </trkpt>
      <trkpt lat="42.009562" lon="0.478858">
        <ele>776.553</ele>
        <time>2018-11-24T13:03:50Z</time>
      </trkpt>
      <trkpt lat="42.009296" lon="0.478970">
        <ele>777.684</ele>
        <time>2018-11-24T13:03:51Z</time>
      </trkpt>
      <trkpt lat="42.009027" lon="0.479085">
        <ele>778.407</ele>
        <time>2018-11-24T13:03:52Z</time>
      </trkpt>
      <trkpt lat="42.008753" lon="0.479205">
        <ele>779.017</ele>
        <time>2018-11-24T13:03:53Z</time>
      </trkpt>
      <trkpt lat="42.008471" lon="0.479328">
        <ele>779.708</ele>
        <time>2018-11-24T13:03:54Z</time>
      </trkpt>
      <trkpt lat="42.008181" lon="0.479453">
        <ele>780.061</ele>
        <time>2018-11-24T13:03:55Z</time>
      </trkpt>
      <trkpt lat="42.007884" lon="0.479580">
        <ele>780.288</ele>
        <time>2018-11-24T13:03:56Z</time>
      </trkpt>
      <trkpt lat="42.007589" lon="0.479705">
        <ele>780.165</ele>
        <time>2018-11-24T13:03:57Z</time>
      </trkpt>
      <trkpt lat="42.007298" lon="0.479831">
        <ele>779.746</ele>
        <time>2018-11-24T13:03:58Z</time>
      </trkpt>
      <trkpt lat="42.007008" lon="0.479957">
        <ele>779.784</ele>
        <time>2018-11-24T13:03:59Z</time>
      </trkpt>
      <trkpt lat="42.006721" lon="0.480081">
        <ele>779.796</ele>
        <time>2018-11-24T13:04:00Z</time>
      </trkpt>
      <trkpt lat="42.006440" lon="0.480202">
        <ele>779.369</ele>
        <time>2018-11-24T13:04:01Z</time>
      </trkpt>
      <trkpt lat="42.006162" lon="0.480318">
        <ele>779.383</ele>
        <time>2018-11-24T13:04:02Z</time>
      </trkpt>
      <trkpt lat="42.005894" lon="0.480430">
        <ele>779.624</ele>
        <time>2018-11-24T13:04:03Z</time>
      </trkpt>
      <trkpt lat="42.005631" lon="0.480544">
        <ele>780.104</ele>
        <time>2018-11-24T13:04:04Z</time>
      </trkpt>
      <trkpt lat="42.005371" lon="0.480656">
        <ele>780.814</ele>
        <time>2018-11-24T13:04:05Z</time>
      </trkpt>
      <trkpt lat="42.005111" lon="0.480765">
        <ele>781.608</ele>
        <time>2018-11-24T13:04:06Z</time>
      </trkpt>
      <trkpt lat="42.004853" lon="0.480872">
        <ele>782.515</ele>
        <time>2018-11-24T13:04:07Z</time>
      </trkpt>
      <trkpt lat="42.004597" lon="0.480984">
        <ele>783.552</ele>
        <time>2018-11-24T13:04:08Z</time>
      </trkpt>
      <trkpt lat="42.004340" lon="0.481095">
        <ele>784.429</ele>
        <time>2018-11-24T13:04:09Z</time>
      </trkpt>
      <trkpt lat="42.004082" lon="0.481200">
        <ele>785.670</ele>
        <time>2018-11-24T13:04:10Z</time>
      </trkpt>
      <trkpt lat="42.003822" lon="0.481294">
        <ele>786.388</ele>
        <time>2018-11-24T13:04:11Z</time>
      </trkpt>
      <trkpt lat="42.003558" lon="0.481370">
        <ele>786.850</ele>
        <time>2018-11-24T13:04:12Z</time>
      </trkpt>
      <trkpt lat="42.003292" lon="0.481420">
        <ele>787.633</ele>
        <time>2018-11-24T13:04:13Z</time>
      </trkpt>
      <trkpt lat="42.003029" lon="0.481452">
        <ele>788.317</ele>
        <time>2018-11-24T13:04:14Z</time>
      </trkpt>
      <trkpt lat="42.002764" lon="0.481472">
        <ele>789.199</ele>
        <time>2018-11-24T13:04:15Z</time>
      </trkpt>
      <trkpt lat="42.002498" lon="0.481481">
        <ele>789.807</ele>
        <time>2018-11-24T13:04:16Z</time>
      </trkpt>
      <trkpt lat="42.002229" lon="0.481482">
        <ele>790.727</ele>
        <time>2018-11-24T13:04:17Z</time>
      </trkpt>
      <trkpt lat="42.001957" lon="0.481479">
        <ele>791.708</ele>
        <time>2018-11-24T13:04:18Z</time>
      </trkpt>
      <trkpt lat="42.001681" lon="0.481479">
        <ele>792.912</ele>
        <time>2018-11-24T13:04:19Z</time>
      </trkpt>
      <trkpt lat="42.001400" lon="0.481480">
        <ele>793.939</ele>
        <time>2018-11-24T13:04:20Z</time>
      </trkpt>
      <trkpt lat="42.001113" lon="0.481479">
        <ele>794.776</ele>
        <time>2018-11-24T13:04:21Z</time>
      </trkpt>
      <trkpt lat="42.000818" lon="0.481478">
        <ele>795.797</ele>
        <time>2018-11-24T13:04:22Z</time>
      </trkpt>
      <trkpt lat="42.000514" lon="0.481477">
        <ele>796.335</ele>
        <time>2018-11-24T13:04:23Z</time>
      </trkpt>
      <trkpt lat="42.000201" lon="0.481478">
        <ele>796.947</ele>
        <time>2018-11-24T13:04:24Z</time>
      </trkpt>
      <trkpt lat="41.999884" lon="0.481479">
        <ele>797.370</ele>
        <time>2018-11-24T13:04:25Z</time>
      </trkpt>
      <trkpt lat="41.999570" lon="0.481476">
        <ele>797.454</ele>
        <time>2018-11-24T13:04:26Z</time>
      </trkpt>
      <trkpt lat="41.999260" lon="0.481473">
        <ele>797.322</ele>
        <time>2018-11-24T13:04:27Z</time>
      </trkpt>
      <trkpt lat="41.998954" lon="0.481470">
        <ele>796.862</ele>
        <time>2018-11-24T13:04:28Z</time>
      </trkpt>
      <trkpt lat="41.998653" lon="0.481467">
        <ele>796.108</ele>
        <time>2018-11-24T13:04:29Z</time>
      </trkpt>
      <trkpt lat="41.998355" lon="0.481465">
        <ele>795.608</ele>
        <time>2018-11-24T13:04:30Z</time>
      </trkpt>
      <trkpt lat="41.998062" lon="0.481470">
        <ele>794.995</ele>
        <time>2018-11-24T13:04:31Z</time>
      </trkpt>
      <trkpt lat="41.997773" lon="0.481496">
        <ele>794.182</ele>
        <time>2018-11-24T13:04:32Z</time>
      </trkpt>
      <trkpt lat="41.997487" lon="0.481530">
        <ele>793.339</ele>
        <time>2018-11-24T13:04:33Z</time>
      </trkpt>
      <trkpt lat="41.997203" lon="0.481638">
        <ele>792.620</ele>
        <time>2018-11-24T13:04:34Z</time>
      </trkpt>
      <trkpt lat="41.996935" lon="0.481778">
        <ele>791.878</ele>
        <time>2018-11-24T13:04:35Z</time>
      </trkpt>
      <trkpt lat="41.996680" lon="0.481953">
        <ele>790.940</ele>
        <time>2018-11-24T13:04:36Z</time>
      </trkpt>
      <trkpt lat="41.996435" lon="0.482161">
        <ele>790.293</ele>
        <time>2018-11-24T13:04:37Z</time>
      </trkpt>
      <trkpt lat="41.996204" lon="0.482395">
        <ele>789.277</ele>
        <time>2018-11-24T13:04:38Z</time>
      </trkpt>
      <trkpt lat="41.995977" lon="0.482638">
        <ele>788.126</ele>
        <time>2018-11-24T13:04:39Z</time>
      </trkpt>
      <trkpt lat="41.995745" lon="0.482873">
        <ele>786.647</ele>
        <time>2018-11-24T13:04:40Z</time>
      </trkpt>
      <trkpt lat="41.995500" lon="0.483088">
        <ele>785.511</ele>
        <time>2018-11-24T13:04:41Z</time>
      </trkpt>
      <trkpt lat="41.995244" lon="0.483281">
        <ele>784.008</ele>
        <time>2018-11-24T13:04:42Z</time>
      </trkpt>
      <trkpt lat="41.994974" lon="0.483451">
        <ele>782.435</ele>
        <time>2018-11-24T13:04:43Z</time>
      </trkpt>
      <trkpt lat="41.994699" lon="0.483610">
        <ele>780.882</ele>
        <time>2018-11-24T13:04:44Z</time>
      </trkpt>
      <trkpt lat="41.994426" lon="0.483763">
        <ele>779.699</ele>
        <time>2018-11-24T13:04:45Z</time>
      </trkpt>
      <trkpt lat="41.994157" lon="0.483911">
        <ele>778.210</ele>
        <time>2018-11-24T13:04:46Z</time>
      </trkpt>
      <trkpt lat="41.993897" lon="0.484054">
        <ele>776.998</ele>
        <time>2018-11-24T13:04:47Z</time>
      </trkpt>
      <trkpt lat="41.993641" lon="0.484192">
        <ele>776.480</ele>
        <time>2018-11-24T13:04:48Z</time>
      </trkpt>
      <trkpt lat="41.993388" lon="0.484327">
        <ele>775.843</ele>
        <time>2018-11-24T13:04:49Z</time>
      </trkpt>
      <trkpt lat="41.993137" lon="0.484463">
        <ele>775.687</ele>
        <time>2018-11-24T13:04:50Z</time>
      </trkpt>
      <trkpt lat="41.992887" lon="0.484597">
        <ele>775.786</ele>
        <time>2018-11-24T13:04:51Z</time>
      </trkpt>
      <trkpt lat="41.992640" lon="0.484730">
        <ele>775.860</ele>
        <time>2018-11-24T13:04:52Z</time>
      </trkpt>
      <trkpt lat="41.992392" lon="0.484865">
        <ele>775.526</ele>
        <time>2018-11-24T13:04:53Z</time>
      </trkpt>
      <trkpt lat="41.992141" lon="0.485002">
        <ele>775.108</ele>
        <time>2018-11-24T13:04:54Z</time>
      </trkpt>
      <trkpt lat="41.991891" lon="0.485137">
        <ele>774.551</ele>
        <time>2018-11-24T13:04:55Z</time>
      </trkpt>
      <trkpt lat="41.991642" lon="0.485265">
        <ele>773.728</ele>
        <time>2018-11-24T13:04:56Z</time>
      </trkpt>
      <trkpt lat="41.991392" lon="0.485387">
        <ele>772.775</ele>
        <time>2018-11-24T13:04:57Z</time>
      </trkpt>
      <trkpt lat="41.991132" lon="0.485498">
        <ele>771.626</ele>
        <time>2018-11-24T13:04:58Z</time>
      </trkpt>
      <trkpt lat="41.990875" lon="0.485608">
        <ele>770.534</ele>
        <time>2018-11-24T13:04:59Z</time>
      </trkpt>
      <trkpt lat="41.990614" lon="0.485714">
        <ele>769.596</ele>
        <time>2018-11-24T13:05:00Z</time>
      </trkpt>
      <trkpt lat="41.990345" lon="0.485810">
        <ele>767.979</ele>
        <time>2018-11-24T13:05:01Z</time>
      </trkpt>
      <trkpt lat="41.990072" lon="0.485901">
        <ele>766.413</ele>
        <time>2018-11-24T13:05:02Z</time>
      </trkpt>
      <trkpt lat="41.989800" lon="0.485993">
        <ele>765.363</ele>
        <time>2018-11-24T13:05:03Z</time>
      </trkpt>
      <trkpt lat="41.989530" lon="0.486084">
        <ele>763.744</ele>
        <time>2018-11-24T13:05:04Z</time>
      </trkpt>
      <trkpt lat="41.989259" lon="0.486178">
        <ele>762.318</ele>
        <time>2018-11-24T13:05:05Z</time>
      </trkpt>
      <trkpt lat="41.988985" lon="0.486275">
        <ele>761.408</ele>
        <time>2018-11-24T13:05:06Z</time>
      </trkpt>
      <trkpt lat="41.988714" lon="0.486382">
        <ele>760.279</ele>
        <time>2018-11-24T13:05:07Z</time>
      </trkpt>
      <trkpt lat="41.988446" lon="0.486513">
        <ele>759.096</ele>
        <time>2018-11-24T13:05:08Z</time>
      </trkpt>
      <trkpt lat="41.988185" lon="0.486669">
        <ele>757.933</ele>
        <time>2018-11-24T13:05:09Z</time>
      </trkpt>
      <trkpt lat="41.987924" lon="0.486827">
        <ele>757.124</ele>
        <time>2018-11-24T13:05:10Z</time>
      </trkpt>
      <trkpt lat="41.987674" lon="0.487016">
        <ele>756.112</ele>
        <time>2018-11-24T13:05:11Z</time>
      </trkpt>
      <trkpt lat="41.987427" lon="0.487221">
        <ele>754.534</ele>
        <time>2018-11-24T13:05:12Z</time>
      </trkpt>
      <trkpt lat="41.987178" lon="0.487440">
        <ele>753.537</ele>
        <time>2018-11-24T13:05:13Z</time>
      </trkpt>
      <trkpt lat="41.986936" lon="0.487664">
        <ele>752.041</ele>
        <time>2018-11-24T13:05:14Z</time>
      </trkpt>
      <trkpt lat="41.986691" lon="0.487884">
        <ele>750.531</ele>
        <time>2018-11-24T13:05:15Z</time>
      </trkpt>
      <trkpt lat="41.986443" lon="0.488102">
        <ele>749.161</ele>
        <time>2018-11-24T13:05:16Z</time>
      </trkpt>
      <trkpt lat="41.986195" lon="0.488315">
        <ele>748.207</ele>
        <time>2018-11-24T13:05:17Z</time>
      </trkpt>
      <trkpt lat="41.985951" lon="0.488533">
        <ele>747.208</ele>
        <time>2018-11-24T13:05:18Z</time>
      </trkpt>
      <trkpt lat="41.985705" lon="0.488755">
        <ele>746.136</ele>
        <time>2018-11-24T13:05:19Z</time>
      </trkpt>
      <trkpt lat="41.985462" lon="0.488975">
        <ele>744.573</ele>
        <time>2018-11-24T13:05:20Z</time>
      </trkpt>
      <trkpt lat="41.985216" lon="0.489180">
        <ele>743.370</ele>
        <time>2018-11-24T13:05:21Z</time>
      </trkpt>
      <trkpt lat="41.984963" lon="0.489365">
        <ele>741.761</ele>
        <time>2018-11-24T13:05:22Z</time>
      </trkpt>
      <trkpt lat="41.984707" lon="0.489535">
        <ele>740.519</ele>
        <time>2018-11-24T13:05:23Z</time>
      </trkpt>
      <trkpt lat="41.984434" lon="0.489645">
        <ele>739.581</ele>
        <time>2018-11-24T13:05:24Z</time>
      </trkpt>
      <trkpt lat="41.984155" lon="0.489717">
        <ele>738.914</ele>
        <time>2018-11-24T13:05:25Z</time>
      </trkpt>
      <trkpt lat="41.983865" lon="0.489762">
        <ele>739.018</ele>
        <time>2018-11-24T13:05:26Z</time>
      </trkpt>
      <trkpt lat="41.983565" lon="0.489790">
        <ele>738.625</ele>
        <time>2018-11-24T13:05:27Z</time>
      </trkpt>
      <trkpt lat="41.983267" lon="0.489814">
        <ele>738.126</ele>
        <time>2018-11-24T13:05:28Z</time>
      </trkpt>
      <trkpt lat="41.982975" lon="0.489838">
        <ele>737.708</ele>
        <time>2018-11-24T13:05:29Z</time>
      </trkpt>
      <trkpt lat="41.982698" lon="0.489861">
        <ele>737.208</ele>
        <time>2018-11-24T13:05:30Z</time>
      </trkpt>
      <trkpt lat="41.982434" lon="0.489883">
        <ele>736.455</ele>
        <time>2018-11-24T13:05:31Z</time>
      </trkpt>
      <trkpt lat="41.982174" lon="0.489902">
        <ele>735.912</ele>
        <time>2018-11-24T13:05:32Z</time>
      </trkpt>
      <trkpt lat="41.981921" lon="0.489922">
        <ele>736.129</ele>
        <time>2018-11-24T13:05:33Z</time>
      </trkpt>
      <trkpt lat="41.981670" lon="0.489939">
        <ele>736.220</ele>
        <time>2018-11-24T13:05:34Z</time>
      </trkpt>
      <trkpt lat="41.981423" lon="0.489964">
        <ele>736.558</ele>
        <time>2018-11-24T13:05:35Z</time>
      </trkpt>
      <trkpt lat="41.981175" lon="0.489990">
        <ele>737.180</ele>
        <time>2018-11-24T13:05:36Z</time>
      </trkpt>
      <trkpt lat="41.980929" lon="0.490017">
        <ele>737.883</ele>
        <time>2018-11-24T13:05:37Z</time>
      </trkpt>
      <trkpt lat="41.980682" lon="0.490042">
        <ele>738.597</ele>
        <time>2018-11-24T13:05:38Z</time>
      </trkpt>
      <trkpt lat="41.980436" lon="0.490064">
        <ele>739.295</ele>
        <time>2018-11-24T13:05:39Z</time>
      </trkpt>
      <trkpt lat="41.980195" lon="0.490088">
        <ele>740.149</ele>
        <time>2018-11-24T13:05:40Z</time>
      </trkpt>
      <trkpt lat="41.979961" lon="0.490112">
        <ele>741.023</ele>
        <time>2018-11-24T13:05:41Z</time>
      </trkpt>
      <trkpt lat="41.979734" lon="0.490129">
        <ele>742.208</ele>
        <time>2018-11-24T13:05:42Z</time>
      </trkpt>
      <trkpt lat="41.979510" lon="0.490133">
        <ele>743.312</ele>
        <time>2018-11-24T13:05:43Z</time>
      </trkpt>
      <trkpt lat="41.979294" lon="0.490120">
        <ele>744.279</ele>
        <time>2018-11-24T13:05:44Z</time>
      </trkpt>
      <trkpt lat="41.979082" lon="0.490094">
        <ele>745.296</ele>
        <time>2018-11-24T13:05:45Z</time>
      </trkpt>
      <trkpt lat="41.978876" lon="0.490048">
        <ele>746.137</ele>
        <time>2018-11-24T13:05:46Z</time>
      </trkpt>
      <trkpt lat="41.978677" lon="0.489979">
        <ele>747.365</ele>
        <time>2018-11-24T13:05:47Z</time>
      </trkpt>
      <trkpt lat="41.978485" lon="0.489895">
        <ele>748.757</ele>
        <time>2018-11-24T13:05:48Z</time>
      </trkpt>
      <trkpt lat="41.978293" lon="0.489805">
        <ele>749.690</ele>
        <time>2018-11-24T13:05:49Z</time>
      </trkpt>
      <trkpt lat="41.978118" lon="0.489680">
        <ele>751.124</ele>
        <time>2018-11-24T13:05:50Z</time>
      </trkpt>
      <trkpt lat="41.977946" lon="0.489548">
        <ele>752.287</ele>
        <time>2018-11-24T13:05:51Z</time>
      </trkpt>
      <trkpt lat="41.977796" lon="0.489379">
        <ele>753.342</ele>
        <time>2018-11-24T13:05:52Z</time>
      </trkpt>
      <trkpt lat="41.977650" lon="0.489211">
        <ele>754.126</ele>
        <time>2018-11-24T13:05:53Z</time>
      </trkpt>
      <trkpt lat="41.977501" lon="0.489048">
        <ele>755.008</ele>
        <time>2018-11-24T13:05:54Z</time>
      </trkpt>
      <trkpt lat="41.977379" lon="0.488860">
        <ele>756.021</ele>
        <time>2018-11-24T13:05:55Z</time>
      </trkpt>
      <trkpt lat="41.977260" lon="0.488657">
        <ele>757.498</ele>
        <time>2018-11-24T13:05:56Z</time>
      </trkpt>
      <trkpt lat="41.977144" lon="0.488442">
        <ele>758.795</ele>
        <time>2018-11-24T13:05:57Z</time>
      </trkpt>
      <trkpt lat="41.977022" lon="0.488227">
        <ele>760.336</ele>
        <time>2018-11-24T13:05:58Z</time>
      </trkpt>
      <trkpt lat="41.976893" lon="0.488007">
        <ele>761.764</ele>
        <time>2018-11-24T13:05:59Z</time>
      </trkpt>
      <trkpt lat="41.976755" lon="0.487790">
        <ele>763.516</ele>
        <time>2018-11-24T13:06:00Z</time>
      </trkpt>
      <trkpt lat="41.976603" lon="0.487580">
        <ele>764.849</ele>
        <time>2018-11-24T13:06:01Z</time>
      </trkpt>
      <trkpt lat="41.976440" lon="0.487365">
        <ele>766.283</ele>
        <time>2018-11-24T13:06:02Z</time>
      </trkpt>
      <trkpt lat="41.976254" lon="0.487177">
        <ele>767.458</ele>
        <time>2018-11-24T13:06:03Z</time>
      </trkpt>
      <trkpt lat="41.976075" lon="0.486990">
        <ele>768.452</ele>
        <time>2018-11-24T13:06:04Z</time>
      </trkpt>
      <trkpt lat="41.975898" lon="0.486809">
        <ele>769.317</ele>
        <time>2018-11-24T13:06:05Z</time>
      </trkpt>
      <trkpt lat="41.975718" lon="0.486627">
        <ele>770.108</ele>
        <time>2018-11-24T13:06:06Z</time>
      </trkpt>
      <trkpt lat="41.975539" lon="0.486438">
        <ele>771.188</ele>
        <time>2018-11-24T13:06:07Z</time>
      </trkpt>
      <trkpt lat="41.975353" lon="0.486253">
        <ele>771.895</ele>
        <time>2018-11-24T13:06:08Z</time>
      </trkpt>
      <trkpt lat="41.975166" lon="0.486063">
        <ele>772.232</ele>
        <time>2018-11-24T13:06:09Z</time>
      </trkpt>
      <trkpt lat="41.974981" lon="0.485874">
        <ele>772.773</ele>
        <time>2018-11-24T13:06:10Z</time>
      </trkpt>
      <trkpt lat="41.974793" lon="0.485682">
        <ele>773.341</ele>
        <time>2018-11-24T13:06:11Z</time>
      </trkpt>
      <trkpt lat="41.974610" lon="0.485494">
        <ele>773.483</ele>
        <time>2018-11-24T13:06:12Z</time>
      </trkpt>
      <trkpt lat="41.974427" lon="0.485309">
        <ele>773.476</ele>
        <time>2018-11-24T13:06:13Z</time>
      </trkpt>
      <trkpt lat="41.974242" lon="0.485124">
        <ele>773.450</ele>
        <time>2018-11-24T13:06:14Z</time>
      </trkpt>
      <trkpt lat="41.974056" lon="0.484938">
        <ele>773.342</ele>
        <time>2018-11-24T13:06:15Z</time>
      </trkpt>
      <trkpt lat="41.973868" lon="0.484750">
        <ele>772.922</ele>
        <time>2018-11-24T13:06:16Z</time>
      </trkpt>
      <trkpt lat="41.973679" lon="0.484562">
        <ele>772.414</ele>
        <time>2018-11-24T13:06:17Z</time>
      </trkpt>
      <trkpt lat="41.973490" lon="0.484374">
        <ele>771.508</ele>
        <time>2018-11-24T13:06:18Z</time>
      </trkpt>
      <trkpt lat="41.973301" lon="0.484183">
        <ele>770.917</ele>
        <time>2018-11-24T13:06:19Z</time>
      </trkpt>
      <trkpt lat="41.973110" lon="0.483990">
        <ele>770.274</ele>
        <time>2018-11-24T13:06:20Z</time>
      </trkpt>
      <trkpt lat="41.972919" lon="0.483797">
        <ele>768.961</ele>
        <time>2018-11-24T13:06:21Z</time>
      </trkpt>
      <trkpt lat="41.972726" lon="0.483604">
        <ele>768.022</ele>
        <time>2018-11-24T13:06:22Z</time>
      </trkpt>
      <trkpt lat="41.972529" lon="0.483405">
        <ele>766.840</ele>
        <time>2018-11-24T13:06:23Z</time>
      </trkpt>
      <trkpt lat="41.972324" lon="0.483197">
        <ele>766.072</ele>
        <time>2018-11-24T13:06:24Z</time>
      </trkpt>
      <trkpt lat="41.972106" lon="0.482981">
        <ele>764.825</ele>
        <time>2018-11-24T13:06:25Z</time>
      </trkpt>
      <trkpt lat="41.971877" lon="0.482765">
        <ele>763.939</ele>
        <time>2018-11-24T13:06:26Z</time>
      </trkpt>
      <trkpt lat="41.971644" lon="0.482548">
        <ele>762.443</ele>
        <time>2018-11-24T13:06:27Z</time>
      </trkpt>
      <trkpt lat="41.971394" lon="0.482369">
        <ele>761.064</ele>
        <time>2018-11-24T13:06:28Z</time>
      </trkpt>
      <trkpt lat="41.971138" lon="0.482207">
        <ele>759.110</ele>
        <time>2018-11-24T13:06:29Z</time>
      </trkpt>
      <trkpt lat="41.970881" lon="0.482062">
        <ele>757.308</ele>
        <time>2018-11-24T13:06:30Z</time>
      </trkpt>
      <trkpt lat="41.970607" lon="0.481931">
        <ele>755.797</ele>
        <time>2018-11-24T13:06:31Z</time>
      </trkpt>
      <trkpt lat="41.970329" lon="0.481834">
        <ele>753.774</ele>
        <time>2018-11-24T13:06:32Z</time>
      </trkpt>
      <trkpt lat="41.970058" lon="0.481761">
        <ele>752.291</ele>
        <time>2018-11-24T13:06:33Z</time>
      </trkpt>
      <trkpt lat="41.969795" lon="0.481686">
        <ele>750.392</ele>
        <time>2018-11-24T13:06:34Z</time>
      </trkpt>
      <trkpt lat="41.969528" lon="0.481619">
        <ele>748.780</ele>
        <time>2018-11-24T13:06:35Z</time>
      </trkpt>
      <trkpt lat="41.969262" lon="0.481547">
        <ele>747.152</ele>
        <time>2018-11-24T13:06:36Z</time>
      </trkpt>
      <trkpt lat="41.968998" lon="0.481485">
        <ele>745.645</ele>
        <time>2018-11-24T13:06:37Z</time>
      </trkpt>
      <trkpt lat="41.968734" lon="0.481417">
        <ele>744.259</ele>
        <time>2018-11-24T13:06:38Z</time>
      </trkpt>
      <trkpt lat="41.968469" lon="0.481354">
        <ele>742.596</ele>
        <time>2018-11-24T13:06:39Z</time>
      </trkpt>
      <trkpt lat="41.968206" lon="0.481287">
        <ele>741.031</ele>
        <time>2018-11-24T13:06:40Z</time>
      </trkpt>
      <trkpt lat="41.967943" lon="0.481218">
        <ele>739.124</ele>
        <time>2018-11-24T13:06:41Z</time>
      </trkpt>
      <trkpt lat="41.967680" lon="0.481149">
        <ele>737.608</ele>
        <time>2018-11-24T13:06:42Z</time>
      </trkpt>
      <trkpt lat="41.967418" lon="0.481083">
        <ele>735.952</ele>
        <time>2018-11-24T13:06:43Z</time>
      </trkpt>
      <trkpt lat="41.967157" lon="0.481015">
        <ele>734.499</ele>
        <time>2018-11-24T13:06:44Z</time>
      </trkpt>
      <trkpt lat="41.966895" lon="0.480947">
        <ele>732.816</ele>
        <time>2018-11-24T13:06:45Z</time>
      </trkpt>
      <trkpt lat="41.966634" lon="0.480881">
        <ele>731.377</ele>
        <time>2018-11-24T13:06:46Z</time>
      </trkpt>
      <trkpt lat="41.966374" lon="0.480816">
        <ele>729.675</ele>
        <time>2018-11-24T13:06:47Z</time>
      </trkpt>
      <trkpt lat="41.966114" lon="0.480749">
        <ele>728.077</ele>
        <time>2018-11-24T13:06:48Z</time>
      </trkpt>
      <trkpt lat="41.965854" lon="0.480682">
        <ele>726.440</ele>
        <time>2018-11-24T13:06:49Z</time>
      </trkpt>
      <trkpt lat="41.965595" lon="0.480613">
        <ele>724.524</ele>
        <time>2018-11-24T13:06:50Z</time>
      </trkpt>
      <trkpt lat="41.965338" lon="0.480538">
        <ele>722.728</ele>
        <time>2018-11-24T13:06:51Z</time>
      </trkpt>
      <trkpt lat="41.965083" lon="0.480447">
        <ele>720.889</ele>
        <time>2018-11-24T13:06:52Z</time>
      </trkpt>
      <trkpt lat="41.964835" lon="0.480335">
        <ele>719.517</ele>
        <time>2018-11-24T13:06:53Z</time>
      </trkpt>
      <trkpt lat="41.964593" lon="0.480201">
        <ele>717.908</ele>
        <time>2018-11-24T13:06:54Z</time>
      </trkpt>
      <trkpt lat="41.964357" lon="0.480047">
        <ele>716.395</ele>
        <time>2018-11-24T13:06:55Z</time>
      </trkpt>
      <trkpt lat="41.964130" lon="0.479872">
        <ele>715.032</ele>
        <time>2018-11-24T13:06:56Z</time>
      </trkpt>
      <trkpt lat="41.963914" lon="0.479675">
        <ele>713.169</ele>
        <time>2018-11-24T13:06:57Z</time>
      </trkpt>
      <trkpt lat="41.963708" lon="0.479460">
        <ele>711.560</ele>
        <time>2018-11-24T13:06:58Z</time>
      </trkpt>
      <trkpt lat="41.963513" lon="0.479230">
        <ele>709.668</ele>
        <time>2018-11-24T13:06:59Z</time>
      </trkpt>
      <trkpt lat="41.963328" lon="0.478984">
        <ele>708.080</ele>
        <time>2018-11-24T13:07:00Z</time>
      </trkpt>
      <trkpt lat="41.963155" lon="0.478722">
        <ele>706.073</ele>
        <time>2018-11-24T13:07:01Z</time>
      </trkpt>
      <trkpt lat="41.962984" lon="0.478464">
        <ele>704.357</ele>
        <time>2018-11-24T13:07:02Z</time>
      </trkpt>
      <trkpt lat="41.962822" lon="0.478191">
        <ele>702.127</ele>
        <time>2018-11-24T13:07:03Z</time>
      </trkpt>
      <trkpt lat="41.962655" lon="0.477912">
        <ele>700.468</ele>
        <time>2018-11-24T13:07:04Z</time>
      </trkpt>
      <trkpt lat="41.962493" lon="0.477635">
        <ele>698.214</ele>
        <time>2018-11-24T13:07:05Z</time>
      </trkpt>
      <trkpt lat="41.962327" lon="0.477360">
        <ele>696.308</ele>
        <time>2018-11-24T13:07:06Z</time>
      </trkpt>
      <trkpt lat="41.962162" lon="0.477082">
        <ele>694.475</ele>
        <time>2018-11-24T13:07:07Z</time>
      </trkpt>
      <trkpt lat="41.961996" lon="0.476803">
        <ele>692.042</ele>
        <time>2018-11-24T13:07:08Z</time>
      </trkpt>
      <trkpt lat="41.961826" lon="0.476524">
        <ele>690.119</ele>
        <time>2018-11-24T13:07:09Z</time>
      </trkpt>
      <trkpt lat="41.961656" lon="0.476242">
        <ele>688.040</ele>
        <time>2018-11-24T13:07:10Z</time>
      </trkpt>
      <trkpt lat="41.961486" lon="0.475958">
        <ele>686.378</ele>
        <time>2018-11-24T13:07:11Z</time>
      </trkpt>
      <trkpt lat="41.961314" lon="0.475677">
        <ele>684.220</ele>
        <time>2018-11-24T13:07:12Z</time>
      </trkpt>
      <trkpt lat="41.961140" lon="0.475398">
        <ele>682.383</ele>
        <time>2018-11-24T13:07:13Z</time>
      </trkpt>
      <trkpt lat="41.960964" lon="0.475127">
        <ele>680.397</ele>
        <time>2018-11-24T13:07:14Z</time>
      </trkpt>
      <trkpt lat="41.960787" lon="0.474862">
        <ele>677.817</ele>
        <time>2018-11-24T13:07:15Z</time>
      </trkpt>
      <trkpt lat="41.960608" lon="0.474598">
        <ele>675.887</ele>
        <time>2018-11-24T13:07:16Z</time>
      </trkpt>
      <trkpt lat="41.960427" lon="0.474334">
        <ele>673.415</ele>
        <time>2018-11-24T13:07:17Z</time>
      </trkpt>
      <trkpt lat="41.960241" lon="0.474073">
        <ele>671.508</ele>
        <time>2018-11-24T13:07:18Z</time>
      </trkpt>
      <trkpt lat="41.960051" lon="0.473816">
        <ele>669.484</ele>
        <time>2018-11-24T13:07:19Z</time>
      </trkpt>
      <trkpt lat="41.959857" lon="0.473564">
        <ele>667.311</ele>
        <time>2018-11-24T13:07:20Z</time>
      </trkpt>
      <trkpt lat="41.959661" lon="0.473315">
        <ele>665.498</ele>
        <time>2018-11-24T13:07:21Z</time>
      </trkpt>
      <trkpt lat="41.959461" lon="0.473069">
        <ele>663.129</ele>
        <time>2018-11-24T13:07:22Z</time>
      </trkpt>
      <trkpt lat="41.959256" lon="0.472828">
        <ele>661.467</ele>
        <time>2018-11-24T13:07:23Z</time>
      </trkpt>
      <trkpt lat="41.959048" lon="0.472593">
        <ele>659.229</ele>
        <time>2018-11-24T13:07:24Z</time>
      </trkpt>
      <trkpt lat="41.958837" lon="0.472361">
        <ele>657.522</ele>
        <time>2018-11-24T13:07:25Z</time>
      </trkpt>
      <trkpt lat="41.958624" lon="0.472129">
        <ele>655.316</ele>
        <time>2018-11-24T13:07:26Z</time>
      </trkpt>
      <trkpt lat="41.958412" lon="0.471898">
        <ele>653.499</ele>
        <time>2018-11-24T13:07:27Z</time>
      </trkpt>
      <trkpt lat="41.958199" lon="0.471663">
        <ele>651.007</ele>
        <time>2018-11-24T13:07:28Z</time>
      </trkpt>
      <trkpt lat="41.957986" lon="0.471426">
        <ele>648.627</ele>
        <time>2018-11-24T13:07:29Z</time>
      </trkpt>
      <trkpt lat="41.957773" lon="0.471189">
        <ele>648.308</ele>
        <time>2018-11-24T13:07:30Z</time>
      </trkpt>
      <trkpt lat="41.957559" lon="0.470953">
        <ele>644.832</ele>
        <time>2018-11-24T13:07:31Z</time>
      </trkpt>
      <trkpt lat="41.957343" lon="0.470718">
        <ele>642.339</ele>
        <time>2018-11-24T13:07:32Z</time>
      </trkpt>
      <trkpt lat="41.957127" lon="0.470483">
        <ele>640.186</ele>
        <time>2018-11-24T13:07:33Z</time>
      </trkpt>
      <trkpt lat="41.956910" lon="0.470248">
        <ele>638.157</ele>
        <time>2018-11-24T13:07:34Z</time>
      </trkpt>
      <trkpt lat="41.956695" lon="0.470011">
        <ele>635.885</ele>
        <time>2018-11-24T13:07:35Z</time>
      </trkpt>
      <trkpt lat="41.956479" lon="0.469772">
        <ele>633.947</ele>
        <time>2018-11-24T13:07:36Z</time>
      </trkpt>
      <trkpt lat="41.956263" lon="0.469532">
        <ele>631.820</ele>
        <time>2018-11-24T13:07:37Z</time>
      </trkpt>
      <trkpt lat="41.956046" lon="0.469292">
        <ele>629.654</ele>
        <time>2018-11-24T13:07:38Z</time>
      </trkpt>
      <trkpt lat="41.955829" lon="0.469051">
        <ele>627.116</ele>
        <time>2018-11-24T13:07:39Z</time>
      </trkpt>
      <trkpt lat="41.955615" lon="0.468813">
        <ele>624.876</ele>
        <time>2018-11-24T13:07:40Z</time>
      </trkpt>
      <trkpt lat="41.955408" lon="0.468586">
        <ele>622.513</ele>
        <time>2018-11-24T13:07:41Z</time>
      </trkpt>
      <trkpt lat="41.955210" lon="0.468369">
        <ele>619.708</ele>
        <time>2018-11-24T13:07:42Z</time>
      </trkpt>
      <trkpt lat="41.955021" lon="0.468163">
        <ele>617.344</ele>
        <time>2018-11-24T13:07:43Z</time>
      </trkpt>
      <trkpt lat="41.954841" lon="0.467966">
        <ele>614.841</ele>
        <time>2018-11-24T13:07:44Z</time>
      </trkpt>
      <trkpt lat="41.954661" lon="0.467769">
        <ele>613.398</ele>
        <time>2018-11-24T13:07:45Z</time>
      </trkpt>
      <trkpt lat="41.954480" lon="0.467571">
        <ele>611.569</ele>
        <time>2018-11-24T13:07:46Z</time>
      </trkpt>
      <trkpt lat="41.954298" lon="0.467371">
        <ele>609.697</ele>
        <time>2018-11-24T13:07:47Z</time>
      </trkpt>
      <trkpt lat="41.954115" lon="0.467171">
        <ele>607.849</ele>
        <time>2018-11-24T13:07:48Z</time>
      </trkpt>
      <trkpt lat="41.953932" lon="0.466969">
        <ele>606.292</ele>
        <time>2018-11-24T13:07:49Z</time>
      </trkpt>
      <trkpt lat="41.953747" lon="0.466766">
        <ele>604.286</ele>
        <time>2018-11-24T13:07:50Z</time>
      </trkpt>
      <trkpt lat="41.953561" lon="0.466562">
        <ele>602.289</ele>
        <time>2018-11-24T13:07:51Z</time>
      </trkpt>
      <trkpt lat="41.953375" lon="0.466357">
        <ele>600.606</ele>
        <time>2018-11-24T13:07:52Z</time>
      </trkpt>
      <trkpt lat="41.953189" lon="0.466151">
        <ele>598.726</ele>
        <time>2018-11-24T13:07:53Z</time>
      </trkpt>
      <trkpt lat="41.953003" lon="0.465946">
        <ele>597.108</ele>
        <time>2018-11-24T13:07:54Z</time>
      </trkpt>
      <trkpt lat="41.952815" lon="0.465740">
        <ele>595.351</ele>
        <time>2018-11-24T13:07:55Z</time>
      </trkpt>
      <trkpt lat="41.952627" lon="0.465533">
        <ele>593.918</ele>
        <time>2018-11-24T13:07:56Z</time>
      </trkpt>
      <trkpt lat="41.952439" lon="0.465326">
        <ele>591.885</ele>
        <time>2018-11-24T13:07:57Z</time>
      </trkpt>
      <trkpt lat="41.952251" lon="0.465118">
        <ele>590.186</ele>
        <time>2018-11-24T13:07:58Z</time>
      </trkpt>
      <trkpt lat="41.952063" lon="0.464910">
        <ele>588.254</ele>
        <time>2018-11-24T13:07:59Z</time>
      </trkpt>
      <trkpt lat="41.951876" lon="0.464702">
        <ele>586.576</ele>
        <time>2018-11-24T13:08:00Z</time>
      </trkpt>
      <trkpt lat="41.951688" lon="0.464496">
        <ele>584.879</ele>
        <time>2018-11-24T13:08:01Z</time>
      </trkpt>
      <trkpt lat="41.951500" lon="0.464291">
        <ele>584.353</ele>
        <time>2018-11-24T13:08:02Z</time>
      </trkpt>
      <trkpt lat="41.951311" lon="0.464088">
        <ele>582.193</ele>
        <time>2018-11-24T13:08:03Z</time>
      </trkpt>
      <trkpt lat="41.951119" lon="0.463892">
        <ele>580.565</ele>
        <time>2018-11-24T13:08:04Z</time>
      </trkpt>
      <trkpt lat="41.950923" lon="0.463705">
        <ele>579.121</ele>
        <time>2018-11-24T13:08:05Z</time>
      </trkpt>
      <trkpt lat="41.950718" lon="0.463536">
        <ele>577.908</ele>
        <time>2018-11-24T13:08:06Z</time>
      </trkpt>
      <trkpt lat="41.950506" lon="0.463386">
        <ele>576.882</ele>
        <time>2018-11-24T13:08:07Z</time>
      </trkpt>
      <trkpt lat="41.950289" lon="0.463257">
        <ele>575.489</ele>
        <time>2018-11-24T13:08:08Z</time>
      </trkpt>
      <trkpt lat="41.950068" lon="0.463141">
        <ele>574.576</ele>
        <time>2018-11-24T13:08:09Z</time>
      </trkpt>
      <trkpt lat="41.949838" lon="0.463049">
        <ele>573.457</ele>
        <time>2018-11-24T13:08:10Z</time>
      </trkpt>
      <trkpt lat="41.949611" lon="0.462986">
        <ele>572.415</ele>
        <time>2018-11-24T13:08:11Z</time>
      </trkpt>
      <trkpt lat="41.949386" lon="0.462938">
        <ele>571.797</ele>
        <time>2018-11-24T13:08:12Z</time>
      </trkpt>
      <trkpt lat="41.949160" lon="0.462914">
        <ele>570.790</ele>
        <time>2018-11-24T13:08:13Z</time>
      </trkpt>
      <trkpt lat="41.948938" lon="0.462904">
        <ele>570.064</ele>
        <time>2018-11-24T13:08:14Z</time>
      </trkpt>
      <trkpt lat="41.948720" lon="0.462907">
        <ele>569.455</ele>
        <time>2018-11-24T13:08:15Z</time>
      </trkpt>
      <trkpt lat="41.948500" lon="0.462936">
        <ele>568.807</ele>
        <time>2018-11-24T13:08:16Z</time>
      </trkpt>
      <trkpt lat="41.948281" lon="0.462980">
        <ele>568.517</ele>
        <time>2018-11-24T13:08:17Z</time>
      </trkpt>
      <trkpt lat="41.948063" lon="0.463045">
        <ele>568.208</ele>
        <time>2018-11-24T13:08:18Z</time>
      </trkpt>
      <trkpt lat="41.947843" lon="0.463128">
        <ele>567.988</ele>
        <time>2018-11-24T13:08:19Z</time>
      </trkpt>
      <trkpt lat="41.947627" lon="0.463228">
        <ele>567.425</ele>
        <time>2018-11-24T13:08:20Z</time>
      </trkpt>
      <trkpt lat="41.947412" lon="0.463351">
        <ele>567.192</ele>
        <time>2018-11-24T13:08:21Z</time>
      </trkpt>
      <trkpt lat="41.947199" lon="0.463493">
        <ele>566.773</ele>
        <time>2018-11-24T13:08:22Z</time>
      </trkpt>
      <trkpt lat="41.946988" lon="0.463645">
        <ele>566.571</ele>
        <time>2018-11-24T13:08:23Z</time>
      </trkpt>
      <trkpt lat="41.946776" lon="0.463804">
        <ele>566.293</ele>
        <time>2018-11-24T13:08:24Z</time>
      </trkpt>
      <trkpt lat="41.946565" lon="0.463965">
        <ele>565.836</ele>
        <time>2018-11-24T13:08:25Z</time>
      </trkpt>
      <trkpt lat="41.946351" lon="0.464128">
        <ele>565.350</ele>
        <time>2018-11-24T13:08:26Z</time>
      </trkpt>
      <trkpt lat="41.946140" lon="0.464289">
        <ele>564.981</ele>
        <time>2018-11-24T13:08:27Z</time>
      </trkpt>
      <trkpt lat="41.945932" lon="0.464448">
        <ele>564.461</ele>
        <time>2018-11-24T13:08:28Z</time>
      </trkpt>
      <trkpt lat="41.945717" lon="0.464614">
        <ele>564.017</ele>
        <time>2018-11-24T13:08:29Z</time>
      </trkpt>
      <trkpt lat="41.945504" lon="0.464767">
        <ele>563.708</ele>
        <time>2018-11-24T13:08:30Z</time>
      </trkpt>
      <trkpt lat="41.945285" lon="0.464907">
        <ele>563.381</ele>
        <time>2018-11-24T13:08:31Z</time>
      </trkpt>
      <trkpt lat="41.945068" lon="0.465044">
        <ele>563.068</ele>
        <time>2018-11-24T13:08:32Z</time>
      </trkpt>
      <trkpt lat="41.944839" lon="0.465133">
        <ele>562.365</ele>
        <time>2018-11-24T13:08:33Z</time>
      </trkpt>
      <trkpt lat="41.944601" lon="0.465210">
        <ele>561.666</ele>
        <time>2018-11-24T13:08:34Z</time>
      </trkpt>
      <trkpt lat="41.944366" lon="0.465277">
        <ele>560.914</ele>
        <time>2018-11-24T13:08:35Z</time>
      </trkpt>
      <trkpt lat="41.944130" lon="0.465337">
        <ele>560.286</ele>
        <time>2018-11-24T13:08:36Z</time>
      </trkpt>
      <trkpt lat="41.943893" lon="0.465397">
        <ele>559.799</ele>
        <time>2018-11-24T13:08:37Z</time>
      </trkpt>
      <trkpt lat="41.943657" lon="0.465454">
        <ele>559.023</ele>
        <time>2018-11-24T13:08:38Z</time>
      </trkpt>
      <trkpt lat="41.943421" lon="0.465507">
        <ele>558.559</ele>
        <time>2018-11-24T13:08:39Z</time>
      </trkpt>
      <trkpt lat="41.943184" lon="0.465560">
        <ele>557.703</ele>
        <time>2018-11-24T13:08:40Z</time>
      </trkpt>
      <trkpt lat="41.942946" lon="0.465611">
        <ele>557.223</ele>
        <time>2018-11-24T13:08:41Z</time>
      </trkpt>
      <trkpt lat="41.942709" lon="0.465656">
        <ele>556.608</ele>
        <time>2018-11-24T13:08:42Z</time>
      </trkpt>
      <trkpt lat="41.942473" lon="0.465690">
        <ele>555.748</ele>
        <time>2018-11-24T13:08:43Z</time>
      </trkpt>
      <trkpt lat="41.942233" lon="0.465699">
        <ele>554.995</ele>
        <time>2018-11-24T13:08:44Z</time>
      </trkpt>
      <trkpt lat="41.941993" lon="0.465687">
        <ele>554.482</ele>
        <time>2018-11-24T13:08:45Z</time>
      </trkpt>
      <trkpt lat="41.941754" lon="0.465663">
        <ele>553.913</ele>
        <time>2018-11-24T13:08:46Z</time>
      </trkpt>
      <trkpt lat="41.941514" lon="0.465635">
        <ele>553.131</ele>
        <time>2018-11-24T13:08:47Z</time>
      </trkpt>
      <trkpt lat="41.941274" lon="0.465607">
        <ele>552.553</ele>
        <time>2018-11-24T13:08:48Z</time>
      </trkpt>
      <trkpt lat="41.941034" lon="0.465580">
        <ele>551.836</ele>
        <time>2018-11-24T13:08:49Z</time>
      </trkpt>
      <trkpt lat="41.940794" lon="0.465550">
        <ele>551.290</ele>
        <time>2018-11-24T13:08:50Z</time>
      </trkpt>
      <trkpt lat="41.940554" lon="0.465520">
        <ele>550.844</ele>
        <time>2018-11-24T13:08:51Z</time>
      </trkpt>
      <trkpt lat="41.940315" lon="0.465490">
        <ele>550.705</ele>
        <time>2018-11-24T13:08:52Z</time>
      </trkpt>
      <trkpt lat="41.940076" lon="0.465462">
        <ele>550.015</ele>
        <time>2018-11-24T13:08:53Z</time>
      </trkpt>
      <trkpt lat="41.939838" lon="0.465432">
        <ele>549.508</ele>
        <time>2018-11-24T13:08:54Z</time>
      </trkpt>
      <trkpt lat="41.939599" lon="0.465403">
        <ele>548.877</ele>
        <time>2018-11-24T13:08:55Z</time>
      </trkpt>
      <trkpt lat="41.939359" lon="0.465373">
        <ele>548.214</ele>
        <time>2018-11-24T13:08:56Z</time>
      </trkpt>
      <trkpt lat="41.939120" lon="0.465342">
        <ele>547.861</ele>
        <time>2018-11-24T13:08:57Z</time>
      </trkpt>
      <trkpt lat="41.938881" lon="0.465311">
        <ele>547.252</ele>
        <time>2018-11-24T13:08:58Z</time>
      </trkpt>
      <trkpt lat="41.938642" lon="0.465281">
        <ele>546.590</ele>
        <time>2018-11-24T13:08:59Z</time>
      </trkpt>
      <trkpt lat="41.938402" lon="0.465251">
        <ele>545.782</ele>
        <time>2018-11-24T13:09:00Z</time>
      </trkpt>
      <trkpt lat="41.938163" lon="0.465220">
        <ele>545.035</ele>
        <time>2018-11-24T13:09:01Z</time>
      </trkpt>
      <trkpt lat="41.937924" lon="0.465189">
        <ele>544.489</ele>
        <time>2018-11-24T13:09:02Z</time>
      </trkpt>
      <trkpt lat="41.937685" lon="0.465158">
        <ele>543.838</ele>
        <time>2018-11-24T13:09:03Z</time>
      </trkpt>
      <trkpt lat="41.937446" lon="0.465129">
        <ele>543.070</ele>
        <time>2018-11-24T13:09:04Z</time>
      </trkpt>
      <trkpt lat="41.937207" lon="0.465100">
        <ele>542.417</ele>
        <time>2018-11-24T13:09:05Z</time>
      </trkpt>
      <trkpt lat="41.936968" lon="0.465070">
        <ele>541.908</ele>
        <time>2018-11-24T13:09:06Z</time>
      </trkpt>
      <trkpt lat="41.936729" lon="0.465040">
        <ele>541.516</ele>
        <time>2018-11-24T13:09:07Z</time>
      </trkpt>
      <trkpt lat="41.936490" lon="0.465010">
        <ele>541.313</ele>
        <time>2018-11-24T13:09:08Z</time>
      </trkpt>
      <trkpt lat="41.936256" lon="0.464979">
        <ele>541.050</ele>
        <time>2018-11-24T13:09:09Z</time>
      </trkpt>
      <trkpt lat="41.936018" lon="0.464946">
        <ele>540.721</ele>
        <time>2018-11-24T13:09:10Z</time>
      </trkpt>
      <trkpt lat="41.935780" lon="0.464913">
        <ele>540.539</ele>
        <time>2018-11-24T13:09:11Z</time>
      </trkpt>
      <trkpt lat="41.935542" lon="0.464880">
        <ele>540.161</ele>
        <time>2018-11-24T13:09:12Z</time>
      </trkpt>
      <trkpt lat="41.935303" lon="0.464845">
        <ele>539.714</ele>
        <time>2018-11-24T13:09:13Z</time>
      </trkpt>
      <trkpt lat="41.935065" lon="0.464810">
        <ele>540.048</ele>
        <time>2018-11-24T13:09:14Z</time>
      </trkpt>
      <trkpt lat="41.934828" lon="0.464780">
        <ele>540.081</ele>
        <time>2018-11-24T13:09:15Z</time>
      </trkpt>
      <trkpt lat="41.934593" lon="0.464745">
        <ele>539.361</ele>
        <time>2018-11-24T13:09:16Z</time>
      </trkpt>
      <trkpt lat="41.934362" lon="0.464717">
        <ele>538.917</ele>
        <time>2018-11-24T13:09:17Z</time>
      </trkpt>
      <trkpt lat="41.934134" lon="0.464693">
        <ele>538.208</ele>
        <time>2018-11-24T13:09:18Z</time>
      </trkpt>
      <trkpt lat="41.933907" lon="0.464672">
        <ele>537.641</ele>
        <time>2018-11-24T13:09:19Z</time>
      </trkpt>
      <trkpt lat="41.933686" lon="0.464655">
        <ele>537.238</ele>
        <time>2018-11-24T13:09:20Z</time>
      </trkpt>
      <trkpt lat="41.933468" lon="0.464664">
        <ele>536.865</ele>
        <time>2018-11-24T13:09:21Z</time>
      </trkpt>
      <trkpt lat="41.933253" lon="0.464704">
        <ele>536.436</ele>
        <time>2018-11-24T13:09:22Z</time>
      </trkpt>
      <trkpt lat="41.933035" lon="0.464767">
        <ele>535.834</ele>
        <time>2018-11-24T13:09:23Z</time>
      </trkpt>
      <trkpt lat="41.932817" lon="0.464851">
        <ele>535.466</ele>
        <time>2018-11-24T13:09:24Z</time>
      </trkpt>
      <trkpt lat="41.932596" lon="0.464951">
        <ele>535.279</ele>
        <time>2018-11-24T13:09:25Z</time>
      </trkpt>
      <trkpt lat="41.932375" lon="0.465054">
        <ele>534.823</ele>
        <time>2018-11-24T13:09:26Z</time>
      </trkpt>
      <trkpt lat="41.932155" lon="0.465155">
        <ele>534.052</ele>
        <time>2018-11-24T13:09:27Z</time>
      </trkpt>
      <trkpt lat="41.931934" lon="0.465256">
        <ele>533.553</ele>
        <time>2018-11-24T13:09:28Z</time>
      </trkpt>
      <trkpt lat="41.931713" lon="0.465349">
        <ele>532.808</ele>
        <time>2018-11-24T13:09:29Z</time>
      </trkpt>
      <trkpt lat="41.931485" lon="0.465413">
        <ele>532.008</ele>
        <time>2018-11-24T13:09:30Z</time>
      </trkpt>
      <trkpt lat="41.931256" lon="0.465452">
        <ele>531.328</ele>
        <time>2018-11-24T13:09:31Z</time>
      </trkpt>
      <trkpt lat="41.931025" lon="0.465483">
        <ele>530.955</ele>
        <time>2018-11-24T13:09:32Z</time>
      </trkpt>
      <trkpt lat="41.930793" lon="0.465514">
        <ele>530.622</ele>
        <time>2018-11-24T13:09:33Z</time>
      </trkpt>
      <trkpt lat="41.930561" lon="0.465547">
        <ele>530.073</ele>
        <time>2018-11-24T13:09:34Z</time>
      </trkpt>
      <trkpt lat="41.930327" lon="0.465580">
        <ele>529.531</ele>
        <time>2018-11-24T13:09:35Z</time>
      </trkpt>
      <trkpt lat="41.930094" lon="0.465613">
        <ele>528.943</ele>
        <time>2018-11-24T13:09:36Z</time>
      </trkpt>
      <trkpt lat="41.929861" lon="0.465645">
        <ele>528.396</ele>
        <time>2018-11-24T13:09:37Z</time>
      </trkpt>
      <trkpt lat="41.929629" lon="0.465677">
        <ele>527.530</ele>
        <time>2018-11-24T13:09:38Z</time>
      </trkpt>
      <trkpt lat="41.929397" lon="0.465711">
        <ele>526.897</ele>
        <time>2018-11-24T13:09:39Z</time>
      </trkpt>
      <trkpt lat="41.929166" lon="0.465747">
        <ele>526.123</ele>
        <time>2018-11-24T13:09:40Z</time>
      </trkpt>
      <trkpt lat="41.928935" lon="0.465783">
        <ele>525.425</ele>
        <time>2018-11-24T13:09:41Z</time>
      </trkpt>
      <trkpt lat="41.928703" lon="0.465818">
        <ele>524.808</ele>
        <time>2018-11-24T13:09:42Z</time>
      </trkpt>
      <trkpt lat="41.928473" lon="0.465858">
        <ele>524.332</ele>
        <time>2018-11-24T13:09:43Z</time>
      </trkpt>
      <trkpt lat="41.928244" lon="0.465904">
        <ele>523.879</ele>
        <time>2018-11-24T13:09:44Z</time>
      </trkpt>
      <trkpt lat="41.928015" lon="0.465961">
        <ele>523.336</ele>
        <time>2018-11-24T13:09:45Z</time>
      </trkpt>
      <trkpt lat="41.927788" lon="0.466026">
        <ele>522.847</ele>
        <time>2018-11-24T13:09:46Z</time>
      </trkpt>
      <trkpt lat="41.927562" lon="0.466100">
        <ele>522.265</ele>
        <time>2018-11-24T13:09:47Z</time>
      </trkpt>
      <trkpt lat="41.927337" lon="0.466180">
        <ele>521.217</ele>
        <time>2018-11-24T13:09:48Z</time>
      </trkpt>
      <trkpt lat="41.927112" lon="0.466263">
        <ele>520.290</ele>
        <time>2018-11-24T13:09:49Z</time>
      </trkpt>
      <trkpt lat="41.926886" lon="0.466344">
        <ele>519.314</ele>
        <time>2018-11-24T13:09:50Z</time>
      </trkpt>
      <trkpt lat="41.926660" lon="0.466420">
        <ele>518.577</ele>
        <time>2018-11-24T13:09:51Z</time>
      </trkpt>
      <trkpt lat="41.926433" lon="0.466489">
        <ele>517.461</ele>
        <time>2018-11-24T13:09:52Z</time>
      </trkpt>
      <trkpt lat="41.926205" lon="0.466549">
        <ele>516.427</ele>
        <time>2018-11-24T13:09:53Z</time>
      </trkpt>
      <trkpt lat="41.925977" lon="0.466602">
        <ele>515.208</ele>
        <time>2018-11-24T13:09:54Z</time>
      </trkpt>
      <trkpt lat="41.925748" lon="0.466653">
        <ele>514.130</ele>
        <time>2018-11-24T13:09:55Z</time>
      </trkpt>
      <trkpt lat="41.925519" lon="0.466705">
        <ele>513.137</ele>
        <time>2018-11-24T13:09:56Z</time>
      </trkpt>
      <trkpt lat="41.925291" lon="0.466758">
        <ele>511.964</ele>
        <time>2018-11-24T13:09:57Z</time>
      </trkpt>
      <trkpt lat="41.925063" lon="0.466812">
        <ele>510.925</ele>
        <time>2018-11-24T13:09:58Z</time>
      </trkpt>
      <trkpt lat="41.924835" lon="0.466865">
        <ele>510.013</ele>
        <time>2018-11-24T13:09:59Z</time>
      </trkpt>
      <trkpt lat="41.924607" lon="0.466918">
        <ele>509.795</ele>
        <time>2018-11-24T13:10:00Z</time>
      </trkpt>
      <trkpt lat="41.924378" lon="0.466972">
        <ele>508.838</ele>
        <time>2018-11-24T13:10:01Z</time>
      </trkpt>
      <trkpt lat="41.924150" lon="0.467031">
        <ele>508.022</ele>
        <time>2018-11-24T13:10:02Z</time>
      </trkpt>
      <trkpt lat="41.923924" lon="0.467091">
        <ele>507.323</ele>
        <time>2018-11-24T13:10:03Z</time>
      </trkpt>
      <trkpt lat="41.923697" lon="0.467159">
        <ele>506.883</ele>
        <time>2018-11-24T13:10:04Z</time>
      </trkpt>
      <trkpt lat="41.923466" lon="0.467222">
        <ele>506.011</ele>
        <time>2018-11-24T13:10:05Z</time>
      </trkpt>
      <trkpt lat="41.923239" lon="0.467291">
        <ele>505.208</ele>
        <time>2018-11-24T13:10:06Z</time>
      </trkpt>
      <trkpt lat="41.923014" lon="0.467369">
        <ele>504.625</ele>
        <time>2018-11-24T13:10:07Z</time>
      </trkpt>
      <trkpt lat="41.922789" lon="0.467447">
        <ele>503.882</ele>
        <time>2018-11-24T13:10:08Z</time>
      </trkpt>
      <trkpt lat="41.922563" lon="0.467524">
        <ele>503.229</ele>
        <time>2018-11-24T13:10:09Z</time>
      </trkpt>
      <trkpt lat="41.922338" lon="0.467602">
        <ele>502.610</ele>
        <time>2018-11-24T13:10:10Z</time>
      </trkpt>
      <trkpt lat="41.922113" lon="0.467680">
        <ele>501.948</ele>
        <time>2018-11-24T13:10:11Z</time>
      </trkpt>
      <trkpt lat="41.921889" lon="0.467756">
        <ele>501.160</ele>
        <time>2018-11-24T13:10:12Z</time>
      </trkpt>
      <trkpt lat="41.921665" lon="0.467832">
        <ele>500.423</ele>
        <time>2018-11-24T13:10:13Z</time>
      </trkpt>
      <trkpt lat="41.921441" lon="0.467910">
        <ele>500.047</ele>
        <time>2018-11-24T13:10:14Z</time>
      </trkpt>
      <trkpt lat="41.921216" lon="0.467990">
        <ele>499.623</ele>
        <time>2018-11-24T13:10:15Z</time>
      </trkpt>
      <trkpt lat="41.920992" lon="0.468069">
        <ele>498.983</ele>
        <time>2018-11-24T13:10:16Z</time>
      </trkpt>
      <trkpt lat="41.920768" lon="0.468147">
        <ele>498.211</ele>
        <time>2018-11-24T13:10:17Z</time>
      </trkpt>
      <trkpt lat="41.920544" lon="0.468227">
        <ele>497.608</ele>
        <time>2018-11-24T13:10:18Z</time>
      </trkpt>
      <trkpt lat="41.920319" lon="0.468308">
        <ele>496.735</ele>
        <time>2018-11-24T13:10:19Z</time>
      </trkpt>
      <trkpt lat="41.920094" lon="0.468386">
        <ele>496.332</ele>
        <time>2018-11-24T13:10:20Z</time>
      </trkpt>
      <trkpt lat="41.919868" lon="0.468467">
        <ele>495.779</ele>
        <time>2018-11-24T13:10:21Z</time>
      </trkpt>
      <trkpt lat="41.919643" lon="0.468545">
        <ele>495.390</ele>
        <time>2018-11-24T13:10:22Z</time>
      </trkpt>
      <trkpt lat="41.919418" lon="0.468623">
        <ele>494.858</ele>
        <time>2018-11-24T13:10:23Z</time>
      </trkpt>
      <trkpt lat="41.919193" lon="0.468704">
        <ele>494.460</ele>
        <time>2018-11-24T13:10:24Z</time>
      </trkpt>
      <trkpt lat="41.918968" lon="0.468786">
        <ele>493.793</ele>
        <time>2018-11-24T13:10:25Z</time>
      </trkpt>
      <trkpt lat="41.918743" lon="0.468867">
        <ele>493.117</ele>
        <time>2018-11-24T13:10:26Z</time>
      </trkpt>
      <trkpt lat="41.918518" lon="0.468946">
        <ele>492.551</ele>
        <time>2018-11-24T13:10:27Z</time>
      </trkpt>
      <trkpt lat="41.918294" lon="0.469027">
        <ele>492.101</ele>
        <time>2018-11-24T13:10:28Z</time>
      </trkpt>
      <trkpt lat="41.918070" lon="0.469108">
        <ele>491.611</ele>
        <time>2018-11-24T13:10:29Z</time>
      </trkpt>
      <trkpt lat="41.917845" lon="0.469189">
        <ele>490.808</ele>
        <time>2018-11-24T13:10:30Z</time>
      </trkpt>
      <trkpt lat="41.917621" lon="0.469270">
        <ele>490.418</ele>
        <time>2018-11-24T13:10:31Z</time>
      </trkpt>
      <trkpt lat="41.917397" lon="0.469350">
        <ele>490.255</ele>
        <time>2018-11-24T13:10:32Z</time>
      </trkpt>
      <trkpt lat="41.917172" lon="0.469430">
        <ele>490.042</ele>
        <time>2018-11-24T13:10:33Z</time>
      </trkpt>
      <trkpt lat="41.916947" lon="0.469508">
        <ele>489.563</ele>
        <time>2018-11-24T13:10:34Z</time>
      </trkpt>
      <trkpt lat="41.916722" lon="0.469587">
        <ele>488.971</ele>
        <time>2018-11-24T13:10:35Z</time>
      </trkpt>
      <trkpt lat="41.916497" lon="0.469666">
        <ele>488.623</ele>
        <time>2018-11-24T13:10:36Z</time>
      </trkpt>
      <trkpt lat="41.916272" lon="0.469746">
        <ele>488.036</ele>
        <time>2018-11-24T13:10:37Z</time>
      </trkpt>
      <trkpt lat="41.916047" lon="0.469826">
        <ele>487.880</ele>
        <time>2018-11-24T13:10:38Z</time>
      </trkpt>
      <trkpt lat="41.915822" lon="0.469906">
        <ele>487.199</ele>
        <time>2018-11-24T13:10:39Z</time>
      </trkpt>
      <trkpt lat="41.915598" lon="0.469985">
        <ele>486.407</ele>
        <time>2018-11-24T13:10:40Z</time>
      </trkpt>
      <trkpt lat="41.915373" lon="0.470064">
        <ele>486.027</ele>
        <time>2018-11-24T13:10:41Z</time>
      </trkpt>
      <trkpt lat="41.915148" lon="0.470143">
        <ele>485.408</ele>
        <time>2018-11-24T13:10:42Z</time>
      </trkpt>
      <trkpt lat="41.914921" lon="0.470226">
        <ele>484.882</ele>
        <time>2018-11-24T13:10:43Z</time>
      </trkpt>
      <trkpt lat="41.914697" lon="0.470303">
        <ele>484.179</ele>
        <time>2018-11-24T13:10:44Z</time>
      </trkpt>
      <trkpt lat="41.914472" lon="0.470385">
        <ele>483.936</ele>
        <time>2018-11-24T13:10:45Z</time>
      </trkpt>
      <trkpt lat="41.914245" lon="0.470463">
        <ele>483.767</ele>
        <time>2018-11-24T13:10:46Z</time>
      </trkpt>
      <trkpt lat="41.914020" lon="0.470539">
        <ele>483.345</ele>
        <time>2018-11-24T13:10:47Z</time>
      </trkpt>
      <trkpt lat="41.913795" lon="0.470620">
        <ele>482.647</ele>
        <time>2018-11-24T13:10:48Z</time>
      </trkpt>
      <trkpt lat="41.913568" lon="0.470699">
        <ele>482.230</ele>
        <time>2018-11-24T13:10:49Z</time>
      </trkpt>
      <trkpt lat="41.913343" lon="0.470781">
        <ele>481.424</ele>
        <time>2018-11-24T13:10:50Z</time>
      </trkpt>
      <trkpt lat="41.913120" lon="0.470861">
        <ele>481.067</ele>
        <time>2018-11-24T13:10:51Z</time>
      </trkpt>
      <trkpt lat="41.912896" lon="0.470941">
        <ele>480.581</ele>
        <time>2018-11-24T13:10:52Z</time>
      </trkpt>
      <trkpt lat="41.912671" lon="0.471021">
        <ele>479.819</ele>
        <time>2018-11-24T13:10:53Z</time>
      </trkpt>
      <trkpt lat="41.912445" lon="0.471098">
        <ele>479.208</ele>
        <time>2018-11-24T13:10:54Z</time>
      </trkpt>
      <trkpt lat="41.912218" lon="0.471177">
        <ele>478.729</ele>
        <time>2018-11-24T13:10:55Z</time>
      </trkpt>
      <trkpt lat="41.911993" lon="0.471257">
        <ele>478.146</ele>
        <time>2018-11-24T13:10:56Z</time>
      </trkpt>
      <trkpt lat="41.911769" lon="0.471340">
        <ele>477.463</ele>
        <time>2018-11-24T13:10:57Z</time>
      </trkpt>
      <trkpt lat="41.911543" lon="0.471420">
        <ele>476.854</ele>
        <time>2018-11-24T13:10:58Z</time>
      </trkpt>
      <trkpt lat="41.911319" lon="0.471501">
        <ele>476.592</ele>
        <time>2018-11-24T13:10:59Z</time>
      </trkpt>
      <trkpt lat="41.911095" lon="0.471583">
        <ele>476.134</ele>
        <time>2018-11-24T13:11:00Z</time>
      </trkpt>
      <trkpt lat="41.910871" lon="0.471662">
        <ele>475.827</ele>
        <time>2018-11-24T13:11:01Z</time>
      </trkpt>
      <trkpt lat="41.910647" lon="0.471743">
        <ele>475.481</ele>
        <time>2018-11-24T13:11:02Z</time>
      </trkpt>
      <trkpt lat="41.910422" lon="0.471822">
        <ele>474.962</ele>
        <time>2018-11-24T13:11:03Z</time>
      </trkpt>
      <trkpt lat="41.910196" lon="0.471901">
        <ele>474.183</ele>
        <time>2018-11-24T13:11:04Z</time>
      </trkpt>
      <trkpt lat="41.909971" lon="0.471981">
        <ele>473.811</ele>
        <time>2018-11-24T13:11:05Z</time>
      </trkpt>
      <trkpt lat="41.909746" lon="0.472062">
        <ele>473.108</ele>
        <time>2018-11-24T13:11:06Z</time>
      </trkpt>
      <trkpt lat="41.909522" lon="0.472142">
        <ele>472.689</ele>
        <time>2018-11-24T13:11:07Z</time>
      </trkpt>
      <trkpt lat="41.909298" lon="0.472223">
        <ele>472.446</ele>
        <time>2018-11-24T13:11:08Z</time>
      </trkpt>
      <trkpt lat="41.909074" lon="0.472303">
        <ele>471.973</ele>
        <time>2018-11-24T13:11:09Z</time>
      </trkpt>
      <trkpt lat="41.908850" lon="0.472385">
        <ele>471.364</ele>
        <time>2018-11-24T13:11:10Z</time>
      </trkpt>
      <trkpt lat="41.908627" lon="0.472469">
        <ele>470.812</ele>
        <time>2018-11-24T13:11:11Z</time>
      </trkpt>
      <trkpt lat="41.908405" lon="0.472563">
        <ele>470.414</ele>
        <time>2018-11-24T13:11:12Z</time>
      </trkpt>
      <trkpt lat="41.908187" lon="0.472668">
        <ele>469.777</ele>
        <time>2018-11-24T13:11:13Z</time>
      </trkpt>
      <trkpt lat="41.907973" lon="0.472787">
        <ele>469.061</ele>
        <time>2018-11-24T13:11:14Z</time>
      </trkpt>
      <trkpt lat="41.907764" lon="0.472922">
        <ele>468.581</ele>
        <time>2018-11-24T13:11:15Z</time>
      </trkpt>
      <trkpt lat="41.907560" lon="0.473073">
        <ele>467.961</ele>
        <time>2018-11-24T13:11:16Z</time>
      </trkpt>
      <trkpt lat="41.907363" lon="0.473240">
        <ele>467.617</ele>
        <time>2018-11-24T13:11:17Z</time>
      </trkpt>
      <trkpt lat="41.907165" lon="0.473406">
        <ele>467.208</ele>
        <time>2018-11-24T13:11:18Z</time>
      </trkpt>
      <trkpt lat="41.906972" lon="0.473582">
        <ele>466.781</ele>
        <time>2018-11-24T13:11:19Z</time>
      </trkpt>
      <trkpt lat="41.906780" lon="0.473765">
        <ele>466.338</ele>
        <time>2018-11-24T13:11:20Z</time>
      </trkpt>
      <trkpt lat="41.906587" lon="0.473947">
        <ele>465.715</ele>
        <time>2018-11-24T13:11:21Z</time>
      </trkpt>
      <trkpt lat="41.906398" lon="0.474132">
        <ele>465.146</ele>
        <time>2018-11-24T13:11:22Z</time>
      </trkpt>
      <trkpt lat="41.906209" lon="0.474314">
        <ele>464.334</ele>
        <time>2018-11-24T13:11:23Z</time>
      </trkpt>
      <trkpt lat="41.906023" lon="0.474504">
        <ele>463.886</ele>
        <time>2018-11-24T13:11:24Z</time>
      </trkpt>
      <trkpt lat="41.905835" lon="0.474687">
        <ele>463.479</ele>
        <time>2018-11-24T13:11:25Z</time>
      </trkpt>
      <trkpt lat="41.905649" lon="0.474876">
        <ele>463.063</ele>
        <time>2018-11-24T13:11:26Z</time>
      </trkpt>
      <trkpt lat="41.905461" lon="0.475064">
        <ele>462.477</ele>
        <time>2018-11-24T13:11:27Z</time>
      </trkpt>
      <trkpt lat="41.905274" lon="0.475250">
        <ele>461.861</ele>
        <time>2018-11-24T13:11:28Z</time>
      </trkpt>
      <trkpt lat="41.905089" lon="0.475437">
        <ele>461.227</ele>
        <time>2018-11-24T13:11:29Z</time>
      </trkpt>
      <trkpt lat="41.904904" lon="0.475622">
        <ele>460.808</ele>
        <time>2018-11-24T13:11:30Z</time>
      </trkpt>
      <trkpt lat="41.904719" lon="0.475809">
        <ele>460.540</ele>
        <time>2018-11-24T13:11:31Z</time>
      </trkpt>
      <trkpt lat="41.904535" lon="0.475996">
        <ele>460.147</ele>
        <time>2018-11-24T13:11:32Z</time>
      </trkpt>
      <trkpt lat="41.904348" lon="0.476181">
        <ele>459.514</ele>
        <time>2018-11-24T13:11:33Z</time>
      </trkpt>
      <trkpt lat="41.904162" lon="0.476365">
        <ele>459.255</ele>
        <time>2018-11-24T13:11:34Z</time>
      </trkpt>
      <trkpt lat="41.903975" lon="0.476550">
        <ele>458.813</ele>
        <time>2018-11-24T13:11:35Z</time>
      </trkpt>
      <trkpt lat="41.903787" lon="0.476736">
        <ele>458.425</ele>
        <time>2018-11-24T13:11:36Z</time>
      </trkpt>
      <trkpt lat="41.903600" lon="0.476920">
        <ele>457.748</ele>
        <time>2018-11-24T13:11:37Z</time>
      </trkpt>
      <trkpt lat="41.903413" lon="0.477104">
        <ele>457.352</ele>
        <time>2018-11-24T13:11:38Z</time>
      </trkpt>
      <trkpt lat="41.903225" lon="0.477288">
        <ele>456.777</ele>
        <time>2018-11-24T13:11:39Z</time>
      </trkpt>
      <trkpt lat="41.903038" lon="0.477471">
        <ele>456.461</ele>
        <time>2018-11-24T13:11:40Z</time>
      </trkpt>
      <trkpt lat="41.902850" lon="0.477655">
        <ele>455.827</ele>
        <time>2018-11-24T13:11:41Z</time>
      </trkpt>
      <trkpt lat="41.902664" lon="0.477839">
        <ele>455.408</ele>
        <time>2018-11-24T13:11:42Z</time>
      </trkpt>
      <trkpt lat="41.902477" lon="0.478026">
        <ele>454.940</ele>
        <time>2018-11-24T13:11:43Z</time>
      </trkpt>
      <trkpt lat="41.902290" lon="0.478213">
        <ele>454.447</ele>
        <time>2018-11-24T13:11:44Z</time>
      </trkpt>
      <trkpt lat="41.902103" lon="0.478398">
        <ele>453.974</ele>
        <time>2018-11-24T13:11:45Z</time>
      </trkpt>
      <trkpt lat="41.901916" lon="0.478582">
        <ele>453.335</ele>
        <time>2018-11-24T13:11:46Z</time>
      </trkpt>
      <trkpt lat="41.901729" lon="0.478766">
        <ele>452.943</ele>
        <time>2018-11-24T13:11:47Z</time>
      </trkpt>
      <trkpt lat="41.901542" lon="0.478951">
        <ele>452.465</ele>
        <time>2018-11-24T13:11:48Z</time>
      </trkpt>
      <trkpt lat="41.901356" lon="0.479136">
        <ele>451.858</ele>
        <time>2018-11-24T13:11:49Z</time>
      </trkpt>
      <trkpt lat="41.901170" lon="0.479320">
        <ele>451.452</ele>
        <time>2018-11-24T13:11:50Z</time>
      </trkpt>
      <trkpt lat="41.900983" lon="0.479505">
        <ele>451.464</ele>
        <time>2018-11-24T13:11:51Z</time>
      </trkpt>
      <trkpt lat="41.900796" lon="0.479688">
        <ele>450.906</ele>
        <time>2018-11-24T13:11:52Z</time>
      </trkpt>
      <trkpt lat="41.900609" lon="0.479872">
        <ele>450.416</ele>
        <time>2018-11-24T13:11:53Z</time>
      </trkpt>
      <trkpt lat="41.900423" lon="0.480058">
        <ele>449.708</ele>
        <time>2018-11-24T13:11:54Z</time>
      </trkpt>
      <trkpt lat="41.900237" lon="0.480246">
        <ele>449.129</ele>
        <time>2018-11-24T13:11:55Z</time>
      </trkpt>
      <trkpt lat="41.900052" lon="0.480433">
        <ele>448.726</ele>
        <time>2018-11-24T13:11:56Z</time>
      </trkpt>
      <trkpt lat="41.899866" lon="0.480621">
        <ele>448.443</ele>
        <time>2018-11-24T13:11:57Z</time>
      </trkpt>
      <trkpt lat="41.899681" lon="0.480809">
        <ele>447.894</ele>
        <time>2018-11-24T13:11:58Z</time>
      </trkpt>
      <trkpt lat="41.899498" lon="0.481001">
        <ele>447.372</ele>
        <time>2018-11-24T13:11:59Z</time>
      </trkpt>
      <trkpt lat="41.899319" lon="0.481200">
        <ele>447.024</ele>
        <time>2018-11-24T13:12:00Z</time>
      </trkpt>
      <trkpt lat="41.899144" lon="0.481403">
        <ele>446.567</ele>
        <time>2018-11-24T13:12:01Z</time>
      </trkpt>
      <trkpt lat="41.898971" lon="0.481609">
        <ele>446.011</ele>
        <time>2018-11-24T13:12:02Z</time>
      </trkpt>
      <trkpt lat="41.898799" lon="0.481817">
        <ele>445.735</ele>
        <time>2018-11-24T13:12:03Z</time>
      </trkpt>
      <trkpt lat="41.898627" lon="0.482026">
        <ele>445.186</ele>
        <time>2018-11-24T13:12:04Z</time>
      </trkpt>
      <trkpt lat="41.898455" lon="0.482234">
        <ele>445.014</ele>
        <time>2018-11-24T13:12:05Z</time>
      </trkpt>
      <trkpt lat="41.898283" lon="0.482440">
        <ele>444.408</ele>
        <time>2018-11-24T13:12:06Z</time>
      </trkpt>
      <trkpt lat="41.898110" lon="0.482648">
        <ele>443.926</ele>
        <time>2018-11-24T13:12:07Z</time>
      </trkpt>
      <trkpt lat="41.897939" lon="0.482858">
        <ele>443.493</ele>
        <time>2018-11-24T13:12:08Z</time>
      </trkpt>
      <trkpt lat="41.897768" lon="0.483067">
        <ele>442.910</ele>
        <time>2018-11-24T13:12:09Z</time>
      </trkpt>
      <trkpt lat="41.897596" lon="0.483275">
        <ele>442.441</ele>
        <time>2018-11-24T13:12:10Z</time>
      </trkpt>
      <trkpt lat="41.897423" lon="0.483484">
        <ele>441.939</ele>
        <time>2018-11-24T13:12:11Z</time>
      </trkpt>
      <trkpt lat="41.897251" lon="0.483693">
        <ele>441.281</ele>
        <time>2018-11-24T13:12:12Z</time>
      </trkpt>
      <trkpt lat="41.897079" lon="0.483901">
        <ele>441.394</ele>
        <time>2018-11-24T13:12:13Z</time>
      </trkpt>
      <trkpt lat="41.896907" lon="0.484110">
        <ele>440.758</ele>
        <time>2018-11-24T13:12:14Z</time>
      </trkpt>
      <trkpt lat="41.896734" lon="0.484319">
        <ele>440.537</ele>
        <time>2018-11-24T13:12:15Z</time>
      </trkpt>
      <trkpt lat="41.896562" lon="0.484529">
        <ele>440.249</ele>
        <time>2018-11-24T13:12:16Z</time>
      </trkpt>
      <trkpt lat="41.896391" lon="0.484740">
        <ele>439.713</ele>
        <time>2018-11-24T13:12:17Z</time>
      </trkpt>
      <trkpt lat="41.896220" lon="0.484947">
        <ele>439.308</ele>
        <time>2018-11-24T13:12:18Z</time>
      </trkpt>
      <trkpt lat="41.896051" lon="0.485162">
        <ele>438.826</ele>
        <time>2018-11-24T13:12:19Z</time>
      </trkpt>
      <trkpt lat="41.895880" lon="0.485371">
        <ele>438.443</ele>
        <time>2018-11-24T13:12:20Z</time>
      </trkpt>
      <trkpt lat="41.895710" lon="0.485584">
        <ele>438.020</ele>
        <time>2018-11-24T13:12:21Z</time>
      </trkpt>
      <trkpt lat="41.895539" lon="0.485789">
        <ele>437.581</ele>
        <time>2018-11-24T13:12:22Z</time>
      </trkpt>
      <trkpt lat="41.895366" lon="0.485999">
        <ele>437.249</ele>
        <time>2018-11-24T13:12:23Z</time>
      </trkpt>
      <trkpt lat="41.895195" lon="0.486205">
        <ele>437.081</ele>
        <time>2018-11-24T13:12:24Z</time>
      </trkpt>
      <trkpt lat="41.895023" lon="0.486410">
        <ele>436.454</ele>
        <time>2018-11-24T13:12:25Z</time>
      </trkpt>
      <trkpt lat="41.894850" lon="0.486618">
        <ele>435.988</ele>
        <time>2018-11-24T13:12:26Z</time>
      </trkpt>
      <trkpt lat="41.894678" lon="0.486830">
        <ele>435.431</ele>
        <time>2018-11-24T13:12:27Z</time>
      </trkpt>
      <trkpt lat="41.894507" lon="0.487036">
        <ele>434.961</ele>
        <time>2018-11-24T13:12:28Z</time>
      </trkpt>
      <trkpt lat="41.894335" lon="0.487244">
        <ele>434.307</ele>
        <time>2018-11-24T13:12:29Z</time>
      </trkpt>
      <trkpt lat="41.894163" lon="0.487454">
        <ele>433.908</ele>
        <time>2018-11-24T13:12:30Z</time>
      </trkpt>
      <trkpt lat="41.893992" lon="0.487664">
        <ele>433.566</ele>
        <time>2018-11-24T13:12:31Z</time>
      </trkpt>
      <trkpt lat="41.893819" lon="0.487874">
        <ele>433.093</ele>
        <time>2018-11-24T13:12:32Z</time>
      </trkpt>
      <trkpt lat="41.893650" lon="0.488082">
        <ele>432.870</ele>
        <time>2018-11-24T13:12:33Z</time>
      </trkpt>
      <trkpt lat="41.893478" lon="0.488293">
        <ele>432.571</ele>
        <time>2018-11-24T13:12:34Z</time>
      </trkpt>
      <trkpt lat="41.893307" lon="0.488503">
        <ele>431.999</ele>
        <time>2018-11-24T13:12:35Z</time>
      </trkpt>
      <trkpt lat="41.893135" lon="0.488711">
        <ele>431.551</ele>
        <time>2018-11-24T13:12:36Z</time>
      </trkpt>
      <trkpt lat="41.892963" lon="0.488921">
        <ele>431.214</ele>
        <time>2018-11-24T13:12:37Z</time>
      </trkpt>
      <trkpt lat="41.892792" lon="0.489133">
        <ele>430.778</ele>
        <time>2018-11-24T13:12:38Z</time>
      </trkpt>
      <trkpt lat="41.892622" lon="0.489345">
        <ele>430.322</ele>
        <time>2018-11-24T13:12:39Z</time>
      </trkpt>
      <trkpt lat="41.892454" lon="0.489560">
        <ele>430.062</ele>
        <time>2018-11-24T13:12:40Z</time>
      </trkpt>
      <trkpt lat="41.892290" lon="0.489780">
        <ele>429.508</ele>
        <time>2018-11-24T13:12:41Z</time>
      </trkpt>
      <trkpt lat="41.892129" lon="0.490004">
        <ele>429.208</ele>
        <time>2018-11-24T13:12:42Z</time>
      </trkpt>
      <trkpt lat="41.891970" lon="0.490232">
        <ele>428.635</ele>
        <time>2018-11-24T13:12:43Z</time>
      </trkpt>
      <trkpt lat="41.891813" lon="0.490460">
        <ele>428.062</ele>
        <time>2018-11-24T13:12:44Z</time>
      </trkpt>
      <trkpt lat="41.891655" lon="0.490691">
        <ele>427.429</ele>
        <time>2018-11-24T13:12:45Z</time>
      </trkpt>
      <trkpt lat="41.891497" lon="0.490921">
        <ele>427.190</ele>
        <time>2018-11-24T13:12:46Z</time>
      </trkpt>
      <trkpt lat="41.891340" lon="0.491151">
        <ele>426.248</ele>
        <time>2018-11-24T13:12:47Z</time>
      </trkpt>
      <trkpt lat="41.891184" lon="0.491382">
        <ele>425.980</ele>
        <time>2018-11-24T13:12:48Z</time>
      </trkpt>
      <trkpt lat="41.891029" lon="0.491614">
        <ele>425.653</ele>
        <time>2018-11-24T13:12:49Z</time>
      </trkpt>
      <trkpt lat="41.890874" lon="0.491845">
        <ele>425.147</ele>
        <time>2018-11-24T13:12:50Z</time>
      </trkpt>
      <trkpt lat="41.890718" lon="0.492077">
        <ele>424.694</ele>
        <time>2018-11-24T13:12:51Z</time>
      </trkpt>
      <trkpt lat="41.890562" lon="0.492308">
        <ele>424.057</ele>
        <time>2018-11-24T13:12:52Z</time>
      </trkpt>
      <trkpt lat="41.890406" lon="0.492538">
        <ele>423.622</ele>
        <time>2018-11-24T13:12:53Z</time>
      </trkpt>
      <trkpt lat="41.890249" lon="0.492768">
        <ele>423.108</ele>
        <time>2018-11-24T13:12:54Z</time>
      </trkpt>
      <trkpt lat="41.890087" lon="0.492990">
        <ele>422.872</ele>
        <time>2018-11-24T13:12:55Z</time>
      </trkpt>
      <trkpt lat="41.889932" lon="0.493221">
        <ele>422.229</ele>
        <time>2018-11-24T13:12:56Z</time>
      </trkpt>
      <trkpt lat="41.889777" lon="0.493454">
        <ele>421.526</ele>
        <time>2018-11-24T13:12:57Z</time>
      </trkpt>
      <trkpt lat="41.889629" lon="0.493695">
        <ele>421.017</ele>
        <time>2018-11-24T13:12:58Z</time>
      </trkpt>
      <trkpt lat="41.889486" lon="0.493947">
        <ele>420.375</ele>
        <time>2018-11-24T13:12:59Z</time>
      </trkpt>
      <trkpt lat="41.889364" lon="0.494206">
        <ele>419.867</ele>
        <time>2018-11-24T13:13:00Z</time>
      </trkpt>
      <trkpt lat="41.889258" lon="0.494481">
        <ele>419.450</ele>
        <time>2018-11-24T13:13:01Z</time>
      </trkpt>
      <trkpt lat="41.889156" lon="0.494757">
        <ele>418.884</ele>
        <time>2018-11-24T13:13:02Z</time>
      </trkpt>
      <trkpt lat="41.889073" lon="0.495047">
        <ele>418.111</ele>
        <time>2018-11-24T13:13:03Z</time>
      </trkpt>
      <trkpt lat="41.888977" lon="0.495340">
        <ele>417.521</ele>
        <time>2018-11-24T13:13:04Z</time>
      </trkpt>
      <trkpt lat="41.888881" lon="0.495626">
        <ele>416.703</ele>
        <time>2018-11-24T13:13:05Z</time>
      </trkpt>
      <trkpt lat="41.888787" lon="0.495913">
        <ele>416.208</ele>
        <time>2018-11-24T13:13:06Z</time>
      </trkpt>
      <trkpt lat="41.888692" lon="0.496198">
        <ele>415.814</ele>
        <time>2018-11-24T13:13:07Z</time>
      </trkpt>
      <trkpt lat="41.888595" lon="0.496483">
        <ele>415.231</ele>
        <time>2018-11-24T13:13:08Z</time>
      </trkpt>
      <trkpt lat="41.888496" lon="0.496766">
        <ele>414.768</ele>
        <time>2018-11-24T13:13:09Z</time>
      </trkpt>
      <trkpt lat="41.888391" lon="0.497045">
        <ele>414.029</ele>
        <time>2018-11-24T13:13:10Z</time>
      </trkpt>
      <trkpt lat="41.888279" lon="0.497316">
        <ele>413.327</ele>
        <time>2018-11-24T13:13:11Z</time>
      </trkpt>
      <trkpt lat="41.888159" lon="0.497582">
        <ele>412.749</ele>
        <time>2018-11-24T13:13:12Z</time>
      </trkpt>
      <trkpt lat="41.888036" lon="0.497843">
        <ele>412.142</ele>
        <time>2018-11-24T13:13:13Z</time>
      </trkpt>
      <trkpt lat="41.887911" lon="0.498106">
        <ele>411.416</ele>
        <time>2018-11-24T13:13:14Z</time>
      </trkpt>
      <trkpt lat="41.887785" lon="0.498371">
        <ele>410.735</ele>
        <time>2018-11-24T13:13:15Z</time>
      </trkpt>
      <trkpt lat="41.887659" lon="0.498633">
        <ele>410.286</ele>
        <time>2018-11-24T13:13:16Z</time>
      </trkpt>
      <trkpt lat="41.887534" lon="0.498895">
        <ele>409.714</ele>
        <time>2018-11-24T13:13:17Z</time>
      </trkpt>
      <trkpt lat="41.887410" lon="0.499158">
        <ele>409.408</ele>
        <time>2018-11-24T13:13:18Z</time>
      </trkpt>
      <trkpt lat="41.887284" lon="0.499420">
        <ele>408.696</ele>
        <time>2018-11-24T13:13:19Z</time>
      </trkpt>
      <trkpt lat="41.887157" lon="0.499682">
        <ele>408.213</ele>
        <time>2018-11-24T13:13:20Z</time>
      </trkpt>
      <trkpt lat="41.887030" lon="0.499943">
        <ele>407.470</ele>
        <time>2018-11-24T13:13:21Z</time>
      </trkpt>
      <trkpt lat="41.886903" lon="0.500204">
        <ele>406.711</ele>
        <time>2018-11-24T13:13:22Z</time>
      </trkpt>
      <trkpt lat="41.886777" lon="0.500466">
        <ele>406.059</ele>
        <time>2018-11-24T13:13:23Z</time>
      </trkpt>
      <trkpt lat="41.886652" lon="0.500730">
        <ele>405.321</ele>
        <time>2018-11-24T13:13:24Z</time>
      </trkpt>
      <trkpt lat="41.886526" lon="0.500994">
        <ele>404.554</ele>
        <time>2018-11-24T13:13:25Z</time>
      </trkpt>
      <trkpt lat="41.886401" lon="0.501258">
        <ele>403.858</ele>
        <time>2018-11-24T13:13:26Z</time>
      </trkpt>
      <trkpt lat="41.886275" lon="0.501521">
        <ele>403.138</ele>
        <time>2018-11-24T13:13:27Z</time>
      </trkpt>
      <trkpt lat="41.886150" lon="0.501782">
        <ele>402.370</ele>
        <time>2018-11-24T13:13:28Z</time>
      </trkpt>
      <trkpt lat="41.886023" lon="0.502043">
        <ele>401.717</ele>
        <time>2018-11-24T13:13:29Z</time>
      </trkpt>
      <trkpt lat="41.885896" lon="0.502305">
        <ele>401.008</ele>
        <time>2018-11-24T13:13:30Z</time>
      </trkpt>
      <trkpt lat="41.885770" lon="0.502565">
        <ele>400.256</ele>
        <time>2018-11-24T13:13:31Z</time>
      </trkpt>
      <trkpt lat="41.885643" lon="0.502827">
        <ele>399.633</ele>
        <time>2018-11-24T13:13:32Z</time>
      </trkpt>
      <trkpt lat="41.885517" lon="0.503088">
        <ele>399.190</ele>
        <time>2018-11-24T13:13:33Z</time>
      </trkpt>
      <trkpt lat="41.885391" lon="0.503348">
        <ele>398.691</ele>
        <time>2018-11-24T13:13:34Z</time>
      </trkpt>
      <trkpt lat="41.885264" lon="0.503608">
        <ele>398.119</ele>
        <time>2018-11-24T13:13:35Z</time>
      </trkpt>
      <trkpt lat="41.885137" lon="0.503869">
        <ele>397.771</ele>
        <time>2018-11-24T13:13:36Z</time>
      </trkpt>
      <trkpt lat="41.885011" lon="0.504131">
        <ele>397.414</ele>
        <time>2018-11-24T13:13:37Z</time>
      </trkpt>
      <trkpt lat="41.884884" lon="0.504392">
        <ele>396.978</ele>
        <time>2018-11-24T13:13:38Z</time>
      </trkpt>
      <trkpt lat="41.884753" lon="0.504650">
        <ele>396.471</ele>
        <time>2018-11-24T13:13:39Z</time>
      </trkpt>
      <trkpt lat="41.884612" lon="0.504899">
        <ele>396.141</ele>
        <time>2018-11-24T13:13:40Z</time>
      </trkpt>
      <trkpt lat="41.884456" lon="0.505129">
        <ele>395.515</ele>
        <time>2018-11-24T13:13:41Z</time>
      </trkpt>
      <trkpt lat="41.884289" lon="0.505340">
        <ele>395.308</ele>
        <time>2018-11-24T13:13:42Z</time>
      </trkpt>
      <trkpt lat="41.884107" lon="0.505536">
        <ele>395.110</ele>
        <time>2018-11-24T13:13:43Z</time>
      </trkpt>
      <trkpt lat="41.883925" lon="0.505732">
        <ele>394.587</ele>
        <time>2018-11-24T13:13:44Z</time>
      </trkpt>
      <trkpt lat="41.883747" lon="0.505935">
        <ele>394.094</ele>
        <time>2018-11-24T13:13:45Z</time>
      </trkpt>
      <trkpt lat="41.883575" lon="0.506141">
        <ele>393.585</ele>
        <time>2018-11-24T13:13:46Z</time>
      </trkpt>
      <trkpt lat="41.883400" lon="0.506347">
        <ele>393.483</ele>
        <time>2018-11-24T13:13:47Z</time>
      </trkpt>
      <trkpt lat="41.883228" lon="0.506549">
        <ele>393.275</ele>
        <time>2018-11-24T13:13:48Z</time>
      </trkpt>
      <trkpt lat="41.883052" lon="0.506752">
        <ele>392.858</ele>
        <time>2018-11-24T13:13:49Z</time>
      </trkpt>
      <trkpt lat="41.882875" lon="0.506957">
        <ele>392.672</ele>
        <time>2018-11-24T13:13:50Z</time>
      </trkpt>
      <trkpt lat="41.882699" lon="0.507160">
        <ele>392.352</ele>
        <time>2018-11-24T13:13:51Z</time>
      </trkpt>
      <trkpt lat="41.882524" lon="0.507364">
        <ele>392.053</ele>
        <time>2018-11-24T13:13:52Z</time>
      </trkpt>
      <trkpt lat="41.882351" lon="0.507568">
        <ele>391.708</ele>
        <time>2018-11-24T13:13:53Z</time>
      </trkpt>
      <trkpt lat="41.882179" lon="0.507779">
        <ele>391.408</ele>
        <time>2018-11-24T13:13:54Z</time>
      </trkpt>
      <trkpt lat="41.882011" lon="0.507992">
        <ele>391.088</ele>
        <time>2018-11-24T13:13:55Z</time>
      </trkpt>
      <trkpt lat="41.881848" lon="0.508213">
        <ele>390.695</ele>
        <time>2018-11-24T13:13:56Z</time>
      </trkpt>
      <trkpt lat="41.881696" lon="0.508448">
        <ele>390.132</ele>
        <time>2018-11-24T13:13:57Z</time>
      </trkpt>
      <trkpt lat="41.881554" lon="0.508694">
        <ele>389.743</ele>
        <time>2018-11-24T13:13:58Z</time>
      </trkpt>
      <trkpt lat="41.881415" lon="0.508946">
        <ele>389.191</ele>
        <time>2018-11-24T13:13:59Z</time>
      </trkpt>
      <trkpt lat="41.881277" lon="0.509198">
        <ele>388.553</ele>
        <time>2018-11-24T13:14:00Z</time>
      </trkpt>
      <trkpt lat="41.881138" lon="0.509449">
        <ele>388.176</ele>
        <time>2018-11-24T13:14:01Z</time>
      </trkpt>
      <trkpt lat="41.881000" lon="0.509700">
        <ele>387.730</ele>
        <time>2018-11-24T13:14:02Z</time>
      </trkpt>
      <trkpt lat="41.880864" lon="0.509952">
        <ele>387.372</ele>
        <time>2018-11-24T13:14:03Z</time>
      </trkpt>
      <trkpt lat="41.880727" lon="0.510202">
        <ele>386.913</ele>
        <time>2018-11-24T13:14:04Z</time>
      </trkpt>
      <trkpt lat="41.880589" lon="0.510453">
        <ele>386.514</ele>
        <time>2018-11-24T13:14:05Z</time>
      </trkpt>
      <trkpt lat="41.880451" lon="0.510703">
        <ele>385.908</ele>
        <time>2018-11-24T13:14:06Z</time>
      </trkpt>
      <trkpt lat="41.880312" lon="0.510954">
        <ele>385.540</ele>
        <time>2018-11-24T13:14:07Z</time>
      </trkpt>
      <trkpt lat="41.880174" lon="0.511204">
        <ele>385.167</ele>
        <time>2018-11-24T13:14:08Z</time>
      </trkpt>
      <trkpt lat="41.880036" lon="0.511455">
        <ele>384.774</ele>
        <time>2018-11-24T13:14:09Z</time>
      </trkpt>
      <trkpt lat="41.879899" lon="0.511708">
        <ele>384.165</ele>
        <time>2018-11-24T13:14:10Z</time>
      </trkpt>
      <trkpt lat="41.879762" lon="0.511960">
        <ele>383.593</ele>
        <time>2018-11-24T13:14:11Z</time>
      </trkpt>
      <trkpt lat="41.879624" lon="0.512212">
        <ele>383.245</ele>
        <time>2018-11-24T13:14:12Z</time>
      </trkpt>
      <trkpt lat="41.879487" lon="0.512463">
        <ele>382.968</ele>
        <time>2018-11-24T13:14:13Z</time>
      </trkpt>
      <trkpt lat="41.879350" lon="0.512715">
        <ele>382.732</ele>
        <time>2018-11-24T13:14:14Z</time>
      </trkpt>
      <trkpt lat="41.879213" lon="0.512968">
        <ele>382.225</ele>
        <time>2018-11-24T13:14:15Z</time>
      </trkpt>
      <trkpt lat="41.879076" lon="0.513220">
        <ele>381.926</ele>
        <time>2018-11-24T13:14:17Z</time>
      </trkpt>
      <trkpt lat="41.878938" lon="0.513471">
        <ele>381.508</ele>
        <time>2018-11-24T13:14:18Z</time>
      </trkpt>
      <trkpt lat="41.878800" lon="0.513722">
        <ele>381.008</ele>
        <time>2018-11-24T13:14:19Z</time>
      </trkpt>
      <trkpt lat="41.878663" lon="0.513974">
        <ele>380.665</ele>
        <time>2018-11-24T13:14:20Z</time>
      </trkpt>
      <trkpt lat="41.878528" lon="0.514226">
        <ele>380.162</ele>
        <time>2018-11-24T13:14:21Z</time>
      </trkpt>
      <trkpt lat="41.878392" lon="0.514479">
        <ele>379.749</ele>
        <time>2018-11-24T13:14:22Z</time>
      </trkpt>
      <trkpt lat="41.878255" lon="0.514731">
        <ele>379.330</ele>
        <time>2018-11-24T13:14:23Z</time>
      </trkpt>
      <trkpt lat="41.878117" lon="0.514981">
        <ele>379.028</ele>
        <time>2018-11-24T13:14:24Z</time>
      </trkpt>
      <trkpt lat="41.877978" lon="0.515230">
        <ele>378.520</ele>
        <time>2018-11-24T13:14:25Z</time>
      </trkpt>
      <trkpt lat="41.877840" lon="0.515480">
        <ele>378.283</ele>
        <time>2018-11-24T13:14:26Z</time>
      </trkpt>
      <trkpt lat="41.877703" lon="0.515731">
        <ele>377.927</ele>
        <time>2018-11-24T13:14:27Z</time>
      </trkpt>
      <trkpt lat="41.877566" lon="0.515982">
        <ele>377.694</ele>
        <time>2018-11-24T13:14:28Z</time>
      </trkpt>
      <trkpt lat="41.877429" lon="0.516233">
        <ele>377.257</ele>
        <time>2018-11-24T13:14:29Z</time>
      </trkpt>
      <trkpt lat="41.877291" lon="0.516483">
        <ele>377.122</ele>
        <time>2018-11-24T13:14:30Z</time>
      </trkpt>
      <trkpt lat="41.877147" lon="0.516723">
        <ele>377.208</ele>
        <time>2018-11-24T13:14:31Z</time>
      </trkpt>
      <trkpt lat="41.877018" lon="0.516980">
        <ele>377.132</ele>
        <time>2018-11-24T13:14:32Z</time>
      </trkpt>
      <trkpt lat="41.876883" lon="0.517236">
        <ele>377.289</ele>
        <time>2018-11-24T13:14:33Z</time>
      </trkpt>
      <trkpt lat="41.876757" lon="0.517493">
        <ele>377.076</ele>
        <time>2018-11-24T13:14:34Z</time>
      </trkpt>
      <trkpt lat="41.876646" lon="0.517762">
        <ele>376.797</ele>
        <time>2018-11-24T13:14:35Z</time>
      </trkpt>
      <trkpt lat="41.876560" lon="0.518049">
        <ele>376.255</ele>
        <time>2018-11-24T13:14:36Z</time>
      </trkpt>
      <trkpt lat="41.876499" lon="0.518351">
        <ele>376.037</ele>
        <time>2018-11-24T13:14:37Z</time>
      </trkpt>
      <trkpt lat="41.876449" lon="0.518655">
        <ele>375.790</ele>
        <time>2018-11-24T13:14:38Z</time>
      </trkpt>
      <trkpt lat="41.876401" lon="0.518961">
        <ele>375.524</ele>
        <time>2018-11-24T13:14:39Z</time>
      </trkpt>
      <trkpt lat="41.876350" lon="0.519264">
        <ele>375.384</ele>
        <time>2018-11-24T13:14:40Z</time>
      </trkpt>
      <trkpt lat="41.876300" lon="0.519570">
        <ele>375.207</ele>
        <time>2018-11-24T13:14:41Z</time>
      </trkpt>
      <trkpt lat="41.876249" lon="0.519872">
        <ele>374.917</ele>
        <time>2018-11-24T13:14:42Z</time>
      </trkpt>
      <trkpt lat="41.876200" lon="0.520176">
        <ele>374.608</ele>
        <time>2018-11-24T13:14:43Z</time>
      </trkpt>
      <trkpt lat="41.876151" lon="0.520479">
        <ele>374.551</ele>
        <time>2018-11-24T13:14:44Z</time>
      </trkpt>
      <trkpt lat="41.876100" lon="0.520781">
        <ele>374.268</ele>
        <time>2018-11-24T13:14:45Z</time>
      </trkpt>
      <trkpt lat="41.876049" lon="0.521085">
        <ele>374.095</ele>
        <time>2018-11-24T13:14:46Z</time>
      </trkpt>
      <trkpt lat="41.875990" lon="0.521384">
        <ele>373.636</ele>
        <time>2018-11-24T13:14:47Z</time>
      </trkpt>
      <trkpt lat="41.875923" lon="0.521682">
        <ele>373.354</ele>
        <time>2018-11-24T13:14:48Z</time>
      </trkpt>
      <trkpt lat="41.875845" lon="0.521975">
        <ele>373.036</ele>
        <time>2018-11-24T13:14:49Z</time>
      </trkpt>
      <trkpt lat="41.875754" lon="0.522263">
        <ele>372.579</ele>
        <time>2018-11-24T13:14:50Z</time>
      </trkpt>
      <trkpt lat="41.875654" lon="0.522545">
        <ele>372.183</ele>
        <time>2018-11-24T13:14:51Z</time>
      </trkpt>
      <trkpt lat="41.875546" lon="0.522821">
        <ele>371.232</ele>
        <time>2018-11-24T13:14:52Z</time>
      </trkpt>
      <trkpt lat="41.875440" lon="0.523098">
        <ele>370.792</ele>
        <time>2018-11-24T13:14:53Z</time>
      </trkpt>
      <trkpt lat="41.875336" lon="0.523377">
        <ele>370.211</ele>
        <time>2018-11-24T13:14:54Z</time>
      </trkpt>
      <trkpt lat="41.875234" lon="0.523656">
        <ele>370.008</ele>
        <time>2018-11-24T13:14:55Z</time>
      </trkpt>
      <trkpt lat="41.875135" lon="0.523938">
        <ele>369.336</ele>
        <time>2018-11-24T13:14:56Z</time>
      </trkpt>
      <trkpt lat="41.875049" lon="0.524227">
        <ele>368.853</ele>
        <time>2018-11-24T13:14:57Z</time>
      </trkpt>
      <trkpt lat="41.874985" lon="0.524525">
        <ele>368.240</ele>
        <time>2018-11-24T13:14:58Z</time>
      </trkpt>
      <trkpt lat="41.874945" lon="0.524829">
        <ele>367.431</ele>
        <time>2018-11-24T13:14:59Z</time>
      </trkpt>
      <trkpt lat="41.874930" lon="0.525138">
        <ele>366.779</ele>
        <time>2018-11-24T13:15:00Z</time>
      </trkpt>
      <trkpt lat="41.874917" lon="0.525445">
        <ele>366.161</ele>
        <time>2018-11-24T13:15:01Z</time>
      </trkpt>
      <trkpt lat="41.874928" lon="0.525750">
        <ele>365.594</ele>
        <time>2018-11-24T13:15:02Z</time>
      </trkpt>
      <trkpt lat="41.874941" lon="0.526063">
        <ele>365.158</ele>
        <time>2018-11-24T13:15:03Z</time>
      </trkpt>
      <trkpt lat="41.874956" lon="0.526373">
        <ele>364.647</ele>
        <time>2018-11-24T13:15:04Z</time>
      </trkpt>
      <trkpt lat="41.874975" lon="0.526689">
        <ele>364.029</ele>
        <time>2018-11-24T13:15:05Z</time>
      </trkpt>
      <trkpt lat="41.874985" lon="0.526998">
        <ele>363.321</ele>
        <time>2018-11-24T13:15:06Z</time>
      </trkpt>
      <trkpt lat="41.874997" lon="0.527310">
        <ele>362.408</ele>
        <time>2018-11-24T13:15:07Z</time>
      </trkpt>
      <trkpt lat="41.875013" lon="0.527623">
        <ele>361.647</ele>
        <time>2018-11-24T13:15:08Z</time>
      </trkpt>
      <trkpt lat="41.875029" lon="0.527933">
        <ele>361.274</ele>
        <time>2018-11-24T13:15:09Z</time>
      </trkpt>
      <trkpt lat="41.875044" lon="0.528244">
        <ele>360.531</ele>
        <time>2018-11-24T13:15:10Z</time>
      </trkpt>
      <trkpt lat="41.875058" lon="0.528556">
        <ele>360.012</ele>
        <time>2018-11-24T13:15:11Z</time>
      </trkpt>
      <trkpt lat="41.875074" lon="0.528868">
        <ele>359.670</ele>
        <time>2018-11-24T13:15:12Z</time>
      </trkpt>
      <trkpt lat="41.875086" lon="0.529179">
        <ele>359.112</ele>
        <time>2018-11-24T13:15:13Z</time>
      </trkpt>
      <trkpt lat="41.875088" lon="0.529490">
        <ele>358.585</ele>
        <time>2018-11-24T13:15:14Z</time>
      </trkpt>
      <trkpt lat="41.875076" lon="0.529800">
        <ele>357.749</ele>
        <time>2018-11-24T13:15:15Z</time>
      </trkpt>
      <trkpt lat="41.875045" lon="0.530107">
        <ele>357.027</ele>
        <time>2018-11-24T13:15:16Z</time>
      </trkpt>
      <trkpt lat="41.874988" lon="0.530408">
        <ele>356.568</ele>
        <time>2018-11-24T13:15:17Z</time>
      </trkpt>
      <trkpt lat="41.874919" lon="0.530702">
        <ele>356.114</ele>
        <time>2018-11-24T13:15:18Z</time>
      </trkpt>
      <trkpt lat="41.874822" lon="0.530986">
        <ele>355.608</ele>
        <time>2018-11-24T13:15:19Z</time>
      </trkpt>
      <trkpt lat="41.874717" lon="0.531264">
        <ele>355.215</ele>
        <time>2018-11-24T13:15:20Z</time>
      </trkpt>
      <trkpt lat="41.874604" lon="0.531536">
        <ele>354.912</ele>
        <time>2018-11-24T13:15:21Z</time>
      </trkpt>
      <trkpt lat="41.874483" lon="0.531804">
        <ele>354.449</ele>
        <time>2018-11-24T13:15:22Z</time>
      </trkpt>
      <trkpt lat="41.874367" lon="0.532064">
        <ele>354.070</ele>
        <time>2018-11-24T13:15:23Z</time>
      </trkpt>
      <trkpt lat="41.874250" lon="0.532334">
        <ele>353.778</ele>
        <time>2018-11-24T13:15:24Z</time>
      </trkpt>
      <trkpt lat="41.874133" lon="0.532601">
        <ele>353.640</ele>
        <time>2018-11-24T13:15:25Z</time>
      </trkpt>
      <trkpt lat="41.874016" lon="0.532868">
        <ele>353.373</ele>
        <time>2018-11-24T13:15:26Z</time>
      </trkpt>
      <trkpt lat="41.873900" lon="0.533136">
        <ele>353.017</ele>
        <time>2018-11-24T13:15:27Z</time>
      </trkpt>
      <trkpt lat="41.873785" lon="0.533404">
        <ele>352.569</ele>
        <time>2018-11-24T13:15:28Z</time>
      </trkpt>
      <trkpt lat="41.873668" lon="0.533673">
        <ele>352.204</ele>
        <time>2018-11-24T13:15:29Z</time>
      </trkpt>
      <trkpt lat="41.873552" lon="0.533942">
        <ele>351.724</ele>
        <time>2018-11-24T13:15:30Z</time>
      </trkpt>
      <trkpt lat="41.873435" lon="0.534211">
        <ele>351.208</ele>
        <time>2018-11-24T13:15:31Z</time>
      </trkpt>
      <trkpt lat="41.873317" lon="0.534481">
        <ele>350.619</ele>
        <time>2018-11-24T13:15:32Z</time>
      </trkpt>
      <trkpt lat="41.873200" lon="0.534750">
        <ele>350.046</ele>
        <time>2018-11-24T13:15:33Z</time>
      </trkpt>
      <trkpt lat="41.873082" lon="0.535018">
        <ele>349.653</ele>
        <time>2018-11-24T13:15:34Z</time>
      </trkpt>
      <trkpt lat="41.872965" lon="0.535288">
        <ele>349.134</ele>
        <time>2018-11-24T13:15:35Z</time>
      </trkpt>
      <trkpt lat="41.872848" lon="0.535557">
        <ele>348.912</ele>
        <time>2018-11-24T13:15:36Z</time>
      </trkpt>
      <trkpt lat="41.872733" lon="0.535825">
        <ele>348.744</ele>
        <time>2018-11-24T13:15:37Z</time>
      </trkpt>
      <trkpt lat="41.872617" lon="0.536094">
        <ele>348.557</ele>
        <time>2018-11-24T13:15:38Z</time>
      </trkpt>
      <trkpt lat="41.872501" lon="0.536365">
        <ele>348.121</ele>
        <time>2018-11-24T13:15:39Z</time>
      </trkpt>
      <trkpt lat="41.872385" lon="0.536634">
        <ele>347.726</ele>
        <time>2018-11-24T13:15:40Z</time>
      </trkpt>
      <trkpt lat="41.872269" lon="0.536902">
        <ele>347.447</ele>
        <time>2018-11-24T13:15:41Z</time>
      </trkpt>
      <trkpt lat="41.872153" lon="0.537169">
        <ele>347.111</ele>
        <time>2018-11-24T13:15:42Z</time>
      </trkpt>
      <trkpt lat="41.872034" lon="0.537436">
        <ele>346.808</ele>
        <time>2018-11-24T13:15:43Z</time>
      </trkpt>
      <trkpt lat="41.871916" lon="0.537702">
        <ele>346.675</ele>
        <time>2018-11-24T13:15:44Z</time>
      </trkpt>
      <trkpt lat="41.871800" lon="0.537970">
        <ele>346.532</ele>
        <time>2018-11-24T13:15:45Z</time>
      </trkpt>
      <trkpt lat="41.871684" lon="0.538238">
        <ele>346.449</ele>
        <time>2018-11-24T13:15:46Z</time>
      </trkpt>
      <trkpt lat="41.871567" lon="0.538507">
        <ele>346.490</ele>
        <time>2018-11-24T13:15:47Z</time>
      </trkpt>
      <trkpt lat="41.871450" lon="0.538777">
        <ele>346.058</ele>
        <time>2018-11-24T13:15:48Z</time>
      </trkpt>
      <trkpt lat="41.871333" lon="0.539046">
        <ele>345.850</ele>
        <time>2018-11-24T13:15:49Z</time>
      </trkpt>
      <trkpt lat="41.871215" lon="0.539316">
        <ele>346.093</ele>
        <time>2018-11-24T13:15:50Z</time>
      </trkpt>
      <trkpt lat="41.871098" lon="0.539585">
        <ele>345.997</ele>
        <time>2018-11-24T13:15:51Z</time>
      </trkpt>
      <trkpt lat="41.870980" lon="0.539854">
        <ele>345.767</ele>
        <time>2018-11-24T13:15:52Z</time>
      </trkpt>
      <trkpt lat="41.870863" lon="0.540123">
        <ele>345.681</ele>
        <time>2018-11-24T13:15:53Z</time>
      </trkpt>
      <trkpt lat="41.870746" lon="0.540392">
        <ele>345.519</ele>
        <time>2018-11-24T13:15:54Z</time>
      </trkpt>
      <trkpt lat="41.870629" lon="0.540660">
        <ele>345.308</ele>
        <time>2018-11-24T13:15:55Z</time>
      </trkpt>
      <trkpt lat="41.870512" lon="0.540929">
        <ele>345.159</ele>
        <time>2018-11-24T13:15:56Z</time>
      </trkpt>
      <trkpt lat="41.870395" lon="0.541197">
        <ele>345.166</ele>
        <time>2018-11-24T13:15:57Z</time>
      </trkpt>
      <trkpt lat="41.870278" lon="0.541466">
        <ele>344.853</ele>
        <time>2018-11-24T13:15:58Z</time>
      </trkpt>
      <trkpt lat="41.870161" lon="0.541736">
        <ele>344.624</ele>
        <time>2018-11-24T13:15:59Z</time>
      </trkpt>
      <trkpt lat="41.870044" lon="0.542006">
        <ele>344.532</ele>
        <time>2018-11-24T13:16:00Z</time>
      </trkpt>
      <trkpt lat="41.869925" lon="0.542275">
        <ele>344.224</ele>
        <time>2018-11-24T13:16:01Z</time>
      </trkpt>
      <trkpt lat="41.869805" lon="0.542542">
        <ele>343.887</ele>
        <time>2018-11-24T13:16:02Z</time>
      </trkpt>
      <trkpt lat="41.869686" lon="0.542811">
        <ele>343.231</ele>
        <time>2018-11-24T13:16:03Z</time>
      </trkpt>
      <trkpt lat="41.869569" lon="0.543080">
        <ele>342.718</ele>
        <time>2018-11-24T13:16:04Z</time>
      </trkpt>
      <trkpt lat="41.869455" lon="0.543351">
        <ele>342.798</ele>
        <time>2018-11-24T13:16:05Z</time>
      </trkpt>
      <trkpt lat="41.869341" lon="0.543622">
        <ele>342.617</ele>
        <time>2018-11-24T13:16:06Z</time>
      </trkpt>
      <trkpt lat="41.869226" lon="0.543893">
        <ele>342.208</ele>
        <time>2018-11-24T13:16:07Z</time>
      </trkpt>
      <trkpt lat="41.869110" lon="0.544163">
        <ele>341.924</ele>
        <time>2018-11-24T13:16:08Z</time>
      </trkpt>
      <trkpt lat="41.868993" lon="0.544433">
        <ele>341.661</ele>
        <time>2018-11-24T13:16:09Z</time>
      </trkpt>
      <trkpt lat="41.868876" lon="0.544702">
        <ele>341.338</ele>
        <time>2018-11-24T13:16:10Z</time>
      </trkpt>
      <trkpt lat="41.868758" lon="0.544971">
        <ele>340.529</ele>
        <time>2018-11-24T13:16:11Z</time>
      </trkpt>
      <trkpt lat="41.868640" lon="0.545240">
        <ele>339.367</ele>
        <time>2018-11-24T13:16:12Z</time>
      </trkpt>
      <trkpt lat="41.868523" lon="0.545508">
        <ele>338.599</ele>
        <time>2018-11-24T13:16:13Z</time>
      </trkpt>
      <trkpt lat="41.868406" lon="0.545776">
        <ele>338.312</ele>
        <time>2018-11-24T13:16:14Z</time>
      </trkpt>
      <trkpt lat="41.868287" lon="0.546038">
        <ele>338.176</ele>
        <time>2018-11-24T13:16:15Z</time>
      </trkpt>
      <trkpt lat="41.868172" lon="0.546303">
        <ele>337.793</ele>
        <time>2018-11-24T13:16:16Z</time>
      </trkpt>
      <trkpt lat="41.868052" lon="0.546570">
        <ele>337.465</ele>
        <time>2018-11-24T13:16:17Z</time>
      </trkpt>
      <trkpt lat="41.867939" lon="0.546839">
        <ele>336.921</ele>
        <time>2018-11-24T13:16:18Z</time>
      </trkpt>
      <trkpt lat="41.867828" lon="0.547109">
        <ele>336.708</ele>
        <time>2018-11-24T13:16:19Z</time>
      </trkpt>
      <trkpt lat="41.867719" lon="0.547382">
        <ele>336.052</ele>
        <time>2018-11-24T13:16:20Z</time>
      </trkpt>
      <trkpt lat="41.867624" lon="0.547667">
        <ele>335.429</ele>
        <time>2018-11-24T13:16:21Z</time>
      </trkpt>
      <trkpt lat="41.867539" lon="0.547954">
        <ele>335.066</ele>
        <time>2018-11-24T13:16:22Z</time>
      </trkpt>
      <trkpt lat="41.867461" lon="0.548248">
        <ele>334.547</ele>
        <time>2018-11-24T13:16:23Z</time>
      </trkpt>
      <trkpt lat="41.867386" lon="0.548544">
        <ele>333.555</ele>
        <time>2018-11-24T13:16:24Z</time>
      </trkpt>
      <trkpt lat="41.867315" lon="0.548842">
        <ele>332.857</ele>
        <time>2018-11-24T13:16:25Z</time>
      </trkpt>
      <trkpt lat="41.867243" lon="0.549138">
        <ele>332.060</ele>
        <time>2018-11-24T13:16:26Z</time>
      </trkpt>
      <trkpt lat="41.867171" lon="0.549434">
        <ele>331.324</ele>
        <time>2018-11-24T13:16:27Z</time>
      </trkpt>
      <trkpt lat="41.867097" lon="0.549728">
        <ele>330.655</ele>
        <time>2018-11-24T13:16:28Z</time>
      </trkpt>
      <trkpt lat="41.867024" lon="0.550021">
        <ele>330.207</ele>
        <time>2018-11-24T13:16:29Z</time>
      </trkpt>
      <trkpt lat="41.866950" lon="0.550314">
        <ele>330.317</ele>
        <time>2018-11-24T13:16:30Z</time>
      </trkpt>
      <trkpt lat="41.866876" lon="0.550607">
        <ele>330.008</ele>
        <time>2018-11-24T13:16:31Z</time>
      </trkpt>
      <trkpt lat="41.866801" lon="0.550903">
        <ele>330.148</ele>
        <time>2018-11-24T13:16:32Z</time>
      </trkpt>
      <trkpt lat="41.866727" lon="0.551198">
        <ele>329.825</ele>
        <time>2018-11-24T13:16:33Z</time>
      </trkpt>
      <trkpt lat="41.866655" lon="0.551494">
        <ele>329.832</ele>
        <time>2018-11-24T13:16:34Z</time>
      </trkpt>
      <trkpt lat="41.866584" lon="0.551787">
        <ele>329.673</ele>
        <time>2018-11-24T13:16:35Z</time>
      </trkpt>
      <trkpt lat="41.866513" lon="0.552082">
        <ele>329.371</ele>
        <time>2018-11-24T13:16:36Z</time>
      </trkpt>
      <trkpt lat="41.866439" lon="0.552378">
        <ele>328.933</ele>
        <time>2018-11-24T13:16:37Z</time>
      </trkpt>
      <trkpt lat="41.866364" lon="0.552674">
        <ele>328.376</ele>
        <time>2018-11-24T13:16:38Z</time>
      </trkpt>
      <trkpt lat="41.866289" lon="0.552970">
        <ele>327.660</ele>
        <time>2018-11-24T13:16:39Z</time>
      </trkpt>
      <trkpt lat="41.866212" lon="0.553265">
        <ele>326.921</ele>
        <time>2018-11-24T13:16:40Z</time>
      </trkpt>
      <trkpt lat="41.866135" lon="0.553560">
        <ele>326.241</ele>
        <time>2018-11-24T13:16:41Z</time>
      </trkpt>
      <trkpt lat="41.866055" lon="0.553855">
        <ele>325.105</ele>
        <time>2018-11-24T13:16:42Z</time>
      </trkpt>
      <trkpt lat="41.865972" lon="0.554149">
        <ele>324.208</ele>
        <time>2018-11-24T13:16:43Z</time>
      </trkpt>
      <trkpt lat="41.865887" lon="0.554442">
        <ele>322.985</ele>
        <time>2018-11-24T13:16:44Z</time>
      </trkpt>
      <trkpt lat="41.865802" lon="0.554733">
        <ele>321.632</ele>
        <time>2018-11-24T13:16:45Z</time>
      </trkpt>
      <trkpt lat="41.865715" lon="0.555023">
        <ele>320.799</ele>
        <time>2018-11-24T13:16:46Z</time>
      </trkpt>
      <trkpt lat="41.865626" lon="0.555311">
        <ele>319.440</ele>
        <time>2018-11-24T13:16:47Z</time>
      </trkpt>
      <trkpt lat="41.865536" lon="0.555602">
        <ele>318.738</ele>
        <time>2018-11-24T13:16:48Z</time>
      </trkpt>
      <trkpt lat="41.865444" lon="0.555889">
        <ele>317.770</ele>
        <time>2018-11-24T13:16:49Z</time>
      </trkpt>
      <trkpt lat="41.865353" lon="0.556177">
        <ele>316.583</ele>
        <time>2018-11-24T13:16:50Z</time>
      </trkpt>
      <trkpt lat="41.865261" lon="0.556464">
        <ele>315.347</ele>
        <time>2018-11-24T13:16:51Z</time>
      </trkpt>
      <trkpt lat="41.865167" lon="0.556750">
        <ele>314.378</ele>
        <time>2018-11-24T13:16:52Z</time>
      </trkpt>
      <trkpt lat="41.865072" lon="0.557035">
        <ele>313.233</ele>
        <time>2018-11-24T13:16:53Z</time>
      </trkpt>
      <trkpt lat="41.864977" lon="0.557318">
        <ele>312.326</ele>
        <time>2018-11-24T13:16:54Z</time>
      </trkpt>
      <trkpt lat="41.864882" lon="0.557601">
        <ele>311.608</ele>
        <time>2018-11-24T13:16:55Z</time>
      </trkpt>
      <trkpt lat="41.864786" lon="0.557884">
        <ele>311.380</ele>
        <time>2018-11-24T13:16:56Z</time>
      </trkpt>
      <trkpt lat="41.864690" lon="0.558166">
        <ele>311.157</ele>
        <time>2018-11-24T13:16:57Z</time>
      </trkpt>
      <trkpt lat="41.864593" lon="0.558448">
        <ele>311.074</ele>
        <time>2018-11-24T13:16:58Z</time>
      </trkpt>
      <trkpt lat="41.864497" lon="0.558729">
        <ele>310.775</ele>
        <time>2018-11-24T13:16:59Z</time>
      </trkpt>
      <trkpt lat="41.864400" lon="0.559010">
        <ele>310.483</ele>
        <time>2018-11-24T13:17:00Z</time>
      </trkpt>
      <trkpt lat="41.864304" lon="0.559292">
        <ele>309.895</ele>
        <time>2018-11-24T13:17:01Z</time>
      </trkpt>
      <trkpt lat="41.864208" lon="0.559574">
        <ele>309.598</ele>
        <time>2018-11-24T13:17:02Z</time>
      </trkpt>
      <trkpt lat="41.864113" lon="0.559855">
        <ele>309.072</ele>
        <time>2018-11-24T13:17:03Z</time>
      </trkpt>
      <trkpt lat="41.864021" lon="0.560136">
        <ele>308.536</ele>
        <time>2018-11-24T13:17:04Z</time>
      </trkpt>
      <trkpt lat="41.863921" lon="0.560413">
        <ele>308.217</ele>
        <time>2018-11-24T13:17:05Z</time>
      </trkpt>
      <trkpt lat="41.863829" lon="0.560698">
        <ele>307.818</ele>
        <time>2018-11-24T13:17:06Z</time>
      </trkpt>
      <trkpt lat="41.863732" lon="0.560974">
        <ele>307.308</ele>
        <time>2018-11-24T13:17:07Z</time>
      </trkpt>
      <trkpt lat="41.863632" lon="0.561257">
        <ele>307.026</ele>
        <time>2018-11-24T13:17:08Z</time>
      </trkpt>
      <trkpt lat="41.863532" lon="0.561541">
        <ele>306.643</ele>
        <time>2018-11-24T13:17:09Z</time>
      </trkpt>
      <trkpt lat="41.863433" lon="0.561823">
        <ele>306.290</ele>
        <time>2018-11-24T13:17:10Z</time>
      </trkpt>
      <trkpt lat="41.863332" lon="0.562106">
        <ele>305.671</ele>
        <time>2018-11-24T13:17:11Z</time>
      </trkpt>
      <trkpt lat="41.863234" lon="0.562387">
        <ele>305.389</ele>
        <time>2018-11-24T13:17:12Z</time>
      </trkpt>
      <trkpt lat="41.863138" lon="0.562671">
        <ele>305.121</ele>
        <time>2018-11-24T13:17:13Z</time>
      </trkpt>
      <trkpt lat="41.863045" lon="0.562956">
        <ele>305.594</ele>
        <time>2018-11-24T13:17:14Z</time>
      </trkpt>
      <trkpt lat="41.862957" lon="0.563242">
        <ele>305.338</ele>
        <time>2018-11-24T13:17:15Z</time>
      </trkpt>
      <trkpt lat="41.862876" lon="0.563532">
        <ele>305.179</ele>
        <time>2018-11-24T13:17:16Z</time>
      </trkpt>
      <trkpt lat="41.862798" lon="0.563826">
        <ele>304.705</ele>
        <time>2018-11-24T13:17:17Z</time>
      </trkpt>
      <trkpt lat="41.862722" lon="0.564121">
        <ele>304.125</ele>
        <time>2018-11-24T13:17:18Z</time>
      </trkpt>
      <trkpt lat="41.862649" lon="0.564417">
        <ele>303.608</ele>
        <time>2018-11-24T13:17:19Z</time>
      </trkpt>
      <trkpt lat="41.862577" lon="0.564714">
        <ele>303.220</ele>
        <time>2018-11-24T13:17:20Z</time>
      </trkpt>
      <trkpt lat="41.862507" lon="0.565011">
        <ele>302.827</ele>
        <time>2018-11-24T13:17:21Z</time>
      </trkpt>
      <trkpt lat="41.862438" lon="0.565309">
        <ele>302.394</ele>
        <time>2018-11-24T13:17:22Z</time>
      </trkpt>
      <trkpt lat="41.862370" lon="0.565607">
        <ele>301.785</ele>
        <time>2018-11-24T13:17:23Z</time>
      </trkpt>
      <trkpt lat="41.862299" lon="0.565903">
        <ele>301.573</ele>
        <time>2018-11-24T13:17:24Z</time>
      </trkpt>
      <trkpt lat="41.862224" lon="0.566197">
        <ele>301.275</ele>
        <time>2018-11-24T13:17:25Z</time>
      </trkpt>
      <trkpt lat="41.862142" lon="0.566487">
        <ele>300.928</ele>
        <time>2018-11-24T13:17:26Z</time>
      </trkpt>
      <trkpt lat="41.862048" lon="0.566771">
        <ele>300.752</ele>
        <time>2018-11-24T13:17:27Z</time>
      </trkpt>
      <trkpt lat="41.861945" lon="0.567049">
        <ele>300.616</ele>
        <time>2018-11-24T13:17:28Z</time>
      </trkpt>
      <trkpt lat="41.861833" lon="0.567320">
        <ele>300.476</ele>
        <time>2018-11-24T13:17:29Z</time>
      </trkpt>
      <trkpt lat="41.861712" lon="0.567584">
        <ele>300.613</ele>
        <time>2018-11-24T13:17:30Z</time>
      </trkpt>
      <trkpt lat="41.861580" lon="0.567839">
        <ele>300.608</ele>
        <time>2018-11-24T13:17:31Z</time>
      </trkpt>
      <trkpt lat="41.861442" lon="0.568088">
        <ele>300.734</ele>
        <time>2018-11-24T13:17:32Z</time>
      </trkpt>
      <trkpt lat="41.861301" lon="0.568335">
        <ele>300.891</ele>
        <time>2018-11-24T13:17:33Z</time>
      </trkpt>
      <trkpt lat="41.861158" lon="0.568580">
        <ele>300.738</ele>
        <time>2018-11-24T13:17:34Z</time>
      </trkpt>
      <trkpt lat="41.861015" lon="0.568824">
        <ele>300.849</ele>
        <time>2018-11-24T13:17:35Z</time>
      </trkpt>
      <trkpt lat="41.860872" lon="0.569069">
        <ele>300.817</ele>
        <time>2018-11-24T13:17:36Z</time>
      </trkpt>
      <trkpt lat="41.860727" lon="0.569313">
        <ele>300.669</ele>
        <time>2018-11-24T13:17:37Z</time>
      </trkpt>
      <trkpt lat="41.860579" lon="0.569553">
        <ele>300.882</ele>
        <time>2018-11-24T13:17:38Z</time>
      </trkpt>
      <trkpt lat="41.860424" lon="0.569785">
        <ele>300.886</ele>
        <time>2018-11-24T13:17:39Z</time>
      </trkpt>
      <trkpt lat="41.860259" lon="0.570003">
        <ele>300.861</ele>
        <time>2018-11-24T13:17:40Z</time>
      </trkpt>
      <trkpt lat="41.860086" lon="0.570209">
        <ele>300.921</ele>
        <time>2018-11-24T13:17:41Z</time>
      </trkpt>
      <trkpt lat="41.859903" lon="0.570401">
        <ele>300.813</ele>
        <time>2018-11-24T13:17:42Z</time>
      </trkpt>
      <trkpt lat="41.859712" lon="0.570580">
        <ele>300.408</ele>
        <time>2018-11-24T13:17:43Z</time>
      </trkpt>
      <trkpt lat="41.859514" lon="0.570744">
        <ele>299.989</ele>
        <time>2018-11-24T13:17:44Z</time>
      </trkpt>
      <trkpt lat="41.859312" lon="0.570894">
        <ele>299.566</ele>
        <time>2018-11-24T13:17:45Z</time>
      </trkpt>
      <trkpt lat="41.859097" lon="0.571016">
        <ele>299.273</ele>
        <time>2018-11-24T13:17:46Z</time>
      </trkpt>
      <trkpt lat="41.858880" lon="0.571119">
        <ele>298.814</ele>
        <time>2018-11-24T13:17:47Z</time>
      </trkpt>
      <trkpt lat="41.858659" lon="0.571215">
        <ele>298.622</ele>
        <time>2018-11-24T13:17:48Z</time>
      </trkpt>
      <trkpt lat="41.858427" lon="0.571274">
        <ele>298.394</ele>
        <time>2018-11-24T13:17:49Z</time>
      </trkpt>
      <trkpt lat="41.858201" lon="0.571328">
        <ele>298.067</ele>
        <time>2018-11-24T13:17:50Z</time>
      </trkpt>
      <trkpt lat="41.857973" lon="0.571375">
        <ele>297.851</ele>
        <time>2018-11-24T13:17:51Z</time>
      </trkpt>
      <trkpt lat="41.857744" lon="0.571381">
        <ele>297.482</ele>
        <time>2018-11-24T13:17:52Z</time>
      </trkpt>
      <trkpt lat="41.857516" lon="0.571397">
        <ele>297.043</ele>
        <time>2018-11-24T13:17:53Z</time>
      </trkpt>
      <trkpt lat="41.857283" lon="0.571405">
        <ele>296.917</ele>
        <time>2018-11-24T13:17:54Z</time>
      </trkpt>
      <trkpt lat="41.857050" lon="0.571411">
        <ele>296.608</ele>
        <time>2018-11-24T13:17:55Z</time>
      </trkpt>
      <trkpt lat="41.856816" lon="0.571413">
        <ele>296.231</ele>
        <time>2018-11-24T13:17:56Z</time>
      </trkpt>
      <trkpt lat="41.856582" lon="0.571418">
        <ele>295.858</ele>
        <time>2018-11-24T13:17:57Z</time>
      </trkpt>
      <trkpt lat="41.856346" lon="0.571426">
        <ele>295.455</ele>
        <time>2018-11-24T13:17:58Z</time>
      </trkpt>
      <trkpt lat="41.856121" lon="0.571429">
        <ele>295.046</ele>
        <time>2018-11-24T13:17:59Z</time>
      </trkpt>
      <trkpt lat="41.855889" lon="0.571439">
        <ele>294.724</ele>
        <time>2018-11-24T13:18:00Z</time>
      </trkpt>
      <trkpt lat="41.855661" lon="0.571451">
        <ele>294.446</ele>
        <time>2018-11-24T13:18:01Z</time>
      </trkpt>
      <trkpt lat="41.855428" lon="0.571472">
        <ele>294.119</ele>
        <time>2018-11-24T13:18:02Z</time>
      </trkpt>
      <trkpt lat="41.855197" lon="0.571498">
        <ele>293.663</ele>
        <time>2018-11-24T13:18:03Z</time>
      </trkpt>
      <trkpt lat="41.854971" lon="0.571543">
        <ele>293.327</ele>
        <time>2018-11-24T13:18:04Z</time>
      </trkpt>
      <trkpt lat="41.854741" lon="0.571609">
        <ele>292.968</ele>
        <time>2018-11-24T13:18:05Z</time>
      </trkpt>
      <trkpt lat="41.854512" lon="0.571684">
        <ele>292.714</ele>
        <time>2018-11-24T13:18:06Z</time>
      </trkpt>
      <trkpt lat="41.854285" lon="0.571770">
        <ele>292.308</ele>
        <time>2018-11-24T13:18:07Z</time>
      </trkpt>
      <trkpt lat="41.854064" lon="0.571854">
        <ele>292.075</ele>
        <time>2018-11-24T13:18:08Z</time>
      </trkpt>
      <trkpt lat="41.853839" lon="0.571945">
        <ele>291.722</ele>
        <time>2018-11-24T13:18:09Z</time>
      </trkpt>
      <trkpt lat="41.853614" lon="0.572034">
        <ele>291.579</ele>
        <time>2018-11-24T13:18:10Z</time>
      </trkpt>
      <trkpt lat="41.853388" lon="0.572123">
        <ele>291.260</ele>
        <time>2018-11-24T13:18:11Z</time>
      </trkpt>
      <trkpt lat="41.853165" lon="0.572217">
        <ele>290.968</ele>
        <time>2018-11-24T13:18:12Z</time>
      </trkpt>
      <trkpt lat="41.852943" lon="0.572313">
        <ele>290.960</ele>
        <time>2018-11-24T13:18:13Z</time>
      </trkpt>
      <trkpt lat="41.852721" lon="0.572409">
        <ele>290.793</ele>
        <time>2018-11-24T13:18:14Z</time>
      </trkpt>
      <trkpt lat="41.852500" lon="0.572497">
        <ele>290.637</ele>
        <time>2018-11-24T13:18:15Z</time>
      </trkpt>
      <trkpt lat="41.852276" lon="0.572585">
        <ele>290.671</ele>
        <time>2018-11-24T13:18:16Z</time>
      </trkpt>
      <trkpt lat="41.852044" lon="0.572633">
        <ele>290.341</ele>
        <time>2018-11-24T13:18:17Z</time>
      </trkpt>
      <trkpt lat="41.851813" lon="0.572660">
        <ele>290.115</ele>
        <time>2018-11-24T13:18:18Z</time>
      </trkpt>
      <trkpt lat="41.851584" lon="0.572658">
        <ele>290.008</ele>
        <time>2018-11-24T13:18:19Z</time>
      </trkpt>
      <trkpt lat="41.851353" lon="0.572641">
        <ele>290.250</ele>
        <time>2018-11-24T13:18:20Z</time>
      </trkpt>
      <trkpt lat="41.851122" lon="0.572610">
        <ele>290.147</ele>
        <time>2018-11-24T13:18:21Z</time>
      </trkpt>
      <trkpt lat="41.850888" lon="0.572575">
        <ele>290.194</ele>
        <time>2018-11-24T13:18:22Z</time>
      </trkpt>
      <trkpt lat="41.850655" lon="0.572547">
        <ele>289.875</ele>
        <time>2018-11-24T13:18:23Z</time>
      </trkpt>
      <trkpt lat="41.850423" lon="0.572517">
        <ele>289.673</ele>
        <time>2018-11-24T13:18:24Z</time>
      </trkpt>
      <trkpt lat="41.850191" lon="0.572492">
        <ele>289.315</ele>
        <time>2018-11-24T13:18:25Z</time>
      </trkpt>
      <trkpt lat="41.849958" lon="0.572462">
        <ele>289.298</ele>
        <time>2018-11-24T13:18:26Z</time>
      </trkpt>
      <trkpt lat="41.849723" lon="0.572433">
        <ele>288.952</ele>
        <time>2018-11-24T13:18:27Z</time>
      </trkpt>
      <trkpt lat="41.849493" lon="0.572400">
        <ele>288.641</ele>
        <time>2018-11-24T13:18:28Z</time>
      </trkpt>
      <trkpt lat="41.849262" lon="0.572369">
        <ele>288.581</ele>
        <time>2018-11-24T13:18:29Z</time>
      </trkpt>
      <trkpt lat="41.849030" lon="0.572339">
        <ele>288.509</ele>
        <time>2018-11-24T13:18:30Z</time>
      </trkpt>
      <trkpt lat="41.848798" lon="0.572311">
        <ele>288.508</ele>
        <time>2018-11-24T13:18:31Z</time>
      </trkpt>
      <trkpt lat="41.848568" lon="0.572281">
        <ele>288.527</ele>
        <time>2018-11-24T13:18:32Z</time>
      </trkpt>
      <trkpt lat="41.848338" lon="0.572249">
        <ele>288.754</ele>
        <time>2018-11-24T13:18:33Z</time>
      </trkpt>
      <trkpt lat="41.848108" lon="0.572216">
        <ele>288.451</ele>
        <time>2018-11-24T13:18:34Z</time>
      </trkpt>
      <trkpt lat="41.847877" lon="0.572183">
        <ele>288.312</ele>
        <time>2018-11-24T13:18:35Z</time>
      </trkpt>
      <trkpt lat="41.847647" lon="0.572151">
        <ele>288.440</ele>
        <time>2018-11-24T13:18:36Z</time>
      </trkpt>
      <trkpt lat="41.847416" lon="0.572121">
        <ele>288.452</ele>
        <time>2018-11-24T13:18:37Z</time>
      </trkpt>
      <trkpt lat="41.847184" lon="0.572089">
        <ele>288.375</ele>
        <time>2018-11-24T13:18:38Z</time>
      </trkpt>
      <trkpt lat="41.846954" lon="0.572056">
        <ele>288.069</ele>
        <time>2018-11-24T13:18:39Z</time>
      </trkpt>
      <trkpt lat="41.846724" lon="0.572020">
        <ele>287.724</ele>
        <time>2018-11-24T13:18:40Z</time>
      </trkpt>
      <trkpt lat="41.846492" lon="0.571982">
        <ele>287.604</ele>
        <time>2018-11-24T13:18:41Z</time>
      </trkpt>
      <trkpt lat="41.846262" lon="0.571936">
        <ele>287.214</ele>
        <time>2018-11-24T13:18:42Z</time>
      </trkpt>
      <trkpt lat="41.846034" lon="0.571883">
        <ele>286.908</ele>
        <time>2018-11-24T13:18:43Z</time>
      </trkpt>
      <trkpt lat="41.845805" lon="0.571828">
        <ele>286.735</ele>
        <time>2018-11-24T13:18:44Z</time>
      </trkpt>
      <trkpt lat="41.845576" lon="0.571769">
        <ele>286.552</ele>
        <time>2018-11-24T13:18:45Z</time>
      </trkpt>
      <trkpt lat="41.845348" lon="0.571708">
        <ele>286.379</ele>
        <time>2018-11-24T13:18:46Z</time>
      </trkpt>
      <trkpt lat="41.845122" lon="0.571646">
        <ele>286.250</ele>
        <time>2018-11-24T13:18:47Z</time>
      </trkpt>
      <trkpt lat="41.844900" lon="0.571587">
        <ele>285.888</ele>
        <time>2018-11-24T13:18:48Z</time>
      </trkpt>
      <trkpt lat="41.844678" lon="0.571533">
        <ele>285.470</ele>
        <time>2018-11-24T13:18:49Z</time>
      </trkpt>
      <trkpt lat="41.844458" lon="0.571472">
        <ele>285.323</ele>
        <time>2018-11-24T13:18:50Z</time>
      </trkpt>
      <trkpt lat="41.844236" lon="0.571418">
        <ele>285.267</ele>
        <time>2018-11-24T13:18:51Z</time>
      </trkpt>
      <trkpt lat="41.844016" lon="0.571364">
        <ele>285.363</ele>
        <time>2018-11-24T13:18:52Z</time>
      </trkpt>
      <trkpt lat="41.843801" lon="0.571321">
        <ele>285.144</ele>
        <time>2018-11-24T13:18:53Z</time>
      </trkpt>
      <trkpt lat="41.843587" lon="0.571274">
        <ele>285.018</ele>
        <time>2018-11-24T13:18:54Z</time>
      </trkpt>
      <trkpt lat="41.843378" lon="0.571238">
        <ele>284.708</ele>
        <time>2018-11-24T13:18:55Z</time>
      </trkpt>
      <trkpt lat="41.843180" lon="0.571219">
        <ele>284.699</ele>
        <time>2018-11-24T13:18:56Z</time>
      </trkpt>
      <trkpt lat="41.842982" lon="0.571202">
        <ele>284.446</ele>
        <time>2018-11-24T13:18:57Z</time>
      </trkpt>
      <trkpt lat="41.842798" lon="0.571176">
        <ele>284.253</ele>
        <time>2018-11-24T13:18:58Z</time>
      </trkpt>
      <trkpt lat="41.842628" lon="0.571151">
        <ele>283.694</ele>
        <time>2018-11-24T13:18:59Z</time>
      </trkpt>
      <trkpt lat="41.842475" lon="0.571122">
        <ele>283.172</ele>
        <time>2018-11-24T13:19:00Z</time>
      </trkpt>
      <trkpt lat="41.842340" lon="0.571084">
        <ele>282.874</ele>
        <time>2018-11-24T13:19:01Z</time>
      </trkpt>
      <trkpt lat="41.842222" lon="0.571044">
        <ele>282.537</ele>
        <time>2018-11-24T13:19:02Z</time>
      </trkpt>
      <trkpt lat="41.842117" lon="0.570998">
        <ele>282.371</ele>
        <time>2018-11-24T13:19:03Z</time>
      </trkpt>
      <trkpt lat="41.842020" lon="0.570946">
        <ele>282.276</ele>
        <time>2018-11-24T13:19:04Z</time>
      </trkpt>
      <trkpt lat="41.841929" lon="0.570897">
        <ele>282.190</ele>
        <time>2018-11-24T13:19:05Z</time>
      </trkpt>
      <trkpt lat="41.841845" lon="0.570847">
        <ele>282.219</ele>
        <time>2018-11-24T13:19:06Z</time>
      </trkpt>
      <trkpt lat="41.841764" lon="0.570801">
        <ele>282.208</ele>
        <time>2018-11-24T13:19:07Z</time>
      </trkpt>
      <trkpt lat="41.841687" lon="0.570756">
        <ele>282.240</ele>
        <time>2018-11-24T13:19:08Z</time>
      </trkpt>
      <trkpt lat="41.841614" lon="0.570712">
        <ele>282.367</ele>
        <time>2018-11-24T13:19:09Z</time>
      </trkpt>
      <trkpt lat="41.841547" lon="0.570671">
        <ele>282.494</ele>
        <time>2018-11-24T13:19:10Z</time>
      </trkpt>
      <trkpt lat="41.841482" lon="0.570632">
        <ele>282.585</ele>
        <time>2018-11-24T13:19:11Z</time>
      </trkpt>
      <trkpt lat="41.841420" lon="0.570594">
        <ele>282.653</ele>
        <time>2018-11-24T13:19:12Z</time>
      </trkpt>
      <trkpt lat="41.841359" lon="0.570557">
        <ele>282.765</ele>
        <time>2018-11-24T13:19:13Z</time>
      </trkpt>
      <trkpt lat="41.841299" lon="0.570521">
        <ele>282.828</ele>
        <time>2018-11-24T13:19:14Z</time>
      </trkpt>
      <trkpt lat="41.841239" lon="0.570485">
        <ele>283.072</ele>
        <time>2018-11-24T13:19:15Z</time>
      </trkpt>
      <trkpt lat="41.841177" lon="0.570446">
        <ele>283.156</ele>
        <time>2018-11-24T13:19:16Z</time>
      </trkpt>
      <trkpt lat="41.841113" lon="0.570407">
        <ele>283.459</ele>
        <time>2018-11-24T13:19:17Z</time>
      </trkpt>
      <trkpt lat="41.841045" lon="0.570368">
        <ele>283.614</ele>
        <time>2018-11-24T13:19:18Z</time>
      </trkpt>
      <trkpt lat="41.840980" lon="0.570323">
        <ele>283.708</ele>
        <time>2018-11-24T13:19:19Z</time>
      </trkpt>
      <trkpt lat="41.840914" lon="0.570282">
        <ele>283.918</ele>
        <time>2018-11-24T13:19:20Z</time>
      </trkpt>
      <trkpt lat="41.840840" lon="0.570248">
        <ele>284.135</ele>
        <time>2018-11-24T13:19:21Z</time>
      </trkpt>
      <trkpt lat="41.840788" lon="0.570174">
        <ele>284.192</ele>
        <time>2018-11-24T13:19:22Z</time>
      </trkpt>
      <trkpt lat="41.840745" lon="0.570078">
        <ele>284.133</ele>
        <time>2018-11-24T13:19:23Z</time>
      </trkpt>
      <trkpt lat="41.840694" lon="0.570004">
        <ele>284.281</ele>
        <time>2018-11-24T13:19:24Z</time>
      </trkpt>
      <trkpt lat="41.840639" lon="0.569932">
        <ele>284.353</ele>
        <time>2018-11-24T13:19:25Z</time>
      </trkpt>
      <trkpt lat="41.840567" lon="0.569891">
        <ele>284.636</ele>
        <time>2018-11-24T13:19:26Z</time>
      </trkpt>
      <trkpt lat="41.840484" lon="0.569881">
        <ele>284.740</ele>
        <time>2018-11-24T13:19:27Z</time>
      </trkpt>
      <trkpt lat="41.840404" lon="0.569890">
        <ele>284.887</ele>
        <time>2018-11-24T13:19:28Z</time>
      </trkpt>
      <trkpt lat="41.840323" lon="0.569886">
        <ele>284.742</ele>
        <time>2018-11-24T13:19:29Z</time>
      </trkpt>
      <trkpt lat="41.840247" lon="0.569867">
        <ele>284.726</ele>
        <time>2018-11-24T13:19:30Z</time>
      </trkpt>
      <trkpt lat="41.840168" lon="0.569826">
        <ele>284.708</ele>
        <time>2018-11-24T13:19:31Z</time>
      </trkpt>
      <trkpt lat="41.840079" lon="0.569794">
        <ele>284.891</ele>
        <time>2018-11-24T13:19:32Z</time>
      </trkpt>
      <trkpt lat="41.839984" lon="0.569768">
        <ele>285.198</ele>
        <time>2018-11-24T13:19:33Z</time>
      </trkpt>
      <trkpt lat="41.839868" lon="0.569716">
        <ele>285.515</ele>
        <time>2018-11-24T13:19:34Z</time>
      </trkpt>
      <trkpt lat="41.839740" lon="0.569640">
        <ele>286.196</ele>
        <time>2018-11-24T13:19:35Z</time>
      </trkpt>
      <trkpt lat="41.839600" lon="0.569560">
        <ele>286.194</ele>
        <time>2018-11-24T13:19:36Z</time>
      </trkpt>
      <trkpt lat="41.839461" lon="0.569474">
        <ele>286.126</ele>
        <time>2018-11-24T13:19:37Z</time>
      </trkpt>
      <trkpt lat="41.839312" lon="0.569370">
        <ele>286.589</ele>
        <time>2018-11-24T13:19:38Z</time>
      </trkpt>
      <trkpt lat="41.839147" lon="0.569259">
        <ele>286.883</ele>
        <time>2018-11-24T13:19:39Z</time>
      </trkpt>
      <trkpt lat="41.838981" lon="0.569152">
        <ele>287.086</ele>
        <time>2018-11-24T13:19:40Z</time>
      </trkpt>
      <trkpt lat="41.838806" lon="0.569035">
        <ele>287.260</ele>
        <time>2018-11-24T13:19:41Z</time>
      </trkpt>
      <trkpt lat="41.838622" lon="0.568928">
        <ele>287.126</ele>
        <time>2018-11-24T13:19:42Z</time>
      </trkpt>
      <trkpt lat="41.838442" lon="0.568822">
        <ele>287.008</ele>
        <time>2018-11-24T13:19:43Z</time>
      </trkpt>
      <trkpt lat="41.838261" lon="0.568714">
        <ele>287.091</ele>
        <time>2018-11-24T13:19:44Z</time>
      </trkpt>
      <trkpt lat="41.838072" lon="0.568603">
        <ele>286.518</ele>
        <time>2018-11-24T13:19:45Z</time>
      </trkpt>
      <trkpt lat="41.837881" lon="0.568490">
        <ele>286.725</ele>
        <time>2018-11-24T13:19:46Z</time>
      </trkpt>
      <trkpt lat="41.837688" lon="0.568373">
        <ele>286.546</ele>
        <time>2018-11-24T13:19:47Z</time>
      </trkpt>
      <trkpt lat="41.837496" lon="0.568256">
        <ele>286.574</ele>
        <time>2018-11-24T13:19:48Z</time>
      </trkpt>
      <trkpt lat="41.837302" lon="0.568140">
        <ele>286.656</ele>
        <time>2018-11-24T13:19:49Z</time>
      </trkpt>
      <trkpt lat="41.837106" lon="0.568025">
        <ele>286.539</ele>
        <time>2018-11-24T13:19:50Z</time>
      </trkpt>
      <trkpt lat="41.836910" lon="0.567908">
        <ele>286.363</ele>
        <time>2018-11-24T13:19:51Z</time>
      </trkpt>
      <trkpt lat="41.836713" lon="0.567791">
        <ele>286.186</ele>
        <time>2018-11-24T13:19:52Z</time>
      </trkpt>
      <trkpt lat="41.836516" lon="0.567681">
        <ele>286.260</ele>
        <time>2018-11-24T13:19:53Z</time>
      </trkpt>
      <trkpt lat="41.836310" lon="0.567595">
        <ele>286.126</ele>
        <time>2018-11-24T13:19:54Z</time>
      </trkpt>
      <trkpt lat="41.836098" lon="0.567541">
        <ele>286.208</ele>
        <time>2018-11-24T13:19:55Z</time>
      </trkpt>
      <trkpt lat="41.835881" lon="0.567519">
        <ele>286.221</ele>
        <time>2018-11-24T13:19:56Z</time>
      </trkpt>
      <trkpt lat="41.835664" lon="0.567568">
        <ele>286.228</ele>
        <time>2018-11-24T13:19:57Z</time>
      </trkpt>
      <trkpt lat="41.835449" lon="0.567622">
        <ele>286.485</ele>
        <time>2018-11-24T13:19:58Z</time>
      </trkpt>
      <trkpt lat="41.835255" lon="0.567747">
        <ele>286.426</ele>
        <time>2018-11-24T13:19:59Z</time>
      </trkpt>
      <trkpt lat="41.835071" lon="0.567906">
        <ele>286.454</ele>
        <time>2018-11-24T13:20:00Z</time>
      </trkpt>
      <trkpt lat="41.834892" lon="0.568075">
        <ele>286.476</ele>
        <time>2018-11-24T13:20:01Z</time>
      </trkpt>
      <trkpt lat="41.834718" lon="0.568251">
        <ele>286.469</ele>
        <time>2018-11-24T13:20:02Z</time>
      </trkpt>
      <trkpt lat="41.834546" lon="0.568411">
        <ele>286.333</ele>
        <time>2018-11-24T13:20:03Z</time>
      </trkpt>
      <trkpt lat="41.834379" lon="0.568566">
        <ele>285.926</ele>
        <time>2018-11-24T13:20:04Z</time>
      </trkpt>
      <trkpt lat="41.834200" lon="0.568666">
        <ele>285.547</ele>
        <time>2018-11-24T13:20:05Z</time>
      </trkpt>
      <trkpt lat="41.834013" lon="0.568752">
        <ele>285.311</ele>
        <time>2018-11-24T13:20:06Z</time>
      </trkpt>
      <trkpt lat="41.833834" lon="0.568817">
        <ele>284.708</ele>
        <time>2018-11-24T13:20:07Z</time>
      </trkpt>
      <trkpt lat="41.833665" lon="0.568847">
        <ele>284.435</ele>
        <time>2018-11-24T13:20:08Z</time>
      </trkpt>
      <trkpt lat="41.833496" lon="0.568875">
        <ele>284.242</ele>
        <time>2018-11-24T13:20:09Z</time>
      </trkpt>
      <trkpt lat="41.833330" lon="0.568869">
        <ele>284.029</ele>
        <time>2018-11-24T13:20:10Z</time>
      </trkpt>
      <trkpt lat="41.833172" lon="0.568854">
        <ele>283.860</ele>
        <time>2018-11-24T13:20:11Z</time>
      </trkpt>
      <trkpt lat="41.833015" lon="0.568827">
        <ele>283.678</ele>
        <time>2018-11-24T13:20:12Z</time>
      </trkpt>
      <trkpt lat="41.832858" lon="0.568811">
        <ele>283.470</ele>
        <time>2018-11-24T13:20:13Z</time>
      </trkpt>
      <trkpt lat="41.832710" lon="0.568774">
        <ele>283.193</ele>
        <time>2018-11-24T13:20:14Z</time>
      </trkpt>
      <trkpt lat="41.832558" lon="0.568760">
        <ele>282.967</ele>
        <time>2018-11-24T13:20:15Z</time>
      </trkpt>
      <trkpt lat="41.832411" lon="0.568745">
        <ele>282.749</ele>
        <time>2018-11-24T13:20:16Z</time>
      </trkpt>
      <trkpt lat="41.832264" lon="0.568729">
        <ele>282.502</ele>
        <time>2018-11-24T13:20:17Z</time>
      </trkpt>
      <trkpt lat="41.832125" lon="0.568710">
        <ele>282.122</ele>
        <time>2018-11-24T13:20:18Z</time>
      </trkpt>
      <trkpt lat="41.831985" lon="0.568699">
        <ele>281.908</ele>
        <time>2018-11-24T13:20:19Z</time>
      </trkpt>
      <trkpt lat="41.831850" lon="0.568683">
        <ele>281.837</ele>
        <time>2018-11-24T13:20:20Z</time>
      </trkpt>
      <trkpt lat="41.831718" lon="0.568679">
        <ele>281.674</ele>
        <time>2018-11-24T13:20:21Z</time>
      </trkpt>
      <trkpt lat="41.831584" lon="0.568670">
        <ele>281.511</ele>
        <time>2018-11-24T13:20:22Z</time>
      </trkpt>
      <trkpt lat="41.831451" lon="0.568663">
        <ele>281.562</ele>
        <time>2018-11-24T13:20:23Z</time>
      </trkpt>
      <trkpt lat="41.831321" lon="0.568647">
        <ele>281.460</ele>
        <time>2018-11-24T13:20:24Z</time>
      </trkpt>
      <trkpt lat="41.831196" lon="0.568635">
        <ele>281.342</ele>
        <time>2018-11-24T13:20:25Z</time>
      </trkpt>
      <trkpt lat="41.831077" lon="0.568627">
        <ele>281.015</ele>
        <time>2018-11-24T13:20:26Z</time>
      </trkpt>
      <trkpt lat="41.830973" lon="0.568612">
        <ele>280.699</ele>
        <time>2018-11-24T13:20:27Z</time>
      </trkpt>
      <trkpt lat="41.830880" lon="0.568580">
        <ele>280.478</ele>
        <time>2018-11-24T13:20:28Z</time>
      </trkpt>
      <trkpt lat="41.830795" lon="0.568531">
        <ele>280.433</ele>
        <time>2018-11-24T13:20:29Z</time>
      </trkpt>
      <trkpt lat="41.830708" lon="0.568503">
        <ele>280.426</ele>
        <time>2018-11-24T13:20:30Z</time>
      </trkpt>
      <trkpt lat="41.830624" lon="0.568509">
        <ele>280.308</ele>
        <time>2018-11-24T13:20:31Z</time>
      </trkpt>
      <trkpt lat="41.830534" lon="0.568525">
        <ele>280.050</ele>
        <time>2018-11-24T13:20:32Z</time>
      </trkpt>
      <trkpt lat="41.830445" lon="0.568574">
        <ele>279.727</ele>
        <time>2018-11-24T13:20:33Z</time>
      </trkpt>
      <trkpt lat="41.830342" lon="0.568555">
        <ele>279.554</ele>
        <time>2018-11-24T13:20:34Z</time>
      </trkpt>
      <trkpt lat="41.830250" lon="0.568583">
        <ele>279.225</ele>
        <time>2018-11-24T13:20:35Z</time>
      </trkpt>
      <trkpt lat="41.830151" lon="0.568601">
        <ele>279.073</ele>
        <time>2018-11-24T13:20:36Z</time>
      </trkpt>
      <trkpt lat="41.830051" lon="0.568639">
        <ele>278.835</ele>
        <time>2018-11-24T13:20:37Z</time>
      </trkpt>
      <trkpt lat="41.829970" lon="0.568648">
        <ele>278.368</ele>
        <time>2018-11-24T13:20:38Z</time>
      </trkpt>
      <trkpt lat="41.829911" lon="0.568657">
        <ele>277.972</ele>
        <time>2018-11-24T13:20:39Z</time>
      </trkpt>
      <trkpt lat="41.829845" lon="0.568686">
        <ele>277.539</ele>
        <time>2018-11-24T13:20:46Z</time>
      </trkpt>
      <trkpt lat="41.829777" lon="0.568711">
        <ele>277.601</ele>
        <time>2018-11-24T13:20:47Z</time>
      </trkpt>
      <trkpt lat="41.829716" lon="0.568723">
        <ele>277.621</ele>
        <time>2018-11-24T13:20:48Z</time>
      </trkpt>
      <trkpt lat="41.829650" lon="0.568735">
        <ele>277.508</ele>
        <time>2018-11-24T13:20:49Z</time>
      </trkpt>
      <trkpt lat="41.829580" lon="0.568750">
        <ele>277.476</ele>
        <time>2018-11-24T13:20:50Z</time>
      </trkpt>
      <trkpt lat="41.829500" lon="0.568771">
        <ele>277.243</ele>
        <time>2018-11-24T13:20:51Z</time>
      </trkpt>
      <trkpt lat="41.829417" lon="0.568793">
        <ele>277.390</ele>
        <time>2018-11-24T13:20:52Z</time>
      </trkpt>
      <trkpt lat="41.829329" lon="0.568838">
        <ele>277.481</ele>
        <time>2018-11-24T13:20:53Z</time>
      </trkpt>
      <trkpt lat="41.829229" lon="0.568864">
        <ele>277.189</ele>
        <time>2018-11-24T13:20:54Z</time>
      </trkpt>
      <trkpt lat="41.829127" lon="0.568895">
        <ele>277.021</ele>
        <time>2018-11-24T13:20:55Z</time>
      </trkpt>
      <trkpt lat="41.829024" lon="0.568922">
        <ele>276.834</ele>
        <time>2018-11-24T13:20:56Z</time>
      </trkpt>
      <trkpt lat="41.828916" lon="0.568941">
        <ele>276.738</ele>
        <time>2018-11-24T13:20:57Z</time>
      </trkpt>
      <trkpt lat="41.828807" lon="0.568967">
        <ele>276.681</ele>
        <time>2018-11-24T13:20:58Z</time>
      </trkpt>
      <trkpt lat="41.828694" lon="0.568994">
        <ele>276.661</ele>
        <time>2018-11-24T13:20:59Z</time>
      </trkpt>
      <trkpt lat="41.828577" lon="0.569024">
        <ele>276.517</ele>
        <time>2018-11-24T13:21:00Z</time>
      </trkpt>
      <trkpt lat="41.828456" lon="0.569054">
        <ele>276.508</ele>
        <time>2018-11-24T13:21:01Z</time>
      </trkpt>
      <trkpt lat="41.828334" lon="0.569083">
        <ele>276.531</ele>
        <time>2018-11-24T13:21:02Z</time>
      </trkpt>
      <trkpt lat="41.828214" lon="0.569112">
        <ele>276.388</ele>
        <time>2018-11-24T13:21:03Z</time>
      </trkpt>
      <trkpt lat="41.828096" lon="0.569141">
        <ele>276.125</ele>
        <time>2018-11-24T13:21:04Z</time>
      </trkpt>
      <trkpt lat="41.827977" lon="0.569162">
        <ele>276.026</ele>
        <time>2018-11-24T13:21:05Z</time>
      </trkpt>
      <trkpt lat="41.827855" lon="0.569183">
        <ele>276.054</ele>
        <time>2018-11-24T13:21:06Z</time>
      </trkpt>
      <trkpt lat="41.827735" lon="0.569203">
        <ele>275.876</ele>
        <time>2018-11-24T13:21:07Z</time>
      </trkpt>
      <trkpt lat="41.827617" lon="0.569214">
        <ele>275.759</ele>
        <time>2018-11-24T13:21:08Z</time>
      </trkpt>
      <trkpt lat="41.827498" lon="0.569217">
        <ele>275.683</ele>
        <time>2018-11-24T13:21:09Z</time>
      </trkpt>
      <trkpt lat="41.827380" lon="0.569210">
        <ele>275.514</ele>
        <time>2018-11-24T13:21:10Z</time>
      </trkpt>
      <trkpt lat="41.827259" lon="0.569170">
        <ele>275.754</ele>
        <time>2018-11-24T13:21:11Z</time>
      </trkpt>
      <trkpt lat="41.827139" lon="0.569169">
        <ele>275.509</ele>
        <time>2018-11-24T13:21:12Z</time>
      </trkpt>
      <trkpt lat="41.827017" lon="0.569166">
        <ele>275.408</ele>
        <time>2018-11-24T13:21:13Z</time>
      </trkpt>
      <trkpt lat="41.826898" lon="0.569157">
        <ele>275.354</ele>
        <time>2018-11-24T13:21:14Z</time>
      </trkpt>
      <trkpt lat="41.826780" lon="0.569152">
        <ele>275.391</ele>
        <time>2018-11-24T13:21:15Z</time>
      </trkpt>
      <trkpt lat="41.826663" lon="0.569127">
        <ele>275.258</ele>
        <time>2018-11-24T13:21:16Z</time>
      </trkpt>
      <trkpt lat="41.826544" lon="0.569100">
        <ele>275.189</ele>
        <time>2018-11-24T13:21:17Z</time>
      </trkpt>
      <trkpt lat="41.826427" lon="0.569070">
        <ele>275.177</ele>
        <time>2018-11-24T13:21:18Z</time>
      </trkpt>
      <trkpt lat="41.826306" lon="0.569043">
        <ele>275.219</ele>
        <time>2018-11-24T13:21:19Z</time>
      </trkpt>
      <trkpt lat="41.826181" lon="0.569026">
        <ele>275.182</ele>
        <time>2018-11-24T13:21:20Z</time>
      </trkpt>
      <trkpt lat="41.826049" lon="0.569006">
        <ele>275.026</ele>
        <time>2018-11-24T13:21:21Z</time>
      </trkpt>
      <trkpt lat="41.825930" lon="0.568984">
        <ele>275.092</ele>
        <time>2018-11-24T13:21:22Z</time>
      </trkpt>
      <trkpt lat="41.825814" lon="0.568934">
        <ele>275.073</ele>
        <time>2018-11-24T13:21:23Z</time>
      </trkpt>
      <trkpt lat="41.825701" lon="0.568874">
        <ele>275.020</ele>
        <time>2018-11-24T13:21:24Z</time>
      </trkpt>
      <trkpt lat="41.825582" lon="0.568852">
        <ele>275.008</ele>
        <time>2018-11-24T13:21:25Z</time>
      </trkpt>
      <trkpt lat="41.825459" lon="0.568819">
        <ele>275.272</ele>
        <time>2018-11-24T13:21:26Z</time>
      </trkpt>
      <trkpt lat="41.825319" lon="0.568799">
        <ele>275.649</ele>
        <time>2018-11-24T13:21:27Z</time>
      </trkpt>
      <trkpt lat="41.825165" lon="0.568780">
        <ele>276.076</ele>
        <time>2018-11-24T13:21:28Z</time>
      </trkpt>
      <trkpt lat="41.824991" lon="0.568775">
        <ele>276.477</ele>
        <time>2018-11-24T13:21:29Z</time>
      </trkpt>
      <trkpt lat="41.824817" lon="0.568776">
        <ele>276.515</ele>
        <time>2018-11-24T13:21:30Z</time>
      </trkpt>
      <trkpt lat="41.824644" lon="0.568780">
        <ele>276.397</ele>
        <time>2018-11-24T13:21:31Z</time>
      </trkpt>
      <trkpt lat="41.824465" lon="0.568788">
        <ele>276.310</ele>
        <time>2018-11-24T13:21:32Z</time>
      </trkpt>
      <trkpt lat="41.824280" lon="0.568793">
        <ele>276.634</ele>
        <time>2018-11-24T13:21:33Z</time>
      </trkpt>
      <trkpt lat="41.824086" lon="0.568782">
        <ele>277.058</ele>
        <time>2018-11-24T13:21:34Z</time>
      </trkpt>
      <trkpt lat="41.823886" lon="0.568763">
        <ele>277.252</ele>
        <time>2018-11-24T13:21:35Z</time>
      </trkpt>
      <trkpt lat="41.823672" lon="0.568742">
        <ele>277.317</ele>
        <time>2018-11-24T13:21:36Z</time>
      </trkpt>
      <trkpt lat="41.823450" lon="0.568726">
        <ele>277.508</ele>
        <time>2018-11-24T13:21:37Z</time>
      </trkpt>
      <trkpt lat="41.823228" lon="0.568727">
        <ele>277.538</ele>
        <time>2018-11-24T13:21:38Z</time>
      </trkpt>
      <trkpt lat="41.823007" lon="0.568751">
        <ele>277.585</ele>
        <time>2018-11-24T13:21:39Z</time>
      </trkpt>
      <trkpt lat="41.822784" lon="0.568799">
        <ele>277.632</ele>
        <time>2018-11-24T13:21:40Z</time>
      </trkpt>
      <trkpt lat="41.822555" lon="0.568857">
        <ele>277.843</ele>
        <time>2018-11-24T13:21:41Z</time>
      </trkpt>
      <trkpt lat="41.822326" lon="0.568958">
        <ele>278.051</ele>
        <time>2018-11-24T13:21:42Z</time>
      </trkpt>
      <trkpt lat="41.822106" lon="0.569069">
        <ele>278.083</ele>
        <time>2018-11-24T13:21:43Z</time>
      </trkpt>
      <trkpt lat="41.821885" lon="0.569178">
        <ele>278.296</ele>
        <time>2018-11-24T13:21:44Z</time>
      </trkpt>
      <trkpt lat="41.821657" lon="0.569280">
        <ele>278.470</ele>
        <time>2018-11-24T13:21:45Z</time>
      </trkpt>
      <trkpt lat="41.821430" lon="0.569366">
        <ele>278.364</ele>
        <time>2018-11-24T13:21:46Z</time>
      </trkpt>
      <trkpt lat="41.821200" lon="0.569426">
        <ele>278.406</ele>
        <time>2018-11-24T13:21:47Z</time>
      </trkpt>
      <trkpt lat="41.820966" lon="0.569463">
        <ele>278.616</ele>
        <time>2018-11-24T13:21:48Z</time>
      </trkpt>
      <trkpt lat="41.820728" lon="0.569481">
        <ele>278.808</ele>
        <time>2018-11-24T13:21:49Z</time>
      </trkpt>
      <trkpt lat="41.820489" lon="0.569478">
        <ele>279.269</ele>
        <time>2018-11-24T13:21:50Z</time>
      </trkpt>
      <trkpt lat="41.820247" lon="0.569455">
        <ele>279.516</ele>
        <time>2018-11-24T13:21:51Z</time>
      </trkpt>
      <trkpt lat="41.820000" lon="0.569416">
        <ele>280.363</ele>
        <time>2018-11-24T13:21:52Z</time>
      </trkpt>
      <trkpt lat="41.819747" lon="0.569372">
        <ele>281.054</ele>
        <time>2018-11-24T13:21:53Z</time>
      </trkpt>
      <trkpt lat="41.819494" lon="0.569330">
        <ele>281.532</ele>
        <time>2018-11-24T13:21:54Z</time>
      </trkpt>
      <trkpt lat="41.819240" lon="0.569296">
        <ele>282.244</ele>
        <time>2018-11-24T13:21:55Z</time>
      </trkpt>
      <trkpt lat="41.818985" lon="0.569280">
        <ele>282.837</ele>
        <time>2018-11-24T13:21:56Z</time>
      </trkpt>
      <trkpt lat="41.818730" lon="0.569286">
        <ele>283.191</ele>
        <time>2018-11-24T13:21:57Z</time>
      </trkpt>
      <trkpt lat="41.818476" lon="0.569293">
        <ele>283.584</ele>
        <time>2018-11-24T13:21:58Z</time>
      </trkpt>
      <trkpt lat="41.818226" lon="0.569349">
        <ele>283.807</ele>
        <time>2018-11-24T13:21:59Z</time>
      </trkpt>
      <trkpt lat="41.817981" lon="0.569428">
        <ele>283.617</ele>
        <time>2018-11-24T13:22:00Z</time>
      </trkpt>
      <trkpt lat="41.817736" lon="0.569532">
        <ele>283.608</ele>
        <time>2018-11-24T13:22:01Z</time>
      </trkpt>
      <trkpt lat="41.817499" lon="0.569667">
        <ele>283.741</ele>
        <time>2018-11-24T13:22:02Z</time>
      </trkpt>
      <trkpt lat="41.817260" lon="0.569802">
        <ele>283.768</ele>
        <time>2018-11-24T13:22:03Z</time>
      </trkpt>
      <trkpt lat="41.817026" lon="0.569976">
        <ele>283.685</ele>
        <time>2018-11-24T13:22:04Z</time>
      </trkpt>
      <trkpt lat="41.816801" lon="0.570151">
        <ele>283.266</ele>
        <time>2018-11-24T13:22:05Z</time>
      </trkpt>
      <trkpt lat="41.816570" lon="0.570319">
        <ele>282.864</ele>
        <time>2018-11-24T13:22:06Z</time>
      </trkpt>
      <trkpt lat="41.816344" lon="0.570486">
        <ele>282.476</ele>
        <time>2018-11-24T13:22:07Z</time>
      </trkpt>
      <trkpt lat="41.816115" lon="0.570647">
        <ele>282.299</ele>
        <time>2018-11-24T13:22:08Z</time>
      </trkpt>
      <trkpt lat="41.815888" lon="0.570804">
        <ele>282.023</ele>
        <time>2018-11-24T13:22:09Z</time>
      </trkpt>
      <trkpt lat="41.815661" lon="0.570962">
        <ele>281.652</ele>
        <time>2018-11-24T13:22:10Z</time>
      </trkpt>
      <trkpt lat="41.815434" lon="0.571117">
        <ele>281.353</ele>
        <time>2018-11-24T13:22:11Z</time>
      </trkpt>
      <trkpt lat="41.815206" lon="0.571264">
        <ele>280.908</ele>
        <time>2018-11-24T13:22:12Z</time>
      </trkpt>
      <trkpt lat="41.814978" lon="0.571411">
        <ele>281.008</ele>
        <time>2018-11-24T13:22:13Z</time>
      </trkpt>
      <trkpt lat="41.814744" lon="0.571545">
        <ele>281.088</ele>
        <time>2018-11-24T13:22:14Z</time>
      </trkpt>
      <trkpt lat="41.814504" lon="0.571660">
        <ele>281.095</ele>
        <time>2018-11-24T13:22:15Z</time>
      </trkpt>
      <trkpt lat="41.814259" lon="0.571753">
        <ele>280.972</ele>
        <time>2018-11-24T13:22:16Z</time>
      </trkpt>
      <trkpt lat="41.814014" lon="0.571823">
        <ele>280.573</ele>
        <time>2018-11-24T13:22:17Z</time>
      </trkpt>
      <trkpt lat="41.813769" lon="0.571886">
        <ele>280.071</ele>
        <time>2018-11-24T13:22:18Z</time>
      </trkpt>
      <trkpt lat="41.813524" lon="0.571898">
        <ele>279.883</ele>
        <time>2018-11-24T13:22:19Z</time>
      </trkpt>
      <trkpt lat="41.813279" lon="0.571904">
        <ele>279.796</ele>
        <time>2018-11-24T13:22:20Z</time>
      </trkpt>
      <trkpt lat="41.813034" lon="0.571893">
        <ele>279.780</ele>
        <time>2018-11-24T13:22:21Z</time>
      </trkpt>
      <trkpt lat="41.812791" lon="0.571873">
        <ele>279.868</ele>
        <time>2018-11-24T13:22:22Z</time>
      </trkpt>
      <trkpt lat="41.812551" lon="0.571846">
        <ele>280.142</ele>
        <time>2018-11-24T13:22:23Z</time>
      </trkpt>
      <trkpt lat="41.812312" lon="0.571825">
        <ele>280.526</ele>
        <time>2018-11-24T13:22:24Z</time>
      </trkpt>
      <trkpt lat="41.812074" lon="0.571797">
        <ele>280.908</ele>
        <time>2018-11-24T13:22:25Z</time>
      </trkpt>
      <trkpt lat="41.811833" lon="0.571768">
        <ele>281.659</ele>
        <time>2018-11-24T13:22:26Z</time>
      </trkpt>
      <trkpt lat="41.811593" lon="0.571738">
        <ele>282.316</ele>
        <time>2018-11-24T13:22:27Z</time>
      </trkpt>
      <trkpt lat="41.811358" lon="0.571706">
        <ele>282.833</ele>
        <time>2018-11-24T13:22:28Z</time>
      </trkpt>
      <trkpt lat="41.811130" lon="0.571675">
        <ele>282.934</ele>
        <time>2018-11-24T13:22:29Z</time>
      </trkpt>
      <trkpt lat="41.810903" lon="0.571643">
        <ele>283.042</ele>
        <time>2018-11-24T13:22:30Z</time>
      </trkpt>
      <trkpt lat="41.810676" lon="0.571607">
        <ele>283.064</ele>
        <time>2018-11-24T13:22:31Z</time>
      </trkpt>
      <trkpt lat="41.810453" lon="0.571565">
        <ele>282.857</ele>
        <time>2018-11-24T13:22:32Z</time>
      </trkpt>
      <trkpt lat="41.810233" lon="0.571523">
        <ele>282.571</ele>
        <time>2018-11-24T13:22:33Z</time>
      </trkpt>
      <trkpt lat="41.810018" lon="0.571483">
        <ele>282.211</ele>
        <time>2018-11-24T13:22:34Z</time>
      </trkpt>
      <trkpt lat="41.809806" lon="0.571440">
        <ele>281.721</ele>
        <time>2018-11-24T13:22:35Z</time>
      </trkpt>
      <trkpt lat="41.809598" lon="0.571396">
        <ele>281.403</ele>
        <time>2018-11-24T13:22:36Z</time>
      </trkpt>
      <trkpt lat="41.809396" lon="0.571353">
        <ele>281.308</ele>
        <time>2018-11-24T13:22:37Z</time>
      </trkpt>
      <trkpt lat="41.809195" lon="0.571312">
        <ele>281.164</ele>
        <time>2018-11-24T13:22:38Z</time>
      </trkpt>
      <trkpt lat="41.808998" lon="0.571272">
        <ele>280.721</ele>
        <time>2018-11-24T13:22:39Z</time>
      </trkpt>
      <trkpt lat="41.808805" lon="0.571235">
        <ele>280.548</ele>
        <time>2018-11-24T13:22:40Z</time>
      </trkpt>
      <trkpt lat="41.808619" lon="0.571201">
        <ele>280.019</ele>
        <time>2018-11-24T13:22:41Z</time>
      </trkpt>
      <trkpt lat="41.808438" lon="0.571171">
        <ele>279.747</ele>
        <time>2018-11-24T13:22:42Z</time>
      </trkpt>
      <trkpt lat="41.808259" lon="0.571145">
        <ele>279.449</ele>
        <time>2018-11-24T13:22:43Z</time>
      </trkpt>
      <trkpt lat="41.808079" lon="0.571125">
        <ele>279.312</ele>
        <time>2018-11-24T13:22:44Z</time>
      </trkpt>
      <trkpt lat="41.807900" lon="0.571110">
        <ele>279.166</ele>
        <time>2018-11-24T13:22:45Z</time>
      </trkpt>
      <trkpt lat="41.807723" lon="0.571099">
        <ele>278.932</ele>
        <time>2018-11-24T13:22:46Z</time>
      </trkpt>
      <trkpt lat="41.807549" lon="0.571091">
        <ele>278.892</ele>
        <time>2018-11-24T13:22:47Z</time>
      </trkpt>
      <trkpt lat="41.807379" lon="0.571087">
        <ele>278.511</ele>
        <time>2018-11-24T13:22:48Z</time>
      </trkpt>
      <trkpt lat="41.807212" lon="0.571090">
        <ele>278.208</ele>
        <time>2018-11-24T13:22:49Z</time>
      </trkpt>
      <trkpt lat="41.807049" lon="0.571099">
        <ele>278.076</ele>
        <time>2018-11-24T13:22:50Z</time>
      </trkpt>
      <trkpt lat="41.806892" lon="0.571113">
        <ele>277.623</ele>
        <time>2018-11-24T13:22:51Z</time>
      </trkpt>
      <trkpt lat="41.806744" lon="0.571128">
        <ele>277.220</ele>
        <time>2018-11-24T13:22:52Z</time>
      </trkpt>
      <trkpt lat="41.806609" lon="0.571139">
        <ele>276.831</ele>
        <time>2018-11-24T13:22:53Z</time>
      </trkpt>
      <trkpt lat="41.806486" lon="0.571142">
        <ele>276.459</ele>
        <time>2018-11-24T13:22:54Z</time>
      </trkpt>
      <trkpt lat="41.806369" lon="0.571088">
        <ele>276.141</ele>
        <time>2018-11-24T13:22:55Z</time>
      </trkpt>
      <trkpt lat="41.806275" lon="0.570979">
        <ele>276.384</ele>
        <time>2018-11-24T13:22:56Z</time>
      </trkpt>
      <trkpt lat="41.806196" lon="0.570852">
        <ele>276.328</ele>
        <time>2018-11-24T13:22:57Z</time>
      </trkpt>
      <trkpt lat="41.806163" lon="0.570689">
        <ele>276.565</ele>
        <time>2018-11-24T13:22:58Z</time>
      </trkpt>
      <trkpt lat="41.806158" lon="0.570514">
        <ele>276.768</ele>
        <time>2018-11-24T13:22:59Z</time>
      </trkpt>
      <trkpt lat="41.806169" lon="0.570317">
        <ele>277.014</ele>
        <time>2018-11-24T13:23:00Z</time>
      </trkpt>
      <trkpt lat="41.806207" lon="0.570095">
        <ele>277.808</ele>
        <time>2018-11-24T13:23:01Z</time>
      </trkpt>
      <trkpt lat="41.806237" lon="0.569844">
        <ele>278.559</ele>
        <time>2018-11-24T13:23:02Z</time>
      </trkpt>
      <trkpt lat="41.806267" lon="0.569591">
        <ele>279.036</ele>
        <time>2018-11-24T13:23:03Z</time>
      </trkpt>
      <trkpt lat="41.806294" lon="0.569332">
        <ele>279.863</ele>
        <time>2018-11-24T13:23:04Z</time>
      </trkpt>
      <trkpt lat="41.806327" lon="0.569060">
        <ele>281.564</ele>
        <time>2018-11-24T13:23:05Z</time>
      </trkpt>
      <trkpt lat="41.806359" lon="0.568767">
        <ele>283.182</ele>
        <time>2018-11-24T13:23:06Z</time>
      </trkpt>
      <trkpt lat="41.806389" lon="0.568459">
        <ele>285.194</ele>
        <time>2018-11-24T13:23:07Z</time>
      </trkpt>
      <trkpt lat="41.806420" lon="0.568137">
        <ele>287.577</ele>
        <time>2018-11-24T13:23:08Z</time>
      </trkpt>
      <trkpt lat="41.806451" lon="0.567820">
        <ele>289.181</ele>
        <time>2018-11-24T13:23:09Z</time>
      </trkpt>
      <trkpt lat="41.806480" lon="0.567511">
        <ele>290.988</ele>
        <time>2018-11-24T13:23:10Z</time>
      </trkpt>
      <trkpt lat="41.806509" lon="0.567195">
        <ele>292.724</ele>
        <time>2018-11-24T13:23:11Z</time>
      </trkpt>
      <trkpt lat="41.806537" lon="0.566877">
        <ele>295.226</ele>
        <time>2018-11-24T13:23:12Z</time>
      </trkpt>
      <trkpt lat="41.806563" lon="0.566552">
        <ele>297.208</ele>
        <time>2018-11-24T13:23:13Z</time>
      </trkpt>
      <trkpt lat="41.806576" lon="0.566221">
        <ele>299.261</ele>
        <time>2018-11-24T13:23:14Z</time>
      </trkpt>
      <trkpt lat="41.806575" lon="0.565887">
        <ele>301.818</ele>
        <time>2018-11-24T13:23:15Z</time>
      </trkpt>
      <trkpt lat="41.806552" lon="0.565546">
        <ele>304.255</ele>
        <time>2018-11-24T13:23:16Z</time>
      </trkpt>
      <trkpt lat="41.806520" lon="0.565202">
        <ele>306.516</ele>
        <time>2018-11-24T13:23:17Z</time>
      </trkpt>
      <trkpt lat="41.806447" lon="0.564863">
        <ele>309.244</ele>
        <time>2018-11-24T13:23:18Z</time>
      </trkpt>
      <trkpt lat="41.806360" lon="0.564521">
        <ele>311.416</ele>
        <time>2018-11-24T13:23:19Z</time>
      </trkpt>
      <trkpt lat="41.806263" lon="0.564176">
        <ele>313.799</ele>
        <time>2018-11-24T13:23:20Z</time>
      </trkpt>
      <trkpt lat="41.806144" lon="0.563842">
        <ele>315.963</ele>
        <time>2018-11-24T13:23:21Z</time>
      </trkpt>
      <trkpt lat="41.806013" lon="0.563510">
        <ele>318.839</ele>
        <time>2018-11-24T13:23:22Z</time>
      </trkpt>
      <trkpt lat="41.805865" lon="0.563190">
        <ele>321.101</ele>
        <time>2018-11-24T13:23:23Z</time>
      </trkpt>
      <trkpt lat="41.805702" lon="0.562876">
        <ele>323.821</ele>
        <time>2018-11-24T13:23:24Z</time>
      </trkpt>
      <trkpt lat="41.805529" lon="0.562571">
        <ele>326.208</ele>
        <time>2018-11-24T13:23:25Z</time>
      </trkpt>
      <trkpt lat="41.805325" lon="0.562298">
        <ele>328.946</ele>
        <time>2018-11-24T13:23:26Z</time>
      </trkpt>
      <trkpt lat="41.805122" lon="0.562026">
        <ele>330.843</ele>
        <time>2018-11-24T13:23:27Z</time>
      </trkpt>
      <trkpt lat="41.804886" lon="0.561799">
        <ele>333.480</ele>
        <time>2018-11-24T13:23:28Z</time>
      </trkpt>
      <trkpt lat="41.804643" lon="0.561609">
        <ele>335.481</ele>
        <time>2018-11-24T13:23:29Z</time>
      </trkpt>
      <trkpt lat="41.804402" lon="0.561450">
        <ele>337.519</ele>
        <time>2018-11-24T13:23:30Z</time>
      </trkpt>
      <trkpt lat="41.804174" lon="0.561292">
        <ele>339.141</ele>
        <time>2018-11-24T13:23:31Z</time>
      </trkpt>
      <trkpt lat="41.803953" lon="0.561153">
        <ele>340.964</ele>
        <time>2018-11-24T13:23:32Z</time>
      </trkpt>
      <trkpt lat="41.803733" lon="0.561010">
        <ele>343.028</ele>
        <time>2018-11-24T13:23:33Z</time>
      </trkpt>
      <trkpt lat="41.803514" lon="0.560873">
        <ele>344.941</ele>
        <time>2018-11-24T13:23:34Z</time>
      </trkpt>
      <trkpt lat="41.803305" lon="0.560733">
        <ele>346.581</ele>
        <time>2018-11-24T13:23:35Z</time>
      </trkpt>
      <trkpt lat="41.803096" lon="0.560603">
        <ele>348.609</ele>
        <time>2018-11-24T13:23:36Z</time>
      </trkpt>
      <trkpt lat="41.802882" lon="0.560470">
        <ele>350.308</ele>
        <time>2018-11-24T13:23:37Z</time>
      </trkpt>
      <trkpt lat="41.802674" lon="0.560339">
        <ele>352.387</ele>
        <time>2018-11-24T13:23:38Z</time>
      </trkpt>
      <trkpt lat="41.802463" lon="0.560223">
        <ele>354.034</ele>
        <time>2018-11-24T13:23:39Z</time>
      </trkpt>
      <trkpt lat="41.802257" lon="0.560087">
        <ele>356.191</ele>
        <time>2018-11-24T13:23:40Z</time>
      </trkpt>
      <trkpt lat="41.802056" lon="0.559960">
        <ele>357.872</ele>
        <time>2018-11-24T13:23:41Z</time>
      </trkpt>
      <trkpt lat="41.801858" lon="0.559839">
        <ele>359.430</ele>
        <time>2018-11-24T13:23:42Z</time>
      </trkpt>
      <trkpt lat="41.801672" lon="0.559698">
        <ele>360.582</ele>
        <time>2018-11-24T13:23:43Z</time>
      </trkpt>
      <trkpt lat="41.801503" lon="0.559532">
        <ele>361.565</ele>
        <time>2018-11-24T13:23:44Z</time>
      </trkpt>
      <trkpt lat="41.801346" lon="0.559337">
        <ele>362.239</ele>
        <time>2018-11-24T13:23:45Z</time>
      </trkpt>
      <trkpt lat="41.801197" lon="0.559135">
        <ele>362.717</ele>
        <time>2018-11-24T13:23:46Z</time>
      </trkpt>
      <trkpt lat="41.801080" lon="0.558904">
        <ele>363.087</ele>
        <time>2018-11-24T13:23:47Z</time>
      </trkpt>
      <trkpt lat="41.800980" lon="0.558657">
        <ele>362.915</ele>
        <time>2018-11-24T13:23:48Z</time>
      </trkpt>
      <trkpt lat="41.800897" lon="0.558398">
        <ele>362.908</ele>
        <time>2018-11-24T13:23:49Z</time>
      </trkpt>
      <trkpt lat="41.800850" lon="0.558121">
        <ele>362.974</ele>
        <time>2018-11-24T13:23:50Z</time>
      </trkpt>
      <trkpt lat="41.800813" lon="0.557833">
        <ele>363.151</ele>
        <time>2018-11-24T13:23:51Z</time>
      </trkpt>
      <trkpt lat="41.800804" lon="0.557521">
        <ele>363.488</ele>
        <time>2018-11-24T13:23:52Z</time>
      </trkpt>
      <trkpt lat="41.800780" lon="0.557225">
        <ele>363.299</ele>
        <time>2018-11-24T13:23:53Z</time>
      </trkpt>
      <trkpt lat="41.800749" lon="0.556930">
        <ele>363.087</ele>
        <time>2018-11-24T13:23:54Z</time>
      </trkpt>
      <trkpt lat="41.800710" lon="0.556635">
        <ele>363.339</ele>
        <time>2018-11-24T13:23:55Z</time>
      </trkpt>
      <trkpt lat="41.800678" lon="0.556331">
        <ele>363.432</ele>
        <time>2018-11-24T13:23:56Z</time>
      </trkpt>
      <trkpt lat="41.800639" lon="0.556034">
        <ele>363.516</ele>
        <time>2018-11-24T13:23:57Z</time>
      </trkpt>
      <trkpt lat="41.800585" lon="0.555750">
        <ele>363.469</ele>
        <time>2018-11-24T13:23:58Z</time>
      </trkpt>
      <trkpt lat="41.800515" lon="0.555466">
        <ele>363.304</ele>
        <time>2018-11-24T13:23:59Z</time>
      </trkpt>
      <trkpt lat="41.800399" lon="0.555201">
        <ele>363.224</ele>
        <time>2018-11-24T13:24:00Z</time>
      </trkpt>
      <trkpt lat="41.800251" lon="0.554963">
        <ele>363.108</ele>
        <time>2018-11-24T13:24:01Z</time>
      </trkpt>
      <trkpt lat="41.800087" lon="0.554746">
        <ele>362.959</ele>
        <time>2018-11-24T13:24:02Z</time>
      </trkpt>
      <trkpt lat="41.799906" lon="0.554538">
        <ele>362.816</ele>
        <time>2018-11-24T13:24:03Z</time>
      </trkpt>
      <trkpt lat="41.799707" lon="0.554388">
        <ele>362.933</ele>
        <time>2018-11-24T13:24:04Z</time>
      </trkpt>
      <trkpt lat="41.799494" lon="0.554278">
        <ele>362.964</ele>
        <time>2018-11-24T13:24:05Z</time>
      </trkpt>
      <trkpt lat="41.799274" lon="0.554201">
        <ele>362.882</ele>
        <time>2018-11-24T13:24:06Z</time>
      </trkpt>
      <trkpt lat="41.799055" lon="0.554148">
        <ele>362.684</ele>
        <time>2018-11-24T13:24:07Z</time>
      </trkpt>
      <trkpt lat="41.798837" lon="0.554139">
        <ele>362.387</ele>
        <time>2018-11-24T13:24:08Z</time>
      </trkpt>
      <trkpt lat="41.798615" lon="0.554141">
        <ele>361.851</ele>
        <time>2018-11-24T13:24:09Z</time>
      </trkpt>
      <trkpt lat="41.798402" lon="0.554144">
        <ele>361.579</ele>
        <time>2018-11-24T13:24:10Z</time>
      </trkpt>
      <trkpt lat="41.798190" lon="0.554136">
        <ele>361.305</ele>
        <time>2018-11-24T13:24:11Z</time>
      </trkpt>
      <trkpt lat="41.797981" lon="0.554127">
        <ele>361.125</ele>
        <time>2018-11-24T13:24:12Z</time>
      </trkpt>
      <trkpt lat="41.797773" lon="0.554120">
        <ele>361.008</ele>
        <time>2018-11-24T13:24:13Z</time>
      </trkpt>
      <trkpt lat="41.797570" lon="0.554115">
        <ele>360.750</ele>
        <time>2018-11-24T13:24:14Z</time>
      </trkpt>
      <trkpt lat="41.797370" lon="0.554112">
        <ele>360.677</ele>
        <time>2018-11-24T13:24:15Z</time>
      </trkpt>
      <trkpt lat="41.797173" lon="0.554114">
        <ele>360.514</ele>
        <time>2018-11-24T13:24:16Z</time>
      </trkpt>
      <trkpt lat="41.796980" lon="0.554132">
        <ele>360.495</ele>
        <time>2018-11-24T13:24:17Z</time>
      </trkpt>
      <trkpt lat="41.796785" lon="0.554179">
        <ele>360.453</ele>
        <time>2018-11-24T13:24:18Z</time>
      </trkpt>
      <trkpt lat="41.796589" lon="0.554249">
        <ele>360.595</ele>
        <time>2018-11-24T13:24:19Z</time>
      </trkpt>
      <trkpt lat="41.796399" lon="0.554333">
        <ele>360.348</ele>
        <time>2018-11-24T13:24:20Z</time>
      </trkpt>
      <trkpt lat="41.796231" lon="0.554455">
        <ele>360.032</ele>
        <time>2018-11-24T13:24:21Z</time>
      </trkpt>
      <trkpt lat="41.796076" lon="0.554580">
        <ele>359.582</ele>
        <time>2018-11-24T13:24:22Z</time>
      </trkpt>
      <trkpt lat="41.795934" lon="0.554684">
        <ele>358.843</ele>
        <time>2018-11-24T13:24:23Z</time>
      </trkpt>
      <trkpt lat="41.795788" lon="0.554764">
        <ele>358.517</ele>
        <time>2018-11-24T13:24:24Z</time>
      </trkpt>
      <trkpt lat="41.795637" lon="0.554820">
        <ele>358.408</ele>
        <time>2018-11-24T13:24:25Z</time>
      </trkpt>
      <trkpt lat="41.795489" lon="0.554854">
        <ele>358.351</ele>
        <time>2018-11-24T13:24:26Z</time>
      </trkpt>
      <trkpt lat="41.795340" lon="0.554862">
        <ele>358.018</ele>
        <time>2018-11-24T13:24:27Z</time>
      </trkpt>
      <trkpt lat="41.795203" lon="0.554853">
        <ele>357.615</ele>
        <time>2018-11-24T13:24:28Z</time>
      </trkpt>
      <trkpt lat="41.795078" lon="0.554831">
        <ele>357.146</ele>
        <time>2018-11-24T13:24:29Z</time>
      </trkpt>
      <trkpt lat="41.794970" lon="0.554797">
        <ele>356.754</ele>
        <time>2018-11-24T13:24:30Z</time>
      </trkpt>
      <trkpt lat="41.794874" lon="0.554758">
        <ele>356.446</ele>
        <time>2018-11-24T13:24:31Z</time>
      </trkpt>
      <trkpt lat="41.794789" lon="0.554704">
        <ele>356.329</ele>
        <time>2018-11-24T13:24:32Z</time>
      </trkpt>
      <trkpt lat="41.794710" lon="0.554643">
        <ele>356.443</ele>
        <time>2018-11-24T13:24:33Z</time>
      </trkpt>
      <trkpt lat="41.794660" lon="0.554534">
        <ele>356.642</ele>
        <time>2018-11-24T13:24:34Z</time>
      </trkpt>
      <trkpt lat="41.794619" lon="0.554414">
        <ele>356.622</ele>
        <time>2018-11-24T13:24:35Z</time>
      </trkpt>
      <trkpt lat="41.794576" lon="0.554291">
        <ele>356.614</ele>
        <time>2018-11-24T13:24:36Z</time>
      </trkpt>
      <trkpt lat="41.794539" lon="0.554160">
        <ele>356.308</ele>
        <time>2018-11-24T13:24:37Z</time>
      </trkpt>
      <trkpt lat="41.794512" lon="0.554018">
        <ele>356.097</ele>
        <time>2018-11-24T13:24:38Z</time>
      </trkpt>
      <trkpt lat="41.794505" lon="0.553867">
        <ele>355.794</ele>
        <time>2018-11-24T13:24:39Z</time>
      </trkpt>
      <trkpt lat="41.794521" lon="0.553706">
        <ele>355.381</ele>
        <time>2018-11-24T13:24:40Z</time>
      </trkpt>
      <trkpt lat="41.794534" lon="0.553552">
        <ele>354.982</ele>
        <time>2018-11-24T13:24:41Z</time>
      </trkpt>
      <trkpt lat="41.794541" lon="0.553397">
        <ele>354.820</ele>
        <time>2018-11-24T13:24:42Z</time>
      </trkpt>
      <trkpt lat="41.794572" lon="0.553256">
        <ele>354.872</ele>
        <time>2018-11-24T13:24:43Z</time>
      </trkpt>
      <trkpt lat="41.794594" lon="0.553117">
        <ele>354.695</ele>
        <time>2018-11-24T13:24:44Z</time>
      </trkpt>
      <trkpt lat="41.794618" lon="0.552982">
        <ele>354.559</ele>
        <time>2018-11-24T13:24:45Z</time>
      </trkpt>
      <trkpt lat="41.794675" lon="0.552860">
        <ele>354.486</ele>
        <time>2018-11-24T13:24:46Z</time>
      </trkpt>
      <trkpt lat="41.794758" lon="0.552768">
        <ele>354.360</ele>
        <time>2018-11-24T13:24:47Z</time>
      </trkpt>
      <trkpt lat="41.794819" lon="0.552673">
        <ele>354.326</ele>
        <time>2018-11-24T13:24:48Z</time>
      </trkpt>
      <trkpt lat="41.794880" lon="0.552592">
        <ele>354.408</ele>
        <time>2018-11-24T13:24:49Z</time>
      </trkpt>
      <trkpt lat="41.794948" lon="0.552515">
        <ele>354.521</ele>
        <time>2018-11-24T13:24:50Z</time>
      </trkpt>
      <trkpt lat="41.794945" lon="0.552399">
        <ele>354.658</ele>
        <time>2018-11-24T13:24:51Z</time>
      </trkpt>
      <trkpt lat="41.794945" lon="0.552279">
        <ele>354.865</ele>
        <time>2018-11-24T13:24:52Z</time>
      </trkpt>
      <trkpt lat="41.794894" lon="0.552164">
        <ele>354.916</ele>
        <time>2018-11-24T13:24:53Z</time>
      </trkpt>
      <trkpt lat="41.794816" lon="0.552084">
        <ele>355.054</ele>
        <time>2018-11-24T13:24:54Z</time>
      </trkpt>
      <trkpt lat="41.794727" lon="0.552054">
        <ele>355.086</ele>
        <time>2018-11-24T13:24:55Z</time>
      </trkpt>
      <trkpt lat="41.794632" lon="0.552057">
        <ele>354.849</ele>
        <time>2018-11-24T13:24:56Z</time>
      </trkpt>
      <trkpt lat="41.794550" lon="0.552096">
        <ele>354.743</ele>
        <time>2018-11-24T13:24:57Z</time>
      </trkpt>
      <trkpt lat="41.794489" lon="0.552197">
        <ele>354.617</ele>
        <time>2018-11-24T13:24:58Z</time>
      </trkpt>
      <trkpt lat="41.794447" lon="0.552321">
        <ele>354.687</ele>
        <time>2018-11-24T13:24:59Z</time>
      </trkpt>
      <trkpt lat="41.794407" lon="0.552443">
        <ele>354.515</ele>
        <time>2018-11-24T13:25:00Z</time>
      </trkpt>
      <trkpt lat="41.794342" lon="0.552563">
        <ele>354.508</ele>
        <time>2018-11-24T13:25:01Z</time>
      </trkpt>
      <trkpt lat="41.794265" lon="0.552679">
        <ele>354.714</ele>
        <time>2018-11-24T13:25:02Z</time>
      </trkpt>
      <trkpt lat="41.794158" lon="0.552764">
        <ele>355.331</ele>
        <time>2018-11-24T13:25:03Z</time>
      </trkpt>
      <trkpt lat="41.794036" lon="0.552827">
        <ele>356.198</ele>
        <time>2018-11-24T13:25:04Z</time>
      </trkpt>
      <trkpt lat="41.793896" lon="0.552888">
        <ele>357.019</ele>
        <time>2018-11-24T13:25:05Z</time>
      </trkpt>
      <trkpt lat="41.793750" lon="0.552945">
        <ele>358.377</ele>
        <time>2018-11-24T13:25:06Z</time>
      </trkpt>
      <trkpt lat="41.793603" lon="0.553001">
        <ele>359.249</ele>
        <time>2018-11-24T13:25:07Z</time>
      </trkpt>
      <trkpt lat="41.793455" lon="0.553041">
        <ele>360.232</ele>
        <time>2018-11-24T13:25:08Z</time>
      </trkpt>
      <trkpt lat="41.793300" lon="0.553072">
        <ele>361.056</ele>
        <time>2018-11-24T13:25:09Z</time>
      </trkpt>
      <trkpt lat="41.793126" lon="0.553092">
        <ele>361.886</ele>
        <time>2018-11-24T13:25:10Z</time>
      </trkpt>
      <trkpt lat="41.792949" lon="0.553109">
        <ele>362.560</ele>
        <time>2018-11-24T13:25:11Z</time>
      </trkpt>
      <trkpt lat="41.792764" lon="0.553122">
        <ele>363.026</ele>
        <time>2018-11-24T13:25:12Z</time>
      </trkpt>
      <trkpt lat="41.792569" lon="0.553137">
        <ele>363.508</ele>
        <time>2018-11-24T13:25:13Z</time>
      </trkpt>
      <trkpt lat="41.792357" lon="0.553155">
        <ele>364.411</ele>
        <time>2018-11-24T13:25:14Z</time>
      </trkpt>
      <trkpt lat="41.792130" lon="0.553166">
        <ele>365.068</ele>
        <time>2018-11-24T13:25:15Z</time>
      </trkpt>
      <trkpt lat="41.791888" lon="0.553177">
        <ele>365.795</ele>
        <time>2018-11-24T13:25:16Z</time>
      </trkpt>
      <trkpt lat="41.791637" lon="0.553189">
        <ele>366.226</ele>
        <time>2018-11-24T13:25:17Z</time>
      </trkpt>
      <trkpt lat="41.791387" lon="0.553196">
        <ele>366.384</ele>
        <time>2018-11-24T13:25:18Z</time>
      </trkpt>
      <trkpt lat="41.791128" lon="0.553221">
        <ele>366.546</ele>
        <time>2018-11-24T13:25:19Z</time>
      </trkpt>
      <trkpt lat="41.790859" lon="0.553256">
        <ele>367.159</ele>
        <time>2018-11-24T13:25:20Z</time>
      </trkpt>
      <trkpt lat="41.790582" lon="0.553287">
        <ele>367.993</ele>
        <time>2018-11-24T13:25:21Z</time>
      </trkpt>
      <trkpt lat="41.790296" lon="0.553305">
        <ele>368.477</ele>
        <time>2018-11-24T13:25:22Z</time>
      </trkpt>
      <trkpt lat="41.790001" lon="0.553319">
        <ele>369.061</ele>
        <time>2018-11-24T13:25:23Z</time>
      </trkpt>
      <trkpt lat="41.789708" lon="0.553333">
        <ele>369.527</ele>
        <time>2018-11-24T13:25:24Z</time>
      </trkpt>
      <trkpt lat="41.789412" lon="0.553350">
        <ele>369.808</ele>
        <time>2018-11-24T13:25:25Z</time>
      </trkpt>
      <trkpt lat="41.789116" lon="0.553367">
        <ele>370.220</ele>
        <time>2018-11-24T13:25:26Z</time>
      </trkpt>
      <trkpt lat="41.788820" lon="0.553383">
        <ele>370.957</ele>
        <time>2018-11-24T13:25:27Z</time>
      </trkpt>
      <trkpt lat="41.788524" lon="0.553401">
        <ele>371.314</ele>
        <time>2018-11-24T13:25:28Z</time>
      </trkpt>
      <trkpt lat="41.788229" lon="0.553420">
        <ele>370.945</ele>
        <time>2018-11-24T13:25:29Z</time>
      </trkpt>
      <trkpt lat="41.787933" lon="0.553443">
        <ele>370.253</ele>
        <time>2018-11-24T13:25:30Z</time>
      </trkpt>
      <trkpt lat="41.787637" lon="0.553468">
        <ele>369.885</ele>
        <time>2018-11-24T13:25:31Z</time>
      </trkpt>
      <trkpt lat="41.787341" lon="0.553495">
        <ele>370.068</ele>
        <time>2018-11-24T13:25:32Z</time>
      </trkpt>
      <trkpt lat="41.787045" lon="0.553521">
        <ele>370.172</ele>
        <time>2018-11-24T13:25:33Z</time>
      </trkpt>
      <trkpt lat="41.786750" lon="0.553546">
        <ele>370.312</ele>
        <time>2018-11-24T13:25:34Z</time>
      </trkpt>
      <trkpt lat="41.786454" lon="0.553570">
        <ele>370.432</ele>
        <time>2018-11-24T13:25:35Z</time>
      </trkpt>
      <trkpt lat="41.786158" lon="0.553591">
        <ele>370.305</ele>
        <time>2018-11-24T13:25:36Z</time>
      </trkpt>
      <trkpt lat="41.785862" lon="0.553609">
        <ele>370.208</ele>
        <time>2018-11-24T13:25:37Z</time>
      </trkpt>
      <trkpt lat="41.785566" lon="0.553637">
        <ele>370.024</ele>
        <time>2018-11-24T13:25:38Z</time>
      </trkpt>
      <trkpt lat="41.785272" lon="0.553674">
        <ele>369.961</ele>
        <time>2018-11-24T13:25:39Z</time>
      </trkpt>
      <trkpt lat="41.784978" lon="0.553713">
        <ele>369.768</ele>
        <time>2018-11-24T13:25:40Z</time>
      </trkpt>
      <trkpt lat="41.784684" lon="0.553752">
        <ele>369.469</ele>
        <time>2018-11-24T13:25:41Z</time>
      </trkpt>
      <trkpt lat="41.784390" lon="0.553792">
        <ele>369.267</ele>
        <time>2018-11-24T13:25:42Z</time>
      </trkpt>
      <trkpt lat="41.784096" lon="0.553834">
        <ele>369.219</ele>
        <time>2018-11-24T13:25:43Z</time>
      </trkpt>
      <trkpt lat="41.783802" lon="0.553879">
        <ele>369.052</ele>
        <time>2018-11-24T13:25:44Z</time>
      </trkpt>
      <trkpt lat="41.783509" lon="0.553927">
        <ele>369.166</ele>
        <time>2018-11-24T13:25:45Z</time>
      </trkpt>
      <trkpt lat="41.783216" lon="0.553976">
        <ele>368.916</ele>
        <time>2018-11-24T13:25:46Z</time>
      </trkpt>
      <trkpt lat="41.782923" lon="0.554027">
        <ele>368.976</ele>
        <time>2018-11-24T13:25:47Z</time>
      </trkpt>
      <trkpt lat="41.782633" lon="0.554080">
        <ele>368.713</ele>
        <time>2018-11-24T13:25:48Z</time>
      </trkpt>
      <trkpt lat="41.782345" lon="0.554134">
        <ele>368.508</ele>
        <time>2018-11-24T13:25:49Z</time>
      </trkpt>
      <trkpt lat="41.782057" lon="0.554189">
        <ele>368.354</ele>
        <time>2018-11-24T13:25:50Z</time>
      </trkpt>
      <trkpt lat="41.781769" lon="0.554243">
        <ele>368.371</ele>
        <time>2018-11-24T13:25:51Z</time>
      </trkpt>
      <trkpt lat="41.781481" lon="0.554301">
        <ele>368.338</ele>
        <time>2018-11-24T13:25:52Z</time>
      </trkpt>
      <trkpt lat="41.781193" lon="0.554361">
        <ele>368.139</ele>
        <time>2018-11-24T13:25:53Z</time>
      </trkpt>
      <trkpt lat="41.780905" lon="0.554423">
        <ele>368.047</ele>
        <time>2018-11-24T13:25:54Z</time>
      </trkpt>
      <trkpt lat="41.780617" lon="0.554486">
        <ele>367.899</ele>
        <time>2018-11-24T13:25:55Z</time>
      </trkpt>
      <trkpt lat="41.780329" lon="0.554550">
        <ele>367.682</ele>
        <time>2018-11-24T13:25:56Z</time>
      </trkpt>
      <trkpt lat="41.780041" lon="0.554616">
        <ele>367.616</ele>
        <time>2018-11-24T13:25:57Z</time>
      </trkpt>
      <trkpt lat="41.779754" lon="0.554685">
        <ele>367.445</ele>
        <time>2018-11-24T13:25:58Z</time>
      </trkpt>
      <trkpt lat="41.779467" lon="0.554756">
        <ele>367.147</ele>
        <time>2018-11-24T13:25:59Z</time>
      </trkpt>
      <trkpt lat="41.779180" lon="0.554827">
        <ele>367.011</ele>
        <time>2018-11-24T13:26:00Z</time>
      </trkpt>
      <trkpt lat="41.778893" lon="0.554901">
        <ele>366.908</ele>
        <time>2018-11-24T13:26:01Z</time>
      </trkpt>
      <trkpt lat="41.778608" lon="0.554974">
        <ele>366.827</ele>
        <time>2018-11-24T13:26:02Z</time>
      </trkpt>
      <trkpt lat="41.778318" lon="0.555054">
        <ele>366.624</ele>
        <time>2018-11-24T13:26:03Z</time>
      </trkpt>
      <trkpt lat="41.778026" lon="0.555132">
        <ele>366.791</ele>
        <time>2018-11-24T13:26:04Z</time>
      </trkpt>
      <trkpt lat="41.777741" lon="0.555215">
        <ele>366.682</ele>
        <time>2018-11-24T13:26:05Z</time>
      </trkpt>
      <trkpt lat="41.777452" lon="0.555297">
        <ele>366.380</ele>
        <time>2018-11-24T13:26:06Z</time>
      </trkpt>
      <trkpt lat="41.777166" lon="0.555379">
        <ele>366.492</ele>
        <time>2018-11-24T13:26:07Z</time>
      </trkpt>
      <trkpt lat="41.776881" lon="0.555464">
        <ele>366.495</ele>
        <time>2018-11-24T13:26:08Z</time>
      </trkpt>
      <trkpt lat="41.776595" lon="0.555550">
        <ele>366.169</ele>
        <time>2018-11-24T13:26:09Z</time>
      </trkpt>
      <trkpt lat="41.776312" lon="0.555640">
        <ele>365.926</ele>
        <time>2018-11-24T13:26:10Z</time>
      </trkpt>
      <trkpt lat="41.776027" lon="0.555732">
        <ele>365.847</ele>
        <time>2018-11-24T13:26:11Z</time>
      </trkpt>
      <trkpt lat="41.775744" lon="0.555825">
        <ele>365.811</ele>
        <time>2018-11-24T13:26:12Z</time>
      </trkpt>
      <trkpt lat="41.775460" lon="0.555920">
        <ele>366.008</ele>
        <time>2018-11-24T13:26:13Z</time>
      </trkpt>
      <trkpt lat="41.775177" lon="0.556017">
        <ele>365.565</ele>
        <time>2018-11-24T13:26:14Z</time>
      </trkpt>
      <trkpt lat="41.774893" lon="0.556115">
        <ele>365.312</ele>
        <time>2018-11-24T13:26:15Z</time>
      </trkpt>
      <trkpt lat="41.774610" lon="0.556212">
        <ele>365.319</ele>
        <time>2018-11-24T13:26:16Z</time>
      </trkpt>
      <trkpt lat="41.774326" lon="0.556310">
        <ele>365.170</ele>
        <time>2018-11-24T13:26:17Z</time>
      </trkpt>
      <trkpt lat="41.774044" lon="0.556411">
        <ele>364.928</ele>
        <time>2018-11-24T13:26:18Z</time>
      </trkpt>
      <trkpt lat="41.773762" lon="0.556515">
        <ele>364.660</ele>
        <time>2018-11-24T13:26:19Z</time>
      </trkpt>
      <trkpt lat="41.773481" lon="0.556621">
        <ele>364.743</ele>
        <time>2018-11-24T13:26:20Z</time>
      </trkpt>
      <trkpt lat="41.773201" lon="0.556730">
        <ele>364.727</ele>
        <time>2018-11-24T13:26:21Z</time>
      </trkpt>
      <trkpt lat="41.772921" lon="0.556840">
        <ele>364.757</ele>
        <time>2018-11-24T13:26:22Z</time>
      </trkpt>
      <trkpt lat="41.772641" lon="0.556949">
        <ele>364.900</ele>
        <time>2018-11-24T13:26:23Z</time>
      </trkpt>
      <trkpt lat="41.772362" lon="0.557057">
        <ele>364.820</ele>
        <time>2018-11-24T13:26:24Z</time>
      </trkpt>
      <trkpt lat="41.772083" lon="0.557168">
        <ele>364.508</ele>
        <time>2018-11-24T13:26:25Z</time>
      </trkpt>
      <trkpt lat="41.771804" lon="0.557282">
        <ele>364.278</ele>
        <time>2018-11-24T13:26:26Z</time>
      </trkpt>
      <trkpt lat="41.771525" lon="0.557398">
        <ele>364.395</ele>
        <time>2018-11-24T13:26:27Z</time>
      </trkpt>
      <trkpt lat="41.771247" lon="0.557515">
        <ele>364.172</ele>
        <time>2018-11-24T13:26:28Z</time>
      </trkpt>
      <trkpt lat="41.770969" lon="0.557635">
        <ele>364.133</ele>
        <time>2018-11-24T13:26:29Z</time>
      </trkpt>
      <trkpt lat="41.770693" lon="0.557758">
        <ele>364.021</ele>
        <time>2018-11-24T13:26:30Z</time>
      </trkpt>
      <trkpt lat="41.770415" lon="0.557880">
        <ele>364.013</ele>
        <time>2018-11-24T13:26:31Z</time>
      </trkpt>
      <trkpt lat="41.770138" lon="0.557999">
        <ele>363.916</ele>
        <time>2018-11-24T13:26:32Z</time>
      </trkpt>
      <trkpt lat="41.769859" lon="0.558117">
        <ele>363.610</ele>
        <time>2018-11-24T13:26:33Z</time>
      </trkpt>
      <trkpt lat="41.769580" lon="0.558233">
        <ele>363.535</ele>
        <time>2018-11-24T13:26:34Z</time>
      </trkpt>
      <trkpt lat="41.769306" lon="0.558341">
        <ele>363.786</ele>
        <time>2018-11-24T13:26:35Z</time>
      </trkpt>
      <trkpt lat="41.769028" lon="0.558450">
        <ele>363.614</ele>
        <time>2018-11-24T13:26:36Z</time>
      </trkpt>
      <trkpt lat="41.768751" lon="0.558554">
        <ele>363.308</ele>
        <time>2018-11-24T13:26:37Z</time>
      </trkpt>
      <trkpt lat="41.768476" lon="0.558665">
        <ele>363.176</ele>
        <time>2018-11-24T13:26:38Z</time>
      </trkpt>
      <trkpt lat="41.768201" lon="0.558775">
        <ele>362.863</ele>
        <time>2018-11-24T13:26:39Z</time>
      </trkpt>
      <trkpt lat="41.767923" lon="0.558879">
        <ele>362.790</ele>
        <time>2018-11-24T13:26:40Z</time>
      </trkpt>
      <trkpt lat="41.767648" lon="0.558982">
        <ele>362.531</ele>
        <time>2018-11-24T13:26:41Z</time>
      </trkpt>
      <trkpt lat="41.767370" lon="0.559084">
        <ele>362.459</ele>
        <time>2018-11-24T13:26:42Z</time>
      </trkpt>
      <trkpt lat="41.767090" lon="0.559181">
        <ele>362.231</ele>
        <time>2018-11-24T13:26:43Z</time>
      </trkpt>
      <trkpt lat="41.766810" lon="0.559280">
        <ele>362.324</ele>
        <time>2018-11-24T13:26:44Z</time>
      </trkpt>
      <trkpt lat="41.766531" lon="0.559378">
        <ele>362.358</ele>
        <time>2018-11-24T13:26:45Z</time>
      </trkpt>
      <trkpt lat="41.766252" lon="0.559473">
        <ele>362.269</ele>
        <time>2018-11-24T13:26:46Z</time>
      </trkpt>
      <trkpt lat="41.765973" lon="0.559567">
        <ele>362.104</ele>
        <time>2018-11-24T13:26:47Z</time>
      </trkpt>
      <trkpt lat="41.765693" lon="0.559659">
        <ele>361.824</ele>
        <time>2018-11-24T13:26:48Z</time>
      </trkpt>
      <trkpt lat="41.765414" lon="0.559752">
        <ele>361.908</ele>
        <time>2018-11-24T13:26:49Z</time>
      </trkpt>
      <trkpt lat="41.765135" lon="0.559843">
        <ele>361.899</ele>
        <time>2018-11-24T13:26:50Z</time>
      </trkpt>
      <trkpt lat="41.764855" lon="0.559933">
        <ele>361.526</ele>
        <time>2018-11-24T13:26:51Z</time>
      </trkpt>
      <trkpt lat="41.764575" lon="0.560020">
        <ele>361.363</ele>
        <time>2018-11-24T13:26:52Z</time>
      </trkpt>
      <trkpt lat="41.764295" lon="0.560106">
        <ele>361.244</ele>
        <time>2018-11-24T13:26:53Z</time>
      </trkpt>
      <trkpt lat="41.764013" lon="0.560190">
        <ele>361.022</ele>
        <time>2018-11-24T13:26:54Z</time>
      </trkpt>
      <trkpt lat="41.763731" lon="0.560271">
        <ele>361.014</ele>
        <time>2018-11-24T13:26:55Z</time>
      </trkpt>
      <trkpt lat="41.763449" lon="0.560350">
        <ele>360.827</ele>
        <time>2018-11-24T13:26:56Z</time>
      </trkpt>
      <trkpt lat="41.763167" lon="0.560427">
        <ele>360.651</ele>
        <time>2018-11-24T13:26:57Z</time>
      </trkpt>
      <trkpt lat="41.762884" lon="0.560501">
        <ele>360.573</ele>
        <time>2018-11-24T13:26:58Z</time>
      </trkpt>
      <trkpt lat="41.762600" lon="0.560573">
        <ele>360.485</ele>
        <time>2018-11-24T13:26:59Z</time>
      </trkpt>
      <trkpt lat="41.762317" lon="0.560645">
        <ele>360.413</ele>
        <time>2018-11-24T13:27:00Z</time>
      </trkpt>
      <trkpt lat="41.762034" lon="0.560718">
        <ele>360.308</ele>
        <time>2018-11-24T13:27:01Z</time>
      </trkpt>
      <trkpt lat="41.761751" lon="0.560791">
        <ele>360.380</ele>
        <time>2018-11-24T13:27:02Z</time>
      </trkpt>
      <trkpt lat="41.761468" lon="0.560860">
        <ele>360.227</ele>
        <time>2018-11-24T13:27:03Z</time>
      </trkpt>
      <trkpt lat="41.761184" lon="0.560925">
        <ele>360.294</ele>
        <time>2018-11-24T13:27:04Z</time>
      </trkpt>
      <trkpt lat="41.760900" lon="0.560989">
        <ele>360.335</ele>
        <time>2018-11-24T13:27:05Z</time>
      </trkpt>
      <trkpt lat="41.760616" lon="0.561051">
        <ele>360.153</ele>
        <time>2018-11-24T13:27:06Z</time>
      </trkpt>
      <trkpt lat="41.760332" lon="0.561113">
        <ele>359.985</ele>
        <time>2018-11-24T13:27:07Z</time>
      </trkpt>
      <trkpt lat="41.760048" lon="0.561175">
        <ele>359.858</ele>
        <time>2018-11-24T13:27:08Z</time>
      </trkpt>
      <trkpt lat="41.759764" lon="0.561234">
        <ele>359.572</ele>
        <time>2018-11-24T13:27:09Z</time>
      </trkpt>
      <trkpt lat="41.759479" lon="0.561291">
        <ele>359.261</ele>
        <time>2018-11-24T13:27:10Z</time>
      </trkpt>
      <trkpt lat="41.759194" lon="0.561346">
        <ele>359.021</ele>
        <time>2018-11-24T13:27:11Z</time>
      </trkpt>
      <trkpt lat="41.758910" lon="0.561400">
        <ele>358.913</ele>
        <time>2018-11-24T13:27:12Z</time>
      </trkpt>
      <trkpt lat="41.758625" lon="0.561453">
        <ele>358.708</ele>
        <time>2018-11-24T13:27:13Z</time>
      </trkpt>
      <trkpt lat="41.758340" lon="0.561505">
        <ele>358.439</ele>
        <time>2018-11-24T13:27:14Z</time>
      </trkpt>
      <trkpt lat="41.758055" lon="0.561555">
        <ele>358.546</ele>
        <time>2018-11-24T13:27:15Z</time>
      </trkpt>
      <trkpt lat="41.757770" lon="0.561603">
        <ele>358.753</ele>
        <time>2018-11-24T13:27:16Z</time>
      </trkpt>
      <trkpt lat="41.757484" lon="0.561650">
        <ele>358.884</ele>
        <time>2018-11-24T13:27:17Z</time>
      </trkpt>
      <trkpt lat="41.757198" lon="0.561694">
        <ele>358.622</ele>
        <time>2018-11-24T13:27:18Z</time>
      </trkpt>
      <trkpt lat="41.756912" lon="0.561736">
        <ele>358.414</ele>
        <time>2018-11-24T13:27:19Z</time>
      </trkpt>
      <trkpt lat="41.756626" lon="0.561776">
        <ele>358.337</ele>
        <time>2018-11-24T13:27:20Z</time>
      </trkpt>
      <trkpt lat="41.756340" lon="0.561814">
        <ele>358.291</ele>
        <time>2018-11-24T13:27:21Z</time>
      </trkpt>
      <trkpt lat="41.756054" lon="0.561850">
        <ele>357.999</ele>
        <time>2018-11-24T13:27:22Z</time>
      </trkpt>
      <trkpt lat="41.755767" lon="0.561884">
        <ele>357.807</ele>
        <time>2018-11-24T13:27:23Z</time>
      </trkpt>
      <trkpt lat="41.755480" lon="0.561915">
        <ele>357.727</ele>
        <time>2018-11-24T13:27:24Z</time>
      </trkpt>
      <trkpt lat="41.755191" lon="0.561946">
        <ele>357.508</ele>
        <time>2018-11-24T13:27:25Z</time>
      </trkpt>
      <trkpt lat="41.754901" lon="0.561977">
        <ele>357.522</ele>
        <time>2018-11-24T13:27:26Z</time>
      </trkpt>
      <trkpt lat="41.754614" lon="0.562009">
        <ele>357.469</ele>
        <time>2018-11-24T13:27:27Z</time>
      </trkpt>
      <trkpt lat="41.754325" lon="0.562041">
        <ele>357.316</ele>
        <time>2018-11-24T13:27:28Z</time>
      </trkpt>
      <trkpt lat="41.754038" lon="0.562069">
        <ele>357.377</ele>
        <time>2018-11-24T13:27:29Z</time>
      </trkpt>
      <trkpt lat="41.753747" lon="0.562095">
        <ele>357.255</ele>
        <time>2018-11-24T13:27:30Z</time>
      </trkpt>
      <trkpt lat="41.753460" lon="0.562118">
        <ele>357.177</ele>
        <time>2018-11-24T13:27:31Z</time>
      </trkpt>
      <trkpt lat="41.753172" lon="0.562137">
        <ele>357.090</ele>
        <time>2018-11-24T13:27:32Z</time>
      </trkpt>
      <trkpt lat="41.752883" lon="0.562152">
        <ele>356.774</ele>
        <time>2018-11-24T13:27:33Z</time>
      </trkpt>
      <trkpt lat="41.752594" lon="0.562167">
        <ele>356.615</ele>
        <time>2018-11-24T13:27:34Z</time>
      </trkpt>
      <trkpt lat="41.752305" lon="0.562183">
        <ele>356.565</ele>
        <time>2018-11-24T13:27:35Z</time>
      </trkpt>
      <trkpt lat="41.752017" lon="0.562197">
        <ele>356.411</ele>
        <time>2018-11-24T13:27:36Z</time>
      </trkpt>
      <trkpt lat="41.751727" lon="0.562209">
        <ele>356.208</ele>
        <time>2018-11-24T13:27:37Z</time>
      </trkpt>
      <trkpt lat="41.751440" lon="0.562221">
        <ele>356.294</ele>
        <time>2018-11-24T13:27:38Z</time>
      </trkpt>
      <trkpt lat="41.751152" lon="0.562233">
        <ele>356.121</ele>
        <time>2018-11-24T13:27:39Z</time>
      </trkpt>
      <trkpt lat="41.750864" lon="0.562242">
        <ele>355.918</ele>
        <time>2018-11-24T13:27:40Z</time>
      </trkpt>
      <trkpt lat="41.750576" lon="0.562248">
        <ele>355.839</ele>
        <time>2018-11-24T13:27:41Z</time>
      </trkpt>
      <trkpt lat="41.750288" lon="0.562253">
        <ele>355.597</ele>
        <time>2018-11-24T13:27:42Z</time>
      </trkpt>
      <trkpt lat="41.749999" lon="0.562256">
        <ele>355.349</ele>
        <time>2018-11-24T13:27:43Z</time>
      </trkpt>
      <trkpt lat="41.749712" lon="0.562256">
        <ele>355.062</ele>
        <time>2018-11-24T13:27:44Z</time>
      </trkpt>
      <trkpt lat="41.749424" lon="0.562254">
        <ele>355.026</ele>
        <time>2018-11-24T13:27:45Z</time>
      </trkpt>
      <trkpt lat="41.749137" lon="0.562251">
        <ele>355.013</ele>
        <time>2018-11-24T13:27:46Z</time>
      </trkpt>
      <trkpt lat="41.748849" lon="0.562246">
        <ele>355.143</ele>
        <time>2018-11-24T13:27:47Z</time>
      </trkpt>
      <trkpt lat="41.748561" lon="0.562239">
        <ele>354.907</ele>
        <time>2018-11-24T13:27:48Z</time>
      </trkpt>
      <trkpt lat="41.748274" lon="0.562231">
        <ele>354.608</ele>
        <time>2018-11-24T13:27:49Z</time>
      </trkpt>
      <trkpt lat="41.747987" lon="0.562221">
        <ele>354.574</ele>
        <time>2018-11-24T13:27:50Z</time>
      </trkpt>
      <trkpt lat="41.747699" lon="0.562209">
        <ele>354.591</ele>
        <time>2018-11-24T13:27:51Z</time>
      </trkpt>
      <trkpt lat="41.747411" lon="0.562197">
        <ele>354.558</ele>
        <time>2018-11-24T13:27:52Z</time>
      </trkpt>
      <trkpt lat="41.747123" lon="0.562184">
        <ele>354.469</ele>
        <time>2018-11-24T13:27:53Z</time>
      </trkpt>
      <trkpt lat="41.746836" lon="0.562172">
        <ele>354.457</ele>
        <time>2018-11-24T13:27:54Z</time>
      </trkpt>
      <trkpt lat="41.746549" lon="0.562158">
        <ele>354.269</ele>
        <time>2018-11-24T13:27:55Z</time>
      </trkpt>
      <trkpt lat="41.746262" lon="0.562142">
        <ele>354.262</ele>
        <time>2018-11-24T13:27:56Z</time>
      </trkpt>
      <trkpt lat="41.745975" lon="0.562124">
        <ele>354.196</ele>
        <time>2018-11-24T13:27:57Z</time>
      </trkpt>
      <trkpt lat="41.745688" lon="0.562104">
        <ele>353.931</ele>
        <time>2018-11-24T13:27:58Z</time>
      </trkpt>
      <trkpt lat="41.745401" lon="0.562081">
        <ele>353.861</ele>
        <time>2018-11-24T13:27:59Z</time>
      </trkpt>
      <trkpt lat="41.745114" lon="0.562056">
        <ele>353.607</ele>
        <time>2018-11-24T13:28:00Z</time>
      </trkpt>
      <trkpt lat="41.744827" lon="0.562029">
        <ele>353.608</ele>
        <time>2018-11-24T13:28:01Z</time>
      </trkpt>
      <trkpt lat="41.744540" lon="0.562000">
        <ele>353.386</ele>
        <time>2018-11-24T13:28:02Z</time>
      </trkpt>
      <trkpt lat="41.744253" lon="0.561971">
        <ele>353.153</ele>
        <time>2018-11-24T13:28:03Z</time>
      </trkpt>
      <trkpt lat="41.743965" lon="0.561940">
        <ele>352.930</ele>
        <time>2018-11-24T13:28:04Z</time>
      </trkpt>
      <trkpt lat="41.743678" lon="0.561905">
        <ele>352.851</ele>
        <time>2018-11-24T13:28:05Z</time>
      </trkpt>
      <trkpt lat="41.743392" lon="0.561869">
        <ele>352.949</ele>
        <time>2018-11-24T13:28:06Z</time>
      </trkpt>
      <trkpt lat="41.743105" lon="0.561830">
        <ele>352.711</ele>
        <time>2018-11-24T13:28:07Z</time>
      </trkpt>
      <trkpt lat="41.742819" lon="0.561790">
        <ele>352.594</ele>
        <time>2018-11-24T13:28:08Z</time>
      </trkpt>
      <trkpt lat="41.742533" lon="0.561750">
        <ele>352.448</ele>
        <time>2018-11-24T13:28:09Z</time>
      </trkpt>
      <trkpt lat="41.742246" lon="0.561709">
        <ele>352.558</ele>
        <time>2018-11-24T13:28:10Z</time>
      </trkpt>
      <trkpt lat="41.741960" lon="0.561668">
        <ele>352.452</ele>
        <time>2018-11-24T13:28:11Z</time>
      </trkpt>
      <trkpt lat="41.741680" lon="0.561605">
        <ele>352.317</ele>
        <time>2018-11-24T13:28:12Z</time>
      </trkpt>
      <trkpt lat="41.741398" lon="0.561559">
        <ele>352.208</ele>
        <time>2018-11-24T13:28:13Z</time>
      </trkpt>
      <trkpt lat="41.741115" lon="0.561515">
        <ele>351.928</ele>
        <time>2018-11-24T13:28:14Z</time>
      </trkpt>
      <trkpt lat="41.740829" lon="0.561468">
        <ele>351.855</ele>
        <time>2018-11-24T13:28:15Z</time>
      </trkpt>
      <trkpt lat="41.740543" lon="0.561420">
        <ele>351.862</ele>
        <time>2018-11-24T13:28:16Z</time>
      </trkpt>
      <trkpt lat="41.740263" lon="0.561371">
        <ele>351.763</ele>
        <time>2018-11-24T13:28:17Z</time>
      </trkpt>
      <trkpt lat="41.739980" lon="0.561320">
        <ele>351.431</ele>
        <time>2018-11-24T13:28:18Z</time>
      </trkpt>
      <trkpt lat="41.739696" lon="0.561265">
        <ele>351.213</ele>
        <time>2018-11-24T13:28:19Z</time>
      </trkpt>
      <trkpt lat="41.739414" lon="0.561206">
        <ele>350.936</ele>
        <time>2018-11-24T13:28:20Z</time>
      </trkpt>
      <trkpt lat="41.739127" lon="0.561147">
        <ele>350.950</ele>
        <time>2018-11-24T13:28:21Z</time>
      </trkpt>
      <trkpt lat="41.738843" lon="0.561086">
        <ele>350.937</ele>
        <time>2018-11-24T13:28:22Z</time>
      </trkpt>
      <trkpt lat="41.738560" lon="0.561023">
        <ele>350.749</ele>
        <time>2018-11-24T13:28:23Z</time>
      </trkpt>
      <trkpt lat="41.738277" lon="0.560960">
        <ele>350.313</ele>
        <time>2018-11-24T13:28:24Z</time>
      </trkpt>
      <trkpt lat="41.737994" lon="0.560898">
        <ele>350.208</ele>
        <time>2018-11-24T13:28:25Z</time>
      </trkpt>
      <trkpt lat="41.737711" lon="0.560835">
        <ele>350.366</ele>
        <time>2018-11-24T13:28:26Z</time>
      </trkpt>
      <trkpt lat="41.737427" lon="0.560772">
        <ele>350.343</ele>
        <time>2018-11-24T13:28:27Z</time>
      </trkpt>
      <trkpt lat="41.737144" lon="0.560715">
        <ele>350.030</ele>
        <time>2018-11-24T13:28:28Z</time>
      </trkpt>
      <trkpt lat="41.736861" lon="0.560662">
        <ele>349.821</ele>
        <time>2018-11-24T13:28:29Z</time>
      </trkpt>
      <trkpt lat="41.736573" lon="0.560616">
        <ele>349.849</ele>
        <time>2018-11-24T13:28:30Z</time>
      </trkpt>
      <trkpt lat="41.736286" lon="0.560566">
        <ele>349.871</ele>
        <time>2018-11-24T13:28:31Z</time>
      </trkpt>
      <trkpt lat="41.736004" lon="0.560516">
        <ele>349.614</ele>
        <time>2018-11-24T13:28:32Z</time>
      </trkpt>
      <trkpt lat="41.735714" lon="0.560471">
        <ele>349.318</ele>
        <time>2018-11-24T13:28:33Z</time>
      </trkpt>
      <trkpt lat="41.735430" lon="0.560420">
        <ele>349.159</ele>
        <time>2018-11-24T13:28:34Z</time>
      </trkpt>
      <trkpt lat="41.735149" lon="0.560372">
        <ele>349.303</ele>
        <time>2018-11-24T13:28:35Z</time>
      </trkpt>
      <trkpt lat="41.734862" lon="0.560325">
        <ele>349.423</ele>
        <time>2018-11-24T13:28:36Z</time>
      </trkpt>
      <trkpt lat="41.734577" lon="0.560282">
        <ele>349.408</ele>
        <time>2018-11-24T13:28:37Z</time>
      </trkpt>
      <trkpt lat="41.734292" lon="0.560235">
        <ele>349.398</ele>
        <time>2018-11-24T13:28:38Z</time>
      </trkpt>
      <trkpt lat="41.734005" lon="0.560194">
        <ele>349.195</ele>
        <time>2018-11-24T13:28:39Z</time>
      </trkpt>
      <trkpt lat="41.733718" lon="0.560156">
        <ele>349.122</ele>
        <time>2018-11-24T13:28:40Z</time>
      </trkpt>
      <trkpt lat="41.733430" lon="0.560116">
        <ele>349.043</ele>
        <time>2018-11-24T13:28:41Z</time>
      </trkpt>
      <trkpt lat="41.733144" lon="0.560081">
        <ele>348.891</ele>
        <time>2018-11-24T13:28:42Z</time>
      </trkpt>
      <trkpt lat="41.732856" lon="0.560048">
        <ele>348.863</ele>
        <time>2018-11-24T13:28:43Z</time>
      </trkpt>
      <trkpt lat="41.732568" lon="0.560017">
        <ele>348.746</ele>
        <time>2018-11-24T13:28:44Z</time>
      </trkpt>
      <trkpt lat="41.732280" lon="0.559986">
        <ele>348.840</ele>
        <time>2018-11-24T13:28:45Z</time>
      </trkpt>
      <trkpt lat="41.731992" lon="0.559957">
        <ele>348.875</ele>
        <time>2018-11-24T13:28:46Z</time>
      </trkpt>
      <trkpt lat="41.731701" lon="0.559932">
        <ele>348.628</ele>
        <time>2018-11-24T13:28:47Z</time>
      </trkpt>
      <trkpt lat="41.731412" lon="0.559905">
        <ele>348.620</ele>
        <time>2018-11-24T13:28:48Z</time>
      </trkpt>
      <trkpt lat="41.731122" lon="0.559874">
        <ele>348.608</ele>
        <time>2018-11-24T13:28:49Z</time>
      </trkpt>
      <trkpt lat="41.730835" lon="0.559853">
        <ele>348.520</ele>
        <time>2018-11-24T13:28:50Z</time>
      </trkpt>
      <trkpt lat="41.730548" lon="0.559835">
        <ele>348.517</ele>
        <time>2018-11-24T13:28:51Z</time>
      </trkpt>
      <trkpt lat="41.730260" lon="0.559816">
        <ele>348.824</ele>
        <time>2018-11-24T13:28:52Z</time>
      </trkpt>
      <trkpt lat="41.729971" lon="0.559804">
        <ele>348.945</ele>
        <time>2018-11-24T13:28:53Z</time>
      </trkpt>
      <trkpt lat="41.729682" lon="0.559795">
        <ele>349.133</ele>
        <time>2018-11-24T13:28:54Z</time>
      </trkpt>
      <trkpt lat="41.729393" lon="0.559785">
        <ele>349.315</ele>
        <time>2018-11-24T13:28:55Z</time>
      </trkpt>
      <trkpt lat="41.729102" lon="0.559779">
        <ele>349.578</ele>
        <time>2018-11-24T13:28:56Z</time>
      </trkpt>
      <trkpt lat="41.728815" lon="0.559772">
        <ele>349.832</ele>
        <time>2018-11-24T13:28:57Z</time>
      </trkpt>
      <trkpt lat="41.728527" lon="0.559767">
        <ele>350.035</ele>
        <time>2018-11-24T13:28:58Z</time>
      </trkpt>
      <trkpt lat="41.728239" lon="0.559758">
        <ele>350.386</ele>
        <time>2018-11-24T13:28:59Z</time>
      </trkpt>
      <trkpt lat="41.727951" lon="0.559742">
        <ele>350.514</ele>
        <time>2018-11-24T13:29:00Z</time>
      </trkpt>
      <trkpt lat="41.727663" lon="0.559726">
        <ele>350.708</ele>
        <time>2018-11-24T13:29:01Z</time>
      </trkpt>
      <trkpt lat="41.727376" lon="0.559719">
        <ele>350.746</ele>
        <time>2018-11-24T13:29:02Z</time>
      </trkpt>
      <trkpt lat="41.727089" lon="0.559700">
        <ele>350.973</ele>
        <time>2018-11-24T13:29:03Z</time>
      </trkpt>
      <trkpt lat="41.726799" lon="0.559698">
        <ele>351.050</ele>
        <time>2018-11-24T13:29:04Z</time>
      </trkpt>
      <trkpt lat="41.726514" lon="0.559697">
        <ele>351.191</ele>
        <time>2018-11-24T13:29:05Z</time>
      </trkpt>
      <trkpt lat="41.726226" lon="0.559699">
        <ele>351.349</ele>
        <time>2018-11-24T13:29:06Z</time>
      </trkpt>
      <trkpt lat="41.725937" lon="0.559700">
        <ele>351.371</ele>
        <time>2018-11-24T13:29:07Z</time>
      </trkpt>
      <trkpt lat="41.725647" lon="0.559709">
        <ele>351.464</ele>
        <time>2018-11-24T13:29:08Z</time>
      </trkpt>
      <trkpt lat="41.725358" lon="0.559720">
        <ele>351.698</ele>
        <time>2018-11-24T13:29:09Z</time>
      </trkpt>
      <trkpt lat="41.725072" lon="0.559735">
        <ele>351.897</ele>
        <time>2018-11-24T13:29:10Z</time>
      </trkpt>
      <trkpt lat="41.724785" lon="0.559751">
        <ele>352.023</ele>
        <time>2018-11-24T13:29:11Z</time>
      </trkpt>
      <trkpt lat="41.724496" lon="0.559767">
        <ele>352.125</ele>
        <time>2018-11-24T13:29:12Z</time>
      </trkpt>
      <trkpt lat="41.724206" lon="0.559787">
        <ele>352.308</ele>
        <time>2018-11-24T13:29:13Z</time>
      </trkpt>
      <trkpt lat="41.723919" lon="0.559802">
        <ele>352.352</ele>
        <time>2018-11-24T13:29:14Z</time>
      </trkpt>
      <trkpt lat="41.723631" lon="0.559819">
        <ele>352.569</ele>
        <time>2018-11-24T13:29:15Z</time>
      </trkpt>
      <trkpt lat="41.723341" lon="0.559839">
        <ele>352.896</ele>
        <time>2018-11-24T13:29:16Z</time>
      </trkpt>
      <trkpt lat="41.723054" lon="0.559860">
        <ele>352.917</ele>
        <time>2018-11-24T13:29:17Z</time>
      </trkpt>
      <trkpt lat="41.722766" lon="0.559883">
        <ele>353.155</ele>
        <time>2018-11-24T13:29:18Z</time>
      </trkpt>
      <trkpt lat="41.722477" lon="0.559908">
        <ele>353.477</ele>
        <time>2018-11-24T13:29:19Z</time>
      </trkpt>
      <trkpt lat="41.722190" lon="0.559935">
        <ele>353.670</ele>
        <time>2018-11-24T13:29:20Z</time>
      </trkpt>
      <trkpt lat="41.721903" lon="0.559965">
        <ele>353.924</ele>
        <time>2018-11-24T13:29:21Z</time>
      </trkpt>
      <trkpt lat="41.721616" lon="0.559997">
        <ele>354.218</ele>
        <time>2018-11-24T13:29:22Z</time>
      </trkpt>
      <trkpt lat="41.721330" lon="0.560030">
        <ele>354.298</ele>
        <time>2018-11-24T13:29:23Z</time>
      </trkpt>
      <trkpt lat="41.721043" lon="0.560065">
        <ele>354.517</ele>
        <time>2018-11-24T13:29:24Z</time>
      </trkpt>
      <trkpt lat="41.720759" lon="0.560101">
        <ele>354.608</ele>
        <time>2018-11-24T13:29:25Z</time>
      </trkpt>
      <trkpt lat="41.720472" lon="0.560138">
        <ele>354.514</ele>
        <time>2018-11-24T13:29:26Z</time>
      </trkpt>
      <trkpt lat="41.720186" lon="0.560175">
        <ele>354.831</ele>
        <time>2018-11-24T13:29:27Z</time>
      </trkpt>
      <trkpt lat="41.719899" lon="0.560213">
        <ele>355.088</ele>
        <time>2018-11-24T13:29:28Z</time>
      </trkpt>
      <trkpt lat="41.719613" lon="0.560255">
        <ele>355.019</ele>
        <time>2018-11-24T13:29:29Z</time>
      </trkpt>
      <trkpt lat="41.719328" lon="0.560299">
        <ele>355.367</ele>
        <time>2018-11-24T13:29:30Z</time>
      </trkpt>
      <trkpt lat="41.719042" lon="0.560344">
        <ele>355.359</ele>
        <time>2018-11-24T13:29:31Z</time>
      </trkpt>
      <trkpt lat="41.718757" lon="0.560391">
        <ele>355.572</ele>
        <time>2018-11-24T13:29:32Z</time>
      </trkpt>
      <trkpt lat="41.718472" lon="0.560441">
        <ele>355.626</ele>
        <time>2018-11-24T13:29:33Z</time>
      </trkpt>
      <trkpt lat="41.718187" lon="0.560492">
        <ele>355.757</ele>
        <time>2018-11-24T13:29:34Z</time>
      </trkpt>
      <trkpt lat="41.717903" lon="0.560543">
        <ele>355.800</ele>
        <time>2018-11-24T13:29:35Z</time>
      </trkpt>
      <trkpt lat="41.717618" lon="0.560594">
        <ele>356.120</ele>
        <time>2018-11-24T13:29:36Z</time>
      </trkpt>
      <trkpt lat="41.717332" lon="0.560648">
        <ele>356.108</ele>
        <time>2018-11-24T13:29:37Z</time>
      </trkpt>
      <trkpt lat="41.717047" lon="0.560703">
        <ele>356.198</ele>
        <time>2018-11-24T13:29:38Z</time>
      </trkpt>
      <trkpt lat="41.716763" lon="0.560759">
        <ele>356.165</ele>
        <time>2018-11-24T13:29:39Z</time>
      </trkpt>
      <trkpt lat="41.716479" lon="0.560818">
        <ele>356.262</ele>
        <time>2018-11-24T13:29:40Z</time>
      </trkpt>
      <trkpt lat="41.716195" lon="0.560880">
        <ele>356.163</ele>
        <time>2018-11-24T13:29:41Z</time>
      </trkpt>
      <trkpt lat="41.715912" lon="0.560944">
        <ele>356.181</ele>
        <time>2018-11-24T13:29:42Z</time>
      </trkpt>
      <trkpt lat="41.715629" lon="0.561009">
        <ele>356.073</ele>
        <time>2018-11-24T13:29:43Z</time>
      </trkpt>
      <trkpt lat="41.715345" lon="0.561080">
        <ele>355.916</ele>
        <time>2018-11-24T13:29:44Z</time>
      </trkpt>
      <trkpt lat="41.715063" lon="0.561155">
        <ele>355.620</ele>
        <time>2018-11-24T13:29:45Z</time>
      </trkpt>
      <trkpt lat="41.714779" lon="0.561223">
        <ele>355.451</ele>
        <time>2018-11-24T13:29:46Z</time>
      </trkpt>
      <trkpt lat="41.714497" lon="0.561295">
        <ele>355.201</ele>
        <time>2018-11-24T13:29:47Z</time>
      </trkpt>
      <trkpt lat="41.714213" lon="0.561367">
        <ele>355.211</ele>
        <time>2018-11-24T13:29:48Z</time>
      </trkpt>
      <trkpt lat="41.713926" lon="0.561439">
        <ele>355.208</ele>
        <time>2018-11-24T13:29:49Z</time>
      </trkpt>
      <trkpt lat="41.713641" lon="0.561517">
        <ele>354.938</ele>
        <time>2018-11-24T13:29:50Z</time>
      </trkpt>
      <trkpt lat="41.713358" lon="0.561601">
        <ele>354.635</ele>
        <time>2018-11-24T13:29:51Z</time>
      </trkpt>
      <trkpt lat="41.713074" lon="0.561684">
        <ele>354.682</ele>
        <time>2018-11-24T13:29:52Z</time>
      </trkpt>
      <trkpt lat="41.712792" lon="0.561762">
        <ele>354.283</ele>
        <time>2018-11-24T13:29:53Z</time>
      </trkpt>
      <trkpt lat="41.712512" lon="0.561844">
        <ele>353.791</ele>
        <time>2018-11-24T13:29:54Z</time>
      </trkpt>
      <trkpt lat="41.712233" lon="0.561925">
        <ele>353.883</ele>
        <time>2018-11-24T13:29:55Z</time>
      </trkpt>
      <trkpt lat="41.711952" lon="0.562011">
        <ele>355.556</ele>
        <time>2018-11-24T13:29:56Z</time>
      </trkpt>
      <trkpt lat="41.711670" lon="0.562100">
        <ele>355.030</ele>
        <time>2018-11-24T13:29:57Z</time>
      </trkpt>
      <trkpt lat="41.711389" lon="0.562189">
        <ele>353.853</ele>
        <time>2018-11-24T13:29:58Z</time>
      </trkpt>
      <trkpt lat="41.711109" lon="0.562280">
        <ele>353.404</ele>
        <time>2018-11-24T13:29:59Z</time>
      </trkpt>
      <trkpt lat="41.710828" lon="0.562367">
        <ele>353.414</ele>
        <time>2018-11-24T13:30:00Z</time>
      </trkpt>
      <trkpt lat="41.710546" lon="0.562460">
        <ele>353.208</ele>
        <time>2018-11-24T13:30:01Z</time>
      </trkpt>
      <trkpt lat="41.710265" lon="0.562548">
        <ele>352.988</ele>
        <time>2018-11-24T13:30:02Z</time>
      </trkpt>
      <trkpt lat="41.709986" lon="0.562644">
        <ele>352.535</ele>
        <time>2018-11-24T13:30:03Z</time>
      </trkpt>
      <trkpt lat="41.709708" lon="0.562744">
        <ele>352.472</ele>
        <time>2018-11-24T13:30:04Z</time>
      </trkpt>
      <trkpt lat="41.709429" lon="0.562838">
        <ele>352.453</ele>
        <time>2018-11-24T13:30:05Z</time>
      </trkpt>
      <trkpt lat="41.709154" lon="0.562938">
        <ele>352.241</ele>
        <time>2018-11-24T13:30:06Z</time>
      </trkpt>
      <trkpt lat="41.708874" lon="0.563042">
        <ele>352.093</ele>
        <time>2018-11-24T13:30:07Z</time>
      </trkpt>
      <trkpt lat="41.708595" lon="0.563150">
        <ele>351.866</ele>
        <time>2018-11-24T13:30:08Z</time>
      </trkpt>
      <trkpt lat="41.708319" lon="0.563253">
        <ele>351.840</ele>
        <time>2018-11-24T13:30:09Z</time>
      </trkpt>
      <trkpt lat="41.708040" lon="0.563361">
        <ele>351.688</ele>
        <time>2018-11-24T13:30:10Z</time>
      </trkpt>
      <trkpt lat="41.707762" lon="0.563468">
        <ele>351.524</ele>
        <time>2018-11-24T13:30:11Z</time>
      </trkpt>
      <trkpt lat="41.707487" lon="0.563576">
        <ele>351.326</ele>
        <time>2018-11-24T13:30:12Z</time>
      </trkpt>
      <trkpt lat="41.707213" lon="0.563689">
        <ele>351.208</ele>
        <time>2018-11-24T13:30:13Z</time>
      </trkpt>
      <trkpt lat="41.706938" lon="0.563803">
        <ele>351.131</ele>
        <time>2018-11-24T13:30:14Z</time>
      </trkpt>
      <trkpt lat="41.706660" lon="0.563918">
        <ele>351.018</ele>
        <time>2018-11-24T13:30:15Z</time>
      </trkpt>
      <trkpt lat="41.706389" lon="0.564037">
        <ele>351.085</ele>
        <time>2018-11-24T13:30:16Z</time>
      </trkpt>
      <trkpt lat="41.706120" lon="0.564155">
        <ele>350.896</ele>
        <time>2018-11-24T13:30:17Z</time>
      </trkpt>
      <trkpt lat="41.705846" lon="0.564272">
        <ele>350.644</ele>
        <time>2018-11-24T13:30:18Z</time>
      </trkpt>
      <trkpt lat="41.705574" lon="0.564393">
        <ele>350.596</ele>
        <time>2018-11-24T13:30:19Z</time>
      </trkpt>
      <trkpt lat="41.705304" lon="0.564512">
        <ele>350.539</ele>
        <time>2018-11-24T13:30:20Z</time>
      </trkpt>
      <trkpt lat="41.705032" lon="0.564630">
        <ele>350.353</ele>
        <time>2018-11-24T13:30:21Z</time>
      </trkpt>
      <trkpt lat="41.704759" lon="0.564744">
        <ele>350.064</ele>
        <time>2018-11-24T13:30:22Z</time>
      </trkpt>
      <trkpt lat="41.704484" lon="0.564856">
        <ele>349.806</ele>
        <time>2018-11-24T13:30:23Z</time>
      </trkpt>
      <trkpt lat="41.704208" lon="0.564967">
        <ele>349.716</ele>
        <time>2018-11-24T13:30:24Z</time>
      </trkpt>
      <trkpt lat="41.703933" lon="0.565075">
        <ele>349.308</ele>
        <time>2018-11-24T13:30:25Z</time>
      </trkpt>
      <trkpt lat="41.703656" lon="0.565182">
        <ele>349.269</ele>
        <time>2018-11-24T13:30:26Z</time>
      </trkpt>
      <trkpt lat="41.703379" lon="0.565287">
        <ele>348.946</ele>
        <time>2018-11-24T13:30:27Z</time>
      </trkpt>
      <trkpt lat="41.703100" lon="0.565391">
        <ele>348.533</ele>
        <time>2018-11-24T13:30:28Z</time>
      </trkpt>
      <trkpt lat="41.702822" lon="0.565491">
        <ele>348.474</ele>
        <time>2018-11-24T13:30:29Z</time>
      </trkpt>
      <trkpt lat="41.702542" lon="0.565591">
        <ele>348.582</ele>
        <time>2018-11-24T13:30:30Z</time>
      </trkpt>
      <trkpt lat="41.702262" lon="0.565689">
        <ele>348.424</ele>
        <time>2018-11-24T13:30:31Z</time>
      </trkpt>
      <trkpt lat="41.701982" lon="0.565788">
        <ele>348.227</ele>
        <time>2018-11-24T13:30:32Z</time>
      </trkpt>
      <trkpt lat="41.701703" lon="0.565885">
        <ele>348.191</ele>
        <time>2018-11-24T13:30:33Z</time>
      </trkpt>
      <trkpt lat="41.701423" lon="0.565982">
        <ele>348.212</ele>
        <time>2018-11-24T13:30:34Z</time>
      </trkpt>
      <trkpt lat="41.701145" lon="0.566077">
        <ele>348.132</ele>
        <time>2018-11-24T13:30:35Z</time>
      </trkpt>
      <trkpt lat="41.700866" lon="0.566168">
        <ele>348.005</ele>
        <time>2018-11-24T13:30:36Z</time>
      </trkpt>
      <trkpt lat="41.700586" lon="0.566257">
        <ele>347.808</ele>
        <time>2018-11-24T13:30:37Z</time>
      </trkpt>
      <trkpt lat="41.700305" lon="0.566343">
        <ele>347.684</ele>
        <time>2018-11-24T13:30:38Z</time>
      </trkpt>
      <trkpt lat="41.700024" lon="0.566429">
        <ele>347.691</ele>
        <time>2018-11-24T13:30:39Z</time>
      </trkpt>
      <trkpt lat="41.699743" lon="0.566515">
        <ele>347.338</ele>
        <time>2018-11-24T13:30:40Z</time>
      </trkpt>
      <trkpt lat="41.699462" lon="0.566600">
        <ele>347.139</ele>
        <time>2018-11-24T13:30:41Z</time>
      </trkpt>
      <trkpt lat="41.699181" lon="0.566684">
        <ele>347.027</ele>
        <time>2018-11-24T13:30:42Z</time>
      </trkpt>
      <trkpt lat="41.698900" lon="0.566765">
        <ele>346.689</ele>
        <time>2018-11-24T13:30:43Z</time>
      </trkpt>
      <trkpt lat="41.698618" lon="0.566845">
        <ele>346.672</ele>
        <time>2018-11-24T13:30:44Z</time>
      </trkpt>
      <trkpt lat="41.698336" lon="0.566923">
        <ele>346.776</ele>
        <time>2018-11-24T13:30:45Z</time>
      </trkpt>
      <trkpt lat="41.698054" lon="0.566998">
        <ele>346.554</ele>
        <time>2018-11-24T13:30:46Z</time>
      </trkpt>
      <trkpt lat="41.697771" lon="0.567072">
        <ele>346.356</ele>
        <time>2018-11-24T13:30:47Z</time>
      </trkpt>
      <trkpt lat="41.697488" lon="0.567143">
        <ele>346.011</ele>
        <time>2018-11-24T13:30:48Z</time>
      </trkpt>
      <trkpt lat="41.697205" lon="0.567212">
        <ele>345.708</ele>
        <time>2018-11-24T13:30:49Z</time>
      </trkpt>
      <trkpt lat="41.696922" lon="0.567279">
        <ele>345.598</ele>
        <time>2018-11-24T13:30:50Z</time>
      </trkpt>
      <trkpt lat="41.696639" lon="0.567346">
        <ele>345.345</ele>
        <time>2018-11-24T13:30:51Z</time>
      </trkpt>
      <trkpt lat="41.696356" lon="0.567412">
        <ele>345.082</ele>
        <time>2018-11-24T13:30:52Z</time>
      </trkpt>
      <trkpt lat="41.696072" lon="0.567477">
        <ele>344.733</ele>
        <time>2018-11-24T13:30:53Z</time>
      </trkpt>
      <trkpt lat="41.695789" lon="0.567541">
        <ele>344.851</ele>
        <time>2018-11-24T13:30:54Z</time>
      </trkpt>
      <trkpt lat="41.695505" lon="0.567604">
        <ele>344.823</ele>
        <time>2018-11-24T13:30:55Z</time>
      </trkpt>
      <trkpt lat="41.695221" lon="0.567665">
        <ele>344.616</ele>
        <time>2018-11-24T13:30:56Z</time>
      </trkpt>
      <trkpt lat="41.694937" lon="0.567724">
        <ele>344.340</ele>
        <time>2018-11-24T13:30:57Z</time>
      </trkpt>
      <trkpt lat="41.694653" lon="0.567780">
        <ele>344.144</ele>
        <time>2018-11-24T13:30:58Z</time>
      </trkpt>
      <trkpt lat="41.694368" lon="0.567834">
        <ele>343.905</ele>
        <time>2018-11-24T13:30:59Z</time>
      </trkpt>
      <trkpt lat="41.694083" lon="0.567887">
        <ele>343.315</ele>
        <time>2018-11-24T13:31:00Z</time>
      </trkpt>
      <trkpt lat="41.693797" lon="0.567938">
        <ele>343.008</ele>
        <time>2018-11-24T13:31:01Z</time>
      </trkpt>
      <trkpt lat="41.693512" lon="0.567987">
        <ele>342.267</ele>
        <time>2018-11-24T13:31:02Z</time>
      </trkpt>
      <trkpt lat="41.693225" lon="0.568030">
        <ele>341.784</ele>
        <time>2018-11-24T13:31:03Z</time>
      </trkpt>
      <trkpt lat="41.692942" lon="0.568076">
        <ele>341.221</ele>
        <time>2018-11-24T13:31:04Z</time>
      </trkpt>
      <trkpt lat="41.692661" lon="0.568121">
        <ele>340.972</ele>
        <time>2018-11-24T13:31:05Z</time>
      </trkpt>
      <trkpt lat="41.692376" lon="0.568161">
        <ele>340.460</ele>
        <time>2018-11-24T13:31:06Z</time>
      </trkpt>
      <trkpt lat="41.692090" lon="0.568202">
        <ele>339.922</ele>
        <time>2018-11-24T13:31:07Z</time>
      </trkpt>
      <trkpt lat="41.691802" lon="0.568238">
        <ele>339.525</ele>
        <time>2018-11-24T13:31:08Z</time>
      </trkpt>
      <trkpt lat="41.691516" lon="0.568274">
        <ele>338.749</ele>
        <time>2018-11-24T13:31:09Z</time>
      </trkpt>
      <trkpt lat="41.691231" lon="0.568308">
        <ele>338.048</ele>
        <time>2018-11-24T13:31:10Z</time>
      </trkpt>
      <trkpt lat="41.690940" lon="0.568343">
        <ele>337.561</ele>
        <time>2018-11-24T13:31:11Z</time>
      </trkpt>
      <trkpt lat="41.690650" lon="0.568374">
        <ele>336.817</ele>
        <time>2018-11-24T13:31:12Z</time>
      </trkpt>
      <trkpt lat="41.690361" lon="0.568409">
        <ele>336.108</ele>
        <time>2018-11-24T13:31:13Z</time>
      </trkpt>
      <trkpt lat="41.690075" lon="0.568443">
        <ele>335.897</ele>
        <time>2018-11-24T13:31:14Z</time>
      </trkpt>
      <trkpt lat="41.689789" lon="0.568479">
        <ele>335.224</ele>
        <time>2018-11-24T13:31:15Z</time>
      </trkpt>
      <trkpt lat="41.689505" lon="0.568509">
        <ele>334.341</ele>
        <time>2018-11-24T13:31:16Z</time>
      </trkpt>
      <trkpt lat="41.689219" lon="0.568548">
        <ele>333.762</ele>
        <time>2018-11-24T13:31:17Z</time>
      </trkpt>
      <trkpt lat="41.688936" lon="0.568594">
        <ele>332.770</ele>
        <time>2018-11-24T13:31:18Z</time>
      </trkpt>
      <trkpt lat="41.688653" lon="0.568641">
        <ele>331.752</ele>
        <time>2018-11-24T13:31:19Z</time>
      </trkpt>
      <trkpt lat="41.688367" lon="0.568694">
        <ele>330.995</ele>
        <time>2018-11-24T13:31:20Z</time>
      </trkpt>
      <trkpt lat="41.688079" lon="0.568750">
        <ele>329.859</ele>
        <time>2018-11-24T13:31:21Z</time>
      </trkpt>
      <trkpt lat="41.687795" lon="0.568817">
        <ele>328.984</ele>
        <time>2018-11-24T13:31:22Z</time>
      </trkpt>
      <trkpt lat="41.687512" lon="0.568892">
        <ele>328.007</ele>
        <time>2018-11-24T13:31:23Z</time>
      </trkpt>
      <trkpt lat="41.687228" lon="0.568971">
        <ele>326.917</ele>
        <time>2018-11-24T13:31:24Z</time>
      </trkpt>
      <trkpt lat="41.686945" lon="0.569059">
        <ele>325.608</ele>
        <time>2018-11-24T13:31:25Z</time>
      </trkpt>
      <trkpt lat="41.686662" lon="0.569148">
        <ele>324.711</ele>
        <time>2018-11-24T13:31:26Z</time>
      </trkpt>
      <trkpt lat="41.686379" lon="0.569245">
        <ele>323.598</ele>
        <time>2018-11-24T13:31:27Z</time>
      </trkpt>
      <trkpt lat="41.686100" lon="0.569343">
        <ele>322.315</ele>
        <time>2018-11-24T13:31:28Z</time>
      </trkpt>
      <trkpt lat="41.685819" lon="0.569441">
        <ele>321.366</ele>
        <time>2018-11-24T13:31:29Z</time>
      </trkpt>
      <trkpt lat="41.685536" lon="0.569551">
        <ele>320.384</ele>
        <time>2018-11-24T13:31:30Z</time>
      </trkpt>
      <trkpt lat="41.685259" lon="0.569663">
        <ele>318.976</ele>
        <time>2018-11-24T13:31:31Z</time>
      </trkpt>
      <trkpt lat="41.684984" lon="0.569789">
        <ele>317.589</ele>
        <time>2018-11-24T13:31:32Z</time>
      </trkpt>
      <trkpt lat="41.684711" lon="0.569909">
        <ele>316.463</ele>
        <time>2018-11-24T13:31:33Z</time>
      </trkpt>
      <trkpt lat="41.684442" lon="0.570039">
        <ele>315.097</ele>
        <time>2018-11-24T13:31:34Z</time>
      </trkpt>
      <trkpt lat="41.684173" lon="0.570179">
        <ele>313.923</ele>
        <time>2018-11-24T13:31:35Z</time>
      </trkpt>
      <trkpt lat="41.683901" lon="0.570318">
        <ele>312.625</ele>
        <time>2018-11-24T13:31:36Z</time>
      </trkpt>
      <trkpt lat="41.683637" lon="0.570469">
        <ele>311.408</ele>
        <time>2018-11-24T13:31:37Z</time>
      </trkpt>
      <trkpt lat="41.683373" lon="0.570623">
        <ele>309.912</ele>
        <time>2018-11-24T13:31:38Z</time>
      </trkpt>
      <trkpt lat="41.683111" lon="0.570781">
        <ele>308.719</ele>
        <time>2018-11-24T13:31:39Z</time>
      </trkpt>
      <trkpt lat="41.682850" lon="0.570947">
        <ele>307.526</ele>
        <time>2018-11-24T13:31:40Z</time>
      </trkpt>
      <trkpt lat="41.682590" lon="0.571118">
        <ele>306.137</ele>
        <time>2018-11-24T13:31:41Z</time>
      </trkpt>
      <trkpt lat="41.682333" lon="0.571293">
        <ele>304.935</ele>
        <time>2018-11-24T13:31:42Z</time>
      </trkpt>
      <trkpt lat="41.682080" lon="0.571475">
        <ele>303.417</ele>
        <time>2018-11-24T13:31:43Z</time>
      </trkpt>
      <trkpt lat="41.681830" lon="0.571664">
        <ele>302.190</ele>
        <time>2018-11-24T13:31:44Z</time>
      </trkpt>
      <trkpt lat="41.681579" lon="0.571856">
        <ele>300.784</ele>
        <time>2018-11-24T13:31:45Z</time>
      </trkpt>
      <trkpt lat="41.681330" lon="0.572053">
        <ele>299.633</ele>
        <time>2018-11-24T13:31:46Z</time>
      </trkpt>
      <trkpt lat="41.681083" lon="0.572251">
        <ele>298.123</ele>
        <time>2018-11-24T13:31:47Z</time>
      </trkpt>
      <trkpt lat="41.680838" lon="0.572456">
        <ele>296.815</ele>
        <time>2018-11-24T13:31:48Z</time>
      </trkpt>
      <trkpt lat="41.680597" lon="0.572666">
        <ele>295.408</ele>
        <time>2018-11-24T13:31:49Z</time>
      </trkpt>
      <trkpt lat="41.680358" lon="0.572881">
        <ele>294.026</ele>
        <time>2018-11-24T13:31:50Z</time>
      </trkpt>
      <trkpt lat="41.680122" lon="0.573103">
        <ele>292.933</ele>
        <time>2018-11-24T13:31:51Z</time>
      </trkpt>
      <trkpt lat="41.679889" lon="0.573328">
        <ele>291.460</ele>
        <time>2018-11-24T13:31:52Z</time>
      </trkpt>
      <trkpt lat="41.679658" lon="0.573558">
        <ele>291.971</ele>
        <time>2018-11-24T13:31:53Z</time>
      </trkpt>
      <trkpt lat="41.679429" lon="0.573791">
        <ele>289.189</ele>
        <time>2018-11-24T13:31:54Z</time>
      </trkpt>
      <trkpt lat="41.679201" lon="0.574029">
        <ele>287.731</ele>
        <time>2018-11-24T13:31:55Z</time>
      </trkpt>
      <trkpt lat="41.678976" lon="0.574270">
        <ele>286.344</ele>
        <time>2018-11-24T13:31:56Z</time>
      </trkpt>
      <trkpt lat="41.678752" lon="0.574513">
        <ele>284.938</ele>
        <time>2018-11-24T13:31:57Z</time>
      </trkpt>
      <trkpt lat="41.678528" lon="0.574757">
        <ele>283.525</ele>
        <time>2018-11-24T13:31:58Z</time>
      </trkpt>
      <trkpt lat="41.678304" lon="0.575003">
        <ele>282.126</ele>
        <time>2018-11-24T13:31:59Z</time>
      </trkpt>
      <trkpt lat="41.678080" lon="0.575246">
        <ele>281.008</ele>
        <time>2018-11-24T13:32:00Z</time>
      </trkpt>
      <trkpt lat="41.677855" lon="0.575488">
        <ele>279.608</ele>
        <time>2018-11-24T13:32:01Z</time>
      </trkpt>
      <trkpt lat="41.677628" lon="0.575727">
        <ele>278.455</ele>
        <time>2018-11-24T13:32:02Z</time>
      </trkpt>
      <trkpt lat="41.677400" lon="0.575962">
        <ele>276.942</ele>
        <time>2018-11-24T13:32:03Z</time>
      </trkpt>
      <trkpt lat="41.677170" lon="0.576195">
        <ele>275.799</ele>
        <time>2018-11-24T13:32:04Z</time>
      </trkpt>
      <trkpt lat="41.676937" lon="0.576423">
        <ele>274.470</ele>
        <time>2018-11-24T13:32:05Z</time>
      </trkpt>
      <trkpt lat="41.676702" lon="0.576646">
        <ele>273.338</ele>
        <time>2018-11-24T13:32:06Z</time>
      </trkpt>
      <trkpt lat="41.676464" lon="0.576863">
        <ele>271.890</ele>
        <time>2018-11-24T13:32:07Z</time>
      </trkpt>
      <trkpt lat="41.676223" lon="0.577075">
        <ele>270.313</ele>
        <time>2018-11-24T13:32:08Z</time>
      </trkpt>
      <trkpt lat="41.675980" lon="0.577281">
        <ele>269.127</ele>
        <time>2018-11-24T13:32:09Z</time>
      </trkpt>
      <trkpt lat="41.675734" lon="0.577482">
        <ele>267.691</ele>
        <time>2018-11-24T13:32:10Z</time>
      </trkpt>
      <trkpt lat="41.675485" lon="0.577676">
        <ele>266.681</ele>
        <time>2018-11-24T13:32:11Z</time>
      </trkpt>
      <trkpt lat="41.675234" lon="0.577863">
        <ele>265.319</ele>
        <time>2018-11-24T13:32:12Z</time>
      </trkpt>
      <trkpt lat="41.674980" lon="0.578043">
        <ele>264.008</ele>
        <time>2018-11-24T13:32:13Z</time>
      </trkpt>
      <trkpt lat="41.674723" lon="0.578217">
        <ele>262.452</ele>
        <time>2018-11-24T13:32:14Z</time>
      </trkpt>
      <trkpt lat="41.674464" lon="0.578384">
        <ele>261.229</ele>
        <time>2018-11-24T13:32:15Z</time>
      </trkpt>
      <trkpt lat="41.674202" lon="0.578545">
        <ele>259.976</ele>
        <time>2018-11-24T13:32:16Z</time>
      </trkpt>
      <trkpt lat="41.673938" lon="0.578699">
        <ele>258.467</ele>
        <time>2018-11-24T13:32:17Z</time>
      </trkpt>
      <trkpt lat="41.673672" lon="0.578847">
        <ele>257.245</ele>
        <time>2018-11-24T13:32:18Z</time>
      </trkpt>
      <trkpt lat="41.673405" lon="0.578983">
        <ele>255.717</ele>
        <time>2018-11-24T13:32:19Z</time>
      </trkpt>
      <trkpt lat="41.673137" lon="0.579112">
        <ele>254.470</ele>
        <time>2018-11-24T13:32:20Z</time>
      </trkpt>
      <trkpt lat="41.672866" lon="0.579243">
        <ele>252.854</ele>
        <time>2018-11-24T13:32:21Z</time>
      </trkpt>
      <trkpt lat="41.672592" lon="0.579365">
        <ele>251.631</ele>
        <time>2018-11-24T13:32:22Z</time>
      </trkpt>
      <trkpt lat="41.672317" lon="0.579478">
        <ele>250.361</ele>
        <time>2018-11-24T13:32:23Z</time>
      </trkpt>
      <trkpt lat="41.672039" lon="0.579586">
        <ele>249.307</ele>
        <time>2018-11-24T13:32:24Z</time>
      </trkpt>
      <trkpt lat="41.671763" lon="0.579687">
        <ele>248.008</ele>
        <time>2018-11-24T13:32:25Z</time>
      </trkpt>
      <trkpt lat="41.671486" lon="0.579781">
        <ele>247.076</ele>
        <time>2018-11-24T13:32:26Z</time>
      </trkpt>
      <trkpt lat="41.671207" lon="0.579872">
        <ele>246.263</ele>
        <time>2018-11-24T13:32:27Z</time>
      </trkpt>
      <trkpt lat="41.670927" lon="0.579957">
        <ele>245.470</ele>
        <time>2018-11-24T13:32:28Z</time>
      </trkpt>
      <trkpt lat="41.670647" lon="0.580036">
        <ele>244.691</ele>
        <time>2018-11-24T13:32:29Z</time>
      </trkpt>
      <trkpt lat="41.670365" lon="0.580112">
        <ele>243.919</ele>
        <time>2018-11-24T13:32:30Z</time>
      </trkpt>
      <trkpt lat="41.670083" lon="0.580180">
        <ele>243.271</ele>
        <time>2018-11-24T13:32:31Z</time>
      </trkpt>
      <trkpt lat="41.669800" lon="0.580242">
        <ele>242.754</ele>
        <time>2018-11-24T13:32:32Z</time>
      </trkpt>
      <trkpt lat="41.669516" lon="0.580291">
        <ele>242.488</ele>
        <time>2018-11-24T13:32:33Z</time>
      </trkpt>
      <trkpt lat="41.669231" lon="0.580331">
        <ele>241.783</ele>
        <time>2018-11-24T13:32:34Z</time>
      </trkpt>
      <trkpt lat="41.668945" lon="0.580362">
        <ele>241.025</ele>
        <time>2018-11-24T13:32:35Z</time>
      </trkpt>
      <trkpt lat="41.668658" lon="0.580388">
        <ele>240.217</ele>
        <time>2018-11-24T13:32:36Z</time>
      </trkpt>
      <trkpt lat="41.668370" lon="0.580407">
        <ele>239.508</ele>
        <time>2018-11-24T13:32:37Z</time>
      </trkpt>
      <trkpt lat="41.668082" lon="0.580421">
        <ele>239.151</ele>
        <time>2018-11-24T13:32:38Z</time>
      </trkpt>
      <trkpt lat="41.667794" lon="0.580429">
        <ele>238.958</ele>
        <time>2018-11-24T13:32:39Z</time>
      </trkpt>
      <trkpt lat="41.667505" lon="0.580432">
        <ele>238.485</ele>
        <time>2018-11-24T13:32:40Z</time>
      </trkpt>
      <trkpt lat="41.667217" lon="0.580435">
        <ele>237.416</ele>
        <time>2018-11-24T13:32:41Z</time>
      </trkpt>
      <trkpt lat="41.666929" lon="0.580439">
        <ele>236.554</ele>
        <time>2018-11-24T13:32:42Z</time>
      </trkpt>
      <trkpt lat="41.666645" lon="0.580444">
        <ele>235.716</ele>
        <time>2018-11-24T13:32:43Z</time>
      </trkpt>
      <trkpt lat="41.666363" lon="0.580449">
        <ele>234.539</ele>
        <time>2018-11-24T13:32:44Z</time>
      </trkpt>
      <trkpt lat="41.666085" lon="0.580457">
        <ele>233.423</ele>
        <time>2018-11-24T13:32:45Z</time>
      </trkpt>
      <trkpt lat="41.665807" lon="0.580472">
        <ele>232.325</ele>
        <time>2018-11-24T13:32:46Z</time>
      </trkpt>
      <trkpt lat="41.665525" lon="0.580492">
        <ele>231.626</ele>
        <time>2018-11-24T13:32:47Z</time>
      </trkpt>
      <trkpt lat="41.665241" lon="0.580518">
        <ele>230.908</ele>
        <time>2018-11-24T13:32:48Z</time>
      </trkpt>
      <trkpt lat="41.664957" lon="0.580551">
        <ele>230.008</ele>
        <time>2018-11-24T13:32:49Z</time>
      </trkpt>
      <trkpt lat="41.664669" lon="0.580594">
        <ele>229.145</ele>
        <time>2018-11-24T13:32:50Z</time>
      </trkpt>
      <trkpt lat="41.664378" lon="0.580647">
        <ele>228.162</ele>
        <time>2018-11-24T13:32:51Z</time>
      </trkpt>
      <trkpt lat="41.664089" lon="0.580709">
        <ele>227.219</ele>
        <time>2018-11-24T13:32:52Z</time>
      </trkpt>
      <trkpt lat="41.663799" lon="0.580780">
        <ele>226.290</ele>
        <time>2018-11-24T13:32:53Z</time>
      </trkpt>
      <trkpt lat="41.663509" lon="0.580860">
        <ele>224.748</ele>
        <time>2018-11-24T13:32:54Z</time>
      </trkpt>
      <trkpt lat="41.663221" lon="0.580946">
        <ele>222.920</ele>
        <time>2018-11-24T13:32:55Z</time>
      </trkpt>
      <trkpt lat="41.662933" lon="0.581042">
        <ele>221.713</ele>
        <time>2018-11-24T13:32:56Z</time>
      </trkpt>
      <trkpt lat="41.662648" lon="0.581146">
        <ele>220.077</ele>
        <time>2018-11-24T13:32:57Z</time>
      </trkpt>
      <trkpt lat="41.662365" lon="0.581261">
        <ele>218.787</ele>
        <time>2018-11-24T13:32:58Z</time>
      </trkpt>
      <trkpt lat="41.662081" lon="0.581386">
        <ele>217.542</ele>
        <time>2018-11-24T13:32:59Z</time>
      </trkpt>
      <trkpt lat="41.661801" lon="0.581517">
        <ele>216.326</ele>
        <time>2018-11-24T13:33:00Z</time>
      </trkpt>
      <trkpt lat="41.661526" lon="0.581655">
        <ele>214.808</ele>
        <time>2018-11-24T13:33:01Z</time>
      </trkpt>
      <trkpt lat="41.661255" lon="0.581798">
        <ele>213.561</ele>
        <time>2018-11-24T13:33:02Z</time>
      </trkpt>
      <trkpt lat="41.660985" lon="0.581949">
        <ele>212.498</ele>
        <time>2018-11-24T13:33:03Z</time>
      </trkpt>
      <trkpt lat="41.660714" lon="0.582111">
        <ele>211.375</ele>
        <time>2018-11-24T13:33:04Z</time>
      </trkpt>
      <trkpt lat="41.660446" lon="0.582279">
        <ele>210.656</ele>
        <time>2018-11-24T13:33:05Z</time>
      </trkpt>
      <trkpt lat="41.660183" lon="0.582453">
        <ele>209.914</ele>
        <time>2018-11-24T13:33:06Z</time>
      </trkpt>
      <trkpt lat="41.659926" lon="0.582632">
        <ele>209.456</ele>
        <time>2018-11-24T13:33:07Z</time>
      </trkpt>
      <trkpt lat="41.659676" lon="0.582815">
        <ele>208.889</ele>
        <time>2018-11-24T13:33:08Z</time>
      </trkpt>
      <trkpt lat="41.659433" lon="0.583001">
        <ele>208.633</ele>
        <time>2018-11-24T13:33:09Z</time>
      </trkpt>
      <trkpt lat="41.659195" lon="0.583193">
        <ele>208.375</ele>
        <time>2018-11-24T13:33:10Z</time>
      </trkpt>
      <trkpt lat="41.658962" lon="0.583392">
        <ele>207.828</ele>
        <time>2018-11-24T13:33:11Z</time>
      </trkpt>
      <trkpt lat="41.658734" lon="0.583596">
        <ele>207.520</ele>
        <time>2018-11-24T13:33:12Z</time>
      </trkpt>
      <trkpt lat="41.658512" lon="0.583802">
        <ele>207.108</ele>
        <time>2018-11-24T13:33:13Z</time>
      </trkpt>
      <trkpt lat="41.658296" lon="0.584011">
        <ele>206.660</ele>
        <time>2018-11-24T13:33:14Z</time>
      </trkpt>
      <trkpt lat="41.658092" lon="0.584217">
        <ele>205.937</ele>
        <time>2018-11-24T13:33:15Z</time>
      </trkpt>
      <trkpt lat="41.657901" lon="0.584416">
        <ele>204.974</ele>
        <time>2018-11-24T13:33:16Z</time>
      </trkpt>
      <trkpt lat="41.657720" lon="0.584615">
        <ele>203.685</ele>
        <time>2018-11-24T13:33:17Z</time>
      </trkpt>
      <trkpt lat="41.657547" lon="0.584822">
        <ele>202.893</ele>
        <time>2018-11-24T13:33:18Z</time>
      </trkpt>
      <trkpt lat="41.657388" lon="0.585043">
        <ele>202.215</ele>
        <time>2018-11-24T13:33:19Z</time>
      </trkpt>
      <trkpt lat="41.657255" lon="0.585281">
        <ele>201.368</ele>
        <time>2018-11-24T13:33:20Z</time>
      </trkpt>
      <trkpt lat="41.657131" lon="0.585517">
        <ele>200.642</ele>
        <time>2018-11-24T13:33:21Z</time>
      </trkpt>
      <trkpt lat="41.657059" lon="0.585801">
        <ele>200.084</ele>
        <time>2018-11-24T13:33:22Z</time>
      </trkpt>
      <trkpt lat="41.657031" lon="0.586105">
        <ele>199.307</ele>
        <time>2018-11-24T13:33:23Z</time>
      </trkpt>
      <trkpt lat="41.657016" lon="0.586403">
        <ele>198.617</ele>
        <time>2018-11-24T13:33:24Z</time>
      </trkpt>
      <trkpt lat="41.657064" lon="0.586701">
        <ele>197.908</ele>
        <time>2018-11-24T13:33:25Z</time>
      </trkpt>
      <trkpt lat="41.657147" lon="0.586988">
        <ele>197.031</ele>
        <time>2018-11-24T13:33:26Z</time>
      </trkpt>
      <trkpt lat="41.657264" lon="0.587250">
        <ele>196.498</ele>
        <time>2018-11-24T13:33:27Z</time>
      </trkpt>
      <trkpt lat="41.657386" lon="0.587499">
        <ele>195.745</ele>
        <time>2018-11-24T13:33:28Z</time>
      </trkpt>
      <trkpt lat="41.657555" lon="0.587711">
        <ele>194.926</ele>
        <time>2018-11-24T13:33:29Z</time>
      </trkpt>
      <trkpt lat="41.657746" lon="0.587870">
        <ele>194.364</ele>
        <time>2018-11-24T13:33:30Z</time>
      </trkpt>
      <trkpt lat="41.657953" lon="0.588007">
        <ele>193.786</ele>
        <time>2018-11-24T13:33:31Z</time>
      </trkpt>
      <trkpt lat="41.658168" lon="0.588126">
        <ele>193.069</ele>
        <time>2018-11-24T13:33:32Z</time>
      </trkpt>
      <trkpt lat="41.658384" lon="0.588219">
        <ele>192.223</ele>
        <time>2018-11-24T13:33:33Z</time>
      </trkpt>
      <trkpt lat="41.658598" lon="0.588316">
        <ele>191.856</ele>
        <time>2018-11-24T13:33:34Z</time>
      </trkpt>
      <trkpt lat="41.658808" lon="0.588426">
        <ele>191.359</ele>
        <time>2018-11-24T13:33:35Z</time>
      </trkpt>
      <trkpt lat="41.659001" lon="0.588567">
        <ele>191.014</ele>
        <time>2018-11-24T13:33:36Z</time>
      </trkpt>
      <trkpt lat="41.659182" lon="0.588721">
        <ele>190.808</ele>
        <time>2018-11-24T13:33:37Z</time>
      </trkpt>
      <trkpt lat="41.659345" lon="0.588891">
        <ele>191.288</ele>
        <time>2018-11-24T13:33:38Z</time>
      </trkpt>
      <trkpt lat="41.659498" lon="0.589092">
        <ele>191.765</ele>
        <time>2018-11-24T13:33:39Z</time>
      </trkpt>
      <trkpt lat="41.659638" lon="0.589301">
        <ele>192.162</ele>
        <time>2018-11-24T13:33:40Z</time>
      </trkpt>
      <trkpt lat="41.659761" lon="0.589533">
        <ele>192.513</ele>
        <time>2018-11-24T13:33:41Z</time>
      </trkpt>
      <trkpt lat="41.659870" lon="0.589779">
        <ele>192.891</ele>
        <time>2018-11-24T13:33:42Z</time>
      </trkpt>
      <trkpt lat="41.659962" lon="0.590044">
        <ele>193.123</ele>
        <time>2018-11-24T13:33:43Z</time>
      </trkpt>
      <trkpt lat="41.660045" lon="0.590335">
        <ele>193.776</ele>
        <time>2018-11-24T13:33:44Z</time>
      </trkpt>
      <trkpt lat="41.660121" lon="0.590652">
        <ele>194.060</ele>
        <time>2018-11-24T13:33:45Z</time>
      </trkpt>
      <trkpt lat="41.660200" lon="0.590989">
        <ele>194.499</ele>
        <time>2018-11-24T13:33:46Z</time>
      </trkpt>
      <trkpt lat="41.660279" lon="0.591330">
        <ele>194.407</ele>
        <time>2018-11-24T13:33:47Z</time>
      </trkpt>
      <trkpt lat="41.660365" lon="0.591675">
        <ele>194.427</ele>
        <time>2018-11-24T13:33:48Z</time>
      </trkpt>
      <trkpt lat="41.660452" lon="0.592038">
        <ele>194.808</ele>
        <time>2018-11-24T13:33:49Z</time>
      </trkpt>
      <trkpt lat="41.660532" lon="0.592417">
        <ele>195.232</ele>
        <time>2018-11-24T13:33:50Z</time>
      </trkpt>
      <trkpt lat="41.660616" lon="0.592813">
        <ele>195.649</ele>
        <time>2018-11-24T13:33:51Z</time>
      </trkpt>
      <trkpt lat="41.660706" lon="0.593218">
        <ele>196.196</ele>
        <time>2018-11-24T13:33:52Z</time>
      </trkpt>
      <trkpt lat="41.660792" lon="0.593641">
        <ele>196.767</ele>
        <time>2018-11-24T13:33:53Z</time>
      </trkpt>
      <trkpt lat="41.660872" lon="0.594083">
        <ele>197.245</ele>
        <time>2018-11-24T13:33:54Z</time>
      </trkpt>
      <trkpt lat="41.660948" lon="0.594534">
        <ele>197.557</ele>
        <time>2018-11-24T13:33:55Z</time>
      </trkpt>
      <trkpt lat="41.661022" lon="0.595001">
        <ele>198.810</ele>
        <time>2018-11-24T13:33:56Z</time>
      </trkpt>
      <trkpt lat="41.661090" lon="0.595477">
        <ele>198.574</ele>
        <time>2018-11-24T13:33:57Z</time>
      </trkpt>
      <trkpt lat="41.661153" lon="0.595962">
        <ele>198.326</ele>
        <time>2018-11-24T13:33:58Z</time>
      </trkpt>
      <trkpt lat="41.661204" lon="0.596441">
        <ele>198.147</ele>
        <time>2018-11-24T13:33:59Z</time>
      </trkpt>
      <trkpt lat="41.661247" lon="0.596914">
        <ele>197.311</ele>
        <time>2018-11-24T13:34:00Z</time>
      </trkpt>
      <trkpt lat="41.661286" lon="0.597381">
        <ele>196.808</ele>
        <time>2018-11-24T13:34:01Z</time>
      </trkpt>
      <trkpt lat="41.661326" lon="0.597840">
        <ele>196.315</ele>
        <time>2018-11-24T13:34:02Z</time>
      </trkpt>
      <trkpt lat="41.661368" lon="0.598285">
        <ele>196.082</ele>
        <time>2018-11-24T13:34:03Z</time>
      </trkpt>
      <trkpt lat="41.661412" lon="0.598721">
        <ele>195.649</ele>
        <time>2018-11-24T13:34:04Z</time>
      </trkpt>
      <trkpt lat="41.661456" lon="0.599155">
        <ele>195.190</ele>
        <time>2018-11-24T13:34:05Z</time>
      </trkpt>
      <trkpt lat="41.661500" lon="0.599579">
        <ele>194.638</ele>
        <time>2018-11-24T13:34:06Z</time>
      </trkpt>
      <trkpt lat="41.661544" lon="0.599996">
        <ele>194.320</ele>
        <time>2018-11-24T13:34:07Z</time>
      </trkpt>
      <trkpt lat="41.661587" lon="0.600406">
        <ele>194.073</ele>
        <time>2018-11-24T13:34:08Z</time>
      </trkpt>
      <trkpt lat="41.661631" lon="0.600812">
        <ele>193.627</ele>
        <time>2018-11-24T13:34:09Z</time>
      </trkpt>
      <trkpt lat="41.661677" lon="0.601213">
        <ele>193.544</ele>
        <time>2018-11-24T13:34:10Z</time>
      </trkpt>
      <trkpt lat="41.661724" lon="0.601604">
        <ele>193.205</ele>
        <time>2018-11-24T13:34:11Z</time>
      </trkpt>
      <trkpt lat="41.661772" lon="0.601990">
        <ele>192.815</ele>
        <time>2018-11-24T13:34:12Z</time>
      </trkpt>
      <trkpt lat="41.661818" lon="0.602366">
        <ele>192.108</ele>
        <time>2018-11-24T13:34:13Z</time>
      </trkpt>
      <trkpt lat="41.661866" lon="0.602736">
        <ele>191.447</ele>
        <time>2018-11-24T13:34:14Z</time>
      </trkpt>
      <trkpt lat="41.661914" lon="0.603098">
        <ele>190.844</ele>
        <time>2018-11-24T13:34:15Z</time>
      </trkpt>
      <trkpt lat="41.661962" lon="0.603451">
        <ele>191.021</ele>
        <time>2018-11-24T13:34:16Z</time>
      </trkpt>
      <trkpt lat="41.662009" lon="0.603798">
        <ele>192.352</ele>
        <time>2018-11-24T13:34:17Z</time>
      </trkpt>
      <trkpt lat="41.662051" lon="0.604125">
        <ele>192.740</ele>
        <time>2018-11-24T13:34:18Z</time>
      </trkpt>
      <trkpt lat="41.662079" lon="0.604431">
        <ele>192.152</ele>
        <time>2018-11-24T13:34:19Z</time>
      </trkpt>
      <trkpt lat="41.662101" lon="0.604709">
        <ele>190.955</ele>
        <time>2018-11-24T13:34:20Z</time>
      </trkpt>
      <trkpt lat="41.662119" lon="0.604974">
        <ele>190.099</ele>
        <time>2018-11-24T13:34:21Z</time>
      </trkpt>
      <trkpt lat="41.662138" lon="0.605227">
        <ele>189.262</ele>
        <time>2018-11-24T13:34:22Z</time>
      </trkpt>
      <trkpt lat="41.662157" lon="0.605482">
        <ele>188.583</ele>
        <time>2018-11-24T13:34:23Z</time>
      </trkpt>
      <trkpt lat="41.662176" lon="0.605730">
        <ele>187.711</ele>
        <time>2018-11-24T13:34:24Z</time>
      </trkpt>
      <trkpt lat="41.662190" lon="0.605981">
        <ele>186.608</ele>
        <time>2018-11-24T13:34:25Z</time>
      </trkpt>
      <trkpt lat="41.662206" lon="0.606216">
        <ele>185.019</ele>
        <time>2018-11-24T13:34:26Z</time>
      </trkpt>
      <trkpt lat="41.662218" lon="0.606422">
        <ele>183.426</ele>
        <time>2018-11-24T13:34:27Z</time>
      </trkpt>
      <trkpt lat="41.662224" lon="0.606593">
        <ele>182.363</ele>
        <time>2018-11-24T13:34:28Z</time>
      </trkpt>
      <trkpt lat="41.662221" lon="0.606741">
        <ele>181.464</ele>
        <time>2018-11-24T13:34:29Z</time>
      </trkpt>
      <trkpt lat="41.662213" lon="0.606869">
        <ele>180.962</ele>
        <time>2018-11-24T13:34:30Z</time>
      </trkpt>
      <trkpt lat="41.662204" lon="0.606990">
        <ele>180.564</ele>
        <time>2018-11-24T13:34:31Z</time>
      </trkpt>
      <trkpt lat="41.662187" lon="0.607110">
        <ele>180.497</ele>
        <time>2018-11-24T13:34:32Z</time>
      </trkpt>
      <trkpt lat="41.662145" lon="0.607245">
        <ele>180.431</ele>
        <time>2018-11-24T13:34:33Z</time>
      </trkpt>
      <trkpt lat="41.662104" lon="0.607393">
        <ele>180.416</ele>
        <time>2018-11-24T13:34:34Z</time>
      </trkpt>
      <trkpt lat="41.662091" lon="0.607555">
        <ele>180.476</ele>
        <time>2018-11-24T13:34:35Z</time>
      </trkpt>
      <trkpt lat="41.662070" lon="0.607703">
        <ele>180.413</ele>
        <time>2018-11-24T13:34:36Z</time>
      </trkpt>
      <trkpt lat="41.662022" lon="0.607836">
        <ele>180.408</ele>
        <time>2018-11-24T13:34:37Z</time>
      </trkpt>
      <trkpt lat="41.661947" lon="0.607947">
        <ele>180.674</ele>
        <time>2018-11-24T13:34:38Z</time>
      </trkpt>
      <trkpt lat="41.661855" lon="0.608053">
        <ele>180.821</ele>
        <time>2018-11-24T13:34:39Z</time>
      </trkpt>
      <trkpt lat="41.661711" lon="0.608095">
        <ele>181.038</ele>
        <time>2018-11-24T13:34:40Z</time>
      </trkpt>
      <trkpt lat="41.661552" lon="0.608117">
        <ele>180.539</ele>
        <time>2018-11-24T13:34:41Z</time>
      </trkpt>
      <trkpt lat="41.661392" lon="0.608138">
        <ele>179.717</ele>
        <time>2018-11-24T13:34:42Z</time>
      </trkpt>
      <trkpt lat="41.661228" lon="0.608150">
        <ele>179.149</ele>
        <time>2018-11-24T13:34:43Z</time>
      </trkpt>
      <trkpt lat="41.661062" lon="0.608162">
        <ele>178.792</ele>
        <time>2018-11-24T13:34:44Z</time>
      </trkpt>
      <trkpt lat="41.660894" lon="0.608178">
        <ele>178.636</ele>
        <time>2018-11-24T13:34:45Z</time>
      </trkpt>
      <trkpt lat="41.660723" lon="0.608192">
        <ele>178.492</ele>
        <time>2018-11-24T13:34:46Z</time>
      </trkpt>
      <trkpt lat="41.660546" lon="0.608205">
        <ele>178.373</ele>
        <time>2018-11-24T13:34:47Z</time>
      </trkpt>
      <trkpt lat="41.660368" lon="0.608218">
        <ele>178.420</ele>
        <time>2018-11-24T13:34:48Z</time>
      </trkpt>
      <trkpt lat="41.660184" lon="0.608232">
        <ele>178.308</ele>
        <time>2018-11-24T13:34:49Z</time>
      </trkpt>
      <trkpt lat="41.660000" lon="0.608250">
        <ele>178.182</ele>
        <time>2018-11-24T13:34:50Z</time>
      </trkpt>
      <trkpt lat="41.659816" lon="0.608270">
        <ele>178.129</ele>
        <time>2018-11-24T13:34:51Z</time>
      </trkpt>
      <trkpt lat="41.659629" lon="0.608297">
        <ele>178.336</ele>
        <time>2018-11-24T13:34:52Z</time>
      </trkpt>
      <trkpt lat="41.659440" lon="0.608330">
        <ele>178.537</ele>
        <time>2018-11-24T13:34:53Z</time>
      </trkpt>
      <trkpt lat="41.659249" lon="0.608372">
        <ele>178.775</ele>
        <time>2018-11-24T13:34:54Z</time>
      </trkpt>
      <trkpt lat="41.659049" lon="0.608422">
        <ele>179.187</ele>
        <time>2018-11-24T13:34:55Z</time>
      </trkpt>
      <trkpt lat="41.658838" lon="0.608483">
        <ele>179.630</ele>
        <time>2018-11-24T13:34:56Z</time>
      </trkpt>
      <trkpt lat="41.658623" lon="0.608554">
        <ele>179.744</ele>
        <time>2018-11-24T13:34:57Z</time>
      </trkpt>
      <trkpt lat="41.658411" lon="0.608628">
        <ele>179.788</ele>
        <time>2018-11-24T13:34:58Z</time>
      </trkpt>
      <trkpt lat="41.658200" lon="0.608705">
        <ele>179.724</ele>
        <time>2018-11-24T13:34:59Z</time>
      </trkpt>
      <trkpt lat="41.657993" lon="0.608780">
        <ele>179.726</ele>
        <time>2018-11-24T13:35:00Z</time>
      </trkpt>
      <trkpt lat="41.657786" lon="0.608859">
        <ele>179.808</ele>
        <time>2018-11-24T13:35:01Z</time>
      </trkpt>
      <trkpt lat="41.657586" lon="0.608937">
        <ele>179.741</ele>
        <time>2018-11-24T13:35:02Z</time>
      </trkpt>
      <trkpt lat="41.657396" lon="0.609008">
        <ele>179.578</ele>
        <time>2018-11-24T13:35:03Z</time>
      </trkpt>
      <trkpt lat="41.657214" lon="0.609069">
        <ele>179.055</ele>
        <time>2018-11-24T13:35:04Z</time>
      </trkpt>
      <trkpt lat="41.657038" lon="0.609120">
        <ele>178.926</ele>
        <time>2018-11-24T13:35:05Z</time>
      </trkpt>
      <trkpt lat="41.656866" lon="0.609162">
        <ele>178.824</ele>
        <time>2018-11-24T13:35:06Z</time>
      </trkpt>
      <trkpt lat="41.656697" lon="0.609196">
        <ele>178.726</ele>
        <time>2018-11-24T13:35:07Z</time>
      </trkpt>
      <trkpt lat="41.656534" lon="0.609216">
        <ele>178.539</ele>
        <time>2018-11-24T13:35:08Z</time>
      </trkpt>
      <trkpt lat="41.656388" lon="0.609222">
        <ele>177.963</ele>
        <time>2018-11-24T13:35:09Z</time>
      </trkpt>
      <trkpt lat="41.656256" lon="0.609214">
        <ele>177.432</ele>
        <time>2018-11-24T13:35:10Z</time>
      </trkpt>
      <trkpt lat="41.656134" lon="0.609202">
        <ele>177.092</ele>
        <time>2018-11-24T13:35:11Z</time>
      </trkpt>
      <trkpt lat="41.656035" lon="0.609143">
        <ele>176.711</ele>
        <time>2018-11-24T13:35:12Z</time>
      </trkpt>
      <trkpt lat="41.655944" lon="0.609073">
        <ele>176.508</ele>
        <time>2018-11-24T13:35:13Z</time>
      </trkpt>
      <trkpt lat="41.655849" lon="0.609021">
        <ele>176.226</ele>
        <time>2018-11-24T13:35:14Z</time>
      </trkpt>
      <trkpt lat="41.655745" lon="0.609005">
        <ele>176.143</ele>
        <time>2018-11-24T13:35:15Z</time>
      </trkpt>
      <trkpt lat="41.655634" lon="0.609023">
        <ele>176.120</ele>
        <time>2018-11-24T13:35:16Z</time>
      </trkpt>
      <trkpt lat="41.655529" lon="0.609075">
        <ele>176.031</ele>
        <time>2018-11-24T13:35:17Z</time>
      </trkpt>
      <trkpt lat="41.655429" lon="0.609100">
        <ele>176.149</ele>
        <time>2018-11-24T13:35:18Z</time>
      </trkpt>
      <trkpt lat="41.655315" lon="0.609111">
        <ele>176.191</ele>
        <time>2018-11-24T13:35:19Z</time>
      </trkpt>
      <trkpt lat="41.655190" lon="0.609102">
        <ele>176.144</ele>
        <time>2018-11-24T13:35:20Z</time>
      </trkpt>
      <trkpt lat="41.655053" lon="0.609079">
        <ele>176.158</ele>
        <time>2018-11-24T13:35:21Z</time>
      </trkpt>
      <trkpt lat="41.654906" lon="0.609052">
        <ele>176.049</ele>
        <time>2018-11-24T13:35:22Z</time>
      </trkpt>
      <trkpt lat="41.654757" lon="0.609022">
        <ele>175.602</ele>
        <time>2018-11-24T13:35:23Z</time>
      </trkpt>
      <trkpt lat="41.654608" lon="0.608987">
        <ele>175.322</ele>
        <time>2018-11-24T13:35:24Z</time>
      </trkpt>
      <trkpt lat="41.654454" lon="0.608955">
        <ele>175.008</ele>
        <time>2018-11-24T13:35:25Z</time>
      </trkpt>
      <trkpt lat="41.654300" lon="0.608923">
        <ele>174.767</ele>
        <time>2018-11-24T13:35:26Z</time>
      </trkpt>
      <trkpt lat="41.654139" lon="0.608884">
        <ele>174.484</ele>
        <time>2018-11-24T13:35:27Z</time>
      </trkpt>
      <trkpt lat="41.653979" lon="0.608871">
        <ele>174.041</ele>
        <time>2018-11-24T13:35:28Z</time>
      </trkpt>
      <trkpt lat="41.653813" lon="0.608864">
        <ele>173.542</ele>
        <time>2018-11-24T13:35:29Z</time>
      </trkpt>
      <trkpt lat="41.653642" lon="0.608904">
        <ele>173.160</ele>
        <time>2018-11-24T13:35:30Z</time>
      </trkpt>
      <trkpt lat="41.653475" lon="0.608937">
        <ele>172.752</ele>
        <time>2018-11-24T13:35:31Z</time>
      </trkpt>
      <trkpt lat="41.653307" lon="0.608994">
        <ele>172.355</ele>
        <time>2018-11-24T13:35:32Z</time>
      </trkpt>
      <trkpt lat="41.653138" lon="0.609063">
        <ele>172.249</ele>
        <time>2018-11-24T13:35:33Z</time>
      </trkpt>
      <trkpt lat="41.652976" lon="0.609141">
        <ele>172.088</ele>
        <time>2018-11-24T13:35:34Z</time>
      </trkpt>
      <trkpt lat="41.652810" lon="0.609231">
        <ele>171.924</ele>
        <time>2018-11-24T13:35:35Z</time>
      </trkpt>
      <trkpt lat="41.652648" lon="0.609317">
        <ele>171.826</ele>
        <time>2018-11-24T13:35:36Z</time>
      </trkpt>
      <trkpt lat="41.652489" lon="0.609403">
        <ele>171.708</ele>
        <time>2018-11-24T13:35:37Z</time>
      </trkpt>
      <trkpt lat="41.652328" lon="0.609487">
        <ele>171.731</ele>
        <time>2018-11-24T13:35:38Z</time>
      </trkpt>
      <trkpt lat="41.652166" lon="0.609571">
        <ele>171.878</ele>
        <time>2018-11-24T13:35:39Z</time>
      </trkpt>
      <trkpt lat="41.652010" lon="0.609655">
        <ele>171.795</ele>
        <time>2018-11-24T13:35:40Z</time>
      </trkpt>
      <trkpt lat="41.651855" lon="0.609734">
        <ele>171.786</ele>
        <time>2018-11-24T13:35:41Z</time>
      </trkpt>
      <trkpt lat="41.651700" lon="0.609821">
        <ele>171.994</ele>
        <time>2018-11-24T13:35:42Z</time>
      </trkpt>
      <trkpt lat="41.651541" lon="0.609890">
        <ele>171.996</ele>
        <time>2018-11-24T13:35:43Z</time>
      </trkpt>
      <trkpt lat="41.651380" lon="0.609960">
        <ele>171.939</ele>
        <time>2018-11-24T13:35:44Z</time>
      </trkpt>
      <trkpt lat="41.651217" lon="0.610024">
        <ele>171.923</ele>
        <time>2018-11-24T13:35:45Z</time>
      </trkpt>
      <trkpt lat="41.651053" lon="0.610081">
        <ele>171.956</ele>
        <time>2018-11-24T13:35:46Z</time>
      </trkpt>
      <trkpt lat="41.650886" lon="0.610129">
        <ele>171.959</ele>
        <time>2018-11-24T13:35:47Z</time>
      </trkpt>
      <trkpt lat="41.650718" lon="0.610176">
        <ele>172.114</ele>
        <time>2018-11-24T13:35:48Z</time>
      </trkpt>
      <trkpt lat="41.650552" lon="0.610224">
        <ele>172.208</ele>
        <time>2018-11-24T13:35:49Z</time>
      </trkpt>
      <trkpt lat="41.650383" lon="0.610270">
        <ele>172.388</ele>
        <time>2018-11-24T13:35:50Z</time>
      </trkpt>
      <trkpt lat="41.650216" lon="0.610313">
        <ele>172.325</ele>
        <time>2018-11-24T13:35:51Z</time>
      </trkpt>
      <trkpt lat="41.650051" lon="0.610353">
        <ele>172.372</ele>
        <time>2018-11-24T13:35:52Z</time>
      </trkpt>
      <trkpt lat="41.649883" lon="0.610401">
        <ele>172.473</ele>
        <time>2018-11-24T13:35:53Z</time>
      </trkpt>
      <trkpt lat="41.649717" lon="0.610451">
        <ele>172.541</ele>
        <time>2018-11-24T13:35:54Z</time>
      </trkpt>
      <trkpt lat="41.649550" lon="0.610505">
        <ele>172.693</ele>
        <time>2018-11-24T13:35:55Z</time>
      </trkpt>
      <trkpt lat="41.649386" lon="0.610562">
        <ele>172.776</ele>
        <time>2018-11-24T13:35:56Z</time>
      </trkpt>
      <trkpt lat="41.649223" lon="0.610623">
        <ele>172.980</ele>
        <time>2018-11-24T13:35:57Z</time>
      </trkpt>
      <trkpt lat="41.649060" lon="0.610689">
        <ele>173.164</ele>
        <time>2018-11-24T13:35:58Z</time>
      </trkpt>
      <trkpt lat="41.648897" lon="0.610760">
        <ele>173.306</ele>
        <time>2018-11-24T13:35:59Z</time>
      </trkpt>
      <trkpt lat="41.648736" lon="0.610830">
        <ele>173.516</ele>
        <time>2018-11-24T13:36:00Z</time>
      </trkpt>
      <trkpt lat="41.648571" lon="0.610897">
        <ele>173.708</ele>
        <time>2018-11-24T13:36:01Z</time>
      </trkpt>
      <trkpt lat="41.648410" lon="0.610966">
        <ele>173.839</ele>
        <time>2018-11-24T13:36:02Z</time>
      </trkpt>
      <trkpt lat="41.648246" lon="0.611030">
        <ele>174.016</ele>
        <time>2018-11-24T13:36:03Z</time>
      </trkpt>
      <trkpt lat="41.648083" lon="0.611095">
        <ele>174.343</ele>
        <time>2018-11-24T13:36:04Z</time>
      </trkpt>
      <trkpt lat="41.647920" lon="0.611163">
        <ele>174.594</ele>
        <time>2018-11-24T13:36:05Z</time>
      </trkpt>
      <trkpt lat="41.647758" lon="0.611234">
        <ele>174.772</ele>
        <time>2018-11-24T13:36:06Z</time>
      </trkpt>
      <trkpt lat="41.647595" lon="0.611296">
        <ele>174.994</ele>
        <time>2018-11-24T13:36:07Z</time>
      </trkpt>
      <trkpt lat="41.647435" lon="0.611352">
        <ele>174.957</ele>
        <time>2018-11-24T13:36:08Z</time>
      </trkpt>
      <trkpt lat="41.647284" lon="0.611407">
        <ele>175.061</ele>
        <time>2018-11-24T13:36:09Z</time>
      </trkpt>
      <trkpt lat="41.647142" lon="0.611456">
        <ele>175.196</ele>
        <time>2018-11-24T13:36:10Z</time>
      </trkpt>
      <trkpt lat="41.647012" lon="0.611494">
        <ele>174.931</ele>
        <time>2018-11-24T13:36:11Z</time>
      </trkpt>
      <trkpt lat="41.646897" lon="0.611514">
        <ele>174.724</ele>
        <time>2018-11-24T13:36:12Z</time>
      </trkpt>
      <trkpt lat="41.646787" lon="0.611515">
        <ele>174.808</ele>
        <time>2018-11-24T13:36:13Z</time>
      </trkpt>
      <trkpt lat="41.646683" lon="0.611506">
        <ele>174.812</ele>
        <time>2018-11-24T13:36:14Z</time>
      </trkpt>
      <trkpt lat="41.646581" lon="0.611501">
        <ele>174.829</ele>
        <time>2018-11-24T13:36:15Z</time>
      </trkpt>
      <trkpt lat="41.646477" lon="0.611516">
        <ele>175.056</ele>
        <time>2018-11-24T13:36:16Z</time>
      </trkpt>
      <trkpt lat="41.646375" lon="0.611565">
        <ele>175.267</ele>
        <time>2018-11-24T13:36:17Z</time>
      </trkpt>
      <trkpt lat="41.646269" lon="0.611622">
        <ele>175.445</ele>
        <time>2018-11-24T13:36:18Z</time>
      </trkpt>
      <trkpt lat="41.646158" lon="0.611687">
        <ele>175.597</ele>
        <time>2018-11-24T13:36:19Z</time>
      </trkpt>
      <trkpt lat="41.646032" lon="0.611762">
        <ele>175.880</ele>
        <time>2018-11-24T13:36:20Z</time>
      </trkpt>
      <trkpt lat="41.645879" lon="0.611831">
        <ele>176.474</ele>
        <time>2018-11-24T13:36:21Z</time>
      </trkpt>
      <trkpt lat="41.645719" lon="0.611893">
        <ele>176.454</ele>
        <time>2018-11-24T13:36:22Z</time>
      </trkpt>
      <trkpt lat="41.645560" lon="0.611946">
        <ele>176.556</ele>
        <time>2018-11-24T13:36:23Z</time>
      </trkpt>
      <trkpt lat="41.645407" lon="0.611996">
        <ele>176.311</ele>
        <time>2018-11-24T13:36:24Z</time>
      </trkpt>
      <trkpt lat="41.645257" lon="0.612047">
        <ele>176.208</ele>
        <time>2018-11-24T13:36:25Z</time>
      </trkpt>
      <trkpt lat="41.645113" lon="0.612111">
        <ele>176.368</ele>
        <time>2018-11-24T13:36:26Z</time>
      </trkpt>
      <trkpt lat="41.644966" lon="0.612194">
        <ele>176.415</ele>
        <time>2018-11-24T13:36:27Z</time>
      </trkpt>
      <trkpt lat="41.644819" lon="0.612284">
        <ele>176.642</ele>
        <time>2018-11-24T13:36:28Z</time>
      </trkpt>
      <trkpt lat="41.644683" lon="0.612390">
        <ele>176.533</ele>
        <time>2018-11-24T13:36:29Z</time>
      </trkpt>
      <trkpt lat="41.644552" lon="0.612497">
        <ele>176.491</ele>
        <time>2018-11-24T13:36:30Z</time>
      </trkpt>
      <trkpt lat="41.644420" lon="0.612612">
        <ele>176.573</ele>
        <time>2018-11-24T13:36:31Z</time>
      </trkpt>
      <trkpt lat="41.644291" lon="0.612732">
        <ele>176.596</ele>
        <time>2018-11-24T13:36:32Z</time>
      </trkpt>
      <trkpt lat="41.644160" lon="0.612850">
        <ele>176.590</ele>
        <time>2018-11-24T13:36:33Z</time>
      </trkpt>
      <trkpt lat="41.644035" lon="0.612967">
        <ele>176.549</ele>
        <time>2018-11-24T13:36:34Z</time>
      </trkpt>
      <trkpt lat="41.643921" lon="0.613078">
        <ele>176.402</ele>
        <time>2018-11-24T13:36:35Z</time>
      </trkpt>
      <trkpt lat="41.643815" lon="0.613187">
        <ele>176.322</ele>
        <time>2018-11-24T13:36:36Z</time>
      </trkpt>
      <trkpt lat="41.643718" lon="0.613295">
        <ele>176.208</ele>
        <time>2018-11-24T13:36:37Z</time>
      </trkpt>
      <trkpt lat="41.643632" lon="0.613401">
        <ele>176.047</ele>
        <time>2018-11-24T13:36:38Z</time>
      </trkpt>
      <trkpt lat="41.643556" lon="0.613501">
        <ele>175.814</ele>
        <time>2018-11-24T13:36:39Z</time>
      </trkpt>
      <trkpt lat="41.643485" lon="0.613598">
        <ele>175.661</ele>
        <time>2018-11-24T13:36:40Z</time>
      </trkpt>
      <trkpt lat="41.643413" lon="0.613686">
        <ele>175.552</ele>
        <time>2018-11-24T13:36:41Z</time>
      </trkpt>
      <trkpt lat="41.643340" lon="0.613757">
        <ele>175.430</ele>
        <time>2018-11-24T13:36:42Z</time>
      </trkpt>
      <trkpt lat="41.643268" lon="0.613827">
        <ele>175.432</ele>
        <time>2018-11-24T13:36:43Z</time>
      </trkpt>
      <trkpt lat="41.643193" lon="0.613902">
        <ele>175.485</ele>
        <time>2018-11-24T13:36:44Z</time>
      </trkpt>
      <trkpt lat="41.643128" lon="0.613995">
        <ele>175.449</ele>
        <time>2018-11-24T13:36:45Z</time>
      </trkpt>
      <trkpt lat="41.643098" lon="0.614127">
        <ele>175.124</ele>
        <time>2018-11-24T13:36:46Z</time>
      </trkpt>
      <trkpt lat="41.643070" lon="0.614256">
        <ele>175.004</ele>
        <time>2018-11-24T13:36:47Z</time>
      </trkpt>
      <trkpt lat="41.643021" lon="0.614396">
        <ele>174.914</ele>
        <time>2018-11-24T13:36:48Z</time>
      </trkpt>
      <trkpt lat="41.642969" lon="0.614553">
        <ele>174.908</ele>
        <time>2018-11-24T13:36:49Z</time>
      </trkpt>
      <trkpt lat="41.642893" lon="0.614709">
        <ele>174.815</ele>
        <time>2018-11-24T13:36:50Z</time>
      </trkpt>
      <trkpt lat="41.642802" lon="0.614870">
        <ele>174.612</ele>
        <time>2018-11-24T13:36:51Z</time>
      </trkpt>
      <trkpt lat="41.642707" lon="0.615028">
        <ele>174.339</ele>
        <time>2018-11-24T13:36:52Z</time>
      </trkpt>
      <trkpt lat="41.642606" lon="0.615174">
        <ele>173.830</ele>
        <time>2018-11-24T13:36:53Z</time>
      </trkpt>
      <trkpt lat="41.642489" lon="0.615318">
        <ele>173.728</ele>
        <time>2018-11-24T13:36:54Z</time>
      </trkpt>
      <trkpt lat="41.642358" lon="0.615460">
        <ele>173.380</ele>
        <time>2018-11-24T13:36:55Z</time>
      </trkpt>
      <trkpt lat="41.642213" lon="0.615598">
        <ele>173.073</ele>
        <time>2018-11-24T13:36:56Z</time>
      </trkpt>
      <trkpt lat="41.642058" lon="0.615734">
        <ele>172.737</ele>
        <time>2018-11-24T13:36:57Z</time>
      </trkpt>
      <trkpt lat="41.641903" lon="0.615869">
        <ele>172.242</ele>
        <time>2018-11-24T13:36:58Z</time>
      </trkpt>
      <trkpt lat="41.641751" lon="0.616009">
        <ele>171.622</ele>
        <time>2018-11-24T13:36:59Z</time>
      </trkpt>
      <trkpt lat="41.641605" lon="0.616151">
        <ele>171.014</ele>
        <time>2018-11-24T13:37:00Z</time>
      </trkpt>
      <trkpt lat="41.641462" lon="0.616306">
        <ele>170.308</ele>
        <time>2018-11-24T13:37:01Z</time>
      </trkpt>
      <trkpt lat="41.641343" lon="0.616494">
        <ele>169.667</ele>
        <time>2018-11-24T13:37:02Z</time>
      </trkpt>
      <trkpt lat="41.641227" lon="0.616686">
        <ele>168.784</ele>
        <time>2018-11-24T13:37:03Z</time>
      </trkpt>
      <trkpt lat="41.641126" lon="0.616901">
        <ele>168.281</ele>
        <time>2018-11-24T13:37:04Z</time>
      </trkpt>
      <trkpt lat="41.641034" lon="0.617128">
        <ele>167.552</ele>
        <time>2018-11-24T13:37:05Z</time>
      </trkpt>
      <trkpt lat="41.640951" lon="0.617362">
        <ele>166.950</ele>
        <time>2018-11-24T13:37:06Z</time>
      </trkpt>
      <trkpt lat="41.640877" lon="0.617602">
        <ele>165.932</ele>
        <time>2018-11-24T13:37:07Z</time>
      </trkpt>
      <trkpt lat="41.640806" lon="0.617841">
        <ele>165.245</ele>
        <time>2018-11-24T13:37:08Z</time>
      </trkpt>
      <trkpt lat="41.640732" lon="0.618077">
        <ele>164.169</ele>
        <time>2018-11-24T13:37:09Z</time>
      </trkpt>
      <trkpt lat="41.640652" lon="0.618312">
        <ele>163.152</ele>
        <time>2018-11-24T13:37:10Z</time>
      </trkpt>
      <trkpt lat="41.640556" lon="0.618530">
        <ele>162.053</ele>
        <time>2018-11-24T13:37:11Z</time>
      </trkpt>
      <trkpt lat="41.640452" lon="0.618736">
        <ele>161.208</ele>
        <time>2018-11-24T13:37:12Z</time>
      </trkpt>
      <trkpt lat="41.640332" lon="0.618930">
        <ele>160.508</ele>
        <time>2018-11-24T13:37:13Z</time>
      </trkpt>
      <trkpt lat="41.640199" lon="0.619108">
        <ele>159.648</ele>
        <time>2018-11-24T13:37:14Z</time>
      </trkpt>
      <trkpt lat="41.640062" lon="0.619268">
        <ele>158.615</ele>
        <time>2018-11-24T13:37:15Z</time>
      </trkpt>
      <trkpt lat="41.639912" lon="0.619412">
        <ele>157.522</ele>
        <time>2018-11-24T13:37:16Z</time>
      </trkpt>
      <trkpt lat="41.639753" lon="0.619539">
        <ele>156.743</ele>
        <time>2018-11-24T13:37:17Z</time>
      </trkpt>
      <trkpt lat="41.639585" lon="0.619643">
        <ele>156.081</ele>
        <time>2018-11-24T13:37:18Z</time>
      </trkpt>
      <trkpt lat="41.639410" lon="0.619734">
        <ele>155.183</ele>
        <time>2018-11-24T13:37:19Z</time>
      </trkpt>
      <trkpt lat="41.639234" lon="0.619814">
        <ele>154.466</ele>
        <time>2018-11-24T13:37:20Z</time>
      </trkpt>
      <trkpt lat="41.639058" lon="0.619885">
        <ele>153.640</ele>
        <time>2018-11-24T13:37:21Z</time>
      </trkpt>
      <trkpt lat="41.638887" lon="0.619947">
        <ele>153.177</ele>
        <time>2018-11-24T13:37:22Z</time>
      </trkpt>
      <trkpt lat="41.638718" lon="0.620007">
        <ele>152.461</ele>
        <time>2018-11-24T13:37:23Z</time>
      </trkpt>
      <trkpt lat="41.638552" lon="0.620064">
        <ele>151.827</ele>
        <time>2018-11-24T13:37:24Z</time>
      </trkpt>
      <trkpt lat="41.638388" lon="0.620121">
        <ele>151.308</ele>
        <time>2018-11-24T13:37:25Z</time>
      </trkpt>
      <trkpt lat="41.638225" lon="0.620178">
        <ele>151.130</ele>
        <time>2018-11-24T13:37:26Z</time>
      </trkpt>
      <trkpt lat="41.638064" lon="0.620231">
        <ele>150.997</ele>
        <time>2018-11-24T13:37:27Z</time>
      </trkpt>
      <trkpt lat="41.637903" lon="0.620283">
        <ele>150.664</ele>
        <time>2018-11-24T13:37:28Z</time>
      </trkpt>
      <trkpt lat="41.637743" lon="0.620331">
        <ele>150.395</ele>
        <time>2018-11-24T13:37:29Z</time>
      </trkpt>
      <trkpt lat="41.637578" lon="0.620371">
        <ele>150.183</ele>
        <time>2018-11-24T13:37:30Z</time>
      </trkpt>
      <trkpt lat="41.637412" lon="0.620397">
        <ele>149.875</ele>
        <time>2018-11-24T13:37:31Z</time>
      </trkpt>
      <trkpt lat="41.637258" lon="0.620440">
        <ele>149.798</ele>
        <time>2018-11-24T13:37:32Z</time>
      </trkpt>
      <trkpt lat="41.637098" lon="0.620477">
        <ele>149.462</ele>
        <time>2018-11-24T13:37:33Z</time>
      </trkpt>
      <trkpt lat="41.636931" lon="0.620515">
        <ele>149.256</ele>
        <time>2018-11-24T13:37:34Z</time>
      </trkpt>
      <trkpt lat="41.636766" lon="0.620544">
        <ele>149.059</ele>
        <time>2018-11-24T13:37:35Z</time>
      </trkpt>
      <trkpt lat="41.636604" lon="0.620571">
        <ele>148.814</ele>
        <time>2018-11-24T13:37:36Z</time>
      </trkpt>
      <trkpt lat="41.636442" lon="0.620607">
        <ele>148.708</ele>
        <time>2018-11-24T13:37:37Z</time>
      </trkpt>
      <trkpt lat="41.636283" lon="0.620644">
        <ele>148.618</ele>
        <time>2018-11-24T13:37:38Z</time>
      </trkpt>
      <trkpt lat="41.636126" lon="0.620679">
        <ele>148.665</ele>
        <time>2018-11-24T13:37:39Z</time>
      </trkpt>
      <trkpt lat="41.635968" lon="0.620716">
        <ele>148.552</ele>
        <time>2018-11-24T13:37:40Z</time>
      </trkpt>
      <trkpt lat="41.635813" lon="0.620750">
        <ele>148.493</ele>
        <time>2018-11-24T13:37:41Z</time>
      </trkpt>
      <trkpt lat="41.635661" lon="0.620782">
        <ele>148.271</ele>
        <time>2018-11-24T13:37:42Z</time>
      </trkpt>
      <trkpt lat="41.635505" lon="0.620817">
        <ele>148.223</ele>
        <time>2018-11-24T13:37:43Z</time>
      </trkpt>
      <trkpt lat="41.635356" lon="0.620847">
        <ele>148.276</ele>
        <time>2018-11-24T13:37:44Z</time>
      </trkpt>
      <trkpt lat="41.635204" lon="0.620876">
        <ele>148.050</ele>
        <time>2018-11-24T13:37:45Z</time>
      </trkpt>
      <trkpt lat="41.635060" lon="0.620902">
        <ele>147.972</ele>
        <time>2018-11-24T13:37:46Z</time>
      </trkpt>
      <trkpt lat="41.634919" lon="0.620930">
        <ele>147.913</ele>
        <time>2018-11-24T13:37:47Z</time>
      </trkpt>
      <trkpt lat="41.634794" lon="0.620950">
        <ele>147.714</ele>
        <time>2018-11-24T13:37:48Z</time>
      </trkpt>
      <trkpt lat="41.634693" lon="0.620957">
        <ele>147.208</ele>
        <time>2018-11-24T13:37:49Z</time>
      </trkpt>
      <trkpt lat="41.634604" lon="0.620959">
        <ele>147.180</ele>
        <time>2018-11-24T13:37:50Z</time>
      </trkpt>
      <trkpt lat="41.634512" lon="0.620958">
        <ele>147.167</ele>
        <time>2018-11-24T13:37:51Z</time>
      </trkpt>
      <trkpt lat="41.634424" lon="0.620937">
        <ele>147.344</ele>
        <time>2018-11-24T13:37:52Z</time>
      </trkpt>
      <trkpt lat="41.634342" lon="0.620911">
        <ele>147.215</ele>
        <time>2018-11-24T13:37:53Z</time>
      </trkpt>
      <trkpt lat="41.634254" lon="0.620892">
        <ele>147.093</ele>
        <time>2018-11-24T13:37:54Z</time>
      </trkpt>
      <trkpt lat="41.634165" lon="0.620887">
        <ele>147.045</ele>
        <time>2018-11-24T13:37:55Z</time>
      </trkpt>
      <trkpt lat="41.634088" lon="0.620973">
        <ele>147.038</ele>
        <time>2018-11-24T13:37:56Z</time>
      </trkpt>
      <trkpt lat="41.634067" lon="0.621114">
        <ele>147.232</ele>
        <time>2018-11-24T13:37:57Z</time>
      </trkpt>
      <trkpt lat="41.634123" lon="0.621217">
        <ele>147.215</ele>
        <time>2018-11-24T13:37:58Z</time>
      </trkpt>
      <trkpt lat="41.634187" lon="0.621324">
        <ele>147.165</ele>
        <time>2018-11-24T13:37:59Z</time>
      </trkpt>
      <trkpt lat="41.634242" lon="0.621428">
        <ele>147.011</ele>
        <time>2018-11-24T13:38:00Z</time>
      </trkpt>
      <trkpt lat="41.634281" lon="0.621527">
        <ele>147.108</ele>
        <time>2018-11-24T13:38:01Z</time>
      </trkpt>
      <trkpt lat="41.634298" lon="0.621637">
        <ele>146.994</ele>
        <time>2018-11-24T13:38:02Z</time>
      </trkpt>
      <trkpt lat="41.634312" lon="0.621747">
        <ele>146.721</ele>
        <time>2018-11-24T13:38:03Z</time>
      </trkpt>
      <trkpt lat="41.634325" lon="0.621840">
        <ele>146.418</ele>
        <time>2018-11-24T13:38:04Z</time>
      </trkpt>
      <trkpt lat="41.634334" lon="0.621913">
        <ele>146.149</ele>
        <time>2018-11-24T13:38:05Z</time>
      </trkpt>
      <trkpt lat="41.634344" lon="0.621975">
        <ele>145.917</ele>
        <time>2018-11-24T13:38:06Z</time>
      </trkpt>
      <trkpt lat="41.634359" lon="0.622058">
        <ele>145.769</ele>
        <time>2018-11-24T13:38:08Z</time>
      </trkpt>
      <trkpt lat="41.634405" lon="0.622161">
        <ele>146.012</ele>
        <time>2018-11-24T13:38:39Z</time>
      </trkpt>
      <trkpt lat="41.634425" lon="0.622254">
        <ele>145.716</ele>
        <time>2018-11-24T13:39:06Z</time>
      </trkpt>
      <trkpt lat="41.634444" lon="0.622386">
        <ele>145.524</ele>
        <time>2018-11-24T13:39:08Z</time>
      </trkpt>
      <trkpt lat="41.634460" lon="0.622482">
        <ele>145.604</ele>
        <time>2018-11-24T13:39:09Z</time>
      </trkpt>
      <trkpt lat="41.634474" lon="0.622586">
        <ele>145.814</ele>
        <time>2018-11-24T13:39:10Z</time>
      </trkpt>
      <trkpt lat="41.634490" lon="0.622718">
        <ele>145.908</ele>
        <time>2018-11-24T13:39:11Z</time>
      </trkpt>
      <trkpt lat="41.634512" lon="0.622876">
        <ele>145.985</ele>
        <time>2018-11-24T13:39:12Z</time>
      </trkpt>
      <trkpt lat="41.634535" lon="0.623026">
        <ele>145.782</ele>
        <time>2018-11-24T13:39:13Z</time>
      </trkpt>
      <trkpt lat="41.634558" lon="0.623174">
        <ele>145.779</ele>
        <time>2018-11-24T13:39:14Z</time>
      </trkpt>
      <trkpt lat="41.634579" lon="0.623329">
        <ele>146.110</ele>
        <time>2018-11-24T13:39:15Z</time>
      </trkpt>
      <trkpt lat="41.634605" lon="0.623496">
        <ele>146.118</ele>
        <time>2018-11-24T13:39:16Z</time>
      </trkpt>
      <trkpt lat="41.634631" lon="0.623691">
        <ele>146.490</ele>
        <time>2018-11-24T13:39:17Z</time>
      </trkpt>
      <trkpt lat="41.634657" lon="0.623888">
        <ele>146.793</ele>
        <time>2018-11-24T13:39:18Z</time>
      </trkpt>
      <trkpt lat="41.634687" lon="0.624103">
        <ele>146.977</ele>
        <time>2018-11-24T13:39:19Z</time>
      </trkpt>
      <trkpt lat="41.634717" lon="0.624324">
        <ele>146.859</ele>
        <time>2018-11-24T13:39:20Z</time>
      </trkpt>
      <trkpt lat="41.634747" lon="0.624544">
        <ele>146.803</ele>
        <time>2018-11-24T13:39:21Z</time>
      </trkpt>
      <trkpt lat="41.634783" lon="0.624766">
        <ele>146.923</ele>
        <time>2018-11-24T13:39:22Z</time>
      </trkpt>
      <trkpt lat="41.634818" lon="0.624999">
        <ele>147.108</ele>
        <time>2018-11-24T13:39:23Z</time>
      </trkpt>
      <trkpt lat="41.634858" lon="0.625243">
        <ele>147.538</ele>
        <time>2018-11-24T13:39:24Z</time>
      </trkpt>
      <trkpt lat="41.634895" lon="0.625485">
        <ele>147.645</ele>
        <time>2018-11-24T13:39:25Z</time>
      </trkpt>
      <trkpt lat="41.634930" lon="0.625724">
        <ele>147.612</ele>
        <time>2018-11-24T13:39:26Z</time>
      </trkpt>
      <trkpt lat="41.634967" lon="0.625959">
        <ele>147.613</ele>
        <time>2018-11-24T13:39:27Z</time>
      </trkpt>
      <trkpt lat="41.635011" lon="0.626192">
        <ele>148.091</ele>
        <time>2018-11-24T13:39:28Z</time>
      </trkpt>
      <trkpt lat="41.635078" lon="0.626418">
        <ele>148.733</ele>
        <time>2018-11-24T13:39:29Z</time>
      </trkpt>
      <trkpt lat="41.635171" lon="0.626631">
        <ele>149.896</ele>
        <time>2018-11-24T13:39:30Z</time>
      </trkpt>
      <trkpt lat="41.635278" lon="0.626819">
        <ele>150.860</ele>
        <time>2018-11-24T13:39:31Z</time>
      </trkpt>
      <trkpt lat="41.635398" lon="0.626984">
        <ele>151.638</ele>
        <time>2018-11-24T13:39:32Z</time>
      </trkpt>
      <trkpt lat="41.635519" lon="0.627140">
        <ele>152.470</ele>
        <time>2018-11-24T13:39:33Z</time>
      </trkpt>
      <trkpt lat="41.635624" lon="0.627308">
        <ele>153.017</ele>
        <time>2018-11-24T13:39:34Z</time>
      </trkpt>
      <trkpt lat="41.635723" lon="0.627487">
        <ele>153.608</ele>
        <time>2018-11-24T13:39:35Z</time>
      </trkpt>
      <trkpt lat="41.635791" lon="0.627678">
        <ele>154.496</ele>
        <time>2018-11-24T13:39:36Z</time>
      </trkpt>
      <trkpt lat="41.635832" lon="0.627882">
        <ele>155.253</ele>
        <time>2018-11-24T13:39:37Z</time>
      </trkpt>
      <trkpt lat="41.635863" lon="0.628070">
        <ele>156.210</ele>
        <time>2018-11-24T13:39:38Z</time>
      </trkpt>
      <trkpt lat="41.635851" lon="0.628241">
        <ele>156.971</ele>
        <time>2018-11-24T13:39:39Z</time>
      </trkpt>
      <trkpt lat="41.635851" lon="0.628353">
        <ele>157.599</ele>
        <time>2018-11-24T13:39:40Z</time>
      </trkpt>
      <trkpt lat="41.635828" lon="0.628441">
        <ele>158.251</ele>
        <time>2018-11-24T13:39:45Z</time>
      </trkpt>
      <trkpt lat="41.635816" lon="0.628505">
        <ele>158.244</ele>
        <time>2018-11-24T13:39:46Z</time>
      </trkpt>
      <trkpt lat="41.635774" lon="0.628585">
        <ele>158.598</ele>
        <time>2018-11-24T13:39:48Z</time>
      </trkpt>
      <trkpt lat="41.635724" lon="0.628650">
        <ele>158.636</ele>
        <time>2018-11-24T13:39:49Z</time>
      </trkpt>
      <trkpt lat="41.635685" lon="0.628696">
        <ele>158.717</ele>
        <time>2018-11-24T13:39:50Z</time>
      </trkpt>
      <trkpt lat="41.635640" lon="0.628745">
        <ele>158.918</ele>
        <time>2018-11-24T13:39:51Z</time>
      </trkpt>
      <trkpt lat="41.635586" lon="0.628798">
        <ele>158.808</ele>
        <time>2018-11-24T13:39:52Z</time>
      </trkpt>
      <trkpt lat="41.635519" lon="0.628859">
        <ele>159.016</ele>
        <time>2018-11-24T13:39:53Z</time>
      </trkpt>
      <trkpt lat="41.635449" lon="0.628932">
        <ele>159.053</ele>
        <time>2018-11-24T13:39:54Z</time>
      </trkpt>
      <trkpt lat="41.635367" lon="0.629021">
        <ele>159.250</ele>
        <time>2018-11-24T13:39:55Z</time>
      </trkpt>
      <trkpt lat="41.635280" lon="0.629105">
        <ele>159.231</ele>
        <time>2018-11-24T13:39:56Z</time>
      </trkpt>
      <trkpt lat="41.635194" lon="0.629191">
        <ele>159.259</ele>
        <time>2018-11-24T13:39:57Z</time>
      </trkpt>
      <trkpt lat="41.635103" lon="0.629278">
        <ele>159.311</ele>
        <time>2018-11-24T13:39:58Z</time>
      </trkpt>
      <trkpt lat="41.635011" lon="0.629372">
        <ele>159.534</ele>
        <time>2018-11-24T13:39:59Z</time>
      </trkpt>
      <trkpt lat="41.634917" lon="0.629483">
        <ele>159.618</ele>
        <time>2018-11-24T13:40:00Z</time>
      </trkpt>
      <trkpt lat="41.634818" lon="0.629597">
        <ele>159.618</ele>
        <time>2018-11-24T13:40:01Z</time>
      </trkpt>
      <trkpt lat="41.634706" lon="0.629704">
        <ele>159.798</ele>
        <time>2018-11-24T13:40:02Z</time>
      </trkpt>
      <trkpt lat="41.634587" lon="0.629807">
        <ele>159.817</ele>
        <time>2018-11-24T13:40:03Z</time>
      </trkpt>
      <trkpt lat="41.634456" lon="0.629887">
        <ele>159.608</ele>
        <time>2018-11-24T13:40:04Z</time>
      </trkpt>
      <trkpt lat="41.634334" lon="0.629983">
        <ele>159.514</ele>
        <time>2018-11-24T13:40:05Z</time>
      </trkpt>
      <trkpt lat="41.634207" lon="0.630076">
        <ele>159.681</ele>
        <time>2018-11-24T13:40:06Z</time>
      </trkpt>
      <trkpt lat="41.634086" lon="0.630172">
        <ele>159.658</ele>
        <time>2018-11-24T13:40:07Z</time>
      </trkpt>
      <trkpt lat="41.633964" lon="0.630264">
        <ele>159.539</ele>
        <time>2018-11-24T13:40:08Z</time>
      </trkpt>
      <trkpt lat="41.633844" lon="0.630360">
        <ele>159.587</ele>
        <time>2018-11-24T13:40:09Z</time>
      </trkpt>
      <trkpt lat="41.633720" lon="0.630449">
        <ele>159.359</ele>
        <time>2018-11-24T13:40:10Z</time>
      </trkpt>
      <trkpt lat="41.633595" lon="0.630540">
        <ele>159.342</ele>
        <time>2018-11-24T13:40:11Z</time>
      </trkpt>
      <trkpt lat="41.633468" lon="0.630626">
        <ele>159.246</ele>
        <time>2018-11-24T13:40:12Z</time>
      </trkpt>
      <trkpt lat="41.633346" lon="0.630711">
        <ele>159.118</ele>
        <time>2018-11-24T13:40:13Z</time>
      </trkpt>
      <trkpt lat="41.633218" lon="0.630781">
        <ele>159.198</ele>
        <time>2018-11-24T13:40:14Z</time>
      </trkpt>
      <trkpt lat="41.633085" lon="0.630839">
        <ele>159.117</ele>
        <time>2018-11-24T13:40:15Z</time>
      </trkpt>
      <trkpt lat="41.632953" lon="0.630894">
        <ele>158.808</ele>
        <time>2018-11-24T13:40:16Z</time>
      </trkpt>
      <trkpt lat="41.632840" lon="0.630960">
        <ele>158.684</ele>
        <time>2018-11-24T13:40:17Z</time>
      </trkpt>
      <trkpt lat="41.632730" lon="0.630984">
        <ele>158.141</ele>
        <time>2018-11-24T13:40:18Z</time>
      </trkpt>
      <trkpt lat="41.632644" lon="0.631013">
        <ele>157.738</ele>
        <time>2018-11-24T13:40:19Z</time>
      </trkpt>
      <trkpt lat="41.632583" lon="0.631053">
        <ele>157.419</ele>
        <time>2018-11-24T13:40:20Z</time>
      </trkpt>
      <trkpt lat="41.632530" lon="0.631078">
        <ele>157.547</ele>
        <time>2018-11-24T13:40:21Z</time>
      </trkpt>
      <trkpt lat="41.632474" lon="0.631095">
        <ele>157.589</ele>
        <time>2018-11-24T13:40:22Z</time>
      </trkpt>
      <trkpt lat="41.632415" lon="0.631120">
        <ele>157.722</ele>
        <time>2018-11-24T13:40:23Z</time>
      </trkpt>
      <trkpt lat="41.632333" lon="0.631162">
        <ele>157.826</ele>
        <time>2018-11-24T13:40:24Z</time>
      </trkpt>
      <trkpt lat="41.632231" lon="0.631217">
        <ele>157.855</ele>
        <time>2018-11-24T13:40:25Z</time>
      </trkpt>
      <trkpt lat="41.632150" lon="0.631285">
        <ele>157.807</ele>
        <time>2018-11-24T13:40:26Z</time>
      </trkpt>
      <trkpt lat="41.632055" lon="0.631343">
        <ele>157.617</ele>
        <time>2018-11-24T13:40:27Z</time>
      </trkpt>
      <trkpt lat="41.631958" lon="0.631375">
        <ele>157.608</ele>
        <time>2018-11-24T13:40:28Z</time>
      </trkpt>
      <trkpt lat="41.631874" lon="0.631418">
        <ele>157.318</ele>
        <time>2018-11-24T13:40:29Z</time>
      </trkpt>
      <trkpt lat="41.631785" lon="0.631464">
        <ele>157.175</ele>
        <time>2018-11-24T13:40:30Z</time>
      </trkpt>
      <trkpt lat="41.631698" lon="0.631497">
        <ele>157.132</ele>
        <time>2018-11-24T13:40:31Z</time>
      </trkpt>
      <trkpt lat="41.631601" lon="0.631524">
        <ele>157.283</ele>
        <time>2018-11-24T13:40:32Z</time>
      </trkpt>
      <trkpt lat="41.631478" lon="0.631557">
        <ele>157.341</ele>
        <time>2018-11-24T13:40:33Z</time>
      </trkpt>
      <trkpt lat="41.631344" lon="0.631614">
        <ele>157.593</ele>
        <time>2018-11-24T13:40:34Z</time>
      </trkpt>
      <trkpt lat="41.631205" lon="0.631680">
        <ele>157.556</ele>
        <time>2018-11-24T13:40:35Z</time>
      </trkpt>
      <trkpt lat="41.631075" lon="0.631733">
        <ele>157.380</ele>
        <time>2018-11-24T13:40:36Z</time>
      </trkpt>
      <trkpt lat="41.630950" lon="0.631796">
        <ele>157.123</ele>
        <time>2018-11-24T13:40:37Z</time>
      </trkpt>
      <trkpt lat="41.630837" lon="0.631842">
        <ele>156.583</ele>
        <time>2018-11-24T13:40:38Z</time>
      </trkpt>
      <trkpt lat="41.630739" lon="0.631878">
        <ele>155.911</ele>
        <time>2018-11-24T13:40:39Z</time>
      </trkpt>
      <trkpt lat="41.630653" lon="0.631905">
        <ele>155.408</ele>
        <time>2018-11-24T13:40:40Z</time>
      </trkpt>
      <trkpt lat="41.630566" lon="0.631941">
        <ele>155.365</ele>
        <time>2018-11-24T13:40:41Z</time>
      </trkpt>
      <trkpt lat="41.630455" lon="0.631986">
        <ele>155.792</ele>
        <time>2018-11-24T13:40:42Z</time>
      </trkpt>
      <trkpt lat="41.630323" lon="0.632042">
        <ele>155.559</ele>
        <time>2018-11-24T13:40:43Z</time>
      </trkpt>
      <trkpt lat="41.630183" lon="0.632095">
        <ele>155.170</ele>
        <time>2018-11-24T13:40:44Z</time>
      </trkpt>
      <trkpt lat="41.630034" lon="0.632146">
        <ele>154.988</ele>
        <time>2018-11-24T13:40:45Z</time>
      </trkpt>
      <trkpt lat="41.629891" lon="0.632192">
        <ele>154.230</ele>
        <time>2018-11-24T13:40:46Z</time>
      </trkpt>
      <trkpt lat="41.629767" lon="0.632220">
        <ele>152.763</ele>
        <time>2018-11-24T13:40:47Z</time>
      </trkpt>
      <trkpt lat="41.629687" lon="0.632239">
        <ele>151.237</ele>
        <time>2018-11-24T13:40:48Z</time>
      </trkpt>
      <trkpt lat="41.629631" lon="0.632241">
        <ele>150.037</ele>
        <time>2018-11-24T13:40:49Z</time>
      </trkpt>
      <trkpt lat="41.629566" lon="0.632260">
        <ele>149.249</ele>
        <time>2018-11-24T13:40:50Z</time>
      </trkpt>
      <trkpt lat="41.629497" lon="0.632281">
        <ele>148.713</ele>
        <time>2018-11-24T13:40:51Z</time>
      </trkpt>
      <trkpt lat="41.629419" lon="0.632325">
        <ele>148.108</ele>
        <time>2018-11-24T13:40:52Z</time>
      </trkpt>
      <trkpt lat="41.629351" lon="0.632351">
        <ele>147.286</ele>
        <time>2018-11-24T13:40:53Z</time>
      </trkpt>
      <trkpt lat="41.629302" lon="0.632405">
        <ele>146.463</ele>
        <time>2018-11-24T13:40:54Z</time>
      </trkpt>
      <trkpt lat="41.629247" lon="0.632461">
        <ele>145.320</ele>
        <time>2018-11-24T13:40:55Z</time>
      </trkpt>
      <trkpt lat="41.629233" lon="0.632556">
        <ele>143.981</ele>
        <time>2018-11-24T13:41:09Z</time>
      </trkpt>
      <trkpt lat="41.629240" lon="0.632631">
        <ele>143.819</ele>
        <time>2018-11-24T13:41:10Z</time>
      </trkpt>
      <trkpt lat="41.629250" lon="0.632698">
        <ele>143.721</ele>
        <time>2018-11-24T13:41:11Z</time>
      </trkpt>
      <trkpt lat="41.629252" lon="0.632805">
        <ele>143.554</ele>
        <time>2018-11-24T13:41:13Z</time>
      </trkpt>
      <trkpt lat="41.629219" lon="0.632870">
        <ele>142.748</ele>
        <time>2018-11-24T13:41:14Z</time>
      </trkpt>
      <trkpt lat="41.629178" lon="0.632963">
        <ele>141.867</ele>
        <time>2018-11-24T13:41:15Z</time>
      </trkpt>
      <trkpt lat="41.629139" lon="0.633054">
        <ele>140.381</ele>
        <time>2018-11-24T13:41:16Z</time>
      </trkpt>
      <trkpt lat="41.629106" lon="0.633104">
        <ele>138.219</ele>
        <time>2018-11-24T13:41:20Z</time>
      </trkpt>
      <trkpt lat="41.629067" lon="0.633170">
        <ele>138.208</ele>
        <time>2018-11-24T13:41:21Z</time>
      </trkpt>
      <trkpt lat="41.629024" lon="0.633234">
        <ele>138.399</ele>
        <time>2018-11-24T13:41:22Z</time>
      </trkpt>
      <trkpt lat="41.628983" lon="0.633295">
        <ele>138.346</ele>
        <time>2018-11-24T13:41:23Z</time>
      </trkpt>
      <trkpt lat="41.628937" lon="0.633360">
        <ele>138.413</ele>
        <time>2018-11-24T13:41:24Z</time>
      </trkpt>
      <trkpt lat="41.628876" lon="0.633445">
        <ele>138.724</ele>
        <time>2018-11-24T13:41:25Z</time>
      </trkpt>
      <trkpt lat="41.628810" lon="0.633544">
        <ele>138.812</ele>
        <time>2018-11-24T13:41:26Z</time>
      </trkpt>
      <trkpt lat="41.628746" lon="0.633640">
        <ele>138.834</ele>
        <time>2018-11-24T13:41:27Z</time>
      </trkpt>
      <trkpt lat="41.628675" lon="0.633746">
        <ele>138.917</ele>
        <time>2018-11-24T13:41:28Z</time>
      </trkpt>
      <trkpt lat="41.628599" lon="0.633862">
        <ele>139.021</ele>
        <time>2018-11-24T13:41:29Z</time>
      </trkpt>
      <trkpt lat="41.628519" lon="0.633979">
        <ele>139.046</ele>
        <time>2018-11-24T13:41:30Z</time>
      </trkpt>
      <trkpt lat="41.628444" lon="0.634095">
        <ele>138.988</ele>
        <time>2018-11-24T13:41:31Z</time>
      </trkpt>
      <trkpt lat="41.628371" lon="0.634205">
        <ele>138.716</ele>
        <time>2018-11-24T13:41:32Z</time>
      </trkpt>
      <trkpt lat="41.628297" lon="0.634315">
        <ele>138.608</ele>
        <time>2018-11-24T13:41:33Z</time>
      </trkpt>
      <trkpt lat="41.628229" lon="0.634419">
        <ele>138.457</ele>
        <time>2018-11-24T13:41:34Z</time>
      </trkpt>
      <trkpt lat="41.628172" lon="0.634504">
        <ele>138.194</ele>
        <time>2018-11-24T13:41:35Z</time>
      </trkpt>
      <trkpt lat="41.628124" lon="0.634579">
        <ele>137.841</ele>
        <time>2018-11-24T13:41:36Z</time>
      </trkpt>
      <trkpt lat="41.628092" lon="0.634634">
        <ele>137.572</ele>
        <time>2018-11-24T13:41:37Z</time>
      </trkpt>
      <trkpt lat="41.628002" lon="0.634763">
        <ele>137.580</ele>
        <time>2018-11-24T13:41:59Z</time>
      </trkpt>
      <trkpt lat="41.627966" lon="0.634810">
        <ele>137.622</ele>
        <time>2018-11-24T13:42:00Z</time>
      </trkpt>
      <trkpt lat="41.627930" lon="0.634857">
        <ele>137.585</ele>
        <time>2018-11-24T13:42:01Z</time>
      </trkpt>
      <trkpt lat="41.627898" lon="0.634903">
        <ele>137.659</ele>
        <time>2018-11-24T13:42:02Z</time>
      </trkpt>
      <trkpt lat="41.627860" lon="0.634955">
        <ele>137.748</ele>
        <time>2018-11-24T13:42:03Z</time>
      </trkpt>
      <trkpt lat="41.627813" lon="0.635019">
        <ele>137.761</ele>
        <time>2018-11-24T13:42:04Z</time>
      </trkpt>
      <trkpt lat="41.627768" lon="0.635091">
        <ele>137.717</ele>
        <time>2018-11-24T13:42:05Z</time>
      </trkpt>
      <trkpt lat="41.627721" lon="0.635159">
        <ele>137.808</ele>
        <time>2018-11-24T13:42:06Z</time>
      </trkpt>
      <trkpt lat="41.627648" lon="0.635240">
        <ele>137.927</ele>
        <time>2018-11-24T13:42:07Z</time>
      </trkpt>
      <trkpt lat="41.627573" lon="0.635285">
        <ele>137.984</ele>
        <time>2018-11-24T13:42:08Z</time>
      </trkpt>
      <trkpt lat="41.627513" lon="0.635351">
        <ele>137.891</ele>
        <time>2018-11-24T13:42:09Z</time>
      </trkpt>
      <trkpt lat="41.627460" lon="0.635409">
        <ele>137.642</ele>
        <time>2018-11-24T13:42:10Z</time>
      </trkpt>
      <trkpt lat="41.627411" lon="0.635472">
        <ele>137.540</ele>
        <time>2018-11-24T13:42:11Z</time>
      </trkpt>
      <trkpt lat="41.627369" lon="0.635527">
        <ele>137.422</ele>
        <time>2018-11-24T13:42:12Z</time>
      </trkpt>
      <trkpt lat="41.627341" lon="0.635578">
        <ele>137.465</ele>
        <time>2018-11-24T13:42:13Z</time>
      </trkpt>
      <trkpt lat="41.627320" lon="0.635647">
        <ele>137.159</ele>
        <time>2018-11-24T13:42:15Z</time>
      </trkpt>
      <trkpt lat="41.627306" lon="0.635705">
        <ele>137.238</ele>
        <time>2018-11-24T13:42:17Z</time>
      </trkpt>
      <trkpt lat="41.627303" lon="0.635784">
        <ele>137.270</ele>
        <time>2018-11-24T13:42:18Z</time>
      </trkpt>
      <trkpt lat="41.627338" lon="0.635852">
        <ele>137.117</ele>
        <time>2018-11-24T13:42:19Z</time>
      </trkpt>
      <trkpt lat="41.627374" lon="0.635901">
        <ele>137.008</ele>
        <time>2018-11-24T13:42:20Z</time>
      </trkpt>
      <trkpt lat="41.627419" lon="0.635964">
        <ele>136.926</ele>
        <time>2018-11-24T13:42:21Z</time>
      </trkpt>
      <trkpt lat="41.627471" lon="0.636017">
        <ele>136.933</ele>
        <time>2018-11-24T13:42:22Z</time>
      </trkpt>
      <trkpt lat="41.627525" lon="0.636079">
        <ele>136.970</ele>
        <time>2018-11-24T13:42:23Z</time>
      </trkpt>
      <trkpt lat="41.627580" lon="0.636143">
        <ele>136.751</ele>
        <time>2018-11-24T13:42:24Z</time>
      </trkpt>
      <trkpt lat="41.627633" lon="0.636207">
        <ele>136.759</ele>
        <time>2018-11-24T13:42:25Z</time>
      </trkpt>
      <trkpt lat="41.627676" lon="0.636289">
        <ele>136.551</ele>
        <time>2018-11-24T13:42:26Z</time>
      </trkpt>
      <trkpt lat="41.627723" lon="0.636354">
        <ele>136.484</ele>
        <time>2018-11-24T13:42:27Z</time>
      </trkpt>
      <trkpt lat="41.627765" lon="0.636403">
        <ele>136.388</ele>
        <time>2018-11-24T13:42:28Z</time>
      </trkpt>
      <trkpt lat="41.627800" lon="0.636444">
        <ele>136.275</ele>
        <time>2018-11-24T13:42:29Z</time>
      </trkpt>
      <trkpt lat="41.627832" lon="0.636496">
        <ele>135.928</ele>
        <time>2018-11-24T13:42:32Z</time>
      </trkpt>
      <trkpt lat="41.627834" lon="0.636564">
        <ele>135.920</ele>
        <time>2018-11-24T13:42:33Z</time>
      </trkpt>
      <trkpt lat="41.627810" lon="0.636625">
        <ele>135.908</ele>
        <time>2018-11-24T13:42:35Z</time>
      </trkpt>
      <trkpt lat="41.627750" lon="0.636727">
        <ele>136.040</ele>
        <time>2018-11-24T13:42:37Z</time>
      </trkpt>
      <trkpt lat="41.627711" lon="0.636777">
        <ele>135.927</ele>
        <time>2018-11-24T13:42:38Z</time>
      </trkpt>
      <trkpt lat="41.627665" lon="0.636836">
        <ele>135.994</ele>
        <time>2018-11-24T13:42:39Z</time>
      </trkpt>
      <trkpt lat="41.627621" lon="0.636897">
        <ele>135.875</ele>
        <time>2018-11-24T13:42:40Z</time>
      </trkpt>
      <trkpt lat="41.627579" lon="0.636957">
        <ele>135.713</ele>
        <time>2018-11-24T13:42:41Z</time>
      </trkpt>
      <trkpt lat="41.627534" lon="0.637021">
        <ele>135.635</ele>
        <time>2018-11-24T13:42:42Z</time>
      </trkpt>
      <trkpt lat="41.627490" lon="0.637086">
        <ele>135.668</ele>
        <time>2018-11-24T13:42:43Z</time>
      </trkpt>
      <trkpt lat="41.627450" lon="0.637152">
        <ele>135.572</ele>
        <time>2018-11-24T13:42:44Z</time>
      </trkpt>
      <trkpt lat="41.627405" lon="0.637216">
        <ele>135.464</ele>
        <time>2018-11-24T13:42:45Z</time>
      </trkpt>
      <trkpt lat="41.627362" lon="0.637280">
        <ele>135.206</ele>
        <time>2018-11-24T13:42:46Z</time>
      </trkpt>
      <trkpt lat="41.627322" lon="0.637339">
        <ele>135.116</ele>
        <time>2018-11-24T13:42:47Z</time>
      </trkpt>
      <trkpt lat="41.627285" lon="0.637393">
        <ele>135.008</ele>
        <time>2018-11-24T13:42:48Z</time>
      </trkpt>
      <trkpt lat="41.627249" lon="0.637454">
        <ele>134.699</ele>
        <time>2018-11-24T13:42:50Z</time>
      </trkpt>
      <trkpt lat="41.627212" lon="0.637526">
        <ele>134.986</ele>
        <time>2018-11-24T13:43:14Z</time>
      </trkpt>
      <trkpt lat="41.627204" lon="0.637604">
        <ele>134.913</ele>
        <time>2018-11-24T13:43:15Z</time>
      </trkpt>
      <trkpt lat="41.627229" lon="0.637660">
        <ele>134.874</ele>
        <time>2018-11-24T13:43:16Z</time>
      </trkpt>
      <trkpt lat="41.627268" lon="0.637702">
        <ele>134.992</ele>
        <time>2018-11-24T13:43:17Z</time>
      </trkpt>
      <trkpt lat="41.627302" lon="0.637746">
        <ele>134.934</ele>
        <time>2018-11-24T13:43:18Z</time>
      </trkpt>
      <trkpt lat="41.627338" lon="0.637785">
        <ele>134.997</ele>
        <time>2018-11-24T13:43:19Z</time>
      </trkpt>
      <trkpt lat="41.627397" lon="0.637801">
        <ele>134.881</ele>
        <time>2018-11-24T13:43:22Z</time>
      </trkpt>
      <trkpt lat="41.627442" lon="0.637781">
        <ele>135.028</ele>
        <time>2018-11-24T13:44:05Z</time>
      </trkpt>
    </trkseg>
  </trk>
</gpx>
